
Distance (Route):
Temperature : 20.9°C
Humidity : 60.6%
Pressure : 976.9hPa| Receiver | Frames | First received | Last received |
|---|---|---|---|
| OE5MMP-10 | 715 | 2026-09-04 23:07:52 | 2026-09-05 01:48:11 |
| OE5WHR-10 | 700 | 2026-09-04 23:03:50 | 2026-09-05 01:55:37 |
| DO3MHA-11 | 474 | 2026-09-04 22:46:10 | 2026-09-05 01:39:56 |
| OE5DRO-10 | 446 | 2026-09-04 22:58:06 | 2026-09-05 01:55:51 |
| PG1ADW-2 | 414 | 2026-09-04 23:00:48 | 2026-09-05 01:55:39 |
| BAUMI2-15 | 391 | 2026-09-04 23:24:52 | 2026-09-05 00:58:11 |
| OE3JTB-15 | 342 | 2026-09-04 22:56:59 | 2026-09-05 01:55:30 |
| OE5HKT-10 | 324 | 2026-09-04 23:30:04 | 2026-09-05 01:52:26 |
| OE5FHM-15 | 293 | 2026-09-04 23:13:23 | 2026-09-05 01:52:18 |
| OE5REO-15 | 284 | 2026-09-04 23:27:14 | 2026-09-05 01:32:19 |
| DG1MFX-10 | 202 | 2026-09-04 22:47:06 | 2026-09-05 01:24:05 |
| OE5DXL-15 | 196 | 2026-09-04 22:52:18 | 2026-09-05 01:49:00 |
| DL6DJ-15 | 124 | 2026-09-04 22:52:20 | 2026-09-05 01:17:19 |
| PETON7-10 | 97 | 2026-09-04 23:34:39 | 2026-09-05 01:08:10 |
| DO7DH-14 | 41 | 2026-09-04 23:29:26 | 2026-09-05 00:35:43 |
| DF3TZ-5 | 39 | 2026-09-04 23:02:57 | 2026-09-05 00:55:15 |
| DB0UT-7 | 35 | 2026-09-04 23:07:07 | 2026-09-05 01:13:27 |
| DK5PH-5 | 33 | 2026-09-04 23:18:04 | 2026-09-05 01:03:27 |
| S52SK | 33 | 2026-09-04 23:22:34 | 2026-09-05 01:20:30 |
| OE8JPQ-2 | 33 | 2026-09-04 23:57:40 | 2026-09-05 00:46:37 |
| OE3MUC-15 | 14 | 2026-09-05 00:41:10 | 2026-09-05 00:52:10 |
| DM0DOS-11 | 9 | 2026-09-05 00:44:04 | 2026-09-05 00:47:48 |
| DH7VM-15 | 8 | 2026-09-04 23:20:42 | 2026-09-05 00:55:18 |
| DF7PN | 6 | 2026-09-04 23:41:58 | 2026-09-05 00:57:03 |
| DB0ND-19 | 4 | 2026-09-04 23:51:58 | 2026-09-05 00:53:00 |
| Receiver | Date | Latitude | Longitude | Direction | Speed | Altitude | Climb | Temperature | Humidity | Pressure | Voltage | Killtimer | Uptime | BKT | XDATA |
|---|---|---|---|---|---|---|---|---|---|---|---|---|---|---|---|
| OE5DRO-10 | 2026-09-05 01:55:51 | 48.30814 | 14.25592 | 113° | 9km/h | 356m | -2.4m/s | 20.9°C | 60.6% | 976.9hPa | 2.7V | 00:00:00 | 00:00:00 | 00:00:00 | |
| OE5DRO-10 | 2026-09-05 01:55:47 | 48.30817 | 14.25578 | 113° | 9km/h | 366m | -2.5m/s | 21.7°C | 56.2% | 975.6hPa | 2.7V | 00:00:00 | 00:00:00 | 00:00:00 | |
| OE5DRO-10 | 2026-09-05 01:55:45 | 48.30819 | 14.25572 | 114° | 9km/h | 371m | -2.4m/s | 22.1°C | 53.8% | 975.1hPa | 2.7V | 00:00:00 | 00:00:00 | 00:00:00 | |
| OE5DRO-10 | 2026-09-05 01:55:42 | 48.30821 | 14.25562 | 111° | 9km/h | 379m | -2.4m/s | 22.2°C | 53.2% | 974.2hPa | 2.7V | 00:00:00 | 00:00:00 | 00:00:00 | |
| OE5DRO-10 | 2026-09-05 01:55:40 | 48.30823 | 14.25555 | 114° | 11km/h | 383m | -2.7m/s | 22.4°C | 52.5% | 973.7hPa | 2.7V | 00:00:00 | 00:00:00 | 00:00:00 | |
| PG1ADW-2 | 2026-09-05 01:55:39 | 48.30824 | 14.25551 | 109° | 11km/h | 386m | -2.4m/s | 22.4°C | 52.5% | 973.3hPa | 2.7V | 00:00:00 | 00:00:00 | 00:00:00 | |
| OE5WHR-10 | 2026-09-05 01:55:37 | 48.30826 | 14.25543 | 110° | 11km/h | 391m | -2.2m/s | 22.4°C | 52.4% | 972.9hPa | 2.7V | 00:00:00 | 03:26:06 | 00:00:00 | |
| OE5WHR-10 | 2026-09-05 01:55:33 | 48.30829 | 14.25527 | 100° | 11km/h | 399m | -2.5m/s | 22.4°C | 52.2% | 971.8hPa | 2.7V | 00:00:00 | 00:00:00 | 00:00:00 | |
| OE5DRO-10 | 2026-09-05 01:55:32 | 48.30830 | 14.25523 | 96° | 11km/h | 402m | -2.5m/s | 22.4°C | 52.2% | 971.5hPa | 2.7V | 00:00:00 | 00:00:00 | 00:00:00 | |
| PG1ADW-2 | 2026-09-05 01:55:31 | 48.30830 | 14.25519 | 99° | 11km/h | 404m | -2.5m/s | 22.4°C | 52.1% | 971.2hPa | 2.7V | 07:09:00 | 00:00:00 | 00:00:00 | |
| OE5DRO-10 | 2026-09-05 01:55:30 | 48.30830 | 14.25515 | 100° | 11km/h | 407m | -2.4m/s | 22.4°C | 52.0% | 970.9hPa | 2.7V | 00:00:00 | 00:00:00 | 00:00:00 | |
| OE3JTB-15 | 2026-09-05 01:55:30 | 48.30830 | 14.25515 | 100° | 11km/h | 407m | -2.4m/s | 22.4°C | 52.0% | 970.9hPa | 2.7V | 00:00:00 | 00:00:00 | 00:00:00 | |
| OE5DRO-10 | 2026-09-05 01:55:28 | 48.30831 | 14.25506 | 92° | 11km/h | 411m | -2.3m/s | 22.5°C | 51.7% | 970.5hPa | 2.7V | 07:09:00 | 00:00:00 | 00:00:00 | |
| OE3JTB-15 | 2026-09-05 01:55:28 | 48.30831 | 14.25506 | 92° | 11km/h | 411m | -2.3m/s | 22.5°C | 51.7% | 970.5hPa | 2.7V | 00:00:00 | 03:25:57 | 00:00:00 | |
| OE5WHR-10 | 2026-09-05 01:55:28 | 48.30831 | 14.25506 | 92° | 11km/h | 411m | -2.3m/s | 22.5°C | 51.7% | 970.5hPa | 2.7V | 00:00:00 | 00:00:00 | 00:00:00 | |
| OE5DRO-10 | 2026-09-05 01:55:26 | 48.30831 | 14.25497 | 96° | 11km/h | 415m | -2.3m/s | 22.7°C | 50.8% | 969.8hPa | 2.7V | 00:00:00 | 00:00:00 | 00:00:00 | |
| OE3JTB-15 | 2026-09-05 01:55:26 | 48.30831 | 14.25497 | 96° | 11km/h | 415m | -2.3m/s | 22.7°C | 50.8% | 969.8hPa | 2.7V | 00:00:00 | 00:00:00 | 00:00:00 | |
| PG1ADW-2 | 2026-09-05 01:55:25 | 48.30832 | 14.25493 | 94° | 11km/h | 418m | -2.6m/s | 22.7°C | 50.7% | 969.6hPa | 2.7V | 00:00:00 | 00:00:00 | 00:00:00 | |
| OE5WHR-10 | 2026-09-05 01:55:25 | 48.30832 | 14.25493 | 94° | 11km/h | 418m | -2.6m/s | 22.7°C | 50.7% | 969.6hPa | 2.7V | 00:00:00 | 03:25:54 | 00:00:00 | |
| OE5DRO-10 | 2026-09-05 01:55:24 | 48.30832 | 14.25488 | 89° | 11km/h | 420m | -2.5m/s | 22.7°C | 50.8% | 969.3hPa | 2.7V | 00:00:00 | 00:00:00 | 00:00:00 | |
| OE3JTB-15 | 2026-09-05 01:55:24 | 48.30832 | 14.25488 | 89° | 11km/h | 420m | -2.5m/s | 22.7°C | 50.8% | 969.3hPa | 2.7V | 00:00:00 | 00:00:00 | 00:00:00 | |
| OE5DRO-10 | 2026-09-05 01:55:22 | 48.30831 | 14.25479 | 89° | 11km/h | 425m | -2.7m/s | 22.8°C | 50.2% | 968.7hPa | 2.7V | 00:00:00 | 00:00:00 | 00:00:00 | |
| OE3JTB-15 | 2026-09-05 01:55:22 | 48.30831 | 14.25479 | 89° | 11km/h | 425m | -2.7m/s | 22.8°C | 50.2% | 968.7hPa | 2.7V | 00:00:00 | 03:25:51 | 00:00:00 | |
| OE5DRO-10 | 2026-09-05 01:55:20 | 48.30831 | 14.25471 | 91° | 13km/h | 430m | -2.4m/s | 22.8°C | 50.1% | 968.3hPa | 2.7V | 00:00:00 | 00:00:00 | 00:00:00 | |
| OE3JTB-15 | 2026-09-05 01:55:20 | 48.30831 | 14.25471 | 91° | 13km/h | 430m | -2.4m/s | 22.8°C | 50.1% | 968.3hPa | 2.7V | 00:00:00 | 00:00:00 | 00:00:00 | |
| OE5WHR-10 | 2026-09-05 01:55:20 | 48.30831 | 14.25471 | 91° | 13km/h | 430m | -2.4m/s | 22.8°C | 50.1% | 968.3hPa | 2.7V | 07:09:00 | 00:00:00 | 00:00:00 | |
| PG1ADW-2 | 2026-09-05 01:55:19 | 48.30831 | 14.25466 | 86° | 13km/h | 433m | -2.2m/s | 22.9°C | 49.7% | 968.0hPa | 2.7V | 00:00:00 | 03:25:48 | 00:00:00 | |
| OE5DRO-10 | 2026-09-05 01:55:18 | 48.30831 | 14.25461 | 87° | 13km/h | 435m | -2.6m/s | 22.8°C | 49.8% | 967.6hPa | 2.7V | 00:00:00 | 00:00:00 | 00:00:00 | |
| OE3JTB-15 | 2026-09-05 01:55:18 | 48.30831 | 14.25461 | 87° | 13km/h | 435m | -2.6m/s | 22.8°C | 49.8% | 967.6hPa | 2.7V | 07:09:00 | 00:00:00 | 00:00:00 | |
| OE5WHR-10 | 2026-09-05 01:55:17 | 48.30830 | 14.25456 | 91° | 13km/h | 438m | -2.7m/s | 22.8°C | 49.9% | 967.4hPa | 2.7V | 00:00:00 | 00:00:00 | 00:00:00 | |
| OE5DRO-10 | 2026-09-05 01:55:16 | 48.30830 | 14.25451 | 93° | 13km/h | 440m | -2.2m/s | 22.8°C | 49.9% | 967.1hPa | 2.7V | 00:00:00 | 00:00:00 | 00:00:00 | |
| OE3JTB-15 | 2026-09-05 01:55:16 | 48.30830 | 14.25451 | 93° | 13km/h | 440m | -2.2m/s | 22.8°C | 49.9% | 967.1hPa | 2.7V | 00:00:00 | 03:25:45 | 00:00:00 | |
| OE5DRO-10 | 2026-09-05 01:55:14 | 48.30831 | 14.25442 | 84° | 13km/h | 445m | -2.6m/s | 22.8°C | 49.8% | 966.6hPa | 2.7V | 00:00:00 | 00:00:00 | 00:00:00 | |
| OE3JTB-15 | 2026-09-05 01:55:14 | 48.30831 | 14.25442 | 84° | 13km/h | 445m | -2.6m/s | 22.8°C | 49.8% | 966.6hPa | 2.7V | 00:00:00 | 00:00:00 | 00:00:00 | |
| PG1ADW-2 | 2026-09-05 01:55:13 | 48.30830 | 14.25437 | 83° | 15km/h | 447m | -2.6m/s | 22.8°C | 49.8% | 966.3hPa | 2.7V | 00:00:00 | 00:00:00 | 00:00:00 | |
| OE5WHR-10 | 2026-09-05 01:55:13 | 48.30830 | 14.25437 | 83° | 13km/h | 447m | -2.6m/s | 22.8°C | 49.8% | 966.3hPa | 2.7V | 00:00:00 | 03:25:42 | 00:00:00 | |
| OE5DRO-10 | 2026-09-05 01:55:12 | 48.30830 | 14.25432 | 91° | 13km/h | 450m | -2.5m/s | 22.7°C | 49.9% | 966.0hPa | 2.7V | 07:09:00 | 00:00:00 | 00:00:00 | |
| OE3JTB-15 | 2026-09-05 01:55:12 | 48.30830 | 14.25432 | 91° | 13km/h | 450m | -2.5m/s | 22.7°C | 49.9% | 966.0hPa | 2.7V | 00:00:00 | 00:00:00 | 00:00:00 | |
| OE5DRO-10 | 2026-09-05 01:55:10 | 48.30830 | 14.25422 | 91° | 15km/h | 455m | -2.5m/s | 22.7°C | 49.9% | 965.5hPa | 2.7V | 00:00:00 | 00:00:00 | 00:00:00 | |
| OE5WHR-10 | 2026-09-05 01:55:10 | 48.30830 | 14.25422 | 91° | 16km/h | 455m | -2.5m/s | 22.7°C | 49.9% | 965.5hPa | 2.7V | 00:00:00 | 00:00:00 | 00:00:00 | |
| OE3JTB-15 | 2026-09-05 01:55:10 | 48.30830 | 14.25422 | 91° | 15km/h | 455m | -2.5m/s | 22.7°C | 49.9% | 965.5hPa | 2.7V | 00:00:00 | 03:25:39 | 00:00:00 | |
| OE5DRO-10 | 2026-09-05 01:55:08 | 48.30830 | 14.25410 | 90° | 16km/h | 460m | -2.2m/s | 22.7°C | 49.9% | 965.2hPa | 2.7V | 00:00:00 | 00:00:00 | 00:00:00 | |
| OE3JTB-15 | 2026-09-05 01:55:08 | 48.30830 | 14.25410 | 90° | 16km/h | 460m | -2.2m/s | 22.7°C | 49.9% | 965.2hPa | 2.7V | 00:00:00 | 00:00:00 | 00:00:00 | |
| PG1ADW-2 | 2026-09-05 01:55:07 | 48.30830 | 14.25403 | 89° | 18km/h | 462m | -1.8m/s | 22.7°C | 49.8% | 964.7hPa | 2.7V | 00:00:00 | 00:00:00 | 00:00:00 | |
| OE5WHR-10 | 2026-09-05 01:55:07 | 48.30830 | 14.25403 | 89° | 18km/h | 462m | -1.8m/s | 22.7°C | 49.8% | 964.7hPa | 2.7V | 00:00:00 | 00:00:00 | 00:00:00 | |
| OE3JTB-15 | 2026-09-05 01:55:07 | 48.30831 | 14.25396 | 101° | 18km/h | 464m | -1.9m/s | 22.8°C | 49.7% | 964.5hPa | 2.7V | 00:00:00 | 00:00:00 | 00:00:00 | |
| OE5DRO-10 | 2026-09-05 01:55:07 | 48.30831 | 14.25396 | 101° | 18km/h | 464m | -1.9m/s | 22.8°C | 49.7% | 964.5hPa | 2.7V | 00:00:00 | 00:00:00 | 00:00:00 | |
| OE5DRO-10 | 2026-09-05 01:55:04 | 48.30832 | 14.25382 | 95° | 18km/h | 468m | -2.5m/s | 22.7°C | 50.0% | 964.2hPa | 2.7V | 00:00:00 | 00:00:00 | 00:00:00 | |
| OE3JTB-15 | 2026-09-05 01:55:04 | 48.30832 | 14.25382 | 95° | 18km/h | 468m | -2.5m/s | 22.7°C | 50.0% | 964.2hPa | 2.7V | 00:00:00 | 03:25:33 | 00:00:00 | |
| OE5WHR-10 | 2026-09-05 01:55:04 | 48.30832 | 14.25382 | 95° | 18km/h | 468m | -2.5m/s | 22.7°C | 50.0% | 964.2hPa | 2.7V | 00:00:00 | 03:25:33 | 00:00:00 | |
| OE5DRO-10 | 2026-09-05 01:55:02 | 48.30832 | 14.25367 | 97° | 18km/h | 473m | -2.3m/s | 22.7°C | 49.7% | 963.7hPa | 2.7V | 00:00:00 | 00:00:00 | 00:00:00 | |
| OE3JTB-15 | 2026-09-05 01:55:02 | 48.30832 | 14.25367 | 97° | 18km/h | 473m | -2.3m/s | 22.7°C | 49.7% | 963.7hPa | 2.7V | 07:09:00 | 00:00:00 | 00:00:00 | |
| PG1ADW-2 | 2026-09-05 01:55:01 | 48.30832 | 14.25360 | 91° | 20km/h | 475m | -2.0m/s | 22.8°C | 49.5% | 963.3hPa | 2.7V | 00:00:00 | 00:00:00 | 00:00:00 | |
| OE5WHR-10 | 2026-09-05 01:55:01 | 48.30832 | 14.25360 | 91° | 20km/h | 475m | -2.0m/s | 22.8°C | 49.5% | 963.3hPa | 2.7V | 00:00:00 | 00:00:00 | 00:00:00 | |
| OE5DRO-10 | 2026-09-05 01:55:00 | 48.30832 | 14.25353 | 92° | 20km/h | 478m | -2.3m/s | 22.7°C | 49.5% | 963.1hPa | 2.7V | 00:00:00 | 00:00:00 | 00:00:00 | |
| OE3JTB-15 | 2026-09-05 01:55:00 | 48.30832 | 14.25353 | 92° | 20km/h | 478m | -2.3m/s | 22.7°C | 49.5% | 963.1hPa | 2.7V | 00:00:00 | 00:00:00 | 00:00:00 | |
| OE5DRO-10 | 2026-09-05 01:54:58 | 48.30832 | 14.25338 | 89° | 22km/h | 482m | -2.6m/s | 22.7°C | 49.6% | 962.6hPa | 2.7V | 00:00:00 | 00:00:00 | 00:00:00 | |
| OE3JTB-15 | 2026-09-05 01:54:58 | 48.30832 | 14.25338 | 89° | 22km/h | 482m | -2.6m/s | 22.7°C | 49.6% | 962.6hPa | 2.7V | 00:00:00 | 03:25:27 | 00:00:00 | |
| OE5WHR-10 | 2026-09-05 01:54:58 | 48.30832 | 14.25338 | 89° | 20km/h | 482m | -2.6m/s | 22.7°C | 49.6% | 962.6hPa | 2.7V | 00:00:00 | 00:00:00 | 00:00:00 | |
| OE5WHR-10 | 2026-09-05 01:54:57 | 48.30832 | 14.25330 | 94° | 22km/h | 485m | -1.9m/s | 22.7°C | 49.7% | 962.3hPa | 2.7V | 00:00:00 | 00:00:00 | 00:00:00 | |
| OE5DRO-10 | 2026-09-05 01:54:56 | 48.30833 | 14.25321 | 99° | 20km/h | 486m | -2.1m/s | 22.7°C | 49.7% | 962.2hPa | 2.7V | 07:09:00 | 00:00:00 | 00:00:00 | |
| OE3JTB-15 | 2026-09-05 01:54:56 | 48.30833 | 14.25321 | 99° | 20km/h | 486m | -2.1m/s | 22.7°C | 49.7% | 962.2hPa | 2.7V | 00:00:00 | 00:00:00 | 00:00:00 | |
| OE5WHR-10 | 2026-09-05 01:54:55 | 48.30833 | 14.25314 | 95° | 20km/h | 489m | -1.7m/s | 22.8°C | 49.3% | 961.8hPa | 2.7V | 07:09:00 | 03:25:24 | 00:00:00 | |
| PG1ADW-2 | 2026-09-05 01:54:55 | 48.30833 | 14.25314 | 95° | 20km/h | 489m | -1.7m/s | 22.8°C | 49.3% | 961.8hPa | 2.7V | 00:00:00 | 03:25:24 | 00:00:00 | |
| OE5DRO-10 | 2026-09-05 01:54:54 | 48.30834 | 14.25306 | 101° | 20km/h | 490m | -2.1m/s | 22.7°C | 49.5% | 961.8hPa | 2.7V | 00:00:00 | 00:00:00 | 00:00:00 | |
| OE3JTB-15 | 2026-09-05 01:54:54 | 48.30834 | 14.25306 | 101° | 20km/h | 490m | -2.1m/s | 22.7°C | 49.5% | 961.8hPa | 2.7V | 00:00:00 | 00:00:00 | 00:00:00 | |
| OE5WHR-10 | 2026-09-05 01:54:53 | 48.30834 | 14.25299 | 91° | 24km/h | 493m | -1.9m/s | 22.6°C | 49.7% | 961.4hPa | 2.7V | 00:00:00 | 03:25:22 | 00:00:00 | |
| OE5DRO-10 | 2026-09-05 01:54:52 | 48.30834 | 14.25291 | 94° | 20km/h | 495m | -2.1m/s | 22.7°C | 49.5% | 961.4hPa | 2.7V | 00:00:00 | 00:00:00 | 00:00:00 | |
| OE3JTB-15 | 2026-09-05 01:54:52 | 48.30834 | 14.25291 | 94° | 20km/h | 495m | -2.1m/s | 22.7°C | 49.5% | 961.4hPa | 2.7V | 00:00:00 | 03:25:21 | 00:00:00 | |
| OE5WHR-10 | 2026-09-05 01:54:52 | 48.30834 | 14.25291 | 94° | 20km/h | 495m | -2.1m/s | 22.7°C | 49.5% | 961.4hPa | 2.7V | 00:00:00 | 00:00:00 | 00:00:00 | |
| OE5DRO-10 | 2026-09-05 01:54:50 | 48.30835 | 14.25276 | 98° | 20km/h | 499m | -1.6m/s | 22.8°C | 49.3% | 960.9hPa | 2.7V | 00:00:00 | 00:00:00 | 00:00:00 | |
| OE3JTB-15 | 2026-09-05 01:54:50 | 48.30835 | 14.25276 | 98° | 20km/h | 499m | -1.6m/s | 22.8°C | 49.3% | 960.9hPa | 2.7V | 00:00:00 | 00:00:00 | 00:00:00 | |
| PG1ADW-2 | 2026-09-05 01:54:49 | 48.30836 | 14.25269 | 99° | 20km/h | 500m | -1.8m/s | 22.8°C | 49.0% | 960.8hPa | 2.7V | 00:00:00 | 00:00:00 | 00:00:00 | |
| OE5WHR-10 | 2026-09-05 01:54:49 | 48.30836 | 14.25269 | 99° | 20km/h | 500m | -1.8m/s | 22.8°C | 49.0% | 960.8hPa | 2.7V | 00:00:00 | 00:00:00 | 00:00:00 | |
| OE3JTB-15 | 2026-09-05 01:54:48 | 48.30836 | 14.25261 | 96° | 20km/h | 502m | -2.1m/s | 22.9°C | 48.9% | 960.6hPa | 2.7V | 00:00:00 | 00:00:00 | 00:00:00 | |
| OE5DRO-10 | 2026-09-05 01:54:48 | 48.30836 | 14.25261 | 96° | 20km/h | 502m | -2.1m/s | 22.9°C | 48.9% | 960.6hPa | 2.7V | 00:00:00 | 00:00:00 | 00:00:00 | |
| OE5DRO-10 | 2026-09-05 01:54:46 | 48.30837 | 14.25245 | 101° | 20km/h | 506m | -1.9m/s | 22.9°C | 48.8% | 960.0hPa | 2.7V | 00:00:00 | 00:00:00 | 00:00:00 | |
| OE3JTB-15 | 2026-09-05 01:54:46 | 48.30837 | 14.25245 | 101° | 20km/h | 506m | -1.9m/s | 22.9°C | 48.8% | 960.0hPa | 2.7V | 07:09:00 | 03:25:15 | 00:00:00 | |
| OE5WHR-10 | 2026-09-05 01:54:46 | 48.30837 | 14.25245 | 101° | 20km/h | 506m | -1.9m/s | 22.9°C | 48.8% | 960.0hPa | 2.7V | 00:00:00 | 03:25:15 | 00:00:00 | |
| OE5DRO-10 | 2026-09-05 01:54:44 | 48.30839 | 14.25231 | 103° | 20km/h | 511m | -2.2m/s | 22.8°C | 49.0% | 959.9hPa | 2.7V | 00:00:00 | 00:00:00 | 00:00:00 | |
| OE3JTB-15 | 2026-09-05 01:54:44 | 48.30839 | 14.25231 | 103° | 20km/h | 511m | -2.2m/s | 22.8°C | 49.0% | 959.9hPa | 2.7V | 00:00:00 | 00:00:00 | 00:00:00 | |
| PG1ADW-2 | 2026-09-05 01:54:43 | 48.30840 | 14.25223 | 101° | 22km/h | 513m | -1.8m/s | 22.9°C | 48.8% | 959.3hPa | 2.7V | 07:09:00 | 00:00:00 | 00:00:00 | |
| OE5WHR-10 | 2026-09-05 01:54:43 | 48.30840 | 14.25223 | 101° | 20km/h | 513m | -1.8m/s | 22.9°C | 48.8% | 959.3hPa | 2.7V | 00:00:00 | 00:00:00 | 00:00:00 | |
| OE5DRO-10 | 2026-09-05 01:54:42 | 48.30841 | 14.25215 | 99° | 20km/h | 515m | -1.9m/s | 22.9°C | 48.8% | 959.4hPa | 2.7V | 00:00:00 | 00:00:00 | 00:00:00 | |
| OE3JTB-15 | 2026-09-05 01:54:42 | 48.30841 | 14.25215 | 99° | 20km/h | 515m | -1.9m/s | 22.9°C | 48.8% | 959.4hPa | 2.7V | 00:00:00 | 00:00:00 | 00:00:00 | |
| OE5DRO-10 | 2026-09-05 01:54:40 | 48.30843 | 14.25200 | 101° | 22km/h | 518m | -1.8m/s | 22.9°C | 48.5% | 958.9hPa | 2.7V | 07:09:00 | 00:00:00 | 00:00:00 | |
| OE3JTB-15 | 2026-09-05 01:54:40 | 48.30843 | 14.25200 | 101° | 22km/h | 518m | -1.8m/s | 22.9°C | 48.5% | 958.9hPa | 2.7V | 00:00:00 | 03:25:09 | 00:00:00 | |
| OE5WHR-10 | 2026-09-05 01:54:40 | 48.30843 | 14.25200 | 101° | 22km/h | 518m | -1.8m/s | 22.9°C | 48.5% | 958.9hPa | 2.7V | 00:00:00 | 00:00:00 | 00:00:00 | |
| OE5DRO-10 | 2026-09-05 01:54:38 | 48.30845 | 14.25184 | 100° | 22km/h | 522m | -2.1m/s | 23.0°C | 48.5% | 958.6hPa | 2.7V | 00:00:00 | 00:00:00 | 00:00:00 | |
| OE3JTB-15 | 2026-09-05 01:54:38 | 48.30845 | 14.25184 | 100° | 22km/h | 522m | -2.1m/s | 23.0°C | 48.5% | 958.6hPa | 2.7V | 00:00:00 | 00:00:00 | 00:00:00 | |
| PG1ADW-2 | 2026-09-05 01:54:37 | 48.30846 | 14.25175 | 101° | 20km/h | 524m | -2.1m/s | 22.9°C | 48.5% | 958.3hPa | 2.7V | 00:00:00 | 00:00:00 | 00:00:00 | |
| OE5WHR-10 | 2026-09-05 01:54:37 | 48.30846 | 14.25175 | 101° | 20km/h | 524m | -2.1m/s | 22.9°C | 48.5% | 958.3hPa | 2.7V | 00:00:00 | 03:25:06 | 00:00:00 | |
| OE5DRO-10 | 2026-09-05 01:54:36 | 48.30847 | 14.25168 | 102° | 20km/h | 526m | -2.4m/s | 22.9°C | 48.6% | 958.0hPa | 2.7V | 00:00:00 | 00:00:00 | 00:00:00 | |
| OE3JTB-15 | 2026-09-05 01:54:36 | 48.30847 | 14.25168 | 102° | 20km/h | 526m | -2.4m/s | 22.9°C | 48.6% | 958.0hPa | 2.7V | 00:00:00 | 00:00:00 | 00:00:00 | |
| OE5DRO-10 | 2026-09-05 01:54:34 | 48.30849 | 14.25153 | 100° | 20km/h | 531m | -2.6m/s | 23.1°C | 47.9% | 957.5hPa | 2.7V | 00:00:00 | 00:00:00 | 00:00:00 | |
| OE3JTB-15 | 2026-09-05 01:54:34 | 48.30849 | 14.25153 | 100° | 20km/h | 531m | -2.6m/s | 23.1°C | 47.9% | 957.5hPa | 2.7V | 00:00:00 | 03:25:03 | 00:00:00 | |
| OE5WHR-10 | 2026-09-05 01:54:34 | 48.30849 | 14.25153 | 100° | 20km/h | 531m | -2.6m/s | 23.1°C | 47.9% | 957.5hPa | 2.7V | 00:00:00 | 00:00:00 | 00:00:00 | |
| OE5WHR-10 | 2026-09-05 01:54:31 | 48.30850 | 14.25130 | 95° | 20km/h | 539m | -2.6m/s | 23.1°C | 47.8% | 956.7hPa | 2.7V | 07:10:00 | 00:00:00 | 00:00:00 | |
| PG1ADW-2 | 2026-09-05 01:54:31 | 48.30850 | 14.25130 | 95° | 22km/h | 539m | -2.6m/s | 23.1°C | 47.8% | 956.7hPa | 2.7V | 00:00:00 | 03:25:00 | 00:00:00 | |
| OE5DRO-10 | 2026-09-05 01:54:30 | 48.30851 | 14.25123 | 97° | 20km/h | 542m | -2.5m/s | 23.2°C | 47.6% | 956.5hPa | 2.7V | 00:00:00 | 00:00:00 | 00:00:00 | |
| OE3JTB-15 | 2026-09-05 01:54:30 | 48.30851 | 14.25123 | 97° | 22km/h | 542m | -2.5m/s | 23.2°C | 47.6% | 956.5hPa | 2.7V | 07:10:00 | 00:00:00 | 00:00:00 | |
| OE5DRO-10 | 2026-09-05 01:54:28 | 48.30853 | 14.25107 | 100° | 24km/h | 547m | -2.7m/s | 23.2°C | 47.6% | 955.9hPa | 2.7V | 00:00:00 | 00:00:00 | 00:00:00 | |
| OE5WHR-10 | 2026-09-05 01:54:28 | 48.30853 | 14.25107 | 100° | 24km/h | 547m | -2.7m/s | 23.2°C | 47.6% | 955.9hPa | 2.7V | 00:00:00 | 03:24:57 | 00:00:00 | |
| OE3JTB-15 | 2026-09-05 01:54:27 | 48.30853 | 14.25098 | 100° | 24km/h | 550m | -2.8m/s | 23.1°C | 47.6% | 955.6hPa | 2.7V | 00:00:00 | 03:24:56 | 00:00:00 | |
| OE5DRO-10 | 2026-09-05 01:54:26 | 48.30855 | 14.25089 | 104° | 26km/h | 553m | -2.8m/s | 23.1°C | 47.7% | 955.3hPa | 2.7V | 00:00:00 | 00:00:00 | 00:00:00 | |
| PG1ADW-2 | 2026-09-05 01:54:25 | 48.30856 | 14.25080 | 106° | 27km/h | 555m | -2.4m/s | 23.1°C | 47.8% | 954.8hPa | 2.7V | 00:00:00 | 00:00:00 | 00:00:00 | |
| OE3JTB-15 | 2026-09-05 01:54:25 | 48.30856 | 14.25080 | 106° | 26km/h | 555m | -2.4m/s | 23.1°C | 47.8% | 954.8hPa | 2.7V | 00:00:00 | 00:00:00 | 00:00:00 | |
| OE5WHR-10 | 2026-09-05 01:54:25 | 48.30856 | 14.25080 | 106° | 26km/h | 555m | -2.4m/s | 23.1°C | 47.8% | 954.8hPa | 2.7V | 00:00:00 | 00:00:00 | 00:00:00 | |
| OE5DRO-10 | 2026-09-05 01:54:24 | 48.30858 | 14.25071 | 107° | 27km/h | 558m | -3.0m/s | 23.1°C | 47.7% | 954.7hPa | 2.7V | 07:10:00 | 00:00:00 | 00:00:00 | |
| OE3JTB-15 | 2026-09-05 01:54:23 | 48.30860 | 14.25061 | 106° | 27km/h | 561m | -2.9m/s | 23.0°C | 47.9% | 954.4hPa | 2.7V | 00:00:00 | 00:00:00 | 00:00:00 | |
| OE5DRO-10 | 2026-09-05 01:54:22 | 48.30862 | 14.25051 | 105° | 27km/h | 564m | -3.3m/s | 23.0°C | 47.9% | 953.9hPa | 2.7V | 00:00:00 | 00:00:00 | 00:00:00 | |
| OE5WHR-10 | 2026-09-05 01:54:22 | 48.30862 | 14.25051 | 105° | 27km/h | 564m | -3.3m/s | 23.0°C | 47.9% | 953.9hPa | 2.7V | 00:00:00 | 00:00:00 | 00:00:00 | |
| OE3JTB-15 | 2026-09-05 01:54:21 | 48.30863 | 14.25040 | 104° | 27km/h | 567m | -2.4m/s | 23.0°C | 48.0% | 953.7hPa | 2.7V | 00:00:00 | 03:24:50 | 00:00:00 | |
| OE5DRO-10 | 2026-09-05 01:54:20 | 48.30865 | 14.25030 | 105° | 27km/h | 569m | -2.6m/s | 23.0°C | 48.1% | 953.3hPa | 2.7V | 00:00:00 | 00:00:00 | 00:00:00 | |
| PG1ADW-2 | 2026-09-05 01:54:19 | 48.30867 | 14.25021 | 105° | 29km/h | 572m | -2.6m/s | 22.9°C | 48.1% | 953.2hPa | 2.7V | 00:00:00 | 00:00:00 | 00:00:00 | |
| OE3JTB-15 | 2026-09-05 01:54:19 | 48.30867 | 14.25021 | 105° | 29km/h | 572m | -2.6m/s | 22.9°C | 48.1% | 953.2hPa | 2.7V | 00:00:00 | 00:00:00 | 00:00:00 | |
| OE5WHR-10 | 2026-09-05 01:54:19 | 48.30867 | 14.25021 | 105° | 29km/h | 572m | -2.6m/s | 22.9°C | 48.1% | 953.2hPa | 2.7V | 00:00:00 | 03:24:48 | 00:00:00 | |
| OE5DRO-10 | 2026-09-05 01:54:18 | 48.30869 | 14.25010 | 102° | 29km/h | 575m | -2.8m/s | 22.9°C | 48.3% | 953.0hPa | 2.7V | 00:00:00 | 00:00:00 | 00:00:00 | |
| OE3JTB-15 | 2026-09-05 01:54:17 | 48.30870 | 14.24999 | 100° | 29km/h | 577m | -2.7m/s | 22.9°C | 48.2% | 952.5hPa | 2.7V | 00:00:00 | 00:00:00 | 00:00:00 | |
| OE3JTB-15 | 2026-09-05 01:54:15 | 48.30872 | 14.24977 | 98° | 29km/h | 583m | -2.7m/s | 22.8°C | 48.4% | 951.9hPa | 2.7V | 00:00:00 | 03:24:44 | 00:00:00 | |
| OE5DRO-10 | 2026-09-05 01:54:14 | 48.30873 | 14.24966 | 100° | 29km/h | 586m | -2.6m/s | 22.8°C | 48.4% | 951.7hPa | 2.7V | 00:00:00 | 00:00:00 | 00:00:00 | |
| OE3JTB-15 | 2026-09-05 01:54:13 | 48.30874 | 14.24955 | 100° | 31km/h | 588m | -2.3m/s | 22.8°C | 48.5% | 951.3hPa | 2.7V | 07:10:00 | 00:00:00 | 00:00:00 | |
| PG1ADW-2 | 2026-09-05 01:54:13 | 48.30874 | 14.24955 | 100° | 31km/h | 588m | -2.3m/s | 22.8°C | 48.5% | 951.3hPa | 2.7V | 00:00:00 | 00:00:00 | 00:00:00 | |
| OE5WHR-10 | 2026-09-05 01:54:13 | 48.30874 | 14.24955 | 100° | 31km/h | 588m | -2.3m/s | 22.8°C | 48.5% | 951.3hPa | 2.7V | 00:00:00 | 00:00:00 | 00:00:00 | |
| OE5DRO-10 | 2026-09-05 01:54:12 | 48.30875 | 14.24944 | 101° | 31km/h | 590m | -2.3m/s | 22.7°C | 48.5% | 951.1hPa | 2.7V | 00:00:00 | 00:00:00 | 00:00:00 | |
| OE3JTB-15 | 2026-09-05 01:54:11 | 48.30877 | 14.24932 | 100° | 31km/h | 593m | -2.5m/s | 22.7°C | 48.5% | 950.9hPa | 2.7V | 00:00:00 | 00:00:00 | 00:00:00 | |
| OE5DRO-10 | 2026-09-05 01:54:10 | 48.30878 | 14.24921 | 101° | 31km/h | 595m | -2.6m/s | 22.6°C | 48.8% | 950.7hPa | 2.7V | 00:00:00 | 00:00:00 | 00:00:00 | |
| OE5WHR-10 | 2026-09-05 01:54:10 | 48.30878 | 14.24921 | 101° | 31km/h | 595m | -2.6m/s | 22.6°C | 48.8% | 950.7hPa | 2.7V | 00:00:00 | 03:24:39 | 00:00:00 | |
| OE3JTB-15 | 2026-09-05 01:54:09 | 48.30880 | 14.24909 | 103° | 31km/h | 598m | -2.6m/s | 22.6°C | 48.9% | 950.3hPa | 2.7V | 00:00:00 | 03:24:38 | 00:00:00 | |
| OE5DRO-10 | 2026-09-05 01:54:08 | 48.30881 | 14.24898 | 105° | 31km/h | 600m | -2.4m/s | 22.6°C | 49.1% | 950.1hPa | 2.7V | 07:10:00 | 00:00:00 | 00:00:00 | |
| OE3JTB-15 | 2026-09-05 01:54:07 | 48.30883 | 14.24887 | 104° | 31km/h | 603m | -2.7m/s | 22.5°C | 49.2% | 949.8hPa | 2.7V | 00:00:00 | 00:00:00 | 00:00:00 | |
| OE5WHR-10 | 2026-09-05 01:54:07 | 48.30883 | 14.24887 | 104° | 31km/h | 603m | -2.7m/s | 22.5°C | 49.2% | 949.8hPa | 2.7V | 07:10:00 | 00:00:00 | 00:00:00 | |
| PG1ADW-2 | 2026-09-05 01:54:07 | 48.30883 | 14.24887 | 104° | 33km/h | 603m | -2.7m/s | 22.5°C | 49.2% | 949.8hPa | 2.7V | 00:00:00 | 03:24:36 | 00:00:00 | |
| OE5DRO-10 | 2026-09-05 01:54:06 | 48.30885 | 14.24875 | 102° | 31km/h | 606m | -2.7m/s | 22.5°C | 49.4% | 949.4hPa | 2.7V | 00:00:00 | 00:00:00 | 00:00:00 | |
| OE5DRO-10 | 2026-09-05 01:54:04 | 48.30888 | 14.24852 | 102° | 31km/h | 611m | -2.5m/s | 22.4°C | 49.4% | 948.9hPa | 2.7V | 00:00:00 | 00:00:00 | 00:00:00 | |
| OE3JTB-15 | 2026-09-05 01:54:04 | 48.30888 | 14.24852 | 102° | 31km/h | 611m | -2.5m/s | 22.4°C | 49.4% | 948.9hPa | 2.7V | 00:00:00 | 00:00:00 | 00:00:00 | |
| OE5WHR-10 | 2026-09-05 01:54:04 | 48.30888 | 14.24852 | 102° | 33km/h | 611m | -2.5m/s | 22.4°C | 49.4% | 948.9hPa | 2.7V | 00:00:00 | 00:00:00 | 00:00:00 | |
| OE3JTB-15 | 2026-09-05 01:54:02 | 48.30892 | 14.24828 | 103° | 35km/h | 617m | -2.7m/s | 22.4°C | 49.5% | 948.4hPa | 2.7V | 00:00:00 | 03:24:31 | 00:00:00 | |
| OE5DRO-10 | 2026-09-05 01:54:02 | 48.30892 | 14.24828 | 103° | 35km/h | 617m | -2.7m/s | 22.4°C | 49.5% | 948.4hPa | 2.7V | 00:00:00 | 00:00:00 | 00:00:00 | |
| PG1ADW-2 | 2026-09-05 01:54:01 | 48.30893 | 14.24815 | 101° | 35km/h | 620m | -3.1m/s | 22.3°C | 49.6% | 948.0hPa | 2.7V | 00:00:00 | 00:00:00 | 00:00:00 | |
| OE5WHR-10 | 2026-09-05 01:54:01 | 48.30893 | 14.24815 | 101° | 35km/h | 620m | -3.1m/s | 22.3°C | 49.6% | 948.0hPa | 2.7V | 00:00:00 | 03:24:30 | 00:00:00 | |
| OE3JTB-15 | 2026-09-05 01:54:00 | 48.30895 | 14.24802 | 99° | 35km/h | 623m | -2.8m/s | 22.3°C | 49.8% | 947.6hPa | 2.7V | 00:00:00 | 00:00:00 | 00:00:00 | |
| OE5DRO-10 | 2026-09-05 01:54:00 | 48.30895 | 14.24802 | 99° | 35km/h | 623m | -2.8m/s | 22.3°C | 49.8% | 947.6hPa | 2.7V | 00:00:00 | 00:00:00 | 00:00:00 | |
| OE5DRO-10 | 2026-09-05 01:53:58 | 48.30898 | 14.24777 | 102° | 35km/h | 628m | -2.4m/s | 22.2°C | 50.1% | 946.8hPa | 2.7V | 00:00:00 | 00:00:00 | 00:00:00 | |
| OE3JTB-15 | 2026-09-05 01:53:58 | 48.30898 | 14.24777 | 102° | 35km/h | 628m | -2.4m/s | 22.2°C | 50.1% | 946.8hPa | 2.7V | 00:00:00 | 00:00:00 | 00:00:00 | |
| OE5WHR-10 | 2026-09-05 01:53:58 | 48.30898 | 14.24777 | 102° | 35km/h | 628m | -2.4m/s | 22.2°C | 50.1% | 946.8hPa | 2.7V | 00:00:00 | 00:00:00 | 00:00:00 | |
| OE5DRO-10 | 2026-09-05 01:53:56 | 48.30901 | 14.24751 | 101° | 35km/h | 634m | -2.7m/s | 22.1°C | 50.2% | 946.4hPa | 2.7V | 00:00:00 | 00:00:00 | 00:00:00 | |
| OE3JTB-15 | 2026-09-05 01:53:56 | 48.30901 | 14.24751 | 101° | 35km/h | 634m | -2.7m/s | 22.1°C | 50.2% | 946.4hPa | 2.7V | 07:10:00 | 03:24:25 | 00:00:00 | |
| OE5WHR-10 | 2026-09-05 01:53:56 | 48.30901 | 14.24751 | 101° | 35km/h | 634m | -2.7m/s | 22.1°C | 50.2% | 946.4hPa | 2.7V | 00:00:00 | 00:00:00 | 00:00:00 | |
| PG1ADW-2 | 2026-09-05 01:53:55 | 48.30903 | 14.24738 | 100° | 35km/h | 636m | -2.5m/s | 22.1°C | 50.2% | 946.1hPa | 2.7V | 07:10:00 | 00:00:00 | 00:00:00 | |
| OE5WHR-10 | 2026-09-05 01:53:55 | 48.30903 | 14.24738 | 100° | 35km/h | 636m | -2.5m/s | 22.1°C | 50.2% | 946.1hPa | 2.7V | 00:00:00 | 00:00:00 | 00:00:00 | |
| OE3JTB-15 | 2026-09-05 01:53:54 | 48.30904 | 14.24725 | 100° | 35km/h | 639m | -2.3m/s | 22.1°C | 50.4% | 945.7hPa | 2.7V | 00:00:00 | 00:00:00 | 00:00:00 | |
| OE5DRO-10 | 2026-09-05 01:53:54 | 48.30904 | 14.24725 | 100° | 35km/h | 639m | -2.3m/s | 22.1°C | 50.4% | 945.7hPa | 2.7V | 00:00:00 | 00:00:00 | 00:00:00 | |
| OE5WHR-10 | 2026-09-05 01:53:53 | 48.30906 | 14.24712 | 101° | 35km/h | 641m | -2.2m/s | 22.1°C | 50.2% | 945.5hPa | 2.7V | 00:00:00 | 00:00:00 | 00:00:00 | |
| OE5DRO-10 | 2026-09-05 01:53:52 | 48.30907 | 14.24699 | 99° | 37km/h | 643m | -2.2m/s | 22.1°C | 50.2% | 945.2hPa | 2.7V | 07:10:00 | 00:00:00 | 00:00:00 | |
| OE3JTB-15 | 2026-09-05 01:53:52 | 48.30907 | 14.24699 | 99° | 37km/h | 643m | -2.2m/s | 22.1°C | 50.2% | 945.2hPa | 2.7V | 00:00:00 | 00:00:00 | 00:00:00 | |
| OE5WHR-10 | 2026-09-05 01:53:52 | 48.30907 | 14.24699 | 99° | 35km/h | 643m | -2.2m/s | 22.1°C | 50.2% | 945.2hPa | 2.7V | 00:00:00 | 03:24:21 | 00:00:00 | |
| OE5DRO-10 | 2026-09-05 01:53:50 | 48.30909 | 14.24672 | 97° | 35km/h | 648m | -2.1m/s | 22.4°C | 49.2% | 944.9hPa | 2.7V | 00:00:00 | 00:00:00 | 00:00:00 | |
| OE3JTB-15 | 2026-09-05 01:53:50 | 48.30909 | 14.24672 | 97° | 35km/h | 648m | -2.1m/s | 22.4°C | 49.2% | 944.9hPa | 2.7V | 00:00:00 | 03:24:19 | 00:00:00 | |
| OE5WHR-10 | 2026-09-05 01:53:50 | 48.30909 | 14.24672 | 97° | 37km/h | 648m | -2.1m/s | 22.4°C | 49.2% | 944.9hPa | 2.7V | 00:00:00 | 03:24:19 | 00:00:00 | |
| PG1ADW-2 | 2026-09-05 01:53:49 | 48.30910 | 14.24659 | 99° | 37km/h | 650m | -2.3m/s | 22.8°C | 47.9% | 944.5hPa | 2.7V | 00:00:00 | 00:00:00 | 00:00:00 | |
| OE5WHR-10 | 2026-09-05 01:53:49 | 48.30910 | 14.24659 | 99° | 37km/h | 650m | -2.3m/s | 22.8°C | 47.9% | 944.5hPa | 2.7V | 00:00:00 | 00:00:00 | 00:00:00 | |
| OE5DRO-10 | 2026-09-05 01:53:48 | 48.30912 | 14.24645 | 101° | 37km/h | 653m | -2.4m/s | 22.8°C | 47.8% | 944.1hPa | 2.7V | 00:00:00 | 00:00:00 | 00:00:00 | |
| OE3JTB-15 | 2026-09-05 01:53:48 | 48.30912 | 14.24645 | 101° | 37km/h | 653m | -2.4m/s | 22.8°C | 47.8% | 944.1hPa | 2.7V | 00:00:00 | 00:00:00 | 00:00:00 | |
| OE5WHR-10 | 2026-09-05 01:53:47 | 48.30914 | 14.24632 | 101° | 37km/h | 655m | -2.3m/s | 22.8°C | 48.0% | 944.0hPa | 2.7V | 00:00:00 | 00:00:00 | 00:00:00 | |
| OE5DRO-10 | 2026-09-05 01:53:46 | 48.30916 | 14.24618 | 102° | 37km/h | 657m | -2.5m/s | 22.8°C | 48.0% | 943.6hPa | 2.7V | 00:00:00 | 00:00:00 | 00:00:00 | |
| OE3JTB-15 | 2026-09-05 01:53:46 | 48.30916 | 14.24618 | 102° | 37km/h | 657m | -2.5m/s | 22.8°C | 48.0% | 943.6hPa | 2.7V | 00:00:00 | 00:00:00 | 00:00:00 | |
| OE5WHR-10 | 2026-09-05 01:53:46 | 48.30916 | 14.24618 | 102° | 37km/h | 657m | -2.5m/s | 22.8°C | 48.0% | 943.6hPa | 2.7V | 00:00:00 | 00:00:00 | 00:00:00 | |
| OE5DRO-10 | 2026-09-05 01:53:44 | 48.30919 | 14.24590 | 103° | 37km/h | 662m | -2.2m/s | 22.7°C | 48.2% | 943.4hPa | 2.7V | 00:00:00 | 00:00:00 | 00:00:00 | |
| OE3JTB-15 | 2026-09-05 01:53:44 | 48.30919 | 14.24590 | 103° | 37km/h | 662m | -2.2m/s | 22.7°C | 48.2% | 943.4hPa | 2.7V | 00:00:00 | 03:24:13 | 00:00:00 | |
| OE5WHR-10 | 2026-09-05 01:53:44 | 48.30919 | 14.24590 | 103° | 37km/h | 662m | -2.2m/s | 22.7°C | 48.2% | 943.4hPa | 2.7V | 07:10:00 | 00:00:00 | 00:00:00 | |
| OE5WHR-10 | 2026-09-05 01:53:43 | 48.30921 | 14.24577 | 105° | 38km/h | 664m | -2.4m/s | 22.7°C | 48.2% | 942.9hPa | 2.7V | 07:10:00 | 03:24:12 | 00:00:00 | |
| PG1ADW-2 | 2026-09-05 01:53:43 | 48.30921 | 14.24577 | 105° | 37km/h | 664m | -2.4m/s | 22.7°C | 48.2% | 942.9hPa | 2.7V | 00:00:00 | 03:24:12 | 00:00:00 | |
| OE5DRO-10 | 2026-09-05 01:53:42 | 48.30924 | 14.24563 | 104° | 38km/h | 667m | -2.5m/s | 22.7°C | 48.2% | 942.6hPa | 2.7V | 00:00:00 | 00:00:00 | 00:00:00 | |
| OE3JTB-15 | 2026-09-05 01:53:42 | 48.30924 | 14.24563 | 104° | 38km/h | 667m | -2.5m/s | 22.7°C | 48.2% | 942.6hPa | 2.7V | 00:00:00 | 00:00:00 | 00:00:00 | |
| OE5WHR-10 | 2026-09-05 01:53:41 | 48.30926 | 14.24549 | 103° | 37km/h | 670m | -2.4m/s | 22.7°C | 48.4% | 942.5hPa | 2.7V | 00:00:00 | 03:24:10 | 00:00:00 | |
| OE5DRO-10 | 2026-09-05 01:53:40 | 48.30928 | 14.24535 | 104° | 37km/h | 672m | -2.3m/s | 22.6°C | 48.3% | 942.2hPa | 2.7V | 00:00:00 | 00:00:00 | 00:00:00 | |
| OE3JTB-15 | 2026-09-05 01:53:40 | 48.30928 | 14.24535 | 104° | 37km/h | 672m | -2.3m/s | 22.6°C | 48.3% | 942.2hPa | 2.7V | 07:10:00 | 00:00:00 | 00:00:00 | |
| OE5WHR-10 | 2026-09-05 01:53:40 | 48.30928 | 14.24535 | 104° | 37km/h | 672m | -2.3m/s | 22.6°C | 48.3% | 942.2hPa | 2.7V | 00:00:00 | 00:00:00 | 00:00:00 | |
| OE5DRO-10 | 2026-09-05 01:53:38 | 48.30932 | 14.24508 | 104° | 38km/h | 677m | -2.5m/s | 22.6°C | 48.4% | 941.6hPa | 2.7V | 00:00:00 | 00:00:00 | 00:00:00 | |
| OE3JTB-15 | 2026-09-05 01:53:38 | 48.30932 | 14.24508 | 104° | 38km/h | 677m | -2.5m/s | 22.6°C | 48.4% | 941.6hPa | 2.7V | 00:00:00 | 03:24:07 | 00:00:00 | |
| OE5WHR-10 | 2026-09-05 01:53:38 | 48.30932 | 14.24508 | 104° | 38km/h | 677m | -2.5m/s | 22.6°C | 48.4% | 941.6hPa | 2.7V | 00:00:00 | 00:00:00 | 00:00:00 | |
| PG1ADW-2 | 2026-09-05 01:53:37 | 48.30934 | 14.24494 | 103° | 38km/h | 679m | -2.5m/s | 22.6°C | 48.5% | 941.4hPa | 2.7V | 00:00:00 | 00:00:00 | 00:00:00 | |
| OE5WHR-10 | 2026-09-05 01:53:37 | 48.30934 | 14.24494 | 103° | 38km/h | 679m | -2.5m/s | 22.6°C | 48.5% | 941.4hPa | 2.7V | 00:00:00 | 00:00:00 | 00:00:00 | |
| OE5DRO-10 | 2026-09-05 01:53:36 | 48.30936 | 14.24479 | 101° | 38km/h | 682m | -2.4m/s | 22.6°C | 48.5% | 941.2hPa | 2.7V | 07:10:00 | 00:00:00 | 00:00:00 | |
| OE3JTB-15 | 2026-09-05 01:53:36 | 48.30936 | 14.24479 | 101° | 38km/h | 682m | -2.4m/s | 22.6°C | 48.5% | 941.2hPa | 2.7V | 00:00:00 | 00:00:00 | 00:00:00 | |
| OE5WHR-10 | 2026-09-05 01:53:35 | 48.30938 | 14.24465 | 103° | 38km/h | 684m | -2.4m/s | 22.6°C | 48.4% | 940.9hPa | 2.7V | 00:00:00 | 00:00:00 | 00:00:00 | |
| OE5DRO-10 | 2026-09-05 01:53:34 | 48.30941 | 14.24451 | 104° | 38km/h | 686m | -2.2m/s | 22.6°C | 48.5% | 940.7hPa | 2.7V | 00:00:00 | 00:00:00 | 00:00:00 | |
| OE3JTB-15 | 2026-09-05 01:53:34 | 48.30941 | 14.24451 | 104° | 38km/h | 686m | -2.2m/s | 22.6°C | 48.5% | 940.7hPa | 2.7V | 00:00:00 | 00:00:00 | 00:00:00 | |
| OE5WHR-10 | 2026-09-05 01:53:34 | 48.30941 | 14.24451 | 104° | 40km/h | 686m | -2.2m/s | 22.6°C | 48.5% | 940.7hPa | 2.7V | 00:00:00 | 03:24:03 | 00:00:00 | |
| OE5DRO-10 | 2026-09-05 01:53:32 | 48.30945 | 14.24422 | 104° | 40km/h | 691m | -2.4m/s | 22.6°C | 48.6% | 940.1hPa | 2.7V | 00:00:00 | 00:00:00 | 00:00:00 | |
| OE3JTB-15 | 2026-09-05 01:53:32 | 48.30945 | 14.24422 | 104° | 40km/h | 691m | -2.4m/s | 22.6°C | 48.6% | 940.1hPa | 2.7V | 00:00:00 | 03:24:01 | 00:00:00 | |
| OE5WHR-10 | 2026-09-05 01:53:32 | 48.30945 | 14.24422 | 104° | 40km/h | 691m | -2.4m/s | 22.6°C | 48.6% | 940.1hPa | 2.7V | 00:00:00 | 03:24:01 | 00:00:00 | |
| OE5WHR-10 | 2026-09-05 01:53:29 | 48.30953 | 14.24379 | 106° | 38km/h | 698m | -2.4m/s | 22.5°C | 48.8% | 939.4hPa | 2.7V | 00:00:00 | 00:00:00 | 00:00:00 | |
| OE5DRO-10 | 2026-09-05 01:53:28 | 48.30955 | 14.24364 | 105° | 40km/h | 700m | -2.2m/s | 22.5°C | 48.7% | 939.2hPa | 2.7V | 00:00:00 | 00:00:00 | 00:00:00 | |
| OE3JTB-15 | 2026-09-05 01:53:28 | 48.30955 | 14.24364 | 105° | 40km/h | 700m | -2.2m/s | 22.5°C | 48.7% | 939.2hPa | 2.7V | 00:00:00 | 00:00:00 | 00:00:00 | |
| OE5WHR-10 | 2026-09-05 01:53:28 | 48.30955 | 14.24364 | 105° | 38km/h | 700m | -2.2m/s | 22.5°C | 48.7% | 939.2hPa | 2.7V | 00:00:00 | 00:00:00 | 00:00:00 | |
| OE5DRO-10 | 2026-09-05 01:53:26 | 48.30960 | 14.24335 | 105° | 38km/h | 705m | -2.2m/s | 22.5°C | 48.9% | 938.7hPa | 2.7V | 00:00:00 | 00:00:00 | 00:00:00 | |
| OE3JTB-15 | 2026-09-05 01:53:26 | 48.30960 | 14.24335 | 105° | 38km/h | 705m | -2.2m/s | 22.5°C | 48.9% | 938.7hPa | 2.7V | 00:00:00 | 03:23:55 | 00:00:00 | |
| OE5WHR-10 | 2026-09-05 01:53:26 | 48.30960 | 14.24335 | 105° | 38km/h | 705m | -2.2m/s | 22.5°C | 48.9% | 938.7hPa | 2.7V | 00:00:00 | 00:00:00 | 00:00:00 | |
| OE5DRO-10 | 2026-09-05 01:53:24 | 48.30965 | 14.24307 | 107° | 40km/h | 710m | -2.3m/s | 22.4°C | 49.0% | 938.2hPa | 2.7V | 00:00:00 | 00:00:00 | 00:00:00 | |
| OE3JTB-15 | 2026-09-05 01:53:24 | 48.30965 | 14.24307 | 107° | 40km/h | 710m | -2.3m/s | 22.4°C | 49.0% | 938.2hPa | 2.7V | 07:11:00 | 00:00:00 | 00:00:00 | |
| OE5WHR-10 | 2026-09-05 01:53:23 | 48.30968 | 14.24292 | 106° | 38km/h | 712m | -2.3m/s | 22.4°C | 49.0% | 937.9hPa | 2.7V | 00:00:00 | 03:23:52 | 00:00:00 | |
| OE5DRO-10 | 2026-09-05 01:53:22 | 48.30971 | 14.24278 | 106° | 38km/h | 714m | -2.3m/s | 22.4°C | 49.1% | 937.6hPa | 2.7V | 00:00:00 | 00:00:00 | 00:00:00 | |
| OE3JTB-15 | 2026-09-05 01:53:22 | 48.30971 | 14.24278 | 106° | 38km/h | 714m | -2.3m/s | 22.4°C | 49.1% | 937.6hPa | 2.7V | 00:00:00 | 00:00:00 | 00:00:00 | |
| OE5WHR-10 | 2026-09-05 01:53:22 | 48.30971 | 14.24278 | 106° | 38km/h | 714m | -2.3m/s | 22.4°C | 49.1% | 937.6hPa | 2.7V | 00:00:00 | 00:00:00 | 00:00:00 | |
| OE3JTB-15 | 2026-09-05 01:53:20 | 48.30976 | 14.24251 | 107° | 40km/h | 719m | -2.3m/s | 22.4°C | 49.1% | 937.1hPa | 2.7V | 00:00:00 | 03:23:49 | 00:00:00 | |
| OE5WHR-10 | 2026-09-05 01:53:20 | 48.30976 | 14.24251 | 107° | 40km/h | 719m | -2.3m/s | 22.4°C | 49.1% | 937.1hPa | 2.7V | 07:11:00 | 00:00:00 | 00:00:00 | |
| OE5DRO-10 | 2026-09-05 01:53:20 | 48.30976 | 14.24251 | 107° | 40km/h | 719m | -2.3m/s | 22.4°C | 49.1% | 937.1hPa | 2.7V | 07:11:00 | 00:00:00 | 00:00:00 | |
| OE5WHR-10 | 2026-09-05 01:53:19 | 48.30979 | 14.24236 | 106° | 40km/h | 721m | -2.2m/s | 22.3°C | 49.2% | 937.0hPa | 2.7V | 07:11:00 | 00:00:00 | 00:00:00 | |
| PG1ADW-2 | 2026-09-05 01:53:19 | 48.30979 | 14.24236 | 106° | 40km/h | 721m | -2.2m/s | 22.3°C | 49.2% | 937.0hPa | 2.7V | 00:00:00 | 03:23:48 | 00:00:00 | |
| OE5DRO-10 | 2026-09-05 01:53:18 | 48.30981 | 14.24221 | 105° | 40km/h | 724m | -2.2m/s | 22.3°C | 49.2% | 936.7hPa | 2.7V | 00:00:00 | 00:00:00 | 00:00:00 | |
| OE3JTB-15 | 2026-09-05 01:53:18 | 48.30981 | 14.24221 | 105° | 40km/h | 724m | -2.2m/s | 22.3°C | 49.2% | 936.7hPa | 2.7V | 00:00:00 | 00:00:00 | 00:00:00 | |
| OE5WHR-10 | 2026-09-05 01:53:17 | 48.30984 | 14.24207 | 106° | 40km/h | 726m | -2.2m/s | 22.3°C | 49.2% | 936.4hPa | 2.7V | 00:00:00 | 00:00:00 | 00:00:00 | |
| OE5DRO-10 | 2026-09-05 01:53:16 | 48.30987 | 14.24192 | 107° | 40km/h | 728m | -2.2m/s | 22.3°C | 49.3% | 936.2hPa | 2.7V | 00:00:00 | 00:00:00 | 00:00:00 | |
| OE3JTB-15 | 2026-09-05 01:53:16 | 48.30987 | 14.24192 | 107° | 40km/h | 728m | -2.2m/s | 22.3°C | 49.3% | 936.2hPa | 2.7V | 00:00:00 | 00:00:00 | 00:00:00 | |
| OE5WHR-10 | 2026-09-05 01:53:16 | 48.30987 | 14.24192 | 107° | 40km/h | 728m | -2.2m/s | 22.3°C | 49.3% | 936.2hPa | 2.7V | 00:00:00 | 03:23:45 | 00:00:00 | |
| OE5DRO-10 | 2026-09-05 01:53:14 | 48.30992 | 14.24163 | 104° | 40km/h | 733m | -2.1m/s | 22.3°C | 49.3% | 935.6hPa | 2.7V | 00:00:00 | 00:00:00 | 00:00:00 | |
| OE3JTB-15 | 2026-09-05 01:53:14 | 48.30992 | 14.24163 | 104° | 40km/h | 733m | -2.1m/s | 22.3°C | 49.3% | 935.6hPa | 2.7V | 00:00:00 | 03:23:43 | 00:00:00 | |
| PG1ADW-2 | 2026-09-05 01:53:13 | 48.30995 | 14.24148 | 105° | 40km/h | 735m | -2.3m/s | 22.3°C | 49.4% | 935.5hPa | 2.7V | 00:00:00 | 00:00:00 | 00:00:00 | |
| OE5WHR-10 | 2026-09-05 01:53:13 | 48.30995 | 14.24148 | 105° | 40km/h | 735m | -2.3m/s | 22.3°C | 49.4% | 935.5hPa | 2.7V | 00:00:00 | 00:00:00 | 00:00:00 | |
| OE5DRO-10 | 2026-09-05 01:53:12 | 48.30997 | 14.24133 | 107° | 40km/h | 738m | -2.2m/s | 22.3°C | 49.6% | 935.2hPa | 2.7V | 00:00:00 | 00:00:00 | 00:00:00 | |
| OE3JTB-15 | 2026-09-05 01:53:12 | 48.30997 | 14.24133 | 107° | 40km/h | 738m | -2.2m/s | 22.3°C | 49.6% | 935.2hPa | 2.7V | 00:00:00 | 00:00:00 | 00:00:00 | |
| OE5WHR-10 | 2026-09-05 01:53:12 | 48.30997 | 14.24133 | 107° | 40km/h | 738m | -2.2m/s | 22.3°C | 49.6% | 935.2hPa | 2.7V | 00:00:00 | 03:23:41 | 00:00:00 | |
| OE5WHR-10 | 2026-09-05 01:53:09 | 48.31006 | 14.24090 | 106° | 40km/h | 745m | -2.5m/s | 22.2°C | 49.7% | 934.5hPa | 2.7V | 00:00:00 | 00:00:00 | 00:00:00 | |
| OE5DRO-10 | 2026-09-05 01:53:08 | 48.31009 | 14.24075 | 107° | 40km/h | 747m | -2.3m/s | 22.2°C | 49.8% | 934.2hPa | 2.7V | 00:00:00 | 00:00:00 | 00:00:00 | |
| OE3JTB-15 | 2026-09-05 01:53:08 | 48.31009 | 14.24075 | 107° | 40km/h | 747m | -2.3m/s | 22.2°C | 49.8% | 934.2hPa | 2.7V | 07:11:00 | 03:23:37 | 00:00:00 | |
| PG1ADW-2 | 2026-09-05 01:53:07 | 48.31012 | 14.24060 | 108° | 40km/h | 750m | -2.4m/s | 22.2°C | 49.8% | 933.9hPa | 2.7V | 07:11:00 | 00:00:00 | 00:00:00 | |
| OE5WHR-10 | 2026-09-05 01:53:07 | 48.31012 | 14.24060 | 108° | 40km/h | 750m | -2.4m/s | 22.2°C | 49.8% | 933.9hPa | 2.7V | 00:00:00 | 03:23:36 | 00:00:00 | |
| OE5DRO-10 | 2026-09-05 01:53:06 | 48.31015 | 14.24046 | 109° | 40km/h | 752m | -2.5m/s | 22.1°C | 49.9% | 933.6hPa | 2.7V | 00:00:00 | 00:00:00 | 00:00:00 | |
| OE3JTB-15 | 2026-09-05 01:53:06 | 48.31015 | 14.24046 | 109° | 40km/h | 752m | -2.5m/s | 22.1°C | 49.9% | 933.6hPa | 2.7V | 00:00:00 | 00:00:00 | 00:00:00 | |
| OE5WHR-10 | 2026-09-05 01:53:06 | 48.31015 | 14.24046 | 109° | 40km/h | 752m | -2.5m/s | 22.1°C | 49.9% | 933.6hPa | 2.7V | 00:00:00 | 00:00:00 | 00:00:00 | |
| OE3JTB-15 | 2026-09-05 01:53:04 | 48.31021 | 14.24017 | 107° | 40km/h | 757m | -2.3m/s | 22.1°C | 50.0% | 933.2hPa | 2.7V | 00:00:00 | 00:00:00 | 00:00:00 | |
| OE5DRO-10 | 2026-09-05 01:53:04 | 48.31021 | 14.24017 | 107° | 40km/h | 757m | -2.3m/s | 22.1°C | 50.0% | 933.2hPa | 2.7V | 07:11:00 | 00:00:00 | 00:00:00 | |
| OE5WHR-10 | 2026-09-05 01:53:04 | 48.31021 | 14.24017 | 107° | 40km/h | 757m | -2.3m/s | 22.1°C | 50.0% | 933.2hPa | 2.7V | 00:00:00 | 00:00:00 | 00:00:00 | |
| OE5WHR-10 | 2026-09-05 01:53:03 | 48.31024 | 14.24002 | 108° | 40km/h | 759m | -2.4m/s | 22.1°C | 50.0% | 932.9hPa | 2.7V | 00:00:00 | 03:23:32 | 00:00:00 | |
| PG1ADW-2 | 2026-09-05 01:53:01 | 48.31030 | 14.23973 | 108° | 42km/h | 764m | -2.3m/s | 22.1°C | 50.2% | 932.6hPa | 2.7V | 00:00:00 | 00:00:00 | 00:00:00 | |
| OE5WHR-10 | 2026-09-05 01:53:01 | 48.31030 | 14.23973 | 108° | 42km/h | 764m | -2.3m/s | 22.1°C | 50.2% | 932.6hPa | 2.7V | 00:00:00 | 00:00:00 | 00:00:00 | |
| OE5DRO-10 | 2026-09-05 01:53:00 | 48.31033 | 14.23958 | 107° | 42km/h | 766m | -2.3m/s | 22.0°C | 50.3% | 932.2hPa | 2.7V | 00:00:00 | 00:00:00 | 00:00:00 | |
| OE3JTB-15 | 2026-09-05 01:53:00 | 48.31033 | 14.23958 | 107° | 42km/h | 766m | -2.3m/s | 22.0°C | 50.3% | 932.2hPa | 2.7V | 00:00:00 | 00:00:00 | 00:00:00 | |
| OE5WHR-10 | 2026-09-05 01:53:00 | 48.31033 | 14.23958 | 107° | 42km/h | 766m | -2.3m/s | 22.0°C | 50.3% | 932.2hPa | 2.7V | 00:00:00 | 00:00:00 | 00:00:00 | |
| OE5DRO-10 | 2026-09-05 01:52:58 | 48.31039 | 14.23928 | 107° | 42km/h | 771m | -2.5m/s | 22.0°C | 50.5% | 931.6hPa | 2.7V | 00:00:00 | 00:00:00 | 00:00:00 | |
| OE3JTB-15 | 2026-09-05 01:52:58 | 48.31039 | 14.23928 | 107° | 42km/h | 771m | -2.5m/s | 22.0°C | 50.5% | 931.6hPa | 2.7V | 00:00:00 | 00:00:00 | 00:00:00 | |
| OE5WHR-10 | 2026-09-05 01:52:58 | 48.31039 | 14.23928 | 107° | 42km/h | 771m | -2.5m/s | 22.0°C | 50.5% | 931.6hPa | 2.7V | 00:00:00 | 03:23:27 | 00:00:00 | |
| OE5WHR-10 | 2026-09-05 01:52:57 | 48.31042 | 14.23913 | 108° | 42km/h | 774m | -2.2m/s | 22.0°C | 50.6% | 931.3hPa | 2.7V | 00:00:00 | 00:00:00 | 00:00:00 | |
| OE5DRO-10 | 2026-09-05 01:52:56 | 48.31045 | 14.23898 | 107° | 42km/h | 776m | -2.4m/s | 22.0°C | 50.6% | 931.2hPa | 2.7V | 00:00:00 | 00:00:00 | 00:00:00 | |
| OE3JTB-15 | 2026-09-05 01:52:56 | 48.31045 | 14.23898 | 107° | 42km/h | 776m | -2.4m/s | 22.0°C | 50.6% | 931.2hPa | 2.7V | 00:00:00 | 03:23:25 | 00:00:00 | |
| OE5WHR-10 | 2026-09-05 01:52:55 | 48.31048 | 14.23883 | 106° | 42km/h | 778m | -2.2m/s | 21.9°C | 50.7% | 930.9hPa | 2.7V | 07:11:00 | 00:00:00 | 00:00:00 | |
| PG1ADW-2 | 2026-09-05 01:52:55 | 48.31048 | 14.23883 | 106° | 42km/h | 778m | -2.2m/s | 21.9°C | 50.7% | 930.9hPa | 2.7V | 00:00:00 | 03:23:24 | 00:00:00 | |
| OE5DRO-10 | 2026-09-05 01:52:54 | 48.31051 | 14.23868 | 107° | 40km/h | 781m | -2.2m/s | 21.9°C | 50.8% | 930.5hPa | 2.7V | 00:00:00 | 00:00:00 | 00:00:00 | |
| OE3JTB-15 | 2026-09-05 01:52:54 | 48.31051 | 14.23868 | 107° | 40km/h | 781m | -2.2m/s | 21.9°C | 50.8% | 930.5hPa | 2.7V | 00:00:00 | 00:00:00 | 00:00:00 | |
| OE5WHR-10 | 2026-09-05 01:52:54 | 48.31051 | 14.23868 | 107° | 42km/h | 781m | -2.2m/s | 21.9°C | 50.8% | 930.5hPa | 2.7V | 07:11:00 | 03:23:23 | 00:00:00 | |
| OE5WHR-10 | 2026-09-05 01:52:51 | 48.31061 | 14.23823 | 109° | 42km/h | 788m | -2.2m/s | 21.9°C | 51.0% | 929.6hPa | 2.7V | 00:00:00 | 00:00:00 | 00:00:00 | |
| OE3JTB-15 | 2026-09-05 01:52:50 | 48.31064 | 14.23808 | 109° | 42km/h | 790m | -2.2m/s | 21.8°C | 51.0% | 929.6hPa | 2.7V | 00:00:00 | 03:23:19 | 00:00:00 | |
| OE5DRO-10 | 2026-09-05 01:52:50 | 48.31064 | 14.23808 | 109° | 42km/h | 790m | -2.2m/s | 21.8°C | 51.0% | 929.6hPa | 2.7V | 00:00:00 | 00:00:00 | 00:00:00 | |
| PG1ADW-2 | 2026-09-05 01:52:49 | 48.31068 | 14.23792 | 111° | 42km/h | 792m | -2.1m/s | 21.8°C | 51.0% | 929.4hPa | 2.7V | 00:00:00 | 00:00:00 | 00:00:00 | |
| OE5WHR-10 | 2026-09-05 01:52:49 | 48.31068 | 14.23792 | 111° | 42km/h | 792m | -2.1m/s | 21.8°C | 51.0% | 929.4hPa | 2.7V | 00:00:00 | 03:23:18 | 00:00:00 | |
| OE3JTB-15 | 2026-09-05 01:52:48 | 48.31071 | 14.23778 | 113° | 44km/h | 794m | -2.2m/s | 21.8°C | 51.1% | 929.2hPa | 2.7V | 00:00:00 | 00:00:00 | 00:00:00 | |
| OE5DRO-10 | 2026-09-05 01:52:48 | 48.31071 | 14.23778 | 113° | 44km/h | 794m | -2.2m/s | 21.8°C | 51.1% | 929.2hPa | 2.7V | 07:11:00 | 00:00:00 | 00:00:00 | |
| OE5WHR-10 | 2026-09-05 01:52:48 | 48.31071 | 14.23778 | 113° | 44km/h | 794m | -2.2m/s | 21.8°C | 51.1% | 929.2hPa | 2.7V | 00:00:00 | 00:00:00 | 00:00:00 | |
| OE5DRO-10 | 2026-09-05 01:52:46 | 48.31080 | 14.23747 | 111° | 44km/h | 799m | -2.3m/s | 21.8°C | 51.2% | 928.5hPa | 2.7V | 00:00:00 | 00:00:00 | 00:00:00 | |
| OE3JTB-15 | 2026-09-05 01:52:46 | 48.31080 | 14.23747 | 111° | 44km/h | 799m | -2.3m/s | 21.8°C | 51.2% | 928.5hPa | 2.7V | 00:00:00 | 00:00:00 | 00:00:00 | |
| OE5WHR-10 | 2026-09-05 01:52:46 | 48.31080 | 14.23747 | 111° | 42km/h | 799m | -2.3m/s | 21.8°C | 51.2% | 928.5hPa | 2.7V | 00:00:00 | 00:00:00 | 00:00:00 | |
| OE5WHR-10 | 2026-09-05 01:52:45 | 48.31083 | 14.23732 | 111° | 42km/h | 801m | -2.2m/s | 21.8°C | 51.3% | 928.4hPa | 2.7V | 00:00:00 | 03:23:14 | 00:00:00 | |
| OE5DRO-10 | 2026-09-05 01:52:44 | 48.31087 | 14.23717 | 112° | 42km/h | 804m | -2.1m/s | 21.7°C | 51.3% | 928.2hPa | 2.7V | 00:00:00 | 00:00:00 | 00:00:00 | |
| OE3JTB-15 | 2026-09-05 01:52:44 | 48.31087 | 14.23717 | 112° | 42km/h | 804m | -2.1m/s | 21.7°C | 51.3% | 928.2hPa | 2.7V | 00:00:00 | 03:23:13 | 00:00:00 | |
| PG1ADW-2 | 2026-09-05 01:52:43 | 48.31091 | 14.23702 | 112° | 42km/h | 806m | -2.4m/s | 21.7°C | 51.4% | 927.9hPa | 2.7V | 00:00:00 | 00:00:00 | 00:00:00 | |
| OE5WHR-10 | 2026-09-05 01:52:43 | 48.31091 | 14.23702 | 112° | 44km/h | 806m | -2.4m/s | 21.7°C | 51.4% | 927.9hPa | 2.7V | 00:00:00 | 00:00:00 | 00:00:00 | |
| OE5DRO-10 | 2026-09-05 01:52:42 | 48.31095 | 14.23686 | 111° | 44km/h | 808m | -2.4m/s | 21.7°C | 51.4% | 927.7hPa | 2.7V | 00:00:00 | 00:00:00 | 00:00:00 | |
| OE3JTB-15 | 2026-09-05 01:52:42 | 48.31095 | 14.23686 | 111° | 44km/h | 808m | -2.4m/s | 21.7°C | 51.4% | 927.7hPa | 2.7V | 00:00:00 | 00:00:00 | 00:00:00 | |
| OE5WHR-10 | 2026-09-05 01:52:42 | 48.31095 | 14.23686 | 111° | 42km/h | 808m | -2.4m/s | 21.7°C | 51.4% | 927.7hPa | 2.7V | 00:00:00 | 00:00:00 | 00:00:00 | |
| OE3JTB-15 | 2026-09-05 01:52:40 | 48.31102 | 14.23656 | 110° | 42km/h | 813m | -2.3m/s | 21.7°C | 51.5% | 927.2hPa | 2.7V | 00:00:00 | 00:00:00 | 00:00:00 | |
| OE5DRO-10 | 2026-09-05 01:52:40 | 48.31102 | 14.23656 | 110° | 42km/h | 813m | -2.3m/s | 21.7°C | 51.5% | 927.2hPa | 2.7V | 00:00:00 | 00:00:00 | 00:00:00 | |
| OE5WHR-10 | 2026-09-05 01:52:40 | 48.31102 | 14.23656 | 110° | 42km/h | 813m | -2.3m/s | 21.7°C | 51.5% | 927.2hPa | 2.7V | 00:00:00 | 03:23:09 | 00:00:00 | |
| OE5WHR-10 | 2026-09-05 01:52:39 | 48.31106 | 14.23641 | 111° | 42km/h | 816m | -2.3m/s | 21.7°C | 51.5% | 927.0hPa | 2.7V | 00:00:00 | 00:00:00 | 00:00:00 | |
| OE5DRO-10 | 2026-09-05 01:52:38 | 48.31110 | 14.23626 | 112° | 44km/h | 818m | -2.1m/s | 21.7°C | 51.8% | 926.7hPa | 2.7V | 00:00:00 | 00:00:00 | 00:00:00 | |
| OE3JTB-15 | 2026-09-05 01:52:38 | 48.31110 | 14.23626 | 112° | 44km/h | 818m | -2.1m/s | 21.7°C | 51.8% | 926.7hPa | 2.7V | 00:00:00 | 03:23:07 | 00:00:00 | |
| PG1ADW-2 | 2026-09-05 01:52:37 | 48.31114 | 14.23610 | 111° | 44km/h | 820m | -2.1m/s | 21.7°C | 52.3% | 926.3hPa | 2.7V | 00:00:00 | 00:00:00 | 00:00:00 | |
| OE5WHR-10 | 2026-09-05 01:52:37 | 48.31114 | 14.23610 | 111° | 42km/h | 820m | -2.1m/s | 21.7°C | 52.3% | 926.3hPa | 2.7V | 00:00:00 | 00:00:00 | 00:00:00 | |
| OE5DRO-10 | 2026-09-05 01:52:36 | 48.31118 | 14.23595 | 111° | 42km/h | 822m | -2.0m/s | 21.6°C | 52.3% | 926.2hPa | 2.7V | 00:00:00 | 00:00:00 | 00:00:00 | |
| OE3JTB-15 | 2026-09-05 01:52:36 | 48.31118 | 14.23595 | 111° | 42km/h | 822m | -2.0m/s | 21.6°C | 52.3% | 926.2hPa | 2.7V | 07:11:00 | 00:00:00 | 00:00:00 | |
| OE5WHR-10 | 2026-09-05 01:52:36 | 48.31118 | 14.23595 | 111° | 44km/h | 822m | -2.0m/s | 21.6°C | 52.3% | 926.2hPa | 2.7V | 00:00:00 | 03:23:05 | 00:00:00 | |
| OE5DRO-10 | 2026-09-05 01:52:34 | 48.31126 | 14.23565 | 114° | 44km/h | 827m | -2.1m/s | 21.6°C | 52.1% | 925.6hPa | 2.7V | 00:00:00 | 00:00:00 | 00:00:00 | |
| OE3JTB-15 | 2026-09-05 01:52:34 | 48.31126 | 14.23565 | 114° | 44km/h | 827m | -2.1m/s | 21.6°C | 52.1% | 925.6hPa | 2.7V | 00:00:00 | 00:00:00 | 00:00:00 | |
| OE5WHR-10 | 2026-09-05 01:52:34 | 48.31126 | 14.23565 | 114° | 44km/h | 827m | -2.1m/s | 21.6°C | 52.1% | 925.6hPa | 2.7V | 00:00:00 | 00:00:00 | 00:00:00 | |
| OE5WHR-10 | 2026-09-05 01:52:33 | 48.31130 | 14.23550 | 113° | 44km/h | 829m | -2.4m/s | 21.6°C | 52.4% | 925.5hPa | 2.7V | 00:00:00 | 00:00:00 | 00:00:00 | |
| OE5DRO-10 | 2026-09-05 01:52:32 | 48.31134 | 14.23534 | 112° | 44km/h | 831m | -2.1m/s | 21.6°C | 52.6% | 925.2hPa | 2.7V | 07:11:00 | 00:00:00 | 00:00:00 | |
| OE3JTB-15 | 2026-09-05 01:52:32 | 48.31134 | 14.23534 | 112° | 44km/h | 831m | -2.1m/s | 21.6°C | 52.6% | 925.2hPa | 2.7V | 00:00:00 | 03:23:01 | 00:00:00 | |
| OE5WHR-10 | 2026-09-05 01:52:31 | 48.31138 | 14.23519 | 112° | 44km/h | 833m | -2.0m/s | 21.5°C | 52.6% | 925.1hPa | 2.7V | 07:12:00 | 03:23:00 | 00:00:00 | |
| PG1ADW-2 | 2026-09-05 01:52:31 | 48.31138 | 14.23519 | 112° | 44km/h | 833m | -2.0m/s | 21.5°C | 52.6% | 925.1hPa | 2.7V | 00:00:00 | 03:23:00 | 00:00:00 | |
| OE5DRO-10 | 2026-09-05 01:52:30 | 48.31143 | 14.23504 | 113° | 44km/h | 835m | -2.2m/s | 21.5°C | 52.6% | 924.7hPa | 2.7V | 00:00:00 | 00:00:00 | 00:00:00 | |
| OE3JTB-15 | 2026-09-05 01:52:30 | 48.31143 | 14.23504 | 113° | 44km/h | 835m | -2.2m/s | 21.5°C | 52.6% | 924.7hPa | 2.7V | 00:00:00 | 00:00:00 | 00:00:00 | |
| OE5WHR-10 | 2026-09-05 01:52:30 | 48.31143 | 14.23504 | 113° | 44km/h | 835m | -2.2m/s | 21.5°C | 52.6% | 924.7hPa | 2.7V | 07:12:00 | 00:00:00 | 00:00:00 | |
| OE5DRO-10 | 2026-09-05 01:52:28 | 48.31151 | 14.23473 | 112° | 44km/h | 840m | -2.5m/s | 21.5°C | 52.8% | 924.1hPa | 2.7V | 00:00:00 | 00:00:00 | 00:00:00 | |
| OE3JTB-15 | 2026-09-05 01:52:28 | 48.31151 | 14.23473 | 112° | 44km/h | 840m | -2.5m/s | 21.5°C | 52.8% | 924.1hPa | 2.7V | 00:00:00 | 00:00:00 | 00:00:00 | |
| OE5WHR-10 | 2026-09-05 01:52:28 | 48.31151 | 14.23473 | 112° | 44km/h | 840m | -2.5m/s | 21.5°C | 52.8% | 924.1hPa | 2.7V | 00:00:00 | 00:00:00 | 00:00:00 | |
| OE5WHR-10 | 2026-09-05 01:52:27 | 48.31155 | 14.23457 | 112° | 44km/h | 843m | -2.3m/s | 21.5°C | 52.9% | 924.0hPa | 2.7V | 00:00:00 | 03:22:56 | 00:00:00 | |
| OE5DRO-10 | 2026-09-05 01:52:26 | 48.31160 | 14.23441 | 112° | 44km/h | 845m | -2.3m/s | 21.5°C | 53.3% | 923.8hPa | 2.7V | 00:00:00 | 00:00:00 | 00:00:00 | |
| OE3JTB-15 | 2026-09-05 01:52:26 | 48.31160 | 14.23441 | 112° | 44km/h | 845m | -2.3m/s | 21.5°C | 53.3% | 923.8hPa | 2.7V | 00:00:00 | 03:22:55 | 00:00:00 | |
| OE5HKT-10 | 2026-09-05 01:52:26 | 48.31160 | 14.23441 | 112° | 44km/h | 845m | -2.3m/s | 21.5°C | 53.3% | 923.8hPa | 2.7V | 00:00:00 | 00:00:00 | 00:00:00 | |
| PG1ADW-2 | 2026-09-05 01:52:25 | 48.31164 | 14.23426 | 114° | 46km/h | 848m | -2.0m/s | 21.5°C | 53.3% | 923.4hPa | 2.7V | 00:00:00 | 00:00:00 | 00:00:00 | |
| OE5WHR-10 | 2026-09-05 01:52:25 | 48.31164 | 14.23426 | 114° | 46km/h | 848m | -2.0m/s | 21.5°C | 53.3% | 923.4hPa | 2.7V | 00:00:00 | 00:00:00 | 00:00:00 | |
| OE3JTB-15 | 2026-09-05 01:52:24 | 48.31169 | 14.23410 | 115° | 46km/h | 850m | -2.4m/s | 21.4°C | 53.3% | 923.1hPa | 2.7V | 00:00:00 | 00:00:00 | 00:00:00 | |
| OE5WHR-10 | 2026-09-05 01:52:24 | 48.31169 | 14.23410 | 115° | 46km/h | 850m | -2.4m/s | 21.4°C | 53.3% | 923.1hPa | 2.7V | 00:00:00 | 00:00:00 | 00:00:00 | |
| OE5DRO-10 | 2026-09-05 01:52:24 | 48.31169 | 14.23410 | 115° | 46km/h | 850m | -2.4m/s | 21.4°C | 53.3% | 923.1hPa | 2.7V | 00:00:00 | 00:00:00 | 00:00:00 | |
| OE5DRO-10 | 2026-09-05 01:52:22 | 48.31178 | 14.23378 | 115° | 44km/h | 855m | -2.3m/s | 21.4°C | 53.6% | 922.8hPa | 2.7V | 00:00:00 | 00:00:00 | 00:00:00 | |
| OE5WHR-10 | 2026-09-05 01:52:22 | 48.31178 | 14.23378 | 115° | 44km/h | 855m | -2.3m/s | 21.4°C | 53.6% | 922.8hPa | 2.7V | 00:00:00 | 03:22:51 | 00:00:00 | |
| OE3JTB-15 | 2026-09-05 01:52:21 | 48.31183 | 14.23363 | 116° | 44km/h | 857m | -2.1m/s | 21.4°C | 53.6% | 922.5hPa | 2.7V | 00:00:00 | 00:00:00 | 00:00:00 | |
| OE5WHR-10 | 2026-09-05 01:52:21 | 48.31183 | 14.23363 | 116° | 44km/h | 857m | -2.1m/s | 21.4°C | 53.6% | 922.5hPa | 2.7V | 00:00:00 | 00:00:00 | 00:00:00 | |
| OE5DRO-10 | 2026-09-05 01:52:20 | 48.31188 | 14.23348 | 117° | 44km/h | 859m | -2.3m/s | 21.4°C | 53.7% | 922.2hPa | 2.7V | 00:00:00 | 00:00:00 | 00:00:00 | |
| OE5HKT-10 | 2026-09-05 01:52:20 | 48.31188 | 14.23348 | 117° | 44km/h | 859m | -2.3m/s | 21.4°C | 53.7% | 922.2hPa | 2.7V | 00:00:00 | 03:22:49 | 00:00:00 | |
| PG1ADW-2 | 2026-09-05 01:52:19 | 48.31193 | 14.23333 | 117° | 46km/h | 862m | -2.6m/s | 21.3°C | 53.8% | 922.0hPa | 2.7V | 07:12:00 | 00:00:00 | 00:00:00 | |
| OE3JTB-15 | 2026-09-05 01:52:19 | 48.31193 | 14.23333 | 117° | 46km/h | 862m | -2.6m/s | 21.3°C | 53.8% | 922.0hPa | 2.7V | 07:12:00 | 03:22:48 | 00:00:00 | |
| OE5WHR-10 | 2026-09-05 01:52:19 | 48.31193 | 14.23333 | 117° | 46km/h | 862m | -2.6m/s | 21.3°C | 53.8% | 922.0hPa | 2.7V | 00:00:00 | 00:00:00 | 00:00:00 | |
| OE5WHR-10 | 2026-09-05 01:52:18 | 48.31198 | 14.23318 | 116° | 44km/h | 864m | -2.3m/s | 21.3°C | 53.8% | 921.7hPa | 2.7V | 00:00:00 | 03:22:47 | 00:00:00 | |
| OE5DRO-10 | 2026-09-05 01:52:18 | 48.31198 | 14.23318 | 116° | 46km/h | 864m | -2.3m/s | 21.3°C | 53.8% | 921.7hPa | 2.7V | 00:00:00 | 00:00:00 | 00:00:00 | |
| OE5FHM-15 | 2026-09-05 01:52:18 | 48.31198 | 14.23318 | 116° | 46km/h | 864m | -2.3m/s | 21.3°C | 53.8% | 921.7hPa | 2.7V | 00:00:00 | 03:22:47 | 00:00:00 | |
| OE5HKT-10 | 2026-09-05 01:52:17 | 48.31202 | 14.23302 | 115° | 44km/h | 867m | -2.2m/s | 21.3°C | 53.9% | 921.4hPa | 2.7V | 00:00:00 | 00:00:00 | 00:00:00 | |
| OE3JTB-15 | 2026-09-05 01:52:17 | 48.31202 | 14.23302 | 115° | 44km/h | 867m | -2.2m/s | 21.3°C | 53.9% | 921.4hPa | 2.7V | 00:00:00 | 00:00:00 | 00:00:00 | |
| OE5DRO-10 | 2026-09-05 01:52:16 | 48.31207 | 14.23287 | 115° | 44km/h | 868m | -2.0m/s | 21.3°C | 54.1% | 921.1hPa | 2.7V | 07:12:00 | 00:00:00 | 00:00:00 | |
| OE5WHR-10 | 2026-09-05 01:52:16 | 48.31207 | 14.23287 | 115° | 46km/h | 868m | -2.0m/s | 21.3°C | 54.1% | 921.1hPa | 2.7V | 00:00:00 | 00:00:00 | 00:00:00 | |
| OE5DRO-10 | 2026-09-05 01:52:14 | 48.31217 | 14.23256 | 115° | 46km/h | 873m | -1.9m/s | 21.3°C | 54.0% | 920.8hPa | 2.7V | 00:00:00 | 00:00:00 | 00:00:00 | |
| OE5HKT-10 | 2026-09-05 01:52:14 | 48.31217 | 14.23256 | 115° | 46km/h | 873m | -1.9m/s | 21.3°C | 54.0% | 920.8hPa | 2.7V | 00:00:00 | 00:00:00 | 00:00:00 | |
| OE3JTB-15 | 2026-09-05 01:52:13 | 48.31221 | 14.23240 | 114° | 46km/h | 875m | -2.1m/s | 21.2°C | 54.0% | 920.4hPa | 2.7V | 00:00:00 | 03:22:42 | 00:00:00 | |
| PG1ADW-2 | 2026-09-05 01:52:13 | 48.31221 | 14.23240 | 114° | 46km/h | 875m | -2.1m/s | 21.2°C | 54.0% | 920.4hPa | 2.7V | 00:00:00 | 00:00:00 | 00:00:00 | |
| OE5WHR-10 | 2026-09-05 01:52:13 | 48.31221 | 14.23240 | 114° | 46km/h | 875m | -2.1m/s | 21.2°C | 54.0% | 920.4hPa | 2.7V | 00:00:00 | 03:22:42 | 00:00:00 | |
| OE5DRO-10 | 2026-09-05 01:52:12 | 48.31226 | 14.23224 | 115° | 46km/h | 877m | -2.2m/s | 21.2°C | 54.2% | 920.2hPa | 2.7V | 00:00:00 | 00:00:00 | 00:00:00 | |
| OE5WHR-10 | 2026-09-05 01:52:12 | 48.31226 | 14.23224 | 115° | 46km/h | 877m | -2.2m/s | 21.2°C | 54.2% | 920.2hPa | 2.7V | 00:00:00 | 00:00:00 | 00:00:00 | |
| OE3JTB-15 | 2026-09-05 01:52:11 | 48.31231 | 14.23209 | 116° | 46km/h | 879m | -2.0m/s | 21.2°C | 54.2% | 920.1hPa | 2.7V | 00:00:00 | 00:00:00 | 00:00:00 | |
| OE5DRO-10 | 2026-09-05 01:52:10 | 48.31236 | 14.23193 | 116° | 47km/h | 881m | -2.0m/s | 21.2°C | 54.3% | 919.7hPa | 2.7V | 00:00:00 | 00:00:00 | 00:00:00 | |
| OE5WHR-10 | 2026-09-05 01:52:10 | 48.31236 | 14.23193 | 116° | 47km/h | 881m | -2.0m/s | 21.2°C | 54.3% | 919.7hPa | 2.7V | 00:00:00 | 00:00:00 | 00:00:00 | |
| OE5HKT-10 | 2026-09-05 01:52:09 | 48.31241 | 14.23177 | 115° | 47km/h | 883m | -2.0m/s | 21.2°C | 54.3% | 919.7hPa | 2.7V | 00:00:00 | 03:22:38 | 00:00:00 | |
| OE3JTB-15 | 2026-09-05 01:52:09 | 48.31241 | 14.23177 | 115° | 47km/h | 883m | -2.0m/s | 21.2°C | 54.3% | 919.7hPa | 2.7V | 00:00:00 | 00:00:00 | 00:00:00 | |
| OE5WHR-10 | 2026-09-05 01:52:09 | 48.31241 | 14.23177 | 115° | 46km/h | 883m | -2.0m/s | 21.2°C | 54.3% | 919.7hPa | 2.7V | 00:00:00 | 03:22:38 | 00:00:00 | |
| OE5DRO-10 | 2026-09-05 01:52:08 | 48.31246 | 14.23161 | 115° | 46km/h | 885m | -1.8m/s | 21.2°C | 54.5% | 919.4hPa | 2.7V | 00:00:00 | 00:00:00 | 00:00:00 | |
| OE3JTB-15 | 2026-09-05 01:52:07 | 48.31251 | 14.23145 | 116° | 46km/h | 887m | -2.0m/s | 21.2°C | 54.5% | 919.2hPa | 2.7V | 00:00:00 | 03:22:36 | 00:00:00 | |
| OE5WHR-10 | 2026-09-05 01:52:07 | 48.31251 | 14.23145 | 116° | 47km/h | 887m | -2.0m/s | 21.2°C | 54.5% | 919.2hPa | 2.7V | 07:12:00 | 00:00:00 | 00:00:00 | |
| PG1ADW-2 | 2026-09-05 01:52:07 | 48.31251 | 14.23145 | 116° | 46km/h | 887m | -2.0m/s | 21.2°C | 54.5% | 919.2hPa | 2.7V | 00:00:00 | 03:22:36 | 00:00:00 | |
| OE5FHM-15 | 2026-09-05 01:52:07 | 48.31251 | 14.23145 | 116° | 47km/h | 887m | -2.0m/s | 21.2°C | 54.5% | 919.2hPa | 2.7V | 00:00:00 | 03:22:36 | 00:00:00 | |
| OE5DRO-10 | 2026-09-05 01:52:06 | 48.31256 | 14.23129 | 117° | 47km/h | 889m | -2.1m/s | 21.1°C | 54.5% | 919.1hPa | 2.7V | 00:00:00 | 00:00:00 | 00:00:00 | |
| OE5WHR-10 | 2026-09-05 01:52:06 | 48.31256 | 14.23129 | 117° | 47km/h | 889m | -2.1m/s | 21.1°C | 54.5% | 919.1hPa | 2.7V | 07:12:00 | 00:00:00 | 00:00:00 | |
| OE3JTB-15 | 2026-09-05 01:52:05 | 48.31262 | 14.23113 | 116° | 47km/h | 891m | -2.0m/s | 21.1°C | 54.7% | 918.8hPa | 2.7V | 00:00:00 | 00:00:00 | 00:00:00 | |
| OE5HKT-10 | 2026-09-05 01:52:05 | 48.31262 | 14.23113 | 116° | 47km/h | 891m | -2.0m/s | 21.1°C | 54.7% | 918.8hPa | 2.7V | 00:00:00 | 00:00:00 | 00:00:00 | |
| OE5DRO-10 | 2026-09-05 01:52:04 | 48.31267 | 14.23097 | 115° | 46km/h | 893m | -1.9m/s | 21.1°C | 54.8% | 918.5hPa | 2.7V | 00:00:00 | 00:00:00 | 00:00:00 | |
| OE5WHR-10 | 2026-09-05 01:52:04 | 48.31267 | 14.23097 | 115° | 46km/h | 893m | -1.9m/s | 21.1°C | 54.8% | 918.5hPa | 2.7V | 00:00:00 | 03:22:33 | 00:00:00 | |
| OE3JTB-15 | 2026-09-05 01:52:03 | 48.31271 | 14.23081 | 115° | 46km/h | 896m | -2.2m/s | 21.1°C | 54.9% | 918.1hPa | 2.7V | 07:12:00 | 00:00:00 | 00:00:00 | |
| OE5WHR-10 | 2026-09-05 01:52:03 | 48.31271 | 14.23081 | 115° | 46km/h | 896m | -2.2m/s | 21.1°C | 54.9% | 918.1hPa | 2.7V | 00:00:00 | 00:00:00 | 00:00:00 | |
| OE5DRO-10 | 2026-09-05 01:52:02 | 48.31276 | 14.23065 | 116° | 47km/h | 898m | -2.3m/s | 21.1°C | 54.9% | 918.0hPa | 2.7V | 00:00:00 | 00:00:00 | 00:00:00 | |
| OE5HKT-10 | 2026-09-05 01:52:02 | 48.31276 | 14.23065 | 116° | 47km/h | 898m | -2.3m/s | 21.1°C | 54.9% | 918.0hPa | 2.7V | 00:00:00 | 00:00:00 | 00:00:00 | |
| OE3JTB-15 | 2026-09-05 01:52:01 | 48.31281 | 14.23049 | 116° | 47km/h | 900m | -2.4m/s | 21.1°C | 55.0% | 917.8hPa | 2.7V | 00:00:00 | 03:22:30 | 00:00:00 | |
| PG1ADW-2 | 2026-09-05 01:52:01 | 48.31281 | 14.23049 | 116° | 47km/h | 900m | -2.4m/s | 21.1°C | 55.0% | 917.8hPa | 2.7V | 00:00:00 | 00:00:00 | 00:00:00 | |
| OE5WHR-10 | 2026-09-05 01:52:01 | 48.31281 | 14.23049 | 116° | 47km/h | 900m | -2.4m/s | 21.1°C | 55.0% | 917.8hPa | 2.7V | 00:00:00 | 00:00:00 | 00:00:00 | |
| OE5DRO-10 | 2026-09-05 01:52:00 | 48.31286 | 14.23033 | 114° | 47km/h | 902m | -2.1m/s | 21.0°C | 55.0% | 917.6hPa | 2.7V | 07:12:00 | 00:00:00 | 00:00:00 | |
| OE5WHR-10 | 2026-09-05 01:52:00 | 48.31286 | 14.23033 | 114° | 47km/h | 902m | -2.1m/s | 21.0°C | 55.0% | 917.6hPa | 2.7V | 00:00:00 | 03:22:29 | 00:00:00 | |
| OE3JTB-15 | 2026-09-05 01:51:59 | 48.31291 | 14.23016 | 114° | 47km/h | 905m | -2.1m/s | 21.0°C | 55.1% | 917.2hPa | 2.7V | 00:00:00 | 00:00:00 | 00:00:00 | |
| OE5HKT-10 | 2026-09-05 01:51:59 | 48.31291 | 14.23016 | 114° | 47km/h | 905m | -2.1m/s | 21.0°C | 55.1% | 917.2hPa | 2.7V | 07:12:00 | 03:22:28 | 00:00:00 | |
| OE5DRO-10 | 2026-09-05 01:51:58 | 48.31296 | 14.23000 | 115° | 47km/h | 907m | -2.2m/s | 21.0°C | 55.2% | 917.1hPa | 2.7V | 00:00:00 | 00:00:00 | 00:00:00 | |
| OE5WHR-10 | 2026-09-05 01:51:58 | 48.31296 | 14.23000 | 115° | 47km/h | 907m | -2.2m/s | 21.0°C | 55.2% | 917.1hPa | 2.7V | 00:00:00 | 00:00:00 | 00:00:00 | |
| OE3JTB-15 | 2026-09-05 01:51:57 | 48.31301 | 14.22983 | 116° | 49km/h | 909m | -2.4m/s | 21.0°C | 55.2% | 916.9hPa | 2.7V | 00:00:00 | 00:00:00 | 00:00:00 | |
| OE5WHR-10 | 2026-09-05 01:51:57 | 48.31301 | 14.22983 | 116° | 49km/h | 909m | -2.4m/s | 21.0°C | 55.2% | 916.9hPa | 2.7V | 00:00:00 | 00:00:00 | 00:00:00 | |
| OE5DRO-10 | 2026-09-05 01:51:56 | 48.31306 | 14.22966 | 115° | 49km/h | 911m | -2.2m/s | 21.0°C | 55.6% | 916.6hPa | 2.7V | 00:00:00 | 00:00:00 | 00:00:00 | |
| OE5HKT-10 | 2026-09-05 01:51:56 | 48.31306 | 14.22966 | 115° | 49km/h | 911m | -2.2m/s | 21.0°C | 55.6% | 916.6hPa | 2.7V | 00:00:00 | 00:00:00 | 00:00:00 | |
| PG1ADW-2 | 2026-09-05 01:51:55 | 48.31312 | 14.22949 | 115° | 47km/h | 914m | -2.3m/s | 20.9°C | 55.5% | 916.3hPa | 2.7V | 00:00:00 | 00:00:00 | 00:00:00 | |
| OE3JTB-15 | 2026-09-05 01:51:55 | 48.31312 | 14.22949 | 115° | 49km/h | 914m | -2.3m/s | 20.9°C | 55.5% | 916.3hPa | 2.7V | 00:00:00 | 03:22:24 | 00:00:00 | |
| OE5WHR-10 | 2026-09-05 01:51:55 | 48.31312 | 14.22949 | 115° | 49km/h | 914m | -2.3m/s | 20.9°C | 55.5% | 916.3hPa | 2.7V | 00:00:00 | 03:22:24 | 00:00:00 | |
| OE5DRO-10 | 2026-09-05 01:51:54 | 48.31317 | 14.22932 | 114° | 47km/h | 916m | -2.3m/s | 20.9°C | 55.4% | 916.1hPa | 2.7V | 00:00:00 | 00:00:00 | 00:00:00 | |
| OE5WHR-10 | 2026-09-05 01:51:54 | 48.31317 | 14.22932 | 114° | 47km/h | 916m | -2.3m/s | 20.9°C | 55.4% | 916.1hPa | 2.7V | 00:00:00 | 00:00:00 | 00:00:00 | |
| OE5HKT-10 | 2026-09-05 01:51:53 | 48.31321 | 14.22916 | 114° | 47km/h | 919m | -2.4m/s | 20.9°C | 55.6% | 915.9hPa | 2.7V | 00:00:00 | 00:00:00 | 00:00:00 | |
| OE3JTB-15 | 2026-09-05 01:51:53 | 48.31321 | 14.22916 | 114° | 47km/h | 919m | -2.4m/s | 20.9°C | 55.6% | 915.9hPa | 2.7V | 00:00:00 | 00:00:00 | 00:00:00 | |
| OE5DRO-10 | 2026-09-05 01:51:52 | 48.31327 | 14.22899 | 116° | 47km/h | 921m | -2.5m/s | 20.9°C | 55.8% | 915.5hPa | 2.7V | 00:00:00 | 00:00:00 | 00:00:00 | |
| OE5WHR-10 | 2026-09-05 01:51:52 | 48.31327 | 14.22899 | 116° | 47km/h | 921m | -2.5m/s | 20.9°C | 55.8% | 915.5hPa | 2.7V | 00:00:00 | 00:00:00 | 00:00:00 | |
| OE3JTB-15 | 2026-09-05 01:51:51 | 48.31332 | 14.22883 | 117° | 47km/h | 924m | -2.3m/s | 20.9°C | 55.8% | 915.3hPa | 2.7V | 00:00:00 | 00:00:00 | 00:00:00 | |
| OE5WHR-10 | 2026-09-05 01:51:51 | 48.31332 | 14.22883 | 117° | 47km/h | 924m | -2.3m/s | 20.9°C | 55.8% | 915.3hPa | 2.7V | 00:00:00 | 03:22:20 | 00:00:00 | |
| OE5DRO-10 | 2026-09-05 01:51:50 | 48.31337 | 14.22866 | 116° | 49km/h | 926m | -2.2m/s | 20.8°C | 55.7% | 915.2hPa | 2.7V | 00:00:00 | 00:00:00 | 00:00:00 | |
| OE5HKT-10 | 2026-09-05 01:51:50 | 48.31337 | 14.22866 | 116° | 47km/h | 926m | -2.2m/s | 20.8°C | 55.7% | 915.2hPa | 2.7V | 00:00:00 | 03:22:19 | 00:00:00 | |
| OE3JTB-15 | 2026-09-05 01:51:49 | 48.31342 | 14.22850 | 115° | 47km/h | 928m | -2.2m/s | 20.8°C | 55.9% | 914.9hPa | 2.7V | 00:00:00 | 03:22:18 | 00:00:00 | |
| PG1ADW-2 | 2026-09-05 01:51:49 | 48.31342 | 14.22850 | 115° | 47km/h | 928m | -2.2m/s | 20.8°C | 55.9% | 914.9hPa | 2.7V | 00:00:00 | 00:00:00 | 00:00:00 | |
| OE5WHR-10 | 2026-09-05 01:51:49 | 48.31342 | 14.22850 | 115° | 47km/h | 928m | -2.2m/s | 20.8°C | 55.9% | 914.9hPa | 2.7V | 00:00:00 | 00:00:00 | 00:00:00 | |
| OE5DRO-10 | 2026-09-05 01:51:48 | 48.31347 | 14.22833 | 116° | 47km/h | 930m | -2.2m/s | 20.8°C | 56.0% | 914.7hPa | 2.7V | 00:00:00 | 00:00:00 | 00:00:00 | |
| OE5WHR-10 | 2026-09-05 01:51:48 | 48.31347 | 14.22833 | 116° | 47km/h | 930m | -2.2m/s | 20.8°C | 56.0% | 914.7hPa | 2.7V | 00:00:00 | 00:00:00 | 00:00:00 | |
| OE3JTB-15 | 2026-09-05 01:51:47 | 48.31353 | 14.22817 | 117° | 47km/h | 933m | -2.4m/s | 20.8°C | 56.0% | 914.6hPa | 2.7V | 07:12:00 | 00:00:00 | 00:00:00 | |
| OE5HKT-10 | 2026-09-05 01:51:47 | 48.31353 | 14.22817 | 117° | 47km/h | 933m | -2.4m/s | 20.8°C | 56.0% | 914.6hPa | 2.7V | 00:00:00 | 00:00:00 | 00:00:00 | |
| OE5DRO-10 | 2026-09-05 01:51:46 | 48.31358 | 14.22801 | 118° | 47km/h | 935m | -2.4m/s | 20.8°C | 56.1% | 914.2hPa | 2.7V | 00:00:00 | 00:00:00 | 00:00:00 | |
| OE5WHR-10 | 2026-09-05 01:51:46 | 48.31358 | 14.22801 | 118° | 49km/h | 935m | -2.4m/s | 20.8°C | 56.1% | 914.2hPa | 2.7V | 00:00:00 | 03:22:15 | 00:00:00 | |
| OE3JTB-15 | 2026-09-05 01:51:45 | 48.31364 | 14.22785 | 116° | 49km/h | 938m | -2.3m/s | 20.8°C | 56.2% | 913.8hPa | 2.7V | 00:00:00 | 00:00:00 | 00:00:00 | |
| OE5WHR-10 | 2026-09-05 01:51:45 | 48.31364 | 14.22785 | 116° | 49km/h | 938m | -2.3m/s | 20.8°C | 56.2% | 913.8hPa | 2.7V | 00:00:00 | 00:00:00 | 00:00:00 | |
| OE5FHM-15 | 2026-09-05 01:51:45 | 48.31364 | 14.22785 | 116° | 49km/h | 938m | -2.3m/s | 20.8°C | 56.2% | 913.8hPa | 2.7V | 00:00:00 | 03:22:14 | 00:00:00 | |
| OE5DRO-10 | 2026-09-05 01:51:44 | 48.31369 | 14.22768 | 116° | 49km/h | 940m | -2.3m/s | 20.8°C | 56.3% | 913.5hPa | 2.7V | 07:12:00 | 00:00:00 | 00:00:00 | |
| OE5HKT-10 | 2026-09-05 01:51:44 | 48.31369 | 14.22768 | 116° | 49km/h | 940m | -2.3m/s | 20.8°C | 56.3% | 913.5hPa | 2.7V | 00:00:00 | 00:00:00 | 00:00:00 | |
| OE5WHR-10 | 2026-09-05 01:51:43 | 48.31375 | 14.22751 | 117° | 51km/h | 942m | -2.3m/s | 20.8°C | 56.3% | 913.4hPa | 2.7V | 07:12:00 | 00:00:00 | 00:00:00 | |
| OE3JTB-15 | 2026-09-05 01:51:43 | 48.31375 | 14.22751 | 117° | 49km/h | 942m | -2.3m/s | 20.8°C | 56.3% | 913.4hPa | 2.7V | 00:00:00 | 03:22:12 | 00:00:00 | |
| PG1ADW-2 | 2026-09-05 01:51:43 | 48.31375 | 14.22751 | 117° | 51km/h | 942m | -2.3m/s | 20.8°C | 56.3% | 913.4hPa | 2.7V | 00:00:00 | 03:22:12 | 00:00:00 | |
| OE5DRO-10 | 2026-09-05 01:51:42 | 48.31380 | 14.22734 | 118° | 51km/h | 945m | -2.4m/s | 20.7°C | 56.4% | 913.1hPa | 2.7V | 00:00:00 | 00:00:00 | 00:00:00 | |
| OE5WHR-10 | 2026-09-05 01:51:42 | 48.31380 | 14.22734 | 118° | 51km/h | 945m | -2.4m/s | 20.7°C | 56.4% | 913.1hPa | 2.7V | 07:12:00 | 03:22:11 | 00:00:00 | |
| OE3JTB-15 | 2026-09-05 01:51:41 | 48.31386 | 14.22717 | 118° | 51km/h | 947m | -2.3m/s | 20.7°C | 56.4% | 912.9hPa | 2.7V | 00:00:00 | 00:00:00 | 00:00:00 | |
| OE5HKT-10 | 2026-09-05 01:51:41 | 48.31386 | 14.22717 | 118° | 51km/h | 947m | -2.3m/s | 20.7°C | 56.4% | 912.9hPa | 2.7V | 00:00:00 | 03:22:10 | 00:00:00 | |
| OE5DRO-10 | 2026-09-05 01:51:40 | 48.31392 | 14.22699 | 116° | 51km/h | 949m | -2.4m/s | 20.7°C | 56.5% | 912.5hPa | 2.7V | 00:00:00 | 00:00:00 | 00:00:00 | |
| OE5WHR-10 | 2026-09-05 01:51:40 | 48.31392 | 14.22699 | 116° | 51km/h | 949m | -2.4m/s | 20.7°C | 56.5% | 912.5hPa | 2.7V | 00:00:00 | 00:00:00 | 00:00:00 | |
| OE3JTB-15 | 2026-09-05 01:51:39 | 48.31398 | 14.22682 | 116° | 51km/h | 952m | -2.2m/s | 20.7°C | 56.5% | 912.4hPa | 2.7V | 00:00:00 | 00:00:00 | 00:00:00 | |
| OE5WHR-10 | 2026-09-05 01:51:39 | 48.31398 | 14.22682 | 116° | 51km/h | 952m | -2.2m/s | 20.7°C | 56.5% | 912.4hPa | 2.7V | 00:00:00 | 00:00:00 | 00:00:00 | |
| OE5DRO-10 | 2026-09-05 01:51:38 | 48.31403 | 14.22664 | 117° | 51km/h | 954m | -2.1m/s | 20.6°C | 56.6% | 912.1hPa | 2.7V | 00:00:00 | 00:00:00 | 00:00:00 | |
| OE5HKT-10 | 2026-09-05 01:51:38 | 48.31403 | 14.22664 | 117° | 51km/h | 954m | -2.1m/s | 20.6°C | 56.6% | 912.1hPa | 2.7V | 00:00:00 | 00:00:00 | 00:00:00 | |
| OE3JTB-15 | 2026-09-05 01:51:37 | 48.31409 | 14.22647 | 117° | 51km/h | 956m | -2.3m/s | 20.6°C | 56.6% | 911.9hPa | 2.7V | 00:00:00 | 03:22:06 | 00:00:00 | |
| PG1ADW-2 | 2026-09-05 01:51:37 | 48.31409 | 14.22647 | 117° | 49km/h | 956m | -2.3m/s | 20.6°C | 56.6% | 911.9hPa | 2.7V | 00:00:00 | 00:00:00 | 00:00:00 | |
| OE5WHR-10 | 2026-09-05 01:51:37 | 48.31409 | 14.22647 | 117° | 49km/h | 956m | -2.3m/s | 20.6°C | 56.6% | 911.9hPa | 2.7V | 00:00:00 | 03:22:06 | 00:00:00 | |
| OE5DRO-10 | 2026-09-05 01:51:36 | 48.31415 | 14.22630 | 116° | 49km/h | 959m | -2.4m/s | 20.6°C | 56.6% | 911.6hPa | 2.7V | 00:00:00 | 00:00:00 | 00:00:00 | |
| OE5WHR-10 | 2026-09-05 01:51:36 | 48.31415 | 14.22630 | 116° | 49km/h | 959m | -2.4m/s | 20.6°C | 56.6% | 911.6hPa | 2.7V | 00:00:00 | 00:00:00 | 00:00:00 | |
| OE3JTB-15 | 2026-09-05 01:51:35 | 48.31420 | 14.22613 | 117° | 47km/h | 961m | -2.4m/s | 20.6°C | 56.8% | 911.3hPa | 2.7V | 00:00:00 | 00:00:00 | 00:00:00 | |
| OE5HKT-10 | 2026-09-05 01:51:35 | 48.31420 | 14.22613 | 117° | 47km/h | 961m | -2.4m/s | 20.6°C | 56.8% | 911.3hPa | 2.7V | 07:12:00 | 00:00:00 | 00:00:00 | |
| OE5DRO-10 | 2026-09-05 01:51:34 | 48.31426 | 14.22597 | 118° | 47km/h | 963m | -2.1m/s | 20.6°C | 56.8% | 911.1hPa | 2.7V | 00:00:00 | 00:00:00 | 00:00:00 | |
| OE5WHR-10 | 2026-09-05 01:51:34 | 48.31426 | 14.22597 | 118° | 47km/h | 963m | -2.1m/s | 20.6°C | 56.8% | 911.1hPa | 2.7V | 00:00:00 | 00:00:00 | 00:00:00 | |
| OE5WHR-10 | 2026-09-05 01:51:33 | 48.31432 | 14.22581 | 120° | 49km/h | 965m | -2.3m/s | 20.6°C | 56.9% | 910.9hPa | 2.7V | 00:00:00 | 03:22:02 | 00:00:00 | |
| OE3JTB-15 | 2026-09-05 01:51:33 | 48.31432 | 14.22581 | 120° | 49km/h | 965m | -2.3m/s | 20.6°C | 56.9% | 910.9hPa | 2.7V | 00:00:00 | 00:00:00 | 00:00:00 | |
| OE5FHM-15 | 2026-09-05 01:51:33 | 48.31432 | 14.22581 | 120° | 49km/h | 965m | -2.3m/s | 20.6°C | 56.9% | 910.9hPa | 2.7V | 00:00:00 | 03:22:02 | 00:00:00 | |
| OE5DRO-10 | 2026-09-05 01:51:32 | 48.31438 | 14.22564 | 119° | 49km/h | 967m | -2.2m/s | 20.6°C | 57.0% | 910.7hPa | 2.7V | 00:00:00 | 00:00:00 | 00:00:00 | |
| OE5HKT-10 | 2026-09-05 01:51:32 | 48.31438 | 14.22564 | 119° | 49km/h | 967m | -2.2m/s | 20.6°C | 57.0% | 910.7hPa | 2.7V | 00:00:00 | 03:22:01 | 00:00:00 | |
| OE3JTB-15 | 2026-09-05 01:51:31 | 48.31443 | 14.22548 | 119° | 49km/h | 970m | -2.0m/s | 20.5°C | 57.0% | 910.4hPa | 2.7V | 07:13:00 | 03:22:00 | 00:00:00 | |
| PG1ADW-2 | 2026-09-05 01:51:31 | 48.31443 | 14.22548 | 119° | 51km/h | 970m | -2.0m/s | 20.5°C | 57.0% | 910.4hPa | 2.7V | 07:13:00 | 00:00:00 | 00:00:00 | |
| OE5WHR-10 | 2026-09-05 01:51:31 | 48.31443 | 14.22548 | 119° | 49km/h | 970m | -2.0m/s | 20.5°C | 57.0% | 910.4hPa | 2.7V | 00:00:00 | 00:00:00 | 00:00:00 | |
| OE5DRO-10 | 2026-09-05 01:51:30 | 48.31449 | 14.22532 | 119° | 49km/h | 972m | -2.0m/s | 20.5°C | 57.1% | 910.3hPa | 2.7V | 00:00:00 | 00:00:00 | 00:00:00 | |
| OE5WHR-10 | 2026-09-05 01:51:30 | 48.31449 | 14.22532 | 119° | 51km/h | 972m | -2.0m/s | 20.5°C | 57.1% | 910.3hPa | 2.7V | 00:00:00 | 00:00:00 | 00:00:00 | |
| OE3JTB-15 | 2026-09-05 01:51:29 | 48.31455 | 14.22515 | 119° | 51km/h | 974m | -2.0m/s | 20.5°C | 57.2% | 910.0hPa | 2.7V | 00:00:00 | 00:00:00 | 00:00:00 | |
| OE5HKT-10 | 2026-09-05 01:51:29 | 48.31455 | 14.22515 | 119° | 51km/h | 974m | -2.0m/s | 20.5°C | 57.2% | 910.0hPa | 2.7V | 00:00:00 | 00:00:00 | 00:00:00 | |
| OE5DRO-10 | 2026-09-05 01:51:28 | 48.31462 | 14.22498 | 119° | 53km/h | 976m | -2.1m/s | 20.5°C | 57.3% | 909.7hPa | 2.7V | 07:13:00 | 00:00:00 | 00:00:00 | |
| OE5WHR-10 | 2026-09-05 01:51:28 | 48.31462 | 14.22498 | 119° | 53km/h | 976m | -2.1m/s | 20.5°C | 57.3% | 909.7hPa | 2.7V | 00:00:00 | 03:21:57 | 00:00:00 | |
| OE3JTB-15 | 2026-09-05 01:51:27 | 48.31468 | 14.22480 | 117° | 53km/h | 978m | -2.2m/s | 20.5°C | 57.3% | 909.5hPa | 2.7V | 00:00:00 | 00:00:00 | 00:00:00 | |
| OE5WHR-10 | 2026-09-05 01:51:27 | 48.31468 | 14.22480 | 117° | 53km/h | 978m | -2.2m/s | 20.5°C | 57.3% | 909.5hPa | 2.7V | 00:00:00 | 00:00:00 | 00:00:00 | |
| OE5DRO-10 | 2026-09-05 01:51:26 | 48.31474 | 14.22462 | 117° | 53km/h | 981m | -2.6m/s | 20.4°C | 57.4% | 909.2hPa | 2.7V | 00:00:00 | 00:00:00 | 00:00:00 | |
| OE5HKT-10 | 2026-09-05 01:51:26 | 48.31474 | 14.22462 | 117° | 53km/h | 981m | -2.6m/s | 20.4°C | 57.4% | 909.2hPa | 2.7V | 00:00:00 | 00:00:00 | 00:00:00 | |
| OE5FHM-15 | 2026-09-05 01:51:26 | 48.31474 | 14.22462 | 117° | 53km/h | 981m | -2.6m/s | 20.4°C | 57.4% | 909.2hPa | 2.7V | 07:13:00 | 03:21:55 | 00:00:00 | |
| OE3JTB-15 | 2026-09-05 01:51:25 | 48.31480 | 14.22445 | 116° | 53km/h | 983m | -2.5m/s | 20.4°C | 57.4% | 909.1hPa | 2.7V | 00:00:00 | 03:21:54 | 00:00:00 | |
| PG1ADW-2 | 2026-09-05 01:51:25 | 48.31480 | 14.22445 | 116° | 53km/h | 983m | -2.5m/s | 20.4°C | 57.4% | 909.1hPa | 2.7V | 00:00:00 | 00:00:00 | 00:00:00 | |
| OE5WHR-10 | 2026-09-05 01:51:25 | 48.31480 | 14.22445 | 116° | 53km/h | 983m | -2.5m/s | 20.4°C | 57.4% | 909.1hPa | 2.7V | 00:00:00 | 00:00:00 | 00:00:00 | |
| OE5DRO-10 | 2026-09-05 01:51:24 | 48.31485 | 14.22427 | 117° | 53km/h | 985m | -2.2m/s | 20.4°C | 57.5% | 908.8hPa | 2.7V | 00:00:00 | 00:00:00 | 00:00:00 | |
| OE5WHR-10 | 2026-09-05 01:51:24 | 48.31485 | 14.22427 | 117° | 53km/h | 985m | -2.2m/s | 20.4°C | 57.5% | 908.8hPa | 2.7V | 00:00:00 | 03:21:53 | 00:00:00 | |
| OE3JTB-15 | 2026-09-05 01:51:23 | 48.31491 | 14.22409 | 117° | 53km/h | 988m | -2.4m/s | 20.4°C | 57.5% | 908.6hPa | 2.7V | 00:00:00 | 00:00:00 | 00:00:00 | |
| OE5HKT-10 | 2026-09-05 01:51:23 | 48.31491 | 14.22409 | 117° | 53km/h | 988m | -2.4m/s | 20.4°C | 57.5% | 908.6hPa | 2.7V | 00:00:00 | 03:21:52 | 00:00:00 | |
| OE5DRO-10 | 2026-09-05 01:51:22 | 48.31497 | 14.22391 | 115° | 53km/h | 990m | -2.5m/s | 20.4°C | 57.5% | 908.4hPa | 2.7V | 00:00:00 | 00:00:00 | 00:00:00 | |
| OE5WHR-10 | 2026-09-05 01:51:22 | 48.31497 | 14.22391 | 115° | 53km/h | 990m | -2.5m/s | 20.4°C | 57.5% | 908.4hPa | 2.7V | 00:00:00 | 00:00:00 | 00:00:00 | |
| OE3JTB-15 | 2026-09-05 01:51:21 | 48.31503 | 14.22373 | 115° | 53km/h | 993m | -2.4m/s | 20.3°C | 57.7% | 908.1hPa | 2.7V | 00:00:00 | 00:00:00 | 00:00:00 | |
| OE5WHR-10 | 2026-09-05 01:51:21 | 48.31503 | 14.22373 | 115° | 53km/h | 993m | -2.4m/s | 20.3°C | 57.7% | 908.1hPa | 2.7V | 00:00:00 | 00:00:00 | 00:00:00 | |
| OE5DRO-10 | 2026-09-05 01:51:20 | 48.31508 | 14.22355 | 117° | 53km/h | 995m | -2.4m/s | 20.3°C | 57.7% | 907.8hPa | 2.7V | 00:00:00 | 00:00:00 | 00:00:00 | |
| OE5HKT-10 | 2026-09-05 01:51:20 | 48.31508 | 14.22355 | 117° | 53km/h | 995m | -2.4m/s | 20.3°C | 57.7% | 907.8hPa | 2.7V | 00:00:00 | 00:00:00 | 00:00:00 | |
| OE3JTB-15 | 2026-09-05 01:51:19 | 48.31514 | 14.22337 | 117° | 53km/h | 998m | -2.3m/s | 20.3°C | 57.8% | 907.6hPa | 2.7V | 00:00:00 | 03:21:48 | 00:00:00 | |
| OE5WHR-10 | 2026-09-05 01:51:19 | 48.31514 | 14.22337 | 117° | 53km/h | 998m | -2.3m/s | 20.3°C | 57.8% | 907.6hPa | 2.7V | 07:13:00 | 03:21:48 | 00:00:00 | |
| PG1ADW-2 | 2026-09-05 01:51:19 | 48.31514 | 14.22337 | 117° | 53km/h | 998m | -2.3m/s | 20.3°C | 57.8% | 907.6hPa | 2.7V | 00:00:00 | 03:21:48 | 00:00:00 | |
| OE5DRO-10 | 2026-09-05 01:51:18 | 48.31520 | 14.22319 | 117° | 53km/h | 1000m | -2.4m/s | 20.3°C | 57.9% | 907.3hPa | 2.7V | 00:00:00 | 00:00:00 | 00:00:00 | |
| OE5WHR-10 | 2026-09-05 01:51:18 | 48.31520 | 14.22319 | 117° | 53km/h | 1000m | -2.4m/s | 20.3°C | 57.9% | 907.3hPa | 2.7V | 07:13:00 | 00:00:00 | 00:00:00 | |
| OE3JTB-15 | 2026-09-05 01:51:17 | 48.31526 | 14.22301 | 117° | 53km/h | 1002m | -2.4m/s | 20.3°C | 57.9% | 907.1hPa | 2.7V | 00:00:00 | 00:00:00 | 00:00:00 | |
| OE5HKT-10 | 2026-09-05 01:51:17 | 48.31526 | 14.22301 | 117° | 53km/h | 1002m | -2.4m/s | 20.3°C | 57.9% | 907.1hPa | 2.7V | 00:00:00 | 00:00:00 | 00:00:00 | |
| OE5DRO-10 | 2026-09-05 01:51:16 | 48.31532 | 14.22283 | 118° | 51km/h | 1005m | -2.1m/s | 20.2°C | 58.0% | 906.8hPa | 2.7V | 00:00:00 | 00:00:00 | 00:00:00 | |
| OE5WHR-10 | 2026-09-05 01:51:16 | 48.31532 | 14.22283 | 118° | 53km/h | 1005m | -2.1m/s | 20.2°C | 58.0% | 906.8hPa | 2.7V | 00:00:00 | 00:00:00 | 00:00:00 | |
| OE3JTB-15 | 2026-09-05 01:51:15 | 48.31538 | 14.22266 | 119° | 53km/h | 1007m | -2.3m/s | 20.2°C | 58.0% | 906.7hPa | 2.7V | 07:13:00 | 00:00:00 | 00:00:00 | |
| OE5WHR-10 | 2026-09-05 01:51:15 | 48.31538 | 14.22266 | 119° | 53km/h | 1007m | -2.3m/s | 20.2°C | 58.0% | 906.7hPa | 2.7V | 00:00:00 | 03:21:44 | 00:00:00 | |
| OE5DRO-10 | 2026-09-05 01:51:14 | 48.31545 | 14.22248 | 119° | 53km/h | 1009m | -2.4m/s | 20.2°C | 58.1% | 906.3hPa | 2.7V | 00:00:00 | 00:00:00 | 00:00:00 | |
| OE5HKT-10 | 2026-09-05 01:51:14 | 48.31545 | 14.22248 | 119° | 53km/h | 1009m | -2.4m/s | 20.2°C | 58.1% | 906.3hPa | 2.7V | 00:00:00 | 03:21:43 | 00:00:00 | |
| OE3JTB-15 | 2026-09-05 01:51:13 | 48.31551 | 14.22230 | 117° | 53km/h | 1012m | -2.5m/s | 20.2°C | 58.2% | 906.1hPa | 2.7V | 00:00:00 | 03:21:42 | 00:00:00 | |
| PG1ADW-2 | 2026-09-05 01:51:13 | 48.31551 | 14.22230 | 117° | 53km/h | 1012m | -2.5m/s | 20.2°C | 58.2% | 906.1hPa | 2.7V | 00:00:00 | 00:00:00 | 00:00:00 | |
| OE5WHR-10 | 2026-09-05 01:51:13 | 48.31551 | 14.22230 | 117° | 53km/h | 1012m | -2.5m/s | 20.2°C | 58.2% | 906.1hPa | 2.7V | 00:00:00 | 00:00:00 | 00:00:00 | |
| OE5DRO-10 | 2026-09-05 01:51:12 | 48.31557 | 14.22212 | 117° | 53km/h | 1015m | -2.4m/s | 20.2°C | 58.3% | 905.6hPa | 2.7V | 07:13:00 | 00:00:00 | 00:00:00 | |
| OE5WHR-10 | 2026-09-05 01:51:12 | 48.31557 | 14.22212 | 117° | 53km/h | 1015m | -2.4m/s | 20.2°C | 58.3% | 905.6hPa | 2.7V | 00:00:00 | 00:00:00 | 00:00:00 | |
| OE5HKT-10 | 2026-09-05 01:51:11 | 48.31563 | 14.22194 | 118° | 53km/h | 1017m | -2.3m/s | 20.1°C | 58.4% | 905.5hPa | 2.7V | 07:13:00 | 00:00:00 | 00:00:00 | |
| OE3JTB-15 | 2026-09-05 01:51:11 | 48.31563 | 14.22194 | 118° | 53km/h | 1017m | -2.3m/s | 20.1°C | 58.4% | 905.5hPa | 2.7V | 00:00:00 | 00:00:00 | 00:00:00 | |
| OE5DRO-10 | 2026-09-05 01:51:10 | 48.31569 | 14.22176 | 118° | 55km/h | 1019m | -2.4m/s | 20.1°C | 58.4% | 905.1hPa | 2.7V | 00:00:00 | 00:00:00 | 00:00:00 | |
| OE5WHR-10 | 2026-09-05 01:51:10 | 48.31569 | 14.22176 | 118° | 53km/h | 1019m | -2.4m/s | 20.1°C | 58.4% | 905.1hPa | 2.7V | 00:00:00 | 03:21:39 | 00:00:00 | |
| OE3JTB-15 | 2026-09-05 01:51:09 | 48.31575 | 14.22158 | 116° | 53km/h | 1022m | -2.5m/s | 20.1°C | 58.4% | 905.0hPa | 2.7V | 00:00:00 | 00:00:00 | 00:00:00 | |
| OE5WHR-10 | 2026-09-05 01:51:09 | 48.31575 | 14.22158 | 116° | 53km/h | 1022m | -2.5m/s | 20.1°C | 58.4% | 905.0hPa | 2.7V | 00:00:00 | 00:00:00 | 00:00:00 | |
| OE5DRO-10 | 2026-09-05 01:51:08 | 48.31581 | 14.22139 | 116° | 53km/h | 1024m | -2.5m/s | 20.0°C | 58.6% | 904.7hPa | 2.7V | 00:00:00 | 00:00:00 | 00:00:00 | |
| OE5HKT-10 | 2026-09-05 01:51:08 | 48.31581 | 14.22139 | 116° | 53km/h | 1024m | -2.5m/s | 20.0°C | 58.6% | 904.7hPa | 2.7V | 00:00:00 | 00:00:00 | 00:00:00 | |
| OE5DRO-10 | 2026-09-05 01:51:06 | 48.31593 | 14.22104 | 118° | 53km/h | 1029m | -2.4m/s | 20.0°C | 58.7% | 904.3hPa | 2.7V | 00:00:00 | 00:00:00 | 00:00:00 | |
| OE5WHR-10 | 2026-09-05 01:51:06 | 48.31593 | 14.22104 | 118° | 53km/h | 1029m | -2.4m/s | 20.0°C | 58.7% | 904.3hPa | 2.7V | 00:00:00 | 03:21:35 | 00:00:00 | |
| OE3JTB-15 | 2026-09-05 01:51:05 | 48.31599 | 14.22086 | 118° | 53km/h | 1032m | -2.6m/s | 20.0°C | 58.8% | 904.0hPa | 2.7V | 00:00:00 | 00:00:00 | 00:00:00 | |
| OE5HKT-10 | 2026-09-05 01:51:05 | 48.31599 | 14.22086 | 118° | 53km/h | 1032m | -2.6m/s | 20.0°C | 58.8% | 904.0hPa | 2.7V | 00:00:00 | 03:21:34 | 00:00:00 | |
| OE5DRO-10 | 2026-09-05 01:51:04 | 48.31606 | 14.22068 | 117° | 53km/h | 1034m | -2.4m/s | 20.0°C | 58.7% | 903.8hPa | 2.7V | 00:00:00 | 00:00:00 | 00:00:00 | |
| OE5WHR-10 | 2026-09-05 01:51:04 | 48.31606 | 14.22068 | 117° | 53km/h | 1034m | -2.4m/s | 20.0°C | 58.7% | 903.8hPa | 2.7V | 00:00:00 | 00:00:00 | 00:00:00 | |
| OE3JTB-15 | 2026-09-05 01:51:03 | 48.31612 | 14.22049 | 116° | 53km/h | 1037m | -2.4m/s | 19.9°C | 58.9% | 903.5hPa | 2.7V | 00:00:00 | 00:00:00 | 00:00:00 | |
| OE5WHR-10 | 2026-09-05 01:51:03 | 48.31612 | 14.22049 | 116° | 53km/h | 1037m | -2.4m/s | 19.9°C | 58.9% | 903.5hPa | 2.7V | 00:00:00 | 00:00:00 | 00:00:00 | |
| OE5DRO-10 | 2026-09-05 01:51:02 | 48.31617 | 14.22031 | 117° | 53km/h | 1039m | -2.1m/s | 19.9°C | 58.8% | 903.3hPa | 2.7V | 00:00:00 | 00:00:00 | 00:00:00 | |
| OE5HKT-10 | 2026-09-05 01:51:02 | 48.31617 | 14.22031 | 117° | 55km/h | 1039m | -2.1m/s | 19.9°C | 58.8% | 903.3hPa | 2.7V | 00:00:00 | 00:00:00 | 00:00:00 | |
| OE3JTB-15 | 2026-09-05 01:51:01 | 48.31623 | 14.22013 | 118° | 55km/h | 1042m | -2.2m/s | 20.0°C | 59.0% | 902.9hPa | 2.7V | 00:00:00 | 03:21:30 | 00:00:00 | |
| PG1ADW-2 | 2026-09-05 01:51:01 | 48.31623 | 14.22013 | 118° | 57km/h | 1042m | -2.2m/s | 20.0°C | 59.0% | 902.9hPa | 2.7V | 00:00:00 | 00:00:00 | 00:00:00 | |
| OE5WHR-10 | 2026-09-05 01:51:01 | 48.31623 | 14.22013 | 118° | 57km/h | 1042m | -2.2m/s | 20.0°C | 59.0% | 902.9hPa | 2.7V | 00:00:00 | 03:21:30 | 00:00:00 | |
| OE5DRO-10 | 2026-09-05 01:51:00 | 48.31630 | 14.21994 | 118° | 57km/h | 1044m | -2.1m/s | 20.0°C | 59.0% | 902.7hPa | 2.7V | 00:00:00 | 00:00:00 | 00:00:00 | |
| OE5WHR-10 | 2026-09-05 01:51:00 | 48.31630 | 14.21994 | 118° | 57km/h | 1044m | -2.1m/s | 20.0°C | 59.0% | 902.7hPa | 2.7V | 00:00:00 | 00:00:00 | 00:00:00 | |
| OE3JTB-15 | 2026-09-05 01:50:59 | 48.31636 | 14.21975 | 117° | 57km/h | 1046m | -2.3m/s | 19.9°C | 59.1% | 902.2hPa | 2.7V | 07:13:00 | 00:00:00 | 00:00:00 | |
| OE5HKT-10 | 2026-09-05 01:50:59 | 48.31636 | 14.21975 | 117° | 57km/h | 1046m | -2.3m/s | 19.9°C | 59.1% | 902.2hPa | 2.7V | 00:00:00 | 00:00:00 | 00:00:00 | |
| OE5DRO-10 | 2026-09-05 01:50:58 | 48.31643 | 14.21956 | 117° | 57km/h | 1049m | -2.5m/s | 19.9°C | 59.1% | 902.2hPa | 2.7V | 00:00:00 | 00:00:00 | 00:00:00 | |
| OE5WHR-10 | 2026-09-05 01:50:58 | 48.31643 | 14.21956 | 117° | 57km/h | 1049m | -2.5m/s | 19.9°C | 59.1% | 902.2hPa | 2.7V | 00:00:00 | 00:00:00 | 00:00:00 | |
| OE3JTB-15 | 2026-09-05 01:50:57 | 48.31649 | 14.21936 | 117° | 57km/h | 1051m | -2.4m/s | 19.9°C | 59.2% | 901.9hPa | 2.7V | 00:00:00 | 00:00:00 | 00:00:00 | |
| OE5WHR-10 | 2026-09-05 01:50:57 | 48.31649 | 14.21936 | 117° | 57km/h | 1051m | -2.4m/s | 19.9°C | 59.2% | 901.9hPa | 2.7V | 00:00:00 | 03:21:26 | 00:00:00 | |
| OE5FHM-15 | 2026-09-05 01:50:57 | 48.31649 | 14.21936 | 117° | 57km/h | 1051m | -2.4m/s | 19.9°C | 59.2% | 901.9hPa | 2.7V | 00:00:00 | 03:21:26 | 00:00:00 | |
| OE5DRO-10 | 2026-09-05 01:50:56 | 48.31656 | 14.21917 | 118° | 57km/h | 1053m | -2.4m/s | 19.9°C | 59.3% | 901.6hPa | 2.7V | 07:13:00 | 00:00:00 | 00:00:00 | |
| OE5HKT-10 | 2026-09-05 01:50:56 | 48.31656 | 14.21917 | 118° | 57km/h | 1053m | -2.4m/s | 19.9°C | 59.3% | 901.6hPa | 2.7V | 00:00:00 | 03:21:25 | 00:00:00 | |
| OE3JTB-15 | 2026-09-05 01:50:55 | 48.31662 | 14.21898 | 118° | 58km/h | 1056m | -2.4m/s | 19.9°C | 59.3% | 901.4hPa | 2.7V | 00:00:00 | 03:21:24 | 00:00:00 | |
| OE5WHR-10 | 2026-09-05 01:50:55 | 48.31662 | 14.21898 | 118° | 57km/h | 1056m | -2.4m/s | 19.9°C | 59.3% | 901.4hPa | 2.7V | 07:13:00 | 00:00:00 | 00:00:00 | |
| PG1ADW-2 | 2026-09-05 01:50:55 | 48.31662 | 14.21898 | 118° | 57km/h | 1056m | -2.4m/s | 19.9°C | 59.3% | 901.4hPa | 2.7V | 00:00:00 | 03:21:24 | 00:00:00 | |
| OE5DRO-10 | 2026-09-05 01:50:54 | 48.31669 | 14.21879 | 117° | 57km/h | 1059m | -2.5m/s | 19.8°C | 59.4% | 901.1hPa | 2.7V | 00:00:00 | 00:00:00 | 00:00:00 | |
| OE5WHR-10 | 2026-09-05 01:50:54 | 48.31669 | 14.21879 | 117° | 57km/h | 1059m | -2.5m/s | 19.8°C | 59.4% | 901.1hPa | 2.7V | 07:13:00 | 00:00:00 | 00:00:00 | |
| OE3JTB-15 | 2026-09-05 01:50:53 | 48.31676 | 14.21859 | 117° | 57km/h | 1061m | -2.2m/s | 19.8°C | 59.4% | 901.0hPa | 2.7V | 00:00:00 | 00:00:00 | 00:00:00 | |
| OE5HKT-10 | 2026-09-05 01:50:53 | 48.31676 | 14.21859 | 117° | 57km/h | 1061m | -2.2m/s | 19.8°C | 59.4% | 901.0hPa | 2.7V | 00:00:00 | 00:00:00 | 00:00:00 | |
| OE5DRO-10 | 2026-09-05 01:50:52 | 48.31682 | 14.21840 | 118° | 57km/h | 1063m | -2.2m/s | 19.8°C | 59.5% | 900.7hPa | 2.7V | 00:00:00 | 00:00:00 | 00:00:00 | |
| OE5WHR-10 | 2026-09-05 01:50:52 | 48.31682 | 14.21840 | 118° | 57km/h | 1063m | -2.2m/s | 19.8°C | 59.5% | 900.7hPa | 2.7V | 00:00:00 | 03:21:21 | 00:00:00 | |
| OE5DRO-10 | 2026-09-05 01:50:50 | 48.31696 | 14.21802 | 119° | 57km/h | 1068m | -2.2m/s | 19.8°C | 59.6% | 900.3hPa | 2.7V | 00:00:00 | 00:00:00 | 00:00:00 | |
| OE5HKT-10 | 2026-09-05 01:50:50 | 48.31696 | 14.21802 | 119° | 57km/h | 1068m | -2.2m/s | 19.8°C | 59.6% | 900.3hPa | 2.7V | 00:00:00 | 00:00:00 | 00:00:00 | |
| PG1ADW-2 | 2026-09-05 01:50:49 | 48.31703 | 14.21783 | 118° | 57km/h | 1070m | -2.4m/s | 19.7°C | 59.7% | 899.8hPa | 2.7V | 00:00:00 | 00:00:00 | 00:00:00 | |
| OE3JTB-15 | 2026-09-05 01:50:49 | 48.31703 | 14.21783 | 118° | 57km/h | 1070m | -2.4m/s | 19.7°C | 59.7% | 899.8hPa | 2.7V | 00:00:00 | 03:21:18 | 00:00:00 | |
| OE5WHR-10 | 2026-09-05 01:50:49 | 48.31703 | 14.21783 | 118° | 57km/h | 1070m | -2.4m/s | 19.7°C | 59.7% | 899.8hPa | 2.7V | 00:00:00 | 00:00:00 | 00:00:00 | |
| OE5WHR-10 | 2026-09-05 01:50:48 | 48.31710 | 14.21764 | 119° | 57km/h | 1072m | -2.3m/s | 19.7°C | 59.8% | 899.5hPa | 2.7V | 00:00:00 | 03:21:17 | 00:00:00 | |
| OE5DRO-10 | 2026-09-05 01:50:48 | 48.31710 | 14.21764 | 119° | 55km/h | 1072m | -2.3m/s | 19.7°C | 59.8% | 899.5hPa | 2.7V | 00:00:00 | 00:00:00 | 00:00:00 | |
| OE3JTB-15 | 2026-09-05 01:50:47 | 48.31716 | 14.21746 | 120° | 57km/h | 1075m | -2.4m/s | 19.7°C | 59.8% | 899.5hPa | 2.7V | 00:00:00 | 00:00:00 | 00:00:00 | |
| OE5FHM-15 | 2026-09-05 01:50:47 | 48.31716 | 14.21746 | 120° | 57km/h | 1075m | -2.4m/s | 19.7°C | 59.8% | 899.5hPa | 2.7V | 00:00:00 | 03:21:16 | 00:00:00 | |
| OE5HKT-10 | 2026-09-05 01:50:47 | 48.31716 | 14.21746 | 120° | 57km/h | 1075m | -2.4m/s | 19.7°C | 59.8% | 899.5hPa | 2.7V | 07:13:00 | 03:21:16 | 00:00:00 | |
| OE5DRO-10 | 2026-09-05 01:50:46 | 48.31723 | 14.21728 | 120° | 57km/h | 1077m | -2.4m/s | 19.7°C | 59.8% | 899.2hPa | 2.7V | 00:00:00 | 00:00:00 | 00:00:00 | |
| OE5WHR-10 | 2026-09-05 01:50:46 | 48.31723 | 14.21728 | 120° | 57km/h | 1077m | -2.4m/s | 19.7°C | 59.8% | 899.2hPa | 2.7V | 00:00:00 | 00:00:00 | 00:00:00 | |
| OE5WHR-10 | 2026-09-05 01:50:45 | 48.31730 | 14.21709 | 118° | 57km/h | 1080m | -2.5m/s | 19.6°C | 60.0% | 899.0hPa | 2.7V | 00:00:00 | 00:00:00 | 00:00:00 | |
| OE5DRO-10 | 2026-09-05 01:50:44 | 48.31737 | 14.21690 | 118° | 57km/h | 1082m | -2.3m/s | 19.6°C | 60.0% | 898.6hPa | 2.7V | 00:00:00 | 00:00:00 | 00:00:00 | |
| OE3JTB-15 | 2026-09-05 01:50:44 | 48.31737 | 14.21690 | 118° | 57km/h | 1082m | -2.3m/s | 19.6°C | 60.0% | 898.6hPa | 2.7V | 00:00:00 | 00:00:00 | 00:00:00 | |
| OE5HKT-10 | 2026-09-05 01:50:44 | 48.31737 | 14.21690 | 118° | 57km/h | 1082m | -2.3m/s | 19.6°C | 60.0% | 898.6hPa | 2.7V | 00:00:00 | 00:00:00 | 00:00:00 | |
| PG1ADW-2 | 2026-09-05 01:50:43 | 48.31744 | 14.21671 | 119° | 58km/h | 1084m | -2.4m/s | 19.6°C | 60.0% | 898.5hPa | 2.7V | 07:13:00 | 00:00:00 | 00:00:00 | |
| OE5WHR-10 | 2026-09-05 01:50:43 | 48.31744 | 14.21671 | 119° | 58km/h | 1084m | -2.4m/s | 19.6°C | 60.0% | 898.5hPa | 2.7V | 00:00:00 | 03:21:12 | 00:00:00 | |
| OE3JTB-15 | 2026-09-05 01:50:42 | 48.31751 | 14.21651 | 119° | 58km/h | 1087m | -2.4m/s | 19.6°C | 60.2% | 898.2hPa | 2.7V | 07:13:00 | 03:21:11 | 00:00:00 | |
| OE5DRO-10 | 2026-09-05 01:50:42 | 48.31751 | 14.21651 | 119° | 58km/h | 1087m | -2.4m/s | 19.6°C | 60.2% | 898.2hPa | 2.7V | 00:00:00 | 00:00:00 | 00:00:00 | |
| OE5WHR-10 | 2026-09-05 01:50:42 | 48.31751 | 14.21651 | 119° | 58km/h | 1087m | -2.4m/s | 19.6°C | 60.2% | 898.2hPa | 2.7V | 00:00:00 | 00:00:00 | 00:00:00 | |
| OE5HKT-10 | 2026-09-05 01:50:41 | 48.31758 | 14.21632 | 119° | 58km/h | 1089m | -2.6m/s | 19.6°C | 60.1% | 897.9hPa | 2.7V | 00:00:00 | 00:00:00 | 00:00:00 | |
| OE3JTB-15 | 2026-09-05 01:50:40 | 48.31764 | 14.21612 | 118° | 58km/h | 1092m | -2.5m/s | 19.6°C | 60.3% | 897.7hPa | 2.7V | 00:00:00 | 00:00:00 | 00:00:00 | |
| OE5DRO-10 | 2026-09-05 01:50:40 | 48.31764 | 14.21612 | 118° | 58km/h | 1092m | -2.5m/s | 19.6°C | 60.3% | 897.7hPa | 2.7V | 07:13:00 | 00:00:00 | 00:00:00 | |
| OE5WHR-10 | 2026-09-05 01:50:40 | 48.31764 | 14.21612 | 118° | 58km/h | 1092m | -2.5m/s | 19.6°C | 60.3% | 897.7hPa | 2.7V | 00:00:00 | 00:00:00 | 00:00:00 | |
| OE5WHR-10 | 2026-09-05 01:50:39 | 48.31771 | 14.21593 | 118° | 58km/h | 1094m | -2.3m/s | 19.6°C | 60.3% | 897.3hPa | 2.7V | 00:00:00 | 03:21:08 | 00:00:00 | |
| OE3JTB-15 | 2026-09-05 01:50:38 | 48.31778 | 14.21574 | 119° | 58km/h | 1097m | -2.3m/s | 19.6°C | 60.3% | 897.1hPa | 2.7V | 00:00:00 | 00:00:00 | 00:00:00 | |
| OE5DRO-10 | 2026-09-05 01:50:38 | 48.31778 | 14.21574 | 119° | 58km/h | 1097m | -2.3m/s | 19.6°C | 60.3% | 897.1hPa | 2.7V | 00:00:00 | 00:00:00 | 00:00:00 | |
| OE5HKT-10 | 2026-09-05 01:50:38 | 48.31778 | 14.21574 | 119° | 58km/h | 1097m | -2.3m/s | 19.6°C | 60.3% | 897.1hPa | 2.7V | 00:00:00 | 03:21:07 | 00:00:00 | |
| OE5FHM-15 | 2026-09-05 01:50:37 | 48.31786 | 14.21554 | 120° | 58km/h | 1099m | -2.4m/s | 19.5°C | 60.5% | 896.8hPa | 2.7V | 00:00:00 | 03:21:06 | 00:00:00 | |
| PG1ADW-2 | 2026-09-05 01:50:37 | 48.31786 | 14.21554 | 120° | 58km/h | 1099m | -2.4m/s | 19.5°C | 60.5% | 896.8hPa | 2.7V | 00:00:00 | 00:00:00 | 00:00:00 | |
| OE5WHR-10 | 2026-09-05 01:50:37 | 48.31786 | 14.21554 | 120° | 58km/h | 1099m | -2.4m/s | 19.5°C | 60.5% | 896.8hPa | 2.7V | 00:00:00 | 00:00:00 | 00:00:00 | |
| OE5DRO-10 | 2026-09-05 01:50:36 | 48.31793 | 14.21535 | 120° | 58km/h | 1102m | -2.3m/s | 19.5°C | 60.4% | 896.6hPa | 2.7V | 00:00:00 | 00:00:00 | 00:00:00 | |
| OE3JTB-15 | 2026-09-05 01:50:36 | 48.31793 | 14.21535 | 120° | 58km/h | 1102m | -2.3m/s | 19.5°C | 60.4% | 896.6hPa | 2.7V | 00:00:00 | 03:21:05 | 00:00:00 | |
| OE5WHR-10 | 2026-09-05 01:50:36 | 48.31793 | 14.21535 | 120° | 58km/h | 1102m | -2.3m/s | 19.5°C | 60.4% | 896.6hPa | 2.7V | 00:00:00 | 00:00:00 | 00:00:00 | |
| OE5HKT-10 | 2026-09-05 01:50:35 | 48.31800 | 14.21516 | 120° | 58km/h | 1104m | -2.2m/s | 19.6°C | 60.4% | 896.3hPa | 2.7V | 00:00:00 | 00:00:00 | 00:00:00 | |
| OE5DRO-10 | 2026-09-05 01:50:34 | 48.31807 | 14.21497 | 120° | 57km/h | 1106m | -2.3m/s | 19.5°C | 60.6% | 896.1hPa | 2.7V | 00:00:00 | 00:00:00 | 00:00:00 | |
| OE3JTB-15 | 2026-09-05 01:50:34 | 48.31807 | 14.21497 | 120° | 57km/h | 1106m | -2.3m/s | 19.5°C | 60.6% | 896.1hPa | 2.7V | 00:00:00 | 00:00:00 | 00:00:00 | |
| OE5WHR-10 | 2026-09-05 01:50:34 | 48.31807 | 14.21497 | 120° | 58km/h | 1106m | -2.3m/s | 19.5°C | 60.6% | 896.1hPa | 2.7V | 00:00:00 | 03:21:03 | 00:00:00 | |
| OE5WHR-10 | 2026-09-05 01:50:33 | 48.31814 | 14.21478 | 121° | 58km/h | 1109m | -2.4m/s | 19.5°C | 60.6% | 896.1hPa | 2.7V | 00:00:00 | 00:00:00 | 00:00:00 | |
| OE5DRO-10 | 2026-09-05 01:50:32 | 48.31822 | 14.21459 | 120° | 58km/h | 1111m | -2.4m/s | 19.5°C | 60.7% | 895.7hPa | 2.7V | 00:00:00 | 00:00:00 | 00:00:00 | |
| OE3JTB-15 | 2026-09-05 01:50:32 | 48.31822 | 14.21459 | 120° | 58km/h | 1111m | -2.4m/s | 19.5°C | 60.7% | 895.7hPa | 2.7V | 00:00:00 | 00:00:00 | 00:00:00 | |
| OE5WHR-10 | 2026-09-05 01:50:31 | 48.31829 | 14.21440 | 119° | 57km/h | 1113m | -2.2m/s | 19.5°C | 60.7% | 895.5hPa | 2.7V | 07:14:00 | 00:00:00 | 00:00:00 | |
| PG1ADW-2 | 2026-09-05 01:50:31 | 48.31829 | 14.21440 | 119° | 57km/h | 1113m | -2.2m/s | 19.5°C | 60.7% | 895.5hPa | 2.7V | 00:00:00 | 03:21:00 | 00:00:00 | |
| OE5HKT-10 | 2026-09-05 01:50:31 | 48.31829 | 14.21440 | 119° | 57km/h | 1113m | -2.2m/s | 19.5°C | 60.7% | 895.5hPa | 2.7V | 00:00:00 | 00:00:00 | 00:00:00 | |
| OE5DRO-10 | 2026-09-05 01:50:30 | 48.31836 | 14.21421 | 119° | 57km/h | 1116m | -2.3m/s | 19.5°C | 60.9% | 895.2hPa | 2.7V | 00:00:00 | 00:00:00 | 00:00:00 | |
| OE3JTB-15 | 2026-09-05 01:50:30 | 48.31836 | 14.21421 | 119° | 57km/h | 1116m | -2.3m/s | 19.5°C | 60.9% | 895.2hPa | 2.7V | 00:00:00 | 03:20:59 | 00:00:00 | |
| OE5WHR-10 | 2026-09-05 01:50:30 | 48.31836 | 14.21421 | 119° | 57km/h | 1116m | -2.3m/s | 19.5°C | 60.9% | 895.2hPa | 2.7V | 07:14:00 | 03:20:59 | 00:00:00 | |
| OE5DRO-10 | 2026-09-05 01:50:28 | 48.31849 | 14.21383 | 120° | 57km/h | 1120m | -2.4m/s | 19.4°C | 61.0% | 894.8hPa | 2.7V | 00:00:00 | 00:00:00 | 00:00:00 | |
| OE3JTB-15 | 2026-09-05 01:50:28 | 48.31849 | 14.21383 | 120° | 57km/h | 1120m | -2.4m/s | 19.4°C | 61.0% | 894.8hPa | 2.7V | 00:00:00 | 00:00:00 | 00:00:00 | |
| OE5HKT-10 | 2026-09-05 01:50:28 | 48.31849 | 14.21383 | 120° | 58km/h | 1120m | -2.4m/s | 19.4°C | 61.0% | 894.8hPa | 2.7V | 00:00:00 | 03:20:57 | 00:00:00 | |
| OE5WHR-10 | 2026-09-05 01:50:28 | 48.31849 | 14.21383 | 120° | 58km/h | 1120m | -2.4m/s | 19.4°C | 61.0% | 894.8hPa | 2.7V | 00:00:00 | 00:00:00 | 00:00:00 | |
| OE5WHR-10 | 2026-09-05 01:50:27 | 48.31857 | 14.21364 | 120° | 58km/h | 1123m | -2.4m/s | 19.4°C | 61.0% | 894.4hPa | 2.7V | 00:00:00 | 00:00:00 | 00:00:00 | |
| OE5FHM-15 | 2026-09-05 01:50:27 | 48.31857 | 14.21364 | 120° | 58km/h | 1123m | -2.4m/s | 19.4°C | 61.0% | 894.4hPa | 2.7V | 00:00:00 | 03:20:56 | 00:00:00 | |
| OE3JTB-15 | 2026-09-05 01:50:26 | 48.31864 | 14.21345 | 119° | 58km/h | 1125m | -2.5m/s | 19.4°C | 61.2% | 894.2hPa | 2.7V | 07:14:00 | 00:00:00 | 00:00:00 | |
| OE5DRO-10 | 2026-09-05 01:50:26 | 48.31864 | 14.21345 | 119° | 58km/h | 1125m | -2.5m/s | 19.4°C | 61.2% | 894.2hPa | 2.7V | 00:00:00 | 00:00:00 | 00:00:00 | |
| PG1ADW-2 | 2026-09-05 01:50:25 | 48.31871 | 14.21325 | 119° | 58km/h | 1128m | -2.4m/s | 19.3°C | 61.2% | 894.0hPa | 2.7V | 00:00:00 | 00:00:00 | 00:00:00 | |
| OE5HKT-10 | 2026-09-05 01:50:25 | 48.31871 | 14.21325 | 119° | 58km/h | 1128m | -2.4m/s | 19.3°C | 61.2% | 894.0hPa | 2.7V | 00:00:00 | 00:00:00 | 00:00:00 | |
| OE5WHR-10 | 2026-09-05 01:50:25 | 48.31871 | 14.21325 | 119° | 58km/h | 1128m | -2.4m/s | 19.3°C | 61.2% | 894.0hPa | 2.7V | 00:00:00 | 03:20:54 | 00:00:00 | |
| OE5DRO-10 | 2026-09-05 01:50:24 | 48.31878 | 14.21306 | 120° | 58km/h | 1130m | -2.4m/s | 19.3°C | 61.2% | 893.6hPa | 2.7V | 07:14:00 | 00:00:00 | 00:00:00 | |
| OE3JTB-15 | 2026-09-05 01:50:24 | 48.31878 | 14.21306 | 120° | 58km/h | 1130m | -2.4m/s | 19.3°C | 61.2% | 893.6hPa | 2.7V | 00:00:00 | 03:20:53 | 00:00:00 | |
| OE5WHR-10 | 2026-09-05 01:50:24 | 48.31878 | 14.21306 | 120° | 58km/h | 1130m | -2.4m/s | 19.3°C | 61.2% | 893.6hPa | 2.7V | 00:00:00 | 00:00:00 | 00:00:00 | |
| OE5DRO-10 | 2026-09-05 01:50:22 | 48.31893 | 14.21267 | 120° | 58km/h | 1135m | -2.6m/s | 19.3°C | 61.4% | 893.0hPa | 2.7V | 00:00:00 | 00:00:00 | 00:00:00 | |
| OE3JTB-15 | 2026-09-05 01:50:22 | 48.31893 | 14.21267 | 120° | 58km/h | 1135m | -2.6m/s | 19.3°C | 61.4% | 893.0hPa | 2.7V | 00:00:00 | 00:00:00 | 00:00:00 | |
| OE5HKT-10 | 2026-09-05 01:50:22 | 48.31893 | 14.21267 | 120° | 58km/h | 1135m | -2.6m/s | 19.3°C | 61.4% | 893.0hPa | 2.7V | 07:14:00 | 00:00:00 | 00:00:00 | |
| OE5WHR-10 | 2026-09-05 01:50:22 | 48.31893 | 14.21267 | 120° | 58km/h | 1135m | -2.6m/s | 19.3°C | 61.4% | 893.0hPa | 2.7V | 00:00:00 | 00:00:00 | 00:00:00 | |
| OE5WHR-10 | 2026-09-05 01:50:21 | 48.31900 | 14.21248 | 120° | 58km/h | 1138m | -2.6m/s | 19.3°C | 61.4% | 892.8hPa | 2.7V | 00:00:00 | 03:20:50 | 00:00:00 | |
| OE5DRO-10 | 2026-09-05 01:50:20 | 48.31907 | 14.21229 | 120° | 57km/h | 1141m | -2.5m/s | 19.3°C | 61.5% | 892.5hPa | 2.7V | 00:00:00 | 00:00:00 | 00:00:00 | |
| OE3JTB-15 | 2026-09-05 01:50:20 | 48.31907 | 14.21229 | 120° | 57km/h | 1141m | -2.5m/s | 19.3°C | 61.5% | 892.5hPa | 2.7V | 00:00:00 | 00:00:00 | 00:00:00 | |
| PG1ADW-2 | 2026-09-05 01:50:19 | 48.31914 | 14.21210 | 121° | 57km/h | 1143m | -2.5m/s | 19.2°C | 61.6% | 892.2hPa | 2.7V | 00:00:00 | 00:00:00 | 00:00:00 | |
| OE5HKT-10 | 2026-09-05 01:50:19 | 48.31914 | 14.21210 | 121° | 57km/h | 1143m | -2.5m/s | 19.2°C | 61.6% | 892.2hPa | 2.7V | 00:00:00 | 03:20:48 | 00:00:00 | |
| OE5WHR-10 | 2026-09-05 01:50:19 | 48.31914 | 14.21210 | 121° | 57km/h | 1143m | -2.5m/s | 19.2°C | 61.6% | 892.2hPa | 2.7V | 00:00:00 | 00:00:00 | 00:00:00 | |
| OE3JTB-15 | 2026-09-05 01:50:18 | 48.31922 | 14.21191 | 121° | 58km/h | 1145m | -2.4m/s | 19.2°C | 61.6% | 892.0hPa | 2.7V | 00:00:00 | 03:20:47 | 00:00:00 | |
| OE5DRO-10 | 2026-09-05 01:50:18 | 48.31922 | 14.21191 | 121° | 58km/h | 1145m | -2.4m/s | 19.2°C | 61.6% | 892.0hPa | 2.7V | 00:00:00 | 00:00:00 | 00:00:00 | |
| OE5WHR-10 | 2026-09-05 01:50:18 | 48.31922 | 14.21191 | 121° | 57km/h | 1145m | -2.4m/s | 19.2°C | 61.6% | 892.0hPa | 2.7V | 00:00:00 | 00:00:00 | 00:00:00 | |
| OE5FHM-15 | 2026-09-05 01:50:17 | 48.31929 | 14.21172 | 120° | 57km/h | 1148m | -2.3m/s | 19.2°C | 61.7% | 891.8hPa | 2.7V | 00:00:00 | 03:20:46 | 00:00:00 | |
| OE5DRO-10 | 2026-09-05 01:50:16 | 48.31936 | 14.21153 | 120° | 57km/h | 1150m | -2.3m/s | 19.2°C | 61.8% | 891.6hPa | 2.7V | 00:00:00 | 00:00:00 | 00:00:00 | |
| OE3JTB-15 | 2026-09-05 01:50:16 | 48.31936 | 14.21153 | 120° | 57km/h | 1150m | -2.3m/s | 19.2°C | 61.8% | 891.6hPa | 2.7V | 00:00:00 | 00:00:00 | 00:00:00 | |
| OE5HKT-10 | 2026-09-05 01:50:16 | 48.31936 | 14.21153 | 120° | 57km/h | 1150m | -2.3m/s | 19.2°C | 61.8% | 891.6hPa | 2.7V | 00:00:00 | 00:00:00 | 00:00:00 | |
| OE5WHR-10 | 2026-09-05 01:50:16 | 48.31936 | 14.21153 | 120° | 57km/h | 1150m | -2.3m/s | 19.2°C | 61.8% | 891.6hPa | 2.7V | 00:00:00 | 03:20:45 | 00:00:00 | |
| OE5WHR-10 | 2026-09-05 01:50:15 | 48.31943 | 14.21135 | 121° | 57km/h | 1153m | -2.6m/s | 19.2°C | 61.9% | 891.4hPa | 2.7V | 00:00:00 | 00:00:00 | 00:00:00 | |
| OE5DRO-10 | 2026-09-05 01:50:14 | 48.31951 | 14.21117 | 121° | 57km/h | 1155m | -2.6m/s | 19.1°C | 62.0% | 891.1hPa | 2.7V | 00:00:00 | 00:00:00 | 00:00:00 | |
| OE3JTB-15 | 2026-09-05 01:50:14 | 48.31951 | 14.21117 | 121° | 57km/h | 1155m | -2.6m/s | 19.1°C | 62.0% | 891.1hPa | 2.7V | 00:00:00 | 00:00:00 | 00:00:00 | |
| PG1ADW-2 | 2026-09-05 01:50:13 | 48.31958 | 14.21098 | 121° | 57km/h | 1158m | -2.5m/s | 19.1°C | 62.0% | 890.7hPa | 2.7V | 00:00:00 | 00:00:00 | 00:00:00 | |
| OE5HKT-10 | 2026-09-05 01:50:13 | 48.31958 | 14.21098 | 121° | 57km/h | 1158m | -2.5m/s | 19.1°C | 62.0% | 890.7hPa | 2.7V | 00:00:00 | 00:00:00 | 00:00:00 | |
| OE5WHR-10 | 2026-09-05 01:50:13 | 48.31958 | 14.21098 | 121° | 57km/h | 1158m | -2.5m/s | 19.1°C | 62.0% | 890.7hPa | 2.7V | 00:00:00 | 00:00:00 | 00:00:00 | |
| OE3JTB-15 | 2026-09-05 01:50:12 | 48.31965 | 14.21079 | 120° | 57km/h | 1161m | -2.5m/s | 19.1°C | 62.0% | 890.4hPa | 2.7V | 00:00:00 | 03:20:41 | 00:00:00 | |
| OE5DRO-10 | 2026-09-05 01:50:12 | 48.31965 | 14.21079 | 120° | 57km/h | 1161m | -2.5m/s | 19.1°C | 62.0% | 890.4hPa | 2.7V | 00:00:00 | 00:00:00 | 00:00:00 | |
| OE5WHR-10 | 2026-09-05 01:50:12 | 48.31965 | 14.21079 | 120° | 57km/h | 1161m | -2.5m/s | 19.1°C | 62.0% | 890.4hPa | 2.7V | 00:00:00 | 03:20:41 | 00:00:00 | |
| OE3JTB-15 | 2026-09-05 01:50:10 | 48.31979 | 14.21042 | 121° | 57km/h | 1166m | -2.5m/s | 19.0°C | 62.3% | 890.1hPa | 2.7V | 07:14:00 | 00:00:00 | 00:00:00 | |
| OE5DRO-10 | 2026-09-05 01:50:10 | 48.31979 | 14.21042 | 121° | 57km/h | 1166m | -2.5m/s | 19.0°C | 62.3% | 890.1hPa | 2.7V | 00:00:00 | 00:00:00 | 00:00:00 | |
| OE5HKT-10 | 2026-09-05 01:50:10 | 48.31979 | 14.21042 | 121° | 57km/h | 1166m | -2.5m/s | 19.0°C | 62.3% | 890.1hPa | 2.7V | 00:00:00 | 03:20:39 | 00:00:00 | |
| OE5WHR-10 | 2026-09-05 01:50:10 | 48.31979 | 14.21042 | 121° | 57km/h | 1166m | -2.5m/s | 19.0°C | 62.3% | 890.1hPa | 2.7V | 00:00:00 | 00:00:00 | 00:00:00 | |
| OE5WHR-10 | 2026-09-05 01:50:09 | 48.31987 | 14.21024 | 122° | 58km/h | 1168m | -2.5m/s | 19.0°C | 62.3% | 889.7hPa | 2.7V | 00:00:00 | 00:00:00 | 00:00:00 | |
| OE3JTB-15 | 2026-09-05 01:50:08 | 48.31994 | 14.21005 | 121° | 58km/h | 1170m | -2.3m/s | 19.0°C | 62.4% | 889.4hPa | 2.7V | 00:00:00 | 00:00:00 | 00:00:00 | |
| OE5DRO-10 | 2026-09-05 01:50:08 | 48.31994 | 14.21005 | 121° | 58km/h | 1170m | -2.3m/s | 19.0°C | 62.4% | 889.4hPa | 2.7V | 07:14:00 | 00:00:00 | 00:00:00 | |
| OE5WHR-10 | 2026-09-05 01:50:07 | 48.32002 | 14.20986 | 121° | 57km/h | 1173m | -2.3m/s | 19.0°C | 62.4% | 889.4hPa | 2.7V | 07:14:00 | 03:20:36 | 00:00:00 | |
| PG1ADW-2 | 2026-09-05 01:50:07 | 48.32002 | 14.20986 | 121° | 57km/h | 1173m | -2.3m/s | 19.0°C | 62.4% | 889.4hPa | 2.7V | 00:00:00 | 03:20:36 | 00:00:00 | |
| OE5FHM-15 | 2026-09-05 01:50:07 | 48.32002 | 14.20986 | 121° | 57km/h | 1173m | -2.3m/s | 19.0°C | 62.4% | 889.4hPa | 2.7V | 00:00:00 | 03:20:36 | 00:00:00 | |
| OE5HKT-10 | 2026-09-05 01:50:07 | 48.32002 | 14.20986 | 121° | 57km/h | 1173m | -2.3m/s | 19.0°C | 62.4% | 889.4hPa | 2.7V | 00:00:00 | 00:00:00 | 00:00:00 | |
| OE5DRO-10 | 2026-09-05 01:50:06 | 48.32009 | 14.20967 | 121° | 57km/h | 1175m | -2.4m/s | 18.9°C | 62.5% | 888.9hPa | 2.7V | 00:00:00 | 00:00:00 | 00:00:00 | |
| OE3JTB-15 | 2026-09-05 01:50:06 | 48.32009 | 14.20967 | 121° | 57km/h | 1175m | -2.4m/s | 18.9°C | 62.5% | 888.9hPa | 2.7V | 00:00:00 | 03:20:35 | 00:00:00 | |
| OE5WHR-10 | 2026-09-05 01:50:06 | 48.32009 | 14.20967 | 121° | 57km/h | 1175m | -2.4m/s | 18.9°C | 62.5% | 888.9hPa | 2.7V | 07:14:00 | 00:00:00 | 00:00:00 | |
| OE5DRO-10 | 2026-09-05 01:50:04 | 48.32024 | 14.20930 | 122° | 58km/h | 1180m | -2.5m/s | 18.9°C | 62.6% | 888.3hPa | 2.7V | 00:00:00 | 00:00:00 | 00:00:00 | |
| OE3JTB-15 | 2026-09-05 01:50:04 | 48.32024 | 14.20930 | 122° | 58km/h | 1180m | -2.5m/s | 18.9°C | 62.6% | 888.3hPa | 2.7V | 00:00:00 | 00:00:00 | 00:00:00 | |
| OE5WHR-10 | 2026-09-05 01:50:04 | 48.32024 | 14.20930 | 122° | 58km/h | 1180m | -2.5m/s | 18.9°C | 62.6% | 888.3hPa | 2.7V | 00:00:00 | 00:00:00 | 00:00:00 | |
| OE5HKT-10 | 2026-09-05 01:50:04 | 48.32024 | 14.20930 | 122° | 58km/h | 1180m | -2.5m/s | 18.9°C | 62.6% | 888.3hPa | 2.7V | 00:00:00 | 00:00:00 | 00:00:00 | |
| OE5WHR-10 | 2026-09-05 01:50:03 | 48.32031 | 14.20911 | 121° | 58km/h | 1183m | -2.6m/s | 18.9°C | 62.7% | 888.3hPa | 2.7V | 00:00:00 | 03:20:32 | 00:00:00 | |
| OE3JTB-15 | 2026-09-05 01:50:02 | 48.32039 | 14.20892 | 120° | 57km/h | 1185m | -2.5m/s | 18.9°C | 62.8% | 888.0hPa | 2.7V | 00:00:00 | 00:00:00 | 00:00:00 | |
| OE5DRO-10 | 2026-09-05 01:50:02 | 48.32039 | 14.20892 | 120° | 57km/h | 1185m | -2.5m/s | 18.9°C | 62.8% | 888.0hPa | 2.7V | 00:00:00 | 00:00:00 | 00:00:00 | |
| PG1ADW-2 | 2026-09-05 01:50:01 | 48.32046 | 14.20873 | 120° | 57km/h | 1188m | -2.3m/s | 18.8°C | 62.9% | 887.6hPa | 2.7V | 00:00:00 | 00:00:00 | 00:00:00 | |
| OE5WHR-10 | 2026-09-05 01:50:01 | 48.32046 | 14.20873 | 120° | 57km/h | 1188m | -2.3m/s | 18.8°C | 62.9% | 887.6hPa | 2.7V | 00:00:00 | 00:00:00 | 00:00:00 | |
| OE5HKT-10 | 2026-09-05 01:50:01 | 48.32046 | 14.20873 | 120° | 57km/h | 1188m | -2.3m/s | 18.8°C | 62.9% | 887.6hPa | 2.7V | 00:00:00 | 03:20:30 | 00:00:00 | |
| OE5DRO-10 | 2026-09-05 01:49:58 | 48.32068 | 14.20817 | 120° | 57km/h | 1195m | -2.5m/s | 18.8°C | 63.1% | 886.9hPa | 2.7V | 00:00:00 | 00:00:00 | 00:00:00 | |
| OE3JTB-15 | 2026-09-05 01:49:58 | 48.32068 | 14.20817 | 120° | 57km/h | 1195m | -2.5m/s | 18.8°C | 63.1% | 886.9hPa | 2.7V | 00:00:00 | 00:00:00 | 00:00:00 | |
| OE5WHR-10 | 2026-09-05 01:49:58 | 48.32068 | 14.20817 | 120° | 57km/h | 1195m | -2.5m/s | 18.8°C | 63.1% | 886.9hPa | 2.7V | 00:00:00 | 03:20:27 | 00:00:00 | |
| OE5HKT-10 | 2026-09-05 01:49:58 | 48.32068 | 14.20817 | 120° | 57km/h | 1195m | -2.5m/s | 18.8°C | 63.1% | 886.9hPa | 2.7V | 07:14:00 | 00:00:00 | 00:00:00 | |
| OE5WHR-10 | 2026-09-05 01:49:57 | 48.32075 | 14.20798 | 120° | 55km/h | 1198m | -2.4m/s | 18.8°C | 63.2% | 886.6hPa | 2.7V | 00:00:00 | 00:00:00 | 00:00:00 | |
| OE5FHM-15 | 2026-09-05 01:49:57 | 48.32075 | 14.20798 | 120° | 55km/h | 1198m | -2.4m/s | 18.8°C | 63.2% | 886.6hPa | 2.7V | 07:14:00 | 03:20:26 | 00:00:00 | |
| OE5DRO-10 | 2026-09-05 01:49:56 | 48.32082 | 14.20780 | 122° | 55km/h | 1200m | -2.4m/s | 18.7°C | 63.2% | 886.5hPa | 2.7V | 00:00:00 | 00:00:00 | 00:00:00 | |
| OE3JTB-15 | 2026-09-05 01:49:56 | 48.32082 | 14.20780 | 122° | 55km/h | 1200m | -2.4m/s | 18.7°C | 63.2% | 886.5hPa | 2.7V | 00:00:00 | 00:00:00 | 00:00:00 | |
| PG1ADW-2 | 2026-09-05 01:49:55 | 48.32089 | 14.20762 | 122° | 55km/h | 1203m | -2.4m/s | 18.7°C | 63.3% | 886.2hPa | 2.7V | 07:14:00 | 00:00:00 | 00:00:00 | |
| OE5HKT-10 | 2026-09-05 01:49:55 | 48.32089 | 14.20762 | 122° | 55km/h | 1203m | -2.4m/s | 18.7°C | 63.3% | 886.2hPa | 2.7V | 00:00:00 | 00:00:00 | 00:00:00 | |
| OE5WHR-10 | 2026-09-05 01:49:55 | 48.32089 | 14.20762 | 122° | 55km/h | 1203m | -2.4m/s | 18.7°C | 63.3% | 886.2hPa | 2.7V | 00:00:00 | 00:00:00 | 00:00:00 | |
| OE5DRO-10 | 2026-09-05 01:49:54 | 48.32097 | 14.20744 | 121° | 55km/h | 1205m | -2.5m/s | 18.7°C | 63.3% | 885.9hPa | 2.7V | 00:00:00 | 00:00:00 | 00:00:00 | |
| OE5WHR-10 | 2026-09-05 01:49:54 | 48.32097 | 14.20744 | 121° | 55km/h | 1205m | -2.5m/s | 18.7°C | 63.3% | 885.9hPa | 2.7V | 00:00:00 | 03:20:23 | 00:00:00 | |
| OE3JTB-15 | 2026-09-05 01:49:54 | 48.32097 | 14.20744 | 121° | 55km/h | 1205m | -2.5m/s | 18.7°C | 63.3% | 885.9hPa | 2.7V | 07:14:00 | 03:20:23 | 00:00:00 | |
| OE5DRO-10 | 2026-09-05 01:49:52 | 48.32110 | 14.20708 | 121° | 55km/h | 1210m | -2.4m/s | 18.7°C | 63.4% | 885.5hPa | 2.7V | 07:14:00 | 00:00:00 | 00:00:00 | |
| OE3JTB-15 | 2026-09-05 01:49:52 | 48.32110 | 14.20708 | 121° | 55km/h | 1210m | -2.4m/s | 18.7°C | 63.4% | 885.5hPa | 2.7V | 00:00:00 | 00:00:00 | 00:00:00 | |
| OE5WHR-10 | 2026-09-05 01:49:52 | 48.32110 | 14.20708 | 121° | 55km/h | 1210m | -2.4m/s | 18.7°C | 63.4% | 885.5hPa | 2.7V | 00:00:00 | 00:00:00 | 00:00:00 | |
| OE5HKT-10 | 2026-09-05 01:49:52 | 48.32110 | 14.20708 | 121° | 55km/h | 1210m | -2.4m/s | 18.7°C | 63.4% | 885.5hPa | 2.7V | 00:00:00 | 03:20:21 | 00:00:00 | |
| OE5WHR-10 | 2026-09-05 01:49:51 | 48.32118 | 14.20690 | 122° | 55km/h | 1213m | -2.4m/s | 18.6°C | 63.5% | 885.1hPa | 2.7V | 00:00:00 | 00:00:00 | 00:00:00 | |
| OE5DRO-10 | 2026-09-05 01:49:50 | 48.32125 | 14.20672 | 122° | 55km/h | 1215m | -2.5m/s | 18.6°C | 63.6% | 884.9hPa | 2.7V | 00:00:00 | 00:00:00 | 00:00:00 | |
| OE3JTB-15 | 2026-09-05 01:49:50 | 48.32125 | 14.20672 | 122° | 55km/h | 1215m | -2.5m/s | 18.6°C | 63.6% | 884.9hPa | 2.7V | 00:00:00 | 00:00:00 | 00:00:00 | |
| PG1ADW-2 | 2026-09-05 01:49:49 | 48.32132 | 14.20654 | 121° | 55km/h | 1218m | -2.2m/s | 18.6°C | 63.7% | 884.7hPa | 2.7V | 00:00:00 | 00:00:00 | 00:00:00 | |
| OE5WHR-10 | 2026-09-05 01:49:49 | 48.32132 | 14.20654 | 121° | 55km/h | 1218m | -2.2m/s | 18.6°C | 63.7% | 884.7hPa | 2.7V | 00:00:00 | 03:20:18 | 00:00:00 | |
| OE5HKT-10 | 2026-09-05 01:49:49 | 48.32132 | 14.20654 | 121° | 55km/h | 1218m | -2.2m/s | 18.6°C | 63.7% | 884.7hPa | 2.7V | 00:00:00 | 00:00:00 | 00:00:00 | |
| OE5DRO-10 | 2026-09-05 01:49:48 | 48.32139 | 14.20636 | 121° | 55km/h | 1220m | -2.4m/s | 18.6°C | 63.7% | 884.6hPa | 2.7V | 00:00:00 | 00:00:00 | 00:00:00 | |
| OE3JTB-15 | 2026-09-05 01:49:48 | 48.32139 | 14.20636 | 121° | 55km/h | 1220m | -2.4m/s | 18.6°C | 63.7% | 884.6hPa | 2.7V | 00:00:00 | 03:20:17 | 00:00:00 | |
| OE5WHR-10 | 2026-09-05 01:49:48 | 48.32139 | 14.20636 | 121° | 55km/h | 1220m | -2.4m/s | 18.6°C | 63.7% | 884.6hPa | 2.7V | 00:00:00 | 00:00:00 | 00:00:00 | |
| OE5FHM-15 | 2026-09-05 01:49:47 | 48.32146 | 14.20619 | 122° | 57km/h | 1223m | -2.5m/s | 18.6°C | 63.8% | 884.3hPa | 2.7V | 00:00:00 | 03:20:16 | 00:00:00 | |
| OE5DRO-10 | 2026-09-05 01:49:46 | 48.32153 | 14.20601 | 123° | 55km/h | 1225m | -2.4m/s | 18.5°C | 63.9% | 884.0hPa | 2.7V | 00:00:00 | 00:00:00 | 00:00:00 | |
| OE3JTB-15 | 2026-09-05 01:49:46 | 48.32153 | 14.20601 | 123° | 55km/h | 1225m | -2.4m/s | 18.5°C | 63.9% | 884.0hPa | 2.7V | 00:00:00 | 00:00:00 | 00:00:00 | |
| OE5HKT-10 | 2026-09-05 01:49:46 | 48.32153 | 14.20601 | 123° | 55km/h | 1225m | -2.4m/s | 18.5°C | 63.9% | 884.0hPa | 2.7V | 00:00:00 | 00:00:00 | 00:00:00 | |
| OE5WHR-10 | 2026-09-05 01:49:46 | 48.32153 | 14.20601 | 123° | 55km/h | 1225m | -2.4m/s | 18.5°C | 63.9% | 884.0hPa | 2.7V | 00:00:00 | 00:00:00 | 00:00:00 | |
| OE5WHR-10 | 2026-09-05 01:49:45 | 48.32161 | 14.20583 | 122° | 57km/h | 1228m | -2.4m/s | 18.5°C | 63.9% | 883.8hPa | 2.7V | 00:00:00 | 03:20:14 | 00:00:00 | |
| OE3JTB-15 | 2026-09-05 01:49:44 | 48.32168 | 14.20565 | 121° | 57km/h | 1230m | -2.3m/s | 18.5°C | 64.0% | 883.4hPa | 2.7V | 00:00:00 | 00:00:00 | 00:00:00 | |
| OE5DRO-10 | 2026-09-05 01:49:44 | 48.32168 | 14.20565 | 121° | 57km/h | 1230m | -2.3m/s | 18.5°C | 64.0% | 883.4hPa | 2.7V | 00:00:00 | 00:00:00 | 00:00:00 | |
| OE5WHR-10 | 2026-09-05 01:49:43 | 48.32175 | 14.20547 | 120° | 57km/h | 1232m | -2.5m/s | 18.5°C | 64.0% | 883.2hPa | 2.7V | 07:14:00 | 00:00:00 | 00:00:00 | |
| PG1ADW-2 | 2026-09-05 01:49:43 | 48.32175 | 14.20547 | 120° | 57km/h | 1232m | -2.5m/s | 18.5°C | 64.0% | 883.2hPa | 2.7V | 00:00:00 | 03:20:12 | 00:00:00 | |
| OE5HKT-10 | 2026-09-05 01:49:43 | 48.32175 | 14.20547 | 120° | 57km/h | 1232m | -2.5m/s | 18.5°C | 64.0% | 883.2hPa | 2.7V | 00:00:00 | 03:20:12 | 00:00:00 | |
| OE5DRO-10 | 2026-09-05 01:49:42 | 48.32182 | 14.20528 | 121° | 57km/h | 1235m | -2.4m/s | 18.5°C | 64.0% | 882.8hPa | 2.7V | 00:00:00 | 00:00:00 | 00:00:00 | |
| OE3JTB-15 | 2026-09-05 01:49:42 | 48.32182 | 14.20528 | 121° | 57km/h | 1235m | -2.4m/s | 18.5°C | 64.0% | 882.8hPa | 2.7V | 00:00:00 | 03:20:11 | 00:00:00 | |
| OE5WHR-10 | 2026-09-05 01:49:42 | 48.32182 | 14.20528 | 121° | 57km/h | 1235m | -2.4m/s | 18.5°C | 64.0% | 882.8hPa | 2.7V | 07:14:00 | 00:00:00 | 00:00:00 | |
| OE5DRO-10 | 2026-09-05 01:49:40 | 48.32197 | 14.20491 | 120° | 57km/h | 1240m | -2.3m/s | 18.4°C | 64.2% | 882.5hPa | 2.7V | 00:00:00 | 00:00:00 | 00:00:00 | |
| OE5WHR-10 | 2026-09-05 01:49:40 | 48.32197 | 14.20491 | 120° | 57km/h | 1240m | -2.3m/s | 18.4°C | 64.2% | 882.5hPa | 2.7V | 00:00:00 | 03:20:09 | 00:00:00 | |
| OE5HKT-10 | 2026-09-05 01:49:40 | 48.32197 | 14.20491 | 120° | 57km/h | 1240m | -2.3m/s | 18.4°C | 64.2% | 882.5hPa | 2.7V | 00:00:00 | 00:00:00 | 00:00:00 | |
| OE3JTB-15 | 2026-09-05 01:49:40 | 48.32197 | 14.20491 | 120° | 57km/h | 1240m | -2.3m/s | 18.4°C | 64.2% | 882.5hPa | 2.7V | 00:00:00 | 00:00:00 | 00:00:00 | |
| OE5WHR-10 | 2026-09-05 01:49:39 | 48.32204 | 14.20473 | 120° | 55km/h | 1242m | -2.4m/s | 18.4°C | 64.3% | 882.3hPa | 2.7V | 00:00:00 | 00:00:00 | 00:00:00 | |
| PG1ADW-2 | 2026-09-05 01:49:37 | 48.32218 | 14.20437 | 122° | 55km/h | 1247m | -2.3m/s | 18.3°C | 64.5% | 881.7hPa | 2.7V | 00:00:00 | 00:00:00 | 00:00:00 | |
| OE5HKT-10 | 2026-09-05 01:49:37 | 48.32218 | 14.20437 | 122° | 55km/h | 1247m | -2.3m/s | 18.3°C | 64.5% | 881.7hPa | 2.7V | 00:00:00 | 00:00:00 | 00:00:00 | |
| OE5WHR-10 | 2026-09-05 01:49:37 | 48.32218 | 14.20437 | 122° | 55km/h | 1247m | -2.3m/s | 18.3°C | 64.5% | 881.7hPa | 2.7V | 00:00:00 | 00:00:00 | 00:00:00 | |
| OE5FHM-15 | 2026-09-05 01:49:37 | 48.32218 | 14.20437 | 122° | 55km/h | 1247m | -2.3m/s | 18.3°C | 64.5% | 881.7hPa | 2.7V | 00:00:00 | 03:20:06 | 00:00:00 | |
| OE3JTB-15 | 2026-09-05 01:49:36 | 48.32225 | 14.20419 | 122° | 55km/h | 1250m | -2.5m/s | 18.3°C | 64.5% | 881.4hPa | 2.7V | 00:00:00 | 03:20:05 | 00:00:00 | |
| OE5DRO-10 | 2026-09-05 01:49:36 | 48.32225 | 14.20419 | 122° | 55km/h | 1250m | -2.5m/s | 18.3°C | 64.5% | 881.4hPa | 2.7V | 07:14:00 | 00:00:00 | 00:00:00 | |
| OE5WHR-10 | 2026-09-05 01:49:36 | 48.32225 | 14.20419 | 122° | 55km/h | 1250m | -2.5m/s | 18.3°C | 64.5% | 881.4hPa | 2.7V | 00:00:00 | 03:20:05 | 00:00:00 | |
| OE5DRO-10 | 2026-09-05 01:49:34 | 48.32240 | 14.20383 | 121° | 55km/h | 1255m | -2.2m/s | 18.3°C | 64.7% | 880.9hPa | 2.7V | 00:00:00 | 00:00:00 | 00:00:00 | |
| OE3JTB-15 | 2026-09-05 01:49:34 | 48.32240 | 14.20383 | 121° | 55km/h | 1255m | -2.2m/s | 18.3°C | 64.7% | 880.9hPa | 2.7V | 00:00:00 | 00:00:00 | 00:00:00 | |
| OE5HKT-10 | 2026-09-05 01:49:34 | 48.32240 | 14.20383 | 121° | 55km/h | 1255m | -2.2m/s | 18.3°C | 64.7% | 880.9hPa | 2.7V | 07:14:00 | 03:20:03 | 00:00:00 | |
| OE5WHR-10 | 2026-09-05 01:49:34 | 48.32240 | 14.20383 | 121° | 55km/h | 1255m | -2.2m/s | 18.3°C | 64.7% | 880.9hPa | 2.7V | 00:00:00 | 00:00:00 | 00:00:00 | |
| OE5WHR-10 | 2026-09-05 01:49:33 | 48.32247 | 14.20366 | 122° | 55km/h | 1257m | -2.4m/s | 18.3°C | 64.6% | 880.6hPa | 2.7V | 00:00:00 | 00:00:00 | 00:00:00 | |
| OE5DRO-10 | 2026-09-05 01:49:32 | 48.32254 | 14.20348 | 122° | 55km/h | 1259m | -2.4m/s | 18.2°C | 64.8% | 880.2hPa | 2.7V | 00:00:00 | 00:00:00 | 00:00:00 | |
| OE3JTB-15 | 2026-09-05 01:49:32 | 48.32254 | 14.20348 | 122° | 55km/h | 1259m | -2.4m/s | 18.2°C | 64.8% | 880.2hPa | 2.7V | 00:00:00 | 00:00:00 | 00:00:00 | |
| PG1ADW-2 | 2026-09-05 01:49:31 | 48.32261 | 14.20330 | 122° | 53km/h | 1262m | -2.5m/s | 18.2°C | 64.9% | 880.1hPa | 2.7V | 00:00:00 | 00:00:00 | 00:00:00 | |
| OE5HKT-10 | 2026-09-05 01:49:31 | 48.32261 | 14.20330 | 122° | 53km/h | 1262m | -2.5m/s | 18.2°C | 64.9% | 880.1hPa | 2.7V | 00:00:00 | 00:00:00 | 00:00:00 | |
| OE5WHR-10 | 2026-09-05 01:49:31 | 48.32261 | 14.20330 | 122° | 53km/h | 1262m | -2.5m/s | 18.2°C | 64.9% | 880.1hPa | 2.7V | 00:00:00 | 03:20:00 | 00:00:00 | |
| OE5DRO-10 | 2026-09-05 01:49:30 | 48.32268 | 14.20313 | 120° | 53km/h | 1264m | -2.4m/s | 18.2°C | 64.9% | 879.9hPa | 2.7V | 00:00:00 | 00:00:00 | 00:00:00 | |
| OE3JTB-15 | 2026-09-05 01:49:30 | 48.32268 | 14.20313 | 120° | 53km/h | 1264m | -2.4m/s | 18.2°C | 64.9% | 879.9hPa | 2.7V | 00:00:00 | 03:19:59 | 00:00:00 | |
| OE5WHR-10 | 2026-09-05 01:49:30 | 48.32268 | 14.20313 | 120° | 53km/h | 1264m | -2.4m/s | 18.2°C | 64.9% | 879.9hPa | 2.7V | 00:00:00 | 00:00:00 | 00:00:00 | |
| OE5DRO-10 | 2026-09-05 01:49:28 | 48.32281 | 14.20278 | 121° | 53km/h | 1269m | -2.3m/s | 18.2°C | 65.0% | 879.5hPa | 2.7V | 00:00:00 | 00:00:00 | 00:00:00 | |
| OE3JTB-15 | 2026-09-05 01:49:28 | 48.32281 | 14.20278 | 121° | 53km/h | 1269m | -2.3m/s | 18.2°C | 65.0% | 879.5hPa | 2.7V | 00:00:00 | 00:00:00 | 00:00:00 | |
| OE5HKT-10 | 2026-09-05 01:49:28 | 48.32281 | 14.20278 | 121° | 53km/h | 1269m | -2.3m/s | 18.2°C | 65.0% | 879.5hPa | 2.7V | 00:00:00 | 00:00:00 | 00:00:00 | |
| OE5WHR-10 | 2026-09-05 01:49:28 | 48.32281 | 14.20278 | 121° | 53km/h | 1269m | -2.3m/s | 18.2°C | 65.0% | 879.5hPa | 2.7V | 00:00:00 | 00:00:00 | 00:00:00 | |
| OE5WHR-10 | 2026-09-05 01:49:27 | 48.32288 | 14.20260 | 121° | 53km/h | 1272m | -2.3m/s | 18.1°C | 65.1% | 879.2hPa | 2.7V | 00:00:00 | 03:19:56 | 00:00:00 | |
| OE5FHM-15 | 2026-09-05 01:49:27 | 48.32288 | 14.20260 | 121° | 53km/h | 1272m | -2.3m/s | 18.1°C | 65.1% | 879.2hPa | 2.7V | 00:00:00 | 03:19:56 | 00:00:00 | |
| OE5DRO-10 | 2026-09-05 01:49:26 | 48.32295 | 14.20242 | 120° | 53km/h | 1274m | -2.4m/s | 18.1°C | 65.1% | 878.9hPa | 2.7V | 00:00:00 | 00:00:00 | 00:00:00 | |
| OE3JTB-15 | 2026-09-05 01:49:26 | 48.32295 | 14.20242 | 120° | 53km/h | 1274m | -2.4m/s | 18.1°C | 65.1% | 878.9hPa | 2.7V | 00:00:00 | 00:00:00 | 00:00:00 | |
| PG1ADW-2 | 2026-09-05 01:49:25 | 48.32301 | 14.20225 | 120° | 53km/h | 1277m | -2.5m/s | 18.1°C | 65.2% | 878.5hPa | 2.7V | 00:00:00 | 00:00:00 | 00:00:00 | |
| OE5HKT-10 | 2026-09-05 01:49:25 | 48.32301 | 14.20225 | 120° | 53km/h | 1277m | -2.5m/s | 18.1°C | 65.2% | 878.5hPa | 2.7V | 00:00:00 | 03:19:54 | 00:00:00 | |
| OE5WHR-10 | 2026-09-05 01:49:25 | 48.32301 | 14.20225 | 120° | 53km/h | 1277m | -2.5m/s | 18.1°C | 65.2% | 878.5hPa | 2.7V | 00:00:00 | 00:00:00 | 00:00:00 | |
| OE5DRO-10 | 2026-09-05 01:49:24 | 48.32308 | 14.20208 | 121° | 53km/h | 1279m | -2.3m/s | 18.1°C | 65.3% | 878.3hPa | 2.7V | 00:00:00 | 00:00:00 | 00:00:00 | |
| OE3JTB-15 | 2026-09-05 01:49:24 | 48.32308 | 14.20208 | 121° | 53km/h | 1279m | -2.3m/s | 18.1°C | 65.3% | 878.3hPa | 2.7V | 00:00:00 | 03:19:53 | 00:00:00 | |
| OE5WHR-10 | 2026-09-05 01:49:24 | 48.32308 | 14.20208 | 121° | 53km/h | 1279m | -2.3m/s | 18.1°C | 65.3% | 878.3hPa | 2.7V | 00:00:00 | 00:00:00 | 00:00:00 | |
| OE3JTB-15 | 2026-09-05 01:49:22 | 48.32322 | 14.20173 | 122° | 55km/h | 1284m | -2.4m/s | 18.0°C | 65.5% | 877.9hPa | 2.7V | 07:15:00 | 00:00:00 | 00:00:00 | |
| OE5DRO-10 | 2026-09-05 01:49:22 | 48.32322 | 14.20173 | 122° | 55km/h | 1284m | -2.4m/s | 18.0°C | 65.5% | 877.9hPa | 2.7V | 00:00:00 | 00:00:00 | 00:00:00 | |
| OE5WHR-10 | 2026-09-05 01:49:22 | 48.32322 | 14.20173 | 122° | 55km/h | 1284m | -2.4m/s | 18.0°C | 65.5% | 877.9hPa | 2.7V | 00:00:00 | 03:19:51 | 00:00:00 | |
| OE5HKT-10 | 2026-09-05 01:49:22 | 48.32322 | 14.20173 | 122° | 55km/h | 1284m | -2.4m/s | 18.0°C | 65.5% | 877.9hPa | 2.7V | 00:00:00 | 00:00:00 | 00:00:00 | |
| OE5WHR-10 | 2026-09-05 01:49:21 | 48.32329 | 14.20155 | 121° | 53km/h | 1287m | -2.4m/s | 18.0°C | 65.5% | 877.7hPa | 2.7V | 00:00:00 | 00:00:00 | 00:00:00 | |
| OE5DRO-10 | 2026-09-05 01:49:20 | 48.32336 | 14.20138 | 120° | 53km/h | 1289m | -2.6m/s | 18.0°C | 65.6% | 877.1hPa | 2.7V | 07:15:00 | 00:00:00 | 00:00:00 | |
| OE3JTB-15 | 2026-09-05 01:49:20 | 48.32336 | 14.20138 | 120° | 53km/h | 1289m | -2.6m/s | 18.0°C | 65.6% | 877.1hPa | 2.7V | 00:00:00 | 00:00:00 | 00:00:00 | |
| PG1ADW-2 | 2026-09-05 01:49:19 | 48.32343 | 14.20120 | 121° | 53km/h | 1292m | -2.5m/s | 17.9°C | 65.8% | 877.0hPa | 2.7V | 00:00:00 | 03:19:48 | 00:00:00 | |
| OE5WHR-10 | 2026-09-05 01:49:19 | 48.32343 | 14.20120 | 121° | 53km/h | 1292m | -2.5m/s | 17.9°C | 65.8% | 877.0hPa | 2.7V | 07:15:00 | 00:00:00 | 00:00:00 | |
| OE5HKT-10 | 2026-09-05 01:49:19 | 48.32343 | 14.20120 | 121° | 53km/h | 1292m | -2.5m/s | 17.9°C | 65.8% | 877.0hPa | 2.7V | 00:00:00 | 00:00:00 | 00:00:00 | |
| OE5DRO-10 | 2026-09-05 01:49:18 | 48.32350 | 14.20103 | 122° | 55km/h | 1294m | -2.4m/s | 17.9°C | 65.9% | 876.8hPa | 2.7V | 00:00:00 | 00:00:00 | 00:00:00 | |
| OE3JTB-15 | 2026-09-05 01:49:18 | 48.32350 | 14.20103 | 122° | 53km/h | 1294m | -2.4m/s | 17.9°C | 65.9% | 876.8hPa | 2.7V | 00:00:00 | 03:19:47 | 00:00:00 | |
| OE5WHR-10 | 2026-09-05 01:49:18 | 48.32350 | 14.20103 | 122° | 55km/h | 1294m | -2.4m/s | 17.9°C | 65.9% | 876.8hPa | 2.7V | 07:15:00 | 03:19:47 | 00:00:00 | |
| OE5HKT-10 | 2026-09-05 01:49:16 | 48.32364 | 14.20068 | 121° | 53km/h | 1299m | -2.4m/s | 17.9°C | 65.9% | 876.5hPa | 2.7V | 00:00:00 | 03:19:45 | 00:00:00 | |
| OE3JTB-15 | 2026-09-05 01:49:16 | 48.32364 | 14.20068 | 121° | 55km/h | 1299m | -2.4m/s | 17.9°C | 65.9% | 876.5hPa | 2.7V | 00:00:00 | 00:00:00 | 00:00:00 | |
| OE5WHR-10 | 2026-09-05 01:49:16 | 48.32364 | 14.20068 | 121° | 53km/h | 1299m | -2.4m/s | 17.9°C | 65.9% | 876.5hPa | 2.7V | 00:00:00 | 00:00:00 | 00:00:00 | |
| OE5WHR-10 | 2026-09-05 01:49:15 | 48.32371 | 14.20050 | 121° | 53km/h | 1302m | -2.4m/s | 17.8°C | 66.0% | 876.1hPa | 2.7V | 00:00:00 | 00:00:00 | 00:00:00 | |
| OE5FHM-15 | 2026-09-05 01:49:15 | 48.32371 | 14.20050 | 121° | 53km/h | 1302m | -2.4m/s | 17.8°C | 66.0% | 876.1hPa | 2.7V | 00:00:00 | 03:19:44 | 00:00:00 | |
| OE3JTB-15 | 2026-09-05 01:49:14 | 48.32378 | 14.20032 | 122° | 53km/h | 1304m | -2.4m/s | 17.8°C | 66.0% | 875.7hPa | 2.7V | 00:00:00 | 00:00:00 | 00:00:00 | |
| OE5DRO-10 | 2026-09-05 01:49:14 | 48.32378 | 14.20032 | 122° | 53km/h | 1304m | -2.4m/s | 17.8°C | 66.0% | 875.7hPa | 2.7V | 00:00:00 | 00:00:00 | 00:00:00 | |
| PG1ADW-2 | 2026-09-05 01:49:13 | 48.32385 | 14.20016 | 123° | 53km/h | 1307m | -2.5m/s | 17.8°C | 66.1% | 875.5hPa | 2.7V | 00:00:00 | 00:00:00 | 00:00:00 | |
| OE3JTB-15 | 2026-09-05 01:49:12 | 48.32392 | 14.19999 | 123° | 53km/h | 1309m | -2.5m/s | 17.8°C | 66.2% | 875.1hPa | 2.7V | 00:00:00 | 03:19:41 | 00:00:00 | |
| OE3JTB-15 | 2026-09-05 01:49:10 | 48.32406 | 14.19964 | 121° | 51km/h | 1314m | -2.3m/s | 17.7°C | 66.3% | 874.7hPa | 2.7V | 00:00:00 | 00:00:00 | 00:00:00 | |
| OE5HKT-10 | 2026-09-05 01:49:10 | 48.32406 | 14.19964 | 121° | 53km/h | 1314m | -2.3m/s | 17.7°C | 66.3% | 874.7hPa | 2.7V | 00:00:00 | 00:00:00 | 00:00:00 | |
| OE5WHR-10 | 2026-09-05 01:49:10 | 48.32406 | 14.19964 | 121° | 53km/h | 1314m | -2.3m/s | 17.7°C | 66.3% | 874.7hPa | 2.7V | 00:00:00 | 03:19:39 | 00:00:00 | |
| OE5WHR-10 | 2026-09-05 01:49:09 | 48.32413 | 14.19947 | 121° | 51km/h | 1317m | -2.4m/s | 17.7°C | 66.4% | 874.5hPa | 2.7V | 00:00:00 | 00:00:00 | 00:00:00 | |
| OE3JTB-15 | 2026-09-05 01:49:08 | 48.32420 | 14.19930 | 122° | 53km/h | 1319m | -2.5m/s | 17.7°C | 66.5% | 874.3hPa | 2.7V | 00:00:00 | 00:00:00 | 00:00:00 | |
| PG1ADW-2 | 2026-09-05 01:49:07 | 48.32427 | 14.19914 | 122° | 53km/h | 1322m | -2.4m/s | 17.7°C | 66.6% | 873.9hPa | 2.7V | 07:15:00 | 00:00:00 | 00:00:00 | |
| OE5DRO-10 | 2026-09-05 01:49:07 | 48.32427 | 14.19914 | 122° | 53km/h | 1322m | -2.4m/s | 17.7°C | 66.6% | 873.9hPa | 2.7V | 00:00:00 | 00:00:00 | 00:00:00 | |
| OE3JTB-15 | 2026-09-05 01:49:06 | 48.32434 | 14.19896 | 121° | 53km/h | 1324m | -2.4m/s | 17.6°C | 66.6% | 873.7hPa | 2.7V | 07:15:00 | 03:19:35 | 00:00:00 | |
| OE3JTB-15 | 2026-09-05 01:49:04 | 48.32447 | 14.19862 | 120° | 51km/h | 1329m | -2.4m/s | 17.6°C | 66.8% | 873.3hPa | 2.7V | 00:00:00 | 00:00:00 | 00:00:00 | |
| OE5FHM-15 | 2026-09-05 01:49:04 | 48.32447 | 14.19862 | 120° | 53km/h | 1329m | -2.4m/s | 17.6°C | 66.8% | 873.3hPa | 2.7V | 00:00:00 | 03:19:33 | 00:00:00 | |
| OE5HKT-10 | 2026-09-05 01:49:04 | 48.32447 | 14.19862 | 120° | 53km/h | 1329m | -2.4m/s | 17.6°C | 66.8% | 873.3hPa | 2.7V | 07:15:00 | 00:00:00 | 00:00:00 | |
| OE5WHR-10 | 2026-09-05 01:49:04 | 48.32447 | 14.19862 | 120° | 53km/h | 1329m | -2.4m/s | 17.6°C | 66.8% | 873.3hPa | 2.7V | 00:00:00 | 00:00:00 | 00:00:00 | |
| OE5WHR-10 | 2026-09-05 01:49:03 | 48.32453 | 14.19845 | 121° | 53km/h | 1332m | -2.4m/s | 17.6°C | 66.9% | 872.9hPa | 2.7V | 00:00:00 | 03:19:32 | 00:00:00 | |
| OE3JTB-15 | 2026-09-05 01:49:02 | 48.32460 | 14.19828 | 121° | 53km/h | 1334m | -2.4m/s | 17.6°C | 66.9% | 872.8hPa | 2.7V | 00:00:00 | 00:00:00 | 00:00:00 | |
| PG1ADW-2 | 2026-09-05 01:49:01 | 48.32467 | 14.19810 | 120° | 53km/h | 1337m | -2.6m/s | 17.5°C | 67.0% | 872.4hPa | 2.7V | 00:00:00 | 00:00:00 | 00:00:00 | |
| OE5DRO-10 | 2026-09-05 01:49:00 | 48.32473 | 14.19793 | 121° | 53km/h | 1339m | -2.6m/s | 17.5°C | 67.1% | 872.2hPa | 2.7V | 00:00:00 | 00:00:00 | 00:00:00 | |
| OE3JTB-15 | 2026-09-05 01:49:00 | 48.32473 | 14.19793 | 121° | 53km/h | 1339m | -2.6m/s | 17.5°C | 67.1% | 872.2hPa | 2.7V | 00:00:00 | 03:19:29 | 00:00:00 | |
| OE5DXL-15 | 2026-09-05 01:49:00 | 48.32473 | 14.19793 | 121° | 53km/h | 1339m | -2.6m/s | 17.5°C | 67.1% | 872.2hPa | 2.7V | 00:00:00 | 00:00:00 | 00:00:00 | |
| OE3JTB-15 | 2026-09-05 01:48:58 | 48.32488 | 14.19759 | 124° | 53km/h | 1344m | -2.7m/s | 17.5°C | 67.2% | 871.7hPa | 2.7V | 00:00:00 | 00:00:00 | 00:00:00 | |
| OE5HKT-10 | 2026-09-05 01:48:58 | 48.32488 | 14.19759 | 124° | 53km/h | 1344m | -2.7m/s | 17.5°C | 67.2% | 871.7hPa | 2.7V | 00:00:00 | 03:19:27 | 00:00:00 | |
| OE5WHR-10 | 2026-09-05 01:48:58 | 48.32488 | 14.19759 | 124° | 53km/h | 1344m | -2.7m/s | 17.5°C | 67.2% | 871.7hPa | 2.7V | 00:00:00 | 00:00:00 | 00:00:00 | |
| OE5WHR-10 | 2026-09-05 01:48:57 | 48.32495 | 14.19742 | 123° | 53km/h | 1347m | -2.5m/s | 17.5°C | 67.2% | 871.6hPa | 2.7V | 00:00:00 | 00:00:00 | 00:00:00 | |
| OE3JTB-15 | 2026-09-05 01:48:56 | 48.32502 | 14.19725 | 122° | 53km/h | 1350m | -2.4m/s | 17.4°C | 67.3% | 871.2hPa | 2.7V | 00:00:00 | 00:00:00 | 00:00:00 | |
| PG1ADW-2 | 2026-09-05 01:48:55 | 48.32509 | 14.19708 | 122° | 53km/h | 1352m | -2.4m/s | 17.4°C | 67.4% | 871.0hPa | 2.7V | 00:00:00 | 03:19:24 | 00:00:00 | |
| OE3JTB-15 | 2026-09-05 01:48:54 | 48.32516 | 14.19692 | 123° | 53km/h | 1355m | -2.6m/s | 17.4°C | 67.5% | 870.4hPa | 2.7V | 00:00:00 | 03:19:23 | 00:00:00 | |
| OE5FHM-15 | 2026-09-05 01:48:54 | 48.32516 | 14.19692 | 123° | 53km/h | 1355m | -2.6m/s | 17.4°C | 67.5% | 870.4hPa | 2.7V | 00:00:00 | 03:19:23 | 00:00:00 | |
| OE5DRO-10 | 2026-09-05 01:48:53 | 48.32523 | 14.19675 | 123° | 53km/h | 1357m | -2.4m/s | 17.4°C | 67.6% | 870.6hPa | 2.7V | 00:00:00 | 00:00:00 | 00:00:00 | |
| OE3JTB-15 | 2026-09-05 01:48:52 | 48.32530 | 14.19658 | 122° | 53km/h | 1360m | -2.5m/s | 17.3°C | 67.6% | 870.0hPa | 2.7V | 00:00:00 | 00:00:00 | 00:00:00 | |
| OE5HKT-10 | 2026-09-05 01:48:52 | 48.32530 | 14.19658 | 122° | 53km/h | 1360m | -2.5m/s | 17.3°C | 67.6% | 870.0hPa | 2.7V | 00:00:00 | 00:00:00 | 00:00:00 | |
| OE5WHR-10 | 2026-09-05 01:48:52 | 48.32530 | 14.19658 | 122° | 53km/h | 1360m | -2.5m/s | 17.3°C | 67.6% | 870.0hPa | 2.7V | 00:00:00 | 03:19:21 | 00:00:00 | |
| OE5WHR-10 | 2026-09-05 01:48:51 | 48.32537 | 14.19640 | 121° | 51km/h | 1362m | -2.5m/s | 17.3°C | 67.7% | 869.8hPa | 2.7V | 00:00:00 | 00:00:00 | 00:00:00 | |
| OE3JTB-15 | 2026-09-05 01:48:50 | 48.32544 | 14.19623 | 122° | 51km/h | 1365m | -2.4m/s | 17.3°C | 67.8% | 869.8hPa | 2.7V | 07:15:00 | 00:00:00 | 00:00:00 | |
| PG1ADW-2 | 2026-09-05 01:48:49 | 48.32551 | 14.19607 | 123° | 53km/h | 1367m | -2.4m/s | 17.3°C | 67.9% | 869.3hPa | 2.7V | 00:00:00 | 00:00:00 | 00:00:00 | |
| OE3JTB-15 | 2026-09-05 01:48:48 | 48.32558 | 14.19590 | 122° | 53km/h | 1369m | -2.4m/s | 17.3°C | 68.0% | 869.1hPa | 2.7V | 00:00:00 | 03:19:17 | 00:00:00 | |
| OE5DRO-10 | 2026-09-05 01:48:46 | 48.32571 | 14.19556 | 121° | 53km/h | 1375m | -2.5m/s | 17.2°C | 68.1% | 868.7hPa | 2.7V | 00:00:00 | 00:00:00 | 00:00:00 | |
| OE5HKT-10 | 2026-09-05 01:48:46 | 48.32571 | 14.19556 | 121° | 53km/h | 1375m | -2.5m/s | 17.2°C | 68.1% | 868.7hPa | 2.7V | 00:00:00 | 00:00:00 | 00:00:00 | |
| OE3JTB-15 | 2026-09-05 01:48:46 | 48.32571 | 14.19556 | 121° | 51km/h | 1375m | -2.5m/s | 17.2°C | 68.1% | 868.7hPa | 2.7V | 00:00:00 | 00:00:00 | 00:00:00 | |
| OE5WHR-10 | 2026-09-05 01:48:46 | 48.32571 | 14.19556 | 121° | 53km/h | 1375m | -2.5m/s | 17.2°C | 68.1% | 868.7hPa | 2.7V | 00:00:00 | 00:00:00 | 00:00:00 | |
| OE5WHR-10 | 2026-09-05 01:48:45 | 48.32578 | 14.19539 | 122° | 53km/h | 1377m | -2.5m/s | 17.2°C | 68.3% | 868.4hPa | 2.7V | 00:00:00 | 03:19:14 | 00:00:00 | |
| OE3JTB-15 | 2026-09-05 01:48:44 | 48.32585 | 14.19522 | 122° | 53km/h | 1380m | -2.6m/s | 17.2°C | 68.3% | 868.0hPa | 2.7V | 00:00:00 | 00:00:00 | 00:00:00 | |
| OE5FHM-15 | 2026-09-05 01:48:44 | 48.32585 | 14.19522 | 122° | 53km/h | 1380m | -2.6m/s | 17.2°C | 68.3% | 868.0hPa | 2.7V | 00:00:00 | 03:19:13 | 00:00:00 | |
| OE3JTB-15 | 2026-09-05 01:48:42 | 48.32599 | 14.19487 | 120° | 53km/h | 1385m | -2.6m/s | 17.1°C | 68.4% | 867.6hPa | 2.7V | 00:00:00 | 03:19:11 | 00:00:00 | |
| OE3JTB-15 | 2026-09-05 01:48:40 | 48.32612 | 14.19452 | 122° | 53km/h | 1390m | -2.4m/s | 17.1°C | 68.7% | 867.0hPa | 2.7V | 00:00:00 | 00:00:00 | 00:00:00 | |
| OE5DXL-15 | 2026-09-05 01:48:40 | 48.32612 | 14.19452 | 122° | 55km/h | 1390m | -2.4m/s | 17.1°C | 68.7% | 867.0hPa | 2.7V | 00:00:00 | 03:19:09 | 00:00:00 | |
| OE5HKT-10 | 2026-09-05 01:48:40 | 48.32612 | 14.19452 | 122° | 53km/h | 1390m | -2.4m/s | 17.1°C | 68.7% | 867.0hPa | 2.7V | 00:00:00 | 03:19:09 | 00:00:00 | |
| OE5WHR-10 | 2026-09-05 01:48:40 | 48.32612 | 14.19452 | 122° | 53km/h | 1390m | -2.4m/s | 17.1°C | 68.7% | 867.0hPa | 2.7V | 00:00:00 | 00:00:00 | 00:00:00 | |
| OE5DRO-10 | 2026-09-05 01:48:39 | 48.32619 | 14.19435 | 122° | 53km/h | 1392m | -2.5m/s | 17.0°C | 68.7% | 866.9hPa | 2.7V | 00:00:00 | 00:00:00 | 00:00:00 | |
| OE5WHR-10 | 2026-09-05 01:48:39 | 48.32619 | 14.19435 | 122° | 53km/h | 1392m | -2.5m/s | 17.0°C | 68.7% | 866.9hPa | 2.7V | 00:00:00 | 00:00:00 | 00:00:00 | |
| OE3JTB-15 | 2026-09-05 01:48:38 | 48.32626 | 14.19418 | 121° | 53km/h | 1395m | -2.6m/s | 17.0°C | 68.8% | 866.7hPa | 2.7V | 00:00:00 | 00:00:00 | 00:00:00 | |
| PG1ADW-2 | 2026-09-05 01:48:37 | 48.32633 | 14.19400 | 121° | 53km/h | 1398m | -2.6m/s | 17.0°C | 68.9% | 866.3hPa | 2.7V | 00:00:00 | 00:00:00 | 00:00:00 | |
| OE3JTB-15 | 2026-09-05 01:48:35 | 48.32647 | 14.19365 | 121° | 55km/h | 1403m | -2.5m/s | 16.9°C | 69.1% | 865.8hPa | 2.7V | 00:00:00 | 03:19:04 | 00:00:00 | |
| OE5FHM-15 | 2026-09-05 01:48:34 | 48.32654 | 14.19347 | 120° | 53km/h | 1405m | -2.4m/s | 16.9°C | 69.1% | 865.5hPa | 2.7V | 07:15:00 | 03:19:03 | 00:00:00 | |
| OE5WHR-10 | 2026-09-05 01:48:34 | 48.32654 | 14.19347 | 120° | 55km/h | 1405m | -2.4m/s | 16.9°C | 69.1% | 865.5hPa | 2.7V | 07:15:00 | 03:19:03 | 00:00:00 | |
| OE5HKT-10 | 2026-09-05 01:48:34 | 48.32654 | 14.19347 | 120° | 55km/h | 1405m | -2.4m/s | 16.9°C | 69.1% | 865.5hPa | 2.7V | 00:00:00 | 00:00:00 | 00:00:00 | |
| OE3JTB-15 | 2026-09-05 01:48:33 | 48.32660 | 14.19330 | 120° | 53km/h | 1408m | -2.5m/s | 16.9°C | 69.1% | 865.2hPa | 2.7V | 07:15:00 | 00:00:00 | 00:00:00 | |
| OE5WHR-10 | 2026-09-05 01:48:33 | 48.32660 | 14.19330 | 120° | 53km/h | 1408m | -2.5m/s | 16.9°C | 69.1% | 865.2hPa | 2.7V | 07:15:00 | 00:00:00 | 00:00:00 | |
| OE5DRO-10 | 2026-09-05 01:48:32 | 48.32667 | 14.19312 | 121° | 53km/h | 1410m | -2.5m/s | 16.9°C | 69.1% | 864.9hPa | 2.7V | 07:15:00 | 00:00:00 | 00:00:00 | |
| OE3JTB-15 | 2026-09-05 01:48:31 | 48.32674 | 14.19295 | 121° | 55km/h | 1412m | -2.4m/s | 16.9°C | 69.2% | 864.8hPa | 2.7V | 00:00:00 | 00:00:00 | 00:00:00 | |
| PG1ADW-2 | 2026-09-05 01:48:31 | 48.32674 | 14.19295 | 121° | 53km/h | 1412m | -2.4m/s | 16.9°C | 69.2% | 864.8hPa | 2.7V | 00:00:00 | 03:19:00 | 00:00:00 | |
| OE3JTB-15 | 2026-09-05 01:48:29 | 48.32688 | 14.19259 | 121° | 53km/h | 1418m | -2.6m/s | 16.8°C | 69.3% | 864.3hPa | 2.7V | 00:00:00 | 03:18:58 | 00:00:00 | |
| OE5HKT-10 | 2026-09-05 01:48:28 | 48.32695 | 14.19242 | 121° | 55km/h | 1420m | -2.6m/s | 16.8°C | 69.2% | 864.0hPa | 2.7V | 00:00:00 | 00:00:00 | 00:00:00 | |
| OE5WHR-10 | 2026-09-05 01:48:28 | 48.32695 | 14.19242 | 121° | 55km/h | 1420m | -2.6m/s | 16.8°C | 69.2% | 864.0hPa | 2.7V | 00:00:00 | 00:00:00 | 00:00:00 | |
| OE3JTB-15 | 2026-09-05 01:48:27 | 48.32702 | 14.19224 | 122° | 53km/h | 1423m | -2.6m/s | 16.8°C | 69.2% | 863.8hPa | 2.7V | 00:00:00 | 00:00:00 | 00:00:00 | |
| OE5WHR-10 | 2026-09-05 01:48:27 | 48.32702 | 14.19224 | 122° | 55km/h | 1423m | -2.6m/s | 16.8°C | 69.2% | 863.8hPa | 2.7V | 00:00:00 | 03:18:56 | 00:00:00 | |
| OE5DRO-10 | 2026-09-05 01:48:25 | 48.32716 | 14.19189 | 121° | 55km/h | 1428m | -2.6m/s | 16.8°C | 69.3% | 863.1hPa | 2.7V | 00:00:00 | 00:00:00 | 00:00:00 | |
| OE3JTB-15 | 2026-09-05 01:48:25 | 48.32716 | 14.19189 | 121° | 55km/h | 1428m | -2.6m/s | 16.8°C | 69.3% | 863.1hPa | 2.7V | 00:00:00 | 00:00:00 | 00:00:00 | |
| PG1ADW-2 | 2026-09-05 01:48:25 | 48.32716 | 14.19189 | 121° | 55km/h | 1428m | -2.6m/s | 16.8°C | 69.3% | 863.1hPa | 2.7V | 00:00:00 | 00:00:00 | 00:00:00 | |
| OE5FHM-15 | 2026-09-05 01:48:24 | 48.32723 | 14.19171 | 119° | 55km/h | 1431m | -2.5m/s | 16.7°C | 69.3% | 862.9hPa | 2.7V | 00:00:00 | 03:18:53 | 00:00:00 | |
| OE3JTB-15 | 2026-09-05 01:48:23 | 48.32729 | 14.19153 | 119° | 55km/h | 1433m | -2.5m/s | 16.7°C | 69.4% | 862.7hPa | 2.7V | 00:00:00 | 03:18:52 | 00:00:00 | |
| OE5HKT-10 | 2026-09-05 01:48:22 | 48.32736 | 14.19135 | 120° | 55km/h | 1436m | -2.4m/s | 16.7°C | 69.4% | 862.4hPa | 2.7V | 00:00:00 | 03:18:51 | 00:00:00 | |
| OE5WHR-10 | 2026-09-05 01:48:22 | 48.32736 | 14.19135 | 120° | 55km/h | 1436m | -2.4m/s | 16.7°C | 69.4% | 862.4hPa | 2.7V | 00:00:00 | 00:00:00 | 00:00:00 | |
| OE3JTB-15 | 2026-09-05 01:48:21 | 48.32743 | 14.19117 | 120° | 55km/h | 1438m | -2.4m/s | 16.7°C | 69.5% | 862.0hPa | 2.7V | 00:00:00 | 00:00:00 | 00:00:00 | |
| OE5WHR-10 | 2026-09-05 01:48:20 | 48.32750 | 14.19098 | 120° | 55km/h | 1441m | -2.6m/s | 16.7°C | 69.6% | 861.8hPa | 2.7V | 00:00:00 | 00:00:00 | 00:00:00 | |
| OE5DXL-15 | 2026-09-05 01:48:20 | 48.32750 | 14.19098 | 120° | 57km/h | 1441m | -2.6m/s | 16.7°C | 69.6% | 861.8hPa | 2.7V | 07:16:00 | 00:00:00 | 00:00:00 | |
| PG1ADW-2 | 2026-09-05 01:48:19 | 48.32757 | 14.19080 | 119° | 55km/h | 1444m | -2.6m/s | 16.6°C | 69.6% | 861.4hPa | 2.7V | 07:16:00 | 00:00:00 | 00:00:00 | |
| OE3JTB-15 | 2026-09-05 01:48:19 | 48.32757 | 14.19080 | 119° | 55km/h | 1444m | -2.6m/s | 16.6°C | 69.6% | 861.4hPa | 2.7V | 00:00:00 | 00:00:00 | 00:00:00 | |
| OE5DRO-10 | 2026-09-05 01:48:18 | 48.32764 | 14.19062 | 120° | 55km/h | 1446m | -2.5m/s | 16.6°C | 69.7% | 861.4hPa | 2.7V | 00:00:00 | 00:00:00 | 00:00:00 | |
| OE3JTB-15 | 2026-09-05 01:48:17 | 48.32770 | 14.19043 | 121° | 55km/h | 1448m | -2.4m/s | 16.6°C | 69.7% | 861.2hPa | 2.7V | 07:16:00 | 03:18:46 | 00:00:00 | |
| OE5HKT-10 | 2026-09-05 01:48:16 | 48.32777 | 14.19025 | 121° | 55km/h | 1451m | -2.5m/s | 16.6°C | 69.7% | 860.8hPa | 2.7V | 07:16:00 | 00:00:00 | 00:00:00 | |
| OE5WHR-10 | 2026-09-05 01:48:16 | 48.32777 | 14.19025 | 121° | 55km/h | 1451m | -2.5m/s | 16.6°C | 69.7% | 860.8hPa | 2.7V | 00:00:00 | 03:18:45 | 00:00:00 | |
| OE3JTB-15 | 2026-09-05 01:48:15 | 48.32785 | 14.19007 | 120° | 55km/h | 1454m | -2.7m/s | 16.6°C | 69.8% | 860.5hPa | 2.7V | 00:00:00 | 00:00:00 | 00:00:00 | |
| OE5WHR-10 | 2026-09-05 01:48:14 | 48.32791 | 14.18989 | 119° | 55km/h | 1456m | -2.4m/s | 16.5°C | 69.9% | 860.4hPa | 2.7V | 00:00:00 | 00:00:00 | 00:00:00 | |
| OE5FHM-15 | 2026-09-05 01:48:13 | 48.32798 | 14.18971 | 120° | 55km/h | 1458m | -2.4m/s | 16.5°C | 70.1% | 860.0hPa | 2.7V | 00:00:00 | 03:18:42 | 00:00:00 | |
| PG1ADW-2 | 2026-09-05 01:48:13 | 48.32798 | 14.18971 | 120° | 55km/h | 1458m | -2.4m/s | 16.5°C | 70.1% | 860.0hPa | 2.7V | 00:00:00 | 00:00:00 | 00:00:00 | |
| OE3JTB-15 | 2026-09-05 01:48:12 | 48.32805 | 14.18953 | 120° | 55km/h | 1461m | -2.7m/s | 16.5°C | 70.1% | 859.9hPa | 2.7V | 00:00:00 | 00:00:00 | 00:00:00 | |
| OE5DRO-10 | 2026-09-05 01:48:11 | 48.32811 | 14.18935 | 119° | 55km/h | 1464m | -2.6m/s | 16.5°C | 70.1% | 859.6hPa | 2.7V | 00:00:00 | 00:00:00 | 00:00:00 | |
| OE5MMP-10 | 2026-09-05 01:48:11 | 48.32811 | 14.18935 | 119° | 57km/h | 1464m | -2.6m/s | 16.5°C | 70.1% | 859.6hPa | 2.7V | 00:00:00 | 03:18:40 | 00:00:00 | |
| OE3JTB-15 | 2026-09-05 01:48:10 | 48.32818 | 14.18917 | 118° | 55km/h | 1466m | -2.6m/s | 16.4°C | 70.2% | 859.4hPa | 2.7V | 00:00:00 | 03:18:39 | 00:00:00 | |
| OE5HKT-10 | 2026-09-05 01:48:10 | 48.32818 | 14.18917 | 118° | 55km/h | 1466m | -2.6m/s | 16.4°C | 70.2% | 859.4hPa | 2.7V | 00:00:00 | 00:00:00 | 00:00:00 | |
| OE5WHR-10 | 2026-09-05 01:48:10 | 48.32818 | 14.18917 | 118° | 55km/h | 1466m | -2.6m/s | 16.4°C | 70.2% | 859.4hPa | 2.7V | 00:00:00 | 00:00:00 | 00:00:00 | |
| OE3JTB-15 | 2026-09-05 01:48:08 | 48.32831 | 14.18880 | 119° | 55km/h | 1472m | -2.6m/s | 16.4°C | 70.3% | 858.6hPa | 2.7V | 00:00:00 | 00:00:00 | 00:00:00 | |
| OE5WHR-10 | 2026-09-05 01:48:08 | 48.32831 | 14.18880 | 119° | 57km/h | 1472m | -2.6m/s | 16.4°C | 70.3% | 858.6hPa | 2.7V | 00:00:00 | 03:18:37 | 00:00:00 | |
| PG1ADW-2 | 2026-09-05 01:48:07 | 48.32837 | 14.18861 | 118° | 57km/h | 1474m | -2.7m/s | 16.4°C | 70.3% | 858.5hPa | 2.7V | 00:00:00 | 03:18:36 | 00:00:00 | |
| OE3JTB-15 | 2026-09-05 01:48:06 | 48.32844 | 14.18842 | 117° | 57km/h | 1477m | -3.0m/s | 16.4°C | 70.2% | 858.1hPa | 2.7V | 00:00:00 | 00:00:00 | 00:00:00 | |
| OE5DRO-10 | 2026-09-05 01:48:04 | 48.32857 | 14.18804 | 118° | 58km/h | 1483m | -2.5m/s | 16.3°C | 70.4% | 857.6hPa | 2.7V | 00:00:00 | 00:00:00 | 00:00:00 | |
| OE3JTB-15 | 2026-09-05 01:48:04 | 48.32857 | 14.18804 | 118° | 57km/h | 1483m | -2.5m/s | 16.3°C | 70.4% | 857.6hPa | 2.7V | 00:00:00 | 03:18:33 | 00:00:00 | |
| OE5HKT-10 | 2026-09-05 01:48:04 | 48.32857 | 14.18804 | 118° | 58km/h | 1483m | -2.5m/s | 16.3°C | 70.4% | 857.6hPa | 2.7V | 00:00:00 | 03:18:33 | 00:00:00 | |
| OE5WHR-10 | 2026-09-05 01:48:04 | 48.32857 | 14.18804 | 118° | 58km/h | 1483m | -2.5m/s | 16.3°C | 70.4% | 857.6hPa | 2.7V | 00:00:00 | 00:00:00 | 00:00:00 | |
| OE5MMP-10 | 2026-09-05 01:48:03 | 48.32864 | 14.18784 | 118° | 58km/h | 1485m | -2.5m/s | 16.3°C | 70.5% | 857.3hPa | 2.7V | 00:00:00 | 03:18:32 | 00:00:00 | |
| OE5FHM-15 | 2026-09-05 01:48:03 | 48.32864 | 14.18784 | 118° | 58km/h | 1485m | -2.5m/s | 16.3°C | 70.5% | 857.3hPa | 2.7V | 00:00:00 | 03:18:32 | 00:00:00 | |
| OE3JTB-15 | 2026-09-05 01:48:02 | 48.32870 | 14.18764 | 118° | 58km/h | 1488m | -2.6m/s | 16.3°C | 70.6% | 857.0hPa | 2.7V | 00:00:00 | 00:00:00 | 00:00:00 | |
| OE5WHR-10 | 2026-09-05 01:48:02 | 48.32870 | 14.18764 | 118° | 58km/h | 1488m | -2.6m/s | 16.3°C | 70.6% | 857.0hPa | 2.7V | 00:00:00 | 00:00:00 | 00:00:00 | |
| PG1ADW-2 | 2026-09-05 01:48:01 | 48.32877 | 14.18745 | 116° | 58km/h | 1490m | -2.8m/s | 16.3°C | 70.7% | 856.8hPa | 2.7V | 00:00:00 | 00:00:00 | 00:00:00 | |
| OE3JTB-15 | 2026-09-05 01:48:00 | 48.32883 | 14.18725 | 116° | 57km/h | 1493m | -2.8m/s | 16.2°C | 70.7% | 856.5hPa | 2.7V | 07:16:00 | 00:00:00 | 00:00:00 | |
| OE5DXL-15 | 2026-09-05 01:48:00 | 48.32883 | 14.18725 | 116° | 58km/h | 1493m | -2.8m/s | 16.2°C | 70.7% | 856.5hPa | 2.7V | 00:00:00 | 00:00:00 | 00:00:00 | |
| OE3JTB-15 | 2026-09-05 01:47:58 | 48.32897 | 14.18686 | 118° | 58km/h | 1498m | -2.1m/s | 16.2°C | 70.7% | 855.9hPa | 2.7V | 00:00:00 | 03:18:27 | 00:00:00 | |
| OE5HKT-10 | 2026-09-05 01:47:58 | 48.32897 | 14.18686 | 118° | 58km/h | 1498m | -2.1m/s | 16.2°C | 70.7% | 855.9hPa | 2.7V | 00:00:00 | 00:00:00 | 00:00:00 | |
| OE5WHR-10 | 2026-09-05 01:47:58 | 48.32897 | 14.18686 | 118° | 58km/h | 1498m | -2.1m/s | 16.2°C | 70.7% | 855.9hPa | 2.7V | 00:00:00 | 03:18:27 | 00:00:00 | |
| OE5DRO-10 | 2026-09-05 01:47:57 | 48.32903 | 14.18666 | 118° | 58km/h | 1501m | -2.3m/s | 16.2°C | 70.8% | 855.7hPa | 2.7V | 00:00:00 | 00:00:00 | 00:00:00 | |
| OE3JTB-15 | 2026-09-05 01:47:56 | 48.32910 | 14.18646 | 116° | 58km/h | 1503m | -2.5m/s | 16.2°C | 70.6% | 855.4hPa | 2.7V | 00:00:00 | 00:00:00 | 00:00:00 | |
| OE5WHR-10 | 2026-09-05 01:47:56 | 48.32910 | 14.18646 | 116° | 58km/h | 1503m | -2.5m/s | 16.2°C | 70.6% | 855.4hPa | 2.7V | 00:00:00 | 00:00:00 | 00:00:00 | |
| OE3JTB-15 | 2026-09-05 01:47:54 | 48.32923 | 14.18606 | 116° | 57km/h | 1508m | -2.4m/s | 16.1°C | 70.9% | 855.1hPa | 2.7V | 00:00:00 | 00:00:00 | 00:00:00 | |
| OE5MMP-10 | 2026-09-05 01:47:53 | 48.32929 | 14.18586 | 117° | 58km/h | 1511m | -2.7m/s | 16.1°C | 70.9% | 854.7hPa | 2.7V | 00:00:00 | 03:18:22 | 00:00:00 | |
| OE5FHM-15 | 2026-09-05 01:47:53 | 48.32929 | 14.18586 | 117° | 58km/h | 1511m | -2.7m/s | 16.1°C | 70.9% | 854.7hPa | 2.7V | 00:00:00 | 03:18:22 | 00:00:00 | |
| OE3JTB-15 | 2026-09-05 01:47:52 | 48.32936 | 14.18567 | 117° | 58km/h | 1514m | -2.9m/s | 16.1°C | 71.0% | 854.5hPa | 2.7V | 00:00:00 | 03:18:21 | 00:00:00 | |
| OE5HKT-10 | 2026-09-05 01:47:52 | 48.32936 | 14.18567 | 117° | 58km/h | 1514m | -2.9m/s | 16.1°C | 71.0% | 854.5hPa | 2.7V | 00:00:00 | 00:00:00 | 00:00:00 | |
| OE5WHR-10 | 2026-09-05 01:47:52 | 48.32936 | 14.18567 | 117° | 58km/h | 1514m | -2.9m/s | 16.1°C | 71.0% | 854.5hPa | 2.7V | 00:00:00 | 00:00:00 | 00:00:00 | |
| OE3JTB-15 | 2026-09-05 01:47:50 | 48.32949 | 14.18526 | 116° | 58km/h | 1519m | -2.8m/s | 16.1°C | 71.0% | 854.1hPa | 2.7V | 00:00:00 | 00:00:00 | 00:00:00 | |
| OE5DRO-10 | 2026-09-05 01:47:50 | 48.32949 | 14.18526 | 116° | 58km/h | 1519m | -2.8m/s | 16.1°C | 71.0% | 854.1hPa | 2.7V | 00:00:00 | 00:00:00 | 00:00:00 | |
| OE5WHR-10 | 2026-09-05 01:47:50 | 48.32949 | 14.18526 | 116° | 58km/h | 1519m | -2.8m/s | 16.1°C | 71.0% | 854.1hPa | 2.7V | 00:00:00 | 03:18:19 | 00:00:00 | |
| PG1ADW-2 | 2026-09-05 01:47:48 | 48.32962 | 14.18486 | 117° | 60km/h | 1524m | -2.3m/s | 16.0°C | 70.9% | 853.4hPa | 2.7V | 00:00:00 | 00:00:00 | 00:00:00 | |
| OE3JTB-15 | 2026-09-05 01:47:48 | 48.32962 | 14.18486 | 117° | 58km/h | 1524m | -2.3m/s | 16.0°C | 70.9% | 853.4hPa | 2.7V | 00:00:00 | 00:00:00 | 00:00:00 | |
| OE3JTB-15 | 2026-09-05 01:47:46 | 48.32975 | 14.18446 | 115° | 60km/h | 1529m | -2.3m/s | 16.0°C | 70.9% | 852.8hPa | 2.7V | 00:00:00 | 03:18:15 | 00:00:00 | |
| OE5HKT-10 | 2026-09-05 01:47:46 | 48.32975 | 14.18446 | 115° | 60km/h | 1529m | -2.3m/s | 16.0°C | 70.9% | 852.8hPa | 2.7V | 00:00:00 | 03:18:15 | 00:00:00 | |
| OE5WHR-10 | 2026-09-05 01:47:46 | 48.32975 | 14.18446 | 115° | 60km/h | 1529m | -2.3m/s | 16.0°C | 70.9% | 852.8hPa | 2.7V | 07:16:00 | 00:00:00 | 00:00:00 | |
| OE5MMP-10 | 2026-09-05 01:47:45 | 48.32981 | 14.18425 | 116° | 60km/h | 1532m | -2.2m/s | 16.0°C | 70.2% | 852.6hPa | 2.7V | 00:00:00 | 03:18:14 | 00:00:00 | |
| OE3JTB-15 | 2026-09-05 01:47:44 | 48.32988 | 14.18405 | 116° | 60km/h | 1534m | -2.6m/s | 16.0°C | 70.0% | 852.5hPa | 2.7V | 07:16:00 | 00:00:00 | 00:00:00 | |
| OE5WHR-10 | 2026-09-05 01:47:44 | 48.32988 | 14.18405 | 116° | 60km/h | 1534m | -2.6m/s | 16.0°C | 70.0% | 852.5hPa | 2.7V | 07:16:00 | 00:00:00 | 00:00:00 | |
| OE5DRO-10 | 2026-09-05 01:47:43 | 48.32994 | 14.18384 | 115° | 62km/h | 1536m | -2.6m/s | 16.0°C | 70.1% | 852.2hPa | 2.7V | 00:00:00 | 00:00:00 | 00:00:00 | |
| OE5FHM-15 | 2026-09-05 01:47:43 | 48.32994 | 14.18384 | 115° | 62km/h | 1536m | -2.6m/s | 16.0°C | 70.1% | 852.2hPa | 2.7V | 00:00:00 | 03:18:12 | 00:00:00 | |
| PG1ADW-2 | 2026-09-05 01:47:42 | 48.33000 | 14.18363 | 115° | 62km/h | 1539m | -2.5m/s | 16.0°C | 69.8% | 851.9hPa | 2.7V | 00:00:00 | 03:18:11 | 00:00:00 | |
| OE3JTB-15 | 2026-09-05 01:47:42 | 48.33000 | 14.18363 | 115° | 62km/h | 1539m | -2.5m/s | 16.0°C | 69.8% | 851.9hPa | 2.7V | 00:00:00 | 00:00:00 | 00:00:00 | |
| OE5DXL-15 | 2026-09-05 01:47:40 | 48.33012 | 14.18320 | 113° | 62km/h | 1544m | -2.6m/s | 16.0°C | 69.7% | 851.5hPa | 2.7V | 00:00:00 | 00:00:00 | 00:00:00 | |
| OE3JTB-15 | 2026-09-05 01:47:40 | 48.33012 | 14.18320 | 113° | 62km/h | 1544m | -2.6m/s | 16.0°C | 69.7% | 851.5hPa | 2.7V | 00:00:00 | 03:18:09 | 00:00:00 | |
| OE5HKT-10 | 2026-09-05 01:47:40 | 48.33012 | 14.18320 | 113° | 62km/h | 1544m | -2.6m/s | 16.0°C | 69.7% | 851.5hPa | 2.7V | 00:00:00 | 00:00:00 | 00:00:00 | |
| OE5WHR-10 | 2026-09-05 01:47:40 | 48.33012 | 14.18320 | 113° | 62km/h | 1544m | -2.6m/s | 16.0°C | 69.7% | 851.5hPa | 2.7V | 00:00:00 | 03:18:09 | 00:00:00 | |
| OE3JTB-15 | 2026-09-05 01:47:38 | 48.33025 | 14.18277 | 113° | 62km/h | 1549m | -2.2m/s | 16.0°C | 69.4% | 850.9hPa | 2.7V | 00:00:00 | 00:00:00 | 00:00:00 | |
| OE5WHR-10 | 2026-09-05 01:47:38 | 48.33025 | 14.18277 | 113° | 62km/h | 1549m | -2.2m/s | 0°C | 0% | 0hPa | 2.7V | 00:00:00 | 00:00:00 | 00:00:00 | |
| OE5MMP-10 | 2026-09-05 01:47:38 | 48.33025 | 14.18277 | 113° | 62km/h | 1549m | -2.2m/s | 16.0°C | 69.4% | 850.9hPa | 2.7V | 00:00:00 | 03:18:07 | 00:00:00 | |
| OE3JTB-15 | 2026-09-05 01:47:36 | 48.33037 | 14.18233 | 112° | 62km/h | 1554m | -2.8m/s | 15.9°C | 69.6% | 850.5hPa | 2.7V | 00:00:00 | 00:00:00 | 00:00:00 | |
| OE5DRO-10 | 2026-09-05 01:47:36 | 48.33037 | 14.18233 | 112° | 62km/h | 1554m | -2.8m/s | 15.9°C | 69.6% | 850.5hPa | 2.7V | 07:16:00 | 00:00:00 | 00:00:00 | |
| PG1ADW-2 | 2026-09-05 01:47:36 | 48.33037 | 14.18233 | 112° | 62km/h | 1554m | -2.8m/s | 15.9°C | 69.6% | 850.5hPa | 2.7V | 00:00:00 | 00:00:00 | 00:00:00 | |
| OE3JTB-15 | 2026-09-05 01:47:34 | 48.33049 | 14.18190 | 113° | 64km/h | 1559m | -2.4m/s | 15.9°C | 69.8% | 850.0hPa | 2.7V | 00:00:00 | 03:18:03 | 00:00:00 | |
| OE5HKT-10 | 2026-09-05 01:47:34 | 48.33049 | 14.18190 | 113° | 64km/h | 1559m | -2.4m/s | 15.9°C | 69.8% | 850.0hPa | 2.7V | 00:00:00 | 00:00:00 | 00:00:00 | |
| OE5WHR-10 | 2026-09-05 01:47:34 | 48.33049 | 14.18190 | 113° | 64km/h | 1559m | -2.4m/s | 15.9°C | 69.8% | 850.0hPa | 2.7V | 00:00:00 | 00:00:00 | 00:00:00 | |
| OE5MMP-10 | 2026-09-05 01:47:33 | 48.33055 | 14.18168 | 113° | 64km/h | 1562m | -2.8m/s | 15.9°C | 69.8% | 849.8hPa | 2.7V | 00:00:00 | 03:18:02 | 00:00:00 | |
| OE3JTB-15 | 2026-09-05 01:47:32 | 48.33060 | 14.18145 | 112° | 62km/h | 1565m | -2.7m/s | 15.9°C | 69.3% | 849.5hPa | 2.7V | 00:00:00 | 00:00:00 | 00:00:00 | |
| OE5WHR-10 | 2026-09-05 01:47:32 | 48.33060 | 14.18145 | 112° | 64km/h | 1565m | -2.7m/s | 0°C | 0% | 0hPa | 2.7V | 00:00:00 | 03:18:01 | 00:00:00 | |
| OE3JTB-15 | 2026-09-05 01:47:30 | 48.33072 | 14.18101 | 112° | 64km/h | 1570m | -2.7m/s | 15.9°C | 68.8% | 848.8hPa | 2.7V | 00:00:00 | 00:00:00 | 00:00:00 | |
| PG1ADW-2 | 2026-09-05 01:47:30 | 48.33072 | 14.18101 | 112° | 62km/h | 1570m | -2.7m/s | 15.9°C | 68.8% | 848.8hPa | 2.7V | 07:17:00 | 00:00:00 | 00:00:00 | |
| OE5DRO-10 | 2026-09-05 01:47:29 | 48.33078 | 14.18078 | 113° | 62km/h | 1573m | -2.6m/s | 15.9°C | 69.3% | 848.7hPa | 2.7V | 00:00:00 | 00:00:00 | 00:00:00 | |
| OE3JTB-15 | 2026-09-05 01:47:28 | 48.33084 | 14.18056 | 112° | 64km/h | 1576m | -2.8m/s | 15.8°C | 69.5% | 848.4hPa | 2.7V | 07:17:00 | 03:17:57 | 00:00:00 | |
| OE5HKT-10 | 2026-09-05 01:47:28 | 48.33084 | 14.18056 | 112° | 62km/h | 1576m | -2.8m/s | 15.8°C | 69.5% | 848.4hPa | 2.7V | 07:17:00 | 03:17:57 | 00:00:00 | |
| OE5WHR-10 | 2026-09-05 01:47:28 | 48.33084 | 14.18056 | 112° | 62km/h | 1576m | -2.8m/s | 15.8°C | 69.5% | 848.4hPa | 2.7V | 00:00:00 | 00:00:00 | 00:00:00 | |
| OE5MMP-10 | 2026-09-05 01:47:27 | 48.33090 | 14.18033 | 111° | 64km/h | 1579m | -2.8m/s | 15.8°C | 69.2% | 848.1hPa | 2.7V | 07:17:00 | 03:17:56 | 00:00:00 | |
| OE5FHM-15 | 2026-09-05 01:47:27 | 48.33090 | 14.18033 | 111° | 64km/h | 1579m | -2.8m/s | 15.8°C | 69.2% | 848.1hPa | 2.7V | 00:00:00 | 03:17:56 | 00:00:00 | |
| OE3JTB-15 | 2026-09-05 01:47:26 | 48.33096 | 14.18011 | 111° | 62km/h | 1581m | -2.5m/s | 15.8°C | 69.2% | 847.8hPa | 2.7V | 00:00:00 | 00:00:00 | 00:00:00 | |
| OE5WHR-10 | 2026-09-05 01:47:26 | 48.33096 | 14.18011 | 111° | 62km/h | 1581m | -2.5m/s | 0°C | 0% | 0hPa | 2.7V | 00:00:00 | 00:00:00 | 00:00:00 | |
| OE3JTB-15 | 2026-09-05 01:47:24 | 48.33107 | 14.17967 | 112° | 62km/h | 1586m | -2.4m/s | 15.8°C | 69.3% | 847.3hPa | 2.7V | 00:00:00 | 00:00:00 | 00:00:00 | |
| PG1ADW-2 | 2026-09-05 01:47:24 | 48.33107 | 14.17967 | 112° | 64km/h | 1586m | -2.4m/s | 15.8°C | 69.3% | 847.3hPa | 2.7V | 00:00:00 | 00:00:00 | 00:00:00 | |
| OE5DRO-10 | 2026-09-05 01:47:22 | 48.33118 | 14.17922 | 111° | 64km/h | 1591m | -2.5m/s | 15.8°C | 68.6% | 846.9hPa | 2.7V | 00:00:00 | 00:00:00 | 00:00:00 | |
| OE3JTB-15 | 2026-09-05 01:47:22 | 48.33118 | 14.17922 | 111° | 64km/h | 1591m | -2.5m/s | 15.8°C | 68.6% | 846.9hPa | 2.7V | 00:00:00 | 03:17:51 | 00:00:00 | |
| OE5HKT-10 | 2026-09-05 01:47:22 | 48.33118 | 14.17922 | 111° | 64km/h | 1591m | -2.5m/s | 15.8°C | 68.6% | 846.9hPa | 2.7V | 00:00:00 | 00:00:00 | 00:00:00 | |
| OE5WHR-10 | 2026-09-05 01:47:22 | 48.33118 | 14.17922 | 111° | 64km/h | 1591m | -2.5m/s | 15.8°C | 68.6% | 846.9hPa | 2.7V | 00:00:00 | 03:17:51 | 00:00:00 | |
| OE5MMP-10 | 2026-09-05 01:47:21 | 48.33124 | 14.17899 | 110° | 64km/h | 1593m | -2.6m/s | 15.8°C | 68.4% | 846.6hPa | 2.7V | 00:00:00 | 03:17:50 | 00:00:00 | |
| OE3JTB-15 | 2026-09-05 01:47:20 | 48.33130 | 14.17877 | 111° | 64km/h | 1596m | -2.6m/s | 15.9°C | 67.1% | 846.3hPa | 2.7V | 00:00:00 | 00:00:00 | 00:00:00 | |
| OE5DXL-15 | 2026-09-05 01:47:20 | 48.33130 | 14.17877 | 111° | 64km/h | 1596m | -2.6m/s | 15.9°C | 67.1% | 846.3hPa | 2.7V | 00:00:00 | 00:00:00 | 00:00:00 | |
| OE5WHR-10 | 2026-09-05 01:47:20 | 48.33130 | 14.17877 | 111° | 64km/h | 1596m | -2.6m/s | 0°C | 0% | 0hPa | 2.7V | 00:00:00 | 00:00:00 | 00:00:00 | |
| PG1ADW-2 | 2026-09-05 01:47:18 | 48.33141 | 14.17832 | 111° | 64km/h | 1601m | -2.4m/s | 15.9°C | 66.8% | 845.8hPa | 2.7V | 00:00:00 | 03:17:47 | 00:00:00 | |
| OE3JTB-15 | 2026-09-05 01:47:18 | 48.33141 | 14.17832 | 111° | 64km/h | 1601m | -2.4m/s | 15.9°C | 66.8% | 845.8hPa | 2.7V | 00:00:00 | 00:00:00 | 00:00:00 | |
| OE5FHM-15 | 2026-09-05 01:47:17 | 48.33147 | 14.17809 | 110° | 64km/h | 1604m | -2.6m/s | 15.8°C | 67.0% | 845.7hPa | 2.7V | 00:00:00 | 03:17:46 | 00:00:00 | |
| OE5MMP-10 | 2026-09-05 01:47:16 | 48.33152 | 14.17786 | 111° | 64km/h | 1607m | -2.5m/s | 15.8°C | 66.9% | 845.5hPa | 2.7V | 00:00:00 | 03:17:45 | 00:00:00 | |
| OE5HKT-10 | 2026-09-05 01:47:16 | 48.33152 | 14.17786 | 111° | 64km/h | 1607m | -2.5m/s | 15.8°C | 66.9% | 845.5hPa | 2.7V | 00:00:00 | 00:00:00 | 00:00:00 | |
| OE5WHR-10 | 2026-09-05 01:47:16 | 48.33152 | 14.17786 | 111° | 64km/h | 1607m | -2.5m/s | 15.8°C | 66.9% | 845.5hPa | 2.7V | 00:00:00 | 00:00:00 | 00:00:00 | |
| OE5DRO-10 | 2026-09-05 01:47:15 | 48.33158 | 14.17763 | 111° | 64km/h | 1609m | -2.5m/s | 15.8°C | 67.0% | 845.2hPa | 2.7V | 00:00:00 | 00:00:00 | 00:00:00 | |
| OE3JTB-15 | 2026-09-05 01:47:15 | 48.33158 | 14.17763 | 111° | 66km/h | 1609m | -2.5m/s | 15.8°C | 67.0% | 845.2hPa | 2.7V | 00:00:00 | 03:17:44 | 00:00:00 | |
| OE5WHR-10 | 2026-09-05 01:47:14 | 48.33163 | 14.17740 | 110° | 64km/h | 1612m | -2.7m/s | 0°C | 0% | 0hPa | 2.7V | 00:00:00 | 03:17:43 | 00:00:00 | |
| OE3JTB-15 | 2026-09-05 01:47:13 | 48.33169 | 14.17717 | 109° | 64km/h | 1615m | -2.6m/s | 15.8°C | 67.1% | 844.6hPa | 2.7V | 00:00:00 | 00:00:00 | 00:00:00 | |
| PG1ADW-2 | 2026-09-05 01:47:12 | 48.33174 | 14.17693 | 109° | 64km/h | 1617m | -2.8m/s | 15.8°C | 67.1% | 844.2hPa | 2.7V | 00:00:00 | 00:00:00 | 00:00:00 | |
| OE3JTB-15 | 2026-09-05 01:47:11 | 48.33179 | 14.17670 | 109° | 64km/h | 1620m | -2.5m/s | 15.7°C | 67.2% | 844.1hPa | 2.7V | 07:17:00 | 00:00:00 | 00:00:00 | |
| OE5MMP-10 | 2026-09-05 01:47:11 | 48.33179 | 14.17670 | 109° | 64km/h | 1620m | -2.5m/s | 15.7°C | 67.2% | 844.1hPa | 2.7V | 00:00:00 | 03:17:40 | 00:00:00 | |
| OE5HKT-10 | 2026-09-05 01:47:10 | 48.33184 | 14.17647 | 109° | 66km/h | 1622m | -2.5m/s | 15.7°C | 67.3% | 843.9hPa | 2.7V | 00:00:00 | 03:17:39 | 00:00:00 | |
| OE5WHR-10 | 2026-09-05 01:47:10 | 48.33184 | 14.17647 | 109° | 66km/h | 1622m | -2.5m/s | 15.7°C | 67.3% | 843.9hPa | 2.7V | 00:00:00 | 00:00:00 | 00:00:00 | |
| OE3JTB-15 | 2026-09-05 01:47:09 | 48.33189 | 14.17623 | 108° | 64km/h | 1625m | -2.7m/s | 15.7°C | 67.4% | 843.6hPa | 2.7V | 00:00:00 | 03:17:38 | 00:00:00 | |
| OE5DRO-10 | 2026-09-05 01:47:08 | 48.33194 | 14.17600 | 107° | 64km/h | 1628m | -2.7m/s | 15.6°C | 67.6% | 843.3hPa | 2.7V | 00:00:00 | 00:00:00 | 00:00:00 | |
| OE5WHR-10 | 2026-09-05 01:47:08 | 48.33194 | 14.17600 | 107° | 66km/h | 1628m | -2.7m/s | 0°C | 0% | 0hPa | 2.7V | 00:00:00 | 00:00:00 | 00:00:00 | |
| OE3JTB-15 | 2026-09-05 01:47:07 | 48.33199 | 14.17577 | 108° | 64km/h | 1630m | -2.5m/s | 15.6°C | 67.6% | 843.0hPa | 2.7V | 00:00:00 | 00:00:00 | 00:00:00 | |
| OE5FHM-15 | 2026-09-05 01:47:07 | 48.33199 | 14.17577 | 108° | 64km/h | 1630m | -2.5m/s | 15.6°C | 67.6% | 843.0hPa | 2.7V | 07:17:00 | 03:17:36 | 00:00:00 | |
| OE5MMP-10 | 2026-09-05 01:47:06 | 48.33204 | 14.17553 | 108° | 66km/h | 1633m | -2.5m/s | 15.6°C | 67.7% | 842.8hPa | 2.7V | 00:00:00 | 03:17:35 | 00:00:00 | |
| PG1ADW-2 | 2026-09-05 01:47:06 | 48.33204 | 14.17553 | 108° | 66km/h | 1633m | -2.5m/s | 15.6°C | 67.7% | 842.8hPa | 2.7V | 00:00:00 | 00:00:00 | 00:00:00 | |
| OE3JTB-15 | 2026-09-05 01:47:05 | 48.33209 | 14.17530 | 108° | 66km/h | 1636m | -2.5m/s | 15.6°C | 67.8% | 842.5hPa | 2.7V | 00:00:00 | 00:00:00 | 00:00:00 | |
| OE5HKT-10 | 2026-09-05 01:47:04 | 48.33214 | 14.17506 | 107° | 66km/h | 1638m | -2.7m/s | 15.6°C | 67.8% | 842.2hPa | 2.7V | 00:00:00 | 00:00:00 | 00:00:00 | |
| OE5WHR-10 | 2026-09-05 01:47:04 | 48.33214 | 14.17506 | 107° | 66km/h | 1638m | -2.7m/s | 15.6°C | 67.8% | 842.2hPa | 2.7V | 00:00:00 | 03:17:33 | 00:00:00 | |
| OE3JTB-15 | 2026-09-05 01:47:03 | 48.33219 | 14.17482 | 107° | 64km/h | 1641m | -2.6m/s | 15.6°C | 67.8% | 842.0hPa | 2.7V | 00:00:00 | 03:17:32 | 00:00:00 | |
| OE5WHR-10 | 2026-09-05 01:47:02 | 48.33223 | 14.17459 | 108° | 64km/h | 1644m | -2.7m/s | 0°C | 0% | 0hPa | 2.7V | 00:00:00 | 00:00:00 | 00:00:00 | |
| OE3JTB-15 | 2026-09-05 01:47:01 | 48.33228 | 14.17436 | 108° | 66km/h | 1647m | -2.7m/s | 15.5°C | 67.7% | 841.4hPa | 2.7V | 00:00:00 | 00:00:00 | 00:00:00 | |
| OE5DRO-10 | 2026-09-05 01:47:01 | 48.33228 | 14.17436 | 108° | 66km/h | 1647m | -2.7m/s | 15.5°C | 67.7% | 841.4hPa | 2.7V | 00:00:00 | 00:00:00 | 00:00:00 | |
| OE5MMP-10 | 2026-09-05 01:47:01 | 48.33228 | 14.17436 | 108° | 64km/h | 1647m | -2.7m/s | 15.5°C | 67.7% | 841.4hPa | 2.7V | 00:00:00 | 03:17:30 | 00:00:00 | |
| OE5DXL-15 | 2026-09-05 01:47:00 | 48.33233 | 14.17412 | 108° | 64km/h | 1649m | -2.5m/s | 15.5°C | 67.7% | 841.1hPa | 2.7V | 00:00:00 | 00:00:00 | 00:00:00 | |
| PG1ADW-2 | 2026-09-05 01:47:00 | 48.33233 | 14.17412 | 108° | 64km/h | 1649m | -2.5m/s | 15.5°C | 67.7% | 841.1hPa | 2.7V | 00:00:00 | 00:00:00 | 00:00:00 | |
| OE5HKT-10 | 2026-09-05 01:46:58 | 48.33243 | 14.17364 | 107° | 64km/h | 1654m | -2.7m/s | 15.5°C | 67.7% | 840.7hPa | 2.7V | 00:00:00 | 00:00:00 | 00:00:00 | |
| OE5WHR-10 | 2026-09-05 01:46:58 | 48.33243 | 14.17364 | 107° | 64km/h | 1654m | -2.7m/s | 15.5°C | 67.7% | 840.7hPa | 2.7V | 07:17:00 | 00:00:00 | 00:00:00 | |
| OE3JTB-15 | 2026-09-05 01:46:57 | 48.33248 | 14.17341 | 108° | 64km/h | 1657m | -2.6m/s | 15.5°C | 67.6% | 840.3hPa | 2.7V | 00:00:00 | 03:17:26 | 00:00:00 | |
| OE5MMP-10 | 2026-09-05 01:46:56 | 48.33253 | 14.17318 | 108° | 64km/h | 1660m | -2.9m/s | 15.5°C | 67.4% | 840.0hPa | 2.7V | 00:00:00 | 03:17:25 | 00:00:00 | |
| OE5WHR-10 | 2026-09-05 01:46:56 | 48.33253 | 14.17318 | 108° | 64km/h | 1660m | -2.9m/s | 0°C | 0% | 0hPa | 2.7V | 07:17:00 | 03:17:25 | 00:00:00 | |
| OE3JTB-15 | 2026-09-05 01:46:55 | 48.33258 | 14.17294 | 108° | 64km/h | 1663m | -2.7m/s | 15.4°C | 67.5% | 839.9hPa | 2.7V | 07:17:00 | 00:00:00 | 00:00:00 | |
| OE5FHM-15 | 2026-09-05 01:46:55 | 48.33258 | 14.17294 | 108° | 64km/h | 1663m | -2.7m/s | 15.4°C | 67.5% | 839.9hPa | 2.7V | 00:00:00 | 03:17:24 | 00:00:00 | |
| OE5DRO-10 | 2026-09-05 01:46:54 | 48.33262 | 14.17271 | 107° | 64km/h | 1665m | -2.6m/s | 15.4°C | 67.6% | 839.6hPa | 2.7V | 00:00:00 | 00:00:00 | 00:00:00 | |
| PG1ADW-2 | 2026-09-05 01:46:54 | 48.33262 | 14.17271 | 107° | 64km/h | 1665m | -2.6m/s | 15.4°C | 67.6% | 839.6hPa | 2.7V | 00:00:00 | 03:17:23 | 00:00:00 | |
| OE3JTB-15 | 2026-09-05 01:46:53 | 48.33267 | 14.17248 | 108° | 64km/h | 1668m | -2.8m/s | 15.4°C | 67.8% | 839.3hPa | 2.7V | 00:00:00 | 00:00:00 | 00:00:00 | |
| OE5HKT-10 | 2026-09-05 01:46:52 | 48.33272 | 14.17225 | 108° | 64km/h | 1671m | -2.6m/s | 15.4°C | 67.7% | 839.2hPa | 2.7V | 00:00:00 | 03:17:21 | 00:00:00 | |
| OE5WHR-10 | 2026-09-05 01:46:52 | 48.33272 | 14.17225 | 108° | 64km/h | 1671m | -2.6m/s | 15.4°C | 67.7% | 839.2hPa | 2.7V | 00:00:00 | 00:00:00 | 00:00:00 | |
| OE3JTB-15 | 2026-09-05 01:46:51 | 48.33277 | 14.17202 | 108° | 64km/h | 1674m | -2.8m/s | 15.4°C | 67.6% | 838.7hPa | 2.7V | 00:00:00 | 03:17:20 | 00:00:00 | |
| OE5MMP-10 | 2026-09-05 01:46:51 | 48.33277 | 14.17202 | 108° | 64km/h | 1674m | -2.8m/s | 15.4°C | 67.6% | 838.7hPa | 2.7V | 00:00:00 | 03:17:20 | 00:00:00 | |
| OE5WHR-10 | 2026-09-05 01:46:50 | 48.33282 | 14.17179 | 107° | 64km/h | 1677m | -2.6m/s | 0°C | 0% | 0hPa | 2.7V | 00:00:00 | 00:00:00 | 00:00:00 | |
| OE3JTB-15 | 2026-09-05 01:46:49 | 48.33286 | 14.17155 | 106° | 64km/h | 1679m | -2.7m/s | 15.4°C | 67.1% | 838.2hPa | 2.7V | 00:00:00 | 00:00:00 | 00:00:00 | |
| PG1ADW-2 | 2026-09-05 01:46:48 | 48.33290 | 14.17132 | 106° | 64km/h | 1682m | -2.8m/s | 15.4°C | 67.3% | 837.9hPa | 2.7V | 00:00:00 | 00:00:00 | 00:00:00 | |
| OE5DRO-10 | 2026-09-05 01:46:47 | 48.33295 | 14.17108 | 107° | 64km/h | 1685m | -2.5m/s | 15.3°C | 67.3% | 837.7hPa | 2.7V | 00:00:00 | 00:00:00 | 00:00:00 | |
| OE3JTB-15 | 2026-09-05 01:46:47 | 48.33295 | 14.17108 | 107° | 66km/h | 1685m | -2.5m/s | 15.3°C | 67.3% | 837.7hPa | 2.7V | 00:00:00 | 00:00:00 | 00:00:00 | |
| OE5MMP-10 | 2026-09-05 01:46:46 | 48.33299 | 14.17084 | 106° | 64km/h | 1688m | -2.6m/s | 15.3°C | 67.4% | 837.3hPa | 2.7V | 07:17:00 | 03:17:15 | 00:00:00 | |
| OE5HKT-10 | 2026-09-05 01:46:46 | 48.33299 | 14.17084 | 106° | 64km/h | 1688m | -2.6m/s | 15.3°C | 67.4% | 837.3hPa | 2.7V | 00:00:00 | 00:00:00 | 00:00:00 | |
| OE5WHR-10 | 2026-09-05 01:46:46 | 48.33299 | 14.17084 | 106° | 64km/h | 1688m | -2.6m/s | 15.3°C | 67.4% | 837.3hPa | 2.7V | 00:00:00 | 03:17:15 | 00:00:00 | |
| OE3JTB-15 | 2026-09-05 01:46:45 | 48.33303 | 14.17060 | 105° | 64km/h | 1690m | -2.7m/s | 15.3°C | 67.9% | 837.2hPa | 2.7V | 00:00:00 | 03:17:14 | 00:00:00 | |
| OE5FHM-15 | 2026-09-05 01:46:45 | 48.33303 | 14.17060 | 105° | 64km/h | 1690m | -2.7m/s | 15.3°C | 67.9% | 837.2hPa | 2.7V | 00:00:00 | 03:17:14 | 00:00:00 | |
| OE5WHR-10 | 2026-09-05 01:46:44 | 48.33308 | 14.17037 | 105° | 64km/h | 1693m | -2.8m/s | 0°C | 0% | 0hPa | 2.7V | 00:00:00 | 00:00:00 | 00:00:00 | |
| OE3JTB-15 | 2026-09-05 01:46:43 | 48.33312 | 14.17013 | 106° | 64km/h | 1696m | -2.6m/s | 15.3°C | 68.2% | 836.8hPa | 2.7V | 00:00:00 | 00:00:00 | 00:00:00 | |
| PG1ADW-2 | 2026-09-05 01:46:42 | 48.33316 | 14.16990 | 107° | 64km/h | 1699m | -2.6m/s | 15.3°C | 68.4% | 836.4hPa | 2.7V | 07:17:00 | 00:00:00 | 00:00:00 | |
| OE5MMP-10 | 2026-09-05 01:46:41 | 48.33321 | 14.16966 | 106° | 64km/h | 1701m | -2.5m/s | 15.3°C | 68.6% | 836.1hPa | 2.7V | 00:00:00 | 03:17:10 | 00:00:00 | |
| OE3JTB-15 | 2026-09-05 01:46:41 | 48.33321 | 14.16966 | 106° | 64km/h | 1701m | -2.5m/s | 15.3°C | 68.6% | 836.1hPa | 2.7V | 00:00:00 | 00:00:00 | 00:00:00 | |
| OE5DXL-15 | 2026-09-05 01:46:40 | 48.33325 | 14.16943 | 106° | 64km/h | 1704m | -2.5m/s | 15.2°C | 68.7% | 835.8hPa | 2.7V | 00:00:00 | 00:00:00 | 00:00:00 | |
| OE5DRO-10 | 2026-09-05 01:46:40 | 48.33325 | 14.16943 | 106° | 64km/h | 1704m | -2.5m/s | 15.2°C | 68.7% | 835.8hPa | 2.7V | 07:17:00 | 00:00:00 | 00:00:00 | |
| OE5HKT-10 | 2026-09-05 01:46:40 | 48.33325 | 14.16943 | 106° | 64km/h | 1704m | -2.5m/s | 15.2°C | 68.7% | 835.8hPa | 2.7V | 07:17:00 | 00:00:00 | 00:00:00 | |
| OE5WHR-10 | 2026-09-05 01:46:40 | 48.33325 | 14.16943 | 106° | 64km/h | 1704m | -2.5m/s | 15.2°C | 68.7% | 835.8hPa | 2.7V | 00:00:00 | 00:00:00 | 00:00:00 | |
| OE3JTB-15 | 2026-09-05 01:46:39 | 48.33329 | 14.16920 | 107° | 62km/h | 1706m | -2.5m/s | 15.2°C | 69.0% | 835.6hPa | 2.7V | 07:17:00 | 03:17:08 | 00:00:00 | |
| OE5WHR-10 | 2026-09-05 01:46:38 | 48.33334 | 14.16897 | 107° | 64km/h | 1709m | -2.6m/s | 0°C | 0% | 0hPa | 2.7V | 00:00:00 | 03:17:07 | 00:00:00 | |
| OE3JTB-15 | 2026-09-05 01:46:37 | 48.33338 | 14.16874 | 107° | 64km/h | 1712m | -2.5m/s | 15.2°C | 69.3% | 835.0hPa | 2.7V | 00:00:00 | 00:00:00 | 00:00:00 | |
| OE5MMP-10 | 2026-09-05 01:46:36 | 48.33342 | 14.16850 | 105° | 62km/h | 1714m | -2.6m/s | 15.1°C | 69.3% | 834.7hPa | 2.7V | 00:00:00 | 03:17:05 | 00:00:00 | |
| PG1ADW-2 | 2026-09-05 01:46:36 | 48.33342 | 14.16850 | 105° | 62km/h | 1714m | -2.6m/s | 15.1°C | 69.3% | 834.7hPa | 2.7V | 00:00:00 | 00:00:00 | 00:00:00 | |
| OE3JTB-15 | 2026-09-05 01:46:35 | 48.33347 | 14.16827 | 105° | 62km/h | 1717m | -2.7m/s | 15.1°C | 69.5% | 834.7hPa | 2.7V | 00:00:00 | 00:00:00 | 00:00:00 | |
| OE5FHM-15 | 2026-09-05 01:46:35 | 48.33347 | 14.16827 | 105° | 64km/h | 1717m | -2.7m/s | 15.1°C | 69.5% | 834.7hPa | 2.7V | 00:00:00 | 03:17:04 | 00:00:00 | |
| OE5HKT-10 | 2026-09-05 01:46:34 | 48.33351 | 14.16804 | 106° | 62km/h | 1720m | -2.7m/s | 15.1°C | 69.7% | 834.3hPa | 2.7V | 00:00:00 | 03:17:03 | 00:00:00 | |
| OE5WHR-10 | 2026-09-05 01:46:34 | 48.33351 | 14.16804 | 106° | 62km/h | 1720m | -2.7m/s | 15.1°C | 69.7% | 834.3hPa | 2.7V | 00:00:00 | 00:00:00 | 00:00:00 | |
| OE5DRO-10 | 2026-09-05 01:46:33 | 48.33355 | 14.16781 | 106° | 64km/h | 1722m | -2.8m/s | 15.1°C | 70.0% | 833.9hPa | 2.7V | 00:00:00 | 00:00:00 | 00:00:00 | |
| OE3JTB-15 | 2026-09-05 01:46:33 | 48.33355 | 14.16781 | 106° | 62km/h | 1722m | -2.8m/s | 15.1°C | 70.0% | 833.9hPa | 2.7V | 00:00:00 | 03:17:02 | 00:00:00 | |
| OE5WHR-10 | 2026-09-05 01:46:32 | 48.33359 | 14.16758 | 106° | 64km/h | 1725m | -2.7m/s | 0°C | 0% | 0hPa | 2.7V | 00:00:00 | 00:00:00 | 00:00:00 | |
| OE3JTB-15 | 2026-09-05 01:46:31 | 48.33363 | 14.16736 | 106° | 62km/h | 1728m | -2.6m/s | 15.0°C | 70.2% | 833.3hPa | 2.7V | 00:00:00 | 00:00:00 | 00:00:00 | |
| OE5MMP-10 | 2026-09-05 01:46:31 | 48.33363 | 14.16736 | 106° | 64km/h | 1728m | -2.6m/s | 15.0°C | 70.2% | 833.3hPa | 2.7V | 00:00:00 | 03:17:00 | 00:00:00 | |
| PG1ADW-2 | 2026-09-05 01:46:30 | 48.33368 | 14.16713 | 106° | 64km/h | 1731m | -2.7m/s | 15.0°C | 70.3% | 832.9hPa | 2.7V | 00:00:00 | 03:16:59 | 00:00:00 | |
| OE3JTB-15 | 2026-09-05 01:46:29 | 48.33372 | 14.16690 | 106° | 64km/h | 1733m | -2.8m/s | 15.0°C | 70.5% | 832.9hPa | 2.7V | 00:00:00 | 00:00:00 | 00:00:00 | |
| OE5HKT-10 | 2026-09-05 01:46:28 | 48.33376 | 14.16667 | 106° | 64km/h | 1736m | -2.7m/s | 14.9°C | 70.6% | 832.5hPa | 2.7V | 00:00:00 | 00:00:00 | 00:00:00 | |
| OE5WHR-10 | 2026-09-05 01:46:28 | 48.33376 | 14.16667 | 106° | 64km/h | 1736m | -2.7m/s | 14.9°C | 70.6% | 832.5hPa | 2.7V | 00:00:00 | 03:16:57 | 00:00:00 | |
| OE3JTB-15 | 2026-09-05 01:46:27 | 48.33380 | 14.16643 | 105° | 64km/h | 1739m | -2.7m/s | 14.9°C | 70.8% | 832.2hPa | 2.7V | 00:00:00 | 03:16:56 | 00:00:00 | |
| OE5DRO-10 | 2026-09-05 01:46:26 | 48.33384 | 14.16619 | 104° | 64km/h | 1742m | -2.9m/s | 14.9°C | 70.8% | 832.2hPa | 2.7V | 00:00:00 | 00:00:00 | 00:00:00 | |
| OE5WHR-10 | 2026-09-05 01:46:26 | 48.33384 | 14.16619 | 104° | 64km/h | 1742m | -2.9m/s | 0°C | 0% | 0hPa | 2.7V | 00:00:00 | 00:00:00 | 00:00:00 | |
| OE5MMP-10 | 2026-09-05 01:46:26 | 48.33384 | 14.16619 | 104° | 64km/h | 1742m | -2.9m/s | 14.9°C | 70.8% | 832.2hPa | 2.7V | 00:00:00 | 03:16:55 | 00:00:00 | |
| OE3JTB-15 | 2026-09-05 01:46:25 | 48.33388 | 14.16596 | 105° | 62km/h | 1745m | -2.7m/s | 14.9°C | 70.8% | 831.9hPa | 2.7V | 00:00:00 | 00:00:00 | 00:00:00 | |
| PG1ADW-2 | 2026-09-05 01:46:24 | 48.33392 | 14.16573 | 106° | 64km/h | 1748m | -2.8m/s | 14.8°C | 71.1% | 831.5hPa | 2.7V | 00:00:00 | 00:00:00 | 00:00:00 | |
| OE3JTB-15 | 2026-09-05 01:46:23 | 48.33397 | 14.16550 | 106° | 64km/h | 1750m | -2.8m/s | 14.8°C | 71.3% | 831.3hPa | 2.7V | 07:18:00 | 00:00:00 | 00:00:00 | |
| OE5FHM-15 | 2026-09-05 01:46:23 | 48.33397 | 14.16550 | 106° | 62km/h | 1750m | -2.8m/s | 14.8°C | 71.3% | 831.3hPa | 2.7V | 00:00:00 | 03:16:52 | 00:00:00 | |
| OE5HKT-10 | 2026-09-05 01:46:22 | 48.33401 | 14.16527 | 105° | 64km/h | 1754m | -2.7m/s | 14.8°C | 71.3% | 831.0hPa | 2.7V | 00:00:00 | 00:00:00 | 00:00:00 | |
| OE5WHR-10 | 2026-09-05 01:46:22 | 48.33401 | 14.16527 | 105° | 64km/h | 1754m | -2.7m/s | 14.8°C | 71.3% | 831.0hPa | 2.7V | 00:00:00 | 00:00:00 | 00:00:00 | |
| OE3JTB-15 | 2026-09-05 01:46:21 | 48.33405 | 14.16503 | 105° | 62km/h | 1756m | -2.7m/s | 14.8°C | 71.5% | 830.8hPa | 2.7V | 00:00:00 | 03:16:50 | 00:00:00 | |
| OE5MMP-10 | 2026-09-05 01:46:21 | 48.33405 | 14.16503 | 105° | 62km/h | 1756m | -2.7m/s | 14.8°C | 71.5% | 830.8hPa | 2.7V | 00:00:00 | 03:16:50 | 00:00:00 | |
| OE5DXL-15 | 2026-09-05 01:46:20 | 48.33409 | 14.16480 | 105° | 62km/h | 1759m | -2.7m/s | 14.7°C | 71.6% | 830.4hPa | 2.7V | 00:00:00 | 00:00:00 | 00:00:00 | |
| OE5WHR-10 | 2026-09-05 01:46:20 | 48.33409 | 14.16480 | 105° | 62km/h | 1759m | -2.7m/s | 0°C | 0% | 0hPa | 2.7V | 00:00:00 | 03:16:49 | 00:00:00 | |
| OE5DRO-10 | 2026-09-05 01:46:19 | 48.33413 | 14.16457 | 105° | 62km/h | 1762m | -2.9m/s | 14.7°C | 71.8% | 830.2hPa | 2.7V | 00:00:00 | 00:00:00 | 00:00:00 | |
| OE3JTB-15 | 2026-09-05 01:46:19 | 48.33413 | 14.16457 | 105° | 62km/h | 1762m | -2.9m/s | 14.7°C | 71.8% | 830.2hPa | 2.7V | 00:00:00 | 00:00:00 | 00:00:00 | |
| PG1ADW-2 | 2026-09-05 01:46:18 | 48.33417 | 14.16434 | 105° | 62km/h | 1764m | -2.6m/s | 14.7°C | 71.9% | 830.0hPa | 2.7V | 00:00:00 | 00:00:00 | 00:00:00 | |
| OE3JTB-15 | 2026-09-05 01:46:17 | 48.33421 | 14.16411 | 103° | 62km/h | 1767m | -2.6m/s | 14.7°C | 72.1% | 829.6hPa | 2.7V | 00:00:00 | 00:00:00 | 00:00:00 | |
| OE3JTB-15 | 2026-09-05 01:46:15 | 48.33428 | 14.16365 | 104° | 62km/h | 1773m | -2.8m/s | 14.6°C | 72.6% | 829.0hPa | 2.7V | 00:00:00 | 03:16:44 | 00:00:00 | |
| OE5WHR-10 | 2026-09-05 01:46:14 | 48.33432 | 14.16342 | 104° | 62km/h | 1775m | -2.7m/s | 0°C | 0% | 0hPa | 2.7V | 00:00:00 | 00:00:00 | 00:00:00 | |
| OE5FHM-15 | 2026-09-05 01:46:13 | 48.33435 | 14.16319 | 103° | 62km/h | 1778m | -2.7m/s | 14.6°C | 72.7% | 828.4hPa | 2.7V | 00:00:00 | 03:16:42 | 00:00:00 | |
| OE5DRO-10 | 2026-09-05 01:46:12 | 48.33438 | 14.16297 | 103° | 62km/h | 1781m | -2.7m/s | 14.5°C | 73.0% | 828.2hPa | 2.7V | 00:00:00 | 00:00:00 | 00:00:00 | |
| PG1ADW-2 | 2026-09-05 01:46:12 | 48.33438 | 14.16297 | 103° | 62km/h | 1781m | -2.7m/s | 14.5°C | 73.0% | 828.2hPa | 2.7V | 00:00:00 | 00:00:00 | 00:00:00 | |
| OE3JTB-15 | 2026-09-05 01:46:11 | 48.33442 | 14.16274 | 104° | 62km/h | 1784m | -2.7m/s | 14.5°C | 73.0% | 828.0hPa | 2.7V | 00:00:00 | 00:00:00 | 00:00:00 | |
| OE5MMP-10 | 2026-09-05 01:46:11 | 48.33442 | 14.16274 | 104° | 62km/h | 1784m | -2.7m/s | 14.5°C | 73.0% | 828.0hPa | 2.7V | 00:00:00 | 03:16:40 | 00:00:00 | |
| OE5WHR-10 | 2026-09-05 01:46:10 | 48.33445 | 14.16251 | 104° | 62km/h | 1786m | -2.5m/s | 14.5°C | 73.0% | 827.8hPa | 2.7V | 07:18:00 | 03:16:39 | 00:00:00 | |
| OE5HKT-10 | 2026-09-05 01:46:10 | 48.33445 | 14.16251 | 104° | 62km/h | 1786m | -2.5m/s | 14.5°C | 73.0% | 827.8hPa | 2.7V | 00:00:00 | 00:00:00 | 00:00:00 | |
| OE3JTB-15 | 2026-09-05 01:46:09 | 48.33449 | 14.16228 | 104° | 64km/h | 1789m | -2.6m/s | 14.5°C | 73.3% | 827.5hPa | 2.7V | 00:00:00 | 00:00:00 | 00:00:00 | |
| OE5WHR-10 | 2026-09-05 01:46:08 | 48.33453 | 14.16205 | 104° | 62km/h | 1792m | -2.7m/s | 0°C | 0% | 0hPa | 2.7V | 07:18:00 | 00:00:00 | 00:00:00 | |
| OE3JTB-15 | 2026-09-05 01:46:07 | 48.33456 | 14.16182 | 103° | 62km/h | 1795m | -2.6m/s | 14.4°C | 73.8% | 826.9hPa | 2.7V | 00:00:00 | 03:16:36 | 00:00:00 | |
| OE5MMP-10 | 2026-09-05 01:46:06 | 48.33460 | 14.16159 | 104° | 62km/h | 1797m | -2.6m/s | 14.4°C | 73.8% | 826.8hPa | 2.7V | 07:18:00 | 03:16:35 | 00:00:00 | |
| OE5DRO-10 | 2026-09-05 01:46:05 | 48.33463 | 14.16136 | 103° | 62km/h | 1800m | -2.6m/s | 14.4°C | 74.1% | 826.3hPa | 2.7V | 00:00:00 | 00:00:00 | 00:00:00 | |
| OE3JTB-15 | 2026-09-05 01:46:05 | 48.33463 | 14.16136 | 103° | 62km/h | 1800m | -2.6m/s | 14.4°C | 74.1% | 826.3hPa | 2.7V | 07:18:00 | 00:00:00 | 00:00:00 | |
| OE5HKT-10 | 2026-09-05 01:46:04 | 48.33483 | 14.16113 | 102° | 62km/h | 1803m | -2.6m/s | 14.3°C | 74.2% | 826.1hPa | 2.7V | 00:00:00 | 00:00:00 | 00:00:00 | |
| OE5WHR-10 | 2026-09-05 01:46:04 | 48.33483 | 14.16113 | 102° | 62km/h | 1803m | -2.6m/s | 14.3°C | 74.2% | 826.1hPa | 2.7V | 00:00:00 | 00:00:00 | 00:00:00 | |
| OE5FHM-15 | 2026-09-05 01:46:03 | 48.33470 | 14.16090 | 101° | 60km/h | 1805m | -2.6m/s | 14.3°C | 74.3% | 825.9hPa | 2.7V | 00:00:00 | 03:16:32 | 00:00:00 | |
| OE5WHR-10 | 2026-09-05 01:46:02 | 48.33473 | 14.16067 | 102° | 60km/h | 1808m | -2.8m/s | 0°C | 0% | 0hPa | 2.7V | 00:00:00 | 03:16:31 | 00:00:00 | |
| OE5MMP-10 | 2026-09-05 01:46:01 | 48.33475 | 14.16044 | 101° | 60km/h | 1811m | -2.9m/s | 14.3°C | 74.1% | 825.3hPa | 2.7V | 00:00:00 | 03:16:30 | 00:00:00 | |
| OE5DXL-15 | 2026-09-05 01:46:00 | 48.33478 | 14.16021 | 100° | 60km/h | 1814m | -2.6m/s | 14.3°C | 74.7% | 825.0hPa | 2.7V | 00:00:00 | 00:00:00 | 00:00:00 | |
| PG1ADW-2 | 2026-09-05 01:46:00 | 48.33478 | 14.16021 | 100° | 60km/h | 1814m | -2.6m/s | 14.3°C | 74.7% | 825.0hPa | 2.7V | 00:00:00 | 00:00:00 | 00:00:00 | |
| OE3JTB-15 | 2026-09-05 01:45:59 | 48.33481 | 14.15998 | 100° | 60km/h | 1817m | -2.7m/s | 14.2°C | 74.8% | 824.8hPa | 2.7V | 00:00:00 | 00:00:00 | 00:00:00 | |
| OE5DRO-10 | 2026-09-05 01:45:58 | 48.33483 | 14.15975 | 100° | 60km/h | 1819m | -2.7m/s | 14.2°C | 74.9% | 824.5hPa | 2.7V | 00:00:00 | 00:00:00 | 00:00:00 | |
| OE5WHR-10 | 2026-09-05 01:45:58 | 48.33483 | 14.15975 | 100° | 60km/h | 1819m | -2.7m/s | 14.2°C | 74.9% | 824.5hPa | 2.7V | 00:00:00 | 00:00:00 | 00:00:00 | |
| OE5HKT-10 | 2026-09-05 01:45:58 | 48.33483 | 14.15975 | 100° | 60km/h | 1819m | -2.7m/s | 14.2°C | 74.9% | 824.5hPa | 2.7V | 00:00:00 | 03:16:27 | 00:00:00 | |
| OE5MMP-10 | 2026-09-05 01:45:56 | 48.33489 | 14.15930 | 101° | 60km/h | 1825m | -2.6m/s | 14.2°C | 75.5% | 823.9hPa | 2.7V | 00:00:00 | 03:16:25 | 00:00:00 | |
| OE5WHR-10 | 2026-09-05 01:45:56 | 48.33489 | 14.15930 | 101° | 60km/h | 1825m | -2.6m/s | 0°C | 0% | 0hPa | 2.7V | 00:00:00 | 00:00:00 | 00:00:00 | |
| OE5HKT-10 | 2026-09-05 01:45:52 | 48.33499 | 14.15841 | 101° | 60km/h | 1836m | -2.7m/s | 14.1°C | 76.5% | 822.9hPa | 2.7V | 07:18:00 | 00:00:00 | 00:00:00 | |
| OE5WHR-10 | 2026-09-05 01:45:52 | 48.33499 | 14.15841 | 101° | 60km/h | 1836m | -2.7m/s | 14.1°C | 76.5% | 822.9hPa | 2.7V | 00:00:00 | 03:16:21 | 00:00:00 | |
| OE5DRO-10 | 2026-09-05 01:45:51 | 48.33502 | 14.15818 | 100° | 60km/h | 1839m | -2.8m/s | 14.0°C | 76.7% | 822.6hPa | 2.7V | 00:00:00 | 00:00:00 | 00:00:00 | |
| OE5MMP-10 | 2026-09-05 01:45:51 | 48.33502 | 14.15818 | 100° | 60km/h | 1839m | -2.8m/s | 14.0°C | 76.7% | 822.6hPa | 2.7V | 00:00:00 | 03:16:20 | 00:00:00 | |
| OE5FHM-15 | 2026-09-05 01:45:51 | 48.33502 | 14.15818 | 100° | 60km/h | 1839m | -2.8m/s | 14.0°C | 76.7% | 822.6hPa | 2.7V | 00:00:00 | 03:16:20 | 00:00:00 | |
| OE3JTB-15 | 2026-09-05 01:45:50 | 48.33504 | 14.15795 | 99° | 60km/h | 1841m | -2.9m/s | 14.0°C | 76.8% | 822.4hPa | 2.7V | 00:00:00 | 03:16:19 | 00:00:00 | |
| OE5WHR-10 | 2026-09-05 01:45:50 | 48.33504 | 14.15795 | 99° | 62km/h | 1841m | -2.9m/s | 0°C | 0% | 0hPa | 2.7V | 00:00:00 | 00:00:00 | 00:00:00 | |
| OE5MMP-10 | 2026-09-05 01:45:46 | 48.33514 | 14.15703 | 98° | 60km/h | 1853m | -2.9m/s | 13.9°C | 77.2% | 821.3hPa | 2.7V | 00:00:00 | 03:16:15 | 00:00:00 | |
| OE5WHR-10 | 2026-09-05 01:45:46 | 48.33514 | 14.15703 | 98° | 62km/h | 1853m | -2.9m/s | 13.9°C | 77.2% | 821.3hPa | 2.7V | 00:00:00 | 00:00:00 | 00:00:00 | |
| OE5HKT-10 | 2026-09-05 01:45:46 | 48.33514 | 14.15703 | 98° | 62km/h | 1853m | -2.9m/s | 13.9°C | 77.2% | 821.3hPa | 2.7V | 00:00:00 | 00:00:00 | 00:00:00 | |
| OE5DRO-10 | 2026-09-05 01:45:44 | 48.33518 | 14.15658 | 99° | 60km/h | 1859m | -3.0m/s | 13.8°C | 77.5% | 820.7hPa | 2.7V | 07:18:00 | 00:00:00 | 00:00:00 | |
| OE5WHR-10 | 2026-09-05 01:45:44 | 48.33518 | 14.15658 | 99° | 60km/h | 1859m | -3.0m/s | 0°C | 0% | 0hPa | 2.7V | 00:00:00 | 03:16:13 | 00:00:00 | |
| OE3JTB-15 | 2026-09-05 01:45:41 | 48.33524 | 14.15588 | 97° | 60km/h | 1868m | -2.7m/s | 13.8°C | 78.0% | 819.8hPa | 2.7V | 00:00:00 | 00:00:00 | 00:00:00 | |
| OE5FHM-15 | 2026-09-05 01:45:41 | 48.33524 | 14.15588 | 97° | 60km/h | 1868m | -2.7m/s | 13.8°C | 78.0% | 819.8hPa | 2.7V | 07:18:00 | 03:16:10 | 00:00:00 | |
| OE5MMP-10 | 2026-09-05 01:45:41 | 48.33524 | 14.15588 | 97° | 60km/h | 1868m | -2.7m/s | 13.8°C | 78.0% | 819.8hPa | 2.7V | 00:00:00 | 03:16:10 | 00:00:00 | |
| OE5DXL-15 | 2026-09-05 01:45:40 | 48.33526 | 14.15565 | 97° | 60km/h | 1871m | -3.1m/s | 13.8°C | 78.1% | 819.4hPa | 2.7V | 07:18:00 | 00:00:00 | 00:00:00 | |
| PG1ADW-2 | 2026-09-05 01:45:40 | 48.33526 | 14.15565 | 97° | 60km/h | 1871m | -3.1m/s | 13.8°C | 78.1% | 819.4hPa | 2.7V | 07:18:00 | 00:00:00 | 00:00:00 | |
| OE5HKT-10 | 2026-09-05 01:45:40 | 48.33526 | 14.15565 | 97° | 60km/h | 1871m | -3.1m/s | 13.8°C | 78.1% | 819.4hPa | 2.7V | 00:00:00 | 03:16:09 | 00:00:00 | |
| OE5WHR-10 | 2026-09-05 01:45:40 | 48.33526 | 14.15565 | 97° | 60km/h | 1871m | -3.1m/s | 13.8°C | 78.1% | 819.4hPa | 2.7V | 00:00:00 | 00:00:00 | 00:00:00 | |
| OE5DRO-10 | 2026-09-05 01:45:37 | 48.33532 | 14.15497 | 96° | 60km/h | 1880m | -2.8m/s | 13.7°C | 78.5% | 818.4hPa | 2.7V | 00:00:00 | 00:00:00 | 00:00:00 | |
| OE5MMP-10 | 2026-09-05 01:45:36 | 48.33533 | 14.15474 | 96° | 60km/h | 1883m | -3.0m/s | 13.7°C | 78.9% | 818.3hPa | 2.7V | 00:00:00 | 03:16:05 | 00:00:00 | |
| OE5HKT-10 | 2026-09-05 01:45:34 | 48.33536 | 14.15429 | 96° | 60km/h | 1889m | -3.0m/s | 13.6°C | 79.1% | 817.5hPa | 2.7V | 00:00:00 | 00:00:00 | 00:00:00 | |
| OE5WHR-10 | 2026-09-05 01:45:34 | 48.33536 | 14.15429 | 96° | 60km/h | 1889m | -3.0m/s | 13.6°C | 79.1% | 817.5hPa | 2.7V | 00:00:00 | 03:16:03 | 00:00:00 | |
| OE5WHR-10 | 2026-09-05 01:45:34 | 48.33536 | 14.15429 | 96° | 60km/h | 1889m | -3.0m/s | 0°C | 0% | 0hPa | 2.7V | 00:00:00 | 00:00:00 | 00:00:00 | |
| OE3JTB-15 | 2026-09-05 01:45:32 | 48.33538 | 14.15384 | 95° | 60km/h | 1895m | -3.0m/s | 13.6°C | 79.2% | 817.1hPa | 2.7V | 00:00:00 | 00:00:00 | 00:00:00 | |
| OE5MMP-10 | 2026-09-05 01:45:31 | 48.33540 | 14.15361 | 96° | 60km/h | 1898m | -3.0m/s | 13.5°C | 79.3% | 816.8hPa | 2.7V | 00:00:00 | 03:16:00 | 00:00:00 | |
| OE5FHM-15 | 2026-09-05 01:45:31 | 48.33540 | 14.15361 | 96° | 60km/h | 1898m | -3.0m/s | 13.5°C | 79.3% | 816.8hPa | 2.7V | 00:00:00 | 03:16:00 | 00:00:00 | |
| OE5DRO-10 | 2026-09-05 01:45:30 | 48.33541 | 14.15339 | 97° | 60km/h | 1901m | -2.9m/s | 13.5°C | 79.6% | 816.4hPa | 2.7V | 00:00:00 | 00:00:00 | 00:00:00 | |
| OE5HKT-10 | 2026-09-05 01:45:28 | 48.33544 | 14.15292 | 96° | 60km/h | 1907m | -2.9m/s | 13.5°C | 79.7% | 815.8hPa | 2.7V | 00:00:00 | 00:00:00 | 00:00:00 | |
| OE5WHR-10 | 2026-09-05 01:45:28 | 48.33544 | 14.15292 | 96° | 60km/h | 1907m | -2.9m/s | 13.5°C | 79.7% | 815.8hPa | 2.7V | 00:00:00 | 00:00:00 | 00:00:00 | |
| OE5MMP-10 | 2026-09-05 01:45:26 | 48.33547 | 14.15247 | 96° | 60km/h | 1913m | -2.9m/s | 13.4°C | 80.0% | 815.3hPa | 2.7V | 07:19:00 | 03:15:55 | 00:00:00 | |
| OE5WHR-10 | 2026-09-05 01:45:24 | 48.33550 | 14.15200 | 95° | 60km/h | 1919m | -3.0m/s | 0°C | 0% | 0hPa | 2.7V | 00:00:00 | 00:00:00 | 00:00:00 | |
| OE5DRO-10 | 2026-09-05 01:45:23 | 48.33551 | 14.15177 | 94° | 60km/h | 1922m | -2.9m/s | 13.3°C | 80.6% | 814.4hPa | 2.7V | 00:00:00 | 00:00:00 | 00:00:00 | |
| OE3JTB-15 | 2026-09-05 01:45:23 | 48.33551 | 14.15177 | 94° | 60km/h | 1922m | -2.9m/s | 13.3°C | 80.6% | 814.4hPa | 2.7V | 00:00:00 | 03:15:52 | 00:00:00 | |
| OE5MMP-10 | 2026-09-05 01:45:21 | 48.33553 | 14.15132 | 94° | 60km/h | 1928m | -2.9m/s | 13.3°C | 80.6% | 813.9hPa | 2.7V | 00:00:00 | 03:15:50 | 00:00:00 | |
| OE5FHM-15 | 2026-09-05 01:45:21 | 48.33553 | 14.15132 | 94° | 60km/h | 1928m | -2.9m/s | 13.3°C | 80.6% | 813.9hPa | 2.7V | 00:00:00 | 03:15:50 | 00:00:00 | |
| OE5DXL-15 | 2026-09-05 01:45:20 | 48.33554 | 14.15109 | 94° | 62km/h | 1931m | -2.8m/s | 13.3°C | 80.7% | 813.6hPa | 2.7V | 00:00:00 | 00:00:00 | 00:00:00 | |
| PG1ADW-2 | 2026-09-05 01:45:20 | 48.33554 | 14.15109 | 94° | 62km/h | 1931m | -2.8m/s | 13.3°C | 80.7% | 813.6hPa | 2.7V | 00:00:00 | 00:00:00 | 00:00:00 | |
| OE5WHR-10 | 2026-09-05 01:45:17 | 48.33556 | 14.15040 | 93° | 60km/h | 1940m | -3.0m/s | 0°C | 0% | 0hPa | 2.7V | 00:00:00 | 03:15:46 | 00:00:00 | |
| OE5DRO-10 | 2026-09-05 01:45:16 | 48.33557 | 14.15017 | 93° | 62km/h | 1943m | -2.9m/s | 13.2°C | 81.4% | 812.3hPa | 2.7V | 00:00:00 | 00:00:00 | 00:00:00 | |
| OE5MMP-10 | 2026-09-05 01:45:16 | 48.33557 | 14.15017 | 93° | 62km/h | 1943m | -2.9m/s | 13.2°C | 81.4% | 812.3hPa | 2.7V | 00:00:00 | 03:15:45 | 00:00:00 | |
| OE5HKT-10 | 2026-09-05 01:45:16 | 48.33557 | 14.15017 | 93° | 62km/h | 1943m | -2.9m/s | 13.2°C | 81.4% | 812.3hPa | 2.7V | 00:00:00 | 00:00:00 | 00:00:00 | |
| OE5WHR-10 | 2026-09-05 01:45:16 | 48.33557 | 14.15017 | 93° | 62km/h | 1943m | -2.9m/s | 13.2°C | 81.4% | 812.3hPa | 2.7V | 00:00:00 | 03:15:45 | 00:00:00 | |
| OE3JTB-15 | 2026-09-05 01:45:14 | 48.33558 | 14.14970 | 92° | 62km/h | 1949m | -2.9m/s | 13.2°C | 81.6% | 811.8hPa | 2.7V | 00:00:00 | 00:00:00 | 00:00:00 | |
| OE5WHR-10 | 2026-09-05 01:45:11 | 48.33559 | 14.14900 | 93° | 62km/h | 1958m | -2.9m/s | 0°C | 0% | 0hPa | 2.7V | 00:00:00 | 00:00:00 | 00:00:00 | |
| OE5FHM-15 | 2026-09-05 01:45:11 | 48.33559 | 14.14900 | 93° | 62km/h | 1958m | -2.9m/s | 13.1°C | 82.0% | 811.0hPa | 2.7V | 00:00:00 | 03:15:40 | 00:00:00 | |
| OE5MMP-10 | 2026-09-05 01:45:11 | 48.33559 | 14.14900 | 93° | 62km/h | 1958m | -2.9m/s | 13.1°C | 82.0% | 811.0hPa | 2.7V | 00:00:00 | 03:15:40 | 00:00:00 | |
| OE5HKT-10 | 2026-09-05 01:45:10 | 48.33560 | 14.14876 | 92° | 62km/h | 1960m | -3.0m/s | 13.1°C | 82.1% | 810.9hPa | 2.7V | 00:00:00 | 00:00:00 | 00:00:00 | |
| OE5WHR-10 | 2026-09-05 01:45:10 | 48.33560 | 14.14876 | 92° | 62km/h | 1960m | -3.0m/s | 13.1°C | 82.1% | 810.9hPa | 2.7V | 00:00:00 | 00:00:00 | 00:00:00 | |
| OE5DRO-10 | 2026-09-05 01:45:09 | 48.33560 | 14.14853 | 92° | 62km/h | 1964m | -3.0m/s | 13.1°C | 82.2% | 810.6hPa | 2.7V | 00:00:00 | 00:00:00 | 00:00:00 | |
| OE5MMP-10 | 2026-09-05 01:45:06 | 48.33562 | 14.14783 | 93° | 62km/h | 1973m | -2.9m/s | 13.0°C | 82.2% | 809.6hPa | 2.7V | 00:00:00 | 03:15:35 | 00:00:00 | |
| OE3JTB-15 | 2026-09-05 01:45:05 | 48.33563 | 14.14759 | 92° | 62km/h | 1975m | -2.9m/s | 13.0°C | 82.4% | 809.4hPa | 2.7V | 00:00:00 | 00:00:00 | 00:00:00 | |
| OE5HKT-10 | 2026-09-05 01:45:04 | 48.33563 | 14.14736 | 92° | 62km/h | 1978m | -2.9m/s | 13.0°C | 82.5% | 809.1hPa | 2.7V | 07:19:00 | 03:15:33 | 00:00:00 | |
| OE5WHR-10 | 2026-09-05 01:45:04 | 48.33563 | 14.14736 | 92° | 62km/h | 1978m | -2.9m/s | 13.0°C | 82.5% | 809.1hPa | 2.7V | 00:00:00 | 00:00:00 | 00:00:00 | |
| OE5DRO-10 | 2026-09-05 01:45:02 | 48.33565 | 14.14689 | 93° | 62km/h | 1984m | -2.8m/s | 12.9°C | 82.7% | 808.5hPa | 2.7V | 00:00:00 | 00:00:00 | 00:00:00 | |
| OE5MMP-10 | 2026-09-05 01:45:01 | 48.33565 | 14.14665 | 93° | 62km/h | 1987m | -2.9m/s | 12.9°C | 82.8% | 808.2hPa | 2.7V | 00:00:00 | 03:15:30 | 00:00:00 | |
| OE5FHM-15 | 2026-09-05 01:45:01 | 48.33565 | 14.14665 | 93° | 62km/h | 1987m | -2.9m/s | 12.9°C | 82.8% | 808.2hPa | 2.7V | 00:00:00 | 03:15:30 | 00:00:00 | |
| OE5DXL-15 | 2026-09-05 01:45:00 | 48.33566 | 14.14641 | 92° | 64km/h | 1990m | -3.0m/s | 12.9°C | 82.8% | 807.9hPa | 2.7V | 00:00:00 | 00:00:00 | 00:00:00 | |
| PG1ADW-2 | 2026-09-05 01:45:00 | 48.33566 | 14.14641 | 92° | 64km/h | 1990m | -3.0m/s | 12.9°C | 82.8% | 807.9hPa | 2.7V | 00:00:00 | 03:15:29 | 00:00:00 | |
| OE5HKT-10 | 2026-09-05 01:44:58 | 48.33567 | 14.14594 | 94° | 62km/h | 1996m | -2.8m/s | 12.9°C | 83.1% | 807.4hPa | 2.7V | 00:00:00 | 00:00:00 | 00:00:00 | |
| OE5WHR-10 | 2026-09-05 01:44:58 | 48.33567 | 14.14594 | 94° | 62km/h | 1996m | -2.8m/s | 12.9°C | 83.1% | 807.4hPa | 2.7V | 00:00:00 | 03:15:27 | 00:00:00 | |
| OE3JTB-15 | 2026-09-05 01:44:56 | 48.33569 | 14.14546 | 92° | 64km/h | 2002m | -2.9m/s | 12.9°C | 83.1% | 806.7hPa | 2.7V | 07:19:00 | 03:15:25 | 00:00:00 | |
| OE5DRO-10 | 2026-09-05 01:44:55 | 48.33569 | 14.14523 | 92° | 64km/h | 2005m | -2.9m/s | 12.9°C | 83.3% | 806.5hPa | 2.7V | 00:00:00 | 00:00:00 | 00:00:00 | |
| OE5HKT-10 | 2026-09-05 01:44:53 | 48.33570 | 14.14475 | 93° | 64km/h | 2011m | -3.0m/s | 12.9°C | 83.8% | 805.9hPa | 2.7V | 00:00:00 | 00:00:00 | 00:00:00 | |
| OE5WHR-10 | 2026-09-05 01:44:52 | 48.33571 | 14.14451 | 92° | 64km/h | 2014m | -3.1m/s | 12.8°C | 83.8% | 805.5hPa | 2.7V | 00:00:00 | 00:00:00 | 00:00:00 | |
| OE5FHM-15 | 2026-09-05 01:44:51 | 48.33571 | 14.14427 | 91° | 62km/h | 2017m | -3.0m/s | 12.8°C | 83.8% | 805.2hPa | 2.7V | 00:00:00 | 03:15:20 | 00:00:00 | |
| OE5HKT-10 | 2026-09-05 01:44:47 | 48.33573 | 14.14330 | 91° | 64km/h | 2029m | -3.0m/s | 12.7°C | 84.5% | 804.3hPa | 2.7V | 00:00:00 | 03:15:16 | 00:00:00 | |
| OE5WHR-10 | 2026-09-05 01:44:46 | 48.33573 | 14.14306 | 92° | 64km/h | 2032m | -2.9m/s | 12.7°C | 84.7% | 803.8hPa | 2.7V | 00:00:00 | 00:00:00 | 00:00:00 | |
| OE5HKT-10 | 2026-09-05 01:44:41 | 48.33576 | 14.14186 | 94° | 64km/h | 2047m | -2.9m/s | 12.6°C | 85.4% | 802.5hPa | 2.7V | 00:00:00 | 00:00:00 | 00:00:00 | |
| OE5WHR-10 | 2026-09-05 01:44:40 | 48.33577 | 14.14162 | 93° | 64km/h | 2050m | -3.1m/s | 12.5°C | 85.5% | 802.2hPa | 2.7V | 00:00:00 | 03:15:09 | 00:00:00 | |
| OE3JTB-15 | 2026-09-05 01:44:38 | 48.33578 | 14.14114 | 91° | 62km/h | 2056m | -2.9m/s | 12.5°C | 85.8% | 801.7hPa | 2.7V | 00:00:00 | 00:00:00 | 00:00:00 | |
| OE5MMP-10 | 2026-09-05 01:44:36 | 48.33578 | 14.14066 | 92° | 62km/h | 2062m | -2.9m/s | 12.4°C | 86.2% | 800.9hPa | 2.7V | 07:19:00 | 03:15:05 | 00:00:00 | |
| OE5HKT-10 | 2026-09-05 01:44:35 | 48.33579 | 14.14042 | 91° | 62km/h | 2065m | -2.9m/s | 12.4°C | 86.3% | 800.9hPa | 2.7V | 00:00:00 | 00:00:00 | 00:00:00 | |
| OE5HKT-10 | 2026-09-05 01:44:34 | 48.33579 | 14.14019 | 91° | 62km/h | 2068m | -2.9m/s | 12.4°C | 86.4% | 800.4hPa | 2.7V | 00:00:00 | 00:00:00 | 00:00:00 | |
| OE5HKT-10 | 2026-09-05 01:44:29 | 48.33580 | 14.13900 | 91° | 64km/h | 2083m | -3.0m/s | 12.3°C | 87.2% | 799.0hPa | 2.7V | 07:20:00 | 03:14:58 | 00:00:00 | |
| OE5WHR-10 | 2026-09-05 01:44:28 | 48.33580 | 14.13876 | 92° | 62km/h | 2086m | -3.0m/s | 12.3°C | 87.3% | 798.8hPa | 2.7V | 00:00:00 | 00:00:00 | 00:00:00 | |
| OE5DRO-10 | 2026-09-05 01:44:27 | 48.33581 | 14.13852 | 92° | 62km/h | 2089m | -2.9m/s | 12.2°C | 87.4% | 798.6hPa | 2.7V | 00:00:00 | 00:00:00 | 00:00:00 | |
| OE5MMP-10 | 2026-09-05 01:44:26 | 48.33581 | 14.13828 | 92° | 62km/h | 2092m | -2.9m/s | 12.2°C | 87.7% | 798.2hPa | 2.7V | 00:00:00 | 03:14:55 | 00:00:00 | |
| OE5HKT-10 | 2026-09-05 01:44:23 | 48.33582 | 14.13756 | 92° | 62km/h | 2101m | -3.1m/s | 12.2°C | 88.0% | 797.2hPa | 2.7V | 00:00:00 | 00:00:00 | 00:00:00 | |
| OE5WHR-10 | 2026-09-05 01:44:22 | 48.33583 | 14.13732 | 92° | 62km/h | 2104m | -3.2m/s | 12.1°C | 88.0% | 796.9hPa | 2.7V | 00:00:00 | 03:14:51 | 00:00:00 | |
| OE5DXL-15 | 2026-09-05 01:44:20 | 48.33583 | 14.13685 | 90° | 62km/h | 2110m | -2.9m/s | 12.1°C | 88.2% | 796.4hPa | 2.7V | 00:00:00 | 00:00:00 | 00:00:00 | |
| OE5WHR-10 | 2026-09-05 01:44:16 | 48.33583 | 14.13591 | 90° | 62km/h | 2122m | -3.1m/s | 12.0°C | 88.7% | 795.3hPa | 2.7V | 00:00:00 | 00:00:00 | 00:00:00 | |
| OE5DRO-10 | 2026-09-05 01:44:13 | 48.33584 | 14.13520 | 92° | 62km/h | 2131m | -3.0m/s | 11.9°C | 89.1% | 794.3hPa | 2.7V | 00:00:00 | 00:00:00 | 00:00:00 | |
| OE3JTB-15 | 2026-09-05 01:44:11 | 48.33584 | 14.13471 | 90° | 62km/h | 2138m | -3.0m/s | 11.8°C | 89.5% | 793.9hPa | 2.7V | 00:00:00 | 00:00:00 | 00:00:00 | |
| OE5HKT-10 | 2026-09-05 01:44:10 | 48.33584 | 14.13448 | 90° | 62km/h | 2141m | -3.0m/s | 11.8°C | 89.7% | 793.4hPa | 2.7V | 00:00:00 | 03:14:39 | 00:00:00 | |
| OE5FHM-15 | 2026-09-05 01:44:09 | 48.33584 | 14.13424 | 91° | 64km/h | 2144m | -3.1m/s | 11.8°C | 89.8% | 793.2hPa | 2.7V | 00:00:00 | 03:14:38 | 00:00:00 | |
| OE5MMP-10 | 2026-09-05 01:44:06 | 48.33584 | 14.13352 | 90° | 64km/h | 2153m | -3.2m/s | 11.7°C | 90.2% | 792.3hPa | 2.7V | 00:00:00 | 03:14:35 | 00:00:00 | |
| OE5WHR-10 | 2026-09-05 01:44:04 | 48.33584 | 14.13305 | 91° | 64km/h | 2159m | -3.0m/s | 11.6°C | 90.5% | 791.6hPa | 2.7V | 00:00:00 | 03:14:33 | 00:00:00 | |
| OE3JTB-15 | 2026-09-05 01:44:02 | 48.33584 | 14.13257 | 91° | 64km/h | 2165m | -2.9m/s | 11.6°C | 90.8% | 791.1hPa | 2.7V | 00:00:00 | 03:14:31 | 00:00:00 | |
| OE5DXL-15 | 2026-09-05 01:44:00 | 48.33585 | 14.13208 | 92° | 66km/h | 2171m | -3.0m/s | 11.5°C | 91.0% | 790.6hPa | 2.7V | 00:00:00 | 00:00:00 | 00:00:00 | |
| OE5DRO-10 | 2026-09-05 01:43:59 | 48.33585 | 14.13184 | 94° | 64km/h | 2174m | -3.0m/s | 11.5°C | 90.9% | 790.2hPa | 2.7V | 00:00:00 | 00:00:00 | 00:00:00 | |
| OE5WHR-10 | 2026-09-05 01:43:58 | 48.33586 | 14.13160 | 93° | 66km/h | 2177m | -3.1m/s | 11.5°C | 90.9% | 790.1hPa | 2.7V | 00:00:00 | 00:00:00 | 00:00:00 | |
| OE5MMP-10 | 2026-09-05 01:43:56 | 48.33587 | 14.13111 | 92° | 66km/h | 2183m | -2.9m/s | 11.4°C | 91.1% | 789.4hPa | 2.7V | 00:00:00 | 03:14:25 | 00:00:00 | |
| OE3JTB-15 | 2026-09-05 01:43:53 | 48.33589 | 14.13037 | 92° | 68km/h | 2191m | -2.4m/s | 11.4°C | 91.2% | 788.6hPa | 2.7V | 00:00:00 | 00:00:00 | 00:00:00 | |
| OE5HKT-10 | 2026-09-05 01:43:52 | 48.33589 | 14.13012 | 91° | 66km/h | 2194m | -2.8m/s | 11.4°C | 91.2% | 788.4hPa | 2.7V | 00:00:00 | 03:14:21 | 00:00:00 | |
| OE5FHM-15 | 2026-09-05 01:43:49 | 48.33590 | 14.12937 | 91° | 68km/h | 2202m | -2.6m/s | 11.3°C | 91.4% | 787.7hPa | 2.7V | 07:20:00 | 03:14:18 | 00:00:00 | |
| OE5HKT-10 | 2026-09-05 01:43:46 | 48.33590 | 14.12860 | 91° | 68km/h | 2211m | -2.9m/s | 11.3°C | 90.6% | 786.9hPa | 2.7V | 00:00:00 | 00:00:00 | 00:00:00 | |
| OE5DRO-10 | 2026-09-05 01:43:45 | 48.33590 | 14.12835 | 92° | 68km/h | 2214m | -3.3m/s | 11.3°C | 90.4% | 786.6hPa | 2.7V | 00:00:00 | 00:00:00 | 00:00:00 | |
| OE3JTB-15 | 2026-09-05 01:43:44 | 48.33591 | 14.12809 | 91° | 68km/h | 2217m | -2.8m/s | 11.2°C | 90.7% | 786.3hPa | 2.7V | 07:20:00 | 00:00:00 | 00:00:00 | |
| OE5DXL-15 | 2026-09-05 01:43:40 | 48.33593 | 14.12706 | 93° | 69km/h | 2230m | -3.6m/s | 11.1°C | 91.1% | 785.2hPa | 2.7V | 00:00:00 | 00:00:00 | 00:00:00 | |
| OE5DRO-10 | 2026-09-05 01:43:38 | 48.33594 | 14.12654 | 92° | 68km/h | 2237m | -3.2m/s | 11.1°C | 90.7% | 784.5hPa | 2.7V | 00:00:00 | 00:00:00 | 00:00:00 | |
| OE5MMP-10 | 2026-09-05 01:43:36 | 48.33595 | 14.12603 | 94° | 68km/h | 2243m | -3.2m/s | 11.2°C | 89.2% | 783.9hPa | 2.7V | 00:00:00 | 03:14:05 | 00:00:00 | |
| OE3JTB-15 | 2026-09-05 01:43:35 | 48.33596 | 14.12577 | 93° | 68km/h | 2246m | -3.1m/s | 11.2°C | 87.7% | 783.7hPa | 2.7V | 00:00:00 | 03:14:04 | 00:00:00 | |
| OE5WHR-10 | 2026-09-05 01:43:34 | 48.33597 | 14.12551 | 93° | 68km/h | 2249m | -3.4m/s | 11.1°C | 87.9% | 783.4hPa | 2.7V | 00:00:00 | 00:00:00 | 00:00:00 | |
| OE5DRO-10 | 2026-09-05 01:43:31 | 48.33600 | 14.12474 | 94° | 69km/h | 2259m | -3.2m/s | 11.0°C | 88.8% | 782.3hPa | 2.7V | 00:00:00 | 00:00:00 | 00:00:00 | |
| OE5FHM-15 | 2026-09-05 01:43:29 | 48.33602 | 14.12422 | 93° | 69km/h | 2266m | -3.1m/s | 11.0°C | 88.5% | 781.8hPa | 2.7V | 00:00:00 | 03:13:58 | 00:00:00 | |
| OE5WHR-10 | 2026-09-05 01:43:28 | 48.33603 | 14.12395 | 93° | 69km/h | 2269m | -3.2m/s | 11.0°C | 88.8% | 781.5hPa | 2.7V | 00:00:00 | 03:13:57 | 00:00:00 | |
| OE3JTB-15 | 2026-09-05 01:43:26 | 48.33604 | 14.12344 | 94° | 69km/h | 2276m | -3.0m/s | 10.9°C | 88.6% | 780.8hPa | 2.7V | 00:00:00 | 00:00:00 | 00:00:00 | |
| OE5DRO-10 | 2026-09-05 01:43:24 | 48.33606 | 14.12291 | 94° | 69km/h | 2282m | -3.2m/s | 10.9°C | 85.9% | 780.2hPa | 2.7V | 00:00:00 | 00:00:00 | 00:00:00 | |
| OE5WHR-10 | 2026-09-05 01:43:22 | 48.33608 | 14.12238 | 93° | 69km/h | 2288m | -2.9m/s | 10.8°C | 87.5% | 779.7hPa | 2.7V | 00:00:00 | 00:00:00 | 00:00:00 | |
| OE5DXL-15 | 2026-09-05 01:43:20 | 48.33610 | 14.12186 | 95° | 69km/h | 2294m | -2.9m/s | 10.8°C | 87.5% | 779.0hPa | 2.7V | 00:00:00 | 00:00:00 | 00:00:00 | |
| OE3JTB-15 | 2026-09-05 01:43:17 | 48.33614 | 14.12107 | 95° | 69km/h | 2303m | -3.0m/s | 10.6°C | 90.0% | 778.2hPa | 2.7V | 00:00:00 | 00:00:00 | 00:00:00 | |
| OE5HKT-10 | 2026-09-05 01:43:16 | 48.33616 | 14.12081 | 96° | 69km/h | 2306m | -3.1m/s | 0°C | 0% | 0hPa | 2.7V | 00:00:00 | 03:13:45 | 00:00:00 | |
| OE5HKT-10 | 2026-09-05 01:43:09 | 48.33625 | 14.11897 | 95° | 69km/h | 2327m | -3.0m/s | 10.6°C | 85.9% | 776.1hPa | 2.7V | 00:00:00 | 00:00:00 | 00:00:00 | |
| OE5MMP-10 | 2026-09-05 01:43:06 | 48.33629 | 14.11818 | 94° | 69km/h | 2336m | -2.9m/s | 10.5°C | 87.1% | 775.2hPa | 2.7V | 00:00:00 | 03:13:35 | 00:00:00 | |
| OE5WHR-10 | 2026-09-05 01:43:02 | 48.33634 | 14.11710 | 94° | 69km/h | 2348m | -2.9m/s | 10.6°C | 79.1% | 774.1hPa | 2.7V | 00:00:00 | 03:13:31 | 00:00:00 | |
| OE5DXL-15 | 2026-09-05 01:43:00 | 48.33637 | 14.11657 | 95° | 69km/h | 2354m | -2.9m/s | 10.6°C | 78.1% | 773.6hPa | 2.7V | 07:21:00 | 00:00:00 | 00:00:00 | |
| OE5MMP-10 | 2026-09-05 01:42:56 | 48.33642 | 14.11553 | 95° | 69km/h | 2365m | -2.9m/s | 10.5°C | 77.3% | 772.6hPa | 2.7V | 00:00:00 | 03:13:25 | 00:00:00 | |
| OE5DRO-10 | 2026-09-05 01:42:53 | 48.33646 | 14.11474 | 95° | 69km/h | 2374m | -2.9m/s | 10.4°C | 77.5% | 771.8hPa | 2.6V | 00:00:00 | 00:00:00 | 00:00:00 | |
| OE5HKT-10 | 2026-09-05 01:42:52 | 48.33647 | 14.11448 | 95° | 69km/h | 2377m | -2.9m/s | 10.4°C | 77.7% | 771.5hPa | 2.6V | 00:00:00 | 00:00:00 | 00:00:00 | |
| OE3JTB-15 | 2026-09-05 01:42:49 | 48.33652 | 14.11368 | 95° | 69km/h | 2385m | -2.8m/s | 10.4°C | 75.9% | 770.7hPa | 2.6V | 00:00:00 | 00:00:00 | 00:00:00 | |
| OE5FHM-15 | 2026-09-05 01:42:46 | 48.33656 | 14.11289 | 94° | 69km/h | 2394m | -2.7m/s | 10.3°C | 76.3% | 770.0hPa | 2.7V | 00:00:00 | 03:13:15 | 00:00:00 | |
| OE5WHR-10 | 2026-09-05 01:42:45 | 48.33657 | 14.11262 | 94° | 69km/h | 2397m | -2.7m/s | 10.3°C | 76.5% | 769.7hPa | 2.7V | 00:00:00 | 00:00:00 | 00:00:00 | |
| PG1ADW-2 | 2026-09-05 01:42:40 | 48.33663 | 14.11130 | 94° | 69km/h | 2411m | -2.8m/s | 10.1°C | 77.0% | 768.3hPa | 2.7V | 00:00:00 | 00:00:00 | 00:00:00 | |
| OE5DRO-10 | 2026-09-05 01:42:37 | 48.33666 | 14.11051 | 95° | 69km/h | 2419m | -2.8m/s | 10.1°C | 77.3% | 767.6hPa | 2.7V | 07:21:00 | 00:00:00 | 00:00:00 | |
| OE5MMP-10 | 2026-09-05 01:42:36 | 48.33668 | 14.11025 | 94° | 69km/h | 2422m | -2.6m/s | 10.0°C | 77.4% | 767.4hPa | 2.7V | 00:00:00 | 03:13:05 | 00:00:00 | |
| OE5HKT-10 | 2026-09-05 01:42:35 | 48.33669 | 14.10999 | 93° | 69km/h | 2425m | -2.5m/s | 10.0°C | 77.5% | 767.1hPa | 2.7V | 00:00:00 | 03:13:04 | 00:00:00 | |
| OE3JTB-15 | 2026-09-05 01:42:30 | 48.33673 | 14.10869 | 93° | 69km/h | 2438m | -2.7m/s | 9.9°C | 78.2% | 765.9hPa | 2.7V | 00:00:00 | 00:00:00 | 00:00:00 | |
| OE5WHR-10 | 2026-09-05 01:42:28 | 48.33675 | 14.10817 | 94° | 69km/h | 2444m | -2.7m/s | 9.8°C | 78.4% | 765.3hPa | 2.7V | 07:22:00 | 00:00:00 | 00:00:00 | |
| OE5MMP-10 | 2026-09-05 01:42:26 | 48.33677 | 14.10764 | 94° | 69km/h | 2449m | -2.6m/s | 9.8°C | 78.7% | 764.8hPa | 2.7V | 00:00:00 | 03:12:55 | 00:00:00 | |
| OE5FHM-15 | 2026-09-05 01:42:25 | 48.33678 | 14.10736 | 93° | 69km/h | 2452m | -2.6m/s | 9.8°C | 78.7% | 764.5hPa | 2.7V | 00:00:00 | 03:12:54 | 00:00:00 | |
| OE5DRO-10 | 2026-09-05 01:42:21 | 48.33682 | 14.10630 | 93° | 69km/h | 2463m | -2.7m/s | 9.7°C | 79.0% | 763.5hPa | 2.7V | 00:00:00 | 00:00:00 | 00:00:00 | |
| PG1ADW-2 | 2026-09-05 01:42:20 | 48.33682 | 14.10603 | 93° | 69km/h | 2466m | -2.6m/s | 9.6°C | 79.2% | 763.4hPa | 2.7V | 00:00:00 | 03:12:49 | 00:00:00 | |
| OE5HKT-10 | 2026-09-05 01:42:18 | 48.33684 | 14.10551 | 93° | 69km/h | 2471m | -2.5m/s | 9.6°C | 79.2% | 763.0hPa | 2.7V | 00:00:00 | 00:00:00 | 00:00:00 | |
| OE5MMP-10 | 2026-09-05 01:42:16 | 48.33685 | 14.10498 | 92° | 69km/h | 2476m | -2.6m/s | 9.6°C | 79.3% | 762.5hPa | 2.7V | 00:00:00 | 03:12:45 | 00:00:00 | |
| OE5WHR-10 | 2026-09-05 01:42:11 | 48.33688 | 14.10367 | 91° | 69km/h | 2489m | -2.6m/s | 9.5°C | 79.5% | 761.3hPa | 2.7V | 00:00:00 | 03:12:40 | 00:00:00 | |
| OE3JTB-15 | 2026-09-05 01:42:10 | 48.33688 | 14.10341 | 92° | 69km/h | 2492m | -2.6m/s | 9.4°C | 79.4% | 761.1hPa | 2.7V | 00:00:00 | 03:12:39 | 00:00:00 | |
| OE5MMP-10 | 2026-09-05 01:42:06 | 48.33690 | 14.10238 | 92° | 69km/h | 2502m | -2.6m/s | 9.3°C | 79.8% | 760.0hPa | 2.7V | 00:00:00 | 03:12:35 | 00:00:00 | |
| OE5DRO-10 | 2026-09-05 01:42:05 | 48.33690 | 14.10212 | 92° | 69km/h | 2505m | -2.5m/s | 9.3°C | 79.8% | 759.7hPa | 2.7V | 00:00:00 | 00:00:00 | 00:00:00 | |
| OE5HKT-10 | 2026-09-05 01:42:01 | 48.33692 | 14.10106 | 91° | 69km/h | 2515m | -2.5m/s | 9.2°C | 80.3% | 758.9hPa | 2.7V | 00:00:00 | 00:00:00 | 00:00:00 | |
| OE5DXL-15 | 2026-09-05 01:42:00 | 48.33692 | 14.10080 | 92° | 69km/h | 2517m | -2.4m/s | 9.2°C | 81.3% | 758.5hPa | 2.7V | 00:00:00 | 00:00:00 | 00:00:00 | |
| OE5MMP-10 | 2026-09-05 01:41:56 | 48.33693 | 14.09975 | 92° | 69km/h | 2528m | -2.4m/s | 9.1°C | 83.3% | 757.7hPa | 2.7V | 07:22:00 | 03:12:25 | 00:00:00 | |
| OE5WHR-10 | 2026-09-05 01:41:54 | 48.33693 | 14.09923 | 90° | 69km/h | 2533m | -2.2m/s | 9.1°C | 83.2% | 757.2hPa | 2.7V | 00:00:00 | 00:00:00 | 00:00:00 | |
| OE3JTB-15 | 2026-09-05 01:41:51 | 48.33693 | 14.09845 | 91° | 69km/h | 2540m | -2.3m/s | 9.0°C | 81.4% | 756.4hPa | 2.6V | 07:22:00 | 00:00:00 | 00:00:00 | |
| OE5DRO-10 | 2026-09-05 01:41:49 | 48.33693 | 14.09792 | 90° | 69km/h | 2545m | -2.6m/s | 9.0°C | 81.6% | 756.1hPa | 2.6V | 00:00:00 | 00:00:00 | 00:00:00 | |
| OE5MMP-10 | 2026-09-05 01:41:46 | 48.33693 | 14.09714 | 91° | 69km/h | 2553m | -2.6m/s | 8.9°C | 82.2% | 755.4hPa | 2.6V | 00:00:00 | 03:12:15 | 00:00:00 | |
| OE5HKT-10 | 2026-09-05 01:41:44 | 48.33693 | 14.09661 | 89° | 69km/h | 2558m | -2.4m/s | 8.9°C | 82.6% | 755.0hPa | 2.6V | 07:22:00 | 03:12:13 | 00:00:00 | |
| OE5FHM-15 | 2026-09-05 01:41:40 | 48.33692 | 14.09556 | 89° | 69km/h | 2568m | -2.4m/s | 8.8°C | 83.1% | 754.1hPa | 2.6V | 00:00:00 | 03:12:09 | 00:00:00 | |
| OE5WHR-10 | 2026-09-05 01:41:37 | 48.33691 | 14.09477 | 89° | 69km/h | 2575m | -2.3m/s | 8.8°C | 83.1% | 753.3hPa | 2.6V | 00:00:00 | 00:00:00 | 00:00:00 | |
| OE5MMP-10 | 2026-09-05 01:41:36 | 48.33690 | 14.09451 | 89° | 69km/h | 2577m | -2.5m/s | 8.7°C | 82.9% | 753.0hPa | 2.6V | 00:00:00 | 03:12:05 | 00:00:00 | |
| OE5DRO-10 | 2026-09-05 01:41:33 | 48.33688 | 14.09372 | 89° | 69km/h | 2585m | -2.5m/s | 8.7°C | 82.9% | 752.5hPa | 2.6V | 00:00:00 | 00:00:00 | 00:00:00 | |
| OE3JTB-15 | 2026-09-05 01:41:32 | 48.33688 | 14.09346 | 90° | 69km/h | 2587m | -2.4m/s | 8.7°C | 83.2% | 752.2hPa | 2.7V | 00:00:00 | 00:00:00 | 00:00:00 | |
| OE5DXL-15 | 2026-09-05 01:41:30 | 48.33688 | 14.09293 | 89° | 68km/h | 2592m | -2.3m/s | 8.6°C | 83.1% | 752.0hPa | 2.7V | 00:00:00 | 00:00:00 | 00:00:00 | |
| OE5HKT-10 | 2026-09-05 01:41:27 | 48.33686 | 14.09215 | 89° | 69km/h | 2600m | -2.6m/s | 8.6°C | 83.6% | 751.1hPa | 2.6V | 00:00:00 | 00:00:00 | 00:00:00 | |
| OE5MMP-10 | 2026-09-05 01:41:26 | 48.33686 | 14.09189 | 88° | 68km/h | 2602m | -2.5m/s | 8.5°C | 83.3% | 750.8hPa | 2.7V | 00:00:00 | 03:11:55 | 00:00:00 | |
| OE5WHR-10 | 2026-09-05 01:41:20 | 48.33682 | 14.09033 | 88° | 68km/h | 2618m | -2.5m/s | 8.4°C | 83.2% | 749.5hPa | 2.7V | 00:00:00 | 03:11:49 | 00:00:00 | |
| OE5DRO-10 | 2026-09-05 01:41:17 | 48.33680 | 14.08956 | 90° | 68km/h | 2626m | -2.5m/s | 8.4°C | 83.5% | 748.6hPa | 2.7V | 00:00:00 | 00:00:00 | 00:00:00 | |
| OE5MMP-10 | 2026-09-05 01:41:16 | 48.33680 | 14.08929 | 89° | 68km/h | 2628m | -2.4m/s | 8.4°C | 83.7% | 748.5hPa | 2.7V | 00:00:00 | 03:11:45 | 00:00:00 | |
| OE3JTB-15 | 2026-09-05 01:41:13 | 48.33679 | 14.08850 | 89° | 68km/h | 2635m | -2.4m/s | 8.3°C | 83.9% | 747.9hPa | 2.7V | 00:00:00 | 03:11:42 | 00:00:00 | |
| OE5HKT-10 | 2026-09-05 01:41:10 | 48.33677 | 14.08773 | 89° | 68km/h | 2642m | -2.4m/s | 8.3°C | 84.1% | 747.2hPa | 2.7V | 00:00:00 | 00:00:00 | 00:00:00 | |
| OE5MMP-10 | 2026-09-05 01:41:06 | 48.33675 | 14.08670 | 88° | 68km/h | 2652m | -2.6m/s | 8.2°C | 84.4% | 746.3hPa | 2.7V | 00:00:00 | 03:11:35 | 00:00:00 | |
| OE5WHR-10 | 2026-09-05 01:41:03 | 48.33673 | 14.08593 | 88° | 68km/h | 2659m | -2.5m/s | 8.1°C | 84.8% | 745.7hPa | 2.7V | 00:00:00 | 00:00:00 | 00:00:00 | |
| OE5DRO-10 | 2026-09-05 01:41:01 | 48.33671 | 14.08542 | 88° | 68km/h | 2665m | -2.7m/s | 8.1°C | 84.9% | 745.2hPa | 2.7V | 00:00:00 | 00:00:00 | 00:00:00 | |
| OE5FHM-15 | 2026-09-05 01:41:00 | 48.33671 | 14.08517 | 89° | 68km/h | 2667m | -2.5m/s | 8.0°C | 85.1% | 744.9hPa | 2.7V | 07:23:00 | 03:11:29 | 00:00:00 | |
| OE5MMP-10 | 2026-09-05 01:40:56 | 48.33668 | 14.08415 | 88° | 68km/h | 2677m | -2.8m/s | 7.9°C | 85.6% | 744.0hPa | 2.7V | 00:00:00 | 03:11:25 | 00:00:00 | |
| OE5HKT-10 | 2026-09-05 01:40:53 | 48.33666 | 14.08339 | 87° | 68km/h | 2685m | -2.4m/s | 7.9°C | 85.1% | 743.4hPa | 2.7V | 00:00:00 | 03:11:22 | 00:00:00 | |
| OE3JTB-15 | 2026-09-05 01:40:52 | 48.33665 | 14.08314 | 87° | 68km/h | 2688m | -2.6m/s | 7.9°C | 84.9% | 743.1hPa | 2.7V | 00:00:00 | 00:00:00 | 00:00:00 | |
| OE5WHR-10 | 2026-09-05 01:40:46 | 48.33660 | 14.08162 | 88° | 68km/h | 2704m | -2.5m/s | 7.8°C | 85.6% | 741.6hPa | 2.7V | 00:00:00 | 00:00:00 | 00:00:00 | |
| OE5DRO-10 | 2026-09-05 01:40:45 | 48.33660 | 14.08136 | 88° | 68km/h | 2706m | -2.6m/s | 7.8°C | 85.5% | 741.4hPa | 2.7V | 00:00:00 | 00:00:00 | 00:00:00 | |
| OE5FHM-15 | 2026-09-05 01:40:40 | 48.33654 | 14.08006 | 87° | 69km/h | 2719m | -2.5m/s | 7.7°C | 84.2% | 740.4hPa | 2.7V | 00:00:00 | 03:11:09 | 00:00:00 | |
| OE5HKT-10 | 2026-09-05 01:40:36 | 48.33650 | 14.07903 | 87° | 69km/h | 2729m | -2.6m/s | 7.7°C | 84.6% | 739.4hPa | 2.7V | 00:00:00 | 00:00:00 | 00:00:00 | |
| OE3JTB-15 | 2026-09-05 01:40:33 | 48.33646 | 14.07825 | 87° | 69km/h | 2736m | -2.6m/s | 7.6°C | 83.7% | 738.7hPa | 2.7V | 00:00:00 | 00:00:00 | 00:00:00 | |
| OE5DXL-15 | 2026-09-05 01:40:30 | 48.33642 | 14.07747 | 85° | 71km/h | 2744m | -2.6m/s | 7.6°C | 83.3% | 738.0hPa | 2.7V | 00:00:00 | 00:00:00 | 00:00:00 | |
| OE5WHR-10 | 2026-09-05 01:40:29 | 48.33641 | 14.07722 | 85° | 69km/h | 2747m | -2.6m/s | 7.5°C | 83.7% | 737.8hPa | 2.7V | 00:00:00 | 03:10:58 | 00:00:00 | |
| OE5MMP-10 | 2026-09-05 01:40:26 | 48.33637 | 14.07644 | 86° | 69km/h | 2755m | -2.7m/s | 7.5°C | 83.9% | 737.1hPa | 2.7V | 00:00:00 | 03:10:55 | 00:00:00 | |
| OE5FHM-15 | 2026-09-05 01:40:20 | 48.33630 | 14.07487 | 86° | 73km/h | 2770m | -2.5m/s | 7.4°C | 83.6% | 735.8hPa | 2.7V | 00:00:00 | 03:10:49 | 00:00:00 | |
| OE5HKT-10 | 2026-09-05 01:40:19 | 48.33629 | 14.07460 | 87° | 73km/h | 2773m | -2.5m/s | 7.4°C | 83.0% | 735.5hPa | 2.7V | 00:00:00 | 00:00:00 | 00:00:00 | |
| OE5MMP-10 | 2026-09-05 01:40:16 | 48.33625 | 14.07378 | 86° | 73km/h | 2780m | -2.8m/s | 7.4°C | 82.7% | 734.8hPa | 2.7V | 00:00:00 | 03:10:45 | 00:00:00 | |
| OE3JTB-15 | 2026-09-05 01:40:13 | 48.33621 | 14.07297 | 87° | 75km/h | 2788m | -2.4m/s | 7.3°C | 82.1% | 734.3hPa | 2.7V | 00:00:00 | 03:10:42 | 00:00:00 | |
| OE5WHR-10 | 2026-09-05 01:40:12 | 48.33620 | 14.07269 | 86° | 75km/h | 2790m | -2.5m/s | 7.3°C | 81.9% | 733.9hPa | 2.7V | 07:24:00 | 00:00:00 | 00:00:00 | |
| OE5MMP-10 | 2026-09-05 01:40:06 | 48.33611 | 14.07103 | 85° | 75km/h | 2805m | -2.7m/s | 7.2°C | 81.8% | 732.7hPa | 2.7V | 00:00:00 | 03:10:35 | 00:00:00 | |
| OE5HKT-10 | 2026-09-05 01:40:02 | 48.33606 | 14.06991 | 87° | 77km/h | 2815m | -2.4m/s | 7.2°C | 80.9% | 731.6hPa | 2.7V | 00:00:00 | 03:10:31 | 00:00:00 | |
| PG1ADW-2 | 2026-09-05 01:40:00 | 48.33603 | 14.06935 | 87° | 77km/h | 2820m | -2.5m/s | 7.2°C | 79.9% | 731.2hPa | 2.7V | 00:00:00 | 00:00:00 | 00:00:00 | |
| OE5DRO-10 | 2026-09-05 01:39:57 | 48.33600 | 14.06849 | 86° | 77km/h | 2828m | -2.5m/s | 7.2°C | 78.8% | 730.5hPa | 2.7V | 00:00:00 | 00:00:00 | 00:00:00 | |
| DO3MHA-11 | 2026-09-05 01:39:56 | 48.33599 | 14.06821 | 86° | 77km/h | 2830m | -2.4m/s | 7.2°C | 78.2% | 730.4hPa | 2.7V | 00:00:00 | 03:10:25 | 00:00:00 | |
| OE5WHR-10 | 2026-09-05 01:39:55 | 48.33598 | 14.06792 | 87° | 77km/h | 2833m | -2.3m/s | 7.2°C | 77.5% | 730.2hPa | 2.7V | 00:00:00 | 00:00:00 | 00:00:00 | |
| DO3MHA-11 | 2026-09-05 01:39:51 | 48.33591 | 14.06677 | 86° | 77km/h | 2843m | -2.2m/s | 7.2°C | 76.4% | 729.1hPa | 2.7V | 00:00:00 | 03:10:20 | 00:00:00 | |
| OE5MMP-10 | 2026-09-05 01:39:46 | 48.33586 | 14.06530 | 89° | 78km/h | 2854m | -2.2m/s | 7.1°C | 76.6% | 728.3hPa | 2.7V | 00:00:00 | 03:10:15 | 00:00:00 | |
| OE3JTB-15 | 2026-09-05 01:39:45 | 48.33585 | 14.06501 | 89° | 80km/h | 2857m | -2.4m/s | 7.1°C | 76.8% | 727.9hPa | 2.7V | 00:00:00 | 00:00:00 | 00:00:00 | |
| DO3MHA-11 | 2026-09-05 01:39:41 | 48.33582 | 14.06382 | 89° | 78km/h | 2866m | -2.6m/s | 7.1°C | 76.4% | 727.2hPa | 2.7V | 00:00:00 | 03:10:10 | 00:00:00 | |
| OE5FHM-15 | 2026-09-05 01:39:40 | 48.33582 | 14.06352 | 88° | 80km/h | 2869m | -2.3m/s | 7.1°C | 76.0% | 727.0hPa | 2.7V | 00:00:00 | 03:10:09 | 00:00:00 | |
| OE5WHR-10 | 2026-09-05 01:39:38 | 48.33580 | 14.06292 | 88° | 80km/h | 2874m | -2.3m/s | 7.1°C | 75.4% | 726.7hPa | 2.7V | 00:00:00 | 03:10:07 | 00:00:00 | |
| OE5MMP-10 | 2026-09-05 01:39:36 | 48.33578 | 14.06231 | 88° | 80km/h | 2878m | -2.4m/s | 7.0°C | 75.4% | 726.2hPa | 2.7V | 00:00:00 | 03:10:05 | 00:00:00 | |
| DO3MHA-11 | 2026-09-05 01:39:31 | 48.33575 | 14.06080 | 88° | 80km/h | 2890m | -2.5m/s | 7.0°C | 74.4% | 725.0hPa | 2.7V | 00:00:00 | 03:10:00 | 00:00:00 | |
| OE5HKT-10 | 2026-09-05 01:39:28 | 48.33573 | 14.05989 | 89° | 82km/h | 2897m | -2.2m/s | 6.9°C | 74.6% | 724.4hPa | 2.7V | 07:25:00 | 00:00:00 | 00:00:00 | |
| DO3MHA-11 | 2026-09-05 01:39:26 | 48.33572 | 14.05928 | 89° | 80km/h | 2902m | -2.5m/s | 6.9°C | 74.9% | 724.0hPa | 2.7V | 00:00:00 | 03:09:55 | 00:00:00 | |
| OE5DRO-10 | 2026-09-05 01:39:25 | 48.33571 | 14.05897 | 89° | 82km/h | 2905m | -2.4m/s | 6.9°C | 74.6% | 723.8hPa | 2.7V | 00:00:00 | 00:00:00 | 00:00:00 | |
| OE3JTB-15 | 2026-09-05 01:39:24 | 48.33571 | 14.05867 | 90° | 82km/h | 2907m | -2.4m/s | 6.9°C | 74.7% | 723.5hPa | 2.7V | 00:00:00 | 00:00:00 | 00:00:00 | |
| OE5WHR-10 | 2026-09-05 01:39:21 | 48.33571 | 14.05774 | 89° | 82km/h | 2914m | -2.4m/s | 6.8°C | 74.8% | 722.9hPa | 2.7V | 00:00:00 | 00:00:00 | 00:00:00 | |
| OE5FHM-15 | 2026-09-05 01:39:20 | 48.33570 | 14.05743 | 89° | 82km/h | 2917m | -2.4m/s | 6.8°C | 75.0% | 722.8hPa | 2.7V | 00:00:00 | 03:09:49 | 00:00:00 | |
| DO3MHA-11 | 2026-09-05 01:39:16 | 48.33569 | 14.05618 | 89° | 82km/h | 2926m | -2.4m/s | 6.7°C | 75.2% | 721.8hPa | 2.7V | 00:00:00 | 03:09:45 | 00:00:00 | |
| OE5HKT-10 | 2026-09-05 01:39:11 | 48.33566 | 14.05460 | 89° | 84km/h | 2939m | -2.6m/s | 6.6°C | 75.7% | 720.7hPa | 2.7V | 00:00:00 | 03:09:40 | 00:00:00 | |
| OE5DRO-10 | 2026-09-05 01:39:09 | 48.33565 | 14.05398 | 90° | 84km/h | 2944m | -2.5m/s | 6.6°C | 76.0% | 720.3hPa | 2.7V | 00:00:00 | 00:00:00 | 00:00:00 | |
| OE3JTB-15 | 2026-09-05 01:39:05 | 48.33564 | 14.05274 | 90° | 86km/h | 2954m | -2.4m/s | 6.5°C | 76.2% | 719.5hPa | 2.7V | 07:25:00 | 03:09:34 | 00:00:00 | |
| OE5WHR-10 | 2026-09-05 01:39:04 | 48.33564 | 14.05242 | 90° | 86km/h | 2956m | -2.2m/s | 6.5°C | 76.2% | 719.3hPa | 2.7V | 00:00:00 | 00:00:00 | 00:00:00 | |
| DO3MHA-11 | 2026-09-05 01:39:01 | 48.33563 | 14.05147 | 90° | 86km/h | 2963m | -2.4m/s | 6.4°C | 76.3% | 718.6hPa | 2.7V | 00:00:00 | 03:09:30 | 00:00:00 | |
| OE5FHM-15 | 2026-09-05 01:39:00 | 48.33563 | 14.05114 | 90° | 86km/h | 2965m | -2.4m/s | 6.4°C | 76.4% | 718.5hPa | 2.7V | 00:00:00 | 03:09:29 | 00:00:00 | |
| OE5DXL-15 | 2026-09-05 01:38:56 | 48.33562 | 14.04984 | 90° | 88km/h | 2975m | -2.4m/s | 6.3°C | 76.7% | 717.7hPa | 2.7V | 07:25:00 | 00:00:00 | 00:00:00 | |
| OE5HKT-10 | 2026-09-05 01:38:54 | 48.33561 | 14.04919 | 89° | 86km/h | 2980m | -2.3m/s | 6.3°C | 76.9% | 717.1hPa | 2.7V | 00:00:00 | 00:00:00 | 00:00:00 | |
| OE5DRO-10 | 2026-09-05 01:38:53 | 48.33561 | 14.04886 | 89° | 88km/h | 2982m | -2.5m/s | 6.2°C | 76.9% | 716.9hPa | 2.6V | 00:00:00 | 00:00:00 | 00:00:00 | |
| DO3MHA-11 | 2026-09-05 01:38:51 | 48.33560 | 14.04821 | 90° | 86km/h | 2987m | -2.4m/s | 6.2°C | 76.9% | 716.6hPa | 2.6V | 00:00:00 | 03:09:20 | 00:00:00 | |
| OE5WHR-10 | 2026-09-05 01:38:47 | 48.33559 | 14.04691 | 91° | 88km/h | 2996m | -2.5m/s | 6.1°C | 77.2% | 715.7hPa | 2.7V | 00:00:00 | 03:09:16 | 00:00:00 | |
| OE5MMP-10 | 2026-09-05 01:38:46 | 48.33559 | 14.04658 | 90° | 88km/h | 2999m | -2.4m/s | 6.1°C | 77.3% | 715.5hPa | 2.7V | 00:00:00 | 03:09:15 | 00:00:00 | |
| OE3JTB-15 | 2026-09-05 01:38:45 | 48.33559 | 14.04625 | 90° | 89km/h | 3001m | -2.4m/s | 6.1°C | 77.2% | 715.3hPa | 2.7V | 00:00:00 | 00:00:00 | 00:00:00 | |
| DO3MHA-11 | 2026-09-05 01:38:41 | 48.33559 | 14.04493 | 90° | 88km/h | 3011m | -2.4m/s | 6.0°C | 77.4% | 714.5hPa | 2.7V | 00:00:00 | 03:09:10 | 00:00:00 | |
| OE5FHM-15 | 2026-09-05 01:38:40 | 48.33558 | 14.04459 | 89° | 89km/h | 3014m | -2.6m/s | 6.0°C | 77.5% | 714.2hPa | 2.7V | 00:00:00 | 03:09:09 | 00:00:00 | |
| OE5HKT-10 | 2026-09-05 01:38:37 | 48.33557 | 14.04358 | 90° | 89km/h | 3021m | -2.5m/s | 6.0°C | 77.5% | 713.6hPa | 2.7V | 00:00:00 | 00:00:00 | 00:00:00 | |
| OE5MMP-10 | 2026-09-05 01:38:36 | 48.33557 | 14.04325 | 90° | 89km/h | 3024m | -2.6m/s | 6.0°C | 77.3% | 713.5hPa | 2.7V | 00:00:00 | 03:09:05 | 00:00:00 | |
| DO3MHA-11 | 2026-09-05 01:38:31 | 48.33558 | 14.04157 | 90° | 91km/h | 3037m | -2.6m/s | 5.9°C | 77.3% | 712.3hPa | 2.7V | 00:00:00 | 03:09:00 | 00:00:00 | |
| OE5WHR-10 | 2026-09-05 01:38:30 | 48.33558 | 14.04122 | 90° | 89km/h | 3040m | -2.7m/s | 5.8°C | 77.3% | 712.1hPa | 2.7V | 00:00:00 | 00:00:00 | 00:00:00 | |
| DO3MHA-11 | 2026-09-05 01:38:26 | 48.33558 | 14.03985 | 90° | 91km/h | 3050m | -2.4m/s | 5.7°C | 77.7% | 711.2hPa | 2.7V | 07:26:00 | 03:08:55 | 00:00:00 | |
| DO3MHA-11 | 2026-09-05 01:38:21 | 48.33558 | 14.03813 | 90° | 88km/h | 3063m | -2.5m/s | 5.7°C | 77.8% | 710.2hPa | 2.7V | 00:00:00 | 03:08:50 | 00:00:00 | |
| PG1ADW-2 | 2026-09-05 01:38:20 | 48.33558 | 14.03779 | 91° | 91km/h | 3065m | -2.7m/s | 5.7°C | 77.1% | 709.9hPa | 2.7V | 00:00:00 | 03:08:49 | 00:00:00 | |
| OE5MMP-10 | 2026-09-05 01:38:16 | 48.33560 | 14.03645 | 91° | 91km/h | 3075m | -2.5m/s | 5.6°C | 76.6% | 709.1hPa | 2.7V | 00:00:00 | 03:08:45 | 00:00:00 | |
| OE5WHR-10 | 2026-09-05 01:38:13 | 48.33561 | 14.03545 | 92° | 93km/h | 3083m | -2.6m/s | 5.6°C | 76.3% | 708.4hPa | 2.7V | 00:00:00 | 00:00:00 | 00:00:00 | |
| DO3MHA-11 | 2026-09-05 01:38:11 | 48.33562 | 14.03476 | 90° | 93km/h | 3088m | -2.4m/s | 5.5°C | 76.2% | 707.9hPa | 2.7V | 00:00:00 | 03:08:40 | 00:00:00 | |
| OE5FHM-15 | 2026-09-05 01:38:10 | 48.33562 | 14.03442 | 91° | 95km/h | 3091m | -2.5m/s | 5.5°C | 76.0% | 707.7hPa | 2.7V | 07:26:00 | 03:08:39 | 00:00:00 | |
| OE3JTB-15 | 2026-09-05 01:38:07 | 48.33562 | 14.03336 | 90° | 95km/h | 3098m | -2.4m/s | 5.5°C | 76.0% | 707.1hPa | 2.7V | 00:00:00 | 03:08:36 | 00:00:00 | |
| DO3MHA-11 | 2026-09-05 01:38:06 | 48.33562 | 14.03300 | 91° | 95km/h | 3100m | -2.6m/s | 5.5°C | 75.8% | 706.9hPa | 2.7V | 00:00:00 | 03:08:35 | 00:00:00 | |
| OE5DRO-10 | 2026-09-05 01:38:05 | 48.33562 | 14.03265 | 91° | 95km/h | 3103m | -2.4m/s | 5.4°C | 76.0% | 706.6hPa | 2.7V | 00:00:00 | 00:00:00 | 00:00:00 | |
| OE5HKT-10 | 2026-09-05 01:38:03 | 48.33563 | 14.03193 | 91° | 95km/h | 3108m | -2.7m/s | 5.4°C | 76.0% | 706.2hPa | 2.7V | 00:00:00 | 00:00:00 | 00:00:00 | |
| PG1ADW-2 | 2026-09-05 01:38:00 | 48.33564 | 14.03086 | 92° | 97km/h | 3116m | -2.5m/s | 5.3°C | 76.4% | 705.5hPa | 2.6V | 00:00:00 | 00:00:00 | 00:00:00 | |
| OE5WHR-10 | 2026-09-05 01:37:56 | 48.33567 | 14.02942 | 92° | 97km/h | 3126m | -2.5m/s | 5.2°C | 76.8% | 704.7hPa | 2.6V | 07:26:00 | 03:08:25 | 00:00:00 | |
| DO3MHA-11 | 2026-09-05 01:37:51 | 48.33570 | 14.02760 | 92° | 95km/h | 3139m | -2.7m/s | 5.1°C | 77.1% | 703.5hPa | 2.6V | 00:00:00 | 03:08:20 | 00:00:00 | |
| OE5DRO-10 | 2026-09-05 01:37:49 | 48.33571 | 14.02688 | 91° | 99km/h | 3145m | -2.9m/s | 5.1°C | 76.6% | 703.1hPa | 2.7V | 00:00:00 | 00:00:00 | 00:00:00 | |
| OE3JTB-15 | 2026-09-05 01:37:48 | 48.33571 | 14.02651 | 92° | 99km/h | 3148m | -2.9m/s | 5.1°C | 76.5% | 702.8hPa | 2.7V | 00:00:00 | 00:00:00 | 00:00:00 | |
| OE5HKT-10 | 2026-09-05 01:37:46 | 48.33573 | 14.02578 | 92° | 99km/h | 3153m | -2.6m/s | 5.1°C | 76.3% | 702.3hPa | 2.7V | 00:00:00 | 00:00:00 | 00:00:00 | |
| DO3MHA-11 | 2026-09-05 01:37:41 | 48.33575 | 14.02392 | 92° | 99km/h | 3167m | -2.6m/s | 5.0°C | 75.0% | 701.2hPa | 2.7V | 00:00:00 | 03:08:10 | 00:00:00 | |
| OE5FHM-15 | 2026-09-05 01:37:40 | 48.33576 | 14.02354 | 91° | 100km/h | 3169m | -2.5m/s | 5.0°C | 75.2% | 701.0hPa | 2.7V | 00:00:00 | 03:08:09 | 00:00:00 | |
| OE5WHR-10 | 2026-09-05 01:37:39 | 48.33576 | 14.02317 | 91° | 100km/h | 3172m | -2.8m/s | 5.0°C | 75.2% | 700.7hPa | 2.7V | 00:00:00 | 00:00:00 | 00:00:00 | |
| OE5MMP-10 | 2026-09-05 01:37:36 | 48.33578 | 14.02205 | 91° | 99km/h | 3180m | -2.8m/s | 4.9°C | 75.8% | 700.0hPa | 2.6V | 00:00:00 | 03:08:05 | 00:00:00 | |
| OE5DRO-10 | 2026-09-05 01:37:33 | 48.33580 | 14.02093 | 92° | 100km/h | 3188m | -2.7m/s | 4.8°C | 76.1% | 699.4hPa | 2.6V | 00:00:00 | 00:00:00 | 00:00:00 | |
| DO3MHA-11 | 2026-09-05 01:37:31 | 48.33581 | 14.02018 | 92° | 100km/h | 3194m | -2.6m/s | 4.8°C | 76.3% | 698.8hPa | 2.7V | 00:00:00 | 03:08:00 | 00:00:00 | |
| OE3JTB-15 | 2026-09-05 01:37:29 | 48.33583 | 14.01942 | 93° | 100km/h | 3199m | -2.7m/s | 4.7°C | 76.8% | 698.5hPa | 2.7V | 00:00:00 | 00:00:00 | 00:00:00 | |
| DO3MHA-11 | 2026-09-05 01:37:26 | 48.33585 | 14.01828 | 92° | 100km/h | 3208m | -2.9m/s | 4.6°C | 77.1% | 697.7hPa | 2.7V | 00:00:00 | 03:07:55 | 00:00:00 | |
| OE5WHR-10 | 2026-09-05 01:37:22 | 48.33588 | 14.01674 | 91° | 102km/h | 3219m | -3.0m/s | 4.6°C | 77.5% | 696.7hPa | 2.7V | 00:00:00 | 00:00:00 | 00:00:00 | |
| DO3MHA-11 | 2026-09-05 01:37:21 | 48.33588 | 14.01636 | 92° | 100km/h | 3222m | -2.9m/s | 4.5°C | 77.7% | 696.7hPa | 2.7V | 00:00:00 | 03:07:50 | 00:00:00 | |
| PG1ADW-2 | 2026-09-05 01:37:20 | 48.33589 | 14.01598 | 92° | 102km/h | 3225m | -2.8m/s | 4.5°C | 78.0% | 696.3hPa | 2.7V | 00:00:00 | 00:00:00 | 00:00:00 | |
| OE5DRO-10 | 2026-09-05 01:37:17 | 48.33591 | 14.01483 | 91° | 102km/h | 3233m | -2.7m/s | 4.5°C | 78.4% | 695.5hPa | 2.7V | 00:00:00 | 00:00:00 | 00:00:00 | |
| DO3MHA-11 | 2026-09-05 01:37:16 | 48.33592 | 14.01444 | 92° | 102km/h | 3236m | -2.7m/s | 4.4°C | 78.6% | 695.4hPa | 2.7V | 00:00:00 | 03:07:45 | 00:00:00 | |
| OE5HKT-10 | 2026-09-05 01:37:12 | 48.33594 | 14.01289 | 91° | 102km/h | 3247m | -2.9m/s | 4.4°C | 78.7% | 694.3hPa | 2.7V | 07:27:00 | 00:00:00 | 00:00:00 | |
| DO3MHA-11 | 2026-09-05 01:37:11 | 48.33594 | 14.01250 | 92° | 102km/h | 3250m | -2.8m/s | 4.4°C | 78.7% | 694.2hPa | 2.6V | 00:00:00 | 03:07:40 | 00:00:00 | |
| OE3JTB-15 | 2026-09-05 01:37:10 | 48.33595 | 14.01212 | 92° | 100km/h | 3253m | -2.7m/s | 4.3°C | 78.9% | 693.8hPa | 2.6V | 00:00:00 | 03:07:39 | 00:00:00 | |
| OE5FHM-15 | 2026-09-05 01:37:09 | 48.33596 | 14.01172 | 92° | 102km/h | 3256m | -2.8m/s | 4.3°C | 79.0% | 693.6hPa | 2.6V | 00:00:00 | 03:07:38 | 00:00:00 | |
| OE5MMP-10 | 2026-09-05 01:37:06 | 48.33597 | 14.01055 | 92° | 100km/h | 3264m | -2.7m/s | 4.2°C | 79.5% | 693.0hPa | 2.6V | 00:00:00 | 03:07:35 | 00:00:00 | |
| OE5WHR-10 | 2026-09-05 01:37:05 | 48.33598 | 14.01017 | 93° | 100km/h | 3267m | -2.9m/s | 4.2°C | 79.5% | 692.7hPa | 2.6V | 00:00:00 | 03:07:34 | 00:00:00 | |
| DO3MHA-11 | 2026-09-05 01:37:01 | 48.33602 | 14.00864 | 93° | 100km/h | 3278m | -2.9m/s | 4.1°C | 79.8% | 691.6hPa | 2.6V | 00:00:00 | 03:07:30 | 00:00:00 | |
| PG1ADW-2 | 2026-09-05 01:37:00 | 48.33603 | 14.00825 | 94° | 102km/h | 3281m | -2.9m/s | 4.1°C | 79.9% | 691.4hPa | 2.6V | 00:00:00 | 03:07:29 | 00:00:00 | |
| OE5DXL-15 | 2026-09-05 01:36:56 | 48.33607 | 14.00672 | 92° | 100km/h | 3292m | -3.0m/s | 4.1°C | 79.0% | 690.4hPa | 2.6V | 00:00:00 | 00:00:00 | 00:00:00 | |
| OE5HKT-10 | 2026-09-05 01:36:55 | 48.33608 | 14.00634 | 92° | 102km/h | 3295m | -2.8m/s | 4.0°C | 79.0% | 690.2hPa | 2.6V | 00:00:00 | 00:00:00 | 00:00:00 | |
| DO3MHA-11 | 2026-09-05 01:36:51 | 48.33610 | 14.00481 | 92° | 102km/h | 3308m | -2.9m/s | 3.9°C | 79.0% | 689.2hPa | 2.6V | 00:00:00 | 03:07:20 | 00:00:00 | |
| OE5WHR-10 | 2026-09-05 01:36:48 | 48.33612 | 14.00364 | 92° | 102km/h | 3317m | -3.0m/s | 3.9°C | 79.2% | 688.5hPa | 2.7V | 00:00:00 | 00:00:00 | 00:00:00 | |
| DO3MHA-11 | 2026-09-05 01:36:46 | 48.33614 | 14.00287 | 93° | 102km/h | 3323m | -3.1m/s | 3.8°C | 79.4% | 687.9hPa | 2.7V | 00:00:00 | 03:07:15 | 00:00:00 | |
| OE5DRO-10 | 2026-09-05 01:36:45 | 48.33615 | 14.00248 | 92° | 100km/h | 3326m | -3.0m/s | 3.8°C | 79.2% | 687.7hPa | 2.7V | 00:00:00 | 00:00:00 | 00:00:00 | |
| DO3MHA-11 | 2026-09-05 01:36:41 | 48.33618 | 14.00093 | 92° | 102km/h | 3338m | -3.0m/s | 3.7°C | 77.7% | 686.6hPa | 2.7V | 00:00:00 | 03:07:10 | 00:00:00 | |
| PG1ADW-2 | 2026-09-05 01:36:40 | 48.33619 | 14.00054 | 92° | 100km/h | 3341m | -3.0m/s | 3.7°C | 77.0% | 686.4hPa | 2.7V | 00:00:00 | 00:00:00 | 00:00:00 | |
| OE5FHM-15 | 2026-09-05 01:36:39 | 48.33619 | 14.00015 | 92° | 100km/h | 3344m | -3.3m/s | 3.7°C | 76.0% | 686.2hPa | 2.7V | 00:00:00 | 03:07:08 | 00:00:00 | |
| OE5HKT-10 | 2026-09-05 01:36:38 | 48.33620 | 13.99977 | 92° | 100km/h | 3347m | -3.1m/s | 3.7°C | 75.7% | 686.0hPa | 2.7V | 00:00:00 | 03:07:07 | 00:00:00 | |
| DO3MHA-11 | 2026-09-05 01:36:36 | 48.33621 | 13.99900 | 91° | 100km/h | 3353m | -3.1m/s | 3.7°C | 75.2% | 685.1hPa | 2.7V | 00:00:00 | 03:07:05 | 00:00:00 | |
| DO3MHA-11 | 2026-09-05 01:36:31 | 48.33623 | 13.99709 | 92° | 100km/h | 3369m | -3.1m/s | 3.6°C | 73.9% | 684.0hPa | 2.7V | 00:00:00 | 03:07:00 | 00:00:00 | |
| OE3JTB-15 | 2026-09-05 01:36:29 | 48.33625 | 13.99634 | 93° | 100km/h | 3376m | -3.1m/s | 3.6°C | 73.7% | 683.4hPa | 2.7V | 07:28:00 | 00:00:00 | 00:00:00 | |
| OE5DXL-15 | 2026-09-05 01:36:26 | 48.33627 | 13.99519 | 92° | 100km/h | 3385m | -3.3m/s | 3.5°C | 74.1% | 682.7hPa | 2.7V | 00:00:00 | 00:00:00 | 00:00:00 | |
| OE5HKT-10 | 2026-09-05 01:36:21 | 48.33628 | 13.99327 | 90° | 100km/h | 3402m | -3.1m/s | 3.4°C | 74.8% | 681.4hPa | 2.7V | 00:00:00 | 00:00:00 | 00:00:00 | |
| PG1ADW-2 | 2026-09-05 01:36:20 | 48.33628 | 13.99289 | 91° | 100km/h | 3405m | -3.3m/s | 3.3°C | 75.0% | 681.1hPa | 2.7V | 00:00:00 | 00:00:00 | 00:00:00 | |
| DO3MHA-11 | 2026-09-05 01:36:16 | 48.33630 | 13.99135 | 91° | 100km/h | 3418m | -3.4m/s | 3.2°C | 75.0% | 679.8hPa | 2.7V | 00:00:00 | 03:06:45 | 00:00:00 | |
| OE5WHR-10 | 2026-09-05 01:36:14 | 48.33630 | 13.99059 | 91° | 100km/h | 3425m | -3.3m/s | 3.2°C | 74.7% | 679.3hPa | 2.7V | 00:00:00 | 03:06:43 | 00:00:00 | |
| OE5DRO-10 | 2026-09-05 01:36:13 | 48.33630 | 13.99020 | 91° | 100km/h | 3428m | -3.3m/s | 3.2°C | 74.8% | 679.0hPa | 2.7V | 07:28:00 | 00:00:00 | 00:00:00 | |
| DO3MHA-11 | 2026-09-05 01:36:11 | 48.33631 | 13.98944 | 92° | 100km/h | 3435m | -3.3m/s | 3.2°C | 73.0% | 678.5hPa | 2.7V | 00:00:00 | 03:06:40 | 00:00:00 | |
| OE5FHM-15 | 2026-09-05 01:36:09 | 48.33632 | 13.98867 | 91° | 102km/h | 3442m | -3.4m/s | 3.1°C | 73.2% | 677.9hPa | 2.7V | 00:00:00 | 03:06:38 | 00:00:00 | |
| DO3MHA-11 | 2026-09-05 01:36:06 | 48.33633 | 13.98753 | 91° | 100km/h | 3452m | -3.3m/s | 3.1°C | 73.1% | 677.1hPa | 2.7V | 00:00:00 | 03:06:35 | 00:00:00 | |
| OE5HKT-10 | 2026-09-05 01:36:04 | 48.33633 | 13.98676 | 91° | 102km/h | 3459m | -3.2m/s | 3.1°C | 69.7% | 676.5hPa | 2.7V | 00:00:00 | 00:00:00 | 00:00:00 | |
| DO3MHA-11 | 2026-09-05 01:36:01 | 48.33634 | 13.98561 | 92° | 102km/h | 3469m | -3.3m/s | 3.1°C | 69.3% | 675.7hPa | 2.7V | 00:00:00 | 03:06:30 | 00:00:00 | |
| PG1ADW-2 | 2026-09-05 01:36:00 | 48.33635 | 13.98523 | 92° | 102km/h | 3472m | -3.1m/s | 3.1°C | 68.9% | 675.4hPa | 2.7V | 00:00:00 | 00:00:00 | 00:00:00 | |
| OE5WHR-10 | 2026-09-05 01:35:57 | 48.33636 | 13.98406 | 92° | 102km/h | 3482m | -3.4m/s | 3.1°C | 68.0% | 674.6hPa | 2.7V | 00:00:00 | 00:00:00 | 00:00:00 | |
| OE5DXL-15 | 2026-09-05 01:35:56 | 48.33637 | 13.98367 | 92° | 102km/h | 3485m | -3.5m/s | 3.1°C | 67.4% | 674.3hPa | 2.7V | 00:00:00 | 00:00:00 | 00:00:00 | |
| DO3MHA-11 | 2026-09-05 01:35:51 | 48.33638 | 13.98175 | 91° | 102km/h | 3502m | -3.5m/s | 3.0°C | 64.4% | 672.8hPa | 2.7V | 00:00:00 | 03:06:20 | 00:00:00 | |
| OE5HKT-10 | 2026-09-05 01:35:47 | 48.33639 | 13.98020 | 91° | 102km/h | 3516m | -3.5m/s | 3.0°C | 62.7% | 671.7hPa | 2.7V | 00:00:00 | 03:06:16 | 00:00:00 | |
| OE5MMP-10 | 2026-09-05 01:35:46 | 48.33639 | 13.97981 | 92° | 100km/h | 3520m | -3.4m/s | 2.9°C | 62.4% | 671.3hPa | 2.7V | 00:00:00 | 03:06:15 | 00:00:00 | |
| DO3MHA-11 | 2026-09-05 01:35:41 | 48.33642 | 13.97788 | 93° | 100km/h | 3537m | -3.4m/s | 2.8°C | 61.9% | 670.0hPa | 2.7V | 00:00:00 | 03:06:10 | 00:00:00 | |
| PG1ADW-2 | 2026-09-05 01:35:40 | 48.33643 | 13.97750 | 93° | 100km/h | 3541m | -3.6m/s | 2.8°C | 62.1% | 669.6hPa | 2.7V | 00:00:00 | 03:06:09 | 00:00:00 | |
| OE5FHM-15 | 2026-09-05 01:35:39 | 48.33644 | 13.97711 | 92° | 102km/h | 3544m | -3.5m/s | 2.7°C | 61.8% | 669.2hPa | 2.6V | 00:00:00 | 03:06:08 | 00:00:00 | |
| DO3MHA-11 | 2026-09-05 01:35:36 | 48.33646 | 13.97597 | 92° | 102km/h | 3555m | -3.6m/s | 2.6°C | 61.8% | 668.4hPa | 2.6V | 00:00:00 | 03:06:05 | 00:00:00 | |
| OE3JTB-15 | 2026-09-05 01:35:31 | 48.33649 | 13.97404 | 92° | 102km/h | 3573m | -3.4m/s | 2.5°C | 60.7% | 667.0hPa | 2.7V | 00:00:00 | 00:00:00 | 00:00:00 | |
| OE5HKT-10 | 2026-09-05 01:35:30 | 48.33649 | 13.97365 | 92° | 100km/h | 3576m | -3.4m/s | 2.5°C | 60.9% | 666.7hPa | 2.7V | 00:00:00 | 00:00:00 | 00:00:00 | |
| DO3MHA-11 | 2026-09-05 01:35:26 | 48.33652 | 13.97211 | 92° | 100km/h | 3590m | -3.6m/s | 2.5°C | 58.9% | 665.5hPa | 2.6V | 00:00:00 | 03:05:55 | 00:00:00 | |
| OE5DRO-10 | 2026-09-05 01:35:25 | 48.33653 | 13.97173 | 92° | 100km/h | 3594m | -3.4m/s | 2.5°C | 58.2% | 665.2hPa | 2.6V | 00:00:00 | 00:00:00 | 00:00:00 | |
| OE5WHR-10 | 2026-09-05 01:35:23 | 48.33654 | 13.97096 | 93° | 102km/h | 3600m | -3.4m/s | 2.5°C | 57.5% | 664.7hPa | 2.6V | 00:00:00 | 03:05:52 | 00:00:00 | |
| DO3MHA-11 | 2026-09-05 01:35:21 | 48.33656 | 13.97019 | 92° | 100km/h | 3607m | -3.6m/s | 2.5°C | 57.3% | 664.0hPa | 2.6V | 00:00:00 | 03:05:50 | 00:00:00 | |
| PG1ADW-2 | 2026-09-05 01:35:20 | 48.33656 | 13.96981 | 91° | 102km/h | 3611m | -3.4m/s | 2.5°C | 55.5% | 663.8hPa | 2.7V | 00:00:00 | 00:00:00 | 00:00:00 | |
| DO3MHA-11 | 2026-09-05 01:35:16 | 48.33658 | 13.96827 | 91° | 102km/h | 3625m | -3.5m/s | 2.4°C | 55.0% | 662.6hPa | 2.7V | 00:00:00 | 03:05:45 | 00:00:00 | |
| OE5HKT-10 | 2026-09-05 01:35:13 | 48.33659 | 13.96712 | 92° | 102km/h | 3636m | -3.5m/s | 2.3°C | 54.7% | 661.8hPa | 2.7V | 00:00:00 | 00:00:00 | 00:00:00 | |
| DO3MHA-11 | 2026-09-05 01:35:11 | 48.33660 | 13.96634 | 91° | 102km/h | 3643m | -3.5m/s | 2.3°C | 54.5% | 661.3hPa | 2.7V | 00:00:00 | 03:05:40 | 00:00:00 | |
| OE5DRO-10 | 2026-09-05 01:35:09 | 48.33660 | 13.96557 | 92° | 102km/h | 3650m | -3.4m/s | 2.2°C | 54.6% | 660.6hPa | 2.7V | 00:00:00 | 00:00:00 | 00:00:00 | |
| OE5FHM-15 | 2026-09-05 01:35:08 | 48.33661 | 13.96518 | 92° | 102km/h | 3653m | -3.4m/s | 2.2°C | 54.3% | 660.5hPa | 2.7V | 00:00:00 | 03:05:37 | 00:00:00 | |
| OE5WHR-10 | 2026-09-05 01:35:06 | 48.33662 | 13.96441 | 91° | 102km/h | 3660m | -3.5m/s | 2.1°C | 54.0% | 659.9hPa | 2.7V | 00:00:00 | 00:00:00 | 00:00:00 | |
| OE3JTB-15 | 2026-09-05 01:35:02 | 48.33663 | 13.96287 | 91° | 100km/h | 3675m | -3.4m/s | 2.0°C | 55.1% | 658.6hPa | 2.7V | 00:00:00 | 00:00:00 | 00:00:00 | |
| DO3MHA-11 | 2026-09-05 01:35:01 | 48.33663 | 13.96248 | 91° | 104km/h | 3678m | -3.7m/s | 2.0°C | 55.5% | 658.4hPa | 2.7V | 00:00:00 | 03:05:30 | 00:00:00 | |
| PG1ADW-2 | 2026-09-05 01:35:00 | 48.33663 | 13.96209 | 91° | 100km/h | 3682m | -3.5m/s | 2.0°C | 55.8% | 658.0hPa | 2.7V | 07:29:00 | 00:00:00 | 00:00:00 | |
| OE5HKT-10 | 2026-09-05 01:34:56 | 48.33663 | 13.96051 | 90° | 100km/h | 3696m | -3.6m/s | 1.8°C | 57.0% | 656.9hPa | 2.7V | 07:29:00 | 03:05:25 | 00:00:00 | |
| OE5DRO-10 | 2026-09-05 01:34:53 | 48.33664 | 13.95934 | 91° | 100km/h | 3706m | -3.5m/s | 1.7°C | 58.6% | 656.1hPa | 2.7V | 00:00:00 | 00:00:00 | 00:00:00 | |
| DO3MHA-11 | 2026-09-05 01:34:51 | 48.33664 | 13.95858 | 91° | 100km/h | 3713m | -3.4m/s | 1.6°C | 59.2% | 655.3hPa | 2.7V | 00:00:00 | 03:05:20 | 00:00:00 | |
| OE5WHR-10 | 2026-09-05 01:34:49 | 48.33664 | 13.95782 | 91° | 100km/h | 3721m | -3.7m/s | 1.6°C | 59.9% | 654.9hPa | 2.6V | 00:00:00 | 00:00:00 | 00:00:00 | |
| DO3MHA-11 | 2026-09-05 01:34:46 | 48.33663 | 13.95668 | 90° | 100km/h | 3731m | -3.3m/s | 1.5°C | 62.5% | 653.9hPa | 2.6V | 00:00:00 | 03:05:15 | 00:00:00 | |
| DO3MHA-11 | 2026-09-05 01:34:41 | 48.33661 | 13.95478 | 90° | 100km/h | 3748m | -3.4m/s | 1.3°C | 65.7% | 652.6hPa | 2.6V | 00:00:00 | 03:05:10 | 00:00:00 | |
| PG1ADW-2 | 2026-09-05 01:34:40 | 48.33661 | 13.95440 | 89° | 102km/h | 3751m | -3.3m/s | 1.3°C | 65.8% | 652.3hPa | 2.6V | 00:00:00 | 00:00:00 | 00:00:00 | |
| OE5HKT-10 | 2026-09-05 01:34:39 | 48.33660 | 13.95402 | 89° | 102km/h | 3755m | -3.6m/s | 1.2°C | 65.9% | 652.1hPa | 2.7V | 00:00:00 | 00:00:00 | 00:00:00 | |
| OE5FHM-15 | 2026-09-05 01:34:38 | 48.33660 | 13.95364 | 89° | 102km/h | 3758m | -3.7m/s | 1.2°C | 66.6% | 651.8hPa | 2.7V | 00:00:00 | 03:05:07 | 00:00:00 | |
| OE5DRO-10 | 2026-09-05 01:34:37 | 48.33659 | 13.95326 | 89° | 102km/h | 3762m | -3.7m/s | 1.2°C | 66.2% | 651.4hPa | 2.7V | 00:00:00 | 00:00:00 | 00:00:00 | |
| OE5MMP-10 | 2026-09-05 01:34:36 | 48.33658 | 13.95287 | 89° | 102km/h | 3766m | -3.5m/s | 1.2°C | 65.9% | 651.3hPa | 2.7V | 00:00:00 | 03:05:05 | 00:00:00 | |
| OE3JTB-15 | 2026-09-05 01:34:33 | 48.33655 | 13.95171 | 88° | 102km/h | 3776m | -3.5m/s | 1.1°C | 63.4% | 650.4hPa | 2.7V | 00:00:00 | 03:05:02 | 00:00:00 | |
| OE5WHR-10 | 2026-09-05 01:34:32 | 48.33654 | 13.95133 | 88° | 102km/h | 3780m | -3.3m/s | 1.1°C | 62.7% | 650.0hPa | 2.7V | 00:00:00 | 03:05:01 | 00:00:00 | |
| DO3MHA-11 | 2026-09-05 01:34:31 | 48.33653 | 13.95094 | 88° | 102km/h | 3783m | -3.3m/s | 1.1°C | 62.1% | 649.9hPa | 2.7V | 00:00:00 | 03:05:00 | 00:00:00 | |
| OE5MMP-10 | 2026-09-05 01:34:26 | 48.33648 | 13.94902 | 88° | 102km/h | 3801m | -3.5m/s | 1.1°C | 66.3% | 648.4hPa | 2.7V | 00:00:00 | 03:04:55 | 00:00:00 | |
| OE5HKT-10 | 2026-09-05 01:34:22 | 48.33644 | 13.94747 | 88° | 102km/h | 3815m | -3.6m/s | 0.9°C | 67.1% | 647.3hPa | 2.7V | 00:00:00 | 00:00:00 | 00:00:00 | |
| DO3MHA-11 | 2026-09-05 01:34:21 | 48.33643 | 13.94708 | 88° | 102km/h | 3819m | -3.7m/s | 0.9°C | 66.9% | 646.9hPa | 2.7V | 00:00:00 | 03:04:50 | 00:00:00 | |
| PG1ADW-2 | 2026-09-05 01:34:20 | 48.33642 | 13.94670 | 89° | 102km/h | 3822m | -3.6m/s | 0.8°C | 67.0% | 646.6hPa | 2.7V | 00:00:00 | 03:04:49 | 00:00:00 | |
| OE5MMP-10 | 2026-09-05 01:34:16 | 48.33637 | 13.94513 | 87° | 100km/h | 3837m | -3.5m/s | 0.7°C | 68.5% | 645.6hPa | 2.7V | 00:00:00 | 03:04:45 | 00:00:00 | |
| OE5WHR-10 | 2026-09-05 01:34:15 | 48.33636 | 13.94475 | 88° | 102km/h | 3840m | -3.6m/s | 0.7°C | 68.9% | 645.1hPa | 2.7V | 00:00:00 | 00:00:00 | 00:00:00 | |
| OE5FHM-15 | 2026-09-05 01:34:08 | 48.33625 | 13.94206 | 86° | 102km/h | 3865m | -3.3m/s | 0.5°C | 71.1% | 643.3hPa | 2.6V | 07:30:00 | 03:04:37 | 00:00:00 | |
| DO3MHA-11 | 2026-09-05 01:34:06 | 48.33622 | 13.94130 | 88° | 102km/h | 3872m | -3.6m/s | 0.5°C | 71.3% | 642.7hPa | 2.6V | 00:00:00 | 03:04:35 | 00:00:00 | |
| OE5HKT-10 | 2026-09-05 01:34:05 | 48.33621 | 13.94092 | 88° | 102km/h | 3876m | -3.6m/s | 0.4°C | 72.0% | 642.4hPa | 2.7V | 00:00:00 | 03:04:34 | 00:00:00 | |
| OE3JTB-15 | 2026-09-05 01:34:04 | 48.33620 | 13.94053 | 88° | 102km/h | 3879m | -3.7m/s | 0.4°C | 72.2% | 642.0hPa | 2.7V | 00:00:00 | 00:00:00 | 00:00:00 | |
| DO3MHA-11 | 2026-09-05 01:34:01 | 48.33616 | 13.93937 | 87° | 102km/h | 3890m | -3.7m/s | 0.3°C | 73.0% | 641.1hPa | 2.6V | 00:00:00 | 03:04:30 | 00:00:00 | |
| PG1ADW-2 | 2026-09-05 01:34:00 | 48.33614 | 13.93899 | 87° | 102km/h | 3894m | -3.5m/s | 0.3°C | 73.1% | 640.9hPa | 2.6V | 00:00:00 | 00:00:00 | 00:00:00 | |
| OE5WHR-10 | 2026-09-05 01:33:58 | 48.33611 | 13.93821 | 86° | 102km/h | 3901m | -3.7m/s | 0.2°C | 73.3% | 640.3hPa | 2.6V | 00:00:00 | 00:00:00 | 00:00:00 | |
| DO3MHA-11 | 2026-09-05 01:33:56 | 48.33607 | 13.93743 | 87° | 102km/h | 3909m | -3.5m/s | 0.2°C | 72.7% | 639.6hPa | 2.6V | 00:00:00 | 03:04:25 | 00:00:00 | |
| DO3MHA-11 | 2026-09-05 01:33:51 | 48.33598 | 13.93550 | 87° | 102km/h | 3927m | -3.5m/s | 0.2°C | 73.7% | 638.3hPa | 2.6V | 00:00:00 | 03:04:20 | 00:00:00 | |
| OE5DRO-10 | 2026-09-05 01:33:49 | 48.33594 | 13.93473 | 86° | 102km/h | 3934m | -3.5m/s | 0.2°C | 71.7% | 637.7hPa | 2.7V | 00:00:00 | 00:00:00 | 00:00:00 | |
| OE5HKT-10 | 2026-09-05 01:33:48 | 48.33592 | 13.93435 | 87° | 102km/h | 3938m | -3.5m/s | 0.2°C | 70.7% | 637.4hPa | 2.7V | 00:00:00 | 00:00:00 | 00:00:00 | |
| OE5MMP-10 | 2026-09-05 01:33:46 | 48.33590 | 13.93357 | 87° | 102km/h | 3945m | -3.5m/s | 0.2°C | 68.3% | 636.9hPa | 2.7V | 00:00:00 | 03:04:15 | 00:00:00 | |
| OE5WHR-10 | 2026-09-05 01:33:41 | 48.33580 | 13.93161 | 86° | 102km/h | 3962m | -3.3m/s | 0.1°C | 67.1% | 635.4hPa | 2.7V | 00:00:00 | 03:04:10 | 00:00:00 | |
| PG1ADW-2 | 2026-09-05 01:33:40 | 48.33578 | 13.93122 | 85° | 102km/h | 3966m | -3.2m/s | 0.1°C | 67.2% | 635.2hPa | 2.7V | 00:00:00 | 00:00:00 | 00:00:00 | |
| OE5FHM-15 | 2026-09-05 01:33:38 | 48.33574 | 13.93045 | 86° | 102km/h | 3972m | -3.3m/s | 0.1°C | 66.7% | 634.6hPa | 2.7V | 00:00:00 | 03:04:07 | 00:00:00 | |
| DO3MHA-11 | 2026-09-05 01:33:36 | 48.33569 | 13.92967 | 85° | 102km/h | 3979m | -3.3m/s | 0.0°C | 67.2% | 634.2hPa | 2.6V | 00:00:00 | 03:04:05 | 00:00:00 | |
| OE5DRO-10 | 2026-09-05 01:33:33 | 48.33563 | 13.92852 | 86° | 102km/h | 3989m | -3.2m/s | -0.0°C | 66.9% | 633.4hPa | 2.7V | 00:00:00 | 00:00:00 | 00:00:00 | |
| DO3MHA-11 | 2026-09-05 01:33:31 | 48.33558 | 13.92775 | 86° | 102km/h | 3995m | -3.1m/s | -0.0°C | 66.0% | 632.9hPa | 2.7V | 00:00:00 | 03:04:00 | 00:00:00 | |
| OE3JTB-15 | 2026-09-05 01:33:29 | 48.33554 | 13.92698 | 86° | 102km/h | 4001m | -3.0m/s | -0.0°C | 66.1% | 632.3hPa | 2.7V | 00:00:00 | 00:00:00 | 00:00:00 | |
| DO3MHA-11 | 2026-09-05 01:33:26 | 48.33547 | 13.92583 | 85° | 102km/h | 4011m | -3.3m/s | -0.1°C | 65.5% | 631.7hPa | 2.7V | 00:00:00 | 03:03:55 | 00:00:00 | |
| OE5WHR-10 | 2026-09-05 01:33:24 | 48.33542 | 13.92506 | 85° | 102km/h | 4017m | -3.2m/s | -0.1°C | 64.0% | 631.2hPa | 2.7V | 07:31:00 | 00:00:00 | 00:00:00 | |
| DO3MHA-11 | 2026-09-05 01:33:21 | 48.33535 | 13.92391 | 85° | 102km/h | 4027m | -3.3m/s | -0.2°C | 62.8% | 630.2hPa | 2.6V | 00:00:00 | 03:03:50 | 00:00:00 | |
| PG1ADW-2 | 2026-09-05 01:33:20 | 48.33532 | 13.92352 | 85° | 102km/h | 4030m | -3.1m/s | -0.2°C | 62.2% | 629.9hPa | 2.6V | 00:00:00 | 00:00:00 | 00:00:00 | |
| OE5DRO-10 | 2026-09-05 01:33:17 | 48.33525 | 13.92237 | 85° | 102km/h | 4040m | -3.3m/s | -0.2°C | 61.8% | 629.3hPa | 2.6V | 00:00:00 | 00:00:00 | 00:00:00 | |
| DO3MHA-11 | 2026-09-05 01:33:16 | 48.33522 | 13.92199 | 85° | 102km/h | 4043m | -3.2m/s | -0.3°C | 61.0% | 629.0hPa | 2.6V | 00:00:00 | 03:03:45 | 00:00:00 | |
| OE5HKT-10 | 2026-09-05 01:33:14 | 48.33517 | 13.92121 | 85° | 102km/h | 4050m | -3.2m/s | -0.3°C | 61.4% | 628.5hPa | 2.6V | 00:00:00 | 03:03:43 | 00:00:00 | |
| DO3MHA-11 | 2026-09-05 01:33:11 | 48.33509 | 13.92006 | 84° | 102km/h | 4059m | -3.4m/s | -0.4°C | 62.3% | 627.8hPa | 2.6V | 00:00:00 | 03:03:40 | 00:00:00 | |
| OE5FHM-15 | 2026-09-05 01:33:08 | 48.33501 | 13.91890 | 84° | 102km/h | 4069m | -3.2m/s | -0.5°C | 61.6% | 627.0hPa | 2.6V | 00:00:00 | 03:03:37 | 00:00:00 | |
| OE5WHR-10 | 2026-09-05 01:33:07 | 48.33498 | 13.91851 | 84° | 102km/h | 4072m | -3.5m/s | -0.5°C | 64.4% | 626.7hPa | 2.6V | 00:00:00 | 00:00:00 | 00:00:00 | |
| DO3MHA-11 | 2026-09-05 01:33:06 | 48.33495 | 13.91813 | 84° | 102km/h | 4075m | -3.0m/s | -0.6°C | 64.7% | 626.4hPa | 2.6V | 07:31:00 | 03:03:35 | 00:00:00 | |
| DO3MHA-11 | 2026-09-05 01:33:01 | 48.33482 | 13.91620 | 85° | 102km/h | 4090m | -3.2m/s | -0.7°C | 67.6% | 625.2hPa | 2.7V | 00:00:00 | 03:03:30 | 00:00:00 | |
| PG1ADW-2 | 2026-09-05 01:33:00 | 48.33479 | 13.91581 | 86° | 102km/h | 4094m | -3.1m/s | -0.7°C | 67.9% | 625.1hPa | 2.7V | 00:00:00 | 03:03:29 | 00:00:00 | |
| DO3MHA-11 | 2026-09-05 01:32:56 | 48.33470 | 13.91426 | 86° | 102km/h | 4106m | -3.2m/s | -0.9°C | 69.2% | 624.0hPa | 2.7V | 00:00:00 | 03:03:25 | 00:00:00 | |
| OE5HKT-10 | 2026-09-05 01:32:55 | 48.33468 | 13.91387 | 85° | 102km/h | 4109m | -3.0m/s | -0.9°C | 69.3% | 623.7hPa | 2.7V | 00:00:00 | 00:00:00 | 00:00:00 | |
| DO3MHA-11 | 2026-09-05 01:32:51 | 48.33458 | 13.91233 | 85° | 100km/h | 4122m | -3.3m/s | -1.0°C | 69.8% | 622.8hPa | 2.6V | 00:00:00 | 03:03:20 | 00:00:00 | |
| OE5WHR-10 | 2026-09-05 01:32:50 | 48.33455 | 13.91195 | 84° | 102km/h | 4125m | -3.4m/s | -1.0°C | 70.0% | 622.6hPa | 2.6V | 00:00:00 | 03:03:19 | 00:00:00 | |
| DO3MHA-11 | 2026-09-05 01:32:46 | 48.33445 | 13.91043 | 85° | 102km/h | 4138m | -3.0m/s | -1.1°C | 70.6% | 621.6hPa | 2.6V | 00:00:00 | 03:03:15 | 00:00:00 | |
| OE5DRO-10 | 2026-09-05 01:32:45 | 48.33442 | 13.91004 | 85° | 102km/h | 4141m | -3.1m/s | -1.2°C | 70.5% | 621.4hPa | 2.6V | 00:00:00 | 00:00:00 | 00:00:00 | |
| DO3MHA-11 | 2026-09-05 01:32:41 | 48.33432 | 13.90851 | 84° | 102km/h | 4153m | -3.1m/s | -1.2°C | 69.7% | 620.3hPa | 2.7V | 00:00:00 | 03:03:10 | 00:00:00 | |
| PG1ADW-2 | 2026-09-05 01:32:40 | 48.33430 | 13.90812 | 84° | 102km/h | 4156m | -3.1m/s | -1.3°C | 68.3% | 620.1hPa | 2.7V | 00:00:00 | 00:00:00 | 00:00:00 | |
| OE5FHM-15 | 2026-09-05 01:32:38 | 48.33423 | 13.90735 | 83° | 102km/h | 4162m | -3.1m/s | -1.3°C | 67.5% | 619.6hPa | 2.7V | 00:00:00 | 03:03:07 | 00:00:00 | |
| DO3MHA-11 | 2026-09-05 01:32:36 | 48.33417 | 13.90658 | 82° | 102km/h | 4169m | -3.1m/s | -1.4°C | 66.9% | 619.2hPa | 2.7V | 00:00:00 | 03:03:05 | 00:00:00 | |
| OE5WHR-10 | 2026-09-05 01:32:33 | 48.33406 | 13.90542 | 82° | 102km/h | 4178m | -2.9m/s | -1.4°C | 65.5% | 618.4hPa | 2.7V | 00:00:00 | 00:00:00 | 00:00:00 | |
| DO3MHA-11 | 2026-09-05 01:32:31 | 48.33399 | 13.90465 | 82° | 102km/h | 4184m | -3.1m/s | -1.5°C | 66.4% | 617.9hPa | 2.7V | 00:00:00 | 03:03:00 | 00:00:00 | |
| OE5DRO-10 | 2026-09-05 01:32:29 | 48.33392 | 13.90388 | 83° | 102km/h | 4191m | -3.3m/s | -1.5°C | 66.7% | 617.4hPa | 2.7V | 00:00:00 | 00:00:00 | 00:00:00 | |
| DO3MHA-11 | 2026-09-05 01:32:26 | 48.33381 | 13.90272 | 82° | 100km/h | 4200m | -3.1m/s | -1.6°C | 66.2% | 616.8hPa | 2.7V | 07:32:00 | 03:02:55 | 00:00:00 | |
| OE5HKT-10 | 2026-09-05 01:32:21 | 48.33363 | 13.90083 | 82° | 102km/h | 4215m | -3.4m/s | -1.7°C | 71.8% | 615.6hPa | 2.7V | 00:00:00 | 03:02:50 | 00:00:00 | |
| PG1ADW-2 | 2026-09-05 01:32:20 | 48.33359 | 13.90045 | 82° | 102km/h | 4218m | -3.0m/s | -1.8°C | 72.5% | 615.3hPa | 2.7V | 07:32:00 | 00:00:00 | 00:00:00 | |
| OE5REO-15 | 2026-09-05 01:32:19 | 48.33359 | 13.90045 | 83° | 100km/h | 4218m | -3.1m/s | -1.8°C | 72.1% | 615.4hPa | 2.7V | 07:32:00 | 00:00:00 | 00:00:00 | |
| OE5WHR-10 | 2026-09-05 01:32:16 | 48.33343 | 13.89892 | 82° | 102km/h | 4231m | -2.9m/s | -1.9°C | 74.8% | 614.3hPa | 2.7V | 00:00:00 | 00:00:00 | 00:00:00 | |
| OE5DRO-10 | 2026-09-05 01:32:13 | 48.33332 | 13.89778 | 81° | 102km/h | 4240m | -3.1m/s | -2.0°C | 77.1% | 613.6hPa | 2.7V | 00:00:00 | 00:00:00 | 00:00:00 | |
| DO3MHA-11 | 2026-09-05 01:32:11 | 48.33324 | 13.89702 | 82° | 102km/h | 4246m | -3.1m/s | -2.1°C | 77.5% | 613.0hPa | 2.7V | 00:00:00 | 03:02:40 | 00:00:00 | |
| OE5FHM-15 | 2026-09-05 01:32:08 | 48.33313 | 13.89587 | 82° | 104km/h | 4256m | -2.9m/s | -2.0°C | 73.4% | 612.5hPa | 2.7V | 00:00:00 | 03:02:37 | 00:00:00 | |
| DO3MHA-11 | 2026-09-05 01:32:06 | 48.33305 | 13.89510 | 82° | 102km/h | 4262m | -3.1m/s | -2.1°C | 73.1% | 611.9hPa | 2.7V | 00:00:00 | 03:02:35 | 00:00:00 | |
| OE5HKT-10 | 2026-09-05 01:32:04 | 48.33298 | 13.89433 | 82° | 104km/h | 4268m | -3.1m/s | -2.1°C | 73.0% | 611.5hPa | 2.7V | 00:00:00 | 00:00:00 | 00:00:00 | |
| OE5REO-15 | 2026-09-05 01:32:03 | 48.33298 | 13.89433 | 83° | 102km/h | 4268m | -3.2m/s | -2.2°C | 72.6% | 611.6hPa | 2.7V | 07:33:00 | 00:00:00 | 00:00:00 | |
| DO3MHA-11 | 2026-09-05 01:32:01 | 48.33286 | 13.89318 | 81° | 102km/h | 4278m | -3.1m/s | -2.2°C | 69.8% | 610.7hPa | 2.7V | 00:00:00 | 03:02:30 | 00:00:00 | |
| PG1ADW-2 | 2026-09-05 01:32:00 | 48.33282 | 13.89279 | 81° | 104km/h | 4281m | -3.2m/s | -2.2°C | 69.7% | 610.6hPa | 2.7V | 00:00:00 | 00:00:00 | 00:00:00 | |
| OE5WHR-10 | 2026-09-05 01:31:59 | 48.33277 | 13.89241 | 81° | 104km/h | 4284m | -3.1m/s | -2.2°C | 69.9% | 610.2hPa | 2.7V | 00:00:00 | 03:02:28 | 00:00:00 | |
| OE5DRO-10 | 2026-09-05 01:31:57 | 48.33269 | 13.89163 | 80° | 104km/h | 4290m | -3.1m/s | -2.2°C | 69.3% | 609.8hPa | 2.7V | 07:32:00 | 00:00:00 | 00:00:00 | |
| DO3MHA-11 | 2026-09-05 01:31:56 | 48.33264 | 13.89124 | 81° | 104km/h | 4293m | -3.1m/s | -2.2°C | 69.5% | 609.5hPa | 2.7V | 00:00:00 | 03:02:25 | 00:00:00 | |
| DO3MHA-11 | 2026-09-05 01:31:51 | 48.33242 | 13.88929 | 81° | 104km/h | 4309m | -2.8m/s | -2.4°C | 69.6% | 608.5hPa | 2.7V | 00:00:00 | 03:02:20 | 00:00:00 | |
| OE5REO-15 | 2026-09-05 01:31:48 | 48.33232 | 13.88851 | 80° | 106km/h | 4315m | -3.2m/s | -2.5°C | 68.9% | 608.0hPa | 2.6V | 07:33:00 | 00:00:00 | 00:00:00 | |
| OE5HKT-10 | 2026-09-05 01:31:47 | 48.33223 | 13.88773 | 80° | 104km/h | 4321m | -3.1m/s | -2.4°C | 66.8% | 607.5hPa | 2.6V | 00:00:00 | 00:00:00 | 00:00:00 | |
| OE5MMP-10 | 2026-09-05 01:31:46 | 48.33218 | 13.88734 | 80° | 104km/h | 4324m | -2.9m/s | -2.4°C | 67.3% | 607.3hPa | 2.6V | 00:00:00 | 03:02:15 | 00:00:00 | |
| OE5WHR-10 | 2026-09-05 01:31:42 | 48.33200 | 13.88579 | 81° | 104km/h | 4336m | -3.0m/s | -2.5°C | 68.8% | 606.3hPa | 2.6V | 00:00:00 | 00:00:00 | 00:00:00 | |
| DO3MHA-11 | 2026-09-05 01:31:41 | 48.33195 | 13.88540 | 81° | 104km/h | 4339m | -3.2m/s | -2.6°C | 68.9% | 606.1hPa | 2.7V | 00:00:00 | 03:02:10 | 00:00:00 | |
| PG1ADW-2 | 2026-09-05 01:31:40 | 48.33191 | 13.88501 | 81° | 104km/h | 4342m | -3.0m/s | -2.6°C | 69.0% | 605.9hPa | 2.7V | 00:00:00 | 03:02:09 | 00:00:00 | |
| OE5FHM-15 | 2026-09-05 01:31:38 | 48.33182 | 13.88423 | 80° | 104km/h | 4349m | -3.1m/s | -2.7°C | 72.8% | 605.3hPa | 2.6V | 00:00:00 | 03:02:07 | 00:00:00 | |
| OE5MMP-10 | 2026-09-05 01:31:36 | 48.33172 | 13.88345 | 80° | 104km/h | 4355m | -3.1m/s | -2.7°C | 75.0% | 604.9hPa | 2.6V | 00:00:00 | 03:02:05 | 00:00:00 | |
| OE5REO-15 | 2026-09-05 01:31:33 | 48.33162 | 13.88268 | 81° | 104km/h | 4361m | -2.9m/s | -2.8°C | 77.7% | 604.5hPa | 2.6V | 07:33:00 | 00:00:00 | 00:00:00 | |
| DO3MHA-11 | 2026-09-05 01:31:31 | 48.33147 | 13.88150 | 79° | 106km/h | 4370m | -2.9m/s | -2.9°C | 79.1% | 603.8hPa | 2.6V | 00:00:00 | 03:02:00 | 00:00:00 | |
| OE5HKT-10 | 2026-09-05 01:31:30 | 48.33142 | 13.88111 | 80° | 104km/h | 4373m | -2.9m/s | -2.9°C | 79.4% | 603.4hPa | 2.6V | 00:00:00 | 03:01:59 | 00:00:00 | |
| DO3MHA-11 | 2026-09-05 01:31:26 | 48.33123 | 13.87954 | 80° | 104km/h | 4385m | -2.9m/s | -3.0°C | 81.3% | 602.5hPa | 2.6V | 00:00:00 | 03:01:55 | 00:00:00 | |
| OE5WHR-10 | 2026-09-05 01:31:25 | 48.33118 | 13.87915 | 80° | 104km/h | 4388m | -3.1m/s | -3.0°C | 81.1% | 602.3hPa | 2.6V | 00:00:00 | 00:00:00 | 00:00:00 | |
| DO3MHA-11 | 2026-09-05 01:31:21 | 48.33099 | 13.87761 | 80° | 104km/h | 4400m | -3.0m/s | -3.1°C | 82.1% | 601.5hPa | 2.6V | 00:00:00 | 03:01:50 | 00:00:00 | |
| OE5REO-15 | 2026-09-05 01:31:17 | 48.33083 | 13.87644 | 79° | 104km/h | 4409m | -3.3m/s | -3.3°C | 82.2% | 600.7hPa | 2.7V | 07:33:00 | 00:00:00 | 00:00:00 | |
| OE5MMP-10 | 2026-09-05 01:31:16 | 48.33073 | 13.87566 | 80° | 104km/h | 4415m | -3.1m/s | -3.3°C | 83.6% | 600.1hPa | 2.7V | 07:33:00 | 03:01:45 | 00:00:00 | |
| DO3MHA-11 | 2026-09-05 01:31:15 | 48.33068 | 13.87527 | 80° | 106km/h | 4418m | -3.1m/s | -3.3°C | 84.4% | 600.0hPa | 2.7V | 00:00:00 | 03:01:44 | 00:00:00 | |
| OE5HKT-10 | 2026-09-05 01:31:13 | 48.33058 | 13.87448 | 79° | 104km/h | 4425m | -3.1m/s | -3.4°C | 85.6% | 599.5hPa | 2.7V | 00:00:00 | 00:00:00 | 00:00:00 | |
| DO3MHA-11 | 2026-09-05 01:31:10 | 48.33043 | 13.87331 | 79° | 104km/h | 4434m | -3.2m/s | -3.4°C | 85.8% | 598.8hPa | 2.7V | 00:00:00 | 03:01:39 | 00:00:00 | |
| OE5DRO-10 | 2026-09-05 01:31:09 | 48.33038 | 13.87292 | 79° | 104km/h | 4437m | -2.9m/s | -3.5°C | 86.0% | 598.7hPa | 2.7V | 00:00:00 | 00:00:00 | 00:00:00 | |
| OE5FHM-15 | 2026-09-05 01:31:08 | 48.33032 | 13.87254 | 79° | 104km/h | 4440m | -3.0m/s | -3.5°C | 86.3% | 598.4hPa | 2.7V | 00:00:00 | 03:01:37 | 00:00:00 | |
| OE5MMP-10 | 2026-09-05 01:31:06 | 48.33022 | 13.87176 | 79° | 104km/h | 4446m | -3.1m/s | -3.6°C | 87.2% | 598.0hPa | 2.7V | 00:00:00 | 03:01:35 | 00:00:00 | |
| DO3MHA-11 | 2026-09-05 01:31:05 | 48.33017 | 13.87137 | 79° | 104km/h | 4449m | -3.2m/s | -3.6°C | 86.8% | 597.9hPa | 2.7V | 07:33:00 | 03:01:34 | 00:00:00 | |
| OE5REO-15 | 2026-09-05 01:31:02 | 48.33007 | 13.87059 | 80° | 104km/h | 4456m | -3.0m/s | -3.7°C | 86.3% | 597.3hPa | 2.7V | 07:33:00 | 00:00:00 | 00:00:00 | |
| PG1ADW-2 | 2026-09-05 01:31:00 | 48.32991 | 13.86942 | 79° | 104km/h | 4465m | -3.1m/s | -3.7°C | 87.3% | 596.5hPa | 2.7V | 00:00:00 | 00:00:00 | 00:00:00 | |
| OE5MMP-10 | 2026-09-05 01:30:56 | 48.32971 | 13.86785 | 80° | 104km/h | 4478m | -3.4m/s | -3.8°C | 86.8% | 595.4hPa | 2.7V | 00:00:00 | 03:01:25 | 00:00:00 | |
| DO3MHA-11 | 2026-09-05 01:30:55 | 48.32967 | 13.86747 | 80° | 104km/h | 4482m | -3.7m/s | -3.9°C | 86.9% | 595.2hPa | 2.7V | 00:00:00 | 03:01:24 | 00:00:00 | |
| OE5HKT-10 | 2026-09-05 01:30:53 | 48.32957 | 13.86669 | 79° | 104km/h | 4489m | -3.4m/s | -3.9°C | 87.4% | 594.8hPa | 2.7V | 00:00:00 | 00:00:00 | 00:00:00 | |
| OE5WHR-10 | 2026-09-05 01:30:51 | 48.32946 | 13.86592 | 79° | 104km/h | 4496m | -3.5m/s | -4.0°C | 87.5% | 594.2hPa | 2.7V | 00:00:00 | 00:00:00 | 00:00:00 | |
| DO3MHA-11 | 2026-09-05 01:30:50 | 48.32941 | 13.86553 | 80° | 104km/h | 4499m | -3.3m/s | -4.0°C | 87.3% | 594.1hPa | 2.7V | 00:00:00 | 03:01:19 | 00:00:00 | |
| OE5REO-15 | 2026-09-05 01:30:47 | 48.32931 | 13.86476 | 79° | 104km/h | 4506m | -3.4m/s | -4.1°C | 87.7% | 593.4hPa | 2.6V | 07:33:00 | 00:00:00 | 00:00:00 | |
| OE5MMP-10 | 2026-09-05 01:30:46 | 48.32920 | 13.86399 | 80° | 104km/h | 4513m | -3.2m/s | -4.2°C | 88.5% | 593.0hPa | 2.6V | 00:00:00 | 03:01:15 | 00:00:00 | |
| DO3MHA-11 | 2026-09-05 01:30:45 | 48.32915 | 13.86360 | 80° | 104km/h | 4517m | -3.6m/s | -4.2°C | 88.2% | 592.6hPa | 2.6V | 00:00:00 | 03:01:14 | 00:00:00 | |
| PG1ADW-2 | 2026-09-05 01:30:40 | 48.32892 | 13.86166 | 80° | 104km/h | 4534m | -3.6m/s | -4.4°C | 88.6% | 591.4hPa | 2.6V | 00:00:00 | 00:00:00 | 00:00:00 | |
| OE5FHM-15 | 2026-09-05 01:30:38 | 48.32882 | 13.86089 | 80° | 104km/h | 4542m | -3.9m/s | -4.4°C | 88.2% | 590.8hPa | 2.7V | 00:00:00 | 03:01:07 | 00:00:00 | |
| OE5DRO-10 | 2026-09-05 01:30:37 | 48.32878 | 13.86050 | 81° | 104km/h | 4545m | -3.6m/s | -4.5°C | 88.3% | 590.6hPa | 2.7V | 00:00:00 | 00:00:00 | 00:00:00 | |
| OE5MMP-10 | 2026-09-05 01:30:36 | 48.32873 | 13.86011 | 80° | 104km/h | 4549m | -3.6m/s | -4.5°C | 88.3% | 590.2hPa | 2.7V | 00:00:00 | 03:01:05 | 00:00:00 | |
| OE5HKT-10 | 2026-09-05 01:30:35 | 48.32868 | 13.85972 | 80° | 104km/h | 4552m | -3.6m/s | -4.5°C | 88.8% | 590.0hPa | 2.7V | 00:00:00 | 03:01:04 | 00:00:00 | |
| OE5WHR-10 | 2026-09-05 01:30:34 | 48.32863 | 13.85934 | 80° | 104km/h | 4556m | -3.5m/s | -4.6°C | 88.9% | 589.7hPa | 2.7V | 00:00:00 | 00:00:00 | 00:00:00 | |
| OE5REO-15 | 2026-09-05 01:30:31 | 48.32854 | 13.85856 | 81° | 104km/h | 4563m | -3.6m/s | -4.7°C | 88.3% | 589.2hPa | 2.7V | 07:34:00 | 00:00:00 | 00:00:00 | |
| DO3MHA-11 | 2026-09-05 01:30:30 | 48.32845 | 13.85779 | 80° | 104km/h | 4570m | -3.5m/s | -4.7°C | 89.5% | 588.6hPa | 2.7V | 00:00:00 | 03:00:59 | 00:00:00 | |
| OE5MMP-10 | 2026-09-05 01:30:26 | 48.32825 | 13.85623 | 79° | 104km/h | 4585m | -3.6m/s | -4.8°C | 90.5% | 587.6hPa | 2.7V | 00:00:00 | 03:00:55 | 00:00:00 | |
| OE5DRO-10 | 2026-09-05 01:30:21 | 48.32799 | 13.85430 | 79° | 104km/h | 4602m | -3.6m/s | -5.0°C | 89.4% | 586.2hPa | 2.6V | 00:00:00 | 00:00:00 | 00:00:00 | |
| PG1ADW-2 | 2026-09-05 01:30:20 | 48.32793 | 13.85391 | 79° | 104km/h | 4606m | -3.6m/s | -5.1°C | 89.4% | 586.0hPa | 2.7V | 00:00:00 | 03:00:49 | 00:00:00 | |
| OE5HKT-10 | 2026-09-05 01:30:18 | 48.32784 | 13.85314 | 80° | 104km/h | 4613m | -3.3m/s | -5.1°C | 89.8% | 585.4hPa | 2.7V | 07:34:00 | 00:00:00 | 00:00:00 | |
| OE5WHR-10 | 2026-09-05 01:30:17 | 48.32779 | 13.85275 | 81° | 104km/h | 4617m | -3.7m/s | -5.2°C | 89.8% | 585.2hPa | 2.7V | 00:00:00 | 03:00:46 | 00:00:00 | |
| OE5MMP-10 | 2026-09-05 01:30:16 | 48.32774 | 13.85235 | 80° | 104km/h | 4620m | -3.7m/s | -5.2°C | 89.8% | 584.7hPa | 2.7V | 00:00:00 | 03:00:45 | 00:00:00 | |
| OE5MMP-10 | 2026-09-05 01:30:06 | 48.32731 | 13.84843 | 81° | 104km/h | 4657m | -3.6m/s | -5.5°C | 91.1% | 582.3hPa | 2.7V | 00:00:00 | 03:00:35 | 00:00:00 | |
| DO3MHA-11 | 2026-09-05 01:30:01 | 48.32711 | 13.84649 | 82° | 102km/h | 4675m | -3.6m/s | -5.7°C | 91.9% | 580.9hPa | 2.7V | 07:34:00 | 03:00:30 | 00:00:00 | |
| PG1ADW-2 | 2026-09-05 01:30:00 | 48.32699 | 13.84532 | 82° | 104km/h | 4686m | -3.6m/s | -5.8°C | 92.7% | 580.0hPa | 2.7V | 00:00:00 | 00:00:00 | 00:00:00 | |
| OE5DXL-15 | 2026-09-05 01:29:56 | 48.32692 | 13.84456 | 82° | 104km/h | 4693m | -3.5m/s | -5.8°C | 92.8% | 579.5hPa | 2.7V | 00:00:00 | 00:00:00 | 00:00:00 | |
| DO3MHA-11 | 2026-09-05 01:29:54 | 48.32684 | 13.84378 | 82° | 102km/h | 4700m | -3.4m/s | -5.9°C | 92.4% | 578.9hPa | 2.7V | 00:00:00 | 03:00:23 | 00:00:00 | |
| OE5DRO-10 | 2026-09-05 01:29:49 | 48.32665 | 13.84185 | 83° | 104km/h | 4718m | -3.4m/s | -6.0°C | 90.9% | 577.7hPa | 2.6V | 07:34:00 | 00:00:00 | 00:00:00 | |
| OE5MMP-10 | 2026-09-05 01:29:46 | 48.32654 | 13.84068 | 82° | 104km/h | 4728m | -3.5m/s | -6.1°C | 90.0% | 576.9hPa | 2.6V | 00:00:00 | 03:00:15 | 00:00:00 | |
| OE5REO-15 | 2026-09-05 01:29:44 | 48.32650 | 13.84029 | 83° | 104km/h | 4732m | -3.5m/s | -6.1°C | 89.1% | 576.7hPa | 2.6V | 07:34:00 | 00:00:00 | 00:00:00 | |
| OE5WHR-10 | 2026-09-05 01:29:43 | 48.32643 | 13.83951 | 83° | 104km/h | 4739m | -3.7m/s | -6.1°C | 90.2% | 576.1hPa | 2.6V | 00:00:00 | 00:00:00 | 00:00:00 | |
| OE5HKT-10 | 2026-09-05 01:29:41 | 48.32636 | 13.83873 | 84° | 104km/h | 4746m | -3.7m/s | -6.2°C | 89.9% | 575.6hPa | 2.6V | 00:00:00 | 03:00:10 | 00:00:00 | |
| PG1ADW-2 | 2026-09-05 01:29:40 | 48.32627 | 13.83755 | 83° | 106km/h | 4757m | -3.6m/s | -6.3°C | 90.1% | 574.8hPa | 2.6V | 07:34:00 | 00:00:00 | 00:00:00 | |
| OE5FHM-15 | 2026-09-05 01:29:38 | 48.32627 | 13.83755 | 83° | 104km/h | 4757m | -3.6m/s | -6.3°C | 90.1% | 574.8hPa | 2.7V | 00:00:00 | 03:00:07 | 00:00:00 | |
| OE5MMP-10 | 2026-09-05 01:29:36 | 48.32620 | 13.83677 | 84° | 106km/h | 4764m | -3.7m/s | -6.3°C | 90.5% | 574.3hPa | 2.7V | 00:00:00 | 03:00:05 | 00:00:00 | |
| OE5DRO-10 | 2026-09-05 01:29:33 | 48.32610 | 13.83559 | 83° | 106km/h | 4775m | -3.5m/s | -6.4°C | 90.7% | 573.7hPa | 2.7V | 00:00:00 | 00:00:00 | 00:00:00 | |
| OE5REO-15 | 2026-09-05 01:29:28 | 48.32596 | 13.83399 | 83° | 106km/h | 4788m | -3.4m/s | -6.6°C | 90.2% | 572.5hPa | 2.6V | 07:35:00 | 00:00:00 | 00:00:00 | |
| OE5WHR-10 | 2026-09-05 01:29:26 | 48.32585 | 13.83280 | 83° | 104km/h | 4798m | -3.4m/s | -6.6°C | 91.5% | 571.8hPa | 2.6V | 00:00:00 | 02:59:55 | 00:00:00 | |
| OE5HKT-10 | 2026-09-05 01:29:23 | 48.32575 | 13.83162 | 84° | 104km/h | 4809m | -3.3m/s | -6.7°C | 91.7% | 571.0hPa | 2.6V | 00:00:00 | 00:00:00 | 00:00:00 | |
| PG1ADW-2 | 2026-09-05 01:29:20 | 48.32562 | 13.83003 | 84° | 106km/h | 4822m | -3.2m/s | -6.8°C | 92.2% | 570.0hPa | 2.6V | 00:00:00 | 00:00:00 | 00:00:00 | |
| DO3MHA-11 | 2026-09-05 01:29:17 | 48.32556 | 13.82924 | 83° | 104km/h | 4828m | -3.3m/s | -6.8°C | 92.6% | 569.7hPa | 2.6V | 00:00:00 | 02:59:46 | 00:00:00 | |
| OE5MMP-10 | 2026-09-05 01:29:16 | 48.32553 | 13.82885 | 83° | 104km/h | 4832m | -3.4m/s | -6.9°C | 92.8% | 569.4hPa | 2.7V | 00:00:00 | 02:59:45 | 00:00:00 | |
| OE5REO-15 | 2026-09-05 01:29:12 | 48.32544 | 13.82767 | 84° | 106km/h | 4843m | -3.6m/s | -7.0°C | 92.4% | 568.7hPa | 2.7V | 07:35:00 | 00:00:00 | 00:00:00 | |
| OE5WHR-10 | 2026-09-05 01:29:09 | 48.32530 | 13.82609 | 83° | 106km/h | 4856m | -3.4m/s | -7.1°C | 94.0% | 567.5hPa | 2.7V | 00:00:00 | 00:00:00 | 00:00:00 | |
| OE5FHM-15 | 2026-09-05 01:29:08 | 48.32527 | 13.82569 | 82° | 106km/h | 4860m | -3.4m/s | -7.1°C | 94.2% | 567.3hPa | 2.7V | 00:00:00 | 02:59:37 | 00:00:00 | |
| OE5HKT-10 | 2026-09-05 01:29:06 | 48.32519 | 13.82490 | 83° | 106km/h | 4867m | -3.4m/s | -7.2°C | 94.6% | 566.9hPa | 2.6V | 00:00:00 | 00:00:00 | 00:00:00 | |
| OE5DRO-10 | 2026-09-05 01:29:01 | 48.32502 | 13.82289 | 84° | 106km/h | 4884m | -3.5m/s | -7.3°C | 95.5% | 565.5hPa | 2.6V | 00:00:00 | 00:00:00 | 00:00:00 | |
| PG1ADW-2 | 2026-09-05 01:28:59 | 48.32495 | 13.82208 | 83° | 106km/h | 4891m | -3.3m/s | -7.4°C | 96.0% | 565.0hPa | 2.6V | 00:00:00 | 02:59:28 | 00:00:00 | |
| OE5MMP-10 | 2026-09-05 01:28:56 | 48.32486 | 13.82089 | 83° | 106km/h | 4901m | -3.3m/s | -7.5°C | 96.2% | 564.3hPa | 2.6V | 00:00:00 | 02:59:25 | 00:00:00 | |
| OE5WHR-10 | 2026-09-05 01:28:52 | 48.32472 | 13.81931 | 83° | 106km/h | 4915m | -3.2m/s | -7.5°C | 95.4% | 563.4hPa | 2.6V | 07:35:00 | 00:00:00 | 00:00:00 | |
| DO3MHA-11 | 2026-09-05 01:28:51 | 48.32469 | 13.81892 | 83° | 106km/h | 4918m | -3.5m/s | -7.5°C | 93.9% | 563.2hPa | 2.6V | 00:00:00 | 02:59:20 | 00:00:00 | |
| OE5HKT-10 | 2026-09-05 01:28:49 | 48.32462 | 13.81813 | 84° | 106km/h | 4925m | -3.1m/s | -7.4°C | 89.9% | 562.6hPa | 2.6V | 00:00:00 | 02:59:18 | 00:00:00 | |
| DO3MHA-11 | 2026-09-05 01:28:46 | 48.32453 | 13.81693 | 83° | 104km/h | 4935m | -3.3m/s | -7.4°C | 86.4% | 561.8hPa | 2.6V | 07:35:00 | 02:59:15 | 00:00:00 | |
| OE5DRO-10 | 2026-09-05 01:28:45 | 48.32450 | 13.81653 | 84° | 106km/h | 4938m | -3.3m/s | -7.4°C | 86.5% | 561.6hPa | 2.6V | 00:00:00 | 00:00:00 | 00:00:00 | |
| OE5REO-15 | 2026-09-05 01:28:41 | 48.32439 | 13.81534 | 83° | 104km/h | 4949m | -3.3m/s | -7.5°C | 86.0% | 561.1hPa | 2.6V | 07:36:00 | 00:00:00 | 00:00:00 | |
| PG1ADW-2 | 2026-09-05 01:28:39 | 48.32429 | 13.81416 | 83° | 104km/h | 4958m | -3.1m/s | -7.6°C | 87.1% | 560.2hPa | 2.6V | 00:00:00 | 00:00:00 | 00:00:00 | |
| OE5FHM-15 | 2026-09-05 01:28:38 | 48.32425 | 13.81376 | 82° | 104km/h | 4962m | -3.2m/s | -7.6°C | 87.2% | 560.0hPa | 2.6V | 00:00:00 | 02:59:07 | 00:00:00 | |
| OE5MMP-10 | 2026-09-05 01:28:36 | 48.32418 | 13.81297 | 83° | 106km/h | 4968m | -3.1m/s | -7.7°C | 87.7% | 559.5hPa | 2.6V | 07:35:00 | 02:59:05 | 00:00:00 | |
| OE5WHR-10 | 2026-09-05 01:28:35 | 48.32414 | 13.81257 | 83° | 104km/h | 4972m | -3.2m/s | -7.7°C | 87.7% | 559.3hPa | 2.6V | 00:00:00 | 02:59:04 | 00:00:00 | |
| DO3MHA-11 | 2026-09-05 01:28:34 | 48.32411 | 13.81217 | 82° | 106km/h | 4975m | -3.3m/s | -7.7°C | 87.8% | 559.2hPa | 2.6V | 00:00:00 | 02:59:03 | 00:00:00 | |
| OE5HKT-10 | 2026-09-05 01:28:32 | 48.32403 | 13.81137 | 83° | 104km/h | 4981m | -3.0m/s | -7.8°C | 88.0% | 558.5hPa | 2.7V | 00:00:00 | 00:00:00 | 00:00:00 | |
| DO3MHA-11 | 2026-09-05 01:28:29 | 48.32392 | 13.81019 | 82° | 104km/h | 4990m | -3.2m/s | -7.9°C | 88.3% | 558.0hPa | 2.6V | 00:00:00 | 02:58:58 | 00:00:00 | |
| OE5DXL-15 | 2026-09-05 01:28:26 | 48.32380 | 13.80901 | 82° | 104km/h | 5000m | -3.1m/s | -7.9°C | 87.4% | 557.2hPa | 2.6V | 00:00:00 | 00:00:00 | 00:00:00 | |
| OE5REO-15 | 2026-09-05 01:28:25 | 48.32380 | 13.80901 | 83° | 104km/h | 5000m | -3.1m/s | -7.9°C | 86.4% | 557.2hPa | 2.6V | 07:36:00 | 00:00:00 | 00:00:00 | |
| DO3MHA-11 | 2026-09-05 01:28:24 | 48.32372 | 13.80823 | 81° | 104km/h | 5006m | -3.1m/s | -7.9°C | 84.3% | 556.8hPa | 2.6V | 00:00:00 | 02:58:53 | 00:00:00 | |
| PG1ADW-2 | 2026-09-05 01:28:19 | 48.32352 | 13.80629 | 82° | 104km/h | 5022m | -3.1m/s | -7.9°C | 81.7% | 555.7hPa | 2.6V | 00:00:00 | 00:00:00 | 00:00:00 | |
| OE5WHR-10 | 2026-09-05 01:28:18 | 48.32348 | 13.80590 | 82° | 104km/h | 5025m | -3.0m/s | -7.9°C | 81.3% | 555.5hPa | 2.6V | 00:00:00 | 00:00:00 | 00:00:00 | |
| OE5MMP-10 | 2026-09-05 01:28:16 | 48.32340 | 13.80511 | 81° | 104km/h | 5031m | -3.2m/s | -7.9°C | 80.3% | 555.0hPa | 2.6V | 00:00:00 | 02:58:45 | 00:00:00 | |
| OE5HKT-10 | 2026-09-05 01:28:15 | 48.32335 | 13.80472 | 81° | 104km/h | 5035m | -3.1m/s | -7.9°C | 80.4% | 554.8hPa | 2.6V | 00:00:00 | 00:00:00 | 00:00:00 | |
| DO3MHA-11 | 2026-09-05 01:28:14 | 48.32330 | 13.80434 | 81° | 104km/h | 5038m | -3.1m/s | -8.0°C | 80.6% | 554.5hPa | 2.6V | 00:00:00 | 02:58:43 | 00:00:00 | |
| OE5DRO-10 | 2026-09-05 01:28:13 | 48.32326 | 13.80395 | 80° | 104km/h | 5041m | -2.8m/s | -8.0°C | 80.7% | 554.4hPa | 2.6V | 00:00:00 | 00:00:00 | 00:00:00 | |
| OE5REO-15 | 2026-09-05 01:28:10 | 48.32316 | 13.80317 | 80° | 104km/h | 5047m | -3.0m/s | -8.1°C | 79.7% | 553.9hPa | 2.6V | 07:36:00 | 00:00:00 | 00:00:00 | |
| OE5FHM-15 | 2026-09-05 01:28:08 | 48.32301 | 13.80201 | 79° | 104km/h | 5056m | -2.8m/s | -8.1°C | 79.4% | 553.2hPa | 2.6V | 00:00:00 | 02:58:37 | 00:00:00 | |
| OE5MMP-10 | 2026-09-05 01:28:06 | 48.32290 | 13.80123 | 79° | 104km/h | 5062m | -3.2m/s | -8.1°C | 78.1% | 552.8hPa | 2.6V | 00:00:00 | 02:58:35 | 00:00:00 | |
| DO3MHA-11 | 2026-09-05 01:28:04 | 48.32281 | 13.80046 | 80° | 104km/h | 5068m | -3.0m/s | -8.1°C | 78.0% | 552.3hPa | 2.6V | 00:00:00 | 02:58:33 | 00:00:00 | |
| OE5WHR-10 | 2026-09-05 01:28:01 | 48.32266 | 13.79929 | 81° | 104km/h | 5077m | -3.0m/s | -8.1°C | 75.9% | 551.7hPa | 2.6V | 00:00:00 | 00:00:00 | 00:00:00 | |
| PG1ADW-2 | 2026-09-05 01:27:59 | 48.32257 | 13.79851 | 80° | 104km/h | 5083m | -3.3m/s | -8.2°C | 75.8% | 551.2hPa | 2.6V | 00:00:00 | 00:00:00 | 00:00:00 | |
| OE5HKT-10 | 2026-09-05 01:27:58 | 48.32252 | 13.79812 | 80° | 104km/h | 5087m | -3.0m/s | -8.2°C | 76.1% | 551.0hPa | 2.6V | 07:36:00 | 02:58:27 | 00:00:00 | |
| OE5DRO-10 | 2026-09-05 01:27:57 | 48.32247 | 13.79773 | 80° | 104km/h | 5090m | -3.3m/s | -8.2°C | 76.0% | 550.7hPa | 2.6V | 00:00:00 | 00:00:00 | 00:00:00 | |
| OE5DXL-15 | 2026-09-05 01:27:56 | 48.32243 | 13.79735 | 81° | 104km/h | 5093m | -3.0m/s | -8.3°C | 76.1% | 550.6hPa | 2.6V | 00:00:00 | 00:00:00 | 00:00:00 | |
| OE5REO-15 | 2026-09-05 01:27:55 | 48.32243 | 13.79735 | 81° | 104km/h | 5093m | -3.0m/s | -8.3°C | 75.2% | 550.6hPa | 2.6V | 07:37:00 | 00:00:00 | 00:00:00 | |
| DO3MHA-11 | 2026-09-05 01:27:54 | 48.32233 | 13.79658 | 80° | 104km/h | 5099m | -3.1m/s | -8.3°C | 75.9% | 550.0hPa | 2.6V | 00:00:00 | 02:58:23 | 00:00:00 | |
| OE5MMP-10 | 2026-09-05 01:27:46 | 48.32195 | 13.79347 | 81° | 106km/h | 5125m | -3.1m/s | -8.3°C | 72.5% | 548.2hPa | 2.6V | 00:00:00 | 02:58:15 | 00:00:00 | |
| OE5WHR-10 | 2026-09-05 01:27:44 | 48.32187 | 13.79268 | 81° | 106km/h | 5131m | -3.3m/s | -8.4°C | 72.6% | 547.9hPa | 2.6V | 00:00:00 | 02:58:13 | 00:00:00 | |
| OE5HKT-10 | 2026-09-05 01:27:41 | 48.32175 | 13.79149 | 82° | 106km/h | 5140m | -3.4m/s | -8.4°C | 71.5% | 547.0hPa | 2.6V | 00:00:00 | 00:00:00 | 00:00:00 | |
| OE5REO-15 | 2026-09-05 01:27:40 | 48.32175 | 13.79149 | 83° | 106km/h | 5140m | -3.4m/s | -8.5°C | 70.6% | 547.1hPa | 2.5V | 07:37:00 | 00:00:00 | 00:00:00 | |
| PG1ADW-2 | 2026-09-05 01:27:39 | 48.32167 | 13.79069 | 81° | 106km/h | 5147m | -3.0m/s | -8.4°C | 71.1% | 546.7hPa | 2.5V | 00:00:00 | 02:58:08 | 00:00:00 | |
| OE5FHM-15 | 2026-09-05 01:27:38 | 48.32162 | 13.79030 | 81° | 106km/h | 5150m | -2.9m/s | -8.4°C | 68.4% | 546.6hPa | 2.6V | 00:00:00 | 02:58:07 | 00:00:00 | |
| OE5MMP-10 | 2026-09-05 01:27:36 | 48.32154 | 13.78951 | 81° | 106km/h | 5156m | -3.2m/s | -8.4°C | 66.2% | 546.1hPa | 2.5V | 00:00:00 | 02:58:05 | 00:00:00 | |
| DO3MHA-11 | 2026-09-05 01:27:34 | 48.32145 | 13.78873 | 81° | 106km/h | 5162m | -3.2m/s | -8.4°C | 63.4% | 545.5hPa | 2.5V | 00:00:00 | 02:58:03 | 00:00:00 | |
| OE5WHR-10 | 2026-09-05 01:27:27 | 48.32118 | 13.78596 | 83° | 108km/h | 5185m | -3.2m/s | -8.5°C | 56.8% | 544.0hPa | 2.5V | 00:00:00 | 00:00:00 | 00:00:00 | |
| OE5DXL-15 | 2026-09-05 01:27:26 | 48.32114 | 13.78556 | 83° | 106km/h | 5188m | -3.2m/s | -8.5°C | 55.7% | 543.8hPa | 2.5V | 00:00:00 | 00:00:00 | 00:00:00 | |
| OE5DRO-10 | 2026-09-05 01:27:25 | 48.32111 | 13.78515 | 83° | 108km/h | 5191m | -3.3m/s | -8.5°C | 55.6% | 543.6hPa | 2.5V | 00:00:00 | 00:00:00 | 00:00:00 | |
| DO3MHA-11 | 2026-09-05 01:27:24 | 48.32107 | 13.78474 | 83° | 108km/h | 5194m | -3.2m/s | -8.5°C | 55.8% | 543.3hPa | 2.5V | 00:00:00 | 02:57:53 | 00:00:00 | |
| PG1ADW-2 | 2026-09-05 01:27:19 | 48.32090 | 13.78270 | 84° | 106km/h | 5211m | -3.1m/s | -8.7°C | 54.4% | 542.2hPa | 2.5V | 00:00:00 | 00:00:00 | 00:00:00 | |
| OE3JTB-15 | 2026-09-05 01:27:17 | 48.32085 | 13.78189 | 85° | 104km/h | 5218m | -3.3m/s | -8.7°C | 56.0% | 541.7hPa | 2.5V | 00:00:00 | 00:00:00 | 00:00:00 | |
| OE5MMP-10 | 2026-09-05 01:27:16 | 48.32082 | 13.78149 | 85° | 106km/h | 5221m | -3.2m/s | -8.8°C | 55.8% | 541.6hPa | 2.5V | 07:37:00 | 02:57:45 | 00:00:00 | |
| DO3MHA-11 | 2026-09-05 01:27:14 | 48.32077 | 13.78069 | 85° | 106km/h | 5227m | -3.0m/s | -8.8°C | 56.3% | 541.0hPa | 2.5V | 00:00:00 | 02:57:43 | 00:00:00 | |
| OE5WHR-10 | 2026-09-05 01:27:10 | 48.32066 | 13.77908 | 84° | 104km/h | 5240m | -3.4m/s | -8.9°C | 51.7% | 540.2hPa | 2.5V | 00:00:00 | 00:00:00 | 00:00:00 | |
| OE5DRO-10 | 2026-09-05 01:27:09 | 48.32063 | 13.77868 | 84° | 104km/h | 5243m | -3.1m/s | -8.8°C | 48.8% | 540.0hPa | 2.5V | 00:00:00 | 00:00:00 | 00:00:00 | |
| OE5FHM-15 | 2026-09-05 01:27:08 | 48.32060 | 13.77828 | 84° | 102km/h | 5246m | -3.4m/s | -8.9°C | 49.9% | 539.8hPa | 2.6V | 00:00:00 | 02:57:37 | 00:00:00 | |
| OE5HKT-10 | 2026-09-05 01:27:06 | 48.32053 | 13.77747 | 83° | 104km/h | 5252m | -3.3m/s | -8.9°C | 49.2% | 539.3hPa | 2.6V | 00:00:00 | 02:57:35 | 00:00:00 | |
| DO3MHA-11 | 2026-09-05 01:27:04 | 48.32047 | 13.77668 | 83° | 104km/h | 5259m | -3.2m/s | -8.8°C | 39.0% | 538.8hPa | 2.6V | 00:00:00 | 02:57:33 | 00:00:00 | |
| PG1ADW-2 | 2026-09-05 01:26:59 | 48.32030 | 13.77472 | 83° | 102km/h | 5275m | -3.4m/s | -8.7°C | 0% | 537.8hPa | 2.6V | 07:37:00 | 00:00:00 | 00:00:00 | |
| OE5DXL-15 | 2026-09-05 01:26:56 | 48.32019 | 13.77356 | 83° | 102km/h | 5285m | -3.1m/s | -8.6°C | 11.2% | 537.1hPa | 2.6V | 07:37:00 | 00:00:00 | 00:00:00 | |
| DO3MHA-11 | 2026-09-05 01:26:54 | 48.32012 | 13.77279 | 83° | 100km/h | 5291m | -3.5m/s | -8.6°C | 9.1% | 536.7hPa | 2.6V | 00:00:00 | 02:57:23 | 00:00:00 | |
| OE5WHR-10 | 2026-09-05 01:26:53 | 48.32009 | 13.77240 | 83° | 102km/h | 5294m | -3.4m/s | -8.6°C | 7.8% | 536.4hPa | 2.6V | 00:00:00 | 02:57:22 | 00:00:00 | |
| OE5HKT-10 | 2026-09-05 01:26:49 | 48.31997 | 13.77088 | 83° | 102km/h | 5308m | -3.4m/s | -8.4°C | 4.9% | 535.4hPa | 2.6V | 00:00:00 | 00:00:00 | 00:00:00 | |
| OE5MMP-10 | 2026-09-05 01:26:46 | 48.31987 | 13.76975 | 83° | 102km/h | 5318m | -3.2m/s | -8.4°C | 4.7% | 534.8hPa | 2.5V | 00:00:00 | 02:57:15 | 00:00:00 | |
| DO3MHA-11 | 2026-09-05 01:26:44 | 48.31981 | 13.76899 | 83° | 102km/h | 5324m | -3.2m/s | -8.4°C | 4.7% | 534.5hPa | 2.5V | 00:00:00 | 02:57:13 | 00:00:00 | |
| PG1ADW-2 | 2026-09-05 01:26:39 | 48.31964 | 13.76706 | 84° | 102km/h | 5341m | -3.4m/s | -8.3°C | 6.1% | 533.4hPa | 2.5V | 00:00:00 | 00:00:00 | 00:00:00 | |
| OE5FHM-15 | 2026-09-05 01:26:38 | 48.31961 | 13.76668 | 83° | 102km/h | 5344m | -3.4m/s | -8.3°C | 7.1% | 533.1hPa | 2.6V | 00:00:00 | 02:57:07 | 00:00:00 | |
| OE5DRO-10 | 2026-09-05 01:26:37 | 48.31957 | 13.76629 | 83° | 102km/h | 5348m | -3.3m/s | -8.3°C | 8.0% | 532.9hPa | 2.6V | 00:00:00 | 00:00:00 | 00:00:00 | |
| OE5WHR-10 | 2026-09-05 01:26:36 | 48.31954 | 13.76590 | 84° | 102km/h | 5351m | -3.1m/s | -8.3°C | 8.6% | 532.6hPa | 2.6V | 07:37:00 | 00:00:00 | 00:00:00 | |
| DO3MHA-11 | 2026-09-05 01:26:34 | 48.31948 | 13.76512 | 84° | 102km/h | 5357m | -3.3m/s | -8.3°C | 10.7% | 532.1hPa | 2.5V | 00:00:00 | 02:57:03 | 00:00:00 | |
| OE3JTB-15 | 2026-09-05 01:26:33 | 48.31945 | 13.76473 | 84° | 102km/h | 5361m | -3.3m/s | -8.3°C | 14.0% | 532.0hPa | 2.5V | 00:00:00 | 02:57:02 | 00:00:00 | |
| OE5HKT-10 | 2026-09-05 01:26:32 | 48.31942 | 13.76435 | 84° | 102km/h | 5364m | -3.2m/s | -8.2°C | 16.6% | 531.7hPa | 2.5V | 00:00:00 | 00:00:00 | 00:00:00 | |
| OE5MMP-10 | 2026-09-05 01:26:26 | 48.31924 | 13.76201 | 84° | 102km/h | 5384m | -3.4m/s | -8.1°C | 20.7% | 530.4hPa | 2.5V | 00:00:00 | 02:56:55 | 00:00:00 | |
| DO3MHA-11 | 2026-09-05 01:26:24 | 48.31918 | 13.76124 | 84° | 102km/h | 5390m | -3.2m/s | -8.2°C | 20.9% | 530.0hPa | 2.5V | 07:38:00 | 02:56:53 | 00:00:00 | |
| OE5REO-15 | 2026-09-05 01:26:23 | 48.31918 | 13.76124 | 84° | 102km/h | 5390m | -3.2m/s | -8.2°C | 20.5% | 530.0hPa | 2.5V | 07:38:00 | 00:00:00 | 00:00:00 | |
| OE5DRO-10 | 2026-09-05 01:26:21 | 48.31909 | 13.76008 | 84° | 100km/h | 5400m | -3.4m/s | -8.2°C | 22.4% | 529.2hPa | 2.5V | 00:00:00 | 00:00:00 | 00:00:00 | |
| OE5WHR-10 | 2026-09-05 01:26:19 | 48.31903 | 13.75932 | 84° | 102km/h | 5407m | -3.3m/s | -8.3°C | 23.8% | 528.8hPa | 2.6V | 00:00:00 | 00:00:00 | 00:00:00 | |
| OE5MMP-10 | 2026-09-05 01:26:16 | 48.31894 | 13.75816 | 84° | 100km/h | 5416m | -3.5m/s | -8.3°C | 26.1% | 528.0hPa | 2.6V | 00:00:00 | 02:56:45 | 00:00:00 | |
| OE5HKT-10 | 2026-09-05 01:26:14 | 48.31889 | 13.75740 | 84° | 102km/h | 5423m | -3.3m/s | -8.4°C | 26.3% | 527.6hPa | 2.6V | 00:00:00 | 02:56:43 | 00:00:00 | |
| OE5FHM-15 | 2026-09-05 01:26:08 | 48.31871 | 13.75512 | 83° | 100km/h | 5443m | -3.3m/s | -8.4°C | 22.3% | 526.3hPa | 2.6V | 07:38:00 | 02:56:37 | 00:00:00 | |
| OE5MMP-10 | 2026-09-05 01:26:06 | 48.31864 | 13.75436 | 84° | 102km/h | 5450m | -3.3m/s | -8.4°C | 21.9% | 525.9hPa | 2.6V | 00:00:00 | 02:56:35 | 00:00:00 | |
| OE5DRO-10 | 2026-09-05 01:26:05 | 48.31861 | 13.75397 | 84° | 100km/h | 5453m | -3.2m/s | -8.4°C | 21.7% | 525.6hPa | 2.6V | 00:00:00 | 00:00:00 | 00:00:00 | |
| DO3MHA-11 | 2026-09-05 01:26:04 | 48.31858 | 13.75358 | 83° | 102km/h | 5456m | -3.3m/s | -8.5°C | 21.8% | 525.3hPa | 2.6V | 00:00:00 | 02:56:33 | 00:00:00 | |
| OE5WHR-10 | 2026-09-05 01:26:02 | 48.31851 | 13.75281 | 84° | 100km/h | 5463m | -3.2m/s | -8.5°C | 21.3% | 525.1hPa | 2.6V | 00:00:00 | 02:56:31 | 00:00:00 | |
| PG1ADW-2 | 2026-09-05 01:25:59 | 48.31843 | 13.75165 | 84° | 99km/h | 5473m | -3.4m/s | -8.4°C | 18.1% | 524.2hPa | 2.6V | 00:00:00 | 00:00:00 | 00:00:00 | |
| OE5MMP-10 | 2026-09-05 01:25:56 | 48.31834 | 13.75050 | 83° | 99km/h | 5483m | -3.4m/s | -8.4°C | 19.2% | 523.6hPa | 2.6V | 07:38:00 | 02:56:25 | 00:00:00 | |
| OE5HKT-10 | 2026-09-05 01:25:55 | 48.31830 | 13.75013 | 82° | 99km/h | 5487m | -3.3m/s | -8.4°C | 20.0% | 523.4hPa | 2.6V | 00:00:00 | 00:00:00 | 00:00:00 | |
| DO3MHA-11 | 2026-09-05 01:25:54 | 48.31827 | 13.74976 | 83° | 99km/h | 5490m | -3.3m/s | -8.4°C | 21.8% | 523.1hPa | 2.6V | 00:00:00 | 02:56:23 | 00:00:00 | |
| OE5REO-15 | 2026-09-05 01:25:52 | 48.31824 | 13.74939 | 84° | 99km/h | 5494m | -3.4m/s | -8.5°C | 23.4% | 523.0hPa | 2.6V | 07:39:00 | 00:00:00 | 00:00:00 | |
| OE5MMP-10 | 2026-09-05 01:25:46 | 48.31801 | 13.74680 | 83° | 99km/h | 5517m | -3.2m/s | -8.7°C | 27.3% | 521.4hPa | 2.6V | 00:00:00 | 02:56:15 | 00:00:00 | |
| DO3MHA-11 | 2026-09-05 01:25:44 | 48.31795 | 13.74606 | 84° | 99km/h | 5524m | -3.3m/s | -8.7°C | 28.4% | 520.9hPa | 2.6V | 00:00:00 | 02:56:13 | 00:00:00 | |
| OE5WHR-10 | 2026-09-05 01:25:41 | 48.31786 | 13.74494 | 83° | 100km/h | 5534m | -3.5m/s | -8.8°C | 31.3% | 520.3hPa | 2.5V | 00:00:00 | 00:00:00 | 00:00:00 | |
| PG1ADW-2 | 2026-09-05 01:25:39 | 48.31779 | 13.74420 | 83° | 100km/h | 5541m | -3.2m/s | -8.7°C | 27.7% | 519.7hPa | 2.6V | 00:00:00 | 00:00:00 | 00:00:00 | |
| OE5REO-15 | 2026-09-05 01:25:38 | 48.31776 | 13.74383 | 83° | 99km/h | 5544m | -3.4m/s | -8.8°C | 27.7% | 519.6hPa | 2.6V | 07:39:00 | 00:00:00 | 00:00:00 | |
| OE5MMP-10 | 2026-09-05 01:25:36 | 48.31769 | 13.74308 | 83° | 100km/h | 5551m | -3.3m/s | -8.7°C | 26.4% | 519.1hPa | 2.6V | 00:00:00 | 02:56:05 | 00:00:00 | |
| DO3MHA-11 | 2026-09-05 01:25:34 | 48.31762 | 13.74232 | 83° | 100km/h | 5557m | -3.5m/s | -8.7°C | 27.4% | 518.6hPa | 2.6V | 00:00:00 | 02:56:03 | 00:00:00 | |
| OE3JTB-15 | 2026-09-05 01:25:30 | 48.31749 | 13.74080 | 83° | 102km/h | 5571m | -3.3m/s | -8.8°C | 41.5% | 517.7hPa | 2.6V | 00:00:00 | 00:00:00 | 00:00:00 | |
| OE5DRO-10 | 2026-09-05 01:25:27 | 48.31741 | 13.73965 | 84° | 102km/h | 5581m | -3.6m/s | -8.8°C | 41.2% | 517.0hPa | 2.6V | 07:39:00 | 00:00:00 | 00:00:00 | |
| OE5MMP-10 | 2026-09-05 01:25:26 | 48.31738 | 13.73927 | 84° | 102km/h | 5585m | -3.2m/s | -8.9°C | 41.4% | 516.8hPa | 2.6V | 00:00:00 | 02:55:55 | 00:00:00 | |
| DO3MHA-11 | 2026-09-05 01:25:24 | 48.31732 | 13.73851 | 84° | 102km/h | 5591m | -3.5m/s | -8.9°C | 41.4% | 516.4hPa | 2.5V | 00:00:00 | 02:55:53 | 00:00:00 | |
| OE5REO-15 | 2026-09-05 01:25:21 | 48.31726 | 13.73773 | 84° | 102km/h | 5598m | -3.2m/s | -9.0°C | 40.7% | 516.0hPa | 2.5V | 07:39:00 | 00:00:00 | 00:00:00 | |
| OE5WHR-10 | 2026-09-05 01:25:20 | 48.31720 | 13.73696 | 84° | 104km/h | 5605m | -3.6m/s | -9.0°C | 41.4% | 515.5hPa | 2.5V | 00:00:00 | 00:00:00 | 00:00:00 | |
| PG1ADW-2 | 2026-09-05 01:25:19 | 48.31717 | 13.73657 | 84° | 104km/h | 5608m | -3.5m/s | -9.1°C | 41.5% | 515.3hPa | 2.5V | 00:00:00 | 00:00:00 | 00:00:00 | |
| OE5MMP-10 | 2026-09-05 01:25:16 | 48.31710 | 13.73541 | 85° | 104km/h | 5618m | -3.4m/s | -9.1°C | 41.5% | 514.5hPa | 2.5V | 00:00:00 | 02:55:45 | 00:00:00 | |
| DO3MHA-11 | 2026-09-05 01:25:14 | 48.31704 | 13.73463 | 85° | 104km/h | 5625m | -3.3m/s | -9.2°C | 41.7% | 514.1hPa | 2.5V | 00:00:00 | 02:55:43 | 00:00:00 | |
| OE5HKT-10 | 2026-09-05 01:25:13 | 48.31702 | 13.73423 | 85° | 104km/h | 5628m | -3.5m/s | -9.2°C | 41.7% | 513.9hPa | 2.5V | 00:00:00 | 02:55:42 | 00:00:00 | |
| OE5FHM-15 | 2026-09-05 01:25:08 | 48.31690 | 13.73227 | 85° | 104km/h | 5646m | -3.4m/s | -9.3°C | 41.4% | 512.6hPa | 2.5V | 00:00:00 | 02:55:37 | 00:00:00 | |
| OE5MMP-10 | 2026-09-05 01:25:06 | 48.31685 | 13.73149 | 86° | 104km/h | 5652m | -3.4m/s | -9.4°C | 41.4% | 512.2hPa | 2.5V | 00:00:00 | 02:55:35 | 00:00:00 | |
| OE5REO-15 | 2026-09-05 01:25:05 | 48.31685 | 13.73149 | 86° | 104km/h | 5652m | -3.5m/s | -9.4°C | 40.7% | 512.3hPa | 2.5V | 07:39:00 | 00:00:00 | 00:00:00 | |
| DO3MHA-11 | 2026-09-05 01:25:04 | 48.31681 | 13.73070 | 85° | 102km/h | 5659m | -3.2m/s | -9.4°C | 41.3% | 511.8hPa | 2.5V | 07:39:00 | 02:55:33 | 00:00:00 | |
| OE3JTB-15 | 2026-09-05 01:25:01 | 48.31673 | 13.72952 | 85° | 106km/h | 5669m | -3.3m/s | -9.4°C | 40.3% | 511.1hPa | 2.5V | 00:00:00 | 02:55:30 | 00:00:00 | |
| OE5WHR-10 | 2026-09-05 01:24:59 | 48.31668 | 13.72875 | 85° | 104km/h | 5676m | -3.4m/s | -9.4°C | 37.8% | 510.7hPa | 2.5V | 00:00:00 | 02:55:28 | 00:00:00 | |
| OE5DXL-15 | 2026-09-05 01:24:56 | 48.31661 | 13.72759 | 85° | 106km/h | 5686m | -3.6m/s | -9.4°C | 34.8% | 509.9hPa | 2.5V | 00:00:00 | 00:00:00 | 00:00:00 | |
| DO3MHA-11 | 2026-09-05 01:24:54 | 48.31656 | 13.72682 | 85° | 106km/h | 5693m | -3.5m/s | -9.4°C | 33.0% | 509.5hPa | 2.5V | 00:00:00 | 02:55:23 | 00:00:00 | |
| OE5HKT-10 | 2026-09-05 01:24:52 | 48.31651 | 13.72603 | 84° | 106km/h | 5699m | -3.4m/s | -9.4°C | 31.8% | 509.2hPa | 2.5V | 00:00:00 | 00:00:00 | 00:00:00 | |
| OE5DRO-10 | 2026-09-05 01:24:49 | 48.31642 | 13.72485 | 85° | 108km/h | 5710m | -3.5m/s | -9.3°C | 27.4% | 508.5hPa | 2.6V | 00:00:00 | 00:00:00 | 00:00:00 | |
| OE5MMP-10 | 2026-09-05 01:24:46 | 48.31634 | 13.72364 | 85° | 108km/h | 5720m | -3.4m/s | -9.4°C | 27.3% | 507.7hPa | 2.6V | 00:00:00 | 02:55:15 | 00:00:00 | |
| DO3MHA-11 | 2026-09-05 01:24:44 | 48.31630 | 13.72283 | 86° | 108km/h | 5727m | -3.7m/s | -9.4°C | 27.2% | 507.2hPa | 2.6V | 00:00:00 | 02:55:13 | 00:00:00 | |
| PG1ADW-2 | 2026-09-05 01:24:39 | 48.31620 | 13.72081 | 86° | 110km/h | 5744m | -3.7m/s | -9.5°C | 27.9% | 506.1hPa | 2.6V | 00:00:00 | 00:00:00 | 00:00:00 | |
| OE5FHM-15 | 2026-09-05 01:24:38 | 48.31619 | 13.72040 | 87° | 110km/h | 5748m | -3.8m/s | -9.6°C | 28.1% | 505.9hPa | 2.6V | 00:00:00 | 02:55:07 | 00:00:00 | |
| OE5MMP-10 | 2026-09-05 01:24:36 | 48.31615 | 13.71959 | 86° | 110km/h | 5755m | -3.6m/s | -9.6°C | 28.5% | 505.6hPa | 2.5V | 07:39:00 | 02:55:05 | 00:00:00 | |
| DO3MHA-11 | 2026-09-05 01:24:34 | 48.31611 | 13.71878 | 87° | 110km/h | 5762m | -3.7m/s | -9.6°C | 29.4% | 505.0hPa | 2.5V | 00:00:00 | 02:55:03 | 00:00:00 | |
| OE5REO-15 | 2026-09-05 01:24:33 | 48.31611 | 13.71878 | 87° | 108km/h | 5762m | -3.7m/s | -9.7°C | 28.8% | 505.0hPa | 2.5V | 07:40:00 | 00:00:00 | 00:00:00 | |
| OE5DRO-10 | 2026-09-05 01:24:30 | 48.31602 | 13.71713 | 86° | 110km/h | 5776m | -3.6m/s | -9.7°C | 30.5% | 504.1hPa | 2.5V | 00:00:00 | 00:00:00 | 00:00:00 | |
| OE5MMP-10 | 2026-09-05 01:24:26 | 48.31593 | 13.71548 | 87° | 110km/h | 5790m | -3.5m/s | -9.7°C | 30.1% | 503.1hPa | 2.6V | 00:00:00 | 02:54:55 | 00:00:00 | |
| DO3MHA-11 | 2026-09-05 01:24:24 | 48.31589 | 13.71464 | 86° | 110km/h | 5797m | -3.6m/s | -9.7°C | 29.4% | 502.8hPa | 2.5V | 00:00:00 | 02:54:53 | 00:00:00 | |
| PG1ADW-2 | 2026-09-05 01:24:19 | 48.31581 | 13.71256 | 88° | 110km/h | 5815m | -3.7m/s | -9.7°C | 24.2% | 501.5hPa | 2.5V | 07:40:00 | 00:00:00 | 00:00:00 | |
| OE5WHR-10 | 2026-09-05 01:24:17 | 48.31579 | 13.71173 | 88° | 110km/h | 5822m | -3.6m/s | -9.7°C | 23.4% | 501.1hPa | 2.5V | 00:00:00 | 00:00:00 | 00:00:00 | |
| OE5MMP-10 | 2026-09-05 01:24:16 | 48.31577 | 13.71131 | 87° | 110km/h | 5826m | -3.5m/s | -9.7°C | 22.9% | 500.8hPa | 2.5V | 00:00:00 | 02:54:45 | 00:00:00 | |
| DO3MHA-11 | 2026-09-05 01:24:14 | 48.31575 | 13.71049 | 88° | 110km/h | 5833m | -3.8m/s | -9.8°C | 23.3% | 500.5hPa | 2.5V | 00:00:00 | 02:54:43 | 00:00:00 | |
| OE5DRO-10 | 2026-09-05 01:24:11 | 48.31571 | 13.70925 | 88° | 110km/h | 5844m | -3.6m/s | -9.9°C | 27.7% | 499.6hPa | 2.6V | 00:00:00 | 00:00:00 | 00:00:00 | |
| OE5HKT-10 | 2026-09-05 01:24:10 | 48.31569 | 13.70883 | 88° | 110km/h | 5847m | -3.7m/s | -9.9°C | 28.5% | 499.5hPa | 2.6V | 00:00:00 | 02:54:39 | 00:00:00 | |
| OE5FHM-15 | 2026-09-05 01:24:08 | 48.31567 | 13.70799 | 87° | 111km/h | 5855m | -3.7m/s | -9.9°C | 27.5% | 499.0hPa | 2.6V | 00:00:00 | 02:54:37 | 00:00:00 | |
| OE5MMP-10 | 2026-09-05 01:24:06 | 48.31564 | 13.70714 | 88° | 110km/h | 5862m | -3.7m/s | -9.9°C | 26.3% | 498.5hPa | 2.6V | 00:00:00 | 02:54:35 | 00:00:00 | |
| DG1MFX-10 | 2026-09-05 01:24:05 | 48.31564 | 13.70714 | 89° | 111km/h | 5862m | -3.7m/s | -10.0°C | 25.7% | 498.6hPa | 2.6V | 07:40:00 | 00:00:00 | 00:00:00 | |
| DO3MHA-11 | 2026-09-05 01:24:04 | 48.31562 | 13.70630 | 88° | 110km/h | 5869m | -3.7m/s | -9.9°C | 23.0% | 498.0hPa | 2.6V | 00:00:00 | 02:54:33 | 00:00:00 | |
| OE3JTB-15 | 2026-09-05 01:24:02 | 48.31559 | 13.70547 | 88° | 111km/h | 5877m | -3.6m/s | -9.9°C | 20.8% | 497.4hPa | 2.6V | 00:00:00 | 00:00:00 | 00:00:00 | |
| OE5REO-15 | 2026-09-05 01:24:01 | 48.31559 | 13.70547 | 89° | 110km/h | 5877m | -3.7m/s | -10.0°C | 20.3% | 497.5hPa | 2.6V | 07:40:00 | 00:00:00 | 00:00:00 | |
| PG1ADW-2 | 2026-09-05 01:23:59 | 48.31556 | 13.70422 | 88° | 111km/h | 5888m | -3.5m/s | -10.0°C | 18.6% | 496.8hPa | 2.6V | 00:00:00 | 00:00:00 | 00:00:00 | |
| OE5DXL-15 | 2026-09-05 01:23:56 | 48.31553 | 13.70298 | 88° | 113km/h | 5898m | -3.6m/s | -10.0°C | 17.5% | 496.2hPa | 2.6V | 00:00:00 | 00:00:00 | 00:00:00 | |
| DO3MHA-11 | 2026-09-05 01:23:54 | 48.31550 | 13.70215 | 88° | 111km/h | 5906m | -3.6m/s | -10.1°C | 16.8% | 495.7hPa | 2.6V | 00:00:00 | 02:54:23 | 00:00:00 | |
| OE5DRO-10 | 2026-09-05 01:23:52 | 48.31548 | 13.70132 | 88° | 113km/h | 5913m | -3.5m/s | -10.1°C | 16.6% | 495.3hPa | 2.6V | 00:00:00 | 00:00:00 | 00:00:00 | |
| OE5HKT-10 | 2026-09-05 01:23:48 | 48.31543 | 13.69964 | 88° | 113km/h | 5927m | -3.6m/s | -10.3°C | 16.4% | 494.3hPa | 2.6V | 00:00:00 | 00:00:00 | 00:00:00 | |
| OE5REO-15 | 2026-09-05 01:23:46 | 48.31540 | 13.69879 | 88° | 111km/h | 5934m | -3.7m/s | -10.4°C | 16.0% | 493.8hPa | 2.6V | 07:40:00 | 00:00:00 | 00:00:00 | |
| DO3MHA-11 | 2026-09-05 01:23:44 | 48.31538 | 13.69794 | 88° | 113km/h | 5941m | -3.6m/s | -10.4°C | 16.5% | 493.3hPa | 2.6V | 07:40:00 | 02:54:13 | 00:00:00 | |
| DG1MFX-10 | 2026-09-05 01:23:41 | 48.31535 | 13.69709 | 89° | 111km/h | 5949m | -3.8m/s | -10.5°C | 16.1% | 493.0hPa | 2.5V | 07:41:00 | 00:00:00 | 00:00:00 | |
| PG1ADW-2 | 2026-09-05 01:23:39 | 48.31532 | 13.69580 | 88° | 113km/h | 5960m | -3.5m/s | -10.5°C | 16.4% | 492.3hPa | 2.5V | 00:00:00 | 02:54:08 | 00:00:00 | |
| OE5FHM-15 | 2026-09-05 01:23:38 | 48.31531 | 13.69537 | 88° | 113km/h | 5963m | -3.5m/s | -10.5°C | 16.4% | 492.0hPa | 2.6V | 00:00:00 | 02:54:07 | 00:00:00 | |
| OE5MMP-10 | 2026-09-05 01:23:36 | 48.31528 | 13.69450 | 88° | 113km/h | 5971m | -3.5m/s | -10.5°C | 16.5% | 491.5hPa | 2.6V | 00:00:00 | 02:54:05 | 00:00:00 | |
| OE5WHR-10 | 2026-09-05 01:23:35 | 48.31527 | 13.69407 | 87° | 113km/h | 5974m | -3.7m/s | -10.5°C | 16.6% | 491.4hPa | 2.6V | 00:00:00 | 00:00:00 | 00:00:00 | |
| DO3MHA-11 | 2026-09-05 01:23:34 | 48.31525 | 13.69364 | 88° | 113km/h | 5978m | -3.5m/s | -10.5°C | 16.6% | 491.0hPa | 2.6V | 00:00:00 | 02:54:03 | 00:00:00 | |
| OE3JTB-15 | 2026-09-05 01:23:33 | 48.31524 | 13.69321 | 88° | 113km/h | 5981m | -3.6m/s | -10.5°C | 16.6% | 490.9hPa | 2.6V | 07:40:00 | 02:54:02 | 00:00:00 | |
| OE5HKT-10 | 2026-09-05 01:23:26 | 48.31517 | 13.69019 | 88° | 111km/h | 6007m | -3.5m/s | -10.7°C | 16.8% | 489.2hPa | 2.6V | 00:00:00 | 00:00:00 | 00:00:00 | |
| DO3MHA-11 | 2026-09-05 01:23:24 | 48.31515 | 13.68933 | 89° | 113km/h | 6014m | -3.5m/s | -10.7°C | 16.8% | 488.8hPa | 2.6V | 00:00:00 | 02:53:53 | 00:00:00 | |
| DG1MFX-10 | 2026-09-05 01:23:21 | 48.31513 | 13.68846 | 89° | 115km/h | 6021m | -3.7m/s | -10.8°C | 16.4% | 488.5hPa | 2.6V | 07:41:00 | 00:00:00 | 00:00:00 | |
| PG1ADW-2 | 2026-09-05 01:23:19 | 48.31510 | 13.68717 | 89° | 111km/h | 6032m | -3.8m/s | -10.8°C | 16.8% | 487.7hPa | 2.6V | 00:00:00 | 00:00:00 | 00:00:00 | |
| OE5MMP-10 | 2026-09-05 01:23:16 | 48.31508 | 13.68590 | 89° | 111km/h | 6042m | -3.7m/s | -10.8°C | 18.6% | 487.1hPa | 2.6V | 07:41:00 | 02:53:45 | 00:00:00 | |
| OE5WHR-10 | 2026-09-05 01:23:14 | 48.31506 | 13.68505 | 88° | 111km/h | 6049m | -3.7m/s | -10.8°C | 18.7% | 486.6hPa | 2.6V | 00:00:00 | 00:00:00 | 00:00:00 | |
| OE5REO-15 | 2026-09-05 01:23:13 | 48.31506 | 13.68505 | 89° | 111km/h | 6049m | -3.7m/s | -10.9°C | 18.2% | 486.6hPa | 2.6V | 07:41:00 | 00:00:00 | 00:00:00 | |
| OE5FHM-15 | 2026-09-05 01:23:08 | 48.31502 | 13.68251 | 90° | 113km/h | 6070m | -3.8m/s | -11.0°C | 21.0% | 485.2hPa | 2.6V | 00:00:00 | 02:53:37 | 00:00:00 | |
| OE5MMP-10 | 2026-09-05 01:23:06 | 48.31501 | 13.68167 | 90° | 111km/h | 6078m | -3.6m/s | -11.0°C | 21.5% | 484.6hPa | 2.6V | 00:00:00 | 02:53:35 | 00:00:00 | |
| OE5HKT-10 | 2026-09-05 01:23:04 | 48.31501 | 13.68081 | 89° | 113km/h | 6085m | -3.3m/s | -11.0°C | 21.7% | 484.3hPa | 2.6V | 00:00:00 | 02:53:33 | 00:00:00 | |
| DG1MFX-10 | 2026-09-05 01:23:00 | 48.31500 | 13.67954 | 90° | 113km/h | 6096m | -3.7m/s | -11.2°C | 21.4% | 483.7hPa | 2.6V | 07:41:00 | 00:00:00 | 00:00:00 | |
| PG1ADW-2 | 2026-09-05 01:22:59 | 48.31499 | 13.67869 | 90° | 113km/h | 6103m | -3.5m/s | -11.2°C | 22.1% | 483.2hPa | 2.6V | 00:00:00 | 00:00:00 | 00:00:00 | |
| OE5REO-15 | 2026-09-05 01:22:58 | 48.31499 | 13.67869 | 91° | 111km/h | 6103m | -3.6m/s | -11.2°C | 21.5% | 483.2hPa | 2.6V | 07:41:00 | 00:00:00 | 00:00:00 | |
| OE5DXL-15 | 2026-09-05 01:22:56 | 48.31498 | 13.67741 | 89° | 113km/h | 6113m | -3.5m/s | -11.2°C | 22.5% | 482.5hPa | 2.6V | 07:41:00 | 00:00:00 | 00:00:00 | |
| OE5DRO-10 | 2026-09-05 01:22:55 | 48.31497 | 13.67699 | 90° | 113km/h | 6117m | -3.6m/s | -11.3°C | 22.6% | 482.4hPa | 2.6V | 07:41:00 | 00:00:00 | 00:00:00 | |
| DO3MHA-11 | 2026-09-05 01:22:54 | 48.31497 | 13.67657 | 90° | 113km/h | 6120m | -3.6m/s | -11.3°C | 22.8% | 482.0hPa | 2.6V | 00:00:00 | 02:53:23 | 00:00:00 | |
| OE5WHR-10 | 2026-09-05 01:22:53 | 48.31497 | 13.67614 | 90° | 113km/h | 6124m | -3.5m/s | -11.3°C | 23.0% | 481.8hPa | 2.6V | 00:00:00 | 02:53:22 | 00:00:00 | |
| OE5MMP-10 | 2026-09-05 01:22:46 | 48.31495 | 13.67314 | 90° | 113km/h | 6148m | -3.5m/s | -11.5°C | 24.4% | 480.3hPa | 2.6V | 00:00:00 | 02:53:15 | 00:00:00 | |
| DO3MHA-11 | 2026-09-05 01:22:44 | 48.31495 | 13.67228 | 89° | 113km/h | 6155m | -3.5m/s | -11.5°C | 24.8% | 479.8hPa | 2.6V | 00:00:00 | 02:53:13 | 00:00:00 | |
| OE5REO-15 | 2026-09-05 01:22:43 | 48.31495 | 13.67228 | 90° | 113km/h | 6155m | -3.6m/s | -11.6°C | 24.1% | 479.9hPa | 2.5V | 07:42:00 | 00:00:00 | 00:00:00 | |
| OE5HKT-10 | 2026-09-05 01:22:42 | 48.31494 | 13.67143 | 90° | 113km/h | 6162m | -3.5m/s | -11.6°C | 25.1% | 479.3hPa | 2.5V | 07:41:00 | 00:00:00 | 00:00:00 | |
| DG1MFX-10 | 2026-09-05 01:22:40 | 48.31493 | 13.67100 | 90° | 113km/h | 6165m | -3.6m/s | -11.7°C | 24.6% | 479.1hPa | 2.5V | 07:42:00 | 00:00:00 | 00:00:00 | |
| OE5FHM-15 | 2026-09-05 01:22:39 | 48.31491 | 13.66971 | 89° | 115km/h | 6176m | -3.6m/s | -11.7°C | 25.9% | 478.6hPa | 2.5V | 00:00:00 | 02:53:07 | 00:00:00 | |
| OE5MMP-10 | 2026-09-05 01:22:36 | 48.31489 | 13.66885 | 89° | 115km/h | 6183m | -3.6m/s | -11.8°C | 25.9% | 478.0hPa | 2.5V | 00:00:00 | 02:53:05 | 00:00:00 | |
| DO3MHA-11 | 2026-09-05 01:22:34 | 48.31487 | 13.66798 | 88° | 115km/h | 6190m | -3.5m/s | -11.8°C | 25.9% | 477.6hPa | 2.5V | 00:00:00 | 02:53:03 | 00:00:00 | |
| OE3JTB-15 | 2026-09-05 01:22:33 | 48.31486 | 13.66755 | 88° | 113km/h | 6193m | -3.4m/s | -11.9°C | 26.0% | 477.4hPa | 2.5V | 00:00:00 | 00:00:00 | 00:00:00 | |
| OE5WHR-10 | 2026-09-05 01:22:32 | 48.31485 | 13.66712 | 88° | 115km/h | 6197m | -3.6m/s | -11.9°C | 26.1% | 477.2hPa | 2.5V | 00:00:00 | 00:00:00 | 00:00:00 | |
| OE5MMP-10 | 2026-09-05 01:22:26 | 48.31477 | 13.66451 | 88° | 115km/h | 6218m | -3.5m/s | -12.0°C | 26.5% | 475.9hPa | 2.6V | 00:00:00 | 02:52:55 | 00:00:00 | |
| DO3MHA-11 | 2026-09-05 01:22:24 | 48.31475 | 13.66364 | 89° | 115km/h | 6225m | -3.5m/s | -12.1°C | 26.7% | 475.5hPa | 2.6V | 07:42:00 | 02:52:53 | 00:00:00 | |
| OE5HKT-10 | 2026-09-05 01:22:21 | 48.31472 | 13.66234 | 89° | 115km/h | 6236m | -3.6m/s | -12.2°C | 26.9% | 474.8hPa | 2.6V | 00:00:00 | 00:00:00 | 00:00:00 | |
| PG1ADW-2 | 2026-09-05 01:22:19 | 48.31471 | 13.66148 | 88° | 115km/h | 6242m | -3.5m/s | -12.2°C | 27.1% | 474.3hPa | 2.6V | 00:00:00 | 02:52:48 | 00:00:00 | |
| OE5DRO-10 | 2026-09-05 01:22:17 | 48.31468 | 13.66061 | 89° | 113km/h | 6249m | -3.5m/s | -12.3°C | 27.1% | 473.9hPa | 2.6V | 00:00:00 | 00:00:00 | 00:00:00 | |
| OE5MMP-10 | 2026-09-05 01:22:16 | 48.31468 | 13.66018 | 89° | 115km/h | 6253m | -3.5m/s | -12.3°C | 27.4% | 473.8hPa | 2.6V | 00:00:00 | 02:52:45 | 00:00:00 | |
| DO3MHA-11 | 2026-09-05 01:22:14 | 48.31465 | 13.65931 | 87° | 115km/h | 6260m | -3.8m/s | -12.3°C | 29.5% | 473.2hPa | 2.6V | 00:00:00 | 02:52:43 | 00:00:00 | |
| OE5REO-15 | 2026-09-05 01:22:12 | 48.31464 | 13.65887 | 88° | 113km/h | 6263m | -3.6m/s | -12.4°C | 29.3% | 473.0hPa | 2.6V | 07:42:00 | 00:00:00 | 00:00:00 | |
| OE5WHR-10 | 2026-09-05 01:22:11 | 48.31461 | 13.65800 | 87° | 113km/h | 6270m | -3.5m/s | -12.4°C | 30.2% | 472.6hPa | 2.6V | 00:00:00 | 00:00:00 | 00:00:00 | |
| OE5FHM-15 | 2026-09-05 01:22:08 | 48.31455 | 13.65670 | 87° | 113km/h | 6281m | -3.4m/s | -12.5°C | 30.5% | 471.9hPa | 2.6V | 07:42:00 | 02:52:37 | 00:00:00 | |
| OE5MMP-10 | 2026-09-05 01:22:06 | 48.31452 | 13.65583 | 87° | 113km/h | 6287m | -3.7m/s | -12.6°C | 30.5% | 471.6hPa | 2.6V | 00:00:00 | 02:52:35 | 00:00:00 | |
| DO3MHA-11 | 2026-09-05 01:22:04 | 48.31448 | 13.65497 | 87° | 113km/h | 6295m | -3.6m/s | -12.7°C | 30.7% | 471.0hPa | 2.6V | 00:00:00 | 02:52:33 | 00:00:00 | |
| OE5HKT-10 | 2026-09-05 01:22:00 | 48.31439 | 13.65325 | 86° | 113km/h | 6309m | -3.6m/s | -12.8°C | 31.2% | 470.3hPa | 2.6V | 00:00:00 | 02:52:29 | 00:00:00 | |
| PG1ADW-2 | 2026-09-05 01:21:59 | 48.31436 | 13.65283 | 86° | 113km/h | 6312m | -3.5m/s | -12.8°C | 31.7% | 470.1hPa | 2.6V | 00:00:00 | 00:00:00 | 00:00:00 | |
| OE5DRO-10 | 2026-09-05 01:21:58 | 48.31434 | 13.65240 | 85° | 113km/h | 6315m | -3.5m/s | -12.9°C | 32.0% | 469.9hPa | 2.6V | 00:00:00 | 00:00:00 | 00:00:00 | |
| OE5REO-15 | 2026-09-05 01:21:57 | 48.31434 | 13.65240 | 86° | 113km/h | 6315m | -3.6m/s | -12.9°C | 31.2% | 469.9hPa | 2.6V | 07:43:00 | 00:00:00 | 00:00:00 | |
| OE5DXL-15 | 2026-09-05 01:21:56 | 48.31429 | 13.65155 | 86° | 113km/h | 6323m | -3.7m/s | -12.9°C | 32.7% | 469.3hPa | 2.6V | 00:00:00 | 00:00:00 | 00:00:00 | |
| DO3MHA-11 | 2026-09-05 01:21:54 | 48.31424 | 13.65070 | 85° | 113km/h | 6330m | -3.5m/s | -13.0°C | 33.2% | 469.0hPa | 2.6V | 00:00:00 | 02:52:23 | 00:00:00 | |
| OE5WHR-10 | 2026-09-05 01:21:50 | 48.31414 | 13.64901 | 85° | 113km/h | 6343m | -3.4m/s | -13.1°C | 31.6% | 468.2hPa | 2.6V | 00:00:00 | 02:52:19 | 00:00:00 | |
| OE5MMP-10 | 2026-09-05 01:21:46 | 48.31403 | 13.64730 | 85° | 113km/h | 6358m | -3.3m/s | -13.1°C | 30.4% | 467.2hPa | 2.6V | 00:00:00 | 02:52:15 | 00:00:00 | |
| DO3MHA-11 | 2026-09-05 01:21:44 | 48.31397 | 13.64645 | 85° | 113km/h | 6365m | -3.4m/s | -13.1°C | 30.1% | 466.9hPa | 2.6V | 00:00:00 | 02:52:13 | 00:00:00 | |
| OE5REO-15 | 2026-09-05 01:21:41 | 48.31392 | 13.64559 | 85° | 113km/h | 6372m | -3.6m/s | -13.2°C | 29.0% | 466.4hPa | 2.6V | 07:43:00 | 00:00:00 | 00:00:00 | |
| OE5HKT-10 | 2026-09-05 01:21:39 | 48.31383 | 13.64432 | 85° | 111km/h | 6382m | -3.6m/s | -13.3°C | 29.7% | 465.8hPa | 2.6V | 00:00:00 | 00:00:00 | 00:00:00 | |
| OE5FHM-15 | 2026-09-05 01:21:38 | 48.31380 | 13.64389 | 85° | 113km/h | 6385m | -3.3m/s | -13.3°C | 29.7% | 465.6hPa | 2.5V | 00:00:00 | 02:52:07 | 00:00:00 | |
| OE5MMP-10 | 2026-09-05 01:21:36 | 48.31374 | 13.64304 | 84° | 111km/h | 6392m | -3.4m/s | -13.4°C | 29.5% | 465.2hPa | 2.6V | 00:00:00 | 02:52:05 | 00:00:00 | |
| DO3MHA-11 | 2026-09-05 01:21:34 | 48.31369 | 13.64220 | 85° | 111km/h | 6399m | -3.7m/s | -13.4°C | 29.4% | 464.8hPa | 2.6V | 00:00:00 | 02:52:03 | 00:00:00 | |
| OE5WHR-10 | 2026-09-05 01:21:29 | 48.31353 | 13.64010 | 84° | 113km/h | 6417m | -3.5m/s | -13.6°C | 29.7% | 463.7hPa | 2.6V | 00:00:00 | 00:00:00 | 00:00:00 | |
| OE5DXL-15 | 2026-09-05 01:21:26 | 48.31342 | 13.63883 | 84° | 113km/h | 6427m | -3.5m/s | -13.6°C | 29.6% | 463.1hPa | 2.5V | 00:00:00 | 00:00:00 | 00:00:00 | |
| DO3MHA-11 | 2026-09-05 01:21:24 | 48.31336 | 13.63798 | 83° | 111km/h | 6434m | -3.6m/s | -13.7°C | 29.5% | 462.6hPa | 2.5V | 00:00:00 | 02:51:53 | 00:00:00 | |
| OE5DRO-10 | 2026-09-05 01:21:20 | 48.31323 | 13.63629 | 83° | 113km/h | 6449m | -3.3m/s | -13.8°C | 29.3% | 461.7hPa | 2.5V | 00:00:00 | 00:00:00 | 00:00:00 | |
| PG1ADW-2 | 2026-09-05 01:21:19 | 48.31319 | 13.63587 | 83° | 115km/h | 6452m | -3.5m/s | -13.8°C | 29.4% | 461.6hPa | 2.5V | 00:00:00 | 00:00:00 | 00:00:00 | |
| OE5HKT-10 | 2026-09-05 01:21:18 | 48.31316 | 13.63545 | 84° | 115km/h | 6456m | -3.4m/s | -13.9°C | 29.1% | 461.4hPa | 2.5V | 00:00:00 | 00:00:00 | 00:00:00 | |
| OE5MMP-10 | 2026-09-05 01:21:16 | 48.31309 | 13.63461 | 83° | 113km/h | 6463m | -3.5m/s | -13.9°C | 29.2% | 460.9hPa | 2.5V | 00:00:00 | 02:51:45 | 00:00:00 | |
| DO3MHA-11 | 2026-09-05 01:21:14 | 48.31301 | 13.63377 | 83° | 115km/h | 6470m | -3.6m/s | -14.0°C | 29.5% | 460.6hPa | 2.5V | 00:00:00 | 02:51:43 | 00:00:00 | |
| OE5REO-15 | 2026-09-05 01:21:10 | 48.31290 | 13.63248 | 83° | 115km/h | 6481m | -3.5m/s | -14.1°C | 28.3% | 460.0hPa | 2.5V | 07:44:00 | 00:00:00 | 00:00:00 | |
| OE3JTB-15 | 2026-09-05 01:21:09 | 48.31282 | 13.63162 | 83° | 117km/h | 6488m | -3.4m/s | -14.1°C | 29.6% | 459.5hPa | 2.5V | 00:00:00 | 00:00:00 | 00:00:00 | |
| OE5FHM-15 | 2026-09-05 01:21:08 | 48.31278 | 13.63119 | 82° | 117km/h | 6491m | -3.5m/s | -14.1°C | 29.7% | 459.2hPa | 2.5V | 00:00:00 | 02:51:37 | 00:00:00 | |
| OE5MMP-10 | 2026-09-05 01:21:06 | 48.31269 | 13.63032 | 82° | 117km/h | 6498m | -3.4m/s | -14.2°C | 29.8% | 458.8hPa | 2.5V | 00:00:00 | 02:51:35 | 00:00:00 | |
| DO3MHA-11 | 2026-09-05 01:21:04 | 48.31260 | 13.62946 | 81° | 117km/h | 6505m | -3.5m/s | -14.2°C | 29.9% | 458.3hPa | 2.5V | 07:43:00 | 02:51:33 | 00:00:00 | |
| OE5DRO-10 | 2026-09-05 01:21:01 | 48.31246 | 13.62815 | 81° | 117km/h | 6516m | -3.5m/s | -14.3°C | 30.0% | 457.7hPa | 2.5V | 00:00:00 | 00:00:00 | 00:00:00 | |
| PG1ADW-2 | 2026-09-05 01:20:59 | 48.31237 | 13.62728 | 81° | 117km/h | 6523m | -3.6m/s | -14.4°C | 29.8% | 457.3hPa | 2.5V | 00:00:00 | 02:51:28 | 00:00:00 | |
| DG1MFX-10 | 2026-09-05 01:20:58 | 48.31236 | 13.62728 | 82° | 117km/h | 6523m | -3.7m/s | -14.4°C | 29.0% | 457.4hPa | 2.5V | 07:44:00 | 00:00:00 | 00:00:00 | |
| OE5HKT-10 | 2026-09-05 01:20:57 | 48.31227 | 13.62640 | 82° | 117km/h | 6531m | -3.5m/s | -14.4°C | 29.8% | 456.9hPa | 2.5V | 00:00:00 | 02:51:26 | 00:00:00 | |
| OE5MMP-10 | 2026-09-05 01:20:56 | 48.31223 | 13.62596 | 82° | 117km/h | 6534m | -3.5m/s | -14.4°C | 29.3% | 456.6hPa | 2.5V | 00:00:00 | 02:51:25 | 00:00:00 | |
| OE5REO-15 | 2026-09-05 01:20:55 | 48.31223 | 13.62597 | 82° | 117km/h | 6534m | -3.5m/s | -14.4°C | 28.4% | 456.7hPa | 2.5V | 07:44:00 | 00:00:00 | 00:00:00 | |
| DO3MHA-11 | 2026-09-05 01:20:54 | 48.31214 | 13.62508 | 81° | 117km/h | 6541m | -3.5m/s | -14.3°C | 28.0% | 456.3hPa | 2.5V | 00:00:00 | 02:51:23 | 00:00:00 | |
| OE5WHR-10 | 2026-09-05 01:20:47 | 48.31181 | 13.62202 | 81° | 119km/h | 6567m | -3.5m/s | -14.3°C | 26.8% | 454.7hPa | 2.5V | 00:00:00 | 02:51:16 | 00:00:00 | |
| OE5MMP-10 | 2026-09-05 01:20:46 | 48.31176 | 13.62159 | 81° | 117km/h | 6570m | -3.5m/s | -14.3°C | 27.1% | 454.5hPa | 2.5V | 00:00:00 | 02:51:15 | 00:00:00 | |
| DO3MHA-11 | 2026-09-05 01:20:44 | 48.31167 | 13.62072 | 82° | 119km/h | 6577m | -3.6m/s | -14.4°C | 27.6% | 454.2hPa | 2.5V | 00:00:00 | 02:51:13 | 00:00:00 | |
| OE5DRO-10 | 2026-09-05 01:20:42 | 48.31158 | 13.61984 | 81° | 119km/h | 6584m | -3.5m/s | -14.4°C | 27.1% | 453.7hPa | 2.5V | 00:00:00 | 00:00:00 | 00:00:00 | |
| OE3JTB-15 | 2026-09-05 01:20:40 | 48.31149 | 13.61895 | 82° | 119km/h | 6591m | -3.4m/s | -14.4°C | 27.2% | 453.3hPa | 2.6V | 00:00:00 | 00:00:00 | 00:00:00 | |
| PG1ADW-2 | 2026-09-05 01:20:39 | 48.31144 | 13.61851 | 81° | 119km/h | 6595m | -3.3m/s | -14.5°C | 27.2% | 453.0hPa | 2.6V | 00:00:00 | 00:00:00 | 00:00:00 | |
| OE5FHM-15 | 2026-09-05 01:20:38 | 48.31140 | 13.61806 | 81° | 119km/h | 6598m | -3.6m/s | -14.5°C | 27.1% | 452.7hPa | 2.5V | 00:00:00 | 02:51:07 | 00:00:00 | |
| DG1MFX-10 | 2026-09-05 01:20:37 | 48.31139 | 13.61806 | 82° | 119km/h | 6598m | -3.6m/s | -14.5°C | 26.2% | 452.8hPa | 2.5V | 07:44:00 | 00:00:00 | 00:00:00 | |
| OE5HKT-10 | 2026-09-05 01:20:36 | 48.31130 | 13.61717 | 82° | 119km/h | 6605m | -3.5m/s | -14.5°C | 25.8% | 452.4hPa | 2.5V | 00:00:00 | 00:00:00 | 00:00:00 | |
| DO3MHA-11 | 2026-09-05 01:20:34 | 48.31121 | 13.61628 | 82° | 119km/h | 6612m | -3.5m/s | -14.5°C | 25.6% | 451.9hPa | 2.6V | 00:00:00 | 02:51:03 | 00:00:00 | |
| S52SK | 2026-09-05 01:20:30 | 48.31107 | 13.61495 | 82° | 117km/h | 6623m | -3.6m/s | -14.6°C | 24.7% | 451.4hPa | 2.6V | 00:00:00 | 00:00:00 | 00:00:00 | |
| OE5DXL-15 | 2026-09-05 01:20:26 | 48.31086 | 13.61274 | 83° | 119km/h | 6640m | -3.5m/s | -14.7°C | 25.7% | 450.3hPa | 2.6V | 00:00:00 | 00:00:00 | 00:00:00 | |
| DO3MHA-11 | 2026-09-05 01:20:24 | 48.31078 | 13.61184 | 82° | 119km/h | 6647m | -3.5m/s | -14.7°C | 25.7% | 449.9hPa | 2.5V | 00:00:00 | 02:50:53 | 00:00:00 | |
| OE5DRO-10 | 2026-09-05 01:20:23 | 48.31073 | 13.61140 | 82° | 119km/h | 6651m | -3.5m/s | -14.7°C | 25.6% | 449.7hPa | 2.5V | 07:44:00 | 00:00:00 | 00:00:00 | |
| PG1ADW-2 | 2026-09-05 01:20:18 | 48.31050 | 13.60917 | 82° | 120km/h | 6669m | -3.5m/s | -14.8°C | 24.4% | 448.5hPa | 2.5V | 00:00:00 | 00:00:00 | 00:00:00 | |
| DG1MFX-10 | 2026-09-05 01:20:17 | 48.31050 | 13.60917 | 82° | 119km/h | 6669m | -3.5m/s | -14.8°C | 23.6% | 448.5hPa | 2.5V | 07:45:00 | 00:00:00 | 00:00:00 | |
| OE5MMP-10 | 2026-09-05 01:20:16 | 48.31041 | 13.60828 | 82° | 120km/h | 6676m | -3.7m/s | -14.8°C | 24.4% | 448.2hPa | 2.5V | 00:00:00 | 02:50:45 | 00:00:00 | |
| OE5HKT-10 | 2026-09-05 01:20:15 | 48.31037 | 13.60783 | 82° | 120km/h | 6679m | -3.5m/s | -14.9°C | 24.5% | 447.9hPa | 2.5V | 00:00:00 | 00:00:00 | 00:00:00 | |
| DO3MHA-11 | 2026-09-05 01:20:14 | 48.31032 | 13.60738 | 82° | 120km/h | 6683m | -3.5m/s | -14.9°C | 24.4% | 447.9hPa | 2.5V | 00:00:00 | 02:50:43 | 00:00:00 | |
| OE3JTB-15 | 2026-09-05 01:20:11 | 48.31019 | 13.60603 | 81° | 120km/h | 6693m | -3.4m/s | -15.0°C | 24.5% | 447.1hPa | 2.6V | 00:00:00 | 02:50:40 | 00:00:00 | |
| OE5REO-15 | 2026-09-05 01:20:09 | 48.31014 | 13.60558 | 82° | 120km/h | 6697m | -3.5m/s | -15.1°C | 23.7% | 447.0hPa | 2.6V | 07:45:00 | 00:00:00 | 00:00:00 | |
| OE5FHM-15 | 2026-09-05 01:20:08 | 48.31005 | 13.60468 | 81° | 120km/h | 6704m | -3.5m/s | -15.1°C | 24.5% | 446.5hPa | 2.6V | 00:00:00 | 02:50:37 | 00:00:00 | |
| OE5MMP-10 | 2026-09-05 01:20:06 | 48.30995 | 13.60378 | 81° | 120km/h | 6711m | -3.5m/s | -15.1°C | 24.4% | 446.1hPa | 2.6V | 00:00:00 | 02:50:35 | 00:00:00 | |
| OE5WHR-10 | 2026-09-05 01:20:05 | 48.30990 | 13.60333 | 82° | 120km/h | 6714m | -3.5m/s | -15.0°C | 24.0% | 445.9hPa | 2.6V | 00:00:00 | 00:00:00 | 00:00:00 | |
| PG1ADW-2 | 2026-09-05 01:19:58 | 48.30956 | 13.60018 | 81° | 120km/h | 6739m | -3.6m/s | -15.1°C | 24.4% | 444.3hPa | 2.6V | 00:00:00 | 00:00:00 | 00:00:00 | |
| OE5MMP-10 | 2026-09-05 01:19:56 | 48.30947 | 13.59928 | 81° | 120km/h | 6746m | -3.5m/s | -15.2°C | 24.1% | 444.1hPa | 2.6V | 00:00:00 | 02:50:25 | 00:00:00 | |
| OE5REO-15 | 2026-09-05 01:19:54 | 48.30936 | 13.59838 | 81° | 119km/h | 6753m | -3.6m/s | -15.3°C | 22.8% | 443.5hPa | 2.5V | 07:45:00 | 00:00:00 | 00:00:00 | |
| OE5MMP-10 | 2026-09-05 01:19:46 | 48.30895 | 13.59481 | 80° | 120km/h | 6782m | -3.5m/s | -15.4°C | 22.4% | 441.9hPa | 2.5V | 00:00:00 | 02:50:15 | 00:00:00 | |
| OE5DRO-10 | 2026-09-05 01:19:45 | 48.30890 | 13.59437 | 81° | 119km/h | 6786m | -3.5m/s | -15.4°C | 22.5% | 441.6hPa | 2.5V | 00:00:00 | 00:00:00 | 00:00:00 | |
| OE5WHR-10 | 2026-09-05 01:19:44 | 48.30885 | 13.59392 | 81° | 119km/h | 6789m | -3.5m/s | -15.4°C | 22.8% | 441.4hPa | 2.6V | 00:00:00 | 02:50:13 | 00:00:00 | |
| OE3JTB-15 | 2026-09-05 01:19:42 | 48.30874 | 13.59302 | 80° | 120km/h | 6796m | -3.5m/s | -15.5°C | 23.1% | 441.1hPa | 2.6V | 00:00:00 | 00:00:00 | 00:00:00 | |
| OE5REO-15 | 2026-09-05 01:19:39 | 48.30858 | 13.59168 | 81° | 120km/h | 6807m | -3.5m/s | -15.6°C | 22.3% | 440.4hPa | 2.5V | 07:45:00 | 00:00:00 | 00:00:00 | |
| OE5FHM-15 | 2026-09-05 01:19:38 | 48.30853 | 13.59123 | 80° | 119km/h | 6811m | -3.8m/s | -15.6°C | 23.3% | 440.2hPa | 2.5V | 00:00:00 | 02:50:07 | 00:00:00 | |
| OE5MMP-10 | 2026-09-05 01:19:36 | 48.30843 | 13.59033 | 81° | 119km/h | 6818m | -3.4m/s | -15.6°C | 23.4% | 439.8hPa | 2.5V | 00:00:00 | 02:50:05 | 00:00:00 | |
| DG1MFX-10 | 2026-09-05 01:19:35 | 48.30843 | 13.59033 | 82° | 119km/h | 6818m | -3.4m/s | -15.7°C | 22.6% | 439.8hPa | 2.5V | 07:45:00 | 00:00:00 | 00:00:00 | |
| DO3MHA-11 | 2026-09-05 01:19:34 | 48.30833 | 13.58944 | 81° | 119km/h | 6825m | -3.6m/s | -15.7°C | 23.2% | 439.4hPa | 2.5V | 00:00:00 | 02:50:03 | 00:00:00 | |
| OE5HKT-10 | 2026-09-05 01:19:33 | 48.30828 | 13.58899 | 81° | 120km/h | 6829m | -3.7m/s | -15.7°C | 22.9% | 439.3hPa | 2.5V | 00:00:00 | 00:00:00 | 00:00:00 | |
| OE5DXL-15 | 2026-09-05 01:19:26 | 48.30793 | 13.58587 | 81° | 120km/h | 6853m | -3.7m/s | -15.9°C | 22.3% | 437.7hPa | 2.6V | 00:00:00 | 00:00:00 | 00:00:00 | |
| DO3MHA-11 | 2026-09-05 01:19:24 | 48.30783 | 13.58498 | 81° | 120km/h | 6860m | -3.5m/s | -16.0°C | 22.3% | 437.2hPa | 2.6V | 00:00:00 | 02:49:53 | 00:00:00 | |
| OE5WHR-10 | 2026-09-05 01:19:23 | 48.30778 | 13.58453 | 81° | 120km/h | 6864m | -3.6m/s | -16.0°C | 22.3% | 437.2hPa | 2.6V | 00:00:00 | 00:00:00 | 00:00:00 | |
| PG1ADW-2 | 2026-09-05 01:19:18 | 48.30753 | 13.58227 | 82° | 120km/h | 6882m | -3.4m/s | -16.1°C | 21.2% | 436.1hPa | 2.5V | 00:00:00 | 00:00:00 | 00:00:00 | |
| OE5MMP-10 | 2026-09-05 01:19:16 | 48.30744 | 13.58136 | 81° | 119km/h | 6889m | -3.5m/s | -16.2°C | 21.0% | 435.6hPa | 2.5V | 07:45:00 | 02:49:45 | 00:00:00 | |
| DG1MFX-10 | 2026-09-05 01:19:15 | 48.30744 | 13.58136 | 82° | 120km/h | 6889m | -3.6m/s | -16.3°C | 20.2% | 435.7hPa | 2.5V | 07:45:00 | 00:00:00 | 00:00:00 | |
| DO3MHA-11 | 2026-09-05 01:19:14 | 48.30734 | 13.58047 | 81° | 119km/h | 6896m | -3.5m/s | -16.3°C | 21.1% | 435.3hPa | 2.5V | 00:00:00 | 02:49:43 | 00:00:00 | |
| OE3JTB-15 | 2026-09-05 01:19:13 | 48.30730 | 13.58002 | 81° | 119km/h | 6899m | -3.6m/s | -16.3°C | 20.7% | 435.1hPa | 2.5V | 07:45:00 | 00:00:00 | 00:00:00 | |
| OE5HKT-10 | 2026-09-05 01:19:12 | 48.30725 | 13.57958 | 81° | 119km/h | 6903m | -3.7m/s | -16.3°C | 20.5% | 434.9hPa | 2.5V | 00:00:00 | 00:00:00 | 00:00:00 | |
| OE5FHM-15 | 2026-09-05 01:19:08 | 48.30705 | 13.57780 | 81° | 119km/h | 6918m | -3.6m/s | -16.5°C | 20.4% | 433.9hPa | 2.5V | 00:00:00 | 02:49:37 | 00:00:00 | |
| OE5DRO-10 | 2026-09-05 01:19:07 | 48.30700 | 13.57736 | 81° | 119km/h | 6921m | -3.7m/s | -16.5°C | 20.3% | 433.8hPa | 2.5V | 00:00:00 | 00:00:00 | 00:00:00 | |
| OE5MMP-10 | 2026-09-05 01:19:06 | 48.30695 | 13.57691 | 82° | 120km/h | 6925m | -3.6m/s | -16.5°C | 20.4% | 433.5hPa | 2.5V | 00:00:00 | 02:49:35 | 00:00:00 | |
| DO3MHA-11 | 2026-09-05 01:19:04 | 48.30685 | 13.57601 | 81° | 119km/h | 6932m | -3.8m/s | -16.6°C | 20.2% | 433.2hPa | 2.5V | 00:00:00 | 02:49:33 | 00:00:00 | |
| S52SK | 2026-09-05 01:19:03 | 48.30685 | 13.57601 | 82° | 120km/h | 6932m | -3.9m/s | -16.6°C | 19.3% | 433.2hPa | 2.5V | 00:00:00 | 00:00:00 | 00:00:00 | |
| OE5WHR-10 | 2026-09-05 01:19:02 | 48.30676 | 13.57511 | 82° | 119km/h | 6940m | -3.4m/s | -16.6°C | 20.1% | 432.7hPa | 2.5V | 00:00:00 | 00:00:00 | 00:00:00 | |
| PG1ADW-2 | 2026-09-05 01:18:58 | 48.30658 | 13.57331 | 82° | 119km/h | 6954m | -3.6m/s | -16.8°C | 20.5% | 431.9hPa | 2.5V | 07:45:00 | 00:00:00 | 00:00:00 | |
| S52SK | 2026-09-05 01:18:57 | 48.30658 | 13.57331 | 82° | 119km/h | 6954m | -3.7m/s | -16.8°C | 19.7% | 432.0hPa | 2.5V | 00:00:00 | 00:00:00 | 00:00:00 | |
| OE5MMP-10 | 2026-09-05 01:18:56 | 48.30649 | 13.57242 | 82° | 119km/h | 6961m | -3.7m/s | -16.8°C | 20.7% | 431.5hPa | 2.5V | 00:00:00 | 02:49:25 | 00:00:00 | |
| DO3MHA-11 | 2026-09-05 01:18:54 | 48.30639 | 13.57153 | 82° | 119km/h | 6968m | -3.6m/s | -16.9°C | 20.7% | 431.1hPa | 2.6V | 00:00:00 | 02:49:23 | 00:00:00 | |
| OE5REO-15 | 2026-09-05 01:18:52 | 48.30631 | 13.57065 | 82° | 117km/h | 6975m | -3.7m/s | -17.0°C | 19.4% | 430.7hPa | 2.6V | 07:45:00 | 00:00:00 | 00:00:00 | |
| OE5HKT-10 | 2026-09-05 01:18:51 | 48.30626 | 13.57021 | 82° | 119km/h | 6979m | -3.5m/s | -16.9°C | 19.9% | 430.6hPa | 2.6V | 00:00:00 | 02:49:20 | 00:00:00 | |
| OE5DRO-10 | 2026-09-05 01:18:48 | 48.30613 | 13.56888 | 82° | 119km/h | 6989m | -3.5m/s | -17.0°C | 20.0% | 429.8hPa | 2.6V | 00:00:00 | 00:00:00 | 00:00:00 | |
| OE5MMP-10 | 2026-09-05 01:18:46 | 48.30605 | 13.56799 | 83° | 119km/h | 6996m | -3.6m/s | -17.1°C | 20.1% | 429.5hPa | 2.6V | 00:00:00 | 02:49:15 | 00:00:00 | |
| DO3MHA-11 | 2026-09-05 01:18:44 | 48.30597 | 13.56710 | 83° | 119km/h | 7003m | -3.6m/s | -17.2°C | 19.8% | 429.1hPa | 2.6V | 00:00:00 | 02:49:13 | 00:00:00 | |
| OE5WHR-10 | 2026-09-05 01:18:41 | 48.30584 | 13.56576 | 83° | 119km/h | 7014m | -3.6m/s | -17.3°C | 18.6% | 428.5hPa | 2.6V | 00:00:00 | 02:49:10 | 00:00:00 | |
| OE5FHM-15 | 2026-09-05 01:18:38 | 48.30572 | 13.56443 | 83° | 117km/h | 7025m | -3.6m/s | -17.3°C | 17.0% | 427.8hPa | 2.6V | 00:00:00 | 02:49:07 | 00:00:00 | |
| OE5MMP-10 | 2026-09-05 01:18:36 | 48.30565 | 13.56354 | 83° | 119km/h | 7033m | -3.3m/s | -17.3°C | 15.7% | 427.4hPa | 2.5V | 00:00:00 | 02:49:05 | 00:00:00 | |
| DG1MFX-10 | 2026-09-05 01:18:35 | 48.30561 | 13.56310 | 83° | 117km/h | 7036m | -3.5m/s | -17.4°C | 14.8% | 427.4hPa | 2.5V | 07:46:00 | 00:00:00 | 00:00:00 | |
| DO3MHA-11 | 2026-09-05 01:18:34 | 48.30557 | 13.56266 | 83° | 119km/h | 7039m | -3.6m/s | -17.4°C | 15.6% | 427.0hPa | 2.5V | 00:00:00 | 02:49:03 | 00:00:00 | |
| OE5HKT-10 | 2026-09-05 01:18:30 | 48.30541 | 13.56088 | 83° | 117km/h | 7053m | -3.4m/s | -17.5°C | 16.4% | 426.1hPa | 2.5V | 00:00:00 | 00:00:00 | 00:00:00 | |
| OE5DRO-10 | 2026-09-05 01:18:29 | 48.30537 | 13.56044 | 83° | 117km/h | 7057m | -3.7m/s | -17.5°C | 16.5% | 425.9hPa | 2.6V | 00:00:00 | 00:00:00 | 00:00:00 | |
| OE5MMP-10 | 2026-09-05 01:18:26 | 48.30526 | 13.55911 | 84° | 117km/h | 7067m | -3.6m/s | -17.6°C | 16.8% | 425.4hPa | 2.6V | 00:00:00 | 02:48:55 | 00:00:00 | |
| DO3MHA-11 | 2026-09-05 01:18:24 | 48.30519 | 13.55822 | 84° | 117km/h | 7075m | -3.7m/s | -17.6°C | 17.2% | 425.1hPa | 2.6V | 07:46:00 | 02:48:53 | 00:00:00 | |
| OE5REO-15 | 2026-09-05 01:18:21 | 48.30512 | 13.55733 | 85° | 117km/h | 7082m | -3.7m/s | -17.7°C | 16.4% | 424.7hPa | 2.6V | 07:46:00 | 00:00:00 | 00:00:00 | |
| OE5WHR-10 | 2026-09-05 01:18:20 | 48.30505 | 13.55645 | 83° | 117km/h | 7089m | -3.6m/s | -17.7°C | 17.1% | 424.1hPa | 2.6V | 07:46:00 | 00:00:00 | 00:00:00 | |
| PG1ADW-2 | 2026-09-05 01:18:18 | 48.30498 | 13.55557 | 84° | 117km/h | 7096m | -3.6m/s | -17.8°C | 17.0% | 423.8hPa | 2.6V | 00:00:00 | 02:48:47 | 00:00:00 | |
| OE5MMP-10 | 2026-09-05 01:18:16 | 48.30491 | 13.55469 | 84° | 117km/h | 7103m | -3.5m/s | -17.9°C | 16.9% | 423.4hPa | 2.6V | 00:00:00 | 02:48:45 | 00:00:00 | |
| OE3JTB-15 | 2026-09-05 01:18:15 | 48.30488 | 13.55425 | 84° | 115km/h | 7107m | -3.6m/s | 0°C | 0% | 0hPa | 2.6V | 00:00:00 | 00:00:00 | 00:00:00 | |
| DO3MHA-11 | 2026-09-05 01:18:14 | 48.30484 | 13.55381 | 84° | 117km/h | 7110m | -3.6m/s | -17.9°C | 16.8% | 423.0hPa | 2.6V | 00:00:00 | 02:48:43 | 00:00:00 | |
| DG1MFX-10 | 2026-09-05 01:18:13 | 48.30484 | 13.55381 | 85° | 117km/h | 7110m | -3.6m/s | -18.0°C | 16.0% | 423.0hPa | 2.6V | 07:46:00 | 00:00:00 | 00:00:00 | |
| OE5DRO-10 | 2026-09-05 01:18:10 | 48.30470 | 13.55205 | 84° | 115km/h | 7125m | -3.8m/s | -18.0°C | 16.7% | 422.1hPa | 2.6V | 00:00:00 | 00:00:00 | 00:00:00 | |
| OE5HKT-10 | 2026-09-05 01:18:09 | 48.30467 | 13.55161 | 84° | 115km/h | 7129m | -3.6m/s | -18.1°C | 16.6% | 421.9hPa | 2.6V | 00:00:00 | 00:00:00 | 00:00:00 | |
| OE5FHM-15 | 2026-09-05 01:18:08 | 48.30463 | 13.55117 | 83° | 115km/h | 7132m | -3.7m/s | -18.1°C | 16.7% | 421.8hPa | 2.6V | 07:46:00 | 02:48:37 | 00:00:00 | |
| OE5MMP-10 | 2026-09-05 01:18:06 | 48.30456 | 13.55029 | 84° | 115km/h | 7140m | -3.5m/s | -18.2°C | 16.7% | 421.3hPa | 2.6V | 00:00:00 | 02:48:35 | 00:00:00 | |
| DO3MHA-11 | 2026-09-05 01:18:04 | 48.30449 | 13.54941 | 84° | 115km/h | 7147m | -3.5m/s | -18.2°C | 16.6% | 421.0hPa | 2.6V | 00:00:00 | 02:48:33 | 00:00:00 | |
| OE5WHR-10 | 2026-09-05 01:17:59 | 48.30434 | 13.54723 | 84° | 115km/h | 7165m | -3.7m/s | -18.4°C | 16.3% | 420.0hPa | 2.6V | 00:00:00 | 00:00:00 | 00:00:00 | |
| PG1ADW-2 | 2026-09-05 01:17:58 | 48.30431 | 13.54680 | 85° | 115km/h | 7168m | -3.8m/s | -18.4°C | 16.2% | 419.8hPa | 2.6V | 00:00:00 | 00:00:00 | 00:00:00 | |
| OE5MMP-10 | 2026-09-05 01:17:56 | 48.30425 | 13.54593 | 84° | 115km/h | 7175m | -3.4m/s | -18.5°C | 16.0% | 419.3hPa | 2.6V | 07:46:00 | 02:48:25 | 00:00:00 | |
| DO3MHA-11 | 2026-09-05 01:17:54 | 48.30418 | 13.54507 | 84° | 117km/h | 7182m | -3.6m/s | -18.5°C | 15.7% | 419.0hPa | 2.5V | 00:00:00 | 02:48:23 | 00:00:00 | |
| DG1MFX-10 | 2026-09-05 01:17:53 | 48.30415 | 13.54463 | 85° | 117km/h | 7186m | -3.7m/s | -18.6°C | 14.6% | 418.8hPa | 2.5V | 07:46:00 | 00:00:00 | 00:00:00 | |
| OE5DRO-10 | 2026-09-05 01:17:51 | 48.30408 | 13.54376 | 84° | 117km/h | 7193m | -3.6m/s | -18.6°C | 15.0% | 418.3hPa | 2.5V | 07:46:00 | 00:00:00 | 00:00:00 | |
| OE5REO-15 | 2026-09-05 01:17:50 | 48.30408 | 13.54376 | 85° | 115km/h | 7193m | -3.7m/s | -18.7°C | 14.2% | 418.4hPa | 2.6V | 07:46:00 | 00:00:00 | 00:00:00 | |
| OE5HKT-10 | 2026-09-05 01:17:48 | 48.30399 | 13.54244 | 84° | 117km/h | 7204m | -3.6m/s | -18.7°C | 14.5% | 417.8hPa | 2.6V | 00:00:00 | 02:48:17 | 00:00:00 | |
| OE5MMP-10 | 2026-09-05 01:17:46 | 48.30393 | 13.54156 | 85° | 115km/h | 7211m | -3.6m/s | -18.7°C | 14.2% | 417.2hPa | 2.6V | 00:00:00 | 02:48:15 | 00:00:00 | |
| OE3JTB-15 | 2026-09-05 01:17:45 | 48.30390 | 13.54112 | 85° | 117km/h | 7214m | -3.6m/s | 0°C | 0% | 0hPa | 2.6V | 00:00:00 | 00:00:00 | 00:00:00 | |
| DO3MHA-11 | 2026-09-05 01:17:44 | 48.30388 | 13.54068 | 85° | 115km/h | 7218m | -3.6m/s | -18.8°C | 14.2% | 417.0hPa | 2.6V | 00:00:00 | 02:48:13 | 00:00:00 | |
| S52SK | 2026-09-05 01:17:39 | 48.30377 | 13.53893 | 85° | 115km/h | 7232m | -3.4m/s | -19.0°C | 0% | 0hPa | 2.6V | 00:00:00 | 00:00:00 | 00:00:00 | |
| OE5FHM-15 | 2026-09-05 01:17:38 | 48.30371 | 13.53806 | 85° | 117km/h | 7239m | -3.7m/s | -19.0°C | 14.1% | 415.6hPa | 2.6V | 00:00:00 | 02:48:07 | 00:00:00 | |
| OE5MMP-10 | 2026-09-05 01:17:36 | 48.30365 | 13.53719 | 85° | 115km/h | 7247m | -3.9m/s | -19.0°C | 14.0% | 415.3hPa | 2.6V | 00:00:00 | 02:48:05 | 00:00:00 | |
| DO3MHA-11 | 2026-09-05 01:17:34 | 48.30359 | 13.53630 | 84° | 115km/h | 7254m | -3.7m/s | -19.1°C | 14.0% | 415.0hPa | 2.6V | 00:00:00 | 02:48:03 | 00:00:00 | |
| S52SK | 2026-09-05 01:17:33 | 48.30359 | 13.53630 | 84° | 117km/h | 7254m | -3.8m/s | -19.1°C | 0% | 0hPa | 2.6V | 00:00:00 | 00:00:00 | 00:00:00 | |
| OE5DRO-10 | 2026-09-05 01:17:32 | 48.30352 | 13.53543 | 84° | 117km/h | 7262m | -3.6m/s | -19.1°C | 13.9% | 414.5hPa | 2.6V | 00:00:00 | 00:00:00 | 00:00:00 | |
| OE5HKT-10 | 2026-09-05 01:17:27 | 48.30337 | 13.53325 | 86° | 117km/h | 7280m | -3.9m/s | -19.2°C | 13.7% | 413.5hPa | 2.6V | 00:00:00 | 00:00:00 | 00:00:00 | |
| OE5MMP-10 | 2026-09-05 01:17:26 | 48.30334 | 13.53281 | 85° | 117km/h | 7284m | -3.8m/s | -19.3°C | 13.7% | 413.2hPa | 2.6V | 00:00:00 | 02:47:55 | 00:00:00 | |
| DO3MHA-11 | 2026-09-05 01:17:24 | 48.30329 | 13.53193 | 85° | 117km/h | 7291m | -3.7m/s | -19.3°C | 13.7% | 412.9hPa | 2.5V | 00:00:00 | 02:47:53 | 00:00:00 | |
| DL6DJ-15 | 2026-09-05 01:17:19 | 48.30314 | 13.52974 | 84° | 117km/h | 7310m | -4.1m/s | -19.5°C | 13.0% | 411.9hPa | 2.5V | 00:00:00 | 00:00:00 | 00:00:00 | |
| PG1ADW-2 | 2026-09-05 01:17:18 | 48.30311 | 13.52930 | 84° | 117km/h | 7315m | -3.9m/s | -19.5°C | 13.8% | 411.7hPa | 2.5V | 00:00:00 | 00:00:00 | 00:00:00 | |
| OE5WHR-10 | 2026-09-05 01:17:17 | 48.30307 | 13.52886 | 84° | 117km/h | 7319m | -3.9m/s | -19.5°C | 13.8% | 411.4hPa | 2.5V | 00:00:00 | 00:00:00 | 00:00:00 | |
| OE3JTB-15 | 2026-09-05 01:17:16 | 48.30304 | 13.52843 | 85° | 117km/h | 7323m | -3.9m/s | 0°C | 0% | 0hPa | 2.5V | 00:00:00 | 02:47:45 | 00:00:00 | |
| OE5DRO-10 | 2026-09-05 01:17:13 | 48.30295 | 13.52711 | 84° | 117km/h | 7335m | -3.9m/s | -19.6°C | 13.5% | 410.5hPa | 2.5V | 00:00:00 | 00:00:00 | 00:00:00 | |
| DG1MFX-10 | 2026-09-05 01:17:12 | 48.30295 | 13.52711 | 85° | 117km/h | 7335m | -3.9m/s | -19.7°C | 12.7% | 410.5hPa | 2.5V | 07:47:00 | 00:00:00 | 00:00:00 | |
| OE5FHM-15 | 2026-09-05 01:17:08 | 48.30281 | 13.52491 | 85° | 117km/h | 7355m | -4.2m/s | -19.8°C | 13.4% | 409.5hPa | 2.5V | 00:00:00 | 02:47:37 | 00:00:00 | |
| OE5HKT-10 | 2026-09-05 01:17:06 | 48.30275 | 13.52403 | 85° | 117km/h | 7363m | -4.0m/s | -19.9°C | 13.5% | 409.0hPa | 2.6V | 07:47:00 | 00:00:00 | 00:00:00 | |
| DO3MHA-11 | 2026-09-05 01:17:04 | 48.30269 | 13.52315 | 85° | 117km/h | 7371m | -4.0m/s | -20.0°C | 13.6% | 408.6hPa | 2.6V | 07:47:00 | 02:47:33 | 00:00:00 | |
| OE5REO-15 | 2026-09-05 01:17:02 | 48.30267 | 13.52271 | 85° | 115km/h | 7375m | -4.0m/s | -20.1°C | 12.8% | 408.4hPa | 2.6V | 07:47:00 | 00:00:00 | 00:00:00 | |
| PG1ADW-2 | 2026-09-05 01:16:58 | 48.30251 | 13.52052 | 85° | 117km/h | 7395m | -3.9m/s | -20.2°C | 13.8% | 407.2hPa | 2.6V | 00:00:00 | 02:47:27 | 00:00:00 | |
| OE5WHR-10 | 2026-09-05 01:16:56 | 48.30245 | 13.51964 | 85° | 117km/h | 7402m | -3.7m/s | -20.3°C | 13.9% | 406.8hPa | 2.6V | 00:00:00 | 00:00:00 | 00:00:00 | |
| DO3MHA-11 | 2026-09-05 01:16:54 | 48.30240 | 13.51875 | 85° | 115km/h | 7410m | -3.8m/s | -20.3°C | 13.9% | 406.2hPa | 2.6V | 00:00:00 | 02:47:23 | 00:00:00 | |
| DG1MFX-10 | 2026-09-05 01:16:53 | 48.30237 | 13.51831 | 85° | 115km/h | 7414m | -4.0m/s | -20.4°C | 13.1% | 406.1hPa | 2.6V | 07:48:00 | 00:00:00 | 00:00:00 | |
| OE3JTB-15 | 2026-09-05 01:16:47 | 48.30220 | 13.51569 | 85° | 115km/h | 7437m | -3.8m/s | 0°C | 0% | 0hPa | 2.6V | 00:00:00 | 00:00:00 | 00:00:00 | |
| OE5MMP-10 | 2026-09-05 01:16:46 | 48.30217 | 13.51525 | 84° | 117km/h | 7441m | -3.9m/s | -20.6°C | 14.2% | 404.6hPa | 2.6V | 00:00:00 | 02:47:15 | 00:00:00 | |
| OE5HKT-10 | 2026-09-05 01:16:45 | 48.30213 | 13.51482 | 84° | 117km/h | 7445m | -4.2m/s | -20.7°C | 14.2% | 404.5hPa | 2.6V | 00:00:00 | 02:47:14 | 00:00:00 | |
| DO3MHA-11 | 2026-09-05 01:16:44 | 48.30210 | 13.51438 | 84° | 117km/h | 7449m | -3.8m/s | -20.7°C | 14.3% | 404.2hPa | 2.6V | 00:00:00 | 02:47:13 | 00:00:00 | |
| OE5FHM-15 | 2026-09-05 01:16:38 | 48.30192 | 13.51174 | 85° | 115km/h | 7473m | -4.1m/s | -20.9°C | 14.5% | 403.0hPa | 2.6V | 00:00:00 | 02:47:07 | 00:00:00 | |
| OE5MMP-10 | 2026-09-05 01:16:36 | 48.30186 | 13.51086 | 85° | 117km/h | 7481m | -4.3m/s | -21.0°C | 14.5% | 402.5hPa | 2.6V | 07:47:00 | 02:47:05 | 00:00:00 | |
| OE5WHR-10 | 2026-09-05 01:16:35 | 48.30183 | 13.51042 | 85° | 115km/h | 7485m | -3.9m/s | -21.1°C | 14.5% | 402.2hPa | 2.6V | 00:00:00 | 02:47:04 | 00:00:00 | |
| DO3MHA-11 | 2026-09-05 01:16:34 | 48.30180 | 13.50998 | 85° | 115km/h | 7489m | -3.7m/s | -21.1°C | 14.5% | 402.2hPa | 2.6V | 00:00:00 | 02:47:03 | 00:00:00 | |
| DG1MFX-10 | 2026-09-05 01:16:31 | 48.30175 | 13.50911 | 86° | 117km/h | 7496m | -4.0m/s | -21.2°C | 13.6% | 401.8hPa | 2.6V | 07:48:00 | 00:00:00 | 00:00:00 | |
| OE5MMP-10 | 2026-09-05 01:16:26 | 48.30162 | 13.50648 | 86° | 113km/h | 7518m | -3.7m/s | -21.4°C | 14.8% | 400.6hPa | 2.6V | 00:00:00 | 02:46:55 | 00:00:00 | |
| OE5HKT-10 | 2026-09-05 01:16:24 | 48.30158 | 13.50562 | 87° | 115km/h | 7526m | -3.8m/s | -21.4°C | 14.9% | 400.1hPa | 2.5V | 00:00:00 | 00:00:00 | 00:00:00 | |
| PG1ADW-2 | 2026-09-05 01:16:18 | 48.30146 | 13.50303 | 86° | 115km/h | 7549m | -3.9m/s | -21.7°C | 14.7% | 398.8hPa | 2.6V | 07:48:00 | 00:00:00 | 00:00:00 | |
| DL6DJ-15 | 2026-09-05 01:16:17 | 48.30144 | 13.50260 | 86° | 113km/h | 7553m | -4.0m/s | -21.7°C | 13.6% | 398.7hPa | 2.6V | 00:00:00 | 00:00:00 | 00:00:00 | |
| OE5MMP-10 | 2026-09-05 01:16:16 | 48.30142 | 13.50217 | 87° | 115km/h | 7557m | -3.7m/s | -21.7°C | 14.2% | 398.4hPa | 2.6V | 00:00:00 | 02:46:45 | 00:00:00 | |
| OE5REO-15 | 2026-09-05 01:16:15 | 48.30142 | 13.50217 | 87° | 115km/h | 7557m | -3.7m/s | -21.7°C | 13.3% | 398.5hPa | 2.6V | 07:48:00 | 00:00:00 | 00:00:00 | |
| DO3MHA-11 | 2026-09-05 01:16:14 | 48.30138 | 13.50130 | 86° | 115km/h | 7565m | -3.9m/s | -21.8°C | 14.0% | 398.0hPa | 2.6V | 00:00:00 | 02:46:43 | 00:00:00 | |
| S52SK | 2026-09-05 01:16:11 | 48.30134 | 13.50044 | 88° | 115km/h | 7572m | -3.8m/s | -21.8°C | 0% | 0hPa | 2.6V | 07:48:00 | 00:00:00 | 00:00:00 | |
| DG1MFX-10 | 2026-09-05 01:16:10 | 48.30132 | 13.50000 | 87° | 115km/h | 7576m | -4.1m/s | -21.8°C | 12.3% | 397.4hPa | 2.6V | 07:48:00 | 00:00:00 | 00:00:00 | |
| OE5FHM-15 | 2026-09-05 01:16:08 | 48.30127 | 13.49869 | 88° | 117km/h | 7588m | -3.7m/s | -21.9°C | 12.9% | 396.7hPa | 2.6V | 00:00:00 | 02:46:37 | 00:00:00 | |
| OE5MMP-10 | 2026-09-05 01:16:06 | 48.30124 | 13.49782 | 87° | 117km/h | 7595m | -3.8m/s | -21.9°C | 12.5% | 396.3hPa | 2.6V | 00:00:00 | 02:46:35 | 00:00:00 | |
| DO3MHA-11 | 2026-09-05 01:16:04 | 48.30121 | 13.49694 | 88° | 117km/h | 7603m | -3.9m/s | -22.0°C | 12.3% | 395.9hPa | 2.6V | 00:00:00 | 02:46:33 | 00:00:00 | |
| OE5HKT-10 | 2026-09-05 01:16:03 | 48.30120 | 13.49650 | 88° | 117km/h | 7607m | -4.0m/s | -22.0°C | 12.1% | 395.7hPa | 2.6V | 00:00:00 | 00:00:00 | 00:00:00 | |
| OE5REO-15 | 2026-09-05 01:15:59 | 48.30117 | 13.49518 | 89° | 117km/h | 7619m | -3.9m/s | -21.9°C | 10.1% | 395.1hPa | 2.6V | 07:49:00 | 00:00:00 | 00:00:00 | |
| PG1ADW-2 | 2026-09-05 01:15:58 | 48.30115 | 13.49430 | 89° | 117km/h | 7627m | -3.8m/s | -21.9°C | 11.0% | 394.7hPa | 2.6V | 00:00:00 | 00:00:00 | 00:00:00 | |
| OE5DRO-10 | 2026-09-05 01:15:57 | 48.30114 | 13.49386 | 89° | 117km/h | 7631m | -4.0m/s | -22.0°C | 11.0% | 394.4hPa | 2.6V | 00:00:00 | 00:00:00 | 00:00:00 | |
| OE5MMP-10 | 2026-09-05 01:15:56 | 48.30113 | 13.49341 | 89° | 117km/h | 7635m | -4.1m/s | -22.0°C | 11.0% | 394.3hPa | 2.6V | 00:00:00 | 02:46:25 | 00:00:00 | |
| DO3MHA-11 | 2026-09-05 01:15:54 | 48.30111 | 13.49252 | 89° | 117km/h | 7643m | -4.1m/s | -22.0°C | 11.1% | 393.7hPa | 2.6V | 00:00:00 | 02:46:23 | 00:00:00 | |
| OE5WHR-10 | 2026-09-05 01:15:53 | 48.30110 | 13.49208 | 89° | 117km/h | 7647m | -3.9m/s | -22.1°C | 11.1% | 393.5hPa | 2.6V | 00:00:00 | 00:00:00 | 00:00:00 | |
| DG1MFX-10 | 2026-09-05 01:15:49 | 48.30107 | 13.49074 | 89° | 117km/h | 7659m | -4.2m/s | -22.2°C | 10.4% | 393.0hPa | 2.6V | 07:49:00 | 00:00:00 | 00:00:00 | |
| OE3JTB-15 | 2026-09-05 01:15:47 | 48.30103 | 13.48942 | 88° | 117km/h | 7671m | -4.2m/s | 0°C | 0% | 0hPa | 2.6V | 00:00:00 | 02:46:16 | 00:00:00 | |
| OE5MMP-10 | 2026-09-05 01:15:46 | 48.30102 | 13.48898 | 88° | 117km/h | 7675m | -4.1m/s | -22.3°C | 11.3% | 392.1hPa | 2.6V | 00:00:00 | 02:46:15 | 00:00:00 | |
| DO3MHA-11 | 2026-09-05 01:15:44 | 48.30099 | 13.48809 | 88° | 117km/h | 7684m | -4.0m/s | -22.3°C | 11.4% | 391.7hPa | 2.6V | 07:48:00 | 02:46:13 | 00:00:00 | |
| OE5REO-15 | 2026-09-05 01:15:43 | 48.30099 | 13.48809 | 88° | 117km/h | 7684m | -4.1m/s | -22.4°C | 10.6% | 391.7hPa | 2.5V | 07:49:00 | 00:00:00 | 00:00:00 | |
| OE5FHM-15 | 2026-09-05 01:15:38 | 48.30091 | 13.48544 | 88° | 117km/h | 7707m | -3.8m/s | -22.4°C | 11.8% | 390.3hPa | 2.5V | 00:00:00 | 02:46:07 | 00:00:00 | |
| OE5MMP-10 | 2026-09-05 01:15:36 | 48.30088 | 13.48455 | 88° | 117km/h | 7715m | -4.0m/s | -22.5°C | 11.9% | 389.9hPa | 2.5V | 00:00:00 | 02:46:05 | 00:00:00 | |
| DO3MHA-11 | 2026-09-05 01:15:34 | 48.30086 | 13.48366 | 89° | 119km/h | 7722m | -4.0m/s | -22.6°C | 12.0% | 389.5hPa | 2.5V | 00:00:00 | 02:46:03 | 00:00:00 | |
| OE5WHR-10 | 2026-09-05 01:15:32 | 48.30083 | 13.48276 | 88° | 117km/h | 7730m | -3.9m/s | -22.7°C | 12.0% | 389.1hPa | 2.5V | 07:48:00 | 02:46:01 | 00:00:00 | |
| DG1MFX-10 | 2026-09-05 01:15:28 | 48.30080 | 13.48142 | 88° | 117km/h | 7742m | -4.1m/s | -22.8°C | 11.3% | 388.4hPa | 2.5V | 07:49:00 | 00:00:00 | 00:00:00 | |
| OE5MMP-10 | 2026-09-05 01:15:26 | 48.30076 | 13.48008 | 87° | 117km/h | 7754m | -4.2m/s | -22.9°C | 12.3% | 387.9hPa | 2.5V | 00:00:00 | 02:45:55 | 00:00:00 | |
| DO3MHA-11 | 2026-09-05 01:15:24 | 48.30073 | 13.47919 | 87° | 119km/h | 7762m | -4.0m/s | -23.0°C | 12.4% | 387.5hPa | 2.6V | 00:00:00 | 02:45:53 | 00:00:00 | |
| OE5HKT-10 | 2026-09-05 01:15:21 | 48.30068 | 13.47785 | 87° | 117km/h | 7774m | -3.9m/s | -23.1°C | 12.5% | 386.8hPa | 2.6V | 00:00:00 | 00:00:00 | 00:00:00 | |
| OE5DRO-10 | 2026-09-05 01:15:19 | 48.30065 | 13.47696 | 88° | 117km/h | 7782m | -4.0m/s | -23.2°C | 12.6% | 386.4hPa | 2.4V | 07:49:00 | 00:00:00 | 00:00:00 | |
| PG1ADW-2 | 2026-09-05 01:15:18 | 48.30064 | 13.47651 | 88° | 117km/h | 7786m | -4.0m/s | -23.2°C | 12.7% | 386.1hPa | 2.4V | 00:00:00 | 00:00:00 | 00:00:00 | |
| OE5MMP-10 | 2026-09-05 01:15:16 | 48.30061 | 13.47562 | 88° | 117km/h | 7793m | -4.0m/s | -23.3°C | 12.7% | 385.8hPa | 2.4V | 07:49:00 | 02:45:45 | 00:00:00 | |
| OE5REO-15 | 2026-09-05 01:15:12 | 48.30057 | 13.47430 | 89° | 115km/h | 7805m | -4.1m/s | -23.4°C | 11.9% | 385.2hPa | 2.4V | 07:50:00 | 00:00:00 | 00:00:00 | |
| OE5WHR-10 | 2026-09-05 01:15:11 | 48.30054 | 13.47341 | 87° | 117km/h | 7813m | -3.8m/s | -23.5°C | 12.8% | 384.7hPa | 2.4V | 00:00:00 | 00:00:00 | 00:00:00 | |
| OE5FHM-15 | 2026-09-05 01:15:08 | 48.30050 | 13.47209 | 87° | 117km/h | 7824m | -3.9m/s | -23.6°C | 12.9% | 384.2hPa | 2.5V | 00:00:00 | 02:45:37 | 00:00:00 | |
| DG1MFX-10 | 2026-09-05 01:15:07 | 48.30050 | 13.47209 | 88° | 117km/h | 7824m | -3.9m/s | -23.6°C | 12.0% | 384.3hPa | 2.5V | 00:00:00 | 00:00:00 | 00:00:00 | |
| OE5HKT-10 | 2026-09-05 01:15:00 | 48.30036 | 13.46856 | 87° | 117km/h | 7859m | -4.6m/s | -23.9°C | 13.2% | 382.2hPa | 2.5V | 00:00:00 | 00:00:00 | 00:00:00 | |
| PG1ADW-2 | 2026-09-05 01:14:58 | 48.30033 | 13.46768 | 87° | 117km/h | 7867m | -4.5m/s | -24.0°C | 13.4% | 381.9hPa | 2.5V | 00:00:00 | 00:00:00 | 00:00:00 | |
| OE5MMP-10 | 2026-09-05 01:14:56 | 48.30030 | 13.46680 | 88° | 117km/h | 7876m | -4.4m/s | -24.1°C | 13.3% | 381.4hPa | 2.5V | 00:00:00 | 02:45:25 | 00:00:00 | |
| OE5WHR-10 | 2026-09-05 01:14:50 | 48.30021 | 13.46415 | 88° | 117km/h | 7903m | -4.5m/s | -24.3°C | 13.6% | 380.0hPa | 2.5V | 00:00:00 | 00:00:00 | 00:00:00 | |
| OE5MMP-10 | 2026-09-05 01:14:46 | 48.30015 | 13.46238 | 87° | 117km/h | 7920m | -4.5m/s | -24.5°C | 13.8% | 379.2hPa | 2.5V | 00:00:00 | 02:45:15 | 00:00:00 | |
| DL6DJ-15 | 2026-09-05 01:14:44 | 48.30010 | 13.46105 | 86° | 117km/h | 7934m | -4.7m/s | -24.7°C | 12.9% | 378.4hPa | 2.5V | 00:00:00 | 00:00:00 | 00:00:00 | |
| OE5REO-15 | 2026-09-05 01:14:41 | 48.30007 | 13.46015 | 88° | 119km/h | 7943m | -4.6m/s | -24.8°C | 12.9% | 377.9hPa | 2.5V | 07:50:00 | 00:00:00 | 00:00:00 | |
| S52SK | 2026-09-05 01:14:40 | 48.30007 | 13.46015 | 88° | 119km/h | 7943m | -4.6m/s | -24.8°C | 0% | 0hPa | 2.5V | 00:00:00 | 00:00:00 | 00:00:00 | |
| DO3MHA-11 | 2026-09-05 01:14:39 | 48.30004 | 13.45926 | 88° | 117km/h | 7952m | -4.4m/s | -24.8°C | 14.1% | 377.4hPa | 2.5V | 00:00:00 | 02:45:08 | 00:00:00 | |
| OE5FHM-15 | 2026-09-05 01:14:38 | 48.30002 | 13.45881 | 87° | 119km/h | 7956m | -4.6m/s | -24.8°C | 14.2% | 377.3hPa | 2.5V | 00:00:00 | 02:45:07 | 00:00:00 | |
| OE5HKT-10 | 2026-09-05 01:14:37 | 48.30001 | 13.45836 | 88° | 119km/h | 7960m | -4.5m/s | -24.9°C | 14.2% | 377.0hPa | 2.5V | 00:00:00 | 02:45:06 | 00:00:00 | |
| OE5MMP-10 | 2026-09-05 01:14:36 | 48.29999 | 13.45792 | 88° | 117km/h | 7965m | -4.3m/s | -24.9°C | 14.2% | 376.8hPa | 2.5V | 00:00:00 | 02:45:05 | 00:00:00 | |
| OE5WHR-10 | 2026-09-05 01:14:29 | 48.29988 | 13.45480 | 87° | 120km/h | 7995m | -4.1m/s | -25.2°C | 14.7% | 375.2hPa | 2.5V | 00:00:00 | 02:44:58 | 00:00:00 | |
| DO3MHA-11 | 2026-09-05 01:14:28 | 48.29986 | 13.45436 | 87° | 119km/h | 7999m | -4.3m/s | -25.2°C | 14.7% | 375.0hPa | 2.5V | 00:00:00 | 02:44:57 | 00:00:00 | |
| OE5MMP-10 | 2026-09-05 01:14:26 | 48.29982 | 13.45346 | 87° | 119km/h | 8008m | -4.3m/s | -25.3°C | 14.8% | 374.5hPa | 2.5V | 00:00:00 | 02:44:55 | 00:00:00 | |
| DG1MFX-10 | 2026-09-05 01:14:25 | 48.29983 | 13.45346 | 88° | 119km/h | 8008m | -4.3m/s | -25.4°C | 13.7% | 374.6hPa | 2.4V | 00:00:00 | 00:00:00 | 00:00:00 | |
| OE5REO-15 | 2026-09-05 01:14:24 | 48.29981 | 13.45301 | 88° | 119km/h | 8012m | -4.3m/s | -25.4°C | 13.8% | 374.3hPa | 2.4V | 07:50:00 | 00:00:00 | 00:00:00 | |
| OE5DRO-10 | 2026-09-05 01:14:22 | 48.29977 | 13.45166 | 88° | 120km/h | 8025m | -4.1m/s | -25.5°C | 15.0% | 373.7hPa | 2.4V | 00:00:00 | 00:00:00 | 00:00:00 | |
| PG1ADW-2 | 2026-09-05 01:14:18 | 48.29972 | 13.44984 | 89° | 120km/h | 8042m | -4.3m/s | -25.7°C | 15.2% | 372.8hPa | 2.4V | 00:00:00 | 02:44:47 | 00:00:00 | |
| OE5MMP-10 | 2026-09-05 01:14:16 | 48.29970 | 13.44893 | 88° | 120km/h | 8052m | -4.5m/s | -25.7°C | 15.2% | 372.3hPa | 2.4V | 00:00:00 | 02:44:45 | 00:00:00 | |
| OE5HKT-10 | 2026-09-05 01:14:14 | 48.29968 | 13.44801 | 89° | 120km/h | 8060m | -4.4m/s | -25.8°C | 15.2% | 371.9hPa | 2.4V | 07:50:00 | 00:00:00 | 00:00:00 | |
| OE5REO-15 | 2026-09-05 01:14:09 | 48.29963 | 13.44617 | 89° | 120km/h | 8078m | -4.7m/s | -25.9°C | 13.6% | 371.0hPa | 2.4V | 07:50:00 | 00:00:00 | 00:00:00 | |
| OE5WHR-10 | 2026-09-05 01:14:08 | 48.29960 | 13.44527 | 88° | 119km/h | 8087m | -4.5m/s | -26.0°C | 15.1% | 370.5hPa | 2.4V | 00:00:00 | 00:00:00 | 00:00:00 | |
| OE5MMP-10 | 2026-09-05 01:14:06 | 48.29958 | 13.44437 | 88° | 120km/h | 8096m | -4.4m/s | -26.1°C | 15.5% | 369.9hPa | 2.4V | 00:00:00 | 02:44:35 | 00:00:00 | |
| OE5DRO-10 | 2026-09-05 01:14:03 | 48.29954 | 13.44301 | 88° | 120km/h | 8109m | -4.7m/s | -26.1°C | 16.2% | 369.4hPa | 2.4V | 00:00:00 | 00:00:00 | 00:00:00 | |
| DO3MHA-11 | 2026-09-05 01:13:58 | 48.29948 | 13.44074 | 88° | 120km/h | 8133m | -4.5m/s | -26.3°C | 20.2% | 368.1hPa | 2.4V | 00:00:00 | 02:44:27 | 00:00:00 | |
| OE5MMP-10 | 2026-09-05 01:13:56 | 48.29945 | 13.43984 | 87° | 120km/h | 8141m | -4.6m/s | -26.3°C | 21.8% | 367.7hPa | 2.4V | 07:50:00 | 02:44:25 | 00:00:00 | |
| OE5REO-15 | 2026-09-05 01:13:53 | 48.29942 | 13.43893 | 88° | 120km/h | 8150m | -4.7m/s | -26.5°C | 21.7% | 367.3hPa | 2.4V | 07:50:00 | 00:00:00 | 00:00:00 | |
| OE5HKT-10 | 2026-09-05 01:13:52 | 48.29939 | 13.43803 | 88° | 119km/h | 8159m | -4.5m/s | -26.5°C | 23.8% | 366.9hPa | 2.4V | 00:00:00 | 00:00:00 | 00:00:00 | |
| OE5WHR-10 | 2026-09-05 01:13:47 | 48.29933 | 13.43575 | 89° | 119km/h | 8182m | -4.8m/s | -26.7°C | 27.1% | 365.7hPa | 2.4V | 00:00:00 | 00:00:00 | 00:00:00 | |
| OE5MMP-10 | 2026-09-05 01:13:46 | 48.29932 | 13.43530 | 88° | 119km/h | 8187m | -4.4m/s | -26.8°C | 27.2% | 365.4hPa | 2.4V | 00:00:00 | 02:44:15 | 00:00:00 | |
| OE5DRO-10 | 2026-09-05 01:13:44 | 48.29930 | 13.43439 | 89° | 119km/h | 8196m | -4.5m/s | -26.9°C | 28.6% | 365.0hPa | 2.4V | 00:00:00 | 00:00:00 | 00:00:00 | |
| OE5FHM-15 | 2026-09-05 01:13:38 | 48.29923 | 13.43169 | 87° | 117km/h | 8224m | -4.8m/s | -27.1°C | 29.2% | 363.5hPa | 2.4V | 00:00:00 | 02:44:07 | 00:00:00 | |
| OE5MMP-10 | 2026-09-05 01:13:36 | 48.29920 | 13.43079 | 88° | 117km/h | 8233m | -4.8m/s | -27.2°C | 29.9% | 363.1hPa | 2.4V | 00:00:00 | 02:44:05 | 00:00:00 | |
| OE5HKT-10 | 2026-09-05 01:13:29 | 48.29909 | 13.42767 | 88° | 113km/h | 8266m | -4.8m/s | -27.5°C | 30.1% | 361.4hPa | 2.4V | 00:00:00 | 02:43:58 | 00:00:00 | |
| DO3MHA-11 | 2026-09-05 01:13:28 | 48.29907 | 13.42723 | 88° | 117km/h | 8270m | -4.7m/s | -27.5°C | 30.3% | 361.2hPa | 2.4V | 00:00:00 | 02:43:57 | 00:00:00 | |
| DB0UT-7 | 2026-09-05 01:13:27 | 48.29906 | 13.42679 | 88° | 117km/h | 8275m | -4.8m/s | -27.6°C | 29.9% | 361.0hPa | 2.4V | 00:00:00 | 00:00:00 | 00:00:00 | |
| OE5WHR-10 | 2026-09-05 01:13:26 | 48.29904 | 13.42634 | 88° | 117km/h | 8280m | -4.6m/s | -27.6°C | 27.3% | 360.8hPa | 2.4V | 00:00:00 | 02:43:55 | 00:00:00 | |
| OE5DRO-10 | 2026-09-05 01:13:25 | 48.29903 | 13.42590 | 88° | 117km/h | 8284m | -4.6m/s | -27.6°C | 23.5% | 360.5hPa | 2.4V | 00:00:00 | 00:00:00 | 00:00:00 | |
| OE5REO-15 | 2026-09-05 01:13:22 | 48.29900 | 13.42502 | 88° | 117km/h | 8294m | -4.7m/s | -27.6°C | 19.0% | 360.1hPa | 2.4V | 07:51:00 | 00:00:00 | 00:00:00 | |
| PG1ADW-2 | 2026-09-05 01:13:18 | 48.29892 | 13.42281 | 87° | 117km/h | 8317m | -4.7m/s | -27.6°C | 19.3% | 358.8hPa | 2.4V | 00:00:00 | 00:00:00 | 00:00:00 | |
| OE5MMP-10 | 2026-09-05 01:13:16 | 48.29889 | 13.42192 | 88° | 115km/h | 8327m | -4.8m/s | -27.7°C | 21.7% | 358.4hPa | 2.4V | 00:00:00 | 02:43:45 | 00:00:00 | |
| S52SK | 2026-09-05 01:13:12 | 48.29885 | 13.42060 | 88° | 115km/h | 8341m | -5.1m/s | -27.8°C | 0% | 0hPa | 2.4V | 00:00:00 | 00:00:00 | 00:00:00 | |
| OE5FHM-15 | 2026-09-05 01:13:08 | 48.29877 | 13.41842 | 88° | 119km/h | 8364m | -4.7m/s | -28.0°C | 26.1% | 356.6hPa | 2.4V | 00:00:00 | 02:43:37 | 00:00:00 | |
| OE5REO-15 | 2026-09-05 01:13:07 | 48.29877 | 13.41842 | 88° | 115km/h | 8364m | -4.8m/s | -28.0°C | 24.4% | 356.6hPa | 2.4V | 07:51:00 | 00:00:00 | 00:00:00 | |
| OE5MMP-10 | 2026-09-05 01:13:06 | 48.29874 | 13.41755 | 87° | 117km/h | 8374m | -4.8m/s | -28.1°C | 26.4% | 356.1hPa | 2.4V | 00:00:00 | 02:43:35 | 00:00:00 | |
| OE5WHR-10 | 2026-09-05 01:13:05 | 48.29872 | 13.41712 | 87° | 119km/h | 8379m | -5.0m/s | -28.1°C | 26.7% | 355.8hPa | 2.4V | 00:00:00 | 00:00:00 | 00:00:00 | |
| PG1ADW-2 | 2026-09-05 01:12:58 | 48.29859 | 13.41401 | 87° | 119km/h | 8412m | -4.9m/s | -28.4°C | 28.3% | 354.2hPa | 2.4V | 00:00:00 | 02:43:27 | 00:00:00 | |
| DB0UT-7 | 2026-09-05 01:12:57 | 48.29857 | 13.41357 | 87° | 122km/h | 8416m | -4.9m/s | -28.5°C | 28.5% | 354.0hPa | 2.4V | 00:00:00 | 02:43:26 | 00:00:00 | |
| OE5MMP-10 | 2026-09-05 01:12:56 | 48.29856 | 13.41312 | 87° | 119km/h | 8421m | -4.8m/s | -28.5°C | 28.7% | 353.8hPa | 2.4V | 00:00:00 | 02:43:25 | 00:00:00 | |
| OE5REO-15 | 2026-09-05 01:12:51 | 48.29849 | 13.41133 | 89° | 119km/h | 8440m | -4.9m/s | -28.7°C | 28.2% | 352.8hPa | 2.5V | 07:51:00 | 00:00:00 | 00:00:00 | |
| DO3MHA-11 | 2026-09-05 01:12:48 | 48.29845 | 13.40953 | 89° | 120km/h | 8459m | -4.8m/s | -28.8°C | 31.2% | 351.9hPa | 2.5V | 00:00:00 | 02:43:17 | 00:00:00 | |
| OE5DRO-10 | 2026-09-05 01:12:47 | 48.29844 | 13.40908 | 89° | 120km/h | 8464m | -4.7m/s | -28.8°C | 30.7% | 351.6hPa | 2.5V | 07:51:00 | 00:00:00 | 00:00:00 | |
| OE5MMP-10 | 2026-09-05 01:12:46 | 48.29843 | 13.40862 | 89° | 120km/h | 8468m | -4.7m/s | -28.8°C | 30.1% | 351.4hPa | 2.5V | 00:00:00 | 02:43:15 | 00:00:00 | |
| OE5WHR-10 | 2026-09-05 01:12:44 | 48.29842 | 13.40771 | 89° | 120km/h | 8477m | -4.8m/s | -28.8°C | 28.9% | 351.0hPa | 2.5V | 07:51:00 | 00:00:00 | 00:00:00 | |
| OE5FHM-15 | 2026-09-05 01:12:38 | 48.29835 | 13.40496 | 88° | 122km/h | 8505m | -4.7m/s | -28.9°C | 27.5% | 349.6hPa | 2.5V | 00:00:00 | 02:43:07 | 00:00:00 | |
| DO3MHA-11 | 2026-09-05 01:12:28 | 48.29820 | 13.40039 | 87° | 122km/h | 8551m | -4.8m/s | -29.1°C | 24.0% | 347.3hPa | 2.4V | 07:52:00 | 02:42:57 | 00:00:00 | |
| OE5MMP-10 | 2026-09-05 01:12:26 | 48.29817 | 13.39947 | 87° | 122km/h | 8561m | -4.9m/s | -29.1°C | 23.3% | 346.9hPa | 2.4V | 00:00:00 | 02:42:55 | 00:00:00 | |
| OE5WHR-10 | 2026-09-05 01:12:23 | 48.29811 | 13.39808 | 87° | 122km/h | 8575m | -4.7m/s | -29.2°C | 22.9% | 346.1hPa | 2.4V | 00:00:00 | 02:42:52 | 00:00:00 | |
| OE5REO-15 | 2026-09-05 01:12:20 | 48.29807 | 13.39716 | 87° | 120km/h | 8585m | -5.0m/s | -29.4°C | 21.3% | 345.7hPa | 2.4V | 07:52:00 | 00:00:00 | 00:00:00 | |
| PG1ADW-2 | 2026-09-05 01:12:18 | 48.29801 | 13.39578 | 86° | 122km/h | 8600m | -4.8m/s | -29.4°C | 22.6% | 344.9hPa | 2.4V | 00:00:00 | 00:00:00 | 00:00:00 | |
| OE5MMP-10 | 2026-09-05 01:12:16 | 48.29796 | 13.39486 | 86° | 122km/h | 8609m | -4.8m/s | -29.5°C | 22.6% | 344.6hPa | 2.4V | 00:00:00 | 02:42:45 | 00:00:00 | |
| DB0UT-7 | 2026-09-05 01:12:09 | 48.29778 | 13.39160 | 86° | 124km/h | 8643m | -4.6m/s | -29.8°C | 22.2% | 343.0hPa | 2.4V | 00:00:00 | 00:00:00 | 00:00:00 | |
| OE5FHM-15 | 2026-09-05 01:12:08 | 48.29775 | 13.39113 | 86° | 124km/h | 8647m | -4.6m/s | -29.8°C | 22.2% | 342.7hPa | 2.4V | 00:00:00 | 02:42:37 | 00:00:00 | |
| OE5MMP-10 | 2026-09-05 01:12:06 | 48.29770 | 13.39020 | 86° | 124km/h | 8657m | -4.7m/s | -29.9°C | 22.3% | 342.3hPa | 2.4V | 00:00:00 | 02:42:35 | 00:00:00 | |
| OE5REO-15 | 2026-09-05 01:12:04 | 48.29768 | 13.38974 | 86° | 124km/h | 8662m | -4.6m/s | -30.0°C | 20.7% | 342.1hPa | 2.4V | 07:52:00 | 00:00:00 | 00:00:00 | |
| OE5WHR-10 | 2026-09-05 01:12:02 | 48.29760 | 13.38834 | 86° | 124km/h | 8676m | -4.6m/s | -30.1°C | 22.6% | 341.4hPa | 2.4V | 00:00:00 | 00:00:00 | 00:00:00 | |
| PG1ADW-2 | 2026-09-05 01:11:58 | 48.29750 | 13.38647 | 86° | 124km/h | 8694m | -4.7m/s | -30.2°C | 23.1% | 340.5hPa | 2.5V | 00:00:00 | 00:00:00 | 00:00:00 | |
| OE5MMP-10 | 2026-09-05 01:11:56 | 48.29745 | 13.38553 | 86° | 124km/h | 8703m | -4.6m/s | -30.3°C | 23.2% | 340.1hPa | 2.5V | 00:00:00 | 02:42:25 | 00:00:00 | |
| S52SK | 2026-09-05 01:11:50 | 48.29732 | 13.38318 | 87° | 124km/h | 8727m | -4.9m/s | -30.6°C | 0% | 0hPa | 2.5V | 00:00:00 | 00:00:00 | 00:00:00 | |
| OE5REO-15 | 2026-09-05 01:11:49 | 48.29730 | 13.38271 | 87° | 124km/h | 8732m | -4.8m/s | -30.6°C | 20.5% | 338.7hPa | 2.5V | 07:53:00 | 00:00:00 | 00:00:00 | |
| DO3MHA-11 | 2026-09-05 01:11:48 | 48.29726 | 13.38177 | 87° | 124km/h | 8741m | -4.8m/s | -30.6°C | 22.8% | 338.2hPa | 2.5V | 00:00:00 | 02:42:17 | 00:00:00 | |
| OE5MMP-10 | 2026-09-05 01:11:46 | 48.29721 | 13.38084 | 87° | 124km/h | 8751m | -4.8m/s | -30.7°C | 23.7% | 337.7hPa | 2.5V | 00:00:00 | 02:42:15 | 00:00:00 | |
| S52SK | 2026-09-05 01:11:45 | 48.29721 | 13.38084 | 87° | 124km/h | 8751m | -4.8m/s | -30.8°C | 0% | 0hPa | 2.5V | 00:00:00 | 00:00:00 | 00:00:00 | |
| OE5WHR-10 | 2026-09-05 01:11:41 | 48.29711 | 13.37849 | 87° | 124km/h | 8774m | -4.8m/s | -30.9°C | 25.4% | 336.6hPa | 2.5V | 00:00:00 | 00:00:00 | 00:00:00 | |
| DB0UT-7 | 2026-09-05 01:11:39 | 48.29706 | 13.37754 | 87° | 124km/h | 8783m | -4.6m/s | -31.0°C | 25.5% | 336.2hPa | 2.5V | 07:52:00 | 02:42:08 | 00:00:00 | |
| OE5FHM-15 | 2026-09-05 01:11:38 | 48.29705 | 13.37707 | 87° | 124km/h | 8788m | -4.8m/s | -31.1°C | 25.6% | 335.9hPa | 2.5V | 00:00:00 | 02:42:07 | 00:00:00 | |
| OE5MMP-10 | 2026-09-05 01:11:36 | 48.29701 | 13.37613 | 87° | 124km/h | 8797m | -4.9m/s | -31.2°C | 25.7% | 335.5hPa | 2.5V | 00:00:00 | 02:42:05 | 00:00:00 | |
| OE5REO-15 | 2026-09-05 01:11:33 | 48.29697 | 13.37519 | 88° | 124km/h | 8807m | -4.8m/s | -31.3°C | 24.1% | 335.1hPa | 2.5V | 07:53:00 | 00:00:00 | 00:00:00 | |
| OE5DRO-10 | 2026-09-05 01:11:31 | 48.29692 | 13.37378 | 88° | 124km/h | 8821m | -5.0m/s | -31.4°C | 26.2% | 334.4hPa | 2.5V | 00:00:00 | 00:00:00 | 00:00:00 | |
| DO3MHA-11 | 2026-09-05 01:11:28 | 48.29687 | 13.37237 | 88° | 124km/h | 8835m | -4.8m/s | -31.5°C | 26.1% | 333.7hPa | 2.5V | 00:00:00 | 02:41:57 | 00:00:00 | |
| OE5MMP-10 | 2026-09-05 01:11:26 | 48.29684 | 13.37143 | 88° | 124km/h | 8844m | -4.9m/s | -31.6°C | 25.6% | 333.3hPa | 2.5V | 00:00:00 | 02:41:55 | 00:00:00 | |
| OE5WHR-10 | 2026-09-05 01:11:20 | 48.29674 | 13.36862 | 87° | 124km/h | 8873m | -4.8m/s | -31.8°C | 24.2% | 332.0hPa | 2.4V | 00:00:00 | 02:41:49 | 00:00:00 | |
| PG1ADW-2 | 2026-09-05 01:11:18 | 48.29671 | 13.36768 | 88° | 124km/h | 8882m | -4.8m/s | -31.8°C | 23.7% | 331.6hPa | 2.4V | 00:00:00 | 00:00:00 | 00:00:00 | |
| OE5MMP-10 | 2026-09-05 01:11:16 | 48.29668 | 13.36675 | 88° | 124km/h | 8892m | -4.6m/s | -31.9°C | 23.4% | 331.1hPa | 2.4V | 07:53:00 | 02:41:45 | 00:00:00 | |
| OE5DRO-10 | 2026-09-05 01:11:12 | 48.29662 | 13.36487 | 88° | 124km/h | 8911m | -4.9m/s | -32.1°C | 22.6% | 330.2hPa | 2.4V | 00:00:00 | 00:00:00 | 00:00:00 | |
| DB0UT-7 | 2026-09-05 01:11:09 | 48.29657 | 13.36347 | 88° | 120km/h | 8925m | -4.7m/s | -32.2°C | 22.9% | 329.6hPa | 2.5V | 00:00:00 | 00:00:00 | 00:00:00 | |
| OE5FHM-15 | 2026-09-05 01:11:08 | 48.29656 | 13.36300 | 87° | 122km/h | 8930m | -4.9m/s | -32.2°C | 23.1% | 329.3hPa | 2.5V | 00:00:00 | 02:41:37 | 00:00:00 | |
| OE5MMP-10 | 2026-09-05 01:11:06 | 48.29653 | 13.36206 | 88° | 122km/h | 8939m | -4.8m/s | -32.3°C | 23.5% | 328.8hPa | 2.4V | 00:00:00 | 02:41:35 | 00:00:00 | |
| OE5REO-15 | 2026-09-05 01:11:03 | 48.29650 | 13.36113 | 89° | 124km/h | 8949m | -4.7m/s | -32.5°C | 21.9% | 328.4hPa | 2.4V | 07:53:00 | 00:00:00 | 00:00:00 | |
| OE5WHR-10 | 2026-09-05 01:10:59 | 48.29642 | 13.35879 | 88° | 122km/h | 8972m | -4.8m/s | -32.6°C | 24.2% | 327.3hPa | 2.4V | 00:00:00 | 00:00:00 | 00:00:00 | |
| PG1ADW-2 | 2026-09-05 01:10:58 | 48.29641 | 13.35833 | 88° | 120km/h | 8977m | -4.7m/s | -32.7°C | 24.3% | 327.1hPa | 2.5V | 07:53:00 | 00:00:00 | 00:00:00 | |
| OE5MMP-10 | 2026-09-05 01:10:56 | 48.29638 | 13.35740 | 88° | 122km/h | 8986m | -4.8m/s | -32.8°C | 24.6% | 326.7hPa | 2.5V | 00:00:00 | 02:41:25 | 00:00:00 | |
| OE5DRO-10 | 2026-09-05 01:10:53 | 48.29634 | 13.35600 | 88° | 120km/h | 9000m | -4.9m/s | -32.9°C | 25.0% | 326.0hPa | 2.4V | 00:00:00 | 00:00:00 | 00:00:00 | |
| DO3MHA-11 | 2026-09-05 01:10:48 | 48.29627 | 13.35368 | 88° | 120km/h | 9024m | -4.6m/s | -33.1°C | 25.6% | 324.9hPa | 2.4V | 00:00:00 | 02:41:17 | 00:00:00 | |
| OE5MMP-10 | 2026-09-05 01:10:46 | 48.29625 | 13.35277 | 88° | 120km/h | 9033m | -4.8m/s | -33.2°C | 26.0% | 324.5hPa | 2.4V | 00:00:00 | 02:41:15 | 00:00:00 | |
| OE5FHM-15 | 2026-09-05 01:10:38 | 48.29611 | 13.34914 | 87° | 119km/h | 9073m | -4.8m/s | -33.5°C | 24.0% | 322.7hPa | 2.4V | 00:00:00 | 02:41:07 | 00:00:00 | |
| OE5MMP-10 | 2026-09-05 01:10:36 | 48.29608 | 13.34823 | 87° | 119km/h | 9083m | -5.0m/s | -33.5°C | 23.9% | 322.2hPa | 2.4V | 00:00:00 | 02:41:05 | 00:00:00 | |
| DL6DJ-15 | 2026-09-05 01:10:35 | 48.29607 | 13.34778 | 87° | 119km/h | 9088m | -5.1m/s | -33.6°C | 21.5% | 322.1hPa | 2.4V | 00:00:00 | 00:00:00 | 00:00:00 | |
| OE5DRO-10 | 2026-09-05 01:10:34 | 48.29605 | 13.34733 | 88° | 119km/h | 9093m | -5.0m/s | -33.6°C | 23.3% | 321.8hPa | 2.4V | 00:00:00 | 00:00:00 | 00:00:00 | |
| OE5REO-15 | 2026-09-05 01:10:33 | 48.29605 | 13.34733 | 88° | 119km/h | 9093m | -5.0m/s | -33.6°C | 21.3% | 321.8hPa | 2.4V | 07:54:00 | 00:00:00 | 00:00:00 | |
| DO3MHA-11 | 2026-09-05 01:10:28 | 48.29597 | 13.34463 | 87° | 119km/h | 9123m | -5.1m/s | -33.8°C | 22.6% | 320.5hPa | 2.4V | 00:00:00 | 02:40:57 | 00:00:00 | |
| OE5MMP-10 | 2026-09-05 01:10:26 | 48.29593 | 13.34373 | 87° | 119km/h | 9133m | -4.9m/s | -33.9°C | 22.2% | 320.0hPa | 2.4V | 00:00:00 | 02:40:55 | 00:00:00 | |
| DG1MFX-10 | 2026-09-05 01:10:25 | 48.29593 | 13.34373 | 87° | 119km/h | 9133m | -5.0m/s | -33.9°C | 20.2% | 320.0hPa | 2.4V | 00:00:00 | 00:00:00 | 00:00:00 | |
| DO3MHA-11 | 2026-09-05 01:10:18 | 48.29579 | 13.34016 | 87° | 119km/h | 9173m | -4.9m/s | -34.2°C | 22.7% | 318.2hPa | 2.4V | 00:00:00 | 02:40:47 | 00:00:00 | |
| OE5WHR-10 | 2026-09-05 01:10:17 | 48.29577 | 13.33971 | 87° | 119km/h | 9178m | -4.9m/s | -34.2°C | 22.7% | 317.9hPa | 2.4V | 00:00:00 | 02:40:46 | 00:00:00 | |
| OE5MMP-10 | 2026-09-05 01:10:16 | 48.29575 | 13.33927 | 87° | 119km/h | 9182m | -4.9m/s | -34.3°C | 22.8% | 317.7hPa | 2.4V | 00:00:00 | 02:40:45 | 00:00:00 | |
| OE5DRO-10 | 2026-09-05 01:10:15 | 48.29573 | 13.33882 | 87° | 119km/h | 9188m | -5.0m/s | -34.3°C | 22.7% | 317.4hPa | 2.4V | 07:54:00 | 00:00:00 | 00:00:00 | |
| DB0UT-7 | 2026-09-05 01:10:13 | 48.29569 | 13.33793 | 87° | 119km/h | 9198m | -5.1m/s | -34.4°C | 22.6% | 317.1hPa | 2.5V | 00:00:00 | 02:40:42 | 00:00:00 | |
| S52SK | 2026-09-05 01:10:11 | 48.29568 | 13.33749 | 87° | 117km/h | 9203m | -5.1m/s | -34.5°C | 0% | 0hPa | 2.5V | 07:54:00 | 00:00:00 | 00:00:00 | |
| OE5FHM-15 | 2026-09-05 01:10:08 | 48.29560 | 13.33570 | 87° | 119km/h | 9223m | -5.2m/s | -34.6°C | 22.5% | 315.8hPa | 2.5V | 07:54:00 | 02:40:37 | 00:00:00 | |
| OE5MMP-10 | 2026-09-05 01:10:06 | 48.29556 | 13.33481 | 87° | 119km/h | 9233m | -5.2m/s | -34.7°C | 22.5% | 315.5hPa | 2.5V | 00:00:00 | 02:40:35 | 00:00:00 | |
| DL6DJ-15 | 2026-09-05 01:10:04 | 48.29552 | 13.33392 | 86° | 117km/h | 9243m | -5.1m/s | -34.8°C | 20.4% | 315.0hPa | 2.5V | 00:00:00 | 00:00:00 | 00:00:00 | |
| DG1MFX-10 | 2026-09-05 01:10:03 | 48.29552 | 13.33392 | 87° | 119km/h | 9243m | -5.1m/s | -34.8°C | 20.5% | 315.0hPa | 2.5V | 07:55:00 | 00:00:00 | 00:00:00 | |
| OE5REO-15 | 2026-09-05 01:10:01 | 48.29549 | 13.33302 | 87° | 119km/h | 9253m | -5.1m/s | -34.9°C | 20.5% | 314.6hPa | 2.5V | 07:55:00 | 00:00:00 | 00:00:00 | |
| DO3MHA-11 | 2026-09-05 01:09:58 | 48.29541 | 13.33123 | 87° | 119km/h | 9274m | -5.1m/s | -35.0°C | 22.8% | 313.6hPa | 2.5V | 00:00:00 | 02:40:27 | 00:00:00 | |
| OE5MMP-10 | 2026-09-05 01:09:56 | 48.29537 | 13.33034 | 87° | 119km/h | 9284m | -4.9m/s | -35.1°C | 23.0% | 313.2hPa | 2.5V | 07:54:00 | 02:40:25 | 00:00:00 | |
| DO3MHA-11 | 2026-09-05 01:09:48 | 48.29524 | 13.32677 | 87° | 117km/h | 9324m | -5.0m/s | -35.5°C | 23.8% | 311.3hPa | 2.5V | 07:54:00 | 02:40:17 | 00:00:00 | |
| OE5MMP-10 | 2026-09-05 01:09:46 | 48.29521 | 13.32588 | 88° | 117km/h | 9334m | -5.0m/s | -35.6°C | 24.0% | 311.0hPa | 2.5V | 00:00:00 | 02:40:15 | 00:00:00 | |
| OE5REO-15 | 2026-09-05 01:09:45 | 48.29521 | 13.32588 | 88° | 119km/h | 9334m | -5.0m/s | -35.6°C | 21.8% | 311.0hPa | 2.5V | 07:55:00 | 00:00:00 | 00:00:00 | |
| DB0UT-7 | 2026-09-05 01:09:43 | 48.29516 | 13.32454 | 87° | 91km/h | 9349m | -5.1m/s | -35.7°C | 24.1% | 310.3hPa | 2.5V | 00:00:00 | 00:00:00 | 00:00:00 | |
| OE5FHM-15 | 2026-09-05 01:09:38 | 48.29508 | 13.32233 | 88° | 117km/h | 9374m | -5.0m/s | -36.0°C | 24.5% | 309.1hPa | 2.5V | 00:00:00 | 02:40:07 | 00:00:00 | |
| PG1ADW-2 | 2026-09-05 01:09:37 | 48.29506 | 13.32189 | 88° | 117km/h | 9379m | -4.9m/s | -36.0°C | 24.6% | 309.0hPa | 2.5V | 00:00:00 | 00:00:00 | 00:00:00 | |
| OE5MMP-10 | 2026-09-05 01:09:36 | 48.29505 | 13.32145 | 88° | 117km/h | 9384m | -4.9m/s | -36.1°C | 24.6% | 308.7hPa | 2.4V | 00:00:00 | 02:40:05 | 00:00:00 | |
| OE5WHR-10 | 2026-09-05 01:09:35 | 48.29504 | 13.32101 | 88° | 117km/h | 9389m | -5.0m/s | -36.1°C | 24.7% | 308.5hPa | 2.4V | 00:00:00 | 00:00:00 | 00:00:00 | |
| DL6DJ-15 | 2026-09-05 01:09:33 | 48.29501 | 13.32013 | 87° | 115km/h | 9399m | -5.1m/s | -36.3°C | 22.4% | 308.1hPa | 2.4V | 00:00:00 | 00:00:00 | 00:00:00 | |
| OE5REO-15 | 2026-09-05 01:09:30 | 48.29499 | 13.31924 | 89° | 117km/h | 9409m | -4.9m/s | -36.3°C | 22.4% | 307.6hPa | 2.4V | 07:55:00 | 00:00:00 | 00:00:00 | |
| DO3MHA-11 | 2026-09-05 01:09:28 | 48.29496 | 13.31791 | 89° | 117km/h | 9423m | -4.9m/s | -36.4°C | 24.3% | 306.9hPa | 2.4V | 00:00:00 | 02:39:57 | 00:00:00 | |
| OE5MMP-10 | 2026-09-05 01:09:26 | 48.29494 | 13.31703 | 89° | 117km/h | 9433m | -4.9m/s | -36.5°C | 23.8% | 306.5hPa | 2.4V | 00:00:00 | 02:39:55 | 00:00:00 | |
| DO3MHA-11 | 2026-09-05 01:09:18 | 48.29488 | 13.31351 | 89° | 115km/h | 9473m | -5.0m/s | -36.8°C | 23.8% | 304.8hPa | 2.5V | 00:00:00 | 02:39:47 | 00:00:00 | |
| PG1ADW-2 | 2026-09-05 01:09:17 | 48.29487 | 13.31307 | 89° | 115km/h | 9478m | -5.0m/s | -36.8°C | 23.8% | 304.5hPa | 2.5V | 00:00:00 | 00:00:00 | 00:00:00 | |
| OE5MMP-10 | 2026-09-05 01:09:16 | 48.29486 | 13.31264 | 89° | 115km/h | 9483m | -5.1m/s | -36.9°C | 23.8% | 304.3hPa | 2.5V | 00:00:00 | 02:39:45 | 00:00:00 | |
| OE5REO-15 | 2026-09-05 01:09:15 | 48.29486 | 13.31264 | 90° | 117km/h | 9483m | -5.1m/s | -36.9°C | 21.4% | 304.4hPa | 2.5V | 07:56:00 | 00:00:00 | 00:00:00 | |
| OE5WHR-10 | 2026-09-05 01:09:14 | 48.29485 | 13.31176 | 89° | 113km/h | 9493m | -4.9m/s | -37.0°C | 23.8% | 303.9hPa | 2.5V | 00:00:00 | 02:39:43 | 00:00:00 | |
| OE5FHM-15 | 2026-09-05 01:09:08 | 48.29482 | 13.30914 | 89° | 113km/h | 9522m | -5.0m/s | -37.2°C | 23.8% | 302.5hPa | 2.5V | 00:00:00 | 02:39:37 | 00:00:00 | |
| OE5MMP-10 | 2026-09-05 01:09:06 | 48.29480 | 13.30827 | 89° | 113km/h | 9532m | -4.9m/s | -37.3°C | 23.8% | 302.1hPa | 2.5V | 00:00:00 | 02:39:35 | 00:00:00 | |
| DL6DJ-15 | 2026-09-05 01:09:02 | 48.29478 | 13.30654 | 87° | 113km/h | 9552m | -4.9m/s | -37.5°C | 21.3% | 301.3hPa | 2.5V | 00:00:00 | 00:00:00 | 00:00:00 | |
| OE5REO-15 | 2026-09-05 01:09:00 | 48.29477 | 13.30611 | 89° | 113km/h | 9557m | -5.0m/s | -37.6°C | 21.3% | 301.1hPa | 2.5V | 07:56:00 | 00:00:00 | 00:00:00 | |
| OE5DRO-10 | 2026-09-05 01:08:59 | 48.29475 | 13.30525 | 88° | 111km/h | 9567m | -5.0m/s | -37.6°C | 23.4% | 300.6hPa | 2.5V | 00:00:00 | 00:00:00 | 00:00:00 | |
| DO3MHA-11 | 2026-09-05 01:08:58 | 48.29474 | 13.30482 | 88° | 113km/h | 9572m | -4.9m/s | -37.6°C | 23.5% | 300.3hPa | 2.5V | 00:00:00 | 02:39:27 | 00:00:00 | |
| PG1ADW-2 | 2026-09-05 01:08:57 | 48.29472 | 13.30440 | 88° | 111km/h | 9577m | -5.1m/s | -37.7°C | 23.4% | 300.1hPa | 2.5V | 00:00:00 | 02:39:26 | 00:00:00 | |
| OE5MMP-10 | 2026-09-05 01:08:56 | 48.29471 | 13.30397 | 88° | 113km/h | 9581m | -4.8m/s | -37.7°C | 23.3% | 299.9hPa | 2.5V | 00:00:00 | 02:39:25 | 00:00:00 | |
| OE5WHR-10 | 2026-09-05 01:08:53 | 48.29467 | 13.30269 | 88° | 111km/h | 9596m | -5.1m/s | -37.8°C | 23.2% | 299.3hPa | 2.4V | 00:00:00 | 00:00:00 | 00:00:00 | |
| DO3MHA-11 | 2026-09-05 01:08:48 | 48.29461 | 13.30056 | 88° | 111km/h | 9621m | -5.1m/s | -38.0°C | 22.8% | 298.2hPa | 2.4V | 00:00:00 | 02:39:17 | 00:00:00 | |
| OE5REO-15 | 2026-09-05 01:08:44 | 48.29457 | 13.29929 | 88° | 111km/h | 9636m | -5.1m/s | -38.1°C | 20.1% | 297.6hPa | 2.4V | 07:56:00 | 00:00:00 | 00:00:00 | |
| OE5DRO-10 | 2026-09-05 01:08:40 | 48.29447 | 13.29718 | 86° | 111km/h | 9662m | -5.1m/s | -38.2°C | 22.1% | 296.5hPa | 2.4V | 00:00:00 | 00:00:00 | 00:00:00 | |
| S52SK | 2026-09-05 01:08:39 | 48.29447 | 13.29718 | 87° | 111km/h | 9662m | -5.2m/s | -38.3°C | 0% | 0hPa | 2.4V | 00:00:00 | 00:00:00 | 00:00:00 | |
| OE5FHM-15 | 2026-09-05 01:08:38 | 48.29444 | 13.29634 | 86° | 111km/h | 9672m | -5.1m/s | -38.3°C | 22.0% | 296.1hPa | 2.4V | 00:00:00 | 02:39:07 | 00:00:00 | |
| PG1ADW-2 | 2026-09-05 01:08:37 | 48.29442 | 13.29592 | 87° | 111km/h | 9677m | -5.0m/s | -38.3°C | 22.0% | 295.9hPa | 2.4V | 00:00:00 | 00:00:00 | 00:00:00 | |
| OE5MMP-10 | 2026-09-05 01:08:36 | 48.29440 | 13.29550 | 87° | 111km/h | 9682m | -5.1m/s | -38.4°C | 21.9% | 295.6hPa | 2.4V | 07:55:00 | 02:39:05 | 00:00:00 | |
| S52SK | 2026-09-05 01:08:33 | 48.29436 | 13.29466 | 87° | 111km/h | 9692m | -5.3m/s | -38.5°C | 0% | 0hPa | 2.4V | 00:00:00 | 00:00:00 | 00:00:00 | |
| OE5WHR-10 | 2026-09-05 01:08:32 | 48.29432 | 13.29382 | 86° | 111km/h | 9702m | -4.8m/s | -38.5°C | 21.5% | 294.8hPa | 2.4V | 00:00:00 | 00:00:00 | 00:00:00 | |
| DL6DJ-15 | 2026-09-05 01:08:31 | 48.29430 | 13.29340 | 85° | 111km/h | 9707m | -5.0m/s | -38.6°C | 19.1% | 294.6hPa | 2.4V | 00:00:00 | 00:00:00 | 00:00:00 | |
| OE5REO-15 | 2026-09-05 01:08:29 | 48.29428 | 13.29298 | 87° | 111km/h | 9712m | -5.0m/s | -38.6°C | 19.0% | 294.4hPa | 2.4V | 07:56:00 | 00:00:00 | 00:00:00 | |
| DO3MHA-11 | 2026-09-05 01:08:28 | 48.29424 | 13.29214 | 86° | 111km/h | 9722m | -5.0m/s | -38.6°C | 21.3% | 293.9hPa | 2.4V | 07:56:00 | 02:38:57 | 00:00:00 | |
| OE5MMP-10 | 2026-09-05 01:08:26 | 48.29420 | 13.29130 | 86° | 111km/h | 9732m | -5.5m/s | -38.7°C | 20.8% | 293.4hPa | 2.4V | 00:00:00 | 02:38:55 | 00:00:00 | |
| DO3MHA-11 | 2026-09-05 01:08:19 | 48.29402 | 13.28796 | 86° | 111km/h | 9773m | -5.3m/s | -38.9°C | 21.0% | 291.7hPa | 2.5V | 00:00:00 | 02:38:47 | 00:00:00 | |
| PG1ADW-2 | 2026-09-05 01:08:17 | 48.29400 | 13.28754 | 85° | 110km/h | 9778m | -5.2m/s | -39.0°C | 21.1% | 291.5hPa | 2.5V | 07:56:00 | 00:00:00 | 00:00:00 | |
| OE5MMP-10 | 2026-09-05 01:08:16 | 48.29398 | 13.28712 | 86° | 110km/h | 9783m | -5.0m/s | -39.0°C | 21.2% | 291.3hPa | 2.5V | 00:00:00 | 02:38:45 | 00:00:00 | |
| OE5REO-15 | 2026-09-05 01:08:14 | 48.29395 | 13.28670 | 86° | 110km/h | 9788m | -5.1m/s | -39.1°C | 18.9% | 291.1hPa | 2.5V | 07:56:00 | 00:00:00 | 00:00:00 | |
| OE5WHR-10 | 2026-09-05 01:08:11 | 48.29386 | 13.28503 | 85° | 110km/h | 9809m | -5.1m/s | -39.2°C | 21.6% | 290.2hPa | 2.5V | 00:00:00 | 02:38:40 | 00:00:00 | |
| PETON7-10 | 2026-09-05 01:08:10 | 48.29384 | 13.28461 | 86° | 110km/h | 9814m | -5.4m/s | -39.3°C | 21.7% | 290.0hPa | 2.5V | 00:00:00 | 02:38:39 | 00:00:00 | |
| OE5FHM-15 | 2026-09-05 01:08:08 | 48.29379 | 13.28378 | 85° | 110km/h | 9824m | -5.0m/s | -39.4°C | 21.8% | 289.5hPa | 2.5V | 00:00:00 | 02:38:37 | 00:00:00 | |
| OE5MMP-10 | 2026-09-05 01:08:06 | 48.29374 | 13.28295 | 86° | 110km/h | 9834m | -5.1m/s | -39.4°C | 22.0% | 289.2hPa | 2.4V | 00:00:00 | 02:38:35 | 00:00:00 | |
| OE5DRO-10 | 2026-09-05 01:08:02 | 48.29364 | 13.28129 | 86° | 110km/h | 9854m | -5.2m/s | -39.6°C | 22.2% | 288.3hPa | 2.4V | 00:00:00 | 00:00:00 | 00:00:00 | |
| DL6DJ-15 | 2026-09-05 01:08:00 | 48.29359 | 13.28045 | 84° | 110km/h | 9864m | -5.1m/s | -39.8°C | 19.7% | 287.8hPa | 2.4V | 00:00:00 | 00:00:00 | 00:00:00 | |
| DO3MHA-11 | 2026-09-05 01:07:58 | 48.29354 | 13.27962 | 85° | 110km/h | 9875m | -5.4m/s | -39.8°C | 22.3% | 287.4hPa | 2.4V | 00:00:00 | 02:38:27 | 00:00:00 | |
| PG1ADW-2 | 2026-09-05 01:07:57 | 48.29349 | 13.27879 | 85° | 110km/h | 9885m | -5.2m/s | -39.9°C | 22.5% | 287.0hPa | 2.4V | 00:00:00 | 00:00:00 | 00:00:00 | |
| OE5MMP-10 | 2026-09-05 01:07:56 | 48.29349 | 13.27879 | 85° | 110km/h | 9885m | -5.2m/s | -39.9°C | 22.5% | 287.0hPa | 2.4V | 00:00:00 | 02:38:25 | 00:00:00 | |
| PETON7-10 | 2026-09-05 01:07:55 | 48.29347 | 13.27837 | 86° | 110km/h | 9890m | -5.5m/s | -39.9°C | 22.5% | 286.7hPa | 2.4V | 00:00:00 | 00:00:00 | 00:00:00 | |
| OE5WHR-10 | 2026-09-05 01:07:50 | 48.29334 | 13.27629 | 85° | 110km/h | 9916m | -5.0m/s | -40.1°C | 22.9% | 285.7hPa | 2.4V | 00:00:00 | 00:00:00 | 00:00:00 | |
| DO3MHA-11 | 2026-09-05 01:07:48 | 48.29329 | 13.27546 | 85° | 110km/h | 9926m | -4.9m/s | -40.2°C | 23.0% | 285.3hPa | 2.4V | 00:00:00 | 02:38:17 | 00:00:00 | |
| OE5MMP-10 | 2026-09-05 01:07:46 | 48.29325 | 13.27462 | 85° | 110km/h | 9936m | -5.2m/s | -40.3°C | 23.1% | 284.9hPa | 2.4V | 00:00:00 | 02:38:15 | 00:00:00 | |
| OE5DRO-10 | 2026-09-05 01:07:43 | 48.29317 | 13.27337 | 86° | 110km/h | 9952m | -5.3m/s | -40.4°C | 23.4% | 284.2hPa | 2.4V | 07:56:00 | 00:00:00 | 00:00:00 | |
| OE5REO-15 | 2026-09-05 01:07:42 | 48.29317 | 13.27337 | 86° | 111km/h | 9952m | -5.3m/s | -40.5°C | 20.7% | 284.2hPa | 2.4V | 07:56:00 | 00:00:00 | 00:00:00 | |
| OE5FHM-15 | 2026-09-05 01:07:38 | 48.29305 | 13.27129 | 85° | 110km/h | 9978m | -5.2m/s | -40.7°C | 23.7% | 283.1hPa | 2.4V | 00:00:00 | 02:38:07 | 00:00:00 | |
| PG1ADW-2 | 2026-09-05 01:07:37 | 48.29303 | 13.27087 | 85° | 110km/h | 9983m | -5.3m/s | -40.7°C | 23.7% | 282.9hPa | 2.4V | 00:00:00 | 02:38:06 | 00:00:00 | |
| OE5MMP-10 | 2026-09-05 01:07:36 | 48.29300 | 13.27046 | 85° | 111km/h | 9988m | -4.9m/s | -40.8°C | 23.8% | 282.6hPa | 2.4V | 00:00:00 | 02:38:05 | 00:00:00 | |
| OE5HKT-10 | 2026-09-05 01:07:30 | 48.29284 | 13.26795 | 85° | 110km/h | 10019m | -5.1m/s | -41.1°C | 24.0% | 281.4hPa | 2.4V | 00:00:00 | 00:00:00 | 00:00:00 | |
| OE5WHR-10 | 2026-09-05 01:07:29 | 48.29282 | 13.26753 | 85° | 110km/h | 10024m | -5.2m/s | -41.1°C | 24.0% | 281.2hPa | 2.4V | 00:00:00 | 00:00:00 | 00:00:00 | |
| DO3MHA-11 | 2026-09-05 01:07:28 | 48.29279 | 13.26711 | 85° | 110km/h | 10029m | -5.1m/s | -41.1°C | 24.0% | 281.0hPa | 2.4V | 00:00:00 | 02:37:57 | 00:00:00 | |
| OE5REO-15 | 2026-09-05 01:07:27 | 48.29279 | 13.26711 | 85° | 110km/h | 10029m | -5.1m/s | -41.2°C | 21.2% | 281.1hPa | 2.4V | 07:57:00 | 00:00:00 | 00:00:00 | |
| OE5MMP-10 | 2026-09-05 01:07:26 | 48.29273 | 13.26628 | 84° | 110km/h | 10040m | -5.2m/s | -41.2°C | 23.9% | 280.6hPa | 2.4V | 00:00:00 | 02:37:55 | 00:00:00 | |
| OE5DRO-10 | 2026-09-05 01:07:24 | 48.29267 | 13.26545 | 84° | 110km/h | 10050m | -5.0m/s | -41.3°C | 23.7% | 280.1hPa | 2.5V | 00:00:00 | 00:00:00 | 00:00:00 | |
| DO3MHA-11 | 2026-09-05 01:07:18 | 48.29253 | 13.26295 | 86° | 110km/h | 10080m | -4.9m/s | -41.4°C | 22.7% | 278.9hPa | 2.5V | 00:00:00 | 02:37:47 | 00:00:00 | |
| PG1ADW-2 | 2026-09-05 01:07:17 | 48.29251 | 13.26254 | 87° | 108km/h | 10085m | -5.4m/s | -41.4°C | 22.5% | 278.7hPa | 2.5V | 00:00:00 | 00:00:00 | 00:00:00 | |
| OE5MMP-10 | 2026-09-05 01:07:16 | 48.29249 | 13.26212 | 87° | 110km/h | 10090m | -5.0m/s | -41.4°C | 22.4% | 278.5hPa | 2.5V | 07:57:00 | 02:37:45 | 00:00:00 | |
| PETON7-10 | 2026-09-05 01:07:12 | 48.29244 | 13.26047 | 88° | 108km/h | 10111m | -5.2m/s | -41.5°C | 22.2% | 277.6hPa | 2.5V | 00:00:00 | 00:00:00 | 00:00:00 | |
| OE3JTB-15 | 2026-09-05 01:07:11 | 48.29243 | 13.26006 | 89° | 106km/h | 10116m | -5.4m/s | 0°C | 0% | 0hPa | 2.5V | 07:57:00 | 00:00:00 | 00:00:00 | |
| OE5HKT-10 | 2026-09-05 01:07:09 | 48.29241 | 13.25923 | 89° | 106km/h | 10127m | -5.2m/s | -41.7°C | 22.2% | 277.0hPa | 2.5V | 00:00:00 | 00:00:00 | 00:00:00 | |
| OE5FHM-15 | 2026-09-05 01:07:08 | 48.29240 | 13.25882 | 88° | 104km/h | 10132m | -4.9m/s | -41.7°C | 22.2% | 276.7hPa | 2.5V | 00:00:00 | 02:37:37 | 00:00:00 | |
| OE5MMP-10 | 2026-09-05 01:07:06 | 48.29238 | 13.25800 | 89° | 108km/h | 10142m | -4.9m/s | -41.8°C | 22.2% | 276.4hPa | 2.5V | 00:00:00 | 02:37:35 | 00:00:00 | |
| OE5DRO-10 | 2026-09-05 01:07:05 | 48.29238 | 13.25760 | 89° | 106km/h | 10147m | -5.3m/s | -41.8°C | 22.0% | 276.2hPa | 2.5V | 00:00:00 | 00:00:00 | 00:00:00 | |
| S52SK | 2026-09-05 01:07:02 | 48.29236 | 13.25678 | 90° | 108km/h | 10157m | -5.4m/s | 0°C | 0% | 0hPa | 2.5V | 00:00:00 | 00:00:00 | 00:00:00 | |
| DG1MFX-10 | 2026-09-05 01:06:59 | 48.29235 | 13.25555 | 90° | 106km/h | 10172m | -5.2m/s | -42.0°C | 19.0% | 275.2hPa | 2.5V | 00:00:00 | 00:00:00 | 00:00:00 | |
| DO3MHA-11 | 2026-09-05 01:06:58 | 48.29234 | 13.25474 | 90° | 100km/h | 10182m | -5.1m/s | -41.9°C | 21.4% | 274.7hPa | 2.5V | 00:00:00 | 02:37:27 | 00:00:00 | |
| PG1ADW-2 | 2026-09-05 01:06:57 | 48.29234 | 13.25434 | 90° | 102km/h | 10188m | -5.0m/s | -42.0°C | 21.4% | 274.5hPa | 2.5V | 00:00:00 | 00:00:00 | 00:00:00 | |
| OE5MMP-10 | 2026-09-05 01:06:56 | 48.29234 | 13.25394 | 91° | 104km/h | 10193m | -4.9m/s | -42.0°C | 21.3% | 274.3hPa | 2.5V | 00:00:00 | 02:37:25 | 00:00:00 | |
| OE5HKT-10 | 2026-09-05 01:06:48 | 48.29236 | 13.25078 | 92° | 100km/h | 10233m | -5.1m/s | -42.2°C | 21.1% | 272.7hPa | 2.4V | 00:00:00 | 02:37:17 | 00:00:00 | |
| OE5WHR-10 | 2026-09-05 01:06:47 | 48.29237 | 13.25039 | 91° | 99km/h | 10238m | -5.2m/s | -42.3°C | 21.0% | 272.5hPa | 2.4V | 00:00:00 | 00:00:00 | 00:00:00 | |
| OE5MMP-10 | 2026-09-05 01:06:46 | 48.29237 | 13.24999 | 92° | 100km/h | 10243m | -5.0m/s | -42.3°C | 21.0% | 272.2hPa | 2.5V | 00:00:00 | 02:37:15 | 00:00:00 | |
| OE5REO-15 | 2026-09-05 01:06:40 | 48.29240 | 13.24807 | 92° | 100km/h | 10268m | -5.1m/s | -42.5°C | 17.6% | 271.3hPa | 2.5V | 07:58:00 | 00:00:00 | 00:00:00 | |
| OE5FHM-15 | 2026-09-05 01:06:38 | 48.29242 | 13.24693 | 92° | 93km/h | 10283m | -5.2m/s | -42.5°C | 20.0% | 270.6hPa | 2.5V | 00:00:00 | 02:37:07 | 00:00:00 | |
| PG1ADW-2 | 2026-09-05 01:06:37 | 48.29242 | 13.24655 | 91° | 95km/h | 10289m | -5.3m/s | -42.5°C | 19.9% | 270.4hPa | 2.5V | 00:00:00 | 00:00:00 | 00:00:00 | |
| OE5MMP-10 | 2026-09-05 01:06:36 | 48.29243 | 13.24618 | 91° | 97km/h | 10294m | -5.0m/s | -42.6°C | 19.9% | 270.2hPa | 2.4V | 00:00:00 | 02:37:05 | 00:00:00 | |
| OE3JTB-15 | 2026-09-05 01:06:34 | 48.29243 | 13.24543 | 92° | 91km/h | 10304m | -5.1m/s | 0°C | 0% | 0hPa | 2.4V | 00:00:00 | 00:00:00 | 00:00:00 | |
| DO3MHA-11 | 2026-09-05 01:06:28 | 48.29246 | 13.24321 | 91° | 93km/h | 10335m | -5.1m/s | -42.8°C | 19.2% | 268.6hPa | 2.4V | 00:00:00 | 02:36:57 | 00:00:00 | |
| OE5HKT-10 | 2026-09-05 01:06:27 | 48.29246 | 13.24285 | 91° | 84km/h | 10340m | -5.4m/s | -42.9°C | 19.1% | 268.4hPa | 2.4V | 00:00:00 | 00:00:00 | 00:00:00 | |
| OE5WHR-10 | 2026-09-05 01:06:26 | 48.29247 | 13.24249 | 91° | 91km/h | 10345m | -5.2m/s | -42.9°C | 19.0% | 268.2hPa | 2.4V | 00:00:00 | 00:00:00 | 00:00:00 | |
| OE5REO-15 | 2026-09-05 01:06:25 | 48.29247 | 13.24249 | 92° | 95km/h | 10345m | -5.2m/s | -43.0°C | 16.3% | 268.2hPa | 2.4V | 07:58:00 | 00:00:00 | 00:00:00 | |
| DO3MHA-11 | 2026-09-05 01:06:18 | 48.29245 | 13.23968 | 90° | 89km/h | 10387m | -5.3m/s | -43.1°C | 18.0% | 266.5hPa | 2.4V | 00:00:00 | 02:36:47 | 00:00:00 | |
| OE5MMP-10 | 2026-09-05 01:06:16 | 48.29245 | 13.23900 | 90° | 89km/h | 10397m | -5.2m/s | -43.2°C | 17.8% | 266.1hPa | 2.4V | 00:00:00 | 02:36:45 | 00:00:00 | |
| DG1MFX-10 | 2026-09-05 01:06:09 | 48.29245 | 13.23695 | 92° | 89km/h | 10428m | -5.1m/s | -43.3°C | 14.7% | 264.9hPa | 2.4V | 07:58:00 | 00:00:00 | 00:00:00 | |
| OE5FHM-15 | 2026-09-05 01:06:08 | 48.29245 | 13.23627 | 91° | 89km/h | 10439m | -5.2m/s | -43.3°C | 17.3% | 264.5hPa | 2.4V | 07:58:00 | 02:36:37 | 00:00:00 | |
| OE5MMP-10 | 2026-09-05 01:06:06 | 48.29246 | 13.23560 | 91° | 89km/h | 10449m | -5.0m/s | -43.4°C | 17.3% | 264.0hPa | 2.4V | 00:00:00 | 02:36:35 | 00:00:00 | |
| OE5WHR-10 | 2026-09-05 01:06:05 | 48.29246 | 13.23526 | 91° | 89km/h | 10454m | -5.3m/s | -43.4°C | 17.3% | 263.8hPa | 2.4V | 00:00:00 | 02:36:34 | 00:00:00 | |
| DL6DJ-15 | 2026-09-05 01:05:56 | 48.29253 | 13.23187 | 92° | 88km/h | 10505m | -5.4m/s | -43.8°C | 15.2% | 261.9hPa | 2.4V | 00:00:00 | 00:00:00 | 00:00:00 | |
| OE5REO-15 | 2026-09-05 01:05:53 | 48.29254 | 13.23154 | 94° | 88km/h | 10510m | -5.2m/s | -43.8°C | 15.3% | 261.6hPa | 2.4V | 07:59:00 | 00:00:00 | 00:00:00 | |
| PETON7-10 | 2026-09-05 01:05:51 | 48.29257 | 13.23054 | 93° | 88km/h | 10526m | -5.3m/s | -43.9°C | 18.3% | 261.0hPa | 2.4V | 07:58:00 | 02:36:20 | 00:00:00 | |
| OE5DRO-10 | 2026-09-05 01:05:49 | 48.29259 | 13.22987 | 93° | 88km/h | 10537m | -5.3m/s | -43.9°C | 18.5% | 260.6hPa | 2.4V | 00:00:00 | 00:00:00 | 00:00:00 | |
| DG1MFX-10 | 2026-09-05 01:05:48 | 48.29259 | 13.22987 | 94° | 89km/h | 10537m | -5.3m/s | -44.0°C | 15.8% | 260.6hPa | 2.4V | 07:59:00 | 00:00:00 | 00:00:00 | |
| OE5MMP-10 | 2026-09-05 01:05:46 | 48.29262 | 13.22887 | 93° | 88km/h | 10552m | -5.1m/s | -44.1°C | 18.9% | 260.0hPa | 2.4V | 00:00:00 | 02:36:15 | 00:00:00 | |
| OE5WHR-10 | 2026-09-05 01:05:44 | 48.29264 | 13.22820 | 93° | 88km/h | 10563m | -5.3m/s | -44.2°C | 19.2% | 259.6hPa | 2.4V | 00:00:00 | 00:00:00 | 00:00:00 | |
| OE5FHM-15 | 2026-09-05 01:05:38 | 48.29271 | 13.22621 | 93° | 86km/h | 10594m | -5.5m/s | -44.3°C | 20.0% | 258.3hPa | 2.4V | 00:00:00 | 02:36:07 | 00:00:00 | |
| PG1ADW-2 | 2026-09-05 01:05:37 | 48.29272 | 13.22588 | 94° | 88km/h | 10599m | -5.3m/s | -44.3°C | 20.1% | 258.2hPa | 2.4V | 07:58:00 | 00:00:00 | 00:00:00 | |
| OE3JTB-15 | 2026-09-05 01:05:32 | 48.29277 | 13.22423 | 93° | 86km/h | 10626m | -5.3m/s | 0°C | 0% | 0hPa | 2.5V | 00:00:00 | 00:00:00 | 00:00:00 | |
| OE5DRO-10 | 2026-09-05 01:05:30 | 48.29279 | 13.22357 | 92° | 86km/h | 10636m | -5.2m/s | -44.7°C | 21.5% | 256.8hPa | 2.5V | 00:00:00 | 00:00:00 | 00:00:00 | |
| PETON7-10 | 2026-09-05 01:05:29 | 48.29280 | 13.22324 | 92° | 88km/h | 10641m | -5.2m/s | -44.7°C | 21.5% | 256.6hPa | 2.4V | 00:00:00 | 00:00:00 | 00:00:00 | |
| DG1MFX-10 | 2026-09-05 01:05:28 | 48.29280 | 13.22324 | 93° | 88km/h | 10641m | -5.3m/s | -44.7°C | 18.5% | 256.6hPa | 2.4V | 07:59:00 | 00:00:00 | 00:00:00 | |
| S52SK | 2026-09-05 01:05:27 | 48.29280 | 13.22291 | 92° | 86km/h | 10646m | -5.2m/s | 0°C | 0% | 0hPa | 2.4V | 00:00:00 | 00:00:00 | 00:00:00 | |
| OE5MMP-10 | 2026-09-05 01:05:26 | 48.29282 | 13.22225 | 92° | 88km/h | 10657m | -5.3m/s | -44.8°C | 21.8% | 256.0hPa | 2.4V | 00:00:00 | 02:35:55 | 00:00:00 | |
| DL6DJ-15 | 2026-09-05 01:05:25 | 48.29283 | 13.22160 | 91° | 86km/h | 10667m | -5.2m/s | -45.0°C | 18.7% | 255.6hPa | 2.5V | 00:00:00 | 00:00:00 | 00:00:00 | |
| OE5WHR-10 | 2026-09-05 01:05:23 | 48.29283 | 13.22127 | 92° | 86km/h | 10673m | -5.3m/s | -45.0°C | 21.8% | 255.3hPa | 2.5V | 00:00:00 | 00:00:00 | 00:00:00 | |
| OE5REO-15 | 2026-09-05 01:05:22 | 48.29284 | 13.22127 | 93° | 88km/h | 10673m | -5.4m/s | -45.0°C | 18.7% | 255.4hPa | 2.5V | 07:59:00 | 00:00:00 | 00:00:00 | |
| S52SK | 2026-09-05 01:05:21 | 48.29284 | 13.22094 | 92° | 86km/h | 10678m | -5.3m/s | 0°C | 0% | 0hPa | 2.5V | 00:00:00 | 00:00:00 | 00:00:00 | |
| PG1ADW-2 | 2026-09-05 01:05:17 | 48.29287 | 13.21930 | 91° | 86km/h | 10704m | -5.2m/s | -45.3°C | 22.1% | 254.2hPa | 2.5V | 00:00:00 | 00:00:00 | 00:00:00 | |
| DO3MHA-11 | 2026-09-05 01:05:16 | 48.29287 | 13.21897 | 91° | 86km/h | 10709m | -5.3m/s | -45.3°C | 22.2% | 254.0hPa | 2.5V | 00:00:00 | 02:35:45 | 00:00:00 | |
| S52SK | 2026-09-05 01:05:15 | 48.29287 | 13.21897 | 91° | 86km/h | 10709m | -5.4m/s | 0°C | 0% | 0hPa | 2.5V | 00:00:00 | 00:00:00 | 00:00:00 | |
| PETON7-10 | 2026-09-05 01:05:14 | 48.29287 | 13.21831 | 90° | 86km/h | 10720m | -5.3m/s | -45.4°C | 22.3% | 253.6hPa | 2.5V | 00:00:00 | 00:00:00 | 00:00:00 | |
| OE5DRO-10 | 2026-09-05 01:05:11 | 48.29287 | 13.21733 | 90° | 86km/h | 10736m | -5.3m/s | -45.6°C | 22.2% | 253.1hPa | 2.5V | 07:59:00 | 00:00:00 | 00:00:00 | |
| S52SK | 2026-09-05 01:05:09 | 48.29287 | 13.21701 | 91° | 86km/h | 10741m | -5.4m/s | 0°C | 0% | 0hPa | 2.5V | 00:00:00 | 00:00:00 | 00:00:00 | |
| OE5FHM-15 | 2026-09-05 01:05:08 | 48.29286 | 13.21636 | 90° | 86km/h | 10752m | -5.3m/s | -45.7°C | 22.4% | 252.4hPa | 2.5V | 00:00:00 | 02:35:37 | 00:00:00 | |
| DG1MFX-10 | 2026-09-05 01:05:07 | 48.29286 | 13.21636 | 91° | 86km/h | 10752m | -5.3m/s | -45.8°C | 19.2% | 252.4hPa | 2.4V | 07:59:00 | 00:00:00 | 00:00:00 | |
| OE5MMP-10 | 2026-09-05 01:05:06 | 48.29286 | 13.21571 | 90° | 86km/h | 10762m | -5.3m/s | -45.8°C | 22.5% | 252.0hPa | 2.4V | 00:00:00 | 02:35:35 | 00:00:00 | |
| OE5WHR-10 | 2026-09-05 01:05:02 | 48.29286 | 13.21441 | 90° | 86km/h | 10783m | -5.3m/s | -45.9°C | 23.1% | 251.2hPa | 2.4V | 00:00:00 | 02:35:31 | 00:00:00 | |
| DL6DJ-15 | 2026-09-05 01:04:54 | 48.29282 | 13.21148 | 89° | 84km/h | 10831m | -5.5m/s | -46.3°C | 21.4% | 249.4hPa | 2.4V | 00:00:00 | 00:00:00 | 00:00:00 | |
| DB0UT-7 | 2026-09-05 01:04:53 | 48.29282 | 13.21148 | 90° | 84km/h | 10831m | -5.5m/s | -46.3°C | 24.8% | 249.4hPa | 2.4V | 00:00:00 | 02:35:22 | 00:00:00 | |
| OE5DRO-10 | 2026-09-05 01:04:52 | 48.29282 | 13.21115 | 90° | 86km/h | 10836m | -5.5m/s | -46.3°C | 25.0% | 249.2hPa | 2.4V | 00:00:00 | 00:00:00 | 00:00:00 | |
| DO3MHA-11 | 2026-09-05 01:04:51 | 48.29282 | 13.21083 | 90° | 86km/h | 10842m | -5.5m/s | -46.4°C | 25.4% | 249.0hPa | 2.4V | 00:00:00 | 02:35:20 | 00:00:00 | |
| OE5REO-15 | 2026-09-05 01:04:50 | 48.29282 | 13.21083 | 90° | 86km/h | 10842m | -5.6m/s | -46.4°C | 21.9% | 249.0hPa | 2.4V | 08:00:00 | 00:00:00 | 00:00:00 | |
| DG1MFX-10 | 2026-09-05 01:04:47 | 48.29281 | 13.20986 | 90° | 86km/h | 10858m | -5.4m/s | -46.6°C | 22.6% | 248.4hPa | 2.4V | 08:00:00 | 00:00:00 | 00:00:00 | |
| OE5WHR-10 | 2026-09-05 01:04:41 | 48.29280 | 13.20761 | 91° | 84km/h | 10896m | -5.5m/s | -46.7°C | 29.0% | 247.0hPa | 2.4V | 00:00:00 | 00:00:00 | 00:00:00 | |
| PETON7-10 | 2026-09-05 01:04:39 | 48.29280 | 13.20697 | 91° | 84km/h | 10907m | -5.5m/s | -46.8°C | 30.2% | 246.6hPa | 2.5V | 00:00:00 | 00:00:00 | 00:00:00 | |
| OE5FHM-15 | 2026-09-05 01:04:38 | 48.29280 | 13.20664 | 90° | 84km/h | 10912m | -5.5m/s | -46.8°C | 30.6% | 246.4hPa | 2.4V | 00:00:00 | 02:35:07 | 00:00:00 | |
| PG1ADW-2 | 2026-09-05 01:04:37 | 48.29280 | 13.20632 | 91° | 84km/h | 10918m | -5.6m/s | -46.9°C | 31.2% | 246.2hPa | 2.4V | 00:00:00 | 00:00:00 | 00:00:00 | |
| OE5MMP-10 | 2026-09-05 01:04:36 | 48.29280 | 13.20600 | 91° | 84km/h | 10923m | -5.3m/s | -46.9°C | 31.6% | 246.0hPa | 2.5V | 07:59:00 | 02:35:05 | 00:00:00 | |
| OE5REO-15 | 2026-09-05 01:04:35 | 48.29280 | 13.20600 | 91° | 86km/h | 10923m | -5.4m/s | -46.9°C | 27.7% | 246.1hPa | 2.5V | 08:00:00 | 00:00:00 | 00:00:00 | |
| OE5DRO-10 | 2026-09-05 01:04:33 | 48.29280 | 13.20503 | 91° | 84km/h | 10940m | -5.4m/s | -47.0°C | 33.3% | 245.4hPa | 2.5V | 00:00:00 | 00:00:00 | 00:00:00 | |
| DO3MHA-11 | 2026-09-05 01:04:30 | 48.29281 | 13.20408 | 91° | 84km/h | 10956m | -5.5m/s | -47.2°C | 35.4% | 244.8hPa | 2.4V | 00:00:00 | 02:34:59 | 00:00:00 | |
| OE3JTB-15 | 2026-09-05 01:04:28 | 48.29281 | 13.20344 | 91° | 84km/h | 10967m | -5.4m/s | 0°C | 0% | 0hPa | 2.4V | 00:00:00 | 02:34:57 | 00:00:00 | |
| OE5MMP-10 | 2026-09-05 01:04:26 | 48.29282 | 13.20280 | 91° | 84km/h | 10978m | -5.5m/s | -47.3°C | 38.6% | 244.0hPa | 2.4V | 00:00:00 | 02:34:55 | 00:00:00 | |
| DL6DJ-15 | 2026-09-05 01:04:23 | 48.29283 | 13.20153 | 90° | 82km/h | 10999m | -5.2m/s | -47.5°C | 37.7% | 243.3hPa | 2.5V | 00:00:00 | 00:00:00 | 00:00:00 | |
| OE5WHR-10 | 2026-09-05 01:04:20 | 48.29283 | 13.20090 | 91° | 84km/h | 11010m | -5.5m/s | -47.5°C | 43.4% | 242.8hPa | 2.5V | 00:00:00 | 00:00:00 | 00:00:00 | |
| PETON7-10 | 2026-09-05 01:04:19 | 48.29284 | 13.20058 | 92° | 84km/h | 11015m | -5.4m/s | -47.6°C | 43.5% | 242.7hPa | 2.5V | 00:00:00 | 00:00:00 | 00:00:00 | |
| DO3MHA-11 | 2026-09-05 01:04:17 | 48.29284 | 13.19994 | 92° | 84km/h | 11026m | -5.4m/s | -47.6°C | 43.7% | 242.2hPa | 2.5V | 00:00:00 | 02:34:46 | 00:00:00 | |
| OE5MMP-10 | 2026-09-05 01:04:16 | 48.29285 | 13.19962 | 91° | 84km/h | 11031m | -5.4m/s | -47.7°C | 43.9% | 242.0hPa | 2.4V | 00:00:00 | 02:34:45 | 00:00:00 | |
| OE5DRO-10 | 2026-09-05 01:04:14 | 48.29286 | 13.19899 | 92° | 84km/h | 11042m | -5.6m/s | -47.8°C | 44.3% | 241.6hPa | 2.4V | 00:00:00 | 00:00:00 | 00:00:00 | |
| OE5FHM-15 | 2026-09-05 01:04:08 | 48.29288 | 13.19709 | 91° | 84km/h | 11075m | -5.7m/s | -48.1°C | 45.7% | 240.5hPa | 2.4V | 00:00:00 | 02:34:37 | 00:00:00 | |
| DG1MFX-10 | 2026-09-05 01:04:07 | 48.29289 | 13.19677 | 92° | 84km/h | 11080m | -5.7m/s | -48.2°C | 41.0% | 240.3hPa | 2.4V | 08:01:00 | 00:00:00 | 00:00:00 | |
| OE5MMP-10 | 2026-09-05 01:04:06 | 48.29289 | 13.19645 | 92° | 84km/h | 11086m | -5.6m/s | -48.2°C | 46.1% | 240.0hPa | 2.4V | 00:00:00 | 02:34:35 | 00:00:00 | |
| PETON7-10 | 2026-09-05 01:04:04 | 48.29290 | 13.19582 | 92° | 84km/h | 11097m | -5.7m/s | -48.3°C | 46.5% | 239.6hPa | 2.4V | 00:00:00 | 02:34:33 | 00:00:00 | |
| DL6DJ-15 | 2026-09-05 01:03:51 | 48.29296 | 13.19169 | 90° | 82km/h | 11171m | -5.9m/s | -49.1°C | 43.7% | 237.0hPa | 2.4V | 00:00:00 | 00:00:00 | 00:00:00 | |
| OE3JTB-15 | 2026-09-05 01:03:49 | 48.29296 | 13.19105 | 91° | 84km/h | 11183m | -5.8m/s | 0°C | 0% | 0hPa | 2.4V | 08:00:00 | 00:00:00 | 00:00:00 | |
| PETON7-10 | 2026-09-05 01:03:47 | 48.29297 | 13.19042 | 91° | 84km/h | 11194m | -5.7m/s | -49.2°C | 49.3% | 236.1hPa | 2.4V | 00:00:00 | 00:00:00 | 00:00:00 | |
| OE5MMP-10 | 2026-09-05 01:03:46 | 48.29297 | 13.19011 | 91° | 84km/h | 11200m | -5.7m/s | -49.3°C | 49.5% | 236.0hPa | 2.5V | 00:00:00 | 02:34:15 | 00:00:00 | |
| OE5FHM-15 | 2026-09-05 01:03:38 | 48.29297 | 13.18757 | 90° | 84km/h | 11245m | -5.7m/s | -49.7°C | 50.0% | 234.4hPa | 2.5V | 00:00:00 | 02:34:07 | 00:00:00 | |
| PG1ADW-2 | 2026-09-05 01:03:37 | 48.29297 | 13.18726 | 90° | 84km/h | 11250m | -5.6m/s | -49.8°C | 50.0% | 234.1hPa | 2.5V | 08:00:00 | 02:34:06 | 00:00:00 | |
| OE5DRO-10 | 2026-09-05 01:03:36 | 48.29297 | 13.18694 | 91° | 84km/h | 11256m | -5.6m/s | -49.8°C | 50.0% | 233.9hPa | 2.4V | 00:00:00 | 00:00:00 | 00:00:00 | |
| OE5REO-15 | 2026-09-05 01:03:33 | 48.29297 | 13.18632 | 91° | 82km/h | 11268m | -5.7m/s | -50.0°C | 44.6% | 233.5hPa | 2.5V | 08:01:00 | 00:00:00 | 00:00:00 | |
| PETON7-10 | 2026-09-05 01:03:32 | 48.29297 | 13.18569 | 91° | 84km/h | 11279m | -5.7m/s | -50.0°C | 50.0% | 233.1hPa | 2.5V | 00:00:00 | 00:00:00 | 00:00:00 | |
| DO3MHA-11 | 2026-09-05 01:03:29 | 48.29297 | 13.18473 | 91° | 84km/h | 11296m | -5.6m/s | -50.2°C | 49.5% | 232.5hPa | 2.5V | 00:00:00 | 02:33:58 | 00:00:00 | |
| DK5PH-5 | 2026-09-05 01:03:27 | 48.29298 | 13.18410 | 90° | 82km/h | 11307m | -5.7m/s | -50.3°C | 49.4% | 232.1hPa | 2.5V | 00:00:00 | 02:33:56 | 00:00:00 | |
| OE5MMP-10 | 2026-09-05 01:03:26 | 48.29298 | 13.18378 | 91° | 84km/h | 11313m | -5.8m/s | -50.3°C | 49.3% | 231.9hPa | 2.5V | 00:00:00 | 02:33:55 | 00:00:00 | |
| DO3MHA-11 | 2026-09-05 01:03:19 | 48.29297 | 13.18157 | 90° | 82km/h | 11353m | -5.8m/s | -50.6°C | 48.7% | 230.4hPa | 2.4V | 00:00:00 | 02:33:48 | 00:00:00 | |
| PG1ADW-2 | 2026-09-05 01:03:17 | 48.29296 | 13.18094 | 89° | 82km/h | 11364m | -5.8m/s | -50.7°C | 48.8% | 230.1hPa | 2.4V | 00:00:00 | 00:00:00 | 00:00:00 | |
| OE5MMP-10 | 2026-09-05 01:03:16 | 48.29295 | 13.18062 | 90° | 84km/h | 11370m | -5.9m/s | -50.8°C | 48.7% | 229.8hPa | 2.4V | 00:00:00 | 02:33:45 | 00:00:00 | |
| DB0UT-7 | 2026-09-05 01:03:10 | 48.29294 | 13.17873 | 90° | 82km/h | 11405m | -5.7m/s | -51.1°C | 49.1% | 228.7hPa | 2.4V | 00:00:00 | 02:33:39 | 00:00:00 | |
| DO3MHA-11 | 2026-09-05 01:03:09 | 48.29294 | 13.17842 | 90° | 82km/h | 11410m | -5.6m/s | -51.1°C | 49.4% | 228.4hPa | 2.4V | 00:00:00 | 02:33:38 | 00:00:00 | |
| OE5FHM-15 | 2026-09-05 01:03:08 | 48.29293 | 13.17810 | 90° | 82km/h | 11416m | -5.7m/s | -51.2°C | 49.7% | 228.2hPa | 2.4V | 00:00:00 | 02:33:37 | 00:00:00 | |
| OE5MMP-10 | 2026-09-05 01:03:06 | 48.29293 | 13.17747 | 90° | 82km/h | 11428m | -5.6m/s | -51.3°C | 50.2% | 227.8hPa | 2.4V | 00:00:00 | 02:33:35 | 00:00:00 | |
| DG1MFX-10 | 2026-09-05 01:03:05 | 48.29293 | 13.17747 | 91° | 82km/h | 11428m | -5.6m/s | -51.3°C | 44.6% | 227.9hPa | 2.4V | 08:02:00 | 00:00:00 | 00:00:00 | |
| PETON7-10 | 2026-09-05 01:03:02 | 48.29292 | 13.17621 | 90° | 84km/h | 11450m | -5.7m/s | -51.5°C | 50.9% | 227.1hPa | 2.4V | 00:00:00 | 00:00:00 | 00:00:00 | |
| OE5REO-15 | 2026-09-05 01:03:01 | 48.29292 | 13.17621 | 90° | 82km/h | 11450m | -5.7m/s | -51.5°C | 45.2% | 227.1hPa | 2.4V | 08:02:00 | 00:00:00 | 00:00:00 | |
| DL6DJ-15 | 2026-09-05 01:02:49 | 48.29287 | 13.17212 | 89° | 82km/h | 11524m | -5.7m/s | -52.2°C | 49.1% | 224.5hPa | 2.4V | 00:00:00 | 00:00:00 | 00:00:00 | |
| PETON7-10 | 2026-09-05 01:02:46 | 48.29286 | 13.17117 | 89° | 82km/h | 11541m | -5.7m/s | -52.3°C | 56.1% | 223.9hPa | 2.4V | 00:00:00 | 00:00:00 | 00:00:00 | |
| DG1MFX-10 | 2026-09-05 01:02:44 | 48.29285 | 13.17086 | 89° | 82km/h | 11547m | -5.7m/s | -52.4°C | 50.3% | 223.7hPa | 2.4V | 08:02:00 | 00:00:00 | 00:00:00 | |
| DB0UT-7 | 2026-09-05 01:02:40 | 48.29282 | 13.16929 | 89° | 84km/h | 11575m | -5.6m/s | -52.6°C | 58.0% | 222.8hPa | 2.4V | 00:00:00 | 00:00:00 | 00:00:00 | |
| OE5DRO-10 | 2026-09-05 01:02:39 | 48.29282 | 13.16898 | 89° | 82km/h | 11580m | -5.5m/s | -52.7°C | 58.2% | 222.6hPa | 2.4V | 00:00:00 | 00:00:00 | 00:00:00 | |
| OE5FHM-15 | 2026-09-05 01:02:38 | 48.29281 | 13.16866 | 89° | 84km/h | 11586m | -5.5m/s | -52.7°C | 58.6% | 222.3hPa | 2.5V | 00:00:00 | 02:33:07 | 00:00:00 | |
| PG1ADW-2 | 2026-09-05 01:02:37 | 48.29280 | 13.16803 | 90° | 82km/h | 11597m | -5.5m/s | -52.8°C | 59.2% | 222.0hPa | 2.5V | 00:00:00 | 00:00:00 | 00:00:00 | |
| OE5MMP-10 | 2026-09-05 01:02:36 | 48.29280 | 13.16803 | 90° | 82km/h | 11597m | -5.5m/s | -52.8°C | 59.2% | 222.0hPa | 2.4V | 00:00:00 | 02:33:05 | 00:00:00 | |
| OE5WHR-10 | 2026-09-05 01:02:35 | 48.29280 | 13.16772 | 90° | 82km/h | 11602m | -5.5m/s | -52.9°C | 59.6% | 221.8hPa | 2.4V | 00:00:00 | 00:00:00 | 00:00:00 | |
| PETON7-10 | 2026-09-05 01:02:31 | 48.29279 | 13.16647 | 89° | 82km/h | 11624m | -5.7m/s | -53.1°C | 60.8% | 221.0hPa | 2.5V | 00:00:00 | 02:33:00 | 00:00:00 | |
| OE5REO-15 | 2026-09-05 01:02:30 | 48.29279 | 13.16647 | 90° | 82km/h | 11624m | -5.8m/s | -53.1°C | 54.2% | 221.1hPa | 2.5V | 08:02:00 | 00:00:00 | 00:00:00 | |
| DO3MHA-11 | 2026-09-05 01:02:26 | 48.29277 | 13.16489 | 89° | 82km/h | 11653m | -5.7m/s | -53.3°C | 62.5% | 220.1hPa | 2.5V | 00:00:00 | 02:32:55 | 00:00:00 | |
| DK5PH-5 | 2026-09-05 01:02:25 | 48.29276 | 13.16457 | 90° | 84km/h | 11658m | -5.7m/s | -53.4°C | 62.8% | 219.9hPa | 2.5V | 00:00:00 | 02:32:54 | 00:00:00 | |
| DG1MFX-10 | 2026-09-05 01:02:24 | 48.29276 | 13.16457 | 90° | 82km/h | 11658m | -5.7m/s | -53.4°C | 56.1% | 219.9hPa | 2.4V | 00:00:00 | 00:00:00 | 00:00:00 | |
| OE5DRO-10 | 2026-09-05 01:02:20 | 48.29275 | 13.16301 | 90° | 84km/h | 11687m | -5.8m/s | -53.7°C | 64.1% | 218.9hPa | 2.4V | 00:00:00 | 00:00:00 | 00:00:00 | |
| PG1ADW-2 | 2026-09-05 01:02:17 | 48.29274 | 13.16175 | 89° | 84km/h | 11710m | -5.8m/s | -53.9°C | 64.5% | 218.1hPa | 2.4V | 00:00:00 | 02:32:45 | 00:00:00 | |
| PETON7-10 | 2026-09-05 01:02:16 | 48.29274 | 13.16175 | 89° | 84km/h | 11710m | -5.8m/s | -53.9°C | 64.5% | 218.1hPa | 2.4V | 08:02:00 | 00:00:00 | 00:00:00 | |
| OE5REO-15 | 2026-09-05 01:02:15 | 48.29274 | 13.16175 | 90° | 84km/h | 11710m | -5.8m/s | -53.9°C | 57.5% | 218.2hPa | 2.5V | 08:02:00 | 00:00:00 | 00:00:00 | |
| OE5WHR-10 | 2026-09-05 01:02:14 | 48.29273 | 13.16112 | 90° | 84km/h | 11721m | -5.6m/s | -54.0°C | 65.0% | 217.7hPa | 2.5V | 00:00:00 | 00:00:00 | 00:00:00 | |
| DO3MHA-11 | 2026-09-05 01:02:06 | 48.29275 | 13.15858 | 91° | 84km/h | 11768m | -6.0m/s | -54.4°C | 65.2% | 216.1hPa | 2.5V | 00:00:00 | 02:32:35 | 00:00:00 | |
| DG1MFX-10 | 2026-09-05 01:02:04 | 48.29275 | 13.15826 | 92° | 84km/h | 11774m | -5.8m/s | -54.5°C | 57.8% | 216.0hPa | 2.5V | 00:00:00 | 00:00:00 | 00:00:00 | |
| OE3JTB-15 | 2026-09-05 01:02:03 | 48.29276 | 13.15762 | 91° | 99km/h | 11785m | -5.8m/s | 0°C | 0% | 0hPa | 2.5V | 00:00:00 | 00:00:00 | 00:00:00 | |
| DL6DJ-15 | 2026-09-05 01:01:47 | 48.29271 | 13.15258 | 88° | 82km/h | 11877m | -5.9m/s | -55.3°C | 54.8% | 212.5hPa | 2.5V | 00:00:00 | 00:00:00 | 00:00:00 | |
| DO3MHA-11 | 2026-09-05 01:01:46 | 48.29270 | 13.15226 | 88° | 82km/h | 11883m | -5.8m/s | -55.3°C | 61.8% | 212.2hPa | 2.5V | 00:00:00 | 02:32:15 | 00:00:00 | |
| OE5REO-15 | 2026-09-05 01:01:44 | 48.29269 | 13.15195 | 89° | 84km/h | 11889m | -5.8m/s | -55.4°C | 54.5% | 212.1hPa | 2.4V | 08:02:00 | 00:00:00 | 00:00:00 | |
| S52SK | 2026-09-05 01:01:43 | 48.29269 | 13.15163 | 89° | 82km/h | 11895m | -5.8m/s | 0°C | 0% | 0hPa | 2.4V | 00:00:00 | 00:00:00 | 00:00:00 | |
| OE5DRO-10 | 2026-09-05 01:01:42 | 48.29268 | 13.15100 | 89° | 84km/h | 11906m | -5.7m/s | -55.5°C | 61.3% | 211.5hPa | 2.4V | 08:02:00 | 00:00:00 | 00:00:00 | |
| OE5FHM-15 | 2026-09-05 01:01:38 | 48.29266 | 13.14974 | 89° | 84km/h | 11929m | -5.9m/s | -55.7°C | 60.7% | 210.7hPa | 2.4V | 00:00:00 | 02:32:07 | 00:00:00 | |
| PG1ADW-2 | 2026-09-05 01:01:37 | 48.29265 | 13.14942 | 89° | 84km/h | 11935m | -6.0m/s | -55.7°C | 60.6% | 210.5hPa | 2.4V | 00:00:00 | 00:00:00 | 00:00:00 | |
| DO3MHA-11 | 2026-09-05 01:01:36 | 48.29265 | 13.14911 | 89° | 84km/h | 11941m | -5.7m/s | -55.8°C | 60.5% | 210.3hPa | 2.4V | 00:00:00 | 02:32:05 | 00:00:00 | |
| OE5WHR-10 | 2026-09-05 01:01:32 | 48.29263 | 13.14784 | 90° | 84km/h | 11965m | -5.8m/s | -56.0°C | 60.4% | 209.6hPa | 2.4V | 00:00:00 | 00:00:00 | 00:00:00 | |
| PETON7-10 | 2026-09-05 01:01:31 | 48.29263 | 13.14753 | 89° | 84km/h | 11970m | -6.2m/s | -56.0°C | 60.3% | 209.3hPa | 2.4V | 00:00:00 | 00:00:00 | 00:00:00 | |
| DB0UT-7 | 2026-09-05 01:01:28 | 48.29262 | 13.14658 | 90° | 84km/h | 11988m | -5.7m/s | -56.2°C | 60.3% | 208.8hPa | 2.4V | 00:00:00 | 02:31:57 | 00:00:00 | |
| OE5MMP-10 | 2026-09-05 01:01:26 | 48.29261 | 13.14594 | 90° | 84km/h | 12000m | -6.2m/s | -56.3°C | 60.2% | 208.3hPa | 2.4V | 00:00:00 | 02:31:55 | 00:00:00 | |
| DK5PH-5 | 2026-09-05 01:01:25 | 48.29261 | 13.14562 | 89° | 84km/h | 12006m | -6.0m/s | -56.4°C | 60.2% | 208.2hPa | 2.4V | 00:00:00 | 02:31:54 | 00:00:00 | |
| OE5DRO-10 | 2026-09-05 01:01:23 | 48.29260 | 13.14498 | 89° | 84km/h | 12018m | -6.1m/s | -56.5°C | 60.0% | 207.8hPa | 2.4V | 00:00:00 | 00:00:00 | 00:00:00 | |
| PG1ADW-2 | 2026-09-05 01:01:17 | 48.29258 | 13.14306 | 90° | 84km/h | 12055m | -6.2m/s | -56.8°C | 59.2% | 206.6hPa | 2.4V | 00:00:00 | 00:00:00 | 00:00:00 | |
| PETON7-10 | 2026-09-05 01:01:16 | 48.29258 | 13.14273 | 91° | 84km/h | 12061m | -6.3m/s | -56.9°C | 59.0% | 206.4hPa | 2.4V | 00:00:00 | 00:00:00 | 00:00:00 | |
| OE5REO-15 | 2026-09-05 01:01:13 | 48.29259 | 13.14209 | 92° | 84km/h | 12074m | -6.1m/s | -57.0°C | 51.3% | 206.1hPa | 2.4V | 08:03:00 | 00:00:00 | 00:00:00 | |
| OE5WHR-10 | 2026-09-05 01:01:11 | 48.29259 | 13.14112 | 90° | 84km/h | 12093m | -6.2m/s | -57.1°C | 58.2% | 205.4hPa | 2.4V | 00:00:00 | 00:00:00 | 00:00:00 | |
| OE5FHM-15 | 2026-09-05 01:01:08 | 48.29258 | 13.14017 | 90° | 84km/h | 12112m | -6.3m/s | -57.3°C | 57.5% | 204.8hPa | 2.4V | 00:00:00 | 02:31:37 | 00:00:00 | |
| DO3MHA-11 | 2026-09-05 01:01:06 | 48.29257 | 13.13953 | 89° | 84km/h | 12124m | -6.3m/s | -57.4°C | 57.1% | 204.4hPa | 2.4V | 00:00:00 | 02:31:35 | 00:00:00 | |
| OE5DRO-10 | 2026-09-05 01:01:04 | 48.29255 | 13.13889 | 88° | 84km/h | 12137m | -6.2m/s | -57.6°C | 56.4% | 204.0hPa | 2.4V | 00:00:00 | 00:00:00 | 00:00:00 | |
| PETON7-10 | 2026-09-05 01:01:01 | 48.29252 | 13.13793 | 87° | 84km/h | 12155m | -6.0m/s | -57.7°C | 55.7% | 203.4hPa | 2.4V | 00:00:00 | 02:31:30 | 00:00:00 | |
| DB0UT-7 | 2026-09-05 01:00:58 | 48.29248 | 13.13697 | 88° | 104km/h | 12173m | -6.1m/s | -57.9°C | 55.2% | 202.8hPa | 2.4V | 00:00:00 | 00:00:00 | 00:00:00 | |
| PG1ADW-2 | 2026-09-05 01:00:57 | 48.29247 | 13.13665 | 87° | 84km/h | 12180m | -6.4m/s | -57.9°C | 54.9% | 202.6hPa | 2.4V | 00:00:00 | 02:31:26 | 00:00:00 | |
| OE5MMP-10 | 2026-09-05 01:00:56 | 48.29246 | 13.13633 | 88° | 84km/h | 12186m | -6.1m/s | -57.9°C | 54.7% | 202.4hPa | 2.4V | 08:03:00 | 02:31:25 | 00:00:00 | |
| DK5PH-5 | 2026-09-05 01:00:55 | 48.29245 | 13.13601 | 87° | 86km/h | 12192m | -6.4m/s | -58.0°C | 54.6% | 202.2hPa | 2.5V | 08:03:00 | 02:31:24 | 00:00:00 | |
| DO3MHA-11 | 2026-09-05 01:00:53 | 48.29243 | 13.13538 | 88° | 78km/h | 12204m | -6.4m/s | -58.0°C | 53.6% | 201.8hPa | 2.4V | 00:00:00 | 02:31:22 | 00:00:00 | |
| OE5WHR-10 | 2026-09-05 01:00:50 | 48.29239 | 13.13443 | 87° | 86km/h | 12223m | -6.2m/s | -58.1°C | 51.9% | 201.2hPa | 2.4V | 00:00:00 | 02:31:19 | 00:00:00 | |
| PETON7-10 | 2026-09-05 01:00:47 | 48.29232 | 13.13315 | 85° | 86km/h | 12248m | -6.0m/s | -58.2°C | 49.7% | 200.4hPa | 2.4V | 00:00:00 | 00:00:00 | 00:00:00 | |
| OE5DRO-10 | 2026-09-05 01:00:46 | 48.29230 | 13.13282 | 85° | 86km/h | 12254m | -6.2m/s | -58.2°C | 49.3% | 200.2hPa | 2.4V | 00:00:00 | 00:00:00 | 00:00:00 | |
| OE5REO-15 | 2026-09-05 01:00:41 | 48.29225 | 13.13185 | 86° | 86km/h | 12273m | -6.2m/s | -58.4°C | 40.9% | 199.7hPa | 2.5V | 08:04:00 | 00:00:00 | 00:00:00 | |
| OE5FHM-15 | 2026-09-05 01:00:38 | 48.29217 | 13.13056 | 85° | 91km/h | 12298m | -6.1m/s | -58.5°C | 46.2% | 198.9hPa | 2.5V | 00:00:00 | 02:31:07 | 00:00:00 | |
| PG1ADW-2 | 2026-09-05 01:00:37 | 48.29215 | 13.13023 | 85° | 89km/h | 12304m | -6.3m/s | -58.6°C | 45.9% | 198.6hPa | 2.5V | 08:03:00 | 00:00:00 | 00:00:00 | |
| OE5MMP-10 | 2026-09-05 01:00:36 | 48.29213 | 13.12990 | 85° | 88km/h | 12310m | -6.4m/s | -58.6°C | 45.7% | 198.5hPa | 2.4V | 00:00:00 | 02:31:05 | 00:00:00 | |
| PETON7-10 | 2026-09-05 01:00:31 | 48.29201 | 13.12827 | 84° | 91km/h | 12342m | -6.2m/s | -58.7°C | 43.7% | 197.5hPa | 2.4V | 00:00:00 | 00:00:00 | 00:00:00 | |
| OE5WHR-10 | 2026-09-05 01:00:29 | 48.29196 | 13.12761 | 85° | 93km/h | 12354m | -6.4m/s | -58.8°C | 43.3% | 197.1hPa | 2.4V | 08:04:00 | 00:00:00 | 00:00:00 | |
| OE5DXL-15 | 2026-09-05 01:00:26 | 48.29189 | 13.12661 | 84° | 95km/h | 12373m | -6.3m/s | -59.0°C | 42.2% | 196.4hPa | 2.4V | 00:00:00 | 00:00:00 | 00:00:00 | |
| DK5PH-5 | 2026-09-05 01:00:25 | 48.29187 | 13.12627 | 85° | 97km/h | 12380m | -6.2m/s | -59.0°C | 41.8% | 196.3hPa | 2.4V | 00:00:00 | 02:30:54 | 00:00:00 | |
| PG1ADW-2 | 2026-09-05 01:00:18 | 48.29170 | 13.12342 | 86° | 97km/h | 12431m | -6.2m/s | -59.5°C | 38.2% | 194.6hPa | 2.4V | 00:00:00 | 00:00:00 | 00:00:00 | |
| OE5MMP-10 | 2026-09-05 01:00:17 | 48.29168 | 13.12306 | 86° | 97km/h | 12437m | -6.7m/s | -59.5°C | 37.8% | 194.5hPa | 2.4V | 00:00:00 | 02:30:45 | 00:00:00 | |
| DL6DJ-15 | 2026-09-05 01:00:14 | 48.29163 | 13.12234 | 84° | 95km/h | 12450m | -6.3m/s | -59.6°C | 30.6% | 194.1hPa | 2.4V | 00:00:00 | 00:00:00 | 00:00:00 | |
| S52SK | 2026-09-05 01:00:13 | 48.29163 | 13.12234 | 85° | 95km/h | 12450m | -6.3m/s | 0°C | 0% | 0hPa | 2.4V | 00:00:00 | 00:00:00 | 00:00:00 | |
| OE5REO-15 | 2026-09-05 01:00:11 | 48.29158 | 13.12161 | 85° | 95km/h | 12462m | -6.3m/s | -59.6°C | 30.0% | 193.7hPa | 2.4V | 08:04:00 | 00:00:00 | 00:00:00 | |
| OE5WHR-10 | 2026-09-05 01:00:08 | 48.29149 | 13.12016 | 86° | 99km/h | 12487m | -6.3m/s | -59.3°C | 34.5% | 192.9hPa | 2.4V | 00:00:00 | 00:00:00 | 00:00:00 | |
| OE5DRO-10 | 2026-09-05 01:00:07 | 48.29147 | 13.11980 | 86° | 99km/h | 12493m | -6.1m/s | -59.3°C | 34.0% | 192.7hPa | 2.4V | 00:00:00 | 00:00:00 | 00:00:00 | |
| OE5MMP-10 | 2026-09-05 01:00:06 | 48.29145 | 13.11942 | 86° | 97km/h | 12500m | -6.3m/s | -59.2°C | 33.5% | 192.5hPa | 2.4V | 00:00:00 | 02:30:35 | 00:00:00 | |
| PETON7-10 | 2026-09-05 01:00:01 | 48.29138 | 13.11758 | 87° | 100km/h | 12531m | -6.5m/s | -59.1°C | 32.1% | 191.5hPa | 2.4V | 08:04:00 | 00:00:00 | 00:00:00 | |
| PG1ADW-2 | 2026-09-05 00:59:57 | 48.29133 | 13.11612 | 87° | 102km/h | 12557m | -6.6m/s | -59.2°C | 31.9% | 190.7hPa | 2.4V | 00:00:00 | 00:00:00 | 00:00:00 | |
| OE5MMP-10 | 2026-09-05 00:59:56 | 48.29132 | 13.11574 | 88° | 100km/h | 12564m | -6.3m/s | -59.2°C | 31.8% | 190.6hPa | 2.4V | 00:00:00 | 02:30:25 | 00:00:00 | |
| DK5PH-5 | 2026-09-05 00:59:55 | 48.29130 | 13.11537 | 86° | 104km/h | 12570m | -6.4m/s | -59.2°C | 31.5% | 190.4hPa | 2.4V | 00:00:00 | 02:30:24 | 00:00:00 | |
| OE5DRO-10 | 2026-09-05 00:59:48 | 48.29120 | 13.11268 | 88° | 104km/h | 12615m | -6.4m/s | -59.3°C | 29.7% | 189.0hPa | 2.4V | 00:00:00 | 00:00:00 | 00:00:00 | |
| OE5WHR-10 | 2026-09-05 00:59:47 | 48.29119 | 13.11229 | 88° | 104km/h | 12621m | -6.5m/s | -59.4°C | 29.5% | 188.8hPa | 2.4V | 00:00:00 | 02:30:16 | 00:00:00 | |
| PETON7-10 | 2026-09-05 00:59:46 | 48.29118 | 13.11190 | 89° | 104km/h | 12628m | -6.4m/s | -59.4°C | 29.4% | 188.6hPa | 2.4V | 00:00:00 | 00:00:00 | 00:00:00 | |
| DL6DJ-15 | 2026-09-05 00:59:43 | 48.29115 | 13.11073 | 87° | 102km/h | 12647m | -6.6m/s | -59.5°C | 23.2% | 188.1hPa | 2.4V | 00:00:00 | 00:00:00 | 00:00:00 | |
| OE5REO-15 | 2026-09-05 00:59:40 | 48.29112 | 13.10995 | 88° | 104km/h | 12660m | -6.5m/s | -59.5°C | 22.9% | 187.7hPa | 2.4V | 08:05:00 | 00:00:00 | 00:00:00 | |
| OE5FHM-15 | 2026-09-05 00:59:38 | 48.29108 | 13.10875 | 87° | 104km/h | 12679m | -6.4m/s | -59.4°C | 28.4% | 187.0hPa | 2.4V | 00:00:00 | 02:30:07 | 00:00:00 | |
| PG1ADW-2 | 2026-09-05 00:59:37 | 48.29106 | 13.10835 | 87° | 104km/h | 12685m | -6.5m/s | -59.5°C | 28.2% | 186.9hPa | 2.4V | 00:00:00 | 02:30:06 | 00:00:00 | |
| OE5MMP-10 | 2026-09-05 00:59:36 | 48.29104 | 13.10795 | 87° | 104km/h | 12692m | -6.4m/s | -59.5°C | 28.2% | 186.7hPa | 2.4V | 00:00:00 | 02:30:05 | 00:00:00 | |
| DG1MFX-10 | 2026-09-05 00:59:35 | 48.29104 | 13.10795 | 87° | 108km/h | 12692m | -6.5m/s | -59.5°C | 22.4% | 186.7hPa | 2.4V | 08:05:00 | 00:00:00 | 00:00:00 | |
| PETON7-10 | 2026-09-05 00:59:31 | 48.29097 | 13.10595 | 88° | 104km/h | 12725m | -6.6m/s | -59.7°C | 28.1% | 185.7hPa | 2.4V | 00:00:00 | 02:30:00 | 00:00:00 | |
| OE5DRO-10 | 2026-09-05 00:59:29 | 48.29095 | 13.10517 | 89° | 102km/h | 12738m | -6.8m/s | -59.8°C | 28.2% | 185.3hPa | 2.4V | 00:00:00 | 00:00:00 | 00:00:00 | |
| OE5WHR-10 | 2026-09-05 00:59:26 | 48.29092 | 13.10399 | 88° | 102km/h | 12759m | -6.8m/s | -60.0°C | 28.2% | 184.7hPa | 2.4V | 00:00:00 | 00:00:00 | 00:00:00 | |
| DK5PH-5 | 2026-09-05 00:59:25 | 48.29092 | 13.10360 | 89° | 102km/h | 12765m | -7.0m/s | -60.1°C | 28.1% | 184.5hPa | 2.4V | 00:00:00 | 02:29:54 | 00:00:00 | |
| OE5REO-15 | 2026-09-05 00:59:24 | 48.29092 | 13.10360 | 90° | 104km/h | 12765m | -7.0m/s | -60.1°C | 22.1% | 184.5hPa | 2.4V | 08:05:00 | 00:00:00 | 00:00:00 | |
| PG1ADW-2 | 2026-09-05 00:59:17 | 48.29082 | 13.10047 | 86° | 100km/h | 12821m | -7.2m/s | -60.4°C | 27.3% | 182.8hPa | 2.4V | 00:00:00 | 00:00:00 | 00:00:00 | |
| DG1MFX-10 | 2026-09-05 00:59:16 | 48.29079 | 13.10010 | 86° | 100km/h | 12829m | -7.3m/s | -60.5°C | 21.3% | 182.7hPa | 2.4V | 08:05:00 | 00:00:00 | 00:00:00 | |
| DL6DJ-15 | 2026-09-05 00:59:12 | 48.29069 | 13.09857 | 84° | 100km/h | 12856m | -6.7m/s | -60.6°C | 20.6% | 181.9hPa | 2.4V | 00:00:00 | 00:00:00 | 00:00:00 | |
| OE5DRO-10 | 2026-09-05 00:59:10 | 48.29063 | 13.09780 | 85° | 100km/h | 12870m | -7.1m/s | -60.6°C | 26.2% | 181.4hPa | 2.4V | 00:00:00 | 00:00:00 | 00:00:00 | |
| OE5FHM-15 | 2026-09-05 00:59:08 | 48.29058 | 13.09704 | 84° | 102km/h | 12884m | -7.2m/s | -60.6°C | 26.1% | 181.0hPa | 2.4V | 00:00:00 | 02:29:37 | 00:00:00 | |
| OE5MMP-10 | 2026-09-05 00:59:06 | 48.29052 | 13.09628 | 83° | 100km/h | 12897m | -6.8m/s | -60.4°C | 25.4% | 180.6hPa | 2.4V | 00:00:00 | 02:29:35 | 00:00:00 | |
| OE5WHR-10 | 2026-09-05 00:59:05 | 48.29048 | 13.09590 | 82° | 100km/h | 12904m | -7.1m/s | -60.3°C | 25.1% | 180.4hPa | 2.4V | 00:00:00 | 00:00:00 | 00:00:00 | |
| PETON7-10 | 2026-09-05 00:59:01 | 48.29034 | 13.09440 | 82° | 100km/h | 12932m | -6.8m/s | -60.5°C | 24.7% | 179.6hPa | 2.4V | 00:00:00 | 00:00:00 | 00:00:00 | |
| PG1ADW-2 | 2026-09-05 00:58:58 | 48.29019 | 13.09287 | 82° | 102km/h | 12960m | -6.8m/s | -60.8°C | 24.6% | 178.9hPa | 2.4V | 00:00:00 | 00:00:00 | 00:00:00 | |
| OE5DXL-15 | 2026-09-05 00:58:57 | 48.29015 | 13.09249 | 82° | 104km/h | 12966m | -6.8m/s | -60.8°C | 24.6% | 178.7hPa | 2.4V | 00:00:00 | 00:00:00 | 00:00:00 | |
| DK5PH-5 | 2026-09-05 00:58:56 | 48.29012 | 13.09212 | 82° | 104km/h | 12973m | -6.7m/s | -60.9°C | 24.5% | 178.5hPa | 2.4V | 00:00:00 | 02:29:24 | 00:00:00 | |
| DG1MFX-10 | 2026-09-05 00:58:55 | 48.29012 | 13.09212 | 83° | 100km/h | 12973m | -6.8m/s | -60.9°C | 18.8% | 178.5hPa | 2.4V | 08:06:00 | 00:00:00 | 00:00:00 | |
| OE5REO-15 | 2026-09-05 00:58:52 | 48.29004 | 13.09136 | 82° | 100km/h | 12987m | -6.6m/s | -61.1°C | 18.5% | 178.1hPa | 2.4V | 08:06:00 | 00:00:00 | 00:00:00 | |
| OE5DRO-10 | 2026-09-05 00:58:51 | 48.28996 | 13.09060 | 81° | 104km/h | 13000m | -6.6m/s | -61.2°C | 24.1% | 177.7hPa | 2.4V | 08:05:00 | 00:00:00 | 00:00:00 | |
| PETON7-10 | 2026-09-05 00:58:46 | 48.28976 | 13.08871 | 81° | 104km/h | 13034m | -6.7m/s | -61.4°C | 23.6% | 176.7hPa | 2.4V | 00:00:00 | 02:29:15 | 00:00:00 | |
| OE5WHR-10 | 2026-09-05 00:58:44 | 48.28968 | 13.08794 | 81° | 106km/h | 13048m | -6.7m/s | -61.6°C | 23.4% | 176.3hPa | 2.4V | 00:00:00 | 02:29:13 | 00:00:00 | |
| DL6DJ-15 | 2026-09-05 00:58:41 | 48.28955 | 13.08678 | 80° | 102km/h | 13068m | -6.8m/s | -61.8°C | 17.1% | 175.8hPa | 2.4V | 00:00:00 | 00:00:00 | 00:00:00 | |
| OE5FHM-15 | 2026-09-05 00:58:38 | 48.28940 | 13.08562 | 79° | 110km/h | 13088m | -6.9m/s | -61.8°C | 22.6% | 175.2hPa | 2.4V | 00:00:00 | 02:29:07 | 00:00:00 | |
| PG1ADW-2 | 2026-09-05 00:58:37 | 48.28935 | 13.08523 | 80° | 108km/h | 13095m | -6.7m/s | -61.8°C | 22.5% | 175.0hPa | 2.4V | 00:00:00 | 00:00:00 | 00:00:00 | |
| OE5MMP-10 | 2026-09-05 00:58:36 | 48.28930 | 13.08484 | 79° | 108km/h | 13102m | -6.8m/s | -61.8°C | 22.2% | 174.8hPa | 2.4V | 00:00:00 | 02:29:05 | 00:00:00 | |
| DG1MFX-10 | 2026-09-05 00:58:34 | 48.28919 | 13.08405 | 80° | 106km/h | 13116m | -7.0m/s | -61.7°C | 15.9% | 174.4hPa | 2.4V | 08:06:00 | 00:00:00 | 00:00:00 | |
| OE5DRO-10 | 2026-09-05 00:58:32 | 48.28909 | 13.08326 | 80° | 110km/h | 13130m | -7.1m/s | -61.7°C | 21.1% | 174.0hPa | 2.4V | 00:00:00 | 00:00:00 | 00:00:00 | |
| PETON7-10 | 2026-09-05 00:58:31 | 48.28904 | 13.08286 | 80° | 110km/h | 13137m | -6.8m/s | -61.7°C | 20.9% | 173.9hPa | 2.4V | 00:00:00 | 00:00:00 | 00:00:00 | |
| S52SK | 2026-09-05 00:58:28 | 48.28894 | 13.08205 | 81° | 108km/h | 13150m | -7.0m/s | 0°C | 0% | 0hPa | 2.4V | 00:00:00 | 00:00:00 | 00:00:00 | |
| OE5MMP-10 | 2026-09-05 00:58:26 | 48.28880 | 13.08083 | 80° | 110km/h | 13171m | -6.8m/s | -61.8°C | 20.3% | 172.9hPa | 2.4V | 00:00:00 | 02:28:55 | 00:00:00 | |
| DK5PH-5 | 2026-09-05 00:58:25 | 48.28875 | 13.08042 | 80° | 110km/h | 13178m | -6.6m/s | -61.9°C | 20.2% | 172.7hPa | 2.4V | 00:00:00 | 02:28:54 | 00:00:00 | |
| OE5WHR-10 | 2026-09-05 00:58:23 | 48.28864 | 13.07961 | 79° | 111km/h | 13191m | -6.8m/s | -62.0°C | 20.1% | 172.3hPa | 2.4V | 00:00:00 | 00:00:00 | 00:00:00 | |
| OE5REO-15 | 2026-09-05 00:58:20 | 48.28853 | 13.07880 | 80° | 110km/h | 13205m | -7.0m/s | -62.1°C | 14.5% | 172.0hPa | 2.4V | 08:06:00 | 00:00:00 | 00:00:00 | |
| PG1ADW-2 | 2026-09-05 00:58:17 | 48.28833 | 13.07715 | 81° | 111km/h | 13233m | -6.9m/s | -62.3°C | 20.0% | 171.1hPa | 2.4V | 00:00:00 | 02:28:46 | 00:00:00 | |
| OE5MMP-10 | 2026-09-05 00:58:16 | 48.28829 | 13.07673 | 82° | 111km/h | 13239m | -6.7m/s | -62.3°C | 19.9% | 170.9hPa | 2.4V | 00:00:00 | 02:28:45 | 00:00:00 | |
| OE5DRO-10 | 2026-09-05 00:58:13 | 48.28818 | 13.07546 | 83° | 110km/h | 13260m | -7.0m/s | -62.4°C | 19.4% | 170.4hPa | 2.4V | 00:00:00 | 00:00:00 | 00:00:00 | |
| BAUMI2-15 | 2026-09-05 00:58:11 | 48.28810 | 13.07462 | 83° | 110km/h | 13273m | -6.9m/s | -62.4°C | 19.2% | 170.0hPa | 2.4V | 00:00:00 | 02:28:40 | 00:00:00 | |
| DL6DJ-15 | 2026-09-05 00:58:10 | 48.28804 | 13.07378 | 83° | 110km/h | 13287m | -6.8m/s | -62.5°C | 13.4% | 169.7hPa | 2.4V | 00:00:00 | 00:00:00 | 00:00:00 | |
| OE5FHM-15 | 2026-09-05 00:58:08 | 48.28801 | 13.07336 | 84° | 110km/h | 13294m | -6.9m/s | -62.5°C | 18.8% | 169.4hPa | 2.4V | 00:00:00 | 02:28:37 | 00:00:00 | |
| OE5MMP-10 | 2026-09-05 00:58:06 | 48.28794 | 13.07253 | 85° | 108km/h | 13308m | -7.1m/s | -62.5°C | 18.6% | 169.0hPa | 2.4V | 00:00:00 | 02:28:35 | 00:00:00 | |
| OE5REO-15 | 2026-09-05 00:58:05 | 48.28794 | 13.07253 | 85° | 110km/h | 13308m | -7.2m/s | -62.5°C | 13.0% | 169.1hPa | 2.4V | 08:07:00 | 00:00:00 | 00:00:00 | |
| OE5WHR-10 | 2026-09-05 00:58:02 | 48.28785 | 13.07087 | 87° | 108km/h | 13335m | -6.8m/s | -62.1°C | 17.3% | 168.3hPa | 2.4V | 00:00:00 | 00:00:00 | 00:00:00 | |
| PETON7-10 | 2026-09-05 00:58:01 | 48.28784 | 13.07046 | 88° | 80km/h | 13342m | -6.6m/s | -62.0°C | 17.1% | 168.1hPa | 2.4V | 00:00:00 | 02:28:30 | 00:00:00 | |
| PG1ADW-2 | 2026-09-05 00:57:57 | 48.28778 | 13.06884 | 88° | 110km/h | 13369m | -6.7m/s | -62.0°C | 17.0% | 167.5hPa | 2.4V | 00:00:00 | 00:00:00 | 00:00:00 | |
| OE5MMP-10 | 2026-09-05 00:57:56 | 48.28777 | 13.06843 | 87° | 110km/h | 13376m | -6.6m/s | -62.0°C | 17.0% | 167.2hPa | 2.4V | 08:06:00 | 02:28:25 | 00:00:00 | |
| DK5PH-5 | 2026-09-05 00:57:55 | 48.28775 | 13.06802 | 88° | 110km/h | 13382m | -6.7m/s | -61.9°C | 16.9% | 167.0hPa | 2.5V | 00:00:00 | 02:28:24 | 00:00:00 | |
| OE5DRO-10 | 2026-09-05 00:57:54 | 48.28774 | 13.06761 | 87° | 110km/h | 13389m | -6.5m/s | -61.9°C | 16.7% | 166.9hPa | 2.5V | 00:00:00 | 00:00:00 | 00:00:00 | |
| BAUMI2-15 | 2026-09-05 00:57:53 | 48.28772 | 13.06720 | 87° | 111km/h | 13396m | -6.8m/s | -62.0°C | 16.7% | 166.6hPa | 2.5V | 00:00:00 | 02:28:22 | 00:00:00 | |
| DG1MFX-10 | 2026-09-05 00:57:52 | 48.28772 | 13.06720 | 87° | 110km/h | 13396m | -6.9m/s | -62.0°C | 11.5% | 166.7hPa | 2.5V | 08:07:00 | 00:00:00 | 00:00:00 | |
| OE5REO-15 | 2026-09-05 00:57:49 | 48.28766 | 13.06595 | 86° | 111km/h | 13416m | -6.8m/s | -62.2°C | 11.3% | 166.3hPa | 2.5V | 08:07:00 | 00:00:00 | 00:00:00 | |
| BAUMI2-15 | 2026-09-05 00:57:48 | 48.28762 | 13.06511 | 87° | 110km/h | 13430m | -6.8m/s | -62.1°C | 16.5% | 165.8hPa | 2.5V | 00:00:00 | 02:28:17 | 00:00:00 | |
| OE5MMP-10 | 2026-09-05 00:57:46 | 48.28759 | 13.06428 | 87° | 108km/h | 13443m | -6.7m/s | -62.2°C | 16.4% | 165.5hPa | 2.5V | 00:00:00 | 02:28:15 | 00:00:00 | |
| OE3JTB-15 | 2026-09-05 00:57:42 | 48.28752 | 13.06266 | 86° | 104km/h | 13470m | -6.7m/s | 0°C | 0% | 0hPa | 2.5V | 00:00:00 | 00:00:00 | 00:00:00 | |
| OE5WHR-10 | 2026-09-05 00:57:41 | 48.28749 | 13.06225 | 86° | 108km/h | 13477m | -6.6m/s | -61.7°C | 15.1% | 164.5hPa | 2.5V | 00:00:00 | 02:28:10 | 00:00:00 | |
| OE5FHM-15 | 2026-09-05 00:57:38 | 48.28742 | 13.06102 | 84° | 106km/h | 13497m | -6.7m/s | -61.7°C | 14.8% | 164.0hPa | 2.5V | 08:06:00 | 02:28:07 | 00:00:00 | |
| PG1ADW-2 | 2026-09-05 00:57:37 | 48.28738 | 13.06061 | 84° | 108km/h | 13503m | -6.5m/s | -61.7°C | 14.8% | 163.8hPa | 2.5V | 08:06:00 | 00:00:00 | 00:00:00 | |
| OE5MMP-10 | 2026-09-05 00:57:36 | 48.28735 | 13.06019 | 84° | 110km/h | 13510m | -6.9m/s | -61.7°C | 14.7% | 163.6hPa | 2.5V | 00:00:00 | 02:28:05 | 00:00:00 | |
| OE5DRO-10 | 2026-09-05 00:57:35 | 48.28732 | 13.05978 | 83° | 108km/h | 13517m | -6.6m/s | -61.7°C | 14.5% | 163.4hPa | 2.5V | 00:00:00 | 00:00:00 | 00:00:00 | |
| OE5REO-15 | 2026-09-05 00:57:34 | 48.28732 | 13.05978 | 83° | 111km/h | 13517m | -6.6m/s | -61.8°C | 9.6% | 163.5hPa | 2.5V | 08:07:00 | 00:00:00 | 00:00:00 | |
| BAUMI2-15 | 2026-09-05 00:57:33 | 48.28725 | 13.05895 | 83° | 108km/h | 13530m | -6.7m/s | -61.7°C | 14.3% | 163.1hPa | 2.5V | 00:00:00 | 02:28:02 | 00:00:00 | |
| DG1MFX-10 | 2026-09-05 00:57:32 | 48.28725 | 13.05895 | 83° | 110km/h | 13530m | -6.8m/s | -61.8°C | 9.5% | 163.2hPa | 2.5V | 08:07:00 | 00:00:00 | 00:00:00 | |
| BAUMI2-15 | 2026-09-05 00:57:27 | 48.28704 | 13.05651 | 83° | 108km/h | 13570m | -6.7m/s | -61.5°C | 13.6% | 162.0hPa | 2.5V | 00:00:00 | 02:27:56 | 00:00:00 | |
| OE5MMP-10 | 2026-09-05 00:57:26 | 48.28701 | 13.05611 | 84° | 106km/h | 13576m | -6.4m/s | -61.5°C | 13.5% | 161.9hPa | 2.5V | 00:00:00 | 02:27:55 | 00:00:00 | |
| DK5PH-5 | 2026-09-05 00:57:25 | 48.28697 | 13.05570 | 83° | 102km/h | 13583m | -6.5m/s | -61.5°C | 13.4% | 161.7hPa | 2.5V | 00:00:00 | 02:27:54 | 00:00:00 | |
| BAUMI2-15 | 2026-09-05 00:57:22 | 48.28687 | 13.05449 | 83° | 106km/h | 13603m | -6.8m/s | -61.3°C | 12.9% | 161.2hPa | 2.5V | 08:07:00 | 02:27:51 | 00:00:00 | |
| OE5WHR-10 | 2026-09-05 00:57:20 | 48.28679 | 13.05370 | 82° | 102km/h | 13617m | -6.7m/s | -61.3°C | 12.6% | 160.8hPa | 2.4V | 08:07:00 | 00:00:00 | 00:00:00 | |
| OE5REO-15 | 2026-09-05 00:57:19 | 48.28679 | 13.05370 | 82° | 106km/h | 13617m | -6.7m/s | -61.4°C | 8.1% | 160.9hPa | 2.4V | 08:07:00 | 00:00:00 | 00:00:00 | |
| OE5MMP-10 | 2026-09-05 00:57:17 | 48.28664 | 13.05213 | 82° | 102km/h | 13643m | -6.6m/s | -61.5°C | 12.3% | 160.1hPa | 2.4V | 00:00:00 | 02:27:45 | 00:00:00 | |
| BAUMI2-15 | 2026-09-05 00:57:11 | 48.28645 | 13.05021 | 83° | 102km/h | 13677m | -6.7m/s | -61.7°C | 12.2% | 159.2hPa | 2.4V | 00:00:00 | 02:27:40 | 00:00:00 | |
| BAUMI2-15 | 2026-09-05 00:57:06 | 48.28629 | 13.04828 | 83° | 100km/h | 13710m | -6.6m/s | -61.9°C | 12.2% | 158.4hPa | 2.4V | 00:00:00 | 02:27:35 | 00:00:00 | |
| DF7PN | 2026-09-05 00:57:03 | 48.28613 | 13.04640 | 82° | 99km/h | 13743m | -6.7m/s | -61.6°C | 7.1% | 157.5hPa | 2.4V | 00:00:00 | 00:00:00 | 00:00:00 | |
| BAUMI2-15 | 2026-09-05 00:57:01 | 48.28613 | 13.04640 | 83° | 99km/h | 13743m | -6.7m/s | -61.5°C | 11.7% | 157.5hPa | 2.4V | 00:00:00 | 02:27:30 | 00:00:00 | |
| OE5WHR-10 | 2026-09-05 00:56:59 | 48.28607 | 13.04566 | 83° | 102km/h | 13756m | -6.6m/s | -61.3°C | 11.3% | 157.2hPa | 2.4V | 00:00:00 | 00:00:00 | 00:00:00 | |
| PG1ADW-2 | 2026-09-05 00:56:57 | 48.28601 | 13.04492 | 83° | 102km/h | 13769m | -6.9m/s | -61.2°C | 11.2% | 156.8hPa | 2.4V | 00:00:00 | 02:27:26 | 00:00:00 | |
| OE5MMP-10 | 2026-09-05 00:56:56 | 48.28598 | 13.04456 | 84° | 100km/h | 13776m | -6.9m/s | -61.2°C | 11.2% | 156.7hPa | 2.4V | 00:00:00 | 02:27:25 | 00:00:00 | |
| BAUMI2-15 | 2026-09-05 00:56:55 | 48.28595 | 13.04419 | 84° | 99km/h | 13783m | -6.7m/s | -61.2°C | 11.2% | 156.5hPa | 2.5V | 00:00:00 | 02:27:24 | 00:00:00 | |
| BAUMI2-15 | 2026-09-05 00:56:49 | 48.28577 | 13.04195 | 83° | 104km/h | 13824m | -6.7m/s | -61.3°C | 11.0% | 155.5hPa | 2.5V | 00:00:00 | 02:27:18 | 00:00:00 | |
| OE5REO-15 | 2026-09-05 00:56:47 | 48.28574 | 13.04157 | 85° | 104km/h | 13830m | -6.5m/s | -61.4°C | 6.5% | 155.4hPa | 2.5V | 08:07:00 | 00:00:00 | 00:00:00 | |
| OE5MMP-10 | 2026-09-05 00:56:46 | 48.28569 | 13.04079 | 86° | 106km/h | 13844m | -6.6m/s | -61.4°C | 10.9% | 155.0hPa | 2.5V | 00:00:00 | 02:27:15 | 00:00:00 | |
| BAUMI2-15 | 2026-09-05 00:56:44 | 48.28565 | 13.03999 | 86° | 106km/h | 13857m | -6.5m/s | -61.4°C | 10.8% | 154.7hPa | 2.5V | 00:00:00 | 02:27:13 | 00:00:00 | |
| BAUMI2-15 | 2026-09-05 00:56:39 | 48.28555 | 13.03798 | 86° | 97km/h | 13892m | -6.4m/s | -61.0°C | 10.1% | 153.8hPa | 2.5V | 00:00:00 | 02:27:08 | 00:00:00 | |
| OE5WHR-10 | 2026-09-05 00:56:38 | 48.28553 | 13.03758 | 85° | 104km/h | 13898m | -6.9m/s | -60.9°C | 10.0% | 153.7hPa | 2.5V | 00:00:00 | 02:27:07 | 00:00:00 | |
| DL6DJ-15 | 2026-09-05 00:56:37 | 48.28547 | 13.03679 | 83° | 104km/h | 13912m | -6.7m/s | -60.9°C | 5.7% | 153.4hPa | 2.5V | 00:00:00 | 00:00:00 | 00:00:00 | |
| OE5MMP-10 | 2026-09-05 00:56:36 | 48.28547 | 13.03679 | 84° | 106km/h | 13912m | -6.6m/s | -60.9°C | 9.9% | 153.3hPa | 2.5V | 00:00:00 | 02:27:05 | 00:00:00 | |
| OE5REO-15 | 2026-09-05 00:56:32 | 48.28539 | 13.03559 | 85° | 104km/h | 13933m | -7.2m/s | -60.7°C | 5.6% | 152.9hPa | 2.5V | 08:08:00 | 00:00:00 | 00:00:00 | |
| OE5DXL-15 | 2026-09-05 00:56:26 | 48.28516 | 13.03283 | 82° | 102km/h | 13982m | -7.0m/s | -60.2°C | 9.2% | 151.6hPa | 2.5V | 08:08:00 | 00:00:00 | 00:00:00 | |
| DK5PH-5 | 2026-09-05 00:56:25 | 48.28512 | 13.03244 | 82° | 102km/h | 13989m | -6.9m/s | -60.2°C | 9.1% | 151.5hPa | 2.4V | 08:08:00 | 02:26:54 | 00:00:00 | |
| OE5DRO-10 | 2026-09-05 00:56:19 | 48.28491 | 13.03013 | 83° | 102km/h | 14031m | -7.0m/s | -60.3°C | 9.2% | 150.4hPa | 2.4V | 00:00:00 | 00:00:00 | 00:00:00 | |
| OE5REO-15 | 2026-09-05 00:56:18 | 48.28487 | 13.02974 | 84° | 102km/h | 14038m | -7.2m/s | -60.4°C | 5.2% | 150.3hPa | 2.4V | 08:08:00 | 00:00:00 | 00:00:00 | |
| OE5WHR-10 | 2026-09-05 00:56:17 | 48.28484 | 13.02936 | 83° | 102km/h | 14045m | -7.1m/s | -60.4°C | 9.3% | 150.1hPa | 2.4V | 00:00:00 | 00:00:00 | 00:00:00 | |
| OE5MMP-10 | 2026-09-05 00:56:16 | 48.28481 | 13.02897 | 84° | 100km/h | 14052m | -6.8m/s | -60.5°C | 9.3% | 149.9hPa | 2.5V | 00:00:00 | 02:26:45 | 00:00:00 | |
| S52SK | 2026-09-05 00:56:14 | 48.28478 | 13.02858 | 84° | 102km/h | 14059m | -7.0m/s | 0°C | 0% | 0hPa | 2.5V | 00:00:00 | 00:00:00 | 00:00:00 | |
| OE5FHM-15 | 2026-09-05 00:56:08 | 48.28461 | 13.02591 | 86° | 106km/h | 14108m | -7.0m/s | -60.2°C | 8.8% | 148.5hPa | 2.5V | 00:00:00 | 02:26:37 | 00:00:00 | |
| DL6DJ-15 | 2026-09-05 00:56:06 | 48.28456 | 13.02476 | 85° | 100km/h | 14130m | -7.0m/s | -60.4°C | 4.9% | 148.1hPa | 2.4V | 00:00:00 | 00:00:00 | 00:00:00 | |
| OE5REO-15 | 2026-09-05 00:56:01 | 48.28449 | 13.02358 | 86° | 106km/h | 14152m | -7.3m/s | -60.5°C | 4.9% | 147.6hPa | 2.4V | 08:08:00 | 00:00:00 | 00:00:00 | |
| OE5DRO-10 | 2026-09-05 00:56:00 | 48.28444 | 13.02279 | 84° | 106km/h | 14166m | -7.0m/s | -60.6°C | 8.8% | 147.2hPa | 2.4V | 08:08:00 | 00:00:00 | 00:00:00 | |
| PG1ADW-2 | 2026-09-05 00:55:57 | 48.28435 | 13.02159 | 84° | 106km/h | 14188m | -7.2m/s | -60.7°C | 8.8% | 146.7hPa | 2.4V | 00:00:00 | 00:00:00 | 00:00:00 | |
| OE5WHR-10 | 2026-09-05 00:55:56 | 48.28432 | 13.02119 | 84° | 106km/h | 14195m | -7.2m/s | -60.7°C | 8.9% | 146.5hPa | 2.4V | 00:00:00 | 00:00:00 | 00:00:00 | |
| DK5PH-5 | 2026-09-05 00:55:55 | 48.28429 | 13.02079 | 84° | 104km/h | 14202m | -7.5m/s | -60.6°C | 8.8% | 146.4hPa | 2.4V | 00:00:00 | 02:26:24 | 00:00:00 | |
| S52SK | 2026-09-05 00:55:49 | 48.28416 | 13.01875 | 86° | 108km/h | 14238m | -7.2m/s | 0°C | 0% | 0hPa | 2.4V | 00:00:00 | 00:00:00 | 00:00:00 | |
| OE5REO-15 | 2026-09-05 00:55:46 | 48.28405 | 13.01716 | 85° | 104km/h | 14268m | -7.5m/s | -60.6°C | 4.6% | 144.9hPa | 2.4V | 08:08:00 | 00:00:00 | 00:00:00 | |
| OE5DRO-10 | 2026-09-05 00:55:42 | 48.28391 | 13.01519 | 84° | 104km/h | 14305m | -7.5m/s | -60.2°C | 8.4% | 143.9hPa | 2.4V | 00:00:00 | 00:00:00 | 00:00:00 | |
| OE5FHM-15 | 2026-09-05 00:55:38 | 48.28383 | 13.01401 | 85° | 99km/h | 14328m | -7.6m/s | -59.8°C | 8.2% | 143.4hPa | 2.4V | 00:00:00 | 02:26:07 | 00:00:00 | |
| PG1ADW-2 | 2026-09-05 00:55:37 | 48.28381 | 13.01362 | 85° | 100km/h | 14335m | -7.4m/s | -59.9°C | 8.2% | 143.3hPa | 2.4V | 00:00:00 | 02:26:06 | 00:00:00 | |
| OE5MMP-10 | 2026-09-05 00:55:36 | 48.28378 | 13.01322 | 85° | 104km/h | 14343m | -7.5m/s | -59.9°C | 8.2% | 143.1hPa | 2.5V | 00:00:00 | 02:26:05 | 00:00:00 | |
| DL6DJ-15 | 2026-09-05 00:55:35 | 48.28373 | 13.01242 | 84° | 104km/h | 14358m | -7.5m/s | -60.1°C | 4.4% | 142.8hPa | 2.5V | 00:00:00 | 00:00:00 | 00:00:00 | |
| OE5REO-15 | 2026-09-05 00:55:29 | 48.28361 | 13.01087 | 84° | 104km/h | 14389m | -7.7m/s | -60.0°C | 4.3% | 142.0hPa | 2.5V | 08:09:00 | 00:00:00 | 00:00:00 | |
| OE5MMP-10 | 2026-09-05 00:55:26 | 48.28346 | 13.00933 | 81° | 97km/h | 14420m | -7.9m/s | -60.1°C | 8.1% | 141.3hPa | 2.5V | 00:00:00 | 02:25:55 | 00:00:00 | |
| DK5PH-5 | 2026-09-05 00:55:25 | 48.28342 | 13.00895 | 81° | 93km/h | 14428m | -7.6m/s | -60.0°C | 8.1% | 141.1hPa | 2.4V | 00:00:00 | 02:25:54 | 00:00:00 | |
| DB0UT-7 | 2026-09-05 00:55:23 | 48.28333 | 13.00821 | 81° | 93km/h | 14443m | -7.6m/s | -59.9°C | 8.1% | 140.7hPa | 2.4V | 00:00:00 | 02:25:52 | 00:00:00 | |
| OE5DRO-10 | 2026-09-05 00:55:22 | 48.28329 | 13.00784 | 80° | 95km/h | 14451m | -7.6m/s | -59.9°C | 8.0% | 140.7hPa | 2.4V | 00:00:00 | 00:00:00 | 00:00:00 | |
| DH7VM-15 | 2026-09-05 00:55:18 | 48.28316 | 13.00677 | 82° | 95km/h | 14474m | -7.8m/s | -60.0°C | 4.2% | 140.1hPa | 2.4V | 00:00:00 | 00:00:00 | 00:00:00 | |
| PG1ADW-2 | 2026-09-05 00:55:17 | 48.28308 | 13.00606 | 81° | 93km/h | 14490m | -8.0m/s | -60.0°C | 8.1% | 139.7hPa | 2.4V | 00:00:00 | 00:00:00 | 00:00:00 | |
| OE5MMP-10 | 2026-09-05 00:55:16 | 48.28305 | 13.00571 | 81° | 95km/h | 14498m | -7.9m/s | -60.0°C | 8.2% | 139.6hPa | 2.4V | 00:00:00 | 02:25:45 | 00:00:00 | |
| DF3TZ-5 | 2026-09-05 00:55:15 | 48.28301 | 13.00535 | 81° | 93km/h | 14506m | -7.9m/s | -60.0°C | 4.2% | 139.4hPa | 2.4V | 00:00:00 | 00:00:00 | 00:00:00 | |
| OE5WHR-10 | 2026-09-05 00:55:14 | 48.28297 | 13.00500 | 81° | 91km/h | 14514m | -7.8m/s | -60.0°C | 8.2% | 139.2hPa | 2.4V | 00:00:00 | 00:00:00 | 00:00:00 | |
| OE5FHM-15 | 2026-09-05 00:55:08 | 48.28277 | 13.00285 | 84° | 89km/h | 14562m | -8.2m/s | -60.0°C | 8.2% | 138.1hPa | 2.4V | 00:00:00 | 02:25:37 | 00:00:00 | |
| OE5MMP-10 | 2026-09-05 00:55:06 | 48.28272 | 13.00214 | 85° | 91km/h | 14578m | -8.3m/s | -59.9°C | 8.2% | 137.8hPa | 2.4V | 00:00:00 | 02:25:35 | 00:00:00 | |
| OE5DRO-10 | 2026-09-05 00:55:03 | 48.28266 | 13.00109 | 86° | 88km/h | 14603m | -8.4m/s | -59.4°C | 7.8% | 137.2hPa | 2.4V | 00:00:00 | 00:00:00 | 00:00:00 | |
| OE5REO-15 | 2026-09-05 00:54:58 | 48.28257 | 12.99973 | 85° | 89km/h | 14636m | -8.1m/s | -59.0°C | 3.8% | 136.6hPa | 2.4V | 08:09:00 | 00:00:00 | 00:00:00 | |
| PG1ADW-2 | 2026-09-05 00:54:57 | 48.28253 | 12.99907 | 85° | 88km/h | 14652m | -8.2m/s | -59.0°C | 7.5% | 136.1hPa | 2.4V | 00:00:00 | 00:00:00 | 00:00:00 | |
| OE5MMP-10 | 2026-09-05 00:54:56 | 48.28251 | 12.99874 | 85° | 88km/h | 14660m | -8.3m/s | -59.0°C | 7.5% | 135.9hPa | 2.4V | 08:09:00 | 02:25:25 | 00:00:00 | |
| DK5PH-5 | 2026-09-05 00:54:55 | 48.28249 | 12.99841 | 85° | 88km/h | 14669m | -8.3m/s | -59.1°C | 7.5% | 135.8hPa | 2.4V | 00:00:00 | 02:25:24 | 00:00:00 | |
| OE5WHR-10 | 2026-09-05 00:54:53 | 48.28245 | 12.99775 | 85° | 88km/h | 14685m | -8.3m/s | -59.1°C | 7.5% | 135.4hPa | 2.5V | 00:00:00 | 00:00:00 | 00:00:00 | |
| OE5MMP-10 | 2026-09-05 00:54:46 | 48.28231 | 12.99546 | 86° | 89km/h | 14744m | -8.5m/s | -58.7°C | 7.0% | 134.2hPa | 2.5V | 00:00:00 | 02:25:15 | 00:00:00 | |
| OE5DRO-10 | 2026-09-05 00:54:44 | 48.28227 | 12.99480 | 87° | 89km/h | 14761m | -8.5m/s | -58.7°C | 6.9% | 133.8hPa | 2.5V | 00:00:00 | 00:00:00 | 00:00:00 | |
| OE5REO-15 | 2026-09-05 00:54:43 | 48.28227 | 12.99480 | 87° | 88km/h | 14761m | -8.5m/s | -58.8°C | 3.5% | 133.8hPa | 2.5V | 08:10:00 | 00:00:00 | 00:00:00 | |
| OE5FHM-15 | 2026-09-05 00:54:38 | 48.28221 | 12.99277 | 88° | 89km/h | 14813m | -8.9m/s | -58.9°C | 6.8% | 132.7hPa | 2.5V | 00:00:00 | 02:25:07 | 00:00:00 | |
| PG1ADW-2 | 2026-09-05 00:54:37 | 48.28220 | 12.99243 | 88° | 89km/h | 14822m | -8.7m/s | -58.9°C | 6.9% | 132.5hPa | 2.5V | 08:09:00 | 00:00:00 | 00:00:00 | |
| OE5MMP-10 | 2026-09-05 00:54:36 | 48.28219 | 12.99208 | 87° | 88km/h | 14831m | -8.8m/s | -58.9°C | 6.9% | 132.3hPa | 2.5V | 00:00:00 | 02:25:05 | 00:00:00 | |
| DL6DJ-15 | 2026-09-05 00:54:33 | 48.28215 | 12.99075 | 87° | 86km/h | 14865m | -8.9m/s | -59.2°C | 3.5% | 131.6hPa | 2.5V | 00:00:00 | 00:00:00 | 00:00:00 | |
| OE5WHR-10 | 2026-09-05 00:54:32 | 48.28215 | 12.99075 | 88° | 91km/h | 14866m | -8.8m/s | -59.2°C | 7.0% | 131.6hPa | 2.5V | 00:00:00 | 02:25:01 | 00:00:00 | |
| BAUMI2-15 | 2026-09-05 00:54:31 | 48.28214 | 12.99042 | 89° | 88km/h | 14875m | -8.9m/s | -59.2°C | 7.0% | 131.4hPa | 2.5V | 08:10:00 | 02:25:00 | 00:00:00 | |
| OE5REO-15 | 2026-09-05 00:54:27 | 48.28214 | 12.98943 | 91° | 88km/h | 14901m | -8.9m/s | -59.4°C | 3.4% | 130.9hPa | 2.4V | 08:10:00 | 00:00:00 | 00:00:00 | |
| BAUMI2-15 | 2026-09-05 00:54:26 | 48.28215 | 12.98876 | 93° | 91km/h | 14919m | -9.1m/s | -59.5°C | 7.0% | 130.5hPa | 2.4V | 00:00:00 | 02:24:55 | 00:00:00 | |
| DK5PH-5 | 2026-09-05 00:54:25 | 48.28216 | 12.98842 | 93° | 91km/h | 14928m | -9.0m/s | -59.5°C | 7.0% | 130.3hPa | 2.4V | 00:00:00 | 02:24:54 | 00:00:00 | |
| BAUMI2-15 | 2026-09-05 00:54:21 | 48.28222 | 12.98703 | 94° | 93km/h | 14964m | -9.1m/s | -59.8°C | 7.1% | 129.5hPa | 2.4V | 00:00:00 | 02:24:50 | 00:00:00 | |
| PG1ADW-2 | 2026-09-05 00:54:17 | 48.28226 | 12.98562 | 93° | 91km/h | 15000m | -9.2m/s | -59.7°C | 7.0% | 128.8hPa | 2.4V | 00:00:00 | 02:24:46 | 00:00:00 | |
| OE5MMP-10 | 2026-09-05 00:54:16 | 48.28227 | 12.98527 | 94° | 91km/h | 15009m | -8.9m/s | -59.7°C | 7.1% | 128.6hPa | 2.4V | 00:00:00 | 02:24:45 | 00:00:00 | |
| DF3TZ-5 | 2026-09-05 00:54:13 | 48.28232 | 12.98423 | 94° | 91km/h | 15035m | -9.3m/s | -59.7°C | -1.0% | 128.1hPa | 2.4V | 00:00:00 | 00:00:00 | 00:00:00 | |
| OE5WHR-10 | 2026-09-05 00:54:11 | 48.28236 | 12.98355 | 96° | 89km/h | 15054m | -9.2m/s | -59.6°C | 6.9% | 127.6hPa | 2.4V | 08:10:00 | 00:00:00 | 00:00:00 | |
| OE5FHM-15 | 2026-09-05 00:54:08 | 48.28244 | 12.98253 | 98° | 89km/h | 15081m | -9.1m/s | -59.5°C | 6.6% | 127.1hPa | 2.4V | 00:00:00 | 02:24:37 | 00:00:00 | |
| OE5MMP-10 | 2026-09-05 00:54:06 | 48.28250 | 12.98185 | 99° | 89km/h | 15099m | -9.0m/s | -59.5°C | 6.6% | 126.7hPa | 2.4V | 00:00:00 | 02:24:35 | 00:00:00 | |
| DL6DJ-15 | 2026-09-05 00:54:02 | 48.28267 | 12.98016 | 98° | 89km/h | 15145m | -9.2m/s | -59.4°C | 3.0% | 125.9hPa | 2.4V | 00:00:00 | 00:00:00 | 00:00:00 | |
| DF7PN | 2026-09-05 00:53:57 | 48.28329 | 12.97479 | 98° | 88km/h | 15291m | -9.2m/s | -60.3°C | -1.0% | -1.0hPa | 2.4V | 00:00:00 | 00:00:00 | 00:00:00 | |
| OE5REO-15 | 2026-09-05 00:53:56 | 48.28286 | 12.97849 | 102° | 91km/h | 15191m | -9.1m/s | -59.4°C | 2.9% | 124.9hPa | 2.4V | 08:11:00 | 00:00:00 | 00:00:00 | |
| DK5PH-5 | 2026-09-05 00:53:55 | 48.28291 | 12.97815 | 101° | 88km/h | 15200m | -8.8m/s | -59.5°C | 6.3% | 124.7hPa | 2.4V | 00:00:00 | 02:24:24 | 00:00:00 | |
| BAUMI2-15 | 2026-09-05 00:53:51 | 48.28308 | 12.97680 | 101° | 89km/h | 15237m | -8.9m/s | -59.7°C | 6.3% | 124.0hPa | 2.4V | 00:00:00 | 02:24:20 | 00:00:00 | |
| OE5WHR-10 | 2026-09-05 00:53:50 | 48.28312 | 12.97646 | 100° | 88km/h | 15246m | -8.8m/s | -59.8°C | 6.4% | 123.8hPa | 2.4V | 00:00:00 | 00:00:00 | 00:00:00 | |
| OE5DRO-10 | 2026-09-05 00:53:47 | 48.28323 | 12.97546 | 99° | 88km/h | 15273m | -8.9m/s | -60.0°C | 6.4% | 123.2hPa | 2.4V | 00:00:00 | 00:00:00 | 00:00:00 | |
| BAUMI2-15 | 2026-09-05 00:53:46 | 48.28326 | 12.97513 | 98° | 89km/h | 15282m | -8.9m/s | -60.1°C | 6.5% | 123.1hPa | 2.4V | 08:10:00 | 02:24:15 | 00:00:00 | |
| DF3TZ-5 | 2026-09-05 00:53:42 | 48.28339 | 12.97380 | 98° | 88km/h | 15318m | -9.0m/s | 0°C | -1.0% | -1.0hPa | 2.4V | 00:00:00 | 00:00:00 | 00:00:00 | |
| BAUMI2-15 | 2026-09-05 00:53:41 | 48.28342 | 12.97346 | 99° | 89km/h | 15327m | -8.8m/s | -60.5°C | 6.6% | 122.2hPa | 2.4V | 00:00:00 | 02:24:10 | 00:00:00 | |
| OE5REO-15 | 2026-09-05 00:53:39 | 48.28345 | 12.97312 | 98° | 89km/h | 15335m | -9.0m/s | -60.6°C | 2.9% | 122.0hPa | 2.4V | 08:11:00 | 00:00:00 | 00:00:00 | |
| OE5FHM-15 | 2026-09-05 00:53:38 | 48.28351 | 12.97245 | 97° | 82km/h | 15354m | -9.2m/s | -60.7°C | 6.6% | 121.6hPa | 2.4V | 00:00:00 | 02:24:07 | 00:00:00 | |
| PG1ADW-2 | 2026-09-05 00:53:37 | 48.28354 | 12.97212 | 97° | 84km/h | 15363m | -9.1m/s | -60.8°C | 6.7% | 121.5hPa | 2.4V | 00:00:00 | 00:00:00 | 00:00:00 | |
| BAUMI2-15 | 2026-09-05 00:53:36 | 48.28356 | 12.97179 | 96° | 86km/h | 15372m | -9.0m/s | -60.8°C | 6.7% | 121.3hPa | 2.4V | 00:00:00 | 02:24:05 | 00:00:00 | |
| BAUMI2-15 | 2026-09-05 00:53:31 | 48.28366 | 12.97017 | 96° | 86km/h | 15417m | -8.8m/s | -61.0°C | 6.8% | 120.5hPa | 2.4V | 00:00:00 | 02:24:00 | 00:00:00 | |
| DG1MFX-10 | 2026-09-05 00:53:30 | 48.28368 | 12.96985 | 97° | 84km/h | 15426m | -8.9m/s | -61.1°C | 3.0% | 120.3hPa | 2.4V | 08:11:00 | 00:00:00 | 00:00:00 | |
| OE5WHR-10 | 2026-09-05 00:53:29 | 48.28370 | 12.96953 | 96° | 80km/h | 15435m | -8.9m/s | -61.1°C | 6.9% | 120.1hPa | 2.4V | 00:00:00 | 02:23:58 | 00:00:00 | |
| OE5DRO-10 | 2026-09-05 00:53:28 | 48.28373 | 12.96921 | 97° | 80km/h | 15444m | -8.9m/s | -61.2°C | 6.9% | 119.9hPa | 2.4V | 00:00:00 | 00:00:00 | 00:00:00 | |
| DK5PH-5 | 2026-09-05 00:53:25 | 48.28381 | 12.96825 | 99° | 77km/h | 15471m | -8.8m/s | -61.2°C | 7.0% | 119.4hPa | 2.4V | 00:00:00 | 02:23:54 | 00:00:00 | |
| OE5REO-15 | 2026-09-05 00:53:23 | 48.28384 | 12.96794 | 100° | 84km/h | 15480m | -9.0m/s | -61.2°C | 2.9% | 119.3hPa | 2.4V | 08:11:00 | 00:00:00 | 00:00:00 | |
| BAUMI2-15 | 2026-09-05 00:53:21 | 48.28393 | 12.96701 | 98° | 80km/h | 15506m | -8.7m/s | -61.1°C | 6.9% | 118.7hPa | 2.4V | 00:00:00 | 02:23:50 | 00:00:00 | |
| PG1ADW-2 | 2026-09-05 00:53:17 | 48.28402 | 12.96581 | 95° | 75km/h | 15541m | -8.8m/s | -60.9°C | 6.8% | 118.1hPa | 2.4V | 00:00:00 | 00:00:00 | 00:00:00 | |
| OE5MMP-10 | 2026-09-05 00:53:16 | 48.28403 | 12.96551 | 95° | 77km/h | 15550m | -8.5m/s | -60.8°C | 6.8% | 117.9hPa | 2.4V | 00:00:00 | 02:23:45 | 00:00:00 | |
| BAUMI2-15 | 2026-09-05 00:53:11 | 48.28411 | 12.96405 | 97° | 77km/h | 15594m | -8.6m/s | -60.6°C | 6.7% | 117.1hPa | 2.4V | 00:00:00 | 02:23:40 | 00:00:00 | |
| OE5DRO-10 | 2026-09-05 00:53:09 | 48.28416 | 12.96347 | 97° | 75km/h | 15611m | -8.5m/s | -60.4°C | 6.5% | 116.8hPa | 2.4V | 08:11:00 | 00:00:00 | 00:00:00 | |
| OE5FHM-15 | 2026-09-05 00:53:08 | 48.28417 | 12.96319 | 95° | 75km/h | 15619m | -8.5m/s | -60.3°C | 6.5% | 116.6hPa | 2.4V | 08:11:00 | 02:23:37 | 00:00:00 | |
| BAUMI2-15 | 2026-09-05 00:53:06 | 48.28421 | 12.96262 | 95° | 73km/h | 15637m | -8.6m/s | -60.2°C | 6.5% | 116.3hPa | 2.5V | 00:00:00 | 02:23:35 | 00:00:00 | |
| DB0ND-19 | 2026-09-05 00:53:00 | 48.28429 | 12.96067 | 92° | 73km/h | 15696m | -8.3m/s | 0°C | -1.0% | -1.0hPa | 2.5V | 00:00:00 | 00:00:00 | 00:00:00 | |
| DL6DJ-15 | 2026-09-05 00:52:59 | 48.28429 | 12.96067 | 92° | 73km/h | 15696m | -8.3m/s | -59.3°C | 2.5% | 115.2hPa | 2.5V | 00:00:00 | 00:00:00 | 00:00:00 | |
| PG1ADW-2 | 2026-09-05 00:52:57 | 48.28431 | 12.96011 | 93° | 75km/h | 15713m | -8.2m/s | -59.3°C | 6.1% | 114.9hPa | 2.5V | 00:00:00 | 02:23:26 | 00:00:00 | |
| BAUMI2-15 | 2026-09-05 00:52:56 | 48.28432 | 12.95983 | 93° | 75km/h | 15721m | -8.6m/s | -59.3°C | 6.1% | 114.7hPa | 2.5V | 00:00:00 | 02:23:25 | 00:00:00 | |
| DK5PH-5 | 2026-09-05 00:52:55 | 48.28432 | 12.95955 | 93° | 37km/h | 15730m | -8.4m/s | -59.3°C | 6.1% | 114.6hPa | 2.5V | 00:00:00 | 02:23:24 | 00:00:00 | |
| OE5REO-15 | 2026-09-05 00:52:52 | 48.28434 | 12.95898 | 94° | 77km/h | 15747m | -8.6m/s | -59.2°C | 2.5% | 114.3hPa | 2.5V | 08:12:00 | 00:00:00 | 00:00:00 | |
| BAUMI2-15 | 2026-09-05 00:52:51 | 48.28436 | 12.95840 | 94° | 77km/h | 15763m | -8.4m/s | -59.2°C | 6.1% | 113.9hPa | 2.5V | 00:00:00 | 02:23:20 | 00:00:00 | |
| OE5DRO-10 | 2026-09-05 00:52:50 | 48.28437 | 12.95812 | 94° | 73km/h | 15772m | -8.1m/s | -59.2°C | 6.1% | 113.8hPa | 2.5V | 00:00:00 | 00:00:00 | 00:00:00 | |
| OE5WHR-10 | 2026-09-05 00:52:47 | 48.28440 | 12.95725 | 94° | 71km/h | 15797m | -8.3m/s | -59.3°C | 6.1% | 113.3hPa | 2.5V | 00:00:00 | 00:00:00 | 00:00:00 | |
| OE5MMP-10 | 2026-09-05 00:52:46 | 48.28442 | 12.95696 | 94° | 73km/h | 15805m | -8.3m/s | -59.3°C | 6.1% | 113.2hPa | 2.5V | 00:00:00 | 02:23:15 | 00:00:00 | |
| BAUMI2-15 | 2026-09-05 00:52:41 | 48.28449 | 12.95555 | 96° | 73km/h | 15847m | -8.2m/s | -58.2°C | 5.6% | 112.5hPa | 2.5V | 00:00:00 | 02:23:10 | 00:00:00 | |
| OE5FHM-15 | 2026-09-05 00:52:38 | 48.28456 | 12.95473 | 99° | 66km/h | 15872m | -8.4m/s | -58.3°C | 5.6% | 112.0hPa | 2.5V | 00:00:00 | 02:23:07 | 00:00:00 | |
| PG1ADW-2 | 2026-09-05 00:52:37 | 48.28458 | 12.95447 | 98° | 68km/h | 15880m | -8.2m/s | -58.4°C | 5.6% | 111.9hPa | 2.5V | 00:00:00 | 00:00:00 | 00:00:00 | |
| OE5MMP-10 | 2026-09-05 00:52:36 | 48.28461 | 12.95421 | 100° | 68km/h | 15888m | -8.5m/s | -58.4°C | 5.6% | 111.7hPa | 2.5V | 00:00:00 | 02:23:05 | 00:00:00 | |
| OE5DRO-10 | 2026-09-05 00:52:31 | 48.28474 | 12.95293 | 97° | 66km/h | 15930m | -8.2m/s | -58.5°C | 5.7% | 111.0hPa | 2.5V | 00:00:00 | 00:00:00 | 00:00:00 | |
| DL6DJ-15 | 2026-09-05 00:52:28 | 48.28481 | 12.95217 | 98° | 66km/h | 15955m | -8.2m/s | -58.6°C | 2.3% | 110.5hPa | 2.5V | 00:00:00 | 00:00:00 | 00:00:00 | |
| OE5MMP-10 | 2026-09-05 00:52:26 | 48.28486 | 12.95168 | 101° | 68km/h | 15972m | -8.4m/s | -58.6°C | 5.7% | 110.2hPa | 2.5V | 00:00:00 | 02:22:55 | 00:00:00 | |
| OE5DXL-15 | 2026-09-05 00:52:25 | 48.28489 | 12.95144 | 101° | 64km/h | 15980m | -8.1m/s | -58.6°C | 5.8% | 110.0hPa | 2.5V | 00:00:00 | 00:00:00 | 00:00:00 | |
| DF7PN | 2026-09-05 00:52:23 | 48.28496 | 12.95095 | 102° | 66km/h | 15996m | -8.2m/s | 0°C | -1.0% | -1.0hPa | 2.5V | 00:00:00 | 00:00:00 | 00:00:00 | |
| OE5REO-15 | 2026-09-05 00:52:21 | 48.28504 | 12.95045 | 106° | 68km/h | 16013m | -8.7m/s | -58.4°C | 2.2% | 109.5hPa | 2.5V | 08:12:00 | 00:00:00 | 00:00:00 | |
| OE5MMP-10 | 2026-09-05 00:52:16 | 48.28527 | 12.94921 | 106° | 62km/h | 16055m | -8.5m/s | -58.2°C | 5.5% | 108.7hPa | 2.5V | 00:00:00 | 02:22:45 | 00:00:00 | |
| OE5DRO-10 | 2026-09-05 00:52:12 | 48.28545 | 12.94829 | 107° | 60km/h | 16089m | -8.3m/s | -58.2°C | 5.5% | 108.2hPa | 2.5V | 00:00:00 | 00:00:00 | 00:00:00 | |
| OE3MUC-15 | 2026-09-05 00:52:10 | 48.28554 | 12.94785 | 108° | 60km/h | 16105m | -8.3m/s | 0°C | 0% | 0hPa | 2.5V | 00:00:00 | 00:00:00 | 00:00:00 | |
| OE5FHM-15 | 2026-09-05 00:52:08 | 48.28563 | 12.94741 | 107° | 60km/h | 16122m | -8.2m/s | -58.1°C | 5.4% | 107.6hPa | 2.5V | 00:00:00 | 02:22:37 | 00:00:00 | |
| OE5MMP-10 | 2026-09-05 00:52:06 | 48.28571 | 12.94697 | 105° | 60km/h | 16139m | -8.2m/s | -58.0°C | 5.4% | 107.3hPa | 2.5V | 00:00:00 | 02:22:35 | 00:00:00 | |
| OE5WHR-10 | 2026-09-05 00:52:05 | 48.28575 | 12.94675 | 105° | 60km/h | 16147m | -8.2m/s | -58.0°C | 5.3% | 107.2hPa | 2.5V | 00:00:00 | 00:00:00 | 00:00:00 | |
| OE5REO-15 | 2026-09-05 00:52:04 | 48.28575 | 12.94675 | 105° | 60km/h | 16147m | -8.3m/s | -58.0°C | 2.1% | 107.2hPa | 2.4V | 00:00:00 | 00:00:00 | 00:00:00 | |
| DL6DJ-15 | 2026-09-05 00:51:57 | 48.28596 | 12.94495 | 96° | 60km/h | 16216m | -8.8m/s | -58.2°C | 2.1% | 106.1hPa | 2.4V | 00:00:00 | 00:00:00 | 00:00:00 | |
| DF7PN | 2026-09-05 00:51:52 | 48.28603 | 12.94381 | 93° | 58km/h | 16259m | -8.7m/s | 0°C | -1.0% | -1.0hPa | 2.4V | 00:00:00 | 00:00:00 | 00:00:00 | |
| OE3MUC-15 | 2026-09-05 00:51:51 | 48.28604 | 12.94358 | 95° | 62km/h | 16268m | -8.9m/s | 0°C | 0% | 0hPa | 2.4V | 00:00:00 | 00:00:00 | 00:00:00 | |
| OE5REO-15 | 2026-09-05 00:51:48 | 48.28606 | 12.94313 | 95° | 60km/h | 16285m | -8.5m/s | -58.2°C | 2.0% | 104.9hPa | 2.4V | 00:00:00 | 00:00:00 | 00:00:00 | |
| OE5MMP-10 | 2026-09-05 00:51:46 | 48.28607 | 12.94246 | 90° | 62km/h | 16311m | -8.7m/s | -58.2°C | 5.2% | 104.4hPa | 2.4V | 00:00:00 | 02:22:15 | 00:00:00 | |
| OE5WHR-10 | 2026-09-05 00:51:44 | 48.28606 | 12.94200 | 88° | 66km/h | 16329m | -8.6m/s | -58.2°C | 5.2% | 104.1hPa | 2.4V | 00:00:00 | 00:00:00 | 00:00:00 | |
| OE5FHM-15 | 2026-09-05 00:51:38 | 48.28598 | 12.94059 | 83° | 66km/h | 16382m | -8.7m/s | -58.5°C | 5.3% | 103.3hPa | 2.4V | 00:00:00 | 02:22:07 | 00:00:00 | |
| OE5MMP-10 | 2026-09-05 00:51:36 | 48.28593 | 12.94011 | 82° | 66km/h | 16400m | -9.0m/s | -58.5°C | 5.3% | 103.0hPa | 2.4V | 00:00:00 | 02:22:05 | 00:00:00 | |
| OE5DRO-10 | 2026-09-05 00:51:34 | 48.28588 | 12.93962 | 81° | 66km/h | 16418m | -9.1m/s | -58.6°C | 5.2% | 102.6hPa | 2.4V | 00:00:00 | 00:00:00 | 00:00:00 | |
| OE5HKT-10 | 2026-09-05 00:51:30 | 48.28576 | 12.93863 | 80° | 68km/h | 16453m | -9.0m/s | -58.7°C | 5.2% | 102.1hPa | 2.4V | 00:00:00 | 00:00:00 | 00:00:00 | |
| OE5MMP-10 | 2026-09-05 00:51:26 | 48.28565 | 12.93762 | 82° | 68km/h | 16489m | -8.8m/s | -58.9°C | 5.3% | 101.5hPa | 2.4V | 00:00:00 | 02:21:55 | 00:00:00 | |
| OE5DXL-15 | 2026-09-05 00:51:25 | 48.28562 | 12.93737 | 83° | 62km/h | 16498m | -9.0m/s | -59.0°C | 5.3% | 101.4hPa | 2.4V | 00:00:00 | 00:00:00 | 00:00:00 | |
| OE5WHR-10 | 2026-09-05 00:51:23 | 48.28558 | 12.93686 | 84° | 62km/h | 16517m | -9.2m/s | -59.1°C | 5.3% | 101.1hPa | 2.4V | 00:00:00 | 02:21:52 | 00:00:00 | |
| DF7PN | 2026-09-05 00:51:21 | 48.28553 | 12.93586 | 85° | 66km/h | 16554m | -9.3m/s | 0°C | -1.0% | -1.0hPa | 2.4V | 00:00:00 | 00:00:00 | 00:00:00 | |
| OE5MMP-10 | 2026-09-05 00:51:16 | 48.28550 | 12.93512 | 89° | 62km/h | 16582m | -9.3m/s | -59.3°C | 5.4% | 100.0hPa | 2.4V | 00:00:00 | 02:21:45 | 00:00:00 | |
| OE5DRO-10 | 2026-09-05 00:51:15 | 48.28550 | 12.93487 | 88° | 58km/h | 16591m | -9.2m/s | -59.2°C | 5.4% | 99.9hPa | 2.4V | 00:00:00 | 00:00:00 | 00:00:00 | |
| DG1MFX-10 | 2026-09-05 00:51:12 | 48.28549 | 12.93439 | 90° | 62km/h | 16610m | -9.4m/s | -59.2°C | 1.9% | 99.7hPa | 2.4V | 00:00:00 | 00:00:00 | 00:00:00 | |
| OE5HKT-10 | 2026-09-05 00:51:09 | 48.28549 | 12.93345 | 91° | 60km/h | 16648m | -9.2m/s | -59.3°C | 5.5% | 99.0hPa | 2.4V | 00:00:00 | 02:21:38 | 00:00:00 | |
| OE5FHM-15 | 2026-09-05 00:51:08 | 48.28549 | 12.93322 | 91° | 62km/h | 16657m | -9.5m/s | -59.3°C | 5.4% | 98.8hPa | 2.4V | 00:00:00 | 02:21:37 | 00:00:00 | |
| OE5MMP-10 | 2026-09-05 00:51:06 | 48.28549 | 12.93278 | 91° | 57km/h | 16676m | -9.4m/s | -59.3°C | 5.5% | 98.5hPa | 2.4V | 00:00:00 | 02:21:35 | 00:00:00 | |
| OE5WHR-10 | 2026-09-05 00:51:02 | 48.28549 | 12.93192 | 89° | 62km/h | 16714m | -9.3m/s | -59.5°C | 5.5% | 98.0hPa | 2.4V | 08:13:00 | 00:00:00 | 00:00:00 | |
| OE3MUC-15 | 2026-09-05 00:51:00 | 48.28548 | 12.93149 | 88° | 58km/h | 16733m | -9.4m/s | 0°C | 0% | 0hPa | 2.4V | 00:00:00 | 00:00:00 | 00:00:00 | |
| OE5MMP-10 | 2026-09-05 00:50:56 | 48.28545 | 12.93061 | 87° | 62km/h | 16770m | -9.4m/s | -59.2°C | 5.6% | 97.1hPa | 2.4V | 00:00:00 | 02:21:25 | 00:00:00 | |
| OE5DXL-15 | 2026-09-05 00:50:55 | 48.28544 | 12.93039 | 87° | 68km/h | 16780m | -9.5m/s | -59.0°C | 5.5% | 96.9hPa | 2.5V | 00:00:00 | 00:00:00 | 00:00:00 | |
| OE3MUC-15 | 2026-09-05 00:50:54 | 48.28543 | 12.93016 | 87° | 62km/h | 16789m | -9.4m/s | 0°C | 0% | 0hPa | 2.5V | 08:13:00 | 00:00:00 | 00:00:00 | |
| PG1ADW-2 | 2026-09-05 00:50:53 | 48.28542 | 12.92993 | 87° | 68km/h | 16799m | -9.5m/s | -58.3°C | 5.1% | 96.6hPa | 2.5V | 00:00:00 | 00:00:00 | 00:00:00 | |
| OE3MUC-15 | 2026-09-05 00:50:49 | 48.28539 | 12.92899 | 89° | 64km/h | 16837m | -9.1m/s | 0°C | 0% | 0hPa | 2.5V | 00:00:00 | 00:00:00 | 00:00:00 | |
| OE5HKT-10 | 2026-09-05 00:50:47 | 48.28538 | 12.92850 | 91° | 55km/h | 16856m | -9.6m/s | -58.3°C | 5.0% | 95.8hPa | 2.5V | 08:13:00 | 00:00:00 | 00:00:00 | |
| OE5MMP-10 | 2026-09-05 00:50:46 | 48.28538 | 12.92825 | 91° | 71km/h | 16865m | -9.6m/s | -58.3°C | 5.0% | 95.6hPa | 2.4V | 00:00:00 | 02:21:15 | 00:00:00 | |
| OE5REO-15 | 2026-09-05 00:50:42 | 48.28539 | 12.92746 | 93° | 71km/h | 16894m | -9.7m/s | -58.4°C | 1.7% | 95.2hPa | 2.4V | 00:00:00 | 00:00:00 | 00:00:00 | |
| OE3MUC-15 | 2026-09-05 00:50:41 | 48.28540 | 12.92691 | 92° | 60km/h | 16914m | -9.6m/s | 0°C | 0% | 0hPa | 2.4V | 00:00:00 | 00:00:00 | 00:00:00 | |
| OE5FHM-15 | 2026-09-05 00:50:38 | 48.28541 | 12.92610 | 91° | 60km/h | 16942m | -9.6m/s | -58.2°C | 5.0% | 94.5hPa | 2.4V | 00:00:00 | 02:21:07 | 00:00:00 | |
| OE5DRO-10 | 2026-09-05 00:50:37 | 48.28541 | 12.92582 | 92° | 66km/h | 16952m | -9.6m/s | -58.2°C | 5.0% | 94.3hPa | 2.4V | 00:00:00 | 00:00:00 | 00:00:00 | |
| DF3TZ-5 | 2026-09-05 00:50:36 | 48.28542 | 12.92529 | 91° | 71km/h | 16971m | -9.5m/s | 0°C | -1.0% | -1.0hPa | 2.4V | 00:00:00 | 00:00:00 | 00:00:00 | |
| BAUMI2-15 | 2026-09-05 00:50:35 | 48.28542 | 12.92529 | 92° | 71km/h | 16971m | -9.4m/s | -58.2°C | 5.0% | 94.0hPa | 2.4V | 00:00:00 | 02:21:04 | 00:00:00 | |
| PG1ADW-2 | 2026-09-05 00:50:33 | 48.28543 | 12.92448 | 92° | 60km/h | 17000m | -9.3m/s | -58.0°C | 5.0% | 93.6hPa | 2.4V | 00:00:00 | 00:00:00 | 00:00:00 | |
| DO3MHA-11 | 2026-09-05 00:50:32 | 48.28543 | 12.92448 | 92° | 69km/h | 17000m | -9.3m/s | -58.0°C | 5.0% | 93.6hPa | 2.4V | 00:00:00 | 02:21:01 | 00:00:00 | |
| BAUMI2-15 | 2026-09-05 00:50:30 | 48.28545 | 12.92396 | 93° | 68km/h | 17019m | -9.4m/s | -57.9°C | 4.9% | 93.3hPa | 2.5V | 00:00:00 | 02:20:59 | 00:00:00 | |
| OE5MMP-10 | 2026-09-05 00:50:26 | 48.28548 | 12.92293 | 94° | 60km/h | 17056m | -9.2m/s | -58.0°C | 5.0% | 92.7hPa | 2.5V | 08:14:00 | 02:20:55 | 00:00:00 | |
| BAUMI2-15 | 2026-09-05 00:50:25 | 48.28549 | 12.92268 | 94° | 62km/h | 17065m | -9.7m/s | -58.1°C | 5.0% | 92.6hPa | 2.5V | 00:00:00 | 02:20:54 | 00:00:00 | |
| DL6DJ-15 | 2026-09-05 00:50:24 | 48.28552 | 12.92221 | 94° | 60km/h | 17084m | -9.4m/s | -58.1°C | 1.7% | 92.4hPa | 2.5V | 00:00:00 | 00:00:00 | 00:00:00 | |
| OE5WHR-10 | 2026-09-05 00:50:20 | 48.28556 | 12.92154 | 97° | 44km/h | 17112m | -9.1m/s | -58.0°C | 5.0% | 91.9hPa | 2.5V | 00:00:00 | 02:20:49 | 00:00:00 | |
| OE5DRO-10 | 2026-09-05 00:50:18 | 48.28559 | 12.92111 | 97° | 42km/h | 17130m | -9.2m/s | -58.0°C | 5.0% | 91.6hPa | 2.5V | 08:14:00 | 00:00:00 | 00:00:00 | |
| OE5MMP-10 | 2026-09-05 00:50:16 | 48.28562 | 12.92071 | 96° | 44km/h | 17149m | -8.8m/s | -57.9°C | 5.0% | 91.4hPa | 2.4V | 00:00:00 | 02:20:45 | 00:00:00 | |
| BAUMI2-15 | 2026-09-05 00:50:15 | 48.28563 | 12.92052 | 95° | 47km/h | 17157m | -9.0m/s | -57.8°C | 4.9% | 91.3hPa | 2.4V | 08:14:00 | 02:20:44 | 00:00:00 | |
| DO3MHA-11 | 2026-09-05 00:50:14 | 48.28564 | 12.92033 | 96° | 38km/h | 17167m | -9.0m/s | -57.7°C | 4.9% | 91.1hPa | 2.5V | 00:00:00 | 02:20:43 | 00:00:00 | |
| PG1ADW-2 | 2026-09-05 00:50:13 | 48.28566 | 12.91998 | 95° | 37km/h | 17184m | -9.0m/s | -57.5°C | 4.8% | 90.9hPa | 2.5V | 00:00:00 | 02:20:41 | 00:00:00 | |
| BAUMI2-15 | 2026-09-05 00:50:10 | 48.28568 | 12.91965 | 96° | 40km/h | 17202m | -9.0m/s | -57.5°C | 4.8% | 90.6hPa | 2.5V | 00:00:00 | 02:20:39 | 00:00:00 | |
| OE5FHM-15 | 2026-09-05 00:50:08 | 48.28569 | 12.91934 | 95° | 33km/h | 17219m | -8.7m/s | -57.3°C | 4.8% | 90.4hPa | 2.5V | 00:00:00 | 02:20:37 | 00:00:00 | |
| OE5MMP-10 | 2026-09-05 00:50:06 | 48.28570 | 12.91905 | 93° | 33km/h | 17237m | -9.2m/s | -57.4°C | 4.8% | 90.1hPa | 2.4V | 00:00:00 | 02:20:35 | 00:00:00 | |
| BAUMI2-15 | 2026-09-05 00:50:05 | 48.28570 | 12.91891 | 90° | 35km/h | 17246m | -9.4m/s | -57.5°C | 4.8% | 90.0hPa | 2.4V | 00:00:00 | 02:20:34 | 00:00:00 | |
| DO3MHA-11 | 2026-09-05 00:50:01 | 48.28567 | 12.91840 | 78° | 31km/h | 17282m | -8.9m/s | -57.0°C | 4.7% | 89.5hPa | 2.4V | 00:00:00 | 02:20:30 | 00:00:00 | |
| BAUMI2-15 | 2026-09-05 00:50:00 | 48.28565 | 12.91827 | 79° | 31km/h | 17291m | -8.6m/s | -57.0°C | 4.6% | 89.3hPa | 2.4V | 00:00:00 | 02:20:29 | 00:00:00 | |
| OE5WHR-10 | 2026-09-05 00:49:59 | 48.28563 | 12.91815 | 78° | 31km/h | 17300m | -9.0m/s | -57.1°C | 4.6% | 89.2hPa | 2.4V | 00:00:00 | 00:00:00 | 00:00:00 | |
| OE5MMP-10 | 2026-09-05 00:49:56 | 48.28558 | 12.91780 | 76° | 31km/h | 17328m | -9.3m/s | -57.3°C | 4.7% | 88.8hPa | 2.4V | 00:00:00 | 02:20:25 | 00:00:00 | |
| BAUMI2-15 | 2026-09-05 00:49:55 | 48.28556 | 12.91769 | 76° | 31km/h | 17337m | -9.5m/s | -57.2°C | 4.7% | 88.7hPa | 2.5V | 00:00:00 | 02:20:24 | 00:00:00 | |
| PG1ADW-2 | 2026-09-05 00:49:53 | 48.28552 | 12.91746 | 76° | 31km/h | 17356m | -9.2m/s | -57.1°C | 4.7% | 88.5hPa | 2.5V | 00:00:00 | 00:00:00 | 00:00:00 | |
| OE5REO-15 | 2026-09-05 00:49:52 | 48.28552 | 12.91747 | 76° | 31km/h | 17356m | -9.3m/s | -57.1°C | 1.5% | 88.5hPa | 2.5V | 08:14:00 | 00:00:00 | 00:00:00 | |
| DO3MHA-11 | 2026-09-05 00:49:51 | 48.28548 | 12.91724 | 75° | 29km/h | 17375m | -9.5m/s | -57.0°C | 4.7% | 88.2hPa | 2.5V | 00:00:00 | 02:20:20 | 00:00:00 | |
| BAUMI2-15 | 2026-09-05 00:49:50 | 48.28546 | 12.91713 | 77° | 29km/h | 17384m | -9.4m/s | -56.9°C | 4.6% | 88.0hPa | 2.5V | 00:00:00 | 02:20:19 | 00:00:00 | |
| OE5MMP-10 | 2026-09-05 00:49:46 | 48.28540 | 12.91669 | 79° | 31km/h | 17422m | -9.6m/s | -56.6°C | 4.4% | 87.5hPa | 2.5V | 00:00:00 | 02:20:15 | 00:00:00 | |
| BAUMI2-15 | 2026-09-05 00:49:45 | 48.28538 | 12.91658 | 78° | 31km/h | 17432m | -9.7m/s | -56.7°C | 4.4% | 87.4hPa | 2.5V | 00:00:00 | 02:20:14 | 00:00:00 | |
| DO3MHA-11 | 2026-09-05 00:49:41 | 48.28531 | 12.91613 | 77° | 35km/h | 17470m | -9.7m/s | -57.0°C | 4.5% | 86.9hPa | 2.4V | 00:00:00 | 02:20:10 | 00:00:00 | |
| BAUMI2-15 | 2026-09-05 00:49:40 | 48.28530 | 12.91601 | 78° | 33km/h | 17479m | -9.7m/s | -57.0°C | 4.6% | 86.7hPa | 2.4V | 00:00:00 | 02:20:09 | 00:00:00 | |
| OE5WHR-10 | 2026-09-05 00:49:38 | 48.28526 | 12.91577 | 80° | 42km/h | 17498m | -8.9m/s | -57.2°C | 4.6% | 86.4hPa | 2.4V | 00:00:00 | 00:00:00 | 00:00:00 | |
| OE5MMP-10 | 2026-09-05 00:49:36 | 48.28523 | 12.91553 | 84° | 38km/h | 17516m | -9.0m/s | -57.2°C | 4.7% | 86.2hPa | 2.4V | 00:00:00 | 02:20:05 | 00:00:00 | |
| BAUMI2-15 | 2026-09-05 00:49:35 | 48.28522 | 12.91540 | 85° | 37km/h | 17525m | -9.1m/s | -57.3°C | 4.6% | 86.1hPa | 2.4V | 00:00:00 | 02:20:04 | 00:00:00 | |
| PG1ADW-2 | 2026-09-05 00:49:33 | 48.28521 | 12.91513 | 87° | 46km/h | 17543m | -8.8m/s | -57.3°C | 4.7% | 85.9hPa | 2.4V | 00:00:00 | 00:00:00 | 00:00:00 | |
| DO3MHA-11 | 2026-09-05 00:49:30 | 48.28521 | 12.91470 | 92° | 44km/h | 17569m | -8.6m/s | -57.5°C | 4.8% | 85.4hPa | 2.4V | 00:00:00 | 02:19:59 | 00:00:00 | |
| OE5HKT-10 | 2026-09-05 00:49:29 | 48.28521 | 12.91455 | 92° | 42km/h | 17578m | -8.9m/s | -57.5°C | 4.8% | 85.4hPa | 2.4V | 00:00:00 | 00:00:00 | 00:00:00 | |
| OE5MMP-10 | 2026-09-05 00:49:26 | 48.28523 | 12.91407 | 97° | 47km/h | 17604m | -8.7m/s | -57.4°C | 4.8% | 85.0hPa | 2.4V | 00:00:00 | 02:19:55 | 00:00:00 | |
| BAUMI2-15 | 2026-09-05 00:49:25 | 48.28524 | 12.91390 | 96° | 46km/h | 17613m | -8.7m/s | -57.4°C | 4.7% | 84.9hPa | 2.4V | 00:00:00 | 02:19:54 | 00:00:00 | |
| OE5DXL-15 | 2026-09-05 00:49:23 | 48.28527 | 12.91355 | 96° | 49km/h | 17631m | -9.1m/s | -57.4°C | 4.7% | 84.6hPa | 2.4V | 00:00:00 | 00:00:00 | 00:00:00 | |
| DL6DJ-15 | 2026-09-05 00:49:22 | 48.28530 | 12.91320 | 96° | 46km/h | 17648m | -8.4m/s | -57.4°C | 1.5% | 84.5hPa | 2.4V | 00:00:00 | 00:00:00 | 00:00:00 | |
| BAUMI2-15 | 2026-09-05 00:49:20 | 48.28531 | 12.91303 | 99° | 49km/h | 17657m | -8.7m/s | -57.4°C | 4.8% | 84.3hPa | 2.4V | 00:00:00 | 02:19:49 | 00:00:00 | |
| OE5REO-15 | 2026-09-05 00:49:19 | 48.28532 | 12.91303 | 99° | 47km/h | 17657m | -8.7m/s | -57.4°C | 1.5% | 84.4hPa | 2.4V | 08:15:00 | 00:00:00 | 00:00:00 | |
| OE5WHR-10 | 2026-09-05 00:49:17 | 48.28537 | 12.91248 | 99° | 51km/h | 17683m | -8.6m/s | -57.4°C | 4.8% | 84.0hPa | 2.4V | 00:00:00 | 02:19:46 | 00:00:00 | |
| OE5MMP-10 | 2026-09-05 00:49:16 | 48.28539 | 12.91230 | 102° | 55km/h | 17692m | -8.9m/s | -57.4°C | 4.8% | 83.8hPa | 2.4V | 00:00:00 | 02:19:45 | 00:00:00 | |
| BAUMI2-15 | 2026-09-05 00:49:15 | 48.28542 | 12.91210 | 101° | 55km/h | 17701m | -8.9m/s | -57.3°C | 4.8% | 83.7hPa | 2.4V | 00:00:00 | 02:19:44 | 00:00:00 | |
| BAUMI2-15 | 2026-09-05 00:49:10 | 48.28558 | 12.91110 | 108° | 57km/h | 17746m | -9.2m/s | -57.4°C | 4.9% | 83.2hPa | 2.4V | 00:00:00 | 02:19:39 | 00:00:00 | |
| OE5FHM-15 | 2026-09-05 00:49:08 | 48.28568 | 12.91069 | 110° | 40km/h | 17765m | -8.9m/s | -57.2°C | 4.9% | 82.9hPa | 2.4V | 00:00:00 | 02:19:37 | 00:00:00 | |
| OE5MMP-10 | 2026-09-05 00:49:06 | 48.28577 | 12.91029 | 112° | 49km/h | 17784m | -9.1m/s | -57.0°C | 4.8% | 82.6hPa | 2.4V | 00:00:00 | 02:19:35 | 00:00:00 | |
| BAUMI2-15 | 2026-09-05 00:49:05 | 48.28582 | 12.91009 | 111° | 51km/h | 17793m | -9.0m/s | -57.1°C | 4.8% | 82.5hPa | 2.4V | 00:00:00 | 02:19:34 | 00:00:00 | |
| OE5REO-15 | 2026-09-05 00:49:03 | 48.28587 | 12.90990 | 111° | 53km/h | 17802m | -9.5m/s | -57.2°C | 1.5% | 82.4hPa | 2.4V | 08:15:00 | 00:00:00 | 00:00:00 | |
| DL6DJ-15 | 2026-09-05 00:48:51 | 48.28628 | 12.90772 | 100° | 35km/h | 17940m | -10.2m/s | -56.1°C | 1.3% | 80.6hPa | 2.4V | 00:00:00 | 00:00:00 | 00:00:00 | |
| BAUMI2-15 | 2026-09-05 00:48:50 | 48.28628 | 12.90772 | 101° | 33km/h | 17941m | -10.1m/s | -56.0°C | 4.2% | 80.5hPa | 2.4V | 00:00:00 | 02:19:19 | 00:00:00 | |
| OE5REO-15 | 2026-09-05 00:48:47 | 48.28630 | 12.90747 | 97° | 35km/h | 17960m | -9.9m/s | -56.1°C | 1.3% | 80.4hPa | 2.4V | 08:16:00 | 00:00:00 | 00:00:00 | |
| OE5MMP-10 | 2026-09-05 00:48:46 | 48.28631 | 12.90722 | 96° | 31km/h | 17980m | -10.0m/s | -56.2°C | 4.3% | 80.1hPa | 2.4V | 00:00:00 | 02:19:15 | 00:00:00 | |
| BAUMI2-15 | 2026-09-05 00:48:45 | 48.28632 | 12.90709 | 94° | 33km/h | 17990m | -10.1m/s | -56.3°C | 4.3% | 80.0hPa | 2.4V | 08:15:00 | 02:19:14 | 00:00:00 | |
| OE5DRO-10 | 2026-09-05 00:48:41 | 48.28635 | 12.90661 | 97° | 29km/h | 18031m | -9.9m/s | -56.6°C | 4.3% | 79.5hPa | 2.4V | 00:00:00 | 00:00:00 | 00:00:00 | |
| BAUMI2-15 | 2026-09-05 00:48:40 | 48.28636 | 12.90649 | 98° | 29km/h | 18041m | -10.6m/s | -56.6°C | 4.4% | 79.3hPa | 2.4V | 00:00:00 | 02:19:09 | 00:00:00 | |
| OE5FHM-15 | 2026-09-05 00:48:38 | 48.28638 | 12.90627 | 97° | 31km/h | 18062m | -10.5m/s | -56.8°C | 4.4% | 79.1hPa | 2.4V | 08:15:00 | 02:19:07 | 00:00:00 | |
| OE5MMP-10 | 2026-09-05 00:48:36 | 48.28639 | 12.90606 | 92° | 27km/h | 18083m | -10.7m/s | -57.0°C | 4.4% | 78.8hPa | 2.4V | 00:00:00 | 02:19:05 | 00:00:00 | |
| OE5WHR-10 | 2026-09-05 00:48:35 | 48.28639 | 12.90595 | 88° | 29km/h | 18094m | -10.3m/s | -57.1°C | 4.5% | 78.6hPa | 2.4V | 00:00:00 | 00:00:00 | 00:00:00 | |
| PG1ADW-2 | 2026-09-05 00:48:33 | 48.28637 | 12.90574 | 79° | 29km/h | 18115m | -10.3m/s | -57.2°C | 4.5% | 78.4hPa | 2.4V | 08:15:00 | 00:00:00 | 00:00:00 | |
| OE5REO-15 | 2026-09-05 00:48:32 | 48.28635 | 12.90564 | 74° | 27km/h | 18125m | -10.4m/s | -57.3°C | 1.4% | 78.3hPa | 2.5V | 08:16:00 | 00:00:00 | 00:00:00 | |
| OE5MMP-10 | 2026-09-05 00:48:26 | 48.28618 | 12.90507 | 65° | 31km/h | 18186m | -10.3m/s | -57.6°C | 4.8% | 77.5hPa | 2.5V | 00:00:00 | 02:18:55 | 00:00:00 | |
| OE5DXL-15 | 2026-09-05 00:48:23 | 48.28608 | 12.90476 | 66° | 35km/h | 18217m | -10.0m/s | -57.4°C | 4.6% | 77.2hPa | 2.6V | 00:00:00 | 00:00:00 | 00:00:00 | |
| OE5DRO-10 | 2026-09-05 00:48:22 | 48.28605 | 12.90465 | 67° | 37km/h | 18227m | -10.6m/s | -57.3°C | 4.5% | 77.0hPa | 2.6V | 00:00:00 | 00:00:00 | 00:00:00 | |
| DL6DJ-15 | 2026-09-05 00:48:19 | 48.28596 | 12.90433 | 66° | 27km/h | 18258m | -10.1m/s | -57.5°C | 1.4% | 76.7hPa | 2.5V | 00:00:00 | 00:00:00 | 00:00:00 | |
| OE5REO-15 | 2026-09-05 00:48:16 | 48.28588 | 12.90401 | 73° | 31km/h | 18288m | -10.4m/s | -57.6°C | 1.4% | 76.3hPa | 2.5V | 08:16:00 | 00:00:00 | 00:00:00 | |
| OE5WHR-10 | 2026-09-05 00:48:14 | 48.28583 | 12.90379 | 74° | 38km/h | 18309m | -10.1m/s | -57.5°C | 4.6% | 76.0hPa | 2.5V | 00:00:00 | 02:18:43 | 00:00:00 | |
| PG1ADW-2 | 2026-09-05 00:48:13 | 48.28581 | 12.90367 | 74° | 38km/h | 18319m | -10.8m/s | -57.6°C | 4.7% | 75.9hPa | 2.5V | 00:00:00 | 00:00:00 | 00:00:00 | |
| OE3MUC-15 | 2026-09-05 00:48:11 | 48.28577 | 12.90342 | 77° | 37km/h | 18341m | -10.7m/s | 0°C | 0% | 0hPa | 2.5V | 00:00:00 | 00:00:00 | 00:00:00 | |
| OE5FHM-15 | 2026-09-05 00:48:08 | 48.28571 | 12.90301 | 80° | 38km/h | 18373m | -10.7m/s | -57.8°C | 4.8% | 75.2hPa | 2.5V | 00:00:00 | 02:18:37 | 00:00:00 | |
| OE5MMP-10 | 2026-09-05 00:48:06 | 48.28568 | 12.90271 | 85° | 38km/h | 18395m | -11.0m/s | -57.9°C | 4.8% | 75.0hPa | 2.5V | 00:00:00 | 02:18:35 | 00:00:00 | |
| OE3MUC-15 | 2026-09-05 00:48:02 | 48.28568 | 12.90211 | 94° | 40km/h | 18439m | -11.3m/s | 0°C | 0% | 0hPa | 2.5V | 00:00:00 | 00:00:00 | 00:00:00 | |
| OE5DRO-10 | 2026-09-05 00:47:59 | 48.28570 | 12.90168 | 99° | 31km/h | 18472m | -11.3m/s | -57.8°C | 4.8% | 74.1hPa | 2.5V | 00:00:00 | 00:00:00 | 00:00:00 | |
| OE3MUC-15 | 2026-09-05 00:47:58 | 48.28572 | 12.90153 | 100° | 38km/h | 18483m | -10.7m/s | 0°C | 0% | 0hPa | 2.5V | 00:00:00 | 00:00:00 | 00:00:00 | |
| OE5MMP-10 | 2026-09-05 00:47:56 | 48.28576 | 12.90125 | 105° | 38km/h | 18505m | -11.1m/s | -57.8°C | 4.8% | 73.7hPa | 2.5V | 00:00:00 | 02:18:25 | 00:00:00 | |
| OE5WHR-10 | 2026-09-05 00:47:53 | 48.28583 | 12.90084 | 104° | 38km/h | 18538m | -10.8m/s | -57.3°C | 4.5% | 73.3hPa | 2.5V | 08:16:00 | 00:00:00 | 00:00:00 | |
| DM0DOS-11 | 2026-09-05 00:47:48 | 48.28599 | 12.89943 | 95° | 35km/h | 18647m | -11.1m/s | -57.7°C | 4.6% | 0hPa | 2.5V | 08:16:48 | 02:18:12 | 00:00:00 | |
| OE3MUC-15 | 2026-09-05 00:47:47 | 48.28593 | 12.89998 | 100° | 29km/h | 18604m | -11.1m/s | 0°C | 0% | 0hPa | 2.6V | 00:00:00 | 00:00:00 | 00:00:00 | |
| OE5MMP-10 | 2026-09-05 00:47:46 | 48.28595 | 12.89984 | 99° | 37km/h | 18615m | -11.0m/s | -57.7°C | 4.6% | 72.4hPa | 2.6V | 00:00:00 | 02:18:15 | 00:00:00 | |
| OE5REO-15 | 2026-09-05 00:47:42 | 48.28599 | 12.89943 | 97° | 35km/h | 18647m | -11.1m/s | -57.7°C | 1.4% | 72.1hPa | 2.6V | 08:17:00 | 00:00:00 | 00:00:00 | |
| OE5FHM-15 | 2026-09-05 00:47:38 | 48.28601 | 12.89876 | 89° | 40km/h | 18701m | -10.6m/s | -57.9°C | 4.7% | 71.4hPa | 2.6V | 00:00:00 | 02:18:07 | 00:00:00 | |
| DM0DOS-11 | 2026-09-05 00:47:37 | 48.28600 | 12.89782 | 91° | 46km/h | 18765m | -10.4m/s | -58.4°C | 5.1% | 0hPa | 2.6V | 08:16:59 | 02:18:01 | 00:00:00 | |
| OE5MMP-10 | 2026-09-05 00:47:36 | 48.28600 | 12.89847 | 87° | 42km/h | 18723m | -10.6m/s | -58.0°C | 4.9% | 71.2hPa | 2.5V | 00:00:00 | 02:18:05 | 00:00:00 | |
| PG1ADW-2 | 2026-09-05 00:47:33 | 48.28599 | 12.89799 | 91° | 38km/h | 18754m | -10.4m/s | -58.3°C | 5.0% | 70.8hPa | 2.5V | 00:00:00 | 02:18:02 | 00:00:00 | |
| OE5WHR-10 | 2026-09-05 00:47:32 | 48.28600 | 12.89782 | 92° | 38km/h | 18765m | -10.3m/s | -58.4°C | 5.1% | 70.7hPa | 2.6V | 00:00:00 | 00:00:00 | 00:00:00 | |
| DM0DOS-11 | 2026-09-05 00:47:27 | 48.28622 | 12.89639 | 106° | 35km/h | 18869m | -10.2m/s | -58°C | 5.1% | 0hPa | 2.6V | 08:17:09 | 02:17:51 | 00:00:00 | |
| OE5MMP-10 | 2026-09-05 00:47:26 | 48.28610 | 12.89688 | 108° | 37km/h | 18828m | -10.5m/s | -58.4°C | 5.2% | 70.0hPa | 2.5V | 08:17:00 | 02:17:55 | 00:00:00 | |
| OE5DXL-15 | 2026-09-05 00:47:23 | 48.28619 | 12.89651 | 109° | 31km/h | 18859m | -10.1m/s | -57.9°C | 5.1% | 69.6hPa | 2.5V | 08:17:00 | 00:00:00 | 00:00:00 | |
| DM0DOS-11 | 2026-09-05 00:47:17 | 48.28647 | 12.89497 | 103° | 40km/h | 18972m | -10.5m/s | 0°C | 0% | 0hPa | 2.6V | 00:00:00 | 02:17:41 | 00:00:00 | |
| OE5MMP-10 | 2026-09-05 00:47:16 | 48.28636 | 12.89557 | 104° | 38km/h | 18931m | -10.4m/s | -56.8°C | 4.8% | 68.9hPa | 2.5V | 00:00:00 | 02:17:45 | 00:00:00 | |
| PG1ADW-2 | 2026-09-05 00:47:13 | 48.28644 | 12.89512 | 107° | 29km/h | 18962m | -10.4m/s | -56.6°C | 4.8% | 68.5hPa | 2.5V | 00:00:00 | 00:00:00 | 00:00:00 | |
| OE5WHR-10 | 2026-09-05 00:47:11 | 48.28649 | 12.89482 | 105° | 27km/h | 18983m | -9.8m/s | -56.5°C | 4.8% | 68.3hPa | 2.5V | 00:00:00 | 02:17:40 | 00:00:00 | |
| OE5REO-15 | 2026-09-05 00:47:10 | 48.28649 | 12.89482 | 105° | 38km/h | 18983m | -9.9m/s | -56.6°C | 1.4% | 68.3hPa | 2.5V | 08:18:00 | 00:00:00 | 00:00:00 | |
| OE5FHM-15 | 2026-09-05 00:47:08 | 48.28654 | 12.89441 | 97° | 26km/h | 19013m | -9.8m/s | -55.9°C | 4.4% | 68.0hPa | 2.5V | 00:00:00 | 02:17:37 | 00:00:00 | |
| OE5MMP-10 | 2026-09-05 00:47:06 | 48.28656 | 12.89418 | 95° | 26km/h | 19033m | -10.1m/s | -55.8°C | 4.4% | 67.8hPa | 2.5V | 00:00:00 | 02:17:35 | 00:00:00 | |
| DM0DOS-11 | 2026-09-05 00:47:02 | 48.28659 | 12.89358 | 86° | 24km/h | 19097m | -10.9m/s | 0°C | 0% | 0hPa | 2.5V | 00:00:00 | 02:17:29 | 00:00:00 | |
| OE5MMP-10 | 2026-09-05 00:46:56 | 48.28655 | 12.89324 | 71° | 24km/h | 19141m | -10.4m/s | -54.5°C | 3.8% | 66.6hPa | 2.6V | 00:00:00 | 02:17:25 | 00:00:00 | |
| OE5REO-15 | 2026-09-05 00:46:54 | 48.28653 | 12.89316 | 71° | 22km/h | 19151m | -11.0m/s | -54.7°C | 1.2% | 66.6hPa | 2.5V | 08:18:00 | 00:00:00 | 00:00:00 | |
| PG1ADW-2 | 2026-09-05 00:46:53 | 48.28649 | 12.89300 | 68° | 26km/h | 19174m | -11.0m/s | -54.8°C | 3.9% | 66.3hPa | 2.5V | 00:00:00 | 00:00:00 | 00:00:00 | |
| OE5WHR-10 | 2026-09-05 00:46:50 | 48.28641 | 12.89276 | 64° | 27km/h | 19207m | -11.1m/s | -55.2°C | 4.0% | 66.0hPa | 2.5V | 00:00:00 | 00:00:00 | 00:00:00 | |
| OE5MMP-10 | 2026-09-05 00:46:46 | 48.28632 | 12.89245 | 64° | 26km/h | 19251m | -10.9m/s | -55.6°C | 4.1% | 65.4hPa | 2.6V | 00:00:00 | 02:17:15 | 00:00:00 | |
| DM0DOS-11 | 2026-09-05 00:46:42 | 48.28605 | 12.89153 | 64° | 31km/h | 19362m | -11.3m/s | 0°C | 0% | 0hPa | 2.6V | 00:00:00 | 02:17:05 | 00:00:00 | |
| OE5REO-15 | 2026-09-05 00:46:39 | 48.28617 | 12.89194 | 67° | 27km/h | 19318m | -11.0m/s | -56.3°C | 1.3% | 64.8hPa | 2.5V | 08:18:00 | 00:00:00 | 00:00:00 | |
| OE5FHM-15 | 2026-09-05 00:46:38 | 48.28612 | 12.89175 | 65° | 27km/h | 19340m | -10.5m/s | -56.4°C | 4.4% | 64.6hPa | 2.5V | 00:00:00 | 02:17:07 | 00:00:00 | |
| OE8JPQ-2 | 2026-09-05 00:46:37 | 48.28608 | 12.89164 | 68° | 29km/h | 19351m | -10.6m/s | -56.5°C | 4.4% | 64.5hPa | 2.5V | 00:00:00 | 00:00:00 | 00:00:00 | |
| OE5MMP-10 | 2026-09-05 00:46:36 | 48.28605 | 12.89153 | 65° | 31km/h | 19362m | -11.2m/s | -56.6°C | 4.4% | 64.4hPa | 2.5V | 00:00:00 | 02:17:05 | 00:00:00 | |
| BAUMI2-15 | 2026-09-05 00:46:35 | 48.28602 | 12.89142 | 69° | 31km/h | 19373m | -10.8m/s | -56.7°C | 4.5% | 64.2hPa | 2.5V | 00:00:00 | 02:17:04 | 00:00:00 | |
| PG1ADW-2 | 2026-09-05 00:46:33 | 48.28596 | 12.89120 | 71° | 27km/h | 19395m | -11.0m/s | -56.7°C | 4.5% | 64.0hPa | 2.5V | 00:00:00 | 00:00:00 | 00:00:00 | |
| BAUMI2-15 | 2026-09-05 00:46:30 | 48.28589 | 12.89085 | 75° | 31km/h | 19428m | -11.0m/s | -56.6°C | 4.4% | 63.7hPa | 2.5V | 00:00:00 | 02:16:59 | 00:00:00 | |
| OE5WHR-10 | 2026-09-05 00:46:29 | 48.28587 | 12.89074 | 80° | 26km/h | 19439m | -10.6m/s | -56.7°C | 4.4% | 63.6hPa | 2.6V | 00:00:00 | 00:00:00 | 00:00:00 | |
| OE5MMP-10 | 2026-09-05 00:46:26 | 48.28583 | 12.89041 | 78° | 27km/h | 19472m | -10.9m/s | -56.9°C | 4.5% | 63.2hPa | 2.6V | 00:00:00 | 02:16:55 | 00:00:00 | |
| BAUMI2-15 | 2026-09-05 00:46:25 | 48.28581 | 12.89030 | 80° | 29km/h | 19483m | -10.7m/s | -57.0°C | 4.6% | 63.1hPa | 2.6V | 00:00:00 | 02:16:54 | 00:00:00 | |
| OE5DXL-15 | 2026-09-05 00:46:23 | 48.28578 | 12.89008 | 77° | 26km/h | 19504m | -10.7m/s | -57.1°C | 4.7% | 62.9hPa | 2.6V | 00:00:00 | 00:00:00 | 00:00:00 | |
| BAUMI2-15 | 2026-09-05 00:46:20 | 48.28572 | 12.88976 | 75° | 26km/h | 19537m | -10.9m/s | -57.1°C | 4.6% | 62.6hPa | 2.6V | 00:00:00 | 02:16:49 | 00:00:00 | |
| OE8JPQ-2 | 2026-09-05 00:46:17 | 48.28569 | 12.88947 | 85° | 24km/h | 19571m | -10.9m/s | -57.1°C | 4.7% | 62.2hPa | 2.6V | 00:00:00 | 02:16:46 | 00:00:00 | |
| OE5MMP-10 | 2026-09-05 00:46:16 | 48.28568 | 12.88938 | 81° | 22km/h | 19582m | -11.5m/s | -57.1°C | 4.7% | 62.1hPa | 2.6V | 00:00:00 | 02:16:45 | 00:00:00 | |
| BAUMI2-15 | 2026-09-05 00:46:15 | 48.28567 | 12.88930 | 86° | 22km/h | 19593m | -11.2m/s | -57.1°C | 4.6% | 62.0hPa | 2.6V | 00:00:00 | 02:16:44 | 00:00:00 | |
| PG1ADW-2 | 2026-09-05 00:46:13 | 48.28566 | 12.88914 | 83° | 24km/h | 19616m | -11.5m/s | -57.1°C | 4.7% | 61.8hPa | 2.6V | 00:00:00 | 02:16:42 | 00:00:00 | |
| BAUMI2-15 | 2026-09-05 00:46:10 | 48.28562 | 12.88891 | 71° | 22km/h | 19650m | -11.2m/s | -57.3°C | 4.8% | 61.5hPa | 2.6V | 00:00:00 | 02:16:39 | 00:00:00 | |
| OE5WHR-10 | 2026-09-05 00:46:08 | 48.28559 | 12.88875 | 70° | 27km/h | 19673m | -11.5m/s | -57.3°C | 4.9% | 61.3hPa | 2.6V | 00:00:00 | 02:16:37 | 00:00:00 | |
| OE5REO-15 | 2026-09-05 00:46:07 | 48.28559 | 12.88875 | 70° | 22km/h | 19673m | -11.5m/s | -57.4°C | 1.4% | 61.3hPa | 2.6V | 08:19:00 | 00:00:00 | 00:00:00 | |
| OE5MMP-10 | 2026-09-05 00:46:06 | 48.28555 | 12.88858 | 70° | 26km/h | 19696m | -11.2m/s | -57.2°C | 4.9% | 61.1hPa | 2.6V | 00:00:00 | 02:16:35 | 00:00:00 | |
| BAUMI2-15 | 2026-09-05 00:46:05 | 48.28553 | 12.88849 | 74° | 26km/h | 19707m | -11.5m/s | -57.0°C | 4.8% | 60.9hPa | 2.6V | 00:00:00 | 02:16:34 | 00:00:00 | |
| DL6DJ-15 | 2026-09-05 00:45:44 | 48.28485 | 12.88655 | 62° | 29km/h | 19951m | -11.5m/s | -56.0°C | 1.3% | 58.6hPa | 2.6V | 00:00:00 | 00:00:00 | 00:00:00 | |
| DO3MHA-11 | 2026-09-05 00:45:43 | 48.28481 | 12.88645 | 65° | 22km/h | 19963m | -11.4m/s | -56.0°C | 4.3% | 58.5hPa | 2.6V | 00:00:00 | 02:16:12 | 00:00:00 | |
| BAUMI2-15 | 2026-09-05 00:45:40 | 48.28472 | 12.88616 | 67° | 24km/h | 19998m | -11.4m/s | -56.1°C | 4.3% | 58.1hPa | 2.6V | 00:00:00 | 02:16:09 | 00:00:00 | |
| OE5FHM-15 | 2026-09-05 00:45:38 | 48.28468 | 12.88599 | 70° | 16km/h | 20021m | -11.6m/s | -56.2°C | 4.3% | 57.9hPa | 2.6V | 00:00:00 | 02:16:07 | 00:00:00 | |
| DG1MFX-10 | 2026-09-05 00:45:36 | 48.28464 | 12.88582 | 74° | 22km/h | 20044m | -11.5m/s | -56.4°C | 1.3% | 57.8hPa | 2.6V | 00:00:00 | 00:00:00 | 00:00:00 | |
| BAUMI2-15 | 2026-09-05 00:45:35 | 48.28462 | 12.88575 | 73° | 20km/h | 20056m | -11.6m/s | -56.4°C | 4.4% | 57.6hPa | 2.6V | 00:00:00 | 02:16:04 | 00:00:00 | |
| OE5REO-15 | 2026-09-05 00:45:34 | 48.28462 | 12.88575 | 74° | 22km/h | 20056m | -11.7m/s | -56.4°C | 1.3% | 57.6hPa | 2.6V | 08:19:00 | 00:00:00 | 00:00:00 | |
| PG1ADW-2 | 2026-09-05 00:45:33 | 48.28459 | 12.88559 | 73° | 15km/h | 20079m | -11.5m/s | -56.4°C | 4.4% | 57.4hPa | 2.6V | 08:18:00 | 00:00:00 | 00:00:00 | |
| BAUMI2-15 | 2026-09-05 00:45:30 | 48.28455 | 12.88537 | 77° | 20km/h | 20114m | -11.6m/s | -56.4°C | 4.4% | 57.1hPa | 2.5V | 00:00:00 | 02:15:59 | 00:00:00 | |
| OE5MMP-10 | 2026-09-05 00:45:26 | 48.28452 | 12.88508 | 91° | 13km/h | 20161m | -11.8m/s | -56.6°C | 4.4% | 56.7hPa | 2.6V | 00:00:00 | 02:15:55 | 00:00:00 | |
| BAUMI2-15 | 2026-09-05 00:45:25 | 48.28452 | 12.88501 | 92° | 15km/h | 20173m | -11.7m/s | -56.6°C | 4.4% | 56.5hPa | 2.5V | 00:00:00 | 02:15:54 | 00:00:00 | |
| DO3MHA-11 | 2026-09-05 00:45:23 | 48.28453 | 12.88489 | 98° | 11km/h | 20196m | -11.9m/s | -56.8°C | 4.5% | 56.3hPa | 2.5V | 00:00:00 | 02:15:52 | 00:00:00 | |
| BAUMI2-15 | 2026-09-05 00:45:20 | 48.28455 | 12.88475 | 101° | 9km/h | 20231m | -11.2m/s | -56.9°C | 4.6% | 56.1hPa | 2.5V | 00:00:00 | 02:15:49 | 00:00:00 | |
| OE5HKT-10 | 2026-09-05 00:45:19 | 48.28455 | 12.88471 | 95° | 18km/h | 20242m | -11.5m/s | -56.9°C | 4.6% | 56.0hPa | 2.5V | 00:00:00 | 00:00:00 | 00:00:00 | |
| OE5MMP-10 | 2026-09-05 00:45:16 | 48.28455 | 12.88460 | 92° | 13km/h | 20278m | -11.8m/s | -56.8°C | 4.6% | 55.7hPa | 2.6V | 00:00:00 | 02:15:45 | 00:00:00 | |
| BAUMI2-15 | 2026-09-05 00:45:15 | 48.28455 | 12.88457 | 75° | 11km/h | 20290m | -11.9m/s | -56.7°C | 4.6% | 55.6hPa | 2.6V | 08:19:00 | 02:15:44 | 00:00:00 | |
| PG1ADW-2 | 2026-09-05 00:45:13 | 48.28454 | 12.88451 | 65° | 26km/h | 20314m | -12.1m/s | -56.5°C | 4.5% | 55.3hPa | 2.5V | 00:00:00 | 00:00:00 | 00:00:00 | |
| BAUMI2-15 | 2026-09-05 00:45:10 | 48.28450 | 12.88439 | 64° | 18km/h | 20350m | -12.3m/s | -56.3°C | 4.4% | 55.0hPa | 2.5V | 00:00:00 | 02:15:39 | 00:00:00 | |
| OE5FHM-15 | 2026-09-05 00:45:08 | 48.28446 | 12.88428 | 63° | 33km/h | 20375m | -12.4m/s | -56.4°C | 4.5% | 54.8hPa | 2.5V | 00:00:00 | 02:15:37 | 00:00:00 | |
| OE5MMP-10 | 2026-09-05 00:45:06 | 48.28441 | 12.88415 | 64° | 27km/h | 20400m | -12.1m/s | -56.5°C | 4.5% | 54.6hPa | 2.5V | 00:00:00 | 02:15:35 | 00:00:00 | |
| OE5WHR-10 | 2026-09-05 00:45:05 | 48.28439 | 12.88408 | 64° | 35km/h | 20412m | -12.3m/s | -56.5°C | 4.5% | 54.5hPa | 2.5V | 00:00:00 | 02:15:34 | 00:00:00 | |
| OE5REO-15 | 2026-09-05 00:45:04 | 48.28439 | 12.88408 | 65° | 24km/h | 20412m | -12.3m/s | -56.6°C | 1.3% | 54.5hPa | 2.5V | 08:19:00 | 00:00:00 | 00:00:00 | |
| BAUMI2-15 | 2026-09-05 00:45:00 | 48.28428 | 12.88360 | 76° | 35km/h | 20473m | -12.6m/s | -56.6°C | 4.6% | 54.0hPa | 2.5V | 00:00:00 | 02:15:29 | 00:00:00 | |
| OE5HKT-10 | 2026-09-05 00:44:57 | 48.28422 | 12.88323 | 79° | 35km/h | 20511m | -12.4m/s | -56.5°C | 4.6% | 53.7hPa | 2.6V | 00:00:00 | 00:00:00 | 00:00:00 | |
| OE5MMP-10 | 2026-09-05 00:44:56 | 48.28421 | 12.88310 | 83° | 40km/h | 20523m | -12.3m/s | -56.4°C | 4.6% | 53.5hPa | 2.6V | 00:00:00 | 02:15:25 | 00:00:00 | |
| DG1MFX-10 | 2026-09-05 00:44:55 | 48.28419 | 12.88295 | 83° | 38km/h | 20536m | -12.6m/s | -56.2°C | 1.3% | 53.5hPa | 2.6V | 00:00:00 | 00:00:00 | 00:00:00 | |
| PG1ADW-2 | 2026-09-05 00:44:53 | 48.28418 | 12.88266 | 84° | 33km/h | 20561m | -12.6m/s | -56.2°C | 4.6% | 53.3hPa | 2.6V | 00:00:00 | 02:15:22 | 00:00:00 | |
| BAUMI2-15 | 2026-09-05 00:44:50 | 48.28416 | 12.88220 | 91° | 38km/h | 20598m | -12.5m/s | -56.3°C | 4.6% | 52.9hPa | 2.6V | 00:00:00 | 02:15:19 | 00:00:00 | |
| DB0UT-7 | 2026-09-05 00:44:46 | 48.28417 | 12.88160 | 97° | 26km/h | 20649m | -12.5m/s | -55.9°C | 4.5% | 52.5hPa | 2.6V | 00:00:00 | 02:15:15 | 00:00:00 | |
| BAUMI2-15 | 2026-09-05 00:44:45 | 48.28418 | 12.88147 | 96° | 33km/h | 20661m | -12.7m/s | -55.9°C | 4.5% | 52.4hPa | 2.6V | 00:00:00 | 02:15:14 | 00:00:00 | |
| OE5WHR-10 | 2026-09-05 00:44:44 | 48.28419 | 12.88134 | 99° | 22km/h | 20674m | -12.8m/s | -55.9°C | 4.5% | 52.3hPa | 2.6V | 08:19:00 | 00:00:00 | 00:00:00 | |
| DL6DJ-15 | 2026-09-05 00:44:42 | 48.28421 | 12.88109 | 98° | 29km/h | 20699m | -12.9m/s | -56.0°C | 1.3% | 52.1hPa | 2.6V | 00:00:00 | 00:00:00 | 00:00:00 | |
| BAUMI2-15 | 2026-09-05 00:44:40 | 48.28423 | 12.88088 | 100° | 27km/h | 20725m | -13.2m/s | -56.0°C | 4.6% | 51.8hPa | 2.6V | 00:00:00 | 02:15:09 | 00:00:00 | |
| OE5FHM-15 | 2026-09-05 00:44:38 | 48.28425 | 12.88068 | 101° | 18km/h | 20751m | -12.7m/s | -55.9°C | 4.6% | 51.7hPa | 2.6V | 00:00:00 | 02:15:07 | 00:00:00 | |
| OE5MMP-10 | 2026-09-05 00:44:36 | 48.28427 | 12.88049 | 100° | 18km/h | 20776m | -12.8m/s | -55.7°C | 4.6% | 51.4hPa | 2.6V | 00:00:00 | 02:15:05 | 00:00:00 | |
| OE5HKT-10 | 2026-09-05 00:44:35 | 48.28428 | 12.88040 | 97° | 16km/h | 20789m | -13.1m/s | -55.6°C | 4.5% | 51.3hPa | 2.6V | 00:00:00 | 02:15:04 | 00:00:00 | |
| PG1ADW-2 | 2026-09-05 00:44:33 | 48.28430 | 12.88024 | 99° | 18km/h | 20815m | -12.7m/s | -55.4°C | 4.4% | 51.1hPa | 2.6V | 00:00:00 | 00:00:00 | 00:00:00 | |
| OE5REO-15 | 2026-09-05 00:44:32 | 48.28430 | 12.88024 | 99° | 18km/h | 20815m | -12.8m/s | -55.5°C | 1.3% | 51.1hPa | 2.5V | 08:20:00 | 00:00:00 | 00:00:00 | |
| DO3MHA-11 | 2026-09-05 00:44:28 | 48.28436 | 12.87996 | 116° | 20km/h | 20881m | -13.0m/s | -55.3°C | 4.4% | 50.6hPa | 2.5V | 00:00:00 | 02:14:57 | 00:00:00 | |
| OE5MMP-10 | 2026-09-05 00:44:26 | 48.28439 | 12.87984 | 114° | 20km/h | 20907m | -13.0m/s | -55.3°C | 4.4% | 50.3hPa | 2.5V | 08:20:00 | 02:14:55 | 00:00:00 | |
| DM0DOS-11 | 2026-09-05 00:44:25 | 48.28445 | 12.87931 | 87° | 22km/h | 21000m | -13.4m/s | 0°C | 0% | 0hPa | 2.5V | 00:00:00 | 02:14:48 | 00:00:00 | |
| OE5DXL-15 | 2026-09-05 00:44:23 | 48.28445 | 12.87956 | 95° | 13km/h | 20960m | -13.2m/s | -54.7°C | 4.2% | 49.9hPa | 2.6V | 00:00:00 | 00:00:00 | 00:00:00 | |
| DO3MHA-11 | 2026-09-05 00:44:18 | 48.28445 | 12.87923 | 85° | 42km/h | 21013m | -13.3m/s | -54.0°C | 4.0% | 49.5hPa | 2.5V | 00:00:00 | 02:14:47 | 08:30:00 | |
| OE5REO-15 | 2026-09-05 00:44:17 | 48.28445 | 12.87923 | 86° | 22km/h | 21013m | -13.4m/s | -54.1°C | 1.1% | 49.6hPa | 2.6V | 08:20:00 | 00:00:00 | 00:00:00 | |
| OE5MMP-10 | 2026-09-05 00:44:16 | 48.28444 | 12.87908 | 85° | 13km/h | 21039m | -12.7m/s | -54.0°C | 3.9% | 49.3hPa | 2.6V | 00:00:00 | 02:14:45 | 00:00:00 | |
| PG1ADW-2 | 2026-09-05 00:44:13 | 48.28443 | 12.87890 | 97° | 9km/h | 21079m | -13.5m/s | -54.1°C | 3.9% | 49.0hPa | 2.6V | 00:00:00 | 00:00:00 | 00:00:00 | |
| DL6DJ-15 | 2026-09-05 00:44:11 | 48.28445 | 12.87881 | 109° | 11km/h | 21106m | -13.3m/s | -54.3°C | 1.1% | 48.9hPa | 2.6V | 00:00:00 | 00:00:00 | 00:00:00 | |
| DM0DOS-11 | 2026-09-05 00:44:09 | 48.28448 | 12.87871 | 119° | 9km/h | 21146m | -13.6m/s | 0°C | 0% | 0hPa | 2.6V | 00:00:00 | 02:14:37 | 00:00:00 | |
| OE5MMP-10 | 2026-09-05 00:44:06 | 48.28451 | 12.87866 | 126° | 7km/h | 21173m | -13.7m/s | -54.1°C | 3.9% | 48.3hPa | 2.6V | 00:00:00 | 02:14:35 | 00:00:00 | |
| DM0DOS-11 | 2026-09-05 00:44:04 | 48.28455 | 12.87851 | 64° | 7km/h | 21282m | -13.7m/s | 0°C | 0% | 0hPa | 2.6V | 00:00:00 | 02:14:27 | 00:00:00 | |
| OE5WHR-10 | 2026-09-05 00:44:02 | 48.28455 | 12.87859 | 109° | 13km/h | 21227m | -13.6m/s | -54.1°C | 3.9% | 47.9hPa | 2.6V | 00:00:00 | 02:14:31 | 00:00:00 | |
| OE5REO-15 | 2026-09-05 00:44:01 | 48.28455 | 12.87859 | 109° | 5km/h | 21227m | -13.7m/s | -54.2°C | 1.1% | 48.0hPa | 2.6V | 08:20:00 | 00:00:00 | 00:00:00 | |
| OE5MMP-10 | 2026-09-05 00:43:56 | 48.28453 | 12.87844 | 72° | 15km/h | 21310m | -13.8m/s | -54.6°C | 4.1% | 47.3hPa | 2.6V | 00:00:00 | 02:14:25 | 00:00:00 | |
| OE5DXL-15 | 2026-09-05 00:43:53 | 48.28451 | 12.87829 | 86° | 22km/h | 21350m | -13.3m/s | -54.9°C | 4.2% | 47.0hPa | 2.5V | 00:00:00 | 00:00:00 | 00:00:00 | |
| OE5DRO-10 | 2026-09-05 00:43:49 | 48.28451 | 12.87805 | 94° | 24km/h | 21405m | -13.7m/s | -55.2°C | 4.3% | 46.6hPa | 2.5V | 00:00:00 | 00:00:00 | 00:00:00 | |
| OE5MMP-10 | 2026-09-05 00:43:46 | 48.28452 | 12.87786 | 93° | 18km/h | 21448m | -14.0m/s | -55.2°C | 4.4% | 46.3hPa | 2.5V | 00:00:00 | 02:14:15 | 00:00:00 | |
| OE5REO-15 | 2026-09-05 00:43:45 | 48.28452 | 12.87786 | 93° | 16km/h | 21448m | -14.0m/s | -55.3°C | 1.2% | 46.3hPa | 2.5V | 08:21:00 | 00:00:00 | 00:00:00 | |
| OE5WHR-10 | 2026-09-05 00:43:41 | 48.28454 | 12.87756 | 107° | 27km/h | 21517m | -14.1m/s | -54.9°C | 4.3% | 45.8hPa | 2.5V | 00:00:00 | 00:00:00 | 00:00:00 | |
| DL6DJ-15 | 2026-09-05 00:43:40 | 48.28458 | 12.87743 | 114° | 18km/h | 21545m | -14.3m/s | -54.7°C | 1.1% | 45.6hPa | 2.6V | 00:00:00 | 00:00:00 | 00:00:00 | |
| OE5FHM-15 | 2026-09-05 00:43:38 | 48.28460 | 12.87736 | 117° | 24km/h | 21559m | -13.9m/s | -54.5°C | 4.1% | 45.5hPa | 2.6V | 00:00:00 | 02:14:07 | 00:00:00 | |
| OE5MMP-10 | 2026-09-05 00:43:36 | 48.28464 | 12.87720 | 114° | 29km/h | 21587m | -13.5m/s | -54.3°C | 4.1% | 45.2hPa | 2.6V | 00:00:00 | 02:14:05 | 00:00:00 | |
| OE5REO-15 | 2026-09-05 00:43:29 | 48.28483 | 12.87664 | 121° | 27km/h | 21671m | -14.4m/s | -54.4°C | 1.2% | 44.7hPa | 2.6V | 08:21:00 | 00:00:00 | 00:00:00 | |
| OE5MMP-10 | 2026-09-05 00:43:26 | 48.28500 | 12.87627 | 135° | 27km/h | 21728m | -14.0m/s | -54.4°C | 4.2% | 44.3hPa | 2.6V | 00:00:00 | 02:13:55 | 00:00:00 | |
| DB0UT-7 | 2026-09-05 00:43:23 | 48.28518 | 12.87601 | 142° | 22km/h | 21771m | -14.0m/s | -54.2°C | 4.1% | 44.0hPa | 2.5V | 00:00:00 | 00:00:00 | 00:00:00 | |
| OE5WHR-10 | 2026-09-05 00:43:20 | 48.28537 | 12.87583 | 155° | 16km/h | 21814m | -13.8m/s | -54.2°C | 4.1% | 43.7hPa | 2.5V | 00:00:00 | 00:00:00 | 00:00:00 | |
| OE5MMP-10 | 2026-09-05 00:43:16 | 48.28557 | 12.87571 | 170° | 13km/h | 21871m | -14.2m/s | -53.9°C | 4.0% | 43.3hPa | 2.5V | 00:00:00 | 02:13:45 | 00:00:00 | |
| OE5REO-15 | 2026-09-05 00:43:14 | 48.28561 | 12.87569 | 159° | 15km/h | 21886m | -14.8m/s | -53.8°C | 1.1% | 43.2hPa | 2.5V | 08:21:00 | 00:00:00 | 00:00:00 | |
| DL6DJ-15 | 2026-09-05 00:43:09 | 48.28580 | 12.87552 | 132° | 11km/h | 21986m | -14.3m/s | -53.8°C | 1.1% | 42.6hPa | 2.5V | 00:00:00 | 00:00:00 | 00:00:00 | |
| OE5FHM-15 | 2026-09-05 00:43:08 | 48.28580 | 12.87552 | 133° | 24km/h | 21986m | -14.2m/s | -53.7°C | 4.0% | 42.5hPa | 2.5V | 00:00:00 | 02:13:37 | 00:00:00 | |
| OE5MMP-10 | 2026-09-05 00:43:06 | 48.28584 | 12.87545 | 136° | 22km/h | 22015m | -14.3m/s | -53.7°C | 4.0% | 42.3hPa | 2.5V | 00:00:00 | 02:13:35 | 00:00:00 | |
| OE5WHR-10 | 2026-09-05 00:42:59 | 48.28608 | 12.87508 | 135° | 26km/h | 22115m | -14.3m/s | -54.1°C | 4.2% | 41.7hPa | 2.5V | 00:00:00 | 02:13:28 | 00:00:00 | |
| OE5REO-15 | 2026-09-05 00:42:58 | 48.28608 | 12.87508 | 136° | 26km/h | 22115m | -14.4m/s | -54.1°C | 1.2% | 41.7hPa | 2.5V | 08:21:00 | 00:00:00 | 00:00:00 | |
| OE5MMP-10 | 2026-09-05 00:42:56 | 48.28624 | 12.87486 | 140° | 31km/h | 22159m | -14.4m/s | -54.1°C | 4.3% | 41.4hPa | 2.5V | 08:21:00 | 02:13:25 | 00:00:00 | |
| OE5DXL-15 | 2026-09-05 00:42:53 | 48.28643 | 12.87461 | 139° | 16km/h | 22202m | -14.5m/s | -53.8°C | 4.2% | 41.1hPa | 2.5V | 08:21:00 | 00:00:00 | 00:00:00 | |
| OE5MMP-10 | 2026-09-05 00:42:46 | 48.28689 | 12.87419 | 160° | 15km/h | 22304m | -14.5m/s | -52.8°C | 3.8% | 40.4hPa | 2.6V | 00:00:00 | 02:13:15 | 00:00:00 | |
| PETON7-10 | 2026-09-05 00:42:45 | 48.28695 | 12.87416 | 165° | 15km/h | 22319m | -14.8m/s | -52.7°C | 3.8% | 40.3hPa | 2.6V | 00:00:00 | 00:00:00 | 08:30:00 | |
| OE5REO-15 | 2026-09-05 00:42:42 | 48.28705 | 12.87412 | 175° | 16km/h | 22349m | -15.1m/s | -52.6°C | 1.0% | 40.2hPa | 2.6V | 08:22:00 | 00:00:00 | 00:00:00 | |
| DL6DJ-15 | 2026-09-05 00:42:38 | 48.28720 | 12.87415 | 211° | 5km/h | 22438m | -15.2m/s | -52.3°C | 1.0% | 39.7hPa | 2.6V | 00:00:00 | 00:00:00 | 00:00:00 | |
| OE5MMP-10 | 2026-09-05 00:42:36 | 48.28721 | 12.87416 | 208° | 5km/h | 22453m | -14.4m/s | -52.3°C | 3.6% | 39.5hPa | 2.6V | 00:00:00 | 02:13:05 | 00:00:00 | |
| BAUMI2-15 | 2026-09-05 00:42:35 | 48.28722 | 12.87417 | 210° | 4km/h | 22467m | -14.7m/s | -52.5°C | 3.7% | 39.4hPa | 2.6V | 00:00:00 | 02:13:04 | 00:00:00 | |
| PG1ADW-2 | 2026-09-05 00:42:30 | 48.28727 | 12.87414 | 135° | 15km/h | 22542m | -15.2m/s | -52.5°C | 3.7% | 39.0hPa | 2.6V | 08:22:00 | 00:00:00 | 00:00:00 | |
| OE5REO-15 | 2026-09-05 00:42:27 | 48.28730 | 12.87410 | 145° | 9km/h | 22572m | -14.7m/s | -52.4°C | 1.0% | 38.8hPa | 2.5V | 08:22:00 | 00:00:00 | 00:00:00 | |
| OE5MMP-10 | 2026-09-05 00:42:26 | 48.28735 | 12.87406 | 151° | 15km/h | 22601m | -15.1m/s | -52.3°C | 3.7% | 38.7hPa | 2.5V | 00:00:00 | 02:12:55 | 00:00:00 | |
| BAUMI2-15 | 2026-09-05 00:42:25 | 48.28738 | 12.87404 | 155° | 15km/h | 22616m | -15.0m/s | -52.4°C | 3.7% | 38.5hPa | 2.5V | 00:00:00 | 02:12:54 | 00:00:00 | |
| OE5DXL-15 | 2026-09-05 00:42:23 | 48.28744 | 12.87400 | 156° | 15km/h | 22647m | -15.2m/s | -52.4°C | 3.7% | 38.3hPa | 2.5V | 00:00:00 | 00:00:00 | 00:00:00 | |
| BAUMI2-15 | 2026-09-05 00:42:20 | 48.28755 | 12.87393 | 160° | 16km/h | 22692m | -15.0m/s | -52.2°C | 3.7% | 38.1hPa | 2.5V | 00:00:00 | 02:12:49 | 00:00:00 | |
| OE5HKT-10 | 2026-09-05 00:42:19 | 48.28759 | 12.87391 | 157° | 16km/h | 22707m | -15.2m/s | -52.1°C | 3.6% | 38.0hPa | 2.5V | 00:00:00 | 00:00:00 | 00:00:00 | |
| OE5WHR-10 | 2026-09-05 00:42:17 | 48.28766 | 12.87386 | 155° | 16km/h | 22737m | -15.3m/s | -52.0°C | 3.5% | 37.8hPa | 2.6V | 00:00:00 | 00:00:00 | 00:00:00 | |
| OE5MMP-10 | 2026-09-05 00:42:16 | 48.28770 | 12.87384 | 159° | 18km/h | 22752m | -14.8m/s | -52.1°C | 3.6% | 37.7hPa | 2.6V | 00:00:00 | 02:12:45 | 00:00:00 | |
| BAUMI2-15 | 2026-09-05 00:42:15 | 48.28774 | 12.87381 | 156° | 16km/h | 22768m | -14.9m/s | -52.1°C | 3.6% | 37.6hPa | 2.6V | 00:00:00 | 02:12:44 | 00:00:00 | |
| OE5REO-15 | 2026-09-05 00:42:12 | 48.28782 | 12.87377 | 163° | 16km/h | 22798m | -15.6m/s | -52.3°C | 0.9% | 37.5hPa | 2.5V | 08:22:00 | 00:00:00 | 00:00:00 | |
| BAUMI2-15 | 2026-09-05 00:42:10 | 48.28795 | 12.87374 | 180° | 20km/h | 22845m | -15.0m/s | -52.4°C | 3.6% | 37.2hPa | 2.5V | 00:00:00 | 02:12:39 | 00:00:00 | |
| OE5FHM-15 | 2026-09-05 00:42:08 | 48.28805 | 12.87374 | 183° | 11km/h | 22875m | -15.2m/s | -52.5°C | 3.7% | 37.0hPa | 2.5V | 00:00:00 | 02:12:37 | 00:00:00 | |
| DL6DJ-15 | 2026-09-05 00:42:07 | 48.28815 | 12.87374 | 183° | 18km/h | 22906m | -15.7m/s | -52.6°C | 0.9% | 36.9hPa | 2.5V | 00:00:00 | 00:00:00 | 00:00:00 | |
| OE5MMP-10 | 2026-09-05 00:42:06 | 48.28815 | 12.87374 | 184° | 13km/h | 22906m | -15.7m/s | -52.6°C | 3.6% | 36.8hPa | 2.5V | 00:00:00 | 02:12:35 | 00:00:00 | |
| BAUMI2-15 | 2026-09-05 00:42:05 | 48.28820 | 12.87374 | 178° | 15km/h | 22922m | -15.2m/s | -52.6°C | 3.7% | 36.7hPa | 2.5V | 00:00:00 | 02:12:34 | 00:00:00 | |
| BAUMI2-15 | 2026-09-05 00:42:00 | 48.28838 | 12.87375 | 194° | 7km/h | 22999m | -15.8m/s | -53.0°C | 3.8% | 36.3hPa | 2.5V | 00:00:00 | 02:12:29 | 00:00:00 | |
| OE5HKT-10 | 2026-09-05 00:41:58 | 48.28842 | 12.87377 | 209° | 9km/h | 23030m | -15.1m/s | -53.0°C | 3.8% | 36.1hPa | 2.5V | 00:00:00 | 00:00:00 | 00:00:00 | |
| OE5WHR-10 | 2026-09-05 00:41:56 | 48.28845 | 12.87381 | 239° | 9km/h | 23061m | -15.2m/s | -53.1°C | 3.9% | 35.9hPa | 2.5V | 00:00:00 | 02:12:25 | 00:00:00 | |
| BAUMI2-15 | 2026-09-05 00:41:55 | 48.28846 | 12.87384 | 264° | 9km/h | 23076m | -15.3m/s | -53.0°C | 3.8% | 35.9hPa | 2.5V | 00:00:00 | 02:12:24 | 00:00:00 | |
| OE5DXL-15 | 2026-09-05 00:41:53 | 48.28846 | 12.87390 | 287° | 7km/h | 23107m | -15.4m/s | -52.9°C | 3.8% | 35.7hPa | 2.5V | 00:00:00 | 00:00:00 | 00:00:00 | |
| BAUMI2-15 | 2026-09-05 00:41:50 | 48.28843 | 12.87400 | 306° | 13km/h | 23154m | -15.8m/s | -52.9°C | 3.8% | 35.4hPa | 2.5V | 00:00:00 | 02:12:19 | 00:00:00 | |
| OE3MUC-15 | 2026-09-05 00:41:48 | 48.28838 | 12.87406 | 326° | 11km/h | 23185m | -15.6m/s | 0°C | 0% | 0hPa | 2.5V | 00:00:00 | 00:00:00 | 00:00:00 | |
| BAUMI2-15 | 2026-09-05 00:41:45 | 48.28830 | 12.87412 | 345° | 11km/h | 23232m | -15.8m/s | -53.1°C | 3.9% | 35.0hPa | 2.5V | 08:22:00 | 02:12:14 | 00:00:00 | |
| OE5MMP-10 | 2026-09-05 00:41:44 | 48.28826 | 12.87412 | 354° | 9km/h | 23248m | -16.1m/s | -53.2°C | 3.9% | 34.9hPa | 2.5V | 00:00:00 | 02:12:13 | 00:00:00 | |
| OE5REO-15 | 2026-09-05 00:41:41 | 48.28820 | 12.87413 | 14° | 9km/h | 23280m | -15.2m/s | -53.1°C | 1.0% | 34.8hPa | 2.5V | 08:23:00 | 00:00:00 | 00:00:00 | |
| BAUMI2-15 | 2026-09-05 00:41:40 | 48.28817 | 12.87410 | 48° | 7km/h | 23310m | -15.5m/s | -53.0°C | 3.8% | 34.6hPa | 2.5V | 00:00:00 | 02:12:09 | 00:00:00 | |
| OE5FHM-15 | 2026-09-05 00:41:38 | 48.28815 | 12.87406 | 94° | 7km/h | 23342m | -15.3m/s | -53.0°C | 3.9% | 34.4hPa | 2.5V | 00:00:00 | 02:12:07 | 00:00:00 | |
| OE5HKT-10 | 2026-09-05 00:41:37 | 48.28815 | 12.87403 | 93° | 5km/h | 23358m | -16.0m/s | -53.0°C | 3.9% | 34.3hPa | 2.5V | 00:00:00 | 02:12:06 | 00:00:00 | |
| BAUMI2-15 | 2026-09-05 00:41:35 | 48.28817 | 12.87399 | 130° | 4km/h | 23389m | -15.8m/s | -53.0°C | 3.9% | 34.2hPa | 2.5V | 00:00:00 | 02:12:04 | 00:00:00 | |
| OE5MMP-10 | 2026-09-05 00:41:34 | 48.28818 | 12.87397 | 142° | 5km/h | 23405m | -15.6m/s | -53.0°C | 3.9% | 34.1hPa | 2.5V | 00:00:00 | 02:12:03 | 00:00:00 | |
| BAUMI2-15 | 2026-09-05 00:41:30 | 48.28821 | 12.87394 | 127° | 4km/h | 23468m | -16.1m/s | -52.8°C | 3.8% | 33.7hPa | 2.5V | 00:00:00 | 02:11:59 | 00:00:00 | |
| OE5REO-15 | 2026-09-05 00:41:26 | 48.28820 | 12.87391 | 36° | 4km/h | 23515m | -15.5m/s | -52.8°C | 1.0% | 33.5hPa | 2.5V | 08:23:00 | 00:00:00 | 00:00:00 | |
| BAUMI2-15 | 2026-09-05 00:41:25 | 48.28818 | 12.87388 | 23° | 7km/h | 23547m | -15.7m/s | -52.6°C | 3.8% | 33.3hPa | 2.5V | 00:00:00 | 02:11:54 | 00:00:00 | |
| OE5MMP-10 | 2026-09-05 00:41:23 | 48.28814 | 12.87386 | 12° | 13km/h | 23578m | -15.6m/s | -52.6°C | 3.8% | 33.2hPa | 2.5V | 08:23:00 | 02:11:52 | 00:00:00 | |
| OE3MUC-15 | 2026-09-05 00:41:20 | 48.28809 | 12.87386 | 354° | 7km/h | 23626m | -15.8m/s | 0°C | 0% | 0hPa | 2.5V | 00:00:00 | 00:00:00 | 00:00:00 | |
| OE5HKT-10 | 2026-09-05 00:41:16 | 48.28802 | 12.87391 | 345° | 15km/h | 23690m | -16.2m/s | -52.3°C | 3.7% | 32.6hPa | 2.5V | 08:23:00 | 00:00:00 | 00:00:00 | |
| BAUMI2-15 | 2026-09-05 00:41:15 | 48.28800 | 12.87392 | 342° | 13km/h | 23706m | -16.3m/s | -52.3°C | 3.6% | 32.5hPa | 2.5V | 00:00:00 | 02:11:44 | 00:00:00 | |
| OE3MUC-15 | 2026-09-05 00:41:14 | 48.28798 | 12.87392 | 4° | 13km/h | 23722m | -16.1m/s | 0°C | 0% | 0hPa | 2.5V | 00:00:00 | 02:11:43 | 00:00:00 | |
| OE5REO-15 | 2026-09-05 00:41:11 | 48.28792 | 12.87391 | 19° | 15km/h | 23755m | -15.8m/s | -52.5°C | 1.0% | 32.3hPa | 2.5V | 08:24:00 | 00:00:00 | 00:00:00 | |
| OE3MUC-15 | 2026-09-05 00:41:10 | 48.28784 | 12.87386 | 27° | 18km/h | 23787m | -16.4m/s | 0°C | 0% | 0hPa | 2.5V | 00:00:00 | 00:00:00 | 00:00:00 | |
| OE5FHM-15 | 2026-09-05 00:41:08 | 48.28776 | 12.87379 | 30° | 13km/h | 23820m | -16.7m/s | -52.7°C | 3.8% | 31.9hPa | 2.5V | 00:00:00 | 02:11:37 | 00:00:00 | |
| OE5MMP-10 | 2026-09-05 00:41:07 | 48.28772 | 12.87375 | 35° | 18km/h | 23837m | -16.4m/s | -52.7°C | 3.8% | 31.9hPa | 2.6V | 00:00:00 | 02:11:36 | 00:00:00 | |
| BAUMI2-15 | 2026-09-05 00:41:05 | 48.28763 | 12.87367 | 40° | 18km/h | 23869m | -16.0m/s | -52.5°C | 3.8% | 31.7hPa | 2.6V | 00:00:00 | 02:11:34 | 00:00:00 | |
| DL6DJ-15 | 2026-09-05 00:41:04 | 48.28759 | 12.87362 | 35° | 18km/h | 23885m | -16.2m/s | -52.5°C | 1.0% | 31.6hPa | 2.6V | 00:00:00 | 00:00:00 | 00:00:00 | |
| BAUMI2-15 | 2026-09-05 00:41:00 | 48.28745 | 12.87344 | 43° | 13km/h | 23951m | -16.2m/s | -52.3°C | 3.8% | 31.3hPa | 2.6V | 08:23:00 | 02:11:29 | 00:00:00 | |
| OE5MMP-10 | 2026-09-05 00:40:57 | 48.28739 | 12.87333 | 58° | 7km/h | 24001m | -16.6m/s | -52.1°C | 3.7% | 31.0hPa | 2.5V | 00:00:00 | 02:11:26 | 00:00:00 | |
| BAUMI2-15 | 2026-09-05 00:40:55 | 48.28736 | 12.87327 | 59° | 7km/h | 24034m | -16.6m/s | -52.0°C | 3.7% | 30.8hPa | 2.5V | 00:00:00 | 02:11:24 | 00:00:00 | |
| OE5WHR-10 | 2026-09-05 00:40:53 | 48.28734 | 12.87322 | 63° | 11km/h | 24067m | -16.4m/s | -52.0°C | 3.7% | 30.7hPa | 2.5V | 00:00:00 | 02:11:22 | 00:00:00 | |
| BAUMI2-15 | 2026-09-05 00:40:50 | 48.28731 | 12.87317 | 40° | 7km/h | 24117m | -16.7m/s | -51.9°C | 3.7% | 30.4hPa | 2.5V | 00:00:00 | 02:11:19 | 00:00:00 | |
| S52SK | 2026-09-05 00:40:48 | 48.28730 | 12.87315 | 40° | 7km/h | 24133m | -16.5m/s | 0°C | 0% | 0hPa | 2.5V | 00:00:00 | 00:00:00 | 00:00:00 | |
| OE5MMP-10 | 2026-09-05 00:40:47 | 48.28726 | 12.87312 | 33° | 9km/h | 24167m | -16.7m/s | -51.9°C | 3.6% | 30.2hPa | 2.5V | 00:00:00 | 02:11:16 | 00:00:00 | |
| BAUMI2-15 | 2026-09-05 00:40:45 | 48.28722 | 12.87308 | 34° | 7km/h | 24201m | -16.8m/s | -52.0°C | 3.7% | 30.1hPa | 2.6V | 00:00:00 | 02:11:14 | 00:00:00 | |
| BAUMI2-15 | 2026-09-05 00:40:40 | 48.28715 | 12.87297 | 65° | 16km/h | 24286m | -17.1m/s | -52.0°C | 3.7% | 29.6hPa | 2.5V | 00:00:00 | 02:11:09 | 00:00:00 | |
| OE5REO-15 | 2026-09-05 00:40:39 | 48.28715 | 12.87297 | 66° | 11km/h | 24286m | -17.1m/s | -52.1°C | 1.0% | 29.7hPa | 2.5V | 08:24:00 | 00:00:00 | 00:00:00 | |
| OE5FHM-15 | 2026-09-05 00:40:38 | 48.28712 | 12.87288 | 70° | 15km/h | 24320m | -17.1m/s | -52.0°C | 3.7% | 29.5hPa | 2.5V | 00:00:00 | 02:11:07 | 00:00:00 | |
| OE5MMP-10 | 2026-09-05 00:40:37 | 48.28710 | 12.87283 | 64° | 20km/h | 24337m | -16.7m/s | -52.1°C | 3.8% | 29.4hPa | 2.5V | 00:00:00 | 02:11:06 | 00:00:00 | |
| OE5HKT-10 | 2026-09-05 00:40:34 | 48.28704 | 12.87263 | 69° | 16km/h | 24388m | -17.3m/s | -52.1°C | 3.8% | 29.2hPa | 2.5V | 00:00:00 | 02:11:03 | 00:00:00 | |
| DL6DJ-15 | 2026-09-05 00:40:33 | 48.28702 | 12.87256 | 63° | 20km/h | 24405m | -17.1m/s | -52.1°C | 1.0% | 29.2hPa | 2.5V | 00:00:00 | 00:00:00 | 00:00:00 | |
| OE5WHR-10 | 2026-09-05 00:40:32 | 48.28700 | 12.87249 | 68° | 15km/h | 24423m | -17.3m/s | -51.9°C | 3.8% | 29.0hPa | 2.5V | 00:00:00 | 00:00:00 | 00:00:00 | |
| OE5MMP-10 | 2026-09-05 00:40:27 | 48.28689 | 12.87217 | 65° | 15km/h | 24510m | -17.3m/s | -51.5°C | 3.7% | 28.6hPa | 2.5V | 00:00:00 | 02:10:56 | 00:00:00 | |
| OE5DXL-15 | 2026-09-05 00:40:23 | 48.28686 | 12.87197 | 103° | 13km/h | 24580m | -17.7m/s | -51.0°C | 3.5% | 28.3hPa | 2.5V | 00:00:00 | 00:00:00 | 00:00:00 | |
| OE5MMP-10 | 2026-09-05 00:40:17 | 48.28697 | 12.87171 | 147° | 11km/h | 24686m | -17.9m/s | -51.0°C | 3.5% | 27.9hPa | 2.5V | 00:00:00 | 02:10:46 | 00:00:00 | |
| OE5HKT-10 | 2026-09-05 00:40:13 | 48.28708 | 12.87162 | 163° | 11km/h | 24759m | -17.9m/s | -50.9°C | 3.5% | 27.6hPa | 2.5V | 00:00:00 | 00:00:00 | 00:00:00 | |
| OE5WHR-10 | 2026-09-05 00:40:11 | 48.28713 | 12.87159 | 165° | 11km/h | 24795m | -18.0m/s | -50.8°C | 3.5% | 27.4hPa | 2.6V | 00:00:00 | 00:00:00 | 00:00:00 | |
| OE5FHM-15 | 2026-09-05 00:40:08 | 48.28719 | 12.87158 | 185° | 16km/h | 24849m | -17.8m/s | -50.8°C | 3.5% | 27.1hPa | 2.6V | 00:00:00 | 02:10:37 | 00:00:00 | |
| OE5MMP-10 | 2026-09-05 00:40:07 | 48.28720 | 12.87158 | 217° | 13km/h | 24866m | -18.0m/s | -50.8°C | 3.5% | 27.1hPa | 2.6V | 00:00:00 | 02:10:36 | 00:00:00 | |
| DL6DJ-15 | 2026-09-05 00:40:02 | 48.28714 | 12.87171 | 315° | 16km/h | 24956m | -17.9m/s | -51.0°C | -1.0% | -1.0hPa | 2.6V | 00:00:00 | 00:00:00 | 00:00:00 | |
| OE5MMP-10 | 2026-09-05 00:39:57 | 48.28699 | 12.87192 | 330° | 16km/h | 25046m | -18.3m/s | -51.2°C | 3.7% | 26.3hPa | 2.6V | 00:00:00 | 02:10:26 | 00:00:00 | |
| OE5DXL-15 | 2026-09-05 00:39:53 | 48.28686 | 12.87197 | 11° | 20km/h | 25119m | -18.2m/s | -50.8°C | 3.5% | 26.0hPa | 2.6V | 00:00:00 | 00:00:00 | 00:00:00 | |
| OE5HKT-10 | 2026-09-05 00:39:52 | 48.28683 | 12.87196 | 15° | 20km/h | 25138m | -18.5m/s | -50.7°C | 3.5% | 26.0hPa | 2.6V | 00:00:00 | 00:00:00 | 00:00:00 | |
| OE5WHR-10 | 2026-09-05 00:39:50 | 48.28675 | 12.87191 | 24° | 20km/h | 25175m | -18.9m/s | -50.7°C | 3.5% | 25.9hPa | 2.6V | 00:00:00 | 02:10:19 | 00:00:00 | |
| OE5MMP-10 | 2026-09-05 00:39:47 | 48.28661 | 12.87180 | 30° | 20km/h | 25230m | -18.2m/s | -50.8°C | 3.5% | 25.6hPa | 2.6V | 08:24:00 | 02:10:16 | 00:00:00 | |
| OE5FHM-15 | 2026-09-05 00:39:38 | 48.28628 | 12.87130 | 57° | 22km/h | 25396m | -18.7m/s | -50.3°C | 3.4% | 25.0hPa | 2.5V | 08:24:00 | 02:10:07 | 00:00:00 | |
| OE5MMP-10 | 2026-09-05 00:39:37 | 48.28625 | 12.87125 | 46° | 22km/h | 25415m | -18.8m/s | -50.1°C | 3.3% | 24.8hPa | 2.6V | 00:00:00 | 02:10:06 | 00:00:00 | |
| OE5REO-15 | 2026-09-05 00:39:36 | 48.28625 | 12.87125 | 47° | 18km/h | 25415m | -18.9m/s | -50.1°C | 0.8% | 24.9hPa | 2.6V | 08:24:00 | 00:00:00 | 00:00:00 | |
| OE5HKT-10 | 2026-09-05 00:39:31 | 48.28604 | 12.87092 | 46° | 22km/h | 25528m | -19.3m/s | -50.0°C | 3.3% | 24.5hPa | 2.6V | 00:00:00 | 02:10:00 | 00:00:00 | |
| OE5WHR-10 | 2026-09-05 00:39:29 | 48.28597 | 12.87080 | 48° | 22km/h | 25566m | -18.9m/s | -49.9°C | 3.3% | 24.3hPa | 2.6V | 00:00:00 | 00:00:00 | 00:00:00 | |
| OE5MMP-10 | 2026-09-05 00:39:27 | 48.28589 | 12.87066 | 47° | 24km/h | 25604m | -18.9m/s | -49.9°C | 3.3% | 24.1hPa | 2.5V | 00:00:00 | 02:09:56 | 00:00:00 | |
| OE5DXL-15 | 2026-09-05 00:39:23 | 48.28571 | 12.87040 | 46° | 18km/h | 25679m | -19.4m/s | -49.9°C | 3.3% | 23.9hPa | 2.5V | 00:00:00 | 00:00:00 | 00:00:00 | |
| OE5REO-15 | 2026-09-05 00:39:21 | 48.28567 | 12.87034 | 49° | 24km/h | 25698m | -19.0m/s | -50.1°C | 0.8% | 23.8hPa | 2.5V | 08:25:00 | 00:00:00 | 00:00:00 | |
| OE5MMP-10 | 2026-09-05 00:39:17 | 48.28553 | 12.86999 | 73° | 22km/h | 25793m | -19.2m/s | -50.2°C | 3.4% | 23.5hPa | 2.5V | 00:00:00 | 02:09:46 | 00:00:00 | |
| OE5HKT-10 | 2026-09-05 00:39:10 | 48.28544 | 12.86942 | 86° | 13km/h | 25928m | -19.3m/s | -50.3°C | 3.4% | 23.0hPa | 2.6V | 00:00:00 | 00:00:00 | 00:00:00 | |
| OE5FHM-15 | 2026-09-05 00:39:08 | 48.28545 | 12.86926 | 96° | 9km/h | 25967m | -19.4m/s | -50.2°C | 3.5% | 22.8hPa | 2.6V | 00:00:00 | 02:09:37 | 00:00:00 | |
| OE5MMP-10 | 2026-09-05 00:39:07 | 48.28545 | 12.86918 | 100° | 15km/h | 25986m | -19.5m/s | -50.2°C | 3.5% | 22.7hPa | 2.6V | 00:00:00 | 02:09:36 | 00:00:00 | |
| OE5REO-15 | 2026-09-05 00:39:05 | 48.28546 | 12.86910 | 104° | 18km/h | 26005m | -19.7m/s | -50.2°C | 0.9% | 22.7hPa | 2.6V | 08:25:00 | 00:00:00 | 00:00:00 | |
| DL6DJ-15 | 2026-09-05 00:39:00 | 48.28552 | 12.86875 | 111° | 9km/h | 26123m | -19.8m/s | 0°C | -1.0% | -1.0hPa | 2.6V | 00:00:00 | 00:00:00 | 00:00:00 | |
| OE5MMP-10 | 2026-09-05 00:38:57 | 48.28554 | 12.86866 | 111° | 7km/h | 26183m | -20.1m/s | -49.9°C | 3.4% | 22.0hPa | 2.6V | 00:00:00 | 02:09:26 | 00:00:00 | |
| OE5DXL-15 | 2026-09-05 00:38:53 | 48.28559 | 12.86860 | 169° | 9km/h | 26264m | -20.3m/s | -49.9°C | 3.5% | 21.8hPa | 2.6V | 00:00:00 | 00:00:00 | 00:00:00 | |
| OE5REO-15 | 2026-09-05 00:38:50 | 48.28563 | 12.86860 | 177° | 7km/h | 26305m | -20.2m/s | -49.9°C | 0.9% | 21.7hPa | 2.6V | 08:25:00 | 00:00:00 | 00:00:00 | |
| OE5HKT-10 | 2026-09-05 00:38:49 | 48.28566 | 12.86860 | 193° | 9km/h | 26345m | -20.3m/s | -49.8°C | 3.4% | 21.5hPa | 2.6V | 00:00:00 | 00:00:00 | 00:00:00 | |
| OE5WHR-10 | 2026-09-05 00:38:47 | 48.28569 | 12.86860 | 209° | 9km/h | 26386m | -19.8m/s | -49.9°C | 3.5% | 21.4hPa | 2.6V | 00:00:00 | 02:09:16 | 00:00:00 | |
| OE5FHM-15 | 2026-09-05 00:38:38 | 48.28574 | 12.86867 | 210° | 13km/h | 26570m | -20.7m/s | -49.1°C | 3.3% | 20.8hPa | 2.6V | 00:00:00 | 02:09:07 | 00:00:00 | |
| OE5MMP-10 | 2026-09-05 00:38:37 | 48.28577 | 12.86869 | 205° | 15km/h | 26590m | -20.3m/s | -49.0°C | 3.2% | 20.7hPa | 2.6V | 00:00:00 | 02:09:06 | 00:00:00 | |
| OE5REO-15 | 2026-09-05 00:38:35 | 48.28581 | 12.86872 | 200° | 16km/h | 26611m | -20.7m/s | -49.0°C | 0.8% | 20.7hPa | 2.6V | 08:26:00 | 00:00:00 | 00:00:00 | |
| BAUMI2-15 | 2026-09-05 00:38:31 | 48.28601 | 12.86875 | 172° | 13km/h | 26716m | -20.8m/s | -48.7°C | 3.2% | 20.3hPa | 2.6V | 00:00:00 | 02:09:00 | 00:00:00 | |
| OE5HKT-10 | 2026-09-05 00:38:28 | 48.28611 | 12.86872 | 168° | 13km/h | 26778m | -21.2m/s | -48.8°C | 3.2% | 20.1hPa | 2.6V | 00:00:00 | 02:08:57 | 00:00:00 | |
| OE5WHR-10 | 2026-09-05 00:38:26 | 48.28616 | 12.86871 | 172° | 13km/h | 26820m | -20.8m/s | -48.7°C | 3.2% | 20.0hPa | 2.6V | 08:26:00 | 00:00:00 | 00:00:00 | |
| OE5DXL-15 | 2026-09-05 00:38:23 | 48.28623 | 12.86868 | 151° | 11km/h | 26883m | -21.1m/s | -48.6°C | 3.1% | 19.8hPa | 2.5V | 08:26:00 | 00:00:00 | 00:00:00 | |
| BAUMI2-15 | 2026-09-05 00:38:21 | 48.28627 | 12.86865 | 151° | 15km/h | 26926m | -21.2m/s | -48.6°C | 3.2% | 19.7hPa | 2.5V | 00:00:00 | 02:08:50 | 00:00:00 | |
| OE5REO-15 | 2026-09-05 00:38:19 | 48.28629 | 12.86864 | 166° | 9km/h | 26947m | -21.4m/s | -48.7°C | 0.8% | 19.6hPa | 2.5V | 08:26:00 | 00:00:00 | 00:00:00 | |
| PG1ADW-2 | 2026-09-05 00:38:18 | 48.28634 | 12.86861 | 177° | 11km/h | 26990m | -21.2m/s | -48.8°C | 3.2% | 19.5hPa | 2.5V | 00:00:00 | 00:00:00 | 00:00:00 | |
| OE5MMP-10 | 2026-09-05 00:38:17 | 48.28637 | 12.86861 | 178° | 15km/h | 27011m | -21.4m/s | -48.8°C | 3.2% | 19.4hPa | 2.5V | 08:26:00 | 02:08:46 | 00:00:00 | |
| DG1MFX-10 | 2026-09-05 00:38:15 | 48.28640 | 12.86862 | 191° | 15km/h | 27033m | -21.5m/s | -48.8°C | 0.8% | 19.4hPa | 2.6V | 08:26:00 | 00:00:00 | 00:00:00 | |
| BAUMI2-15 | 2026-09-05 00:38:11 | 48.28656 | 12.86877 | 234° | 15km/h | 27140m | -21.7m/s | -48.9°C | 3.3% | 19.0hPa | 2.6V | 00:00:00 | 02:08:40 | 00:00:00 | |
| OE5FHM-15 | 2026-09-05 00:38:08 | 48.28663 | 12.86892 | 240° | 16km/h | 27206m | -22.0m/s | -48.9°C | 3.3% | 18.8hPa | 2.6V | 00:00:00 | 02:08:37 | 00:00:00 | |
| OE5HKT-10 | 2026-09-05 00:38:07 | 48.28664 | 12.86896 | 248° | 15km/h | 27228m | -21.9m/s | -49.0°C | 3.3% | 18.7hPa | 2.6V | 08:26:00 | 00:00:00 | 00:00:00 | |
| BAUMI2-15 | 2026-09-05 00:38:06 | 48.28665 | 12.86899 | 250° | 5km/h | 27250m | -21.6m/s | -49.0°C | 3.4% | 18.7hPa | 2.6V | 08:26:00 | 02:08:35 | 00:00:00 | |
| OE5WHR-10 | 2026-09-05 00:38:05 | 48.28665 | 12.86901 | 280° | 15km/h | 27272m | -21.9m/s | -48.9°C | 3.3% | 18.6hPa | 2.5V | 00:00:00 | 00:00:00 | 00:00:00 | |
| OE5REO-15 | 2026-09-05 00:38:04 | 48.28666 | 12.86901 | 280° | 5km/h | 27272m | -22.0m/s | -49.0°C | 0.8% | 18.7hPa | 2.5V | 08:26:00 | 00:00:00 | 00:00:00 | |
| BAUMI2-15 | 2026-09-05 00:38:01 | 48.28659 | 12.86902 | 3° | 11km/h | 27360m | -22.2m/s | -48.5°C | 3.2% | 18.4hPa | 2.5V | 00:00:00 | 02:08:30 | 00:00:00 | |
| OE5MMP-10 | 2026-09-05 00:37:57 | 48.28648 | 12.86902 | 359° | 20km/h | 27449m | -22.2m/s | -48.2°C | 3.2% | 18.1hPa | 2.5V | 00:00:00 | 02:08:26 | 00:00:00 | |
| BAUMI2-15 | 2026-09-05 00:37:56 | 48.28645 | 12.86902 | 5° | 15km/h | 27471m | -22.2m/s | -48.3°C | 3.2% | 18.1hPa | 2.5V | 00:00:00 | 02:08:25 | 00:00:00 | |
| PG1ADW-2 | 2026-09-05 00:37:55 | 48.28643 | 12.86901 | 31° | 27km/h | 27493m | -22.4m/s | -48.3°C | 3.2% | 18.0hPa | 2.5V | 00:00:00 | 00:00:00 | 00:00:00 | |
| OE5DXL-15 | 2026-09-05 00:37:53 | 48.28635 | 12.86889 | 44° | 22km/h | 27560m | -22.4m/s | -48.5°C | 3.2% | 17.8hPa | 2.5V | 00:00:00 | 00:00:00 | 00:00:00 | |
| BAUMI2-15 | 2026-09-05 00:37:51 | 48.28630 | 12.86883 | 46° | 29km/h | 27583m | -22.3m/s | -48.5°C | 3.2% | 17.7hPa | 2.5V | 00:00:00 | 02:08:20 | 00:00:00 | |
| OE5REO-15 | 2026-09-05 00:37:49 | 48.28625 | 12.86875 | 40° | 31km/h | 27605m | -22.4m/s | -48.5°C | 0.8% | 17.7hPa | 2.5V | 08:27:00 | 00:00:00 | 00:00:00 | |
| OE5MMP-10 | 2026-09-05 00:37:47 | 48.28606 | 12.86858 | 24° | 26km/h | 27675m | -23.5m/s | -48.4°C | 3.2% | 17.5hPa | 2.5V | 00:00:00 | 02:08:16 | 00:00:00 | |
| OE5HKT-10 | 2026-09-05 00:37:46 | 48.28601 | 12.86856 | 12° | 22km/h | 27698m | -22.4m/s | -48.3°C | 3.2% | 17.4hPa | 2.6V | 00:00:00 | 00:00:00 | 00:00:00 | |
| OE5WHR-10 | 2026-09-05 00:37:44 | 48.28597 | 12.86854 | 180° | 22km/h | 27742m | -21.6m/s | -48.1°C | 3.1% | 17.3hPa | 2.6V | 00:00:00 | 02:08:13 | 00:00:00 | |
| BAUMI2-15 | 2026-09-05 00:37:41 | 48.28612 | 12.86847 | 154° | 38km/h | 27805m | -21.3m/s | -48.0°C | 3.1% | 17.1hPa | 2.6V | 00:00:00 | 02:08:10 | 00:00:00 | |
| OE5FHM-15 | 2026-09-05 00:37:38 | 48.28633 | 12.86816 | 118° | 29km/h | 27868m | -21.2m/s | -48.3°C | 3.3% | 16.9hPa | 2.6V | 00:00:00 | 02:08:07 | 00:00:00 | |
| OE5MMP-10 | 2026-09-05 00:37:37 | 48.28636 | 12.86803 | 106° | 20km/h | 27889m | -19.5m/s | -48.3°C | 3.3% | 16.9hPa | 2.6V | 00:00:00 | 02:08:06 | 00:00:00 | |
| BAUMI2-15 | 2026-09-05 00:37:36 | 48.28637 | 12.86792 | 88° | 27km/h | 27908m | -18.5m/s | -48.3°C | 3.3% | 16.9hPa | 2.6V | 00:00:00 | 02:08:05 | 00:00:00 | |
| PG1ADW-2 | 2026-09-05 00:37:34 | 48.28632 | 12.86777 | 37° | 26km/h | 27946m | -19.3m/s | -48.3°C | 3.3% | 16.8hPa | 2.6V | 00:00:00 | 02:08:03 | 00:00:00 | |
| OE5REO-15 | 2026-09-05 00:37:33 | 48.28632 | 12.86777 | 37° | 20km/h | 27946m | -19.4m/s | -48.3°C | 0.8% | 16.8hPa | 2.6V | 08:27:00 | 00:00:00 | 00:00:00 | |
| BAUMI2-15 | 2026-09-05 00:37:30 | 48.28615 | 12.86769 | 10° | 11km/h | 28029m | -21.3m/s | -47.9°C | 3.2% | 16.5hPa | 2.6V | 00:00:00 | 02:07:59 | 00:00:00 | |
| OE5MMP-10 | 2026-09-05 00:37:27 | 48.28603 | 12.86768 | 2° | 31km/h | 28096m | -21.7m/s | -47.5°C | 3.0% | 16.3hPa | 2.6V | 00:00:00 | 02:07:56 | 00:00:00 | |
| OE5HKT-10 | 2026-09-05 00:37:25 | 48.28600 | 12.86765 | 73° | 37km/h | 28141m | -22.8m/s | -47.6°C | 3.1% | 16.3hPa | 2.6V | 00:00:00 | 02:07:54 | 00:00:00 | |
| BAUMI2-15 | 2026-09-05 00:37:24 | 48.28601 | 12.86762 | 126° | 35km/h | 28163m | -22.3m/s | -47.6°C | 3.1% | 16.2hPa | 2.6V | 00:00:00 | 02:07:53 | 00:00:00 | |
| OE5WHR-10 | 2026-09-05 00:37:23 | 48.28604 | 12.86757 | 138° | 42km/h | 28185m | -20.6m/s | -47.5°C | 3.1% | 16.2hPa | 2.6V | 00:00:00 | 00:00:00 | 00:00:00 | |
| BAUMI2-15 | 2026-09-05 00:37:19 | 48.28639 | 12.86714 | 147° | 49km/h | 28265m | -21.3m/s | -47.2°C | 3.1% | 15.9hPa | 2.5V | 08:27:00 | 02:07:48 | 00:00:00 | |
| OE5REO-15 | 2026-09-05 00:37:18 | 48.28639 | 12.86714 | 148° | 57km/h | 28265m | -21.3m/s | -47.3°C | 0.7% | 16.0hPa | 2.6V | 08:27:00 | 00:00:00 | 00:00:00 | |
| OE5MMP-10 | 2026-09-05 00:37:17 | 48.28664 | 12.86693 | 156° | 33km/h | 28309m | -22.9m/s | -47.1°C | 3.1% | 15.8hPa | 2.6V | 00:00:00 | 02:07:46 | 00:00:00 | |
| PG1ADW-2 | 2026-09-05 00:37:14 | 48.28692 | 12.86675 | 158° | 44km/h | 28374m | -19.1m/s | -47.0°C | 3.1% | 15.6hPa | 2.5V | 00:00:00 | 00:00:00 | 00:00:00 | |
| BAUMI2-15 | 2026-09-05 00:37:09 | 48.28675 | 12.86653 | 39° | 46km/h | 28471m | -25.1m/s | -46.6°C | 2.9% | 15.4hPa | 2.5V | 00:00:00 | 02:07:38 | 00:00:00 | |
| OE5FHM-15 | 2026-09-05 00:37:08 | 48.28668 | 12.86642 | 52° | 55km/h | 28495m | -24.3m/s | -46.6°C | 2.9% | 15.4hPa | 2.5V | 00:00:00 | 02:07:37 | 00:00:00 | |
| OE5MMP-10 | 2026-09-05 00:37:07 | 48.28662 | 12.86627 | 66° | 55km/h | 28520m | -24.1m/s | -46.6°C | 2.9% | 15.3hPa | 2.5V | 00:00:00 | 02:07:36 | 00:00:00 | |
| OE5HKT-10 | 2026-09-05 00:37:04 | 48.28665 | 12.86576 | 125° | 58km/h | 28586m | -21.1m/s | -46.6°C | 3.0% | 15.1hPa | 2.5V | 00:00:00 | 00:00:00 | 00:00:00 | |
| OE5REO-15 | 2026-09-05 00:37:03 | 48.28665 | 12.86576 | 125° | 53km/h | 28586m | -21.1m/s | -46.7°C | 0.7% | 15.2hPa | 2.6V | 08:27:00 | 00:00:00 | 00:00:00 | |
| OE5WHR-10 | 2026-09-05 00:37:02 | 48.28688 | 12.86552 | 167° | 58km/h | 28628m | -22.3m/s | -46.7°C | 3.0% | 15.0hPa | 2.6V | 00:00:00 | 00:00:00 | 00:00:00 | |
| DL6DJ-15 | 2026-09-05 00:36:56 | 48.28741 | 12.86621 | 287° | 53km/h | 28756m | -21.1m/s | 0°C | -1.0% | -1.0hPa | 2.6V | 00:00:00 | 00:00:00 | 00:00:00 | |
| PG1ADW-2 | 2026-09-05 00:36:54 | 48.28724 | 12.86653 | 329° | 57km/h | 28798m | -20.9m/s | -46.4°C | 3.0% | 14.6hPa | 2.6V | 00:00:00 | 00:00:00 | 00:00:00 | |
| OE5DXL-15 | 2026-09-05 00:36:53 | 48.28710 | 12.86661 | 348° | 58km/h | 28819m | -21.1m/s | -46.3°C | 3.0% | 14.6hPa | 2.6V | 00:00:00 | 00:00:00 | 00:00:00 | |
| BAUMI2-15 | 2026-09-05 00:36:49 | 48.28655 | 12.86626 | 57° | 58km/h | 28904m | -21.0m/s | -46.0°C | 2.9% | 14.4hPa | 2.6V | 00:00:00 | 02:07:18 | 00:00:00 | |
| OE5REO-15 | 2026-09-05 00:36:48 | 48.28649 | 12.86605 | 77° | 60km/h | 28925m | -20.5m/s | -46.0°C | 0.7% | 14.4hPa | 2.6V | 00:00:00 | 00:00:00 | 00:00:00 | |
| OE5MMP-10 | 2026-09-05 00:36:47 | 48.28648 | 12.86583 | 96° | 55km/h | 28945m | -20.3m/s | -45.9°C | 2.9% | 14.3hPa | 2.6V | 08:27:00 | 02:07:16 | 00:00:00 | |
| BAUMI2-15 | 2026-09-05 00:36:44 | 48.28671 | 12.86537 | 160° | 53km/h | 29007m | -21.1m/s | -45.7°C | 2.9% | 14.2hPa | 2.5V | 00:00:00 | 02:07:13 | 00:00:00 | |
| OE5HKT-10 | 2026-09-05 00:36:43 | 48.28685 | 12.86533 | 181° | 60km/h | 29028m | -21.5m/s | -45.7°C | 2.9% | 14.1hPa | 2.5V | 00:00:00 | 00:00:00 | 00:00:00 | |
| OE5WHR-10 | 2026-09-05 00:36:41 | 48.28709 | 12.86547 | 222° | 60km/h | 29071m | -21.5m/s | -45.5°C | 2.8% | 14.0hPa | 2.5V | 00:00:00 | 02:07:10 | 00:00:00 | |
| BAUMI2-15 | 2026-09-05 00:36:39 | 48.28721 | 12.86582 | 266° | 51km/h | 29113m | -21.2m/s | -45.2°C | 2.8% | 13.9hPa | 2.5V | 00:00:00 | 02:07:08 | 00:00:00 | |
| OE5FHM-15 | 2026-09-05 00:36:38 | 48.28719 | 12.86602 | 289° | 62km/h | 29134m | -21.2m/s | -45.2°C | 2.8% | 13.9hPa | 2.5V | 00:00:00 | 02:07:07 | 00:00:00 | |
| OE8JPQ-2 | 2026-09-05 00:36:37 | 48.28713 | 12.86621 | 309° | 64km/h | 29155m | -20.5m/s | -45.2°C | 2.8% | 13.8hPa | 2.5V | 00:00:00 | 00:00:00 | 00:00:00 | |
| DG1MFX-10 | 2026-09-05 00:36:32 | 48.28654 | 12.86637 | 24° | 68km/h | 29238m | -21.0m/s | -45.2°C | 0.7% | 13.7hPa | 2.5V | 08:28:00 | 00:00:00 | 00:00:00 | |
| OE5REO-15 | 2026-09-05 00:36:31 | 48.28639 | 12.86624 | 40° | 69km/h | 29259m | -21.4m/s | -45.2°C | 0.7% | 13.6hPa | 2.5V | 00:00:00 | 00:00:00 | 00:00:00 | |
| OE5MMP-10 | 2026-09-05 00:36:27 | 48.28628 | 12.86520 | 134° | 58km/h | 29366m | -20.7m/s | -45.2°C | 2.9% | 13.4hPa | 2.5V | 00:00:00 | 02:06:56 | 00:00:00 | |
| PG1ADW-2 | 2026-09-05 00:36:24 | 48.28664 | 12.86509 | 204° | 58km/h | 29428m | -20.5m/s | -45.2°C | 2.8% | 13.3hPa | 2.5V | 00:00:00 | 00:00:00 | 00:00:00 | |
| OE5WHR-10 | 2026-09-05 00:36:20 | 48.28687 | 12.86584 | 284° | 62km/h | 29511m | -21.6m/s | -45.0°C | 2.8% | 13.1hPa | 2.5V | 00:00:00 | 00:00:00 | 00:00:00 | |
| OE5DXL-15 | 2026-09-05 00:36:19 | 48.28680 | 12.86607 | 303° | 60km/h | 29533m | -21.9m/s | -45.0°C | 2.8% | 13.1hPa | 2.5V | 00:00:00 | 00:00:00 | 00:00:00 | |
| OE8JPQ-2 | 2026-09-05 00:36:17 | 48.28655 | 12.86637 | 341° | 58km/h | 29576m | -21.4m/s | -44.9°C | 2.8% | 13.0hPa | 2.5V | 00:00:00 | 02:06:46 | 00:00:00 | |
| OE5REO-15 | 2026-09-05 00:36:15 | 48.28638 | 12.86641 | 1° | 69km/h | 29597m | -21.1m/s | -44.9°C | 0.7% | 13.0hPa | 2.5V | 00:00:00 | 00:00:00 | 00:00:00 | |
| OE5HKT-10 | 2026-09-05 00:36:12 | 48.28588 | 12.86584 | 76° | 66km/h | 29680m | -20.8m/s | -44.5°C | 2.7% | 12.8hPa | 2.5V | 00:00:00 | 02:06:41 | 00:00:00 | |
| OE5FHM-15 | 2026-09-05 00:36:08 | 48.28610 | 12.86503 | 153° | 62km/h | 29765m | -21.6m/s | -44.0°C | 2.7% | 12.6hPa | 2.5V | 00:00:00 | 02:06:37 | 00:00:00 | |
| OE5MMP-10 | 2026-09-05 00:36:06 | 48.28636 | 12.86499 | 198° | 60km/h | 29808m | -21.4m/s | -43.8°C | 2.6% | 12.5hPa | 2.5V | 00:00:00 | 02:06:35 | 00:00:00 | |
| PG1ADW-2 | 2026-09-05 00:36:04 | 48.28655 | 12.86524 | 248° | 55km/h | 29851m | -21.7m/s | -43.6°C | 2.6% | 12.4hPa | 2.5V | 00:00:00 | 02:06:33 | 08:30:00 | |
| DL6DJ-15 | 2026-09-05 00:35:54 | 48.28531 | 12.86517 | 87° | 69km/h | 30085m | -20.6m/s | 0°C | -1.0% | -1.0hPa | 2.5V | 00:00:00 | 00:00:00 | 00:00:00 | |
| DG1MFX-10 | 2026-09-05 00:35:51 | 48.28533 | 12.86492 | 105° | 64km/h | 30106m | -21.0m/s | -43.4°C | 0.6% | 12.0hPa | 2.5V | 08:29:00 | 00:00:00 | 00:00:00 | |
| OE5MMP-10 | 2026-09-05 00:35:46 | 48.28592 | 12.86467 | 239° | 58km/h | 30232m | -20.8m/s | -43.6°C | 2.6% | 11.7hPa | 2.5V | 00:00:00 | 02:06:15 | 00:00:00 | |
| PG1ADW-2 | 2026-09-05 00:35:44 | 48.28595 | 12.86503 | 287° | 60km/h | 30273m | -20.4m/s | -43.6°C | 2.6% | 11.6hPa | 2.5V | 00:00:00 | 00:00:00 | 00:00:00 | |
| DO7DH-14 | 2026-09-05 00:35:43 | 48.28588 | 12.86520 | 309° | 51km/h | 30293m | -20.6m/s | -43.7°C | 2.6% | 11.6hPa | 2.5V | 00:00:00 | 02:06:12 | 00:00:00 | |
| OE5DXL-15 | 2026-09-05 00:35:41 | 48.28562 | 12.86545 | 347° | 55km/h | 30336m | -22.1m/s | -43.8°C | 2.6% | 11.5hPa | 2.5V | 00:00:00 | 00:00:00 | 00:00:00 | |
| OE5FHM-15 | 2026-09-05 00:35:38 | 48.28512 | 12.86529 | 35° | 60km/h | 30403m | -21.9m/s | -43.9°C | 2.7% | 11.4hPa | 2.5V | 00:00:00 | 02:06:07 | 00:00:00 | |
| OE5MMP-10 | 2026-09-05 00:35:36 | 48.28489 | 12.86486 | 69° | 69km/h | 30446m | -21.0m/s | -43.7°C | 2.7% | 11.4hPa | 2.5V | 00:00:00 | 02:06:05 | 00:00:00 | |
| OE5HKT-10 | 2026-09-05 00:35:30 | 48.28535 | 12.86353 | 164° | 55km/h | 30572m | -20.6m/s | -43.5°C | 2.6% | 11.1hPa | 2.5V | 00:00:00 | 00:00:00 | 00:00:00 | |
| OE5MMP-10 | 2026-09-05 00:35:26 | 48.28590 | 12.86374 | 235° | 55km/h | 30654m | -20.3m/s | -43.2°C | 2.5% | 10.9hPa | 2.5V | 00:00:00 | 02:05:55 | 00:00:00 | |
| PG1ADW-2 | 2026-09-05 00:35:24 | 48.28595 | 12.86407 | 280° | 49km/h | 30695m | -20.3m/s | -43.0°C | 2.5% | 10.9hPa | 2.5V | 00:00:00 | 00:00:00 | 00:00:00 | |
| OE5REO-15 | 2026-09-05 00:35:22 | 48.28591 | 12.86422 | 306° | 44km/h | 30714m | -20.1m/s | -43.0°C | 0.6% | 10.9hPa | 2.5V | 00:00:00 | 00:00:00 | 00:00:00 | |
| OE5WHR-10 | 2026-09-05 00:35:17 | 48.28525 | 12.86411 | 52° | 55km/h | 30837m | -21.3m/s | -42.9°C | 2.5% | 10.6hPa | 2.5V | 00:00:00 | 00:00:00 | 08:30:00 | |
| OE5HKT-10 | 2026-09-05 00:35:09 | 48.28551 | 12.86267 | 164° | 53km/h | 31003m | -20.2m/s | -43.0°C | 2.5% | 10.4hPa | 2.5V | 00:00:00 | 02:05:38 | 00:00:00 | |
| OE5FHM-15 | 2026-09-05 00:35:08 | 48.28564 | 12.86264 | 179° | 55km/h | 31023m | -19.9m/s | -43.1°C | 2.6% | 10.4hPa | 2.5V | 00:00:00 | 02:05:37 | 08:30:00 | |
| OE5MMP-10 | 2026-09-05 00:35:07 | 48.28576 | 12.86266 | 196° | 51km/h | 31043m | -19.6m/s | -43.1°C | 2.6% | 10.3hPa | 2.6V | 00:00:00 | 02:05:36 | 08:30:00 | |
| OE5DXL-15 | 2026-09-05 00:35:06 | 48.28587 | 12.86273 | 211° | 55km/h | 31062m | -19.1m/s | -43.2°C | 2.6% | 10.3hPa | 2.6V | 00:00:00 | 00:00:00 | 00:00:00 | |
| OE5REO-15 | 2026-09-05 00:35:05 | 48.28587 | 12.86274 | 212° | 49km/h | 31062m | -19.2m/s | -43.3°C | 0.6% | 10.4hPa | 2.5V | 00:00:00 | 00:00:00 | 00:00:00 | |
| PG1ADW-2 | 2026-09-05 00:35:03 | 48.28610 | 12.86318 | 253° | 47km/h | 31119m | -19.3m/s | -43.1°C | 2.7% | 10.2hPa | 2.5V | 00:00:00 | 00:00:00 | 00:00:00 | |
| OE5WHR-10 | 2026-09-05 00:34:56 | 48.28582 | 12.86454 | 319° | 55km/h | 31258m | -20.2m/s | -42.9°C | 2.7% | 10.0hPa | 2.6V | 00:00:00 | 00:00:00 | 00:00:00 | |
| DO3MHA-11 | 2026-09-05 00:34:51 | 48.28520 | 12.86483 | 8° | 57km/h | 31356m | -18.7m/s | -42.2°C | 2.6% | 9.9hPa | 2.6V | 00:00:00 | 02:05:20 | 00:00:00 | |
| OE5REO-15 | 2026-09-05 00:34:50 | 48.28520 | 12.86483 | 9° | 51km/h | 31356m | -18.8m/s | -42.2°C | 0.6% | 9.9hPa | 2.6V | 00:00:00 | 00:00:00 | 00:00:00 | |
| DG1MFX-10 | 2026-09-05 00:34:49 | 48.28507 | 12.86479 | 16° | 53km/h | 31375m | -18.6m/s | -42.1°C | 0.6% | 9.9hPa | 2.6V | 00:00:00 | 00:00:00 | 00:00:00 | |
| OE5HKT-10 | 2026-09-05 00:34:48 | 48.28482 | 12.86463 | 29° | 51km/h | 31412m | -19.1m/s | -42.1°C | 2.6% | 9.7hPa | 2.6V | 00:00:00 | 00:00:00 | 08:30:00 | |
| DH7VM-15 | 2026-09-05 00:34:44 | 48.28445 | 12.86426 | 39° | 60km/h | 31469m | -19.0m/s | -41.9°C | 0% | 9.7hPa | 2.5V | 00:00:00 | 00:00:00 | 00:00:00 | |
| DO3MHA-11 | 2026-09-05 00:34:41 | 48.28401 | 12.86366 | 44° | 49km/h | 31545m | -19.1m/s | -41.1°C | 2.5% | 9.5hPa | 2.5V | 00:00:00 | 02:05:10 | 00:00:00 | |
| OE5FHM-15 | 2026-09-05 00:34:38 | 48.28371 | 12.86325 | 40° | 38km/h | 31602m | -19.4m/s | -40.7°C | 2.4% | 9.5hPa | 2.5V | 00:00:00 | 02:05:07 | 00:00:00 | |
| OE5WHR-10 | 2026-09-05 00:34:35 | 48.28341 | 12.86294 | 27° | 42km/h | 31661m | -19.5m/s | -40.3°C | 2.3% | 9.4hPa | 2.5V | 00:00:00 | 02:05:04 | 00:00:00 | |
| OE5REO-15 | 2026-09-05 00:34:34 | 48.28341 | 12.86294 | 28° | 47km/h | 31661m | -19.6m/s | -40.3°C | 0.5% | 9.4hPa | 2.5V | 00:00:00 | 00:00:00 | 00:00:00 | |
| DO3MHA-11 | 2026-09-05 00:34:31 | 48.28296 | 12.86280 | 358° | 38km/h | 31743m | -21.3m/s | -39.9°C | 2.3% | 9.3hPa | 2.5V | 00:00:00 | 02:05:00 | 00:00:00 | |
| DG1MFX-10 | 2026-09-05 00:34:29 | 48.28286 | 12.86282 | 349° | 42km/h | 31764m | -21.1m/s | -39.8°C | 0.6% | 9.3hPa | 2.6V | 00:00:00 | 00:00:00 | 00:00:00 | |
| OE5MMP-10 | 2026-09-05 00:34:28 | 48.28268 | 12.86294 | 327° | 42km/h | 31807m | -20.9m/s | -39.6°C | 2.3% | 9.2hPa | 2.6V | 00:00:00 | 02:04:57 | 00:00:00 | |
| OE5HKT-10 | 2026-09-05 00:34:27 | 48.28261 | 12.86302 | 311° | 33km/h | 31828m | -20.6m/s | -39.5°C | 2.3% | 9.2hPa | 2.6V | 00:00:00 | 00:00:00 | 00:00:00 | |
| BAUMI2-15 | 2026-09-05 00:34:26 | 48.28257 | 12.86312 | 292° | 38km/h | 31848m | -20.0m/s | -39.3°C | 2.2% | 9.1hPa | 2.6V | 00:00:00 | 02:04:55 | 00:00:00 | |
| DO3MHA-11 | 2026-09-05 00:34:21 | 48.28275 | 12.86378 | 226° | 53km/h | 31949m | -22.1m/s | -38.9°C | 2.2% | 9.0hPa | 2.6V | 00:00:00 | 02:04:50 | 00:00:00 | |
| OE5MMP-10 | 2026-09-05 00:34:18 | 48.28308 | 12.86414 | 206° | 29km/h | 32022m | -25.1m/s | -38.0°C | 2.1% | 8.9hPa | 2.6V | 00:00:00 | 02:04:47 | 00:00:00 | |
| BAUMI2-15 | 2026-09-05 00:34:16 | 48.28329 | 12.86424 | 184° | 31km/h | 32070m | -22.6m/s | -37.6°C | 2.0% | 8.8hPa | 2.6V | 00:00:00 | 02:04:45 | 00:00:00 | |
| OE5WHR-10 | 2026-09-05 00:34:14 | 48.28345 | 12.86418 | 139° | 15km/h | 32111m | -20.2m/s | -37.5°C | 1.9% | 8.8hPa | 2.6V | 00:00:00 | 00:00:00 | 00:00:00 | |
| PG1ADW-2 | 2026-09-05 00:34:11 | 48.28354 | 12.86392 | 117° | 13km/h | 32193m | -37.4m/s | -37.3°C | 1.8% | 8.7hPa | 2.6V | 00:00:00 | 02:04:40 | 00:00:00 | |
| OE5MMP-10 | 2026-09-05 00:34:08 | 48.28360 | 12.86380 | 125° | 9km/h | 32320m | -58.7m/s | -37.4°C | 1.7% | 8.6hPa | 2.6V | 00:00:00 | 02:04:37 | 00:00:00 | |
| S52SK | 2026-09-05 00:34:07 | 48.28360 | 12.86380 | 126° | 11km/h | 32320m | -58.8m/s | 0°C | 0% | 0hPa | 2.6V | 00:00:00 | 00:00:00 | 00:00:00 | |
| OE5HKT-10 | 2026-09-05 00:34:06 | 48.28362 | 12.86373 | 119° | 15km/h | 32423m | -43.9m/s | -38.3°C | 1.9% | 8.4hPa | 2.6V | 00:00:00 | 02:04:35 | 00:00:00 | |
| OE5REO-15 | 2026-09-05 00:34:03 | 48.28364 | 12.86367 | 121° | 9km/h | 32494m | -27.4m/s | -38.9°C | 0.5% | 8.3hPa | 2.6V | 00:00:00 | 00:00:00 | 00:00:00 | |
| BAUMI2-15 | 2026-09-05 00:34:01 | 48.28367 | 12.86360 | 117° | 11km/h | 32535m | 1.2m/s | -39.0°C | 2.1% | 8.2hPa | 2.6V | 00:00:00 | 02:04:30 | 00:00:00 | |
| OE5MMP-10 | 2026-09-05 00:33:58 | 48.28371 | 12.86354 | 158° | 18km/h | 32522m | 5.7m/s | -39.0°C | 2.1% | 8.2hPa | 2.6V | 00:00:00 | 02:04:27 | 00:00:00 | |
| BAUMI2-15 | 2026-09-05 00:33:56 | 48.28379 | 12.86349 | 153° | 20km/h | 32512m | 4.3m/s | -39.0°C | 2.1% | 8.2hPa | 2.5V | 00:00:00 | 02:04:25 | 00:00:00 | |
| DO7DH-14 | 2026-09-05 00:33:53 | 48.28390 | 12.86333 | 118° | 22km/h | 32498m | 5.9m/s | -39.0°C | 2.1% | 8.2hPa | 2.5V | 00:00:00 | 02:04:22 | 00:00:00 | |
| BAUMI2-15 | 2026-09-05 00:33:51 | 48.28392 | 12.86319 | 92° | 20km/h | 32487m | 5.1m/s | -38.9°C | 2.1% | 8.2hPa | 2.6V | 00:00:00 | 02:04:20 | 00:00:00 | |
| OE5MMP-10 | 2026-09-05 00:33:48 | 48.28394 | 12.86297 | 109° | 18km/h | 32472m | 5.3m/s | -38.9°C | 2.1% | 8.3hPa | 2.6V | 00:00:00 | 02:04:17 | 00:00:00 | |
| DG1MFX-10 | 2026-09-05 00:33:47 | 48.28394 | 12.86297 | 110° | 20km/h | 32472m | 5.4m/s | -38.9°C | 0.5% | 8.3hPa | 2.6V | 00:00:00 | 00:00:00 | 00:00:00 | |
| BAUMI2-15 | 2026-09-05 00:33:46 | 48.28399 | 12.86281 | 123° | 22km/h | 32462m | 4.2m/s | -38.8°C | 2.1% | 8.3hPa | 2.6V | 00:00:00 | 02:04:15 | 00:00:00 | |
| OE5HKT-10 | 2026-09-05 00:33:45 | 48.28403 | 12.86273 | 124° | 22km/h | 32458m | 4.0m/s | -38.8°C | 2.1% | 8.3hPa | 2.6V | 00:00:00 | 00:00:00 | 00:00:00 | |
| BAUMI2-15 | 2026-09-05 00:33:41 | 48.28412 | 12.86249 | 110° | 15km/h | 32437m | 5.0m/s | -38.8°C | 2.1% | 8.3hPa | 2.5V | 00:00:00 | 02:04:10 | 00:00:00 | |
| OE5DXL-15 | 2026-09-05 00:33:36 | 48.28425 | 12.86226 | 134° | 26km/h | 32412m | 4.9m/s | -38.7°C | 2.1% | 8.4hPa | 2.5V | 00:00:00 | 00:00:00 | 08:30:00 | |
| DO3MHA-11 | 2026-09-05 00:33:34 | 48.28434 | 12.86207 | 119° | 22km/h | 32402m | 5.5m/s | -38.6°C | 2.1% | 8.3hPa | 2.5V | 00:00:00 | 02:04:03 | 00:00:00 | |
| OE5WHR-10 | 2026-09-05 00:33:32 | 48.28439 | 12.86185 | 98° | 26km/h | 32391m | 5.1m/s | -38.5°C | 2.1% | 8.4hPa | 2.5V | 00:00:00 | 02:04:01 | 00:00:00 | |
| PG1ADW-2 | 2026-09-05 00:33:31 | 48.28440 | 12.86173 | 92° | 26km/h | 32386m | 4.9m/s | -38.5°C | 2.1% | 8.4hPa | 2.5V | 00:00:00 | 00:00:00 | 00:00:00 | |
| DG1MFX-10 | 2026-09-05 00:33:28 | 48.28442 | 12.86142 | 103° | 24km/h | 32370m | 5.0m/s | -38.5°C | 0.5% | 8.5hPa | 2.5V | 00:00:00 | 00:00:00 | 00:00:00 | |
| DO3MHA-11 | 2026-09-05 00:33:24 | 48.28448 | 12.86116 | 112° | 26km/h | 32350m | 5.6m/s | -38.3°C | 2.1% | 8.4hPa | 2.5V | 00:00:00 | 02:03:53 | 00:00:00 | |
| DO7DH-14 | 2026-09-05 00:33:21 | 48.28454 | 12.86099 | 125° | 26km/h | 32336m | 4.8m/s | -38.2°C | 2.0% | 8.4hPa | 2.6V | 00:00:00 | 02:03:50 | 00:00:00 | |
| BAUMI2-15 | 2026-09-05 00:33:20 | 48.28458 | 12.86091 | 129° | 33km/h | 32330m | 6.0m/s | -38.1°C | 2.0% | 8.5hPa | 2.6V | 00:00:00 | 02:03:49 | 00:00:00 | |
| OE5MMP-10 | 2026-09-05 00:33:18 | 48.28468 | 12.86072 | 129° | 26km/h | 32320m | 4.0m/s | -38.1°C | 2.0% | 8.4hPa | 2.5V | 00:00:00 | 02:03:47 | 00:00:00 | |
| OE5REO-15 | 2026-09-05 00:33:16 | 48.28474 | 12.86061 | 125° | 37km/h | 32316m | 4.1m/s | -38.2°C | 0.5% | 8.5hPa | 2.5V | 00:00:00 | 00:00:00 | 00:00:00 | |
| BAUMI2-15 | 2026-09-05 00:33:15 | 48.28481 | 12.86039 | 109° | 20km/h | 32305m | 5.5m/s | -38.1°C | 2.0% | 8.5hPa | 2.5V | 00:00:00 | 02:03:44 | 00:00:00 | |
| DO3MHA-11 | 2026-09-05 00:33:14 | 48.28483 | 12.86030 | 101° | 22km/h | 32300m | 4.6m/s | -38.1°C | 2.0% | 8.5hPa | 2.5V | 00:00:00 | 02:03:43 | 00:00:00 | |
| PG1ADW-2 | 2026-09-05 00:33:11 | 48.28487 | 12.86010 | 125° | 26km/h | 32286m | 5.7m/s | -38.1°C | 2.0% | 8.5hPa | 2.5V | 00:00:00 | 00:00:00 | 00:00:00 | |
| OE5FHM-15 | 2026-09-05 00:33:08 | 48.28500 | 12.85995 | 153° | 27km/h | 32270m | 4.4m/s | -38.1°C | 2.0% | 8.5hPa | 2.5V | 00:00:00 | 02:03:37 | 00:00:00 | |
| DG1MFX-10 | 2026-09-05 00:33:07 | 48.28500 | 12.85995 | 154° | 27km/h | 32270m | 4.5m/s | -38.1°C | 0.5% | 8.6hPa | 2.5V | 00:00:00 | 00:00:00 | 00:00:00 | |
| BAUMI2-15 | 2026-09-05 00:33:05 | 48.28517 | 12.85980 | 139° | 31km/h | 32255m | 4.9m/s | -38.1°C | 2.0% | 8.5hPa | 2.5V | 00:00:00 | 02:03:34 | 00:00:00 | |
| DO3MHA-11 | 2026-09-05 00:33:04 | 48.28522 | 12.85972 | 131° | 29km/h | 32250m | 4.3m/s | -38.1°C | 2.0% | 8.6hPa | 2.6V | 00:00:00 | 02:03:33 | 00:00:00 | |
| OE5HKT-10 | 2026-09-05 00:33:03 | 48.28527 | 12.85964 | 126° | 29km/h | 32245m | 5.0m/s | -38.1°C | 2.0% | 8.6hPa | 2.6V | 00:00:00 | 02:03:32 | 00:00:00 | |
| OE5REO-15 | 2026-09-05 00:33:01 | 48.28531 | 12.85954 | 126° | 35km/h | 32240m | 5.7m/s | -38.1°C | 0.5% | 8.6hPa | 2.6V | 00:00:00 | 00:00:00 | 00:00:00 | |
| BAUMI2-15 | 2026-09-05 00:33:00 | 48.28541 | 12.85932 | 125° | 27km/h | 32230m | 3.8m/s | -38.1°C | 2.0% | 8.6hPa | 2.6V | 00:00:00 | 02:03:29 | 00:00:00 | |
| OE5MMP-10 | 2026-09-05 00:32:58 | 48.28551 | 12.85911 | 124° | 26km/h | 32221m | 5.5m/s | -38.1°C | 2.0% | 8.6hPa | 2.6V | 00:00:00 | 02:03:27 | 00:00:00 | |
| BAUMI2-15 | 2026-09-05 00:32:55 | 48.28561 | 12.85894 | 154° | 27km/h | 32207m | 4.2m/s | -38.1°C | 2.0% | 8.6hPa | 2.5V | 00:00:00 | 02:03:24 | 00:00:00 | |
| DO3MHA-11 | 2026-09-05 00:32:54 | 48.28566 | 12.85891 | 163° | 29km/h | 32202m | 5.2m/s | -38.1°C | 2.0% | 8.6hPa | 2.5V | 00:00:00 | 02:03:23 | 08:30:00 | |
| BAUMI2-15 | 2026-09-05 00:32:50 | 48.28594 | 12.85875 | 148° | 29km/h | 32184m | 3.6m/s | -38.1°C | 2.0% | 8.7hPa | 2.6V | 00:00:00 | 02:03:19 | 08:30:00 | |
| OE5MMP-10 | 2026-09-05 00:32:48 | 48.28605 | 12.85860 | 121° | 26km/h | 32173m | 6.0m/s | -38.0°C | 2.0% | 8.7hPa | 2.6V | 00:00:00 | 02:03:17 | 00:00:00 | |
| PG1ADW-2 | 2026-09-05 00:32:46 | 48.28609 | 12.85839 | 97° | 27km/h | 32162m | 4.6m/s | -38.0°C | 2.0% | 8.7hPa | 2.6V | 00:00:00 | 02:03:15 | 00:00:00 | |
| BAUMI2-15 | 2026-09-05 00:32:45 | 48.28610 | 12.85828 | 96° | 27km/h | 32157m | 5.2m/s | -38.0°C | 2.0% | 8.7hPa | 2.6V | 00:00:00 | 02:03:14 | 00:00:00 | |
| DO3MHA-11 | 2026-09-05 00:32:44 | 48.28611 | 12.85817 | 102° | 26km/h | 32152m | 4.7m/s | -38.0°C | 1.9% | 8.7hPa | 2.6V | 00:00:00 | 02:03:13 | 00:00:00 | |
| OE5HKT-10 | 2026-09-05 00:32:42 | 48.28615 | 12.85797 | 121° | 26km/h | 32144m | 4.3m/s | -38.0°C | 2.0% | 8.7hPa | 2.6V | 00:00:00 | 00:00:00 | 00:00:00 | |
| BAUMI2-15 | 2026-09-05 00:32:40 | 48.28622 | 12.85785 | 141° | 20km/h | 32133m | 6.0m/s | -38.1°C | 1.9% | 8.7hPa | 2.6V | 00:00:00 | 02:03:09 | 00:00:00 | |
| OE5MMP-10 | 2026-09-05 00:32:38 | 48.28630 | 12.85777 | 153° | 29km/h | 32123m | 4.1m/s | -38.2°C | 2.0% | 8.8hPa | 2.6V | 00:00:00 | 02:03:07 | 00:00:00 | |
| DO3MHA-11 | 2026-09-05 00:32:35 | 48.28651 | 12.85752 | 126° | 27km/h | 32104m | 4.4m/s | -38.4°C | 1.9% | 8.7hPa | 2.6V | 00:00:00 | 02:03:03 | 00:00:00 | |
| OE5DXL-15 | 2026-09-05 00:32:34 | 48.28651 | 12.85752 | 126° | 24km/h | 32104m | 4.4m/s | -38.4°C | 1.9% | 8.7hPa | 2.6V | 00:00:00 | 00:00:00 | 00:00:00 | |
| OE5REO-15 | 2026-09-05 00:32:30 | 48.28659 | 12.85716 | 92° | 33km/h | 32091m | 6.1m/s | -38.7°C | 0.4% | 8.8hPa | 2.6V | 00:00:00 | 00:00:00 | 00:00:00 | |
| OE5WHR-10 | 2026-09-05 00:32:29 | 48.28657 | 12.85694 | 67° | 22km/h | 32080m | 4.8m/s | -38.8°C | 2.0% | 8.8hPa | 2.6V | 00:00:00 | 02:02:58 | 00:00:00 | |
| OE5MMP-10 | 2026-09-05 00:32:28 | 48.28654 | 12.85685 | 66° | 24km/h | 32075m | 4.0m/s | -39.0°C | 2.0% | 8.8hPa | 2.6V | 00:00:00 | 02:02:57 | 00:00:00 | |
| DG1MFX-10 | 2026-09-05 00:32:26 | 48.28652 | 12.85677 | 75° | 22km/h | 32071m | 4.5m/s | -39.1°C | 0.5% | 8.9hPa | 2.6V | 00:00:00 | 00:00:00 | 00:00:00 | |
| OE5HKT-10 | 2026-09-05 00:32:21 | 48.28666 | 12.85628 | 123° | 22km/h | 32041m | 5.3m/s | -39.7°C | 2.1% | 8.8hPa | 2.6V | 00:00:00 | 00:00:00 | 00:00:00 | |
| OE5MMP-10 | 2026-09-05 00:32:18 | 48.28673 | 12.85604 | 107° | 20km/h | 32026m | 5.2m/s | -39.8°C | 2.1% | 8.8hPa | 2.6V | 00:00:00 | 02:02:47 | 00:00:00 | |
| DO7DH-14 | 2026-09-05 00:32:16 | 48.28677 | 12.85584 | 107° | 24km/h | 32015m | 4.7m/s | -39.8°C | 2.2% | 8.9hPa | 2.6V | 00:00:00 | 02:02:45 | 08:30:00 | |
| OE5REO-15 | 2026-09-05 00:32:15 | 48.28677 | 12.85584 | 107° | 27km/h | 32015m | 4.7m/s | -39.8°C | 0.5% | 8.9hPa | 2.6V | 00:00:00 | 00:00:00 | 00:00:00 | |
| OE5WHR-10 | 2026-09-05 00:32:08 | 48.28685 | 12.85532 | 126° | 20km/h | 31977m | 5.5m/s | -39.8°C | 2.1% | 8.9hPa | 2.6V | 00:00:00 | 00:00:00 | 08:30:00 | |
| DG1MFX-10 | 2026-09-05 00:32:05 | 48.28692 | 12.85516 | 124° | 29km/h | 31967m | 4.4m/s | -39.8°C | 0.5% | 9.0hPa | 2.6V | 00:00:00 | 00:00:00 | 00:00:00 | |
| OE5DXL-15 | 2026-09-05 00:32:02 | 48.28703 | 12.85477 | 102° | 18km/h | 31948m | 5.0m/s | -39.8°C | 2.2% | 9.0hPa | 2.6V | 00:00:00 | 00:00:00 | 00:00:00 | |
| OE5HKT-10 | 2026-09-05 00:32:00 | 48.28705 | 12.85468 | 126° | 18km/h | 31938m | 4.9m/s | -39.9°C | 2.2% | 9.0hPa | 2.5V | 00:00:00 | 02:02:29 | 00:00:00 | |
| OE5MMP-10 | 2026-09-05 00:31:58 | 48.28710 | 12.85463 | 160° | 22km/h | 31928m | 5.1m/s | -40.0°C | 2.1% | 9.0hPa | 2.5V | 00:00:00 | 02:02:27 | 08:30:00 | |
| OE5MMP-10 | 2026-09-05 00:31:48 | 48.28737 | 12.85404 | 139° | 16km/h | 31880m | 5.1m/s | -40.3°C | 2.2% | 9.0hPa | 2.6V | 00:00:00 | 02:02:17 | 00:00:00 | |
| OE5WHR-10 | 2026-09-05 00:31:47 | 48.28739 | 12.85402 | 162° | 16km/h | 31874m | 5.6m/s | -40.4°C | 2.2% | 9.1hPa | 2.6V | 00:00:00 | 00:00:00 | 00:00:00 | |
| DG1MFX-10 | 2026-09-05 00:31:45 | 48.28743 | 12.85400 | 166° | 18km/h | 31869m | 5.3m/s | -40.4°C | 0.6% | 9.1hPa | 2.6V | 00:00:00 | 00:00:00 | 00:00:00 | |
| OE5REO-15 | 2026-09-05 00:31:44 | 48.28748 | 12.85398 | 164° | 22km/h | 31863m | 5.1m/s | -40.4°C | 0.5% | 9.1hPa | 2.6V | 00:00:00 | 00:00:00 | 00:00:00 | |
| DO7DH-14 | 2026-09-05 00:31:40 | 48.28770 | 12.85382 | 151° | 15km/h | 31838m | 4.7m/s | -40.4°C | 2.2% | 9.1hPa | 2.6V | 00:00:00 | 02:02:09 | 00:00:00 | |
| OE5HKT-10 | 2026-09-05 00:31:39 | 48.28773 | 12.85380 | 156° | 15km/h | 31833m | 5.0m/s | -40.5°C | 2.2% | 9.1hPa | 2.6V | 00:00:00 | 00:00:00 | 08:30:00 | |
| OE5FHM-15 | 2026-09-05 00:31:38 | 48.28777 | 12.85378 | 162° | 16km/h | 31828m | 5.3m/s | -40.5°C | 2.2% | 9.2hPa | 2.6V | 00:00:00 | 02:02:07 | 00:00:00 | |
| DO3MHA-11 | 2026-09-05 00:31:33 | 48.28798 | 12.85358 | 127° | 9km/h | 31801m | 5.7m/s | -40.8°C | 2.3% | 9.2hPa | 2.6V | 00:00:00 | 02:02:02 | 00:00:00 | |
| OE5DXL-15 | 2026-09-05 00:31:32 | 48.28801 | 12.85351 | 123° | 15km/h | 31796m | 5.0m/s | -40.8°C | 2.3% | 9.2hPa | 2.5V | 00:00:00 | 00:00:00 | 00:00:00 | |
| OE5MMP-10 | 2026-09-05 00:31:28 | 48.28809 | 12.85340 | 203° | 11km/h | 31773m | 5.0m/s | -40.8°C | 2.3% | 9.2hPa | 2.5V | 00:00:00 | 02:01:57 | 00:00:00 | |
| OE5WHR-10 | 2026-09-05 00:31:26 | 48.28811 | 12.85342 | 166° | 15km/h | 31764m | 5.4m/s | -40.8°C | 2.3% | 9.2hPa | 2.6V | 00:00:00 | 02:01:55 | 00:00:00 | |
| DG1MFX-10 | 2026-09-05 00:31:24 | 48.28811 | 12.85341 | 71° | 5km/h | 31758m | 6.2m/s | -40.9°C | 0.6% | 9.3hPa | 2.6V | 00:00:00 | 00:00:00 | 00:00:00 | |
| DO3MHA-11 | 2026-09-05 00:31:22 | 48.28808 | 12.85328 | 86° | 20km/h | 31742m | 4.4m/s | -40.9°C | 2.3% | 9.3hPa | 2.6V | 00:00:00 | 02:01:51 | 00:00:00 | |
| OE5HKT-10 | 2026-09-05 00:31:18 | 48.28819 | 12.85311 | 164° | 16km/h | 31720m | 5.1m/s | -40.9°C | 2.2% | 9.3hPa | 2.6V | 00:00:00 | 00:00:00 | 00:00:00 | |
| DO3MHA-11 | 2026-09-05 00:31:12 | 48.28837 | 12.85281 | 62° | 18km/h | 31689m | 5.4m/s | -41.0°C | 2.3% | 9.3hPa | 2.6V | 00:00:00 | 02:01:41 | 00:00:00 | |
| OE5FHM-15 | 2026-09-05 00:31:08 | 48.28825 | 12.85264 | 45° | 15km/h | 31666m | 4.9m/s | -41.0°C | 2.2% | 9.3hPa | 2.6V | 00:00:00 | 02:01:37 | 00:00:00 | |
| OE5WHR-10 | 2026-09-05 00:31:05 | 48.28827 | 12.85256 | 119° | 15km/h | 31651m | 5.9m/s | -41.1°C | 2.2% | 9.4hPa | 2.6V | 00:00:00 | 00:00:00 | 00:00:00 | |
| DG1MFX-10 | 2026-09-05 00:31:03 | 48.28829 | 12.85251 | 110° | 16km/h | 31645m | 5.9m/s | -41.2°C | 0.6% | 9.5hPa | 2.6V | 00:00:00 | 00:00:00 | 00:00:00 | |
| OE5MMP-10 | 2026-09-05 00:30:58 | 48.28823 | 12.85224 | 9° | 18km/h | 31611m | 5.5m/s | -41.3°C | 2.3% | 9.5hPa | 2.6V | 00:00:00 | 02:01:27 | 00:00:00 | |
| OE5HKT-10 | 2026-09-05 00:30:57 | 48.28821 | 12.85224 | 11° | 16km/h | 31606m | 4.8m/s | -41.3°C | 2.3% | 9.5hPa | 2.6V | 00:00:00 | 02:01:26 | 00:00:00 | |
| OE5REO-15 | 2026-09-05 00:30:56 | 48.28821 | 12.85224 | 11° | 9km/h | 31606m | 4.9m/s | -41.4°C | 0.6% | 9.5hPa | 2.6V | 00:00:00 | 00:00:00 | 00:00:00 | |
| OE5MMP-10 | 2026-09-05 00:30:48 | 48.28797 | 12.85173 | 69° | 13km/h | 31555m | 6.1m/s | -41.7°C | 2.3% | 9.6hPa | 2.6V | 00:00:00 | 02:01:17 | 00:00:00 | |
| OE5WHR-10 | 2026-09-05 00:30:44 | 48.28796 | 12.85164 | 74° | 16km/h | 31533m | 5.9m/s | -41.9°C | 2.4% | 9.6hPa | 2.6V | 00:00:00 | 00:00:00 | 00:00:00 | |
| DG1MFX-10 | 2026-09-05 00:30:42 | 48.28795 | 12.85158 | 77° | 18km/h | 31527m | 5.5m/s | -42.0°C | 0.6% | 9.6hPa | 2.6V | 00:00:00 | 00:00:00 | 00:00:00 | |
| OE5REO-15 | 2026-09-05 00:30:41 | 48.28794 | 12.85151 | 81° | 22km/h | 31522m | 5.0m/s | -42.0°C | 0.6% | 9.6hPa | 2.6V | 00:00:00 | 00:00:00 | 00:00:00 | |
| OE5HKT-10 | 2026-09-05 00:30:36 | 48.28789 | 12.85114 | 44° | 15km/h | 31488m | 5.4m/s | -42.1°C | 2.4% | 9.6hPa | 2.6V | 00:00:00 | 00:00:00 | 00:00:00 | |
| DO7DH-14 | 2026-09-05 00:30:34 | 48.28783 | 12.85108 | 33° | 18km/h | 31476m | 6.2m/s | -42.1°C | 2.4% | 9.6hPa | 2.5V | 00:00:00 | 02:01:03 | 00:00:00 | |
| OE5DXL-15 | 2026-09-05 00:30:32 | 48.28777 | 12.85101 | 57° | 15km/h | 31465m | 4.7m/s | -42.2°C | 2.4% | 9.7hPa | 2.5V | 00:00:00 | 00:00:00 | 00:00:00 | |
| BAUMI2-15 | 2026-09-05 00:30:29 | 48.28779 | 12.85086 | 125° | 20km/h | 31447m | 5.7m/s | -42.2°C | 2.4% | 9.7hPa | 2.5V | 00:00:00 | 02:00:58 | 00:00:00 | |
| OE5MMP-10 | 2026-09-05 00:30:28 | 48.28781 | 12.85080 | 127° | 16km/h | 31441m | 5.2m/s | -42.1°C | 2.4% | 9.7hPa | 2.5V | 00:00:00 | 02:00:57 | 08:30:00 | |
| OE5REO-15 | 2026-09-05 00:30:25 | 48.28786 | 12.85065 | 106° | 22km/h | 31430m | 5.8m/s | -42.2°C | 0.6% | 9.7hPa | 2.5V | 00:00:00 | 00:00:00 | 00:00:00 | |
| BAUMI2-15 | 2026-09-05 00:30:24 | 48.28786 | 12.85050 | 68° | 15km/h | 31419m | 4.7m/s | -42.1°C | 2.4% | 9.7hPa | 2.5V | 00:00:00 | 02:00:53 | 00:00:00 | |
| OE5WHR-10 | 2026-09-05 00:30:23 | 48.28784 | 12.85045 | 50° | 15km/h | 31415m | 4.6m/s | -42.1°C | 2.4% | 9.7hPa | 2.5V | 00:00:00 | 02:00:52 | 00:00:00 | |
| PG1ADW-2 | 2026-09-05 00:30:21 | 48.28778 | 12.85039 | 10° | 13km/h | 31404m | 6.6m/s | -42.0°C | 2.4% | 9.8hPa | 2.5V | 00:00:00 | 00:00:00 | 00:00:00 | |
| BAUMI2-15 | 2026-09-05 00:30:19 | 48.28774 | 12.85040 | 321° | 9km/h | 31391m | 5.6m/s | -42.0°C | 2.4% | 9.7hPa | 2.5V | 00:00:00 | 02:00:48 | 00:00:00 | |
| OE5MMP-10 | 2026-09-05 00:30:18 | 48.28773 | 12.85042 | 319° | 16km/h | 31386m | 4.8m/s | -42.0°C | 2.4% | 9.8hPa | 2.5V | 00:00:00 | 02:00:47 | 00:00:00 | |
| OE5HKT-10 | 2026-09-05 00:30:15 | 48.28769 | 12.85035 | 59° | 16km/h | 31370m | 7.2m/s | -42.0°C | 2.4% | 9.8hPa | 2.5V | 00:00:00 | 00:00:00 | 00:00:00 | |
| BAUMI2-15 | 2026-09-05 00:30:14 | 48.28767 | 12.85028 | 61° | 24km/h | 31363m | 6.4m/s | -42.0°C | 2.4% | 9.8hPa | 2.5V | 00:00:00 | 02:00:43 | 00:00:00 | |
| OE5REO-15 | 2026-09-05 00:30:10 | 48.28758 | 12.85000 | 73° | 24km/h | 31346m | 6.0m/s | -42.1°C | 0.6% | 9.9hPa | 2.5V | 00:00:00 | 00:00:00 | 00:00:00 | |
| BAUMI2-15 | 2026-09-05 00:30:09 | 48.28756 | 12.84990 | 66° | 11km/h | 31335m | 5.0m/s | -42.0°C | 2.3% | 9.9hPa | 2.5V | 00:00:00 | 02:00:38 | 00:00:00 | |
| OE5FHM-15 | 2026-09-05 00:30:08 | 48.28755 | 12.84988 | 348° | 13km/h | 31329m | 5.5m/s | -42.0°C | 2.3% | 9.9hPa | 2.5V | 00:00:00 | 02:00:37 | 00:00:00 | |
| DO7DH-14 | 2026-09-05 00:30:04 | 48.28744 | 12.84999 | 338° | 11km/h | 31306m | 4.5m/s | -42.1°C | 2.3% | 9.9hPa | 2.5V | 00:00:00 | 02:00:33 | 00:00:00 | |
| OE5WHR-10 | 2026-09-05 00:30:02 | 48.28736 | 12.85001 | 9° | 13km/h | 31296m | 6.1m/s | -42.2°C | 2.4% | 9.9hPa | 2.6V | 00:00:00 | 00:00:00 | 00:00:00 | |
| DG1MFX-10 | 2026-09-05 00:30:00 | 48.28734 | 12.84999 | 39° | 11km/h | 31290m | 6.4m/s | -42.3°C | 0.6% | 10.0hPa | 2.5V | 00:00:00 | 00:00:00 | 00:00:00 | |
| BAUMI2-15 | 2026-09-05 00:29:59 | 48.28731 | 12.84991 | 66° | 18km/h | 31278m | 5.1m/s | -42.4°C | 2.4% | 10.0hPa | 2.5V | 00:00:00 | 02:00:28 | 00:00:00 | |
| OE5MMP-10 | 2026-09-05 00:29:58 | 48.28729 | 12.84986 | 59° | 15km/h | 31273m | 5.6m/s | -42.4°C | 2.4% | 10.0hPa | 2.5V | 00:00:00 | 02:00:27 | 00:00:00 | |
| PG1ADW-2 | 2026-09-05 00:29:57 | 48.28726 | 12.84980 | 47° | 13km/h | 31267m | 6.2m/s | -42.5°C | 2.4% | 10.0hPa | 2.6V | 00:00:00 | 00:00:00 | 00:00:00 | |
| OE5HKT-10 | 2026-09-05 00:29:54 | 48.28713 | 12.84971 | 5° | 11km/h | 31250m | 5.8m/s | -42.6°C | 2.5% | 10.0hPa | 2.6V | 00:00:00 | 02:00:23 | 00:00:00 | |
| BAUMI2-15 | 2026-09-05 00:29:49 | 48.28701 | 12.84983 | 322° | 11km/h | 31222m | 6.1m/s | -42.8°C | 2.5% | 10.0hPa | 2.6V | 00:00:00 | 02:00:18 | 00:00:00 | |
| OE5MMP-10 | 2026-09-05 00:29:48 | 48.28699 | 12.84985 | 342° | 9km/h | 31216m | 5.5m/s | -42.7°C | 2.5% | 10.0hPa | 2.5V | 00:00:00 | 02:00:17 | 00:00:00 | |
| BAUMI2-15 | 2026-09-05 00:29:44 | 48.28690 | 12.84982 | 66° | 4km/h | 31194m | 5.8m/s | -42.7°C | 2.5% | 10.1hPa | 2.5V | 00:00:00 | 02:00:13 | 00:00:00 | |
| OE5WHR-10 | 2026-09-05 00:29:41 | 48.28689 | 12.84980 | 336° | 9km/h | 31179m | 6.0m/s | -42.7°C | 2.5% | 10.1hPa | 2.5V | 00:00:00 | 00:00:00 | 00:00:00 | |
| DG1MFX-10 | 2026-09-05 00:29:40 | 48.28689 | 12.84980 | 337° | 5km/h | 31179m | 6.1m/s | -42.8°C | 0.6% | 10.2hPa | 2.5V | 00:00:00 | 00:00:00 | 00:00:00 | |
| OE5FHM-15 | 2026-09-05 00:29:38 | 48.28682 | 12.84988 | 314° | 9km/h | 31162m | 4.8m/s | -42.8°C | 2.5% | 10.2hPa | 2.5V | 00:00:00 | 02:00:07 | 00:00:00 | |
| PG1ADW-2 | 2026-09-05 00:29:37 | 48.28679 | 12.84993 | 303° | 9km/h | 31157m | 5.1m/s | -42.8°C | 2.5% | 10.2hPa | 2.5V | 00:00:00 | 02:00:06 | 00:00:00 | |
| OE5HKT-10 | 2026-09-05 00:29:33 | 48.28681 | 12.85003 | 160° | 7km/h | 31135m | 5.3m/s | -42.8°C | 2.5% | 10.2hPa | 2.6V | 00:00:00 | 00:00:00 | 00:00:00 | |
| OE5DXL-15 | 2026-09-05 00:29:32 | 48.28682 | 12.85001 | 118° | 9km/h | 31129m | 6.3m/s | -42.9°C | 2.5% | 10.2hPa | 2.6V | 00:00:00 | 00:00:00 | 00:00:00 | |
| OE5MMP-10 | 2026-09-05 00:29:28 | 48.28680 | 12.84985 | 77° | 7km/h | 31106m | 6.3m/s | -43.0°C | 2.5% | 10.2hPa | 2.6V | 00:00:00 | 01:59:57 | 00:00:00 | |
| OE5REO-15 | 2026-09-05 00:29:22 | 48.28677 | 12.84976 | 336° | 9km/h | 31079m | 6.3m/s | -43.2°C | 0.6% | 10.3hPa | 2.5V | 00:00:00 | 00:00:00 | 00:00:00 | |
| OE5WHR-10 | 2026-09-05 00:29:20 | 48.28672 | 12.84983 | 287° | 9km/h | 31062m | 5.6m/s | -43.1°C | 2.6% | 10.3hPa | 2.5V | 00:00:00 | 01:59:49 | 00:00:00 | |
| DG1MFX-10 | 2026-09-05 00:29:19 | 48.28671 | 12.84983 | 288° | 7km/h | 31062m | 5.6m/s | -43.2°C | 0.7% | 10.3hPa | 2.5V | 00:00:00 | 00:00:00 | 00:00:00 | |
| OE5MMP-10 | 2026-09-05 00:29:18 | 48.28673 | 12.84986 | 185° | 7km/h | 31051m | 5.4m/s | -43.1°C | 2.6% | 10.3hPa | 2.5V | 00:00:00 | 01:59:47 | 00:00:00 | |
| PG1ADW-2 | 2026-09-05 00:29:16 | 48.28676 | 12.84984 | 127° | 11km/h | 31041m | 5.7m/s | -43.0°C | 2.5% | 10.3hPa | 2.5V | 00:00:00 | 00:00:00 | 00:00:00 | |
| OE5HKT-10 | 2026-09-05 00:29:12 | 48.28671 | 12.84981 | 338° | 11km/h | 31019m | 4.6m/s | -42.9°C | 2.5% | 10.4hPa | 2.5V | 00:00:00 | 00:00:00 | 00:00:00 | |
| OE5FHM-15 | 2026-09-05 00:29:08 | 48.28669 | 12.84995 | 253° | 15km/h | 30997m | 5.0m/s | -42.8°C | 2.5% | 10.4hPa | 2.5V | 00:00:00 | 01:59:37 | 00:00:00 | |
| OE5REO-15 | 2026-09-05 00:29:06 | 48.28671 | 12.85001 | 255° | 16km/h | 30992m | 5.3m/s | -42.8°C | 0.6% | 10.4hPa | 2.5V | 00:00:00 | 00:00:00 | 00:00:00 | |
| OE5DXL-15 | 2026-09-05 00:29:02 | 48.28674 | 12.85011 | 118° | 13km/h | 30966m | 6.9m/s | -42.7°C | 2.5% | 10.4hPa | 2.5V | 00:00:00 | 00:00:00 | 08:30:00 | |
| OE5WHR-10 | 2026-09-05 00:28:59 | 48.28679 | 12.84991 | 100° | 15km/h | 30949m | 5.5m/s | -42.7°C | 2.5% | 10.5hPa | 2.6V | 00:00:00 | 00:00:00 | 08:30:00 | |
| OE5MMP-10 | 2026-09-05 00:28:58 | 48.28679 | 12.84984 | 90° | 9km/h | 30943m | 5.8m/s | -42.7°C | 2.5% | 10.5hPa | 2.6V | 00:00:00 | 01:59:27 | 08:30:00 | |
| PG1ADW-2 | 2026-09-05 00:28:56 | 48.28678 | 12.84977 | 61° | 15km/h | 30933m | 5.0m/s | -42.8°C | 2.5% | 10.5hPa | 2.5V | 00:00:00 | 00:00:00 | 00:00:00 | |
| OE5HKT-10 | 2026-09-05 00:28:51 | 48.28684 | 12.84987 | 223° | 15km/h | 30906m | 5.1m/s | -42.8°C | 2.5% | 10.6hPa | 2.5V | 00:00:00 | 01:59:20 | 00:00:00 | |
| DO7DH-14 | 2026-09-05 00:28:49 | 48.28688 | 12.84992 | 220° | 16km/h | 30895m | 5.3m/s | -42.9°C | 2.5% | 10.5hPa | 2.5V | 00:00:00 | 01:59:18 | 00:00:00 | |
| OE5MMP-10 | 2026-09-05 00:28:48 | 48.28689 | 12.84992 | 175° | 20km/h | 30890m | 4.7m/s | -42.9°C | 2.5% | 10.5hPa | 2.5V | 00:00:00 | 01:59:17 | 00:00:00 | |
| BAUMI2-15 | 2026-09-05 00:28:39 | 48.28721 | 12.84941 | 123° | 9km/h | 30840m | 5.1m/s | -42.8°C | 2.5% | 10.7hPa | 2.5V | 00:00:00 | 01:59:08 | 00:00:00 | |
| OE5FHM-15 | 2026-09-05 00:28:38 | 48.28723 | 12.84938 | 135° | 18km/h | 30835m | 5.1m/s | -42.8°C | 2.5% | 10.7hPa | 2.5V | 00:00:00 | 01:59:07 | 00:00:00 | |
| PG1ADW-2 | 2026-09-05 00:28:36 | 48.28727 | 12.84935 | 174° | 16km/h | 30824m | 6.0m/s | -42.8°C | 2.5% | 10.7hPa | 2.5V | 00:00:00 | 00:00:00 | 00:00:00 | |
| OE5REO-15 | 2026-09-05 00:28:35 | 48.28727 | 12.84935 | 174° | 9km/h | 30824m | 6.0m/s | -42.9°C | 0.6% | 10.7hPa | 2.6V | 00:00:00 | 00:00:00 | 00:00:00 | |
| OE5DXL-15 | 2026-09-05 00:28:32 | 48.28739 | 12.84931 | 149° | 22km/h | 30802m | 6.1m/s | -42.8°C | 2.5% | 10.7hPa | 2.6V | 00:00:00 | 00:00:00 | 00:00:00 | |
| OE5HKT-10 | 2026-09-05 00:28:30 | 48.28744 | 12.84923 | 135° | 20km/h | 30791m | 4.9m/s | -42.9°C | 2.5% | 10.7hPa | 2.6V | 00:00:00 | 00:00:00 | 08:30:00 | |
| OE5MMP-10 | 2026-09-05 00:28:28 | 48.28752 | 12.84913 | 142° | 16km/h | 30779m | 5.9m/s | -42.9°C | 2.5% | 10.8hPa | 2.5V | 00:00:00 | 01:58:57 | 00:00:00 | |
| OE5REO-15 | 2026-09-05 00:28:19 | 48.28779 | 12.84887 | 153° | 15km/h | 30735m | 5.5m/s | -43.0°C | 0.6% | 10.9hPa | 2.6V | 00:00:00 | 00:00:00 | 00:00:00 | |
| OE5MMP-10 | 2026-09-05 00:28:18 | 48.28786 | 12.84879 | 135° | 26km/h | 30724m | 5.1m/s | -43.0°C | 2.5% | 10.9hPa | 2.6V | 00:00:00 | 01:58:47 | 00:00:00 | |
| OE5WHR-10 | 2026-09-05 00:28:17 | 48.28790 | 12.84873 | 123° | 26km/h | 30719m | 6.1m/s | -43.0°C | 2.5% | 10.9hPa | 2.6V | 00:00:00 | 01:58:46 | 00:00:00 | |
| PG1ADW-2 | 2026-09-05 00:28:16 | 48.28792 | 12.84866 | 112° | 26km/h | 30712m | 6.2m/s | -43.1°C | 2.5% | 10.9hPa | 2.6V | 00:00:00 | 01:58:45 | 00:00:00 | |
| OE5HKT-10 | 2026-09-05 00:28:09 | 48.28814 | 12.84801 | 128° | 22km/h | 30674m | 6.0m/s | -43.2°C | 2.5% | 10.9hPa | 2.6V | 00:00:00 | 00:00:00 | 00:00:00 | |
| OE5FHM-15 | 2026-09-05 00:28:08 | 48.28817 | 12.84793 | 122° | 20km/h | 30668m | 6.1m/s | -43.3°C | 2.6% | 10.9hPa | 2.6V | 00:00:00 | 01:58:37 | 00:00:00 | |
| OE5REO-15 | 2026-09-05 00:28:03 | 48.28825 | 12.84762 | 113° | 27km/h | 30646m | 6.0m/s | -43.4°C | 0.6% | 11.0hPa | 2.6V | 00:00:00 | 00:00:00 | 00:00:00 | |
| OE5DXL-15 | 2026-09-05 00:28:02 | 48.28831 | 12.84742 | 110° | 20km/h | 30635m | 5.1m/s | -43.4°C | 2.6% | 11.0hPa | 2.6V | 00:00:00 | 00:00:00 | 00:00:00 | |
| OE5MMP-10 | 2026-09-05 00:27:58 | 48.28838 | 12.84706 | 114° | 20km/h | 30612m | 5.4m/s | -43.5°C | 2.6% | 11.1hPa | 2.6V | 00:00:00 | 01:58:27 | 00:00:00 | |
| OE5WHR-10 | 2026-09-05 00:27:56 | 48.28843 | 12.84695 | 138° | 16km/h | 30599m | 6.0m/s | -43.5°C | 2.6% | 11.0hPa | 2.5V | 00:00:00 | 00:00:00 | 00:00:00 | |
| DO7DH-14 | 2026-09-05 00:27:53 | 48.28853 | 12.84680 | 124° | 20km/h | 30584m | 6.1m/s | -43.5°C | 2.5% | 11.1hPa | 2.6V | 00:00:00 | 01:58:22 | 00:00:00 | |
| OE5HKT-10 | 2026-09-05 00:27:48 | 48.28855 | 12.84640 | 97° | 16km/h | 30555m | 5.9m/s | -43.5°C | 2.6% | 11.1hPa | 2.6V | 00:00:00 | 01:58:17 | 00:00:00 | |
| OE5REO-15 | 2026-09-05 00:27:47 | 48.28855 | 12.84640 | 97° | 29km/h | 30555m | 6.0m/s | -43.5°C | 0.6% | 11.2hPa | 2.6V | 00:00:00 | 00:00:00 | 00:00:00 | |
| DO3MHA-11 | 2026-09-05 00:27:43 | 48.28860 | 12.84593 | 85° | 9km/h | 30529m | 6.3m/s | -43.5°C | 2.5% | 11.2hPa | 2.6V | 00:00:00 | 01:58:12 | 00:00:00 | |
| OE5FHM-15 | 2026-09-05 00:27:38 | 48.28861 | 12.84588 | 148° | 16km/h | 30501m | 5.0m/s | -43.4°C | 2.5% | 11.3hPa | 2.6V | 00:00:00 | 01:58:07 | 00:00:00 | |
| DG1MFX-10 | 2026-09-05 00:27:37 | 48.28861 | 12.84588 | 148° | 9km/h | 30501m | 5.1m/s | -43.5°C | 0.7% | 11.3hPa | 2.6V | 00:00:00 | 00:00:00 | 00:00:00 | |
| PG1ADW-2 | 2026-09-05 00:27:36 | 48.28866 | 12.84581 | 117° | 16km/h | 30491m | 5.5m/s | -43.5°C | 2.5% | 11.3hPa | 2.6V | 00:00:00 | 00:00:00 | 08:30:00 | |
| OE5WHR-10 | 2026-09-05 00:27:35 | 48.28867 | 12.84574 | 103° | 18km/h | 30485m | 6.6m/s | -43.6°C | 2.6% | 11.3hPa | 2.6V | 00:00:00 | 00:00:00 | 00:00:00 | |
| OE5DXL-15 | 2026-09-05 00:27:32 | 48.28867 | 12.84550 | 89° | 18km/h | 30467m | 5.9m/s | -43.7°C | 2.6% | 11.3hPa | 2.6V | 00:00:00 | 00:00:00 | 00:00:00 | |
| OE5REO-15 | 2026-09-05 00:27:31 | 48.28867 | 12.84567 | 89° | 22km/h | 30467m | 5.9m/s | -43.8°C | 0.6% | 11.3hPa | 2.5V | 00:00:00 | 00:00:00 | 00:00:00 | |
| OE5MMP-10 | 2026-09-05 00:27:28 | 48.28866 | 12.84527 | 44° | 13km/h | 30446m | 6.3m/s | -43.8°C | 2.6% | 11.3hPa | 2.5V | 00:00:00 | 01:57:57 | 08:30:00 | |
| OE5HKT-10 | 2026-09-05 00:27:27 | 48.28864 | 12.84526 | 12° | 18km/h | 30440m | 6.3m/s | -43.9°C | 2.6% | 11.3hPa | 2.5V | 00:00:00 | 00:00:00 | 00:00:00 | |
| OE5MMP-10 | 2026-09-05 00:27:18 | 48.28858 | 12.84486 | 73° | 20km/h | 30392m | 5.1m/s | -44.0°C | 2.7% | 11.4hPa | 2.5V | 00:00:00 | 01:57:47 | 00:00:00 | |
| PG1ADW-2 | 2026-09-05 00:27:16 | 48.28853 | 12.84467 | 64° | 16km/h | 30382m | 5.0m/s | -44.0°C | 2.6% | 11.4hPa | 2.5V | 00:00:00 | 00:00:00 | 00:00:00 | |
| OE5REO-15 | 2026-09-05 00:27:15 | 48.28853 | 12.84467 | 64° | 26km/h | 30382m | 5.0m/s | -44.0°C | 0.6% | 11.4hPa | 2.5V | 00:00:00 | 00:00:00 | 00:00:00 | |
| OE5WHR-10 | 2026-09-05 00:27:14 | 48.28848 | 12.84452 | 72° | 15km/h | 30371m | 5.5m/s | -44.0°C | 2.6% | 11.5hPa | 2.5V | 00:00:00 | 01:57:43 | 00:00:00 | |
| DO7DH-14 | 2026-09-05 00:27:09 | 48.28841 | 12.84420 | 73° | 20km/h | 30344m | 5.1m/s | -43.9°C | 2.6% | 11.5hPa | 2.5V | 00:00:00 | 01:57:38 | 00:00:00 | |
| OE5FHM-15 | 2026-09-05 00:27:08 | 48.28840 | 12.84412 | 82° | 16km/h | 30339m | 5.2m/s | -43.9°C | 2.6% | 11.5hPa | 2.6V | 00:00:00 | 01:57:37 | 00:00:00 | |
| OE5HKT-10 | 2026-09-05 00:27:06 | 48.28841 | 12.84396 | 102° | 15km/h | 30327m | 5.4m/s | -43.9°C | 2.6% | 11.5hPa | 2.6V | 00:00:00 | 00:00:00 | 00:00:00 | |
| OE5DXL-15 | 2026-09-05 00:27:02 | 48.28842 | 12.84369 | 65° | 18km/h | 30306m | 5.1m/s | -43.8°C | 2.6% | 11.6hPa | 2.6V | 00:00:00 | 00:00:00 | 00:00:00 | |
| OE5MMP-10 | 2026-09-05 00:26:58 | 48.28838 | 12.84359 | 87° | 15km/h | 30284m | 5.4m/s | -43.8°C | 2.6% | 11.6hPa | 2.6V | 00:00:00 | 01:57:27 | 00:00:00 | |
| PG1ADW-2 | 2026-09-05 00:26:56 | 48.28838 | 12.84353 | 91° | 18km/h | 30275m | 4.3m/s | -43.8°C | 2.6% | 11.6hPa | 2.6V | 00:00:00 | 01:57:25 | 00:00:00 | |
| OE5WHR-10 | 2026-09-05 00:26:53 | 48.28833 | 12.84339 | 48° | 18km/h | 30258m | 5.4m/s | -44.0°C | 2.7% | 11.7hPa | 2.6V | 00:00:00 | 00:00:00 | 00:00:00 | |
| DO3MHA-11 | 2026-09-05 00:26:49 | 48.28819 | 12.84314 | 60° | 15km/h | 30237m | 5.0m/s | -44.0°C | 2.7% | 11.7hPa | 2.5V | 00:00:00 | 01:57:18 | 00:00:00 | |
| OE5MMP-10 | 2026-09-05 00:26:48 | 48.28818 | 12.84310 | 59° | 16km/h | 30232m | 4.5m/s | -44.0°C | 2.7% | 11.7hPa | 2.5V | 00:00:00 | 01:57:17 | 00:00:00 | |
| OE5HKT-10 | 2026-09-05 00:26:45 | 48.28810 | 12.84303 | 9° | 18km/h | 30216m | 5.9m/s | -43.9°C | 2.7% | 11.8hPa | 2.5V | 00:00:00 | 01:57:14 | 00:00:00 | |
| OE5REO-15 | 2026-09-05 00:26:43 | 48.28807 | 12.84302 | 7° | 16km/h | 30210m | 5.6m/s | -44.0°C | 0.6% | 11.8hPa | 2.5V | 00:00:00 | 00:00:00 | 00:00:00 | |
| DO3MHA-11 | 2026-09-05 00:26:39 | 48.28788 | 12.84287 | 44° | 24km/h | 30184m | 5.8m/s | -43.9°C | 2.7% | 11.8hPa | 2.5V | 00:00:00 | 01:57:08 | 00:00:00 | |
| OE5FHM-15 | 2026-09-05 00:26:38 | 48.28783 | 12.84280 | 44° | 16km/h | 30178m | 6.1m/s | -43.8°C | 2.7% | 11.8hPa | 2.5V | 00:00:00 | 01:57:07 | 00:00:00 | |
| DO7DH-14 | 2026-09-05 00:26:37 | 48.28778 | 12.84273 | 43° | 26km/h | 30172m | 4.6m/s | -43.8°C | 2.7% | 11.8hPa | 2.5V | 00:00:00 | 01:57:06 | 00:00:00 | |
| PG1ADW-2 | 2026-09-05 00:26:36 | 48.28773 | 12.84266 | 45° | 16km/h | 30168m | 4.3m/s | -43.8°C | 2.7% | 11.8hPa | 2.5V | 00:00:00 | 00:00:00 | 00:00:00 | |
| DG1MFX-10 | 2026-09-05 00:26:35 | 48.28773 | 12.84266 | 46° | 26km/h | 30168m | 4.3m/s | -43.9°C | 0.7% | 11.9hPa | 2.5V | 00:00:00 | 00:00:00 | 00:00:00 | |
| OE5WHR-10 | 2026-09-05 00:26:32 | 48.28763 | 12.84249 | 13° | 15km/h | 30147m | 3.7m/s | -43.7°C | 2.7% | 11.8hPa | 2.5V | 00:00:00 | 00:00:00 | 00:00:00 | |
| BAUMI2-15 | 2026-09-05 00:26:31 | 48.28762 | 12.84250 | 331° | 16km/h | 30143m | 4.5m/s | -43.7°C | 2.7% | 11.9hPa | 2.5V | 00:00:00 | 01:57:00 | 00:00:00 | |
| OE5MMP-10 | 2026-09-05 00:26:28 | 48.28751 | 12.84255 | 354° | 18km/h | 30127m | 4.8m/s | -43.6°C | 2.7% | 11.9hPa | 2.5V | 00:00:00 | 01:56:57 | 00:00:00 | |
| OE5DXL-15 | 2026-09-05 00:26:27 | 48.28745 | 12.84255 | 5° | 13km/h | 30122m | 4.4m/s | -43.6°C | 2.7% | 11.9hPa | 2.6V | 00:00:00 | 00:00:00 | 00:00:00 | |
| BAUMI2-15 | 2026-09-05 00:26:26 | 48.28739 | 12.84254 | 16° | 18km/h | 30117m | 4.9m/s | -43.6°C | 2.6% | 11.9hPa | 2.6V | 00:00:00 | 01:56:55 | 08:30:00 | |
| OE5HKT-10 | 2026-09-05 00:26:24 | 48.28730 | 12.84247 | 44° | 15km/h | 30107m | 4.7m/s | -43.5°C | 2.6% | 11.9hPa | 2.5V | 00:00:00 | 00:00:00 | 00:00:00 | |
| BAUMI2-15 | 2026-09-05 00:26:21 | 48.28723 | 12.84234 | 45° | 11km/h | 30093m | 5.4m/s | -43.5°C | 2.6% | 12.0hPa | 2.6V | 00:00:00 | 01:56:50 | 00:00:00 | |
| OE5MMP-10 | 2026-09-05 00:26:18 | 48.28713 | 12.84226 | 17° | 15km/h | 30077m | 4.2m/s | -43.4°C | 2.6% | 12.0hPa | 2.6V | 00:00:00 | 01:56:47 | 00:00:00 | |
| PG1ADW-2 | 2026-09-05 00:26:16 | 48.28706 | 12.84223 | 18° | 11km/h | 30068m | 5.9m/s | -43.4°C | 2.6% | 12.0hPa | 2.6V | 00:00:00 | 00:00:00 | 00:00:00 | |
| DG1MFX-10 | 2026-09-05 00:26:15 | 48.28704 | 12.84221 | 29° | 9km/h | 30062m | 5.4m/s | -43.5°C | 0.7% | 12.1hPa | 2.6V | 00:00:00 | 00:00:00 | 00:00:00 | |
| BAUMI2-15 | 2026-09-05 00:26:13 | 48.28699 | 12.84218 | 34° | 18km/h | 30053m | 4.0m/s | -43.4°C | 2.6% | 12.1hPa | 2.6V | 00:00:00 | 01:56:42 | 00:00:00 | |
| OE5WHR-10 | 2026-09-05 00:26:11 | 48.28693 | 12.84213 | 19° | 15km/h | 30043m | 6.2m/s | -43.4°C | 2.6% | 12.1hPa | 2.6V | 00:00:00 | 01:56:40 | 00:00:00 | |
| OE5REO-15 | 2026-09-05 00:26:09 | 48.28688 | 12.84211 | 17° | 24km/h | 30037m | 5.3m/s | -43.5°C | 0.6% | 12.1hPa | 2.6V | 00:00:00 | 00:00:00 | 00:00:00 | |
| OE5FHM-15 | 2026-09-05 00:26:08 | 48.28676 | 12.84206 | 21° | 13km/h | 30027m | 5.3m/s | -43.5°C | 2.6% | 12.1hPa | 2.6V | 00:00:00 | 01:56:37 | 08:30:00 | |
| DO3MHA-11 | 2026-09-05 00:26:06 | 48.28668 | 12.84199 | 41° | 9km/h | 30016m | 4.4m/s | -43.5°C | 2.6% | 12.1hPa | 2.6V | 00:00:00 | 01:56:35 | 08:30:00 | |
| OE5HKT-10 | 2026-09-05 00:26:03 | 48.28661 | 12.84189 | 35° | 9km/h | 30001m | 5.7m/s | -43.4°C | 2.6% | 12.1hPa | 2.5V | 00:00:00 | 00:00:00 | 00:00:00 | |
| BAUMI2-15 | 2026-09-05 00:25:58 | 48.28653 | 12.84180 | 71° | 13km/h | 29976m | 4.2m/s | -43.4°C | 2.5% | 12.2hPa | 2.5V | 00:00:00 | 01:56:27 | 00:00:00 | |
| OE5DXL-15 | 2026-09-05 00:25:57 | 48.28653 | 12.84178 | 48° | 15km/h | 29972m | 4.0m/s | -43.4°C | 2.5% | 12.2hPa | 2.5V | 00:00:00 | 00:00:00 | 00:00:00 | |
| DO3MHA-11 | 2026-09-05 00:25:56 | 48.28651 | 12.84176 | 30° | 13km/h | 29967m | 5.8m/s | -43.4°C | 2.5% | 12.2hPa | 2.4V | 00:00:00 | 01:56:25 | 00:00:00 | |
| PG1ADW-2 | 2026-09-05 00:25:54 | 48.28643 | 12.84172 | 15° | 13km/h | 29955m | 4.9m/s | -43.5°C | 2.5% | 12.3hPa | 2.4V | 00:00:00 | 00:00:00 | 00:00:00 | |
| BAUMI2-15 | 2026-09-05 00:25:53 | 48.28638 | 12.84170 | 17° | 13km/h | 29951m | 4.5m/s | -43.5°C | 2.5% | 12.2hPa | 2.4V | 00:00:00 | 01:56:22 | 00:00:00 | |
| OE5WHR-10 | 2026-09-05 00:25:50 | 48.28627 | 12.84162 | 49° | 13km/h | 29935m | 4.5m/s | -43.7°C | 2.6% | 12.2hPa | 2.5V | 00:00:00 | 00:00:00 | 08:30:00 | |
| OE5MMP-10 | 2026-09-05 00:25:48 | 48.28625 | 12.84157 | 44° | 11km/h | 29927m | 4.6m/s | -43.7°C | 2.6% | 12.3hPa | 2.5V | 00:00:00 | 01:56:17 | 00:00:00 | |
| BAUMI2-15 | 2026-09-05 00:25:43 | 48.28611 | 12.84156 | 4° | 13km/h | 29902m | 5.1m/s | -43.8°C | 2.5% | 12.3hPa | 2.5V | 00:00:00 | 01:56:12 | 00:00:00 | |
| OE5HKT-10 | 2026-09-05 00:25:42 | 48.28608 | 12.84155 | 17° | 13km/h | 29897m | 5.5m/s | -43.8°C | 2.6% | 12.3hPa | 2.5V | 00:00:00 | 01:56:11 | 00:00:00 | |
| OE5FHM-15 | 2026-09-05 00:25:38 | 48.28597 | 12.84147 | 13° | 13km/h | 29878m | 5.8m/s | -43.9°C | 2.6% | 12.4hPa | 2.5V | 00:00:00 | 01:56:07 | 00:00:00 | |
| DO3MHA-11 | 2026-09-05 00:25:37 | 48.28593 | 12.84147 | 1° | 15km/h | 29873m | 5.4m/s | -43.9°C | 2.6% | 12.4hPa | 2.5V | 00:00:00 | 01:56:06 | 00:00:00 | |
| PG1ADW-2 | 2026-09-05 00:25:34 | 48.28582 | 12.84147 | 13° | 11km/h | 29859m | 4.8m/s | -43.9°C | 2.6% | 12.4hPa | 2.5V | 00:00:00 | 01:56:03 | 00:00:00 | |
| DL6DJ-15 | 2026-09-05 00:25:33 | 48.28579 | 12.84141 | 79° | 13km/h | 29848m | 5.7m/s | 0°C | -1.0% | -1.0hPa | 2.6V | 00:00:00 | 00:00:00 | 00:00:00 | |
| DO7DH-14 | 2026-09-05 00:25:29 | 48.28577 | 12.84122 | 73° | 11km/h | 29834m | 4.8m/s | -44.1°C | 2.6% | 12.4hPa | 2.6V | 00:00:00 | 01:55:58 | 08:30:00 | |
| BAUMI2-15 | 2026-09-05 00:25:28 | 48.28575 | 12.84116 | 56° | 13km/h | 29829m | 5.7m/s | -44.2°C | 2.6% | 12.5hPa | 2.5V | 00:00:00 | 01:55:57 | 00:00:00 | |
| OE5DXL-15 | 2026-09-05 00:25:27 | 48.28573 | 12.84112 | 34° | 9km/h | 29823m | 4.7m/s | -44.2°C | 2.6% | 12.4hPa | 2.5V | 00:00:00 | 00:00:00 | 00:00:00 | |
| DO3MHA-11 | 2026-09-05 00:25:26 | 48.28569 | 12.84109 | 20° | 9km/h | 29819m | 4.4m/s | -44.3°C | 2.6% | 12.5hPa | 2.5V | 00:00:00 | 01:55:55 | 00:00:00 | |
| BAUMI2-15 | 2026-09-05 00:25:23 | 48.28562 | 12.84106 | 32° | 5km/h | 29803m | 4.7m/s | -44.3°C | 2.6% | 12.5hPa | 2.6V | 00:00:00 | 01:55:52 | 00:00:00 | |
| OE5HKT-10 | 2026-09-05 00:25:21 | 48.28562 | 12.84104 | 80° | 9km/h | 29794m | 4.6m/s | -44.3°C | 2.6% | 12.6hPa | 2.4V | 00:00:00 | 00:00:00 | 08:30:00 | |
| OE5MMP-10 | 2026-09-05 00:25:18 | 48.28559 | 12.84097 | 65° | 13km/h | 29779m | 4.1m/s | -44.4°C | 2.6% | 12.6hPa | 2.5V | 00:00:00 | 01:55:47 | 00:00:00 | |
| DO3MHA-11 | 2026-09-05 00:25:16 | 48.28557 | 12.84088 | 83° | 11km/h | 29770m | 5.6m/s | -44.6°C | 2.7% | 12.6hPa | 2.5V | 00:00:00 | 01:55:45 | 00:00:00 | |
| PG1ADW-2 | 2026-09-05 00:25:14 | 48.28558 | 12.84078 | 100° | 9km/h | 29759m | 4.3m/s | -44.7°C | 2.7% | 12.6hPa | 2.5V | 00:00:00 | 00:00:00 | 00:00:00 | |
| BAUMI2-15 | 2026-09-05 00:25:13 | 48.28558 | 12.84074 | 82° | 13km/h | 29755m | 4.1m/s | -44.7°C | 2.7% | 12.6hPa | 2.5V | 00:00:00 | 01:55:42 | 00:00:00 | |
| DG1MFX-10 | 2026-09-05 00:25:12 | 48.28558 | 12.84074 | 82° | 7km/h | 29755m | 4.1m/s | -44.8°C | 0.7% | 12.6hPa | 2.5V | 00:00:00 | 00:00:00 | 00:00:00 | |
| OE5FHM-15 | 2026-09-05 00:25:08 | 48.28543 | 12.84078 | 334° | 9km/h | 29730m | 4.7m/s | -44.8°C | 2.7% | 12.7hPa | 2.5V | 00:00:00 | 01:55:37 | 00:00:00 | |
| DO3MHA-11 | 2026-09-05 00:25:06 | 48.28538 | 12.84082 | 326° | 9km/h | 29719m | 5.0m/s | -44.9°C | 2.7% | 12.7hPa | 2.5V | 00:00:00 | 01:55:35 | 00:00:00 | |
| BAUMI2-15 | 2026-09-05 00:25:03 | 48.28537 | 12.84082 | 31° | 7km/h | 29705m | 5.6m/s | -45.0°C | 2.7% | 12.7hPa | 2.5V | 00:00:00 | 01:55:32 | 00:00:00 | |
| DL6DJ-15 | 2026-09-05 00:25:01 | 48.28521 | 12.84099 | 59° | 4km/h | 29653m | 4.8m/s | 0°C | -1.0% | -1.0hPa | 2.5V | 00:00:00 | 00:00:00 | 00:00:00 | |
| OE5HKT-10 | 2026-09-05 00:25:00 | 48.28532 | 12.84083 | 324° | 9km/h | 29688m | 5.6m/s | -45.0°C | 2.8% | 12.7hPa | 2.5V | 00:00:00 | 00:00:00 | 00:00:00 | |
| OE5MMP-10 | 2026-09-05 00:24:58 | 48.28529 | 12.84089 | 295° | 9km/h | 29678m | 4.2m/s | -45.0°C | 2.8% | 12.8hPa | 2.5V | 00:00:00 | 01:55:27 | 00:00:00 | |
| OE5DXL-15 | 2026-09-05 00:24:57 | 48.28528 | 12.84093 | 301° | 11km/h | 29673m | 4.5m/s | -45.0°C | 2.7% | 12.8hPa | 2.5V | 00:00:00 | 00:00:00 | 00:00:00 | |
| DO3MHA-11 | 2026-09-05 00:24:56 | 48.28526 | 12.84097 | 316° | 11km/h | 29668m | 6.0m/s | -45.0°C | 2.7% | 12.8hPa | 2.5V | 00:00:00 | 01:55:25 | 00:00:00 | |
| PG1ADW-2 | 2026-09-05 00:24:54 | 48.28522 | 12.84099 | 4° | 9km/h | 29658m | 4.2m/s | -45.0°C | 2.8% | 12.8hPa | 2.6V | 00:00:00 | 00:00:00 | 00:00:00 | |
| BAUMI2-15 | 2026-09-05 00:24:53 | 48.28521 | 12.84099 | 60° | 9km/h | 29653m | 4.8m/s | -45.0°C | 2.7% | 12.8hPa | 2.6V | 00:00:00 | 01:55:22 | 08:30:00 | |
| DG1MFX-10 | 2026-09-05 00:24:51 | 48.28521 | 12.84097 | 123° | 5km/h | 29648m | 6.0m/s | -45.1°C | 0.7% | 12.9hPa | 2.6V | 00:00:00 | 00:00:00 | 00:00:00 | |
| OE5MMP-10 | 2026-09-05 00:24:48 | 48.28531 | 12.84090 | 156° | 9km/h | 29627m | 4.5m/s | -45.1°C | 2.8% | 12.8hPa | 2.6V | 00:00:00 | 01:55:17 | 00:00:00 | |
| OE5WHR-10 | 2026-09-05 00:24:47 | 48.28532 | 12.84089 | 102° | 11km/h | 29622m | 5.9m/s | -45.2°C | 2.8% | 12.9hPa | 2.6V | 00:00:00 | 00:00:00 | 00:00:00 | |
| BAUMI2-15 | 2026-09-05 00:24:43 | 48.28521 | 12.84095 | 326° | 9km/h | 29600m | 5.7m/s | -45.2°C | 2.8% | 12.9hPa | 2.5V | 00:00:00 | 01:55:12 | 00:00:00 | |
| OE5HKT-10 | 2026-09-05 00:24:39 | 48.28513 | 12.84102 | 23° | 9km/h | 29580m | 5.6m/s | -45.2°C | 2.8% | 13.0hPa | 2.5V | 00:00:00 | 01:55:08 | 00:00:00 | |
| OE5FHM-15 | 2026-09-05 00:24:38 | 48.28512 | 12.84101 | 58° | 11km/h | 29574m | 5.3m/s | -45.2°C | 2.8% | 13.0hPa | 2.5V | 00:00:00 | 01:55:07 | 00:00:00 | |
| PG1ADW-2 | 2026-09-05 00:24:34 | 48.28515 | 12.84094 | 197° | 13km/h | 29554m | 5.8m/s | -45.2°C | 2.8% | 13.0hPa | 2.5V | 00:00:00 | 00:00:00 | 08:30:00 | |
| DG1MFX-10 | 2026-09-05 00:24:31 | 48.28519 | 12.84099 | 238° | 11km/h | 29544m | 4.6m/s | -45.2°C | 0.7% | 13.1hPa | 2.6V | 00:00:00 | 00:00:00 | 00:00:00 | |
| DO7DH-14 | 2026-09-05 00:24:29 | 48.28516 | 12.84109 | 338° | 29km/h | 29528m | 5.3m/s | -45.2°C | 2.7% | 13.1hPa | 2.6V | 00:00:00 | 01:54:58 | 00:00:00 | |
| OE5MMP-10 | 2026-09-05 00:24:28 | 48.28512 | 12.84111 | 346° | 11km/h | 29523m | 4.7m/s | -45.2°C | 2.8% | 13.1hPa | 2.6V | 00:00:00 | 01:54:57 | 08:30:00 | |
| OE5DXL-15 | 2026-09-05 00:24:27 | 48.28508 | 12.84113 | 345° | 9km/h | 29518m | 4.9m/s | -45.2°C | 2.8% | 13.1hPa | 2.5V | 00:00:00 | 00:00:00 | 08:30:00 | |
| OE5WHR-10 | 2026-09-05 00:24:26 | 48.28504 | 12.84114 | 339° | 11km/h | 29513m | 5.6m/s | -45.2°C | 2.8% | 13.1hPa | 2.6V | 00:00:00 | 00:00:00 | 00:00:00 | |
| OE5HKT-10 | 2026-09-05 00:24:18 | 48.28501 | 12.84135 | 255° | 11km/h | 29469m | 6.2m/s | -45.3°C | 2.8% | 13.2hPa | 2.6V | 00:00:00 | 00:00:00 | 00:00:00 | |
| PG1ADW-2 | 2026-09-05 00:24:14 | 48.28498 | 12.84157 | 329° | 11km/h | 29449m | 6.3m/s | -45.3°C | 2.8% | 13.2hPa | 2.4V | 00:00:00 | 01:54:43 | 00:00:00 | |
| DG1MFX-10 | 2026-09-05 00:24:10 | 48.28486 | 12.84158 | 13° | 15km/h | 29433m | 5.4m/s | -45.3°C | 0.8% | 13.3hPa | 2.4V | 00:00:00 | 00:00:00 | 00:00:00 | |
| OE5MMP-10 | 2026-09-05 00:24:08 | 48.28480 | 12.84157 | 310° | 7km/h | 29417m | 4.4m/s | -45.3°C | 2.8% | 13.3hPa | 2.4V | 00:00:00 | 01:54:37 | 00:00:00 | |
| OE5WHR-10 | 2026-09-05 00:24:05 | 48.28479 | 12.84162 | 299° | 11km/h | 29401m | 5.4m/s | -45.3°C | 2.8% | 13.4hPa | 2.4V | 00:00:00 | 01:54:34 | 00:00:00 | |
| OE5MMP-10 | 2026-09-05 00:23:58 | 48.28471 | 12.84179 | 42° | 11km/h | 29363m | 6.5m/s | -45.3°C | 2.8% | 13.4hPa | 2.4V | 00:00:00 | 01:54:27 | 00:00:00 | |
| OE5HKT-10 | 2026-09-05 00:23:57 | 48.28468 | 12.84175 | 55° | 9km/h | 29357m | 5.6m/s | -45.3°C | 2.9% | 13.4hPa | 2.5V | 00:00:00 | 00:00:00 | 00:00:00 | |
| DG1MFX-10 | 2026-09-05 00:23:49 | 48.28466 | 12.84163 | 287° | 11km/h | 29322m | 6.1m/s | -45.4°C | 0.7% | 13.5hPa | 2.5V | 00:00:00 | 00:00:00 | 00:00:00 | |
| PG1ADW-2 | 2026-09-05 00:23:48 | 48.28462 | 12.84169 | 339° | 11km/h | 29310m | 5.3m/s | -45.4°C | 2.8% | 13.5hPa | 2.5V | 00:00:00 | 00:00:00 | 00:00:00 | |
| OE5WHR-10 | 2026-09-05 00:23:44 | 48.28448 | 12.84168 | 52° | 7km/h | 29289m | 5.8m/s | -45.4°C | 2.8% | 13.6hPa | 2.5V | 00:00:00 | 00:00:00 | 00:00:00 | |
| OE5FHM-15 | 2026-09-05 00:23:38 | 48.28450 | 12.84160 | 288° | 7km/h | 29257m | 5.3m/s | -45.3°C | 2.8% | 13.7hPa | 2.6V | 00:00:00 | 01:54:07 | 00:00:00 | |
| OE5HKT-10 | 2026-09-05 00:23:36 | 48.28450 | 12.84163 | 259° | 9km/h | 29245m | 5.5m/s | -45.3°C | 2.8% | 13.7hPa | 2.6V | 00:00:00 | 01:54:05 | 00:00:00 | |
| OE5MMP-10 | 2026-09-05 00:23:28 | 48.28435 | 12.84152 | 66° | 9km/h | 29201m | 4.4m/s | -45.3°C | 2.8% | 13.8hPa | 2.6V | 00:00:00 | 01:53:57 | 00:00:00 | |
| OE5DXL-15 | 2026-09-05 00:23:27 | 48.28434 | 12.84148 | 63° | 9km/h | 29197m | 4.7m/s | -45.3°C | 2.8% | 13.8hPa | 2.5V | 00:00:00 | 00:00:00 | 00:00:00 | |
| OE5WHR-10 | 2026-09-05 00:23:23 | 48.28426 | 12.84142 | 338° | 9km/h | 29175m | 4.7m/s | -45.3°C | 2.8% | 13.8hPa | 2.5V | 00:00:00 | 00:00:00 | 00:00:00 | |
| OE5MMP-10 | 2026-09-05 00:23:18 | 48.28429 | 12.84151 | 217° | 7km/h | 29148m | 5.2m/s | -45.2°C | 2.8% | 13.9hPa | 2.5V | 00:00:00 | 01:53:47 | 00:00:00 | |
| OE5HKT-10 | 2026-09-05 00:23:15 | 48.28426 | 12.84153 | 16° | 9km/h | 29131m | 5.2m/s | -45.2°C | 2.8% | 13.9hPa | 2.5V | 00:00:00 | 00:00:00 | 00:00:00 | |
| OE5REO-15 | 2026-09-05 00:23:10 | 48.28419 | 12.84145 | 53° | 5km/h | 29109m | 4.7m/s | -45.3°C | 0.7% | 14.0hPa | 2.5V | 00:00:00 | 00:00:00 | 00:00:00 | |
| OE5FHM-15 | 2026-09-05 00:23:08 | 48.28417 | 12.84146 | 264° | 9km/h | 29093m | 5.2m/s | -45.3°C | 2.8% | 14.0hPa | 2.5V | 00:00:00 | 01:53:37 | 00:00:00 | |
| DG1MFX-10 | 2026-09-05 00:23:07 | 48.28418 | 12.84146 | 264° | 7km/h | 29093m | 5.2m/s | -45.4°C | 0.7% | 14.0hPa | 2.5V | 00:00:00 | 00:00:00 | 00:00:00 | |
| OE5WHR-10 | 2026-09-05 00:23:02 | 48.28429 | 12.84175 | 272° | 7km/h | 29060m | 6.1m/s | -45.6°C | 2.8% | 14.0hPa | 2.5V | 00:00:00 | 01:53:31 | 00:00:00 | |
| OE5MMP-10 | 2026-09-05 00:22:58 | 48.28424 | 12.84178 | 54° | 7km/h | 29038m | 5.8m/s | -45.7°C | 2.8% | 14.1hPa | 2.5V | 00:00:00 | 01:53:27 | 08:30:00 | |
| OE5DXL-15 | 2026-09-05 00:22:57 | 48.28423 | 12.84177 | 108° | 7km/h | 29032m | 5.4m/s | -45.7°C | 2.8% | 14.1hPa | 2.5V | 00:00:00 | 01:53:26 | 00:00:00 | |
| OE5HKT-10 | 2026-09-05 00:22:54 | 48.28426 | 12.84173 | 198° | 7km/h | 29016m | 6.2m/s | -45.7°C | 2.8% | 14.2hPa | 2.6V | 00:00:00 | 00:00:00 | 00:00:00 | |
| PG1ADW-2 | 2026-09-05 00:22:53 | 48.28426 | 12.84175 | 251° | 11km/h | 29010m | 5.2m/s | -45.7°C | 2.9% | 14.1hPa | 2.6V | 00:00:00 | 00:00:00 | 00:00:00 | |
| OE5MMP-10 | 2026-09-05 00:22:47 | 48.28434 | 12.84195 | 264° | 7km/h | 28979m | 6.4m/s | -45.8°C | 2.9% | 14.2hPa | 2.6V | 00:00:00 | 01:53:16 | 00:00:00 | |
| OE5REO-15 | 2026-09-05 00:22:46 | 48.28434 | 12.84195 | 264° | 7km/h | 28979m | 6.4m/s | -45.8°C | 0.7% | 14.3hPa | 2.6V | 00:00:00 | 00:00:00 | 00:00:00 | |
| OE5WHR-10 | 2026-09-05 00:22:41 | 48.28431 | 12.84190 | 153° | 7km/h | 28945m | 5.3m/s | -45.8°C | 2.9% | 14.3hPa | 2.6V | 00:00:00 | 00:00:00 | 08:30:00 | |
| OE5FHM-15 | 2026-09-05 00:22:38 | 48.28436 | 12.84192 | 242° | 7km/h | 28930m | 5.6m/s | -45.7°C | 2.8% | 14.3hPa | 2.5V | 00:00:00 | 01:53:07 | 00:00:00 | |
| OE5MMP-10 | 2026-09-05 00:22:37 | 48.28436 | 12.84193 | 294° | 5km/h | 28925m | 5.5m/s | -45.7°C | 2.9% | 14.3hPa | 2.5V | 00:00:00 | 01:53:06 | 00:00:00 | |
| BAUMI2-15 | 2026-09-05 00:22:31 | 48.28428 | 12.84182 | 62° | 4km/h | 28892m | 6.3m/s | -45.7°C | 2.9% | 14.4hPa | 2.5V | 00:00:00 | 01:53:00 | 00:00:00 | |
| OE5REO-15 | 2026-09-05 00:22:30 | 48.28428 | 12.84182 | 62° | 5km/h | 28892m | 6.3m/s | -45.8°C | 0.7% | 14.5hPa | 2.5V | 00:00:00 | 00:00:00 | 00:00:00 | |
| OE5MMP-10 | 2026-09-05 00:22:27 | 48.28428 | 12.84179 | 111° | 7km/h | 28871m | 5.9m/s | -45.7°C | 2.9% | 14.5hPa | 2.5V | 00:00:00 | 01:52:56 | 00:00:00 | |
| BAUMI2-15 | 2026-09-05 00:22:26 | 48.28428 | 12.84178 | 83° | 7km/h | 28865m | 5.5m/s | -45.8°C | 2.9% | 14.5hPa | 2.5V | 00:00:00 | 01:52:55 | 00:00:00 | |
| BAUMI2-15 | 2026-09-05 00:22:21 | 48.28420 | 12.84175 | 330° | 9km/h | 28837m | 5.1m/s | -45.8°C | 2.8% | 14.5hPa | 2.5V | 00:00:00 | 01:52:50 | 00:00:00 | |
| OE5WHR-10 | 2026-09-05 00:22:20 | 48.28417 | 12.84177 | 331° | 7km/h | 28833m | 4.8m/s | -45.8°C | 2.8% | 14.6hPa | 2.4V | 00:00:00 | 00:00:00 | 00:00:00 | |
| OE5MMP-10 | 2026-09-05 00:22:17 | 48.28413 | 12.84178 | 82° | 5km/h | 28816m | 4.9m/s | -45.8°C | 2.8% | 14.6hPa | 2.4V | 00:00:00 | 01:52:46 | 00:00:00 | |
| BAUMI2-15 | 2026-09-05 00:22:16 | 48.28413 | 12.84177 | 130° | 4km/h | 28811m | 5.8m/s | -45.9°C | 2.8% | 14.6hPa | 2.4V | 00:00:00 | 01:52:45 | 00:00:00 | |
| OE5REO-15 | 2026-09-05 00:22:14 | 48.28414 | 12.84177 | 171° | 4km/h | 28805m | 6.4m/s | -45.9°C | 0.7% | 14.7hPa | 2.4V | 00:00:00 | 00:00:00 | 00:00:00 | |
| OE5HKT-10 | 2026-09-05 00:22:12 | 48.28417 | 12.84176 | 130° | 9km/h | 28787m | 6.3m/s | -46.0°C | 2.9% | 14.7hPa | 2.4V | 00:00:00 | 00:00:00 | 08:30:00 | |
| BAUMI2-15 | 2026-09-05 00:22:11 | 48.28417 | 12.84175 | 71° | 9km/h | 28781m | 5.7m/s | -46.1°C | 2.9% | 14.7hPa | 2.6V | 00:00:00 | 01:52:40 | 00:00:00 | |
| OE5FHM-15 | 2026-09-05 00:22:08 | 48.28412 | 12.84175 | 328° | 13km/h | 28765m | 6.4m/s | -46.2°C | 2.9% | 14.7hPa | 2.6V | 00:00:00 | 01:52:37 | 00:00:00 | |
| OE5MMP-10 | 2026-09-05 00:22:07 | 48.28410 | 12.84179 | 319° | 9km/h | 28759m | 5.2m/s | -46.2°C | 2.9% | 14.7hPa | 2.6V | 00:00:00 | 01:52:36 | 00:00:00 | |
| BAUMI2-15 | 2026-09-05 00:22:06 | 48.28407 | 12.84182 | 318° | 7km/h | 28754m | 4.8m/s | -46.2°C | 2.9% | 14.8hPa | 2.6V | 00:00:00 | 01:52:35 | 08:30:00 | |
| BAUMI2-15 | 2026-09-05 00:22:00 | 48.28404 | 12.84191 | 209° | 11km/h | 28720m | 5.9m/s | -46.1°C | 2.9% | 14.8hPa | 2.6V | 00:00:00 | 01:52:29 | 00:00:00 | |
| OE5WHR-10 | 2026-09-05 00:21:59 | 48.28407 | 12.84193 | 209° | 11km/h | 28715m | 5.1m/s | -46.1°C | 2.9% | 14.8hPa | 2.6V | 00:00:00 | 01:52:28 | 00:00:00 | |
| OE5REO-15 | 2026-09-05 00:21:58 | 48.28407 | 12.84193 | 209° | 13km/h | 28715m | 5.2m/s | -46.1°C | 0.8% | 14.9hPa | 2.6V | 00:00:00 | 00:00:00 | 00:00:00 | |
| OE5MMP-10 | 2026-09-05 00:21:57 | 48.28412 | 12.84197 | 201° | 9km/h | 28704m | 6.2m/s | -46.1°C | 2.9% | 14.8hPa | 2.6V | 00:00:00 | 01:52:26 | 00:00:00 | |
| BAUMI2-15 | 2026-09-05 00:21:55 | 48.28415 | 12.84199 | 240° | 9km/h | 28692m | 4.9m/s | -46.1°C | 2.9% | 14.9hPa | 2.6V | 00:00:00 | 01:52:24 | 00:00:00 | |
| OE5HKT-10 | 2026-09-05 00:21:51 | 48.28415 | 12.84214 | 272° | 15km/h | 28671m | 5.0m/s | -46.3°C | 2.9% | 15.0hPa | 2.6V | 00:00:00 | 00:00:00 | 00:00:00 | |
| BAUMI2-15 | 2026-09-05 00:21:50 | 48.28415 | 12.84217 | 257° | 11km/h | 28665m | 6.1m/s | -46.3°C | 2.9% | 14.9hPa | 2.6V | 00:00:00 | 01:52:19 | 00:00:00 | |
| OE5MMP-10 | 2026-09-05 00:21:47 | 48.28421 | 12.84219 | 179° | 15km/h | 28649m | 5.2m/s | -46.3°C | 3.0% | 15.0hPa | 2.5V | 00:00:00 | 01:52:16 | 00:00:00 | |
| BAUMI2-15 | 2026-09-05 00:21:45 | 48.28429 | 12.84220 | 194° | 15km/h | 28637m | 5.3m/s | -46.2°C | 3.0% | 15.1hPa | 2.5V | 00:00:00 | 01:52:14 | 00:00:00 | |
| OE5REO-15 | 2026-09-05 00:21:43 | 48.28433 | 12.84221 | 195° | 18km/h | 28633m | 4.5m/s | -46.3°C | 0.8% | 15.1hPa | 2.5V | 00:00:00 | 00:00:00 | 00:00:00 | |
| BAUMI2-15 | 2026-09-05 00:21:40 | 48.28447 | 12.84226 | 206° | 13km/h | 28611m | 4.9m/s | -46.2°C | 2.9% | 15.1hPa | 2.5V | 00:00:00 | 01:52:09 | 00:00:00 | |
| OE5WHR-10 | 2026-09-05 00:21:38 | 48.28451 | 12.84232 | 236° | 16km/h | 28599m | 5.6m/s | -46.2°C | 3.0% | 15.1hPa | 2.5V | 00:00:00 | 00:00:00 | 00:00:00 | |
| OE5MMP-10 | 2026-09-05 00:21:37 | 48.28453 | 12.84236 | 237° | 18km/h | 28595m | 4.6m/s | -46.2°C | 2.9% | 15.1hPa | 2.5V | 00:00:00 | 01:52:06 | 00:00:00 | |
| BAUMI2-15 | 2026-09-05 00:21:35 | 48.28458 | 12.84245 | 217° | 16km/h | 28584m | 6.0m/s | -46.2°C | 3.0% | 15.2hPa | 2.5V | 00:00:00 | 01:52:04 | 00:00:00 | |
| OE5REO-15 | 2026-09-05 00:21:28 | 48.28485 | 12.84258 | 201° | 24km/h | 28552m | 4.7m/s | -46.1°C | 0.7% | 15.3hPa | 2.6V | 00:00:00 | 00:00:00 | 00:00:00 | |
| OE5MMP-10 | 2026-09-05 00:21:27 | 48.28496 | 12.84262 | 189° | 15km/h | 28541m | 6.1m/s | -46.1°C | 2.9% | 15.2hPa | 2.6V | 00:00:00 | 01:51:56 | 08:30:00 | |
| BAUMI2-15 | 2026-09-05 00:21:25 | 48.28504 | 12.84262 | 183° | 13km/h | 28530m | 4.9m/s | -46.1°C | 2.9% | 15.3hPa | 2.5V | 00:00:00 | 01:51:54 | 00:00:00 | |
| BAUMI2-15 | 2026-09-05 00:21:20 | 48.28521 | 12.84267 | 172° | 16km/h | 28503m | 6.3m/s | -46.2°C | 2.9% | 15.3hPa | 2.5V | 00:00:00 | 01:51:49 | 08:30:00 | |
| OE5WHR-10 | 2026-09-05 00:21:17 | 48.28532 | 12.84261 | 163° | 13km/h | 28487m | 5.7m/s | -46.3°C | 2.9% | 15.3hPa | 2.4V | 00:00:00 | 00:00:00 | 00:00:00 | |
| BAUMI2-15 | 2026-09-05 00:21:15 | 48.28540 | 12.84260 | 185° | 13km/h | 28476m | 5.0m/s | -46.3°C | 2.9% | 15.4hPa | 2.4V | 00:00:00 | 01:51:44 | 00:00:00 | |
| OE5REO-15 | 2026-09-05 00:21:12 | 48.28547 | 12.84260 | 175° | 13km/h | 28465m | 5.9m/s | -46.3°C | 0.7% | 15.5hPa | 2.4V | 00:00:00 | 00:00:00 | 00:00:00 | |
| BAUMI2-15 | 2026-09-05 00:21:10 | 48.28556 | 12.84253 | 143° | 13km/h | 28449m | 5.4m/s | -46.2°C | 2.9% | 15.5hPa | 2.4V | 00:00:00 | 01:51:39 | 00:00:00 | |
| OE5HKT-10 | 2026-09-05 00:21:09 | 48.28559 | 12.84251 | 149° | 13km/h | 28443m | 5.8m/s | -46.2°C | 2.9% | 15.5hPa | 2.4V | 00:00:00 | 00:00:00 | 00:00:00 | |
| OE5FHM-15 | 2026-09-05 00:21:08 | 48.28561 | 12.84249 | 153° | 11km/h | 28438m | 4.7m/s | -46.2°C | 2.9% | 15.5hPa | 2.6V | 00:00:00 | 01:51:37 | 00:00:00 | |
| OE5MMP-10 | 2026-09-05 00:21:07 | 48.28564 | 12.84246 | 146° | 13km/h | 28433m | 4.3m/s | -46.2°C | 2.9% | 15.5hPa | 2.6V | 00:00:00 | 01:51:36 | 00:00:00 | |
| BAUMI2-15 | 2026-09-05 00:21:05 | 48.28569 | 12.84239 | 128° | 13km/h | 28422m | 6.3m/s | -46.2°C | 2.8% | 15.5hPa | 2.6V | 00:00:00 | 01:51:34 | 00:00:00 | |
| DG1MFX-10 | 2026-09-05 00:21:04 | 48.28569 | 12.84239 | 128° | 15km/h | 28422m | 6.4m/s | -46.2°C | 0.8% | 15.6hPa | 2.5V | 00:00:00 | 00:00:00 | 00:00:00 | |
| BAUMI2-15 | 2026-09-05 00:21:00 | 48.28580 | 12.84225 | 201° | 11km/h | 28395m | 5.2m/s | -46.2°C | 2.9% | 15.6hPa | 2.5V | 00:00:00 | 01:51:29 | 00:00:00 | |
| OE5MMP-10 | 2026-09-05 00:20:57 | 48.28588 | 12.84229 | 181° | 13km/h | 28380m | 5.8m/s | -46.4°C | 2.9% | 15.6hPa | 2.5V | 00:00:00 | 01:51:26 | 00:00:00 | |
| OE5WHR-10 | 2026-09-05 00:20:56 | 48.28591 | 12.84228 | 155° | 11km/h | 28374m | 5.3m/s | -46.5°C | 2.9% | 15.6hPa | 2.5V | 00:00:00 | 01:51:25 | 00:00:00 | |
| BAUMI2-15 | 2026-09-05 00:20:55 | 48.28593 | 12.84226 | 144° | 13km/h | 28368m | 5.3m/s | -46.5°C | 2.9% | 15.7hPa | 2.5V | 00:00:00 | 01:51:24 | 00:00:00 | |
| BAUMI2-15 | 2026-09-05 00:20:50 | 48.28606 | 12.84209 | 124° | 13km/h | 28343m | 5.4m/s | -46.7°C | 2.9% | 15.7hPa | 2.5V | 00:00:00 | 01:51:19 | 00:00:00 | |
| OE5HKT-10 | 2026-09-05 00:20:48 | 48.28609 | 12.84199 | 112° | 7km/h | 28331m | 4.9m/s | -46.8°C | 2.9% | 15.7hPa | 2.5V | 00:00:00 | 00:00:00 | 00:00:00 | |
| OE5MMP-10 | 2026-09-05 00:20:47 | 48.28610 | 12.84194 | 116° | 7km/h | 28327m | 4.7m/s | -46.8°C | 2.9% | 15.8hPa | 2.5V | 00:00:00 | 01:51:16 | 00:00:00 | |
| BAUMI2-15 | 2026-09-05 00:20:45 | 48.28614 | 12.84189 | 167° | 7km/h | 28315m | 6.1m/s | -46.9°C | 2.9% | 15.8hPa | 2.5V | 00:00:00 | 01:51:14 | 00:00:00 | |
| DG1MFX-10 | 2026-09-05 00:20:43 | 48.28616 | 12.84189 | 202° | 7km/h | 28310m | 5.0m/s | -46.9°C | 0.8% | 15.8hPa | 2.5V | 00:00:00 | 00:00:00 | 00:00:00 | |
| OE5REO-15 | 2026-09-05 00:20:42 | 48.28617 | 12.84190 | 209° | 7km/h | 28305m | 4.5m/s | -47.0°C | 0.8% | 15.9hPa | 2.5V | 00:00:00 | 00:00:00 | 00:00:00 | |
| BAUMI2-15 | 2026-09-05 00:20:40 | 48.28622 | 12.84190 | 146° | 9km/h | 28288m | 5.1m/s | -47.0°C | 3.0% | 15.8hPa | 2.5V | 00:00:00 | 01:51:09 | 00:00:00 | |
| OE5FHM-15 | 2026-09-05 00:20:38 | 48.28625 | 12.84188 | 150° | 7km/h | 28277m | 5.7m/s | -47.0°C | 3.0% | 15.9hPa | 2.5V | 00:00:00 | 01:51:07 | 00:00:00 | |
| OE5MMP-10 | 2026-09-05 00:20:37 | 48.28627 | 12.84186 | 142° | 7km/h | 28272m | 4.7m/s | -47.0°C | 3.0% | 15.9hPa | 2.5V | 00:00:00 | 01:51:06 | 00:00:00 | |
| OE5WHR-10 | 2026-09-05 00:20:35 | 48.28629 | 12.84181 | 107° | 7km/h | 28261m | 6.2m/s | -47.1°C | 3.0% | 15.9hPa | 2.5V | 00:00:00 | 00:00:00 | 00:00:00 | |
| OE5MMP-10 | 2026-09-05 00:20:27 | 48.28635 | 12.84173 | 167° | 9km/h | 28217m | 5.3m/s | -47.5°C | 3.1% | 16.0hPa | 2.6V | 00:00:00 | 01:50:56 | 00:00:00 | |
| OE5DXL-15 | 2026-09-05 00:20:26 | 48.28638 | 12.84171 | 148° | 11km/h | 28207m | 5.4m/s | -47.5°C | 3.1% | 16.0hPa | 2.5V | 00:00:00 | 00:00:00 | 00:00:00 | |
| DG1MFX-10 | 2026-09-05 00:20:23 | 48.28640 | 12.84169 | 155° | 9km/h | 28201m | 6.0m/s | -47.5°C | 0.8% | 16.1hPa | 2.5V | 00:00:00 | 00:00:00 | 00:00:00 | |
| OE5MMP-10 | 2026-09-05 00:20:17 | 48.28649 | 12.84147 | 84° | 7km/h | 28164m | 6.2m/s | -47.6°C | 3.1% | 16.2hPa | 2.5V | 00:00:00 | 01:50:46 | 00:00:00 | |
| OE5WHR-10 | 2026-09-05 00:20:14 | 48.28650 | 12.84147 | 185° | 11km/h | 28149m | 5.2m/s | -47.7°C | 3.1% | 16.2hPa | 2.5V | 00:00:00 | 00:00:00 | 00:00:00 | |
| OE5REO-15 | 2026-09-05 00:20:11 | 48.28652 | 12.84145 | 136° | 9km/h | 28138m | 5.0m/s | -47.7°C | 0.8% | 16.3hPa | 2.5V | 00:00:00 | 00:00:00 | 00:00:00 | |
| OE5FHM-15 | 2026-09-05 00:20:08 | 48.28660 | 12.84134 | 136° | 9km/h | 28117m | 4.3m/s | -47.6°C | 3.0% | 16.3hPa | 2.5V | 00:00:00 | 01:50:37 | 00:00:00 | |
| OE5MMP-10 | 2026-09-05 00:20:07 | 48.28661 | 12.84131 | 122° | 9km/h | 28112m | 4.7m/s | -47.6°C | 3.0% | 16.3hPa | 2.5V | 00:00:00 | 01:50:36 | 00:00:00 | |
| OE5HKT-10 | 2026-09-05 00:20:06 | 48.28662 | 12.84127 | 108° | 9km/h | 28106m | 6.5m/s | -47.6°C | 3.0% | 16.3hPa | 2.5V | 00:00:00 | 00:00:00 | 00:00:00 | |
| DG1MFX-10 | 2026-09-05 00:20:02 | 48.28664 | 12.84112 | 106° | 11km/h | 28090m | 4.9m/s | -47.8°C | 0.8% | 16.4hPa | 2.5V | 00:00:00 | 00:00:00 | 00:00:00 | |
| OE5MMP-10 | 2026-09-05 00:19:57 | 48.28672 | 12.84100 | 108° | 11km/h | 28057m | 5.4m/s | -48.2°C | 3.1% | 16.4hPa | 2.5V | 00:00:00 | 01:50:26 | 08:30:00 | |
| OE5REO-15 | 2026-09-05 00:19:55 | 48.28673 | 12.84095 | 101° | 15km/h | 28052m | 4.6m/s | -48.3°C | 0.8% | 16.5hPa | 2.6V | 00:00:00 | 00:00:00 | 00:00:00 | |
| OE5WHR-10 | 2026-09-05 00:19:53 | 48.28673 | 12.84081 | 83° | 9km/h | 28036m | 4.9m/s | -48.4°C | 3.2% | 16.5hPa | 2.6V | 00:00:00 | 01:50:22 | 00:00:00 | |
| OE5MMP-10 | 2026-09-05 00:19:47 | 48.28667 | 12.84066 | 23° | 7km/h | 28002m | 6.3m/s | -48.6°C | 3.2% | 16.6hPa | 2.6V | 00:00:00 | 01:50:16 | 00:00:00 | |
| OE5HKT-10 | 2026-09-05 00:19:45 | 48.28666 | 12.84067 | 257° | 9km/h | 27992m | 4.4m/s | -48.6°C | 3.2% | 16.6hPa | 2.6V | 00:00:00 | 00:00:00 | 00:00:00 | |
| DG1MFX-10 | 2026-09-05 00:19:41 | 48.28665 | 12.84065 | 46° | 9km/h | 27975m | 5.1m/s | -48.7°C | 0.9% | 16.7hPa | 2.6V | 00:00:00 | 00:00:00 | 00:00:00 | |
| OE5REO-15 | 2026-09-05 00:19:39 | 48.28660 | 12.84060 | 29° | 13km/h | 27965m | 6.0m/s | -48.8°C | 0.8% | 16.7hPa | 2.6V | 00:00:00 | 00:00:00 | 00:00:00 | |
| OE5FHM-15 | 2026-09-05 00:19:38 | 48.28654 | 12.84057 | 10° | 13km/h | 27954m | 4.9m/s | -48.8°C | 3.2% | 16.7hPa | 2.6V | 00:00:00 | 01:50:07 | 00:00:00 | |
| OE5MMP-10 | 2026-09-05 00:19:37 | 48.28651 | 12.84056 | 13° | 11km/h | 27949m | 4.6m/s | -48.8°C | 3.2% | 16.7hPa | 2.6V | 00:00:00 | 01:50:06 | 00:00:00 | |
| OE5WHR-10 | 2026-09-05 00:19:32 | 48.28642 | 12.84040 | 101° | 13km/h | 27922m | 6.3m/s | -48.8°C | 3.3% | 16.8hPa | 2.6V | 00:00:00 | 00:00:00 | 08:30:00 | |
| OE5MMP-10 | 2026-09-05 00:19:27 | 48.28648 | 12.84031 | 90° | 16km/h | 27894m | 5.5m/s | -48.7°C | 3.2% | 16.8hPa | 2.6V | 00:00:00 | 01:49:56 | 00:00:00 | |
| OE5DXL-15 | 2026-09-05 00:19:25 | 48.28643 | 12.84023 | 24° | 15km/h | 27878m | 6.4m/s | -48.6°C | 3.1% | 16.9hPa | 2.4V | 00:00:00 | 00:00:00 | 00:00:00 | |
| OE5HKT-10 | 2026-09-05 00:19:24 | 48.28643 | 12.84023 | 24° | 16km/h | 27878m | 6.4m/s | -48.6°C | 3.1% | 16.9hPa | 2.4V | 00:00:00 | 01:49:53 | 00:00:00 | |
| DG1MFX-10 | 2026-09-05 00:19:21 | 48.28635 | 12.84019 | 20° | 16km/h | 27867m | 4.4m/s | -48.6°C | 0.8% | 17.0hPa | 2.4V | 00:00:00 | 00:00:00 | 00:00:00 | |
| OE5MMP-10 | 2026-09-05 00:19:17 | 48.28622 | 12.83991 | 87° | 13km/h | 27840m | 5.7m/s | -48.8°C | 3.1% | 17.0hPa | 2.4V | 00:00:00 | 01:49:46 | 00:00:00 | |
| DO3MHA-11 | 2026-09-05 00:19:12 | 48.28624 | 12.83971 | 78° | 18km/h | 27811m | 5.7m/s | -49.2°C | 3.2% | 17.1hPa | 2.4V | 00:00:00 | 01:49:41 | 00:00:00 | |
| OE5WHR-10 | 2026-09-05 00:19:11 | 48.28623 | 12.83967 | 59° | 15km/h | 27806m | 5.2m/s | -49.3°C | 3.2% | 17.1hPa | 2.4V | 00:00:00 | 00:00:00 | 00:00:00 | |
| OE5FHM-15 | 2026-09-05 00:19:08 | 48.28613 | 12.83957 | 25° | 15km/h | 27788m | 5.2m/s | -49.4°C | 3.3% | 17.2hPa | 2.4V | 00:00:00 | 01:49:37 | 00:00:00 | |
| OE5MMP-10 | 2026-09-05 00:19:07 | 48.28609 | 12.83953 | 31° | 15km/h | 27783m | 4.9m/s | -49.5°C | 3.3% | 17.2hPa | 2.4V | 00:00:00 | 01:49:36 | 00:00:00 | |
| OE5HKT-10 | 2026-09-05 00:19:03 | 48.28594 | 12.83927 | 67° | 15km/h | 27761m | 5.4m/s | -49.6°C | 3.4% | 17.2hPa | 2.4V | 00:00:00 | 00:00:00 | 08:30:00 | |
| DO3MHA-11 | 2026-09-05 00:19:02 | 48.28592 | 12.83922 | 70° | 7km/h | 27755m | 6.5m/s | -49.6°C | 3.4% | 17.2hPa | 2.5V | 00:00:00 | 01:49:31 | 00:00:00 | |
| DG1MFX-10 | 2026-09-05 00:19:01 | 48.28593 | 12.83922 | 71° | 13km/h | 27755m | 6.6m/s | -49.6°C | 0.9% | 17.3hPa | 2.5V | 00:00:00 | 00:00:00 | 00:00:00 | |
| OE5MMP-10 | 2026-09-05 00:18:57 | 48.28588 | 12.83915 | 27° | 18km/h | 27727m | 5.4m/s | -49.8°C | 3.4% | 17.3hPa | 2.5V | 00:00:00 | 01:49:26 | 00:00:00 | |
| DO3MHA-11 | 2026-09-05 00:18:52 | 48.28569 | 12.83908 | 10° | 16km/h | 27700m | 4.9m/s | -49.8°C | 3.4% | 17.4hPa | 2.5V | 00:00:00 | 01:49:21 | 08:30:00 | |
| OE5WHR-10 | 2026-09-05 00:18:50 | 48.28558 | 12.83903 | 24° | 15km/h | 27687m | 5.9m/s | -49.7°C | 3.4% | 17.4hPa | 2.6V | 00:00:00 | 01:49:19 | 00:00:00 | |
| OE5MMP-10 | 2026-09-05 00:18:47 | 48.28545 | 12.83897 | 358° | 13km/h | 27671m | 6.4m/s | -49.7°C | 3.4% | 17.4hPa | 2.6V | 00:00:00 | 01:49:16 | 00:00:00 | |
| OE5HKT-10 | 2026-09-05 00:18:42 | 48.28529 | 12.83903 | 351° | 13km/h | 27642m | 5.0m/s | -49.6°C | 3.4% | 17.5hPa | 2.6V | 00:00:00 | 00:00:00 | 00:00:00 | |
| DG1MFX-10 | 2026-09-05 00:18:41 | 48.28529 | 12.83903 | 351° | 11km/h | 27642m | 5.0m/s | -49.7°C | 0.9% | 17.6hPa | 2.6V | 00:00:00 | 00:00:00 | 00:00:00 | |
| OE5FHM-15 | 2026-09-05 00:18:38 | 48.28517 | 12.83908 | 358° | 15km/h | 27619m | 5.8m/s | -49.6°C | 3.4% | 17.6hPa | 2.6V | 00:00:00 | 01:49:07 | 00:00:00 | |
| OE5MMP-10 | 2026-09-05 00:18:37 | 48.28513 | 12.83907 | 12° | 13km/h | 27612m | 6.3m/s | -49.6°C | 3.4% | 17.6hPa | 2.6V | 00:00:00 | 01:49:06 | 00:00:00 | |
| OE5REO-15 | 2026-09-05 00:18:36 | 48.28513 | 12.83907 | 12° | 16km/h | 27612m | 6.4m/s | -49.6°C | 0.9% | 17.7hPa | 2.6V | 00:00:00 | 00:00:00 | 00:00:00 | |
| BAUMI2-15 | 2026-09-05 00:18:34 | 48.28500 | 12.83902 | 7° | 15km/h | 27597m | 6.0m/s | -49.5°C | 3.4% | 17.7hPa | 2.6V | 00:00:00 | 01:49:03 | 08:30:00 | |
| DO3MHA-11 | 2026-09-05 00:18:32 | 48.28493 | 12.83903 | 339° | 9km/h | 27585m | 5.6m/s | -49.5°C | 3.4% | 17.7hPa | 2.6V | 00:00:00 | 01:49:01 | 00:00:00 | |
| OE5WHR-10 | 2026-09-05 00:18:29 | 48.28485 | 12.83908 | 354° | 13km/h | 27567m | 5.9m/s | -49.5°C | 3.3% | 17.7hPa | 2.6V | 00:00:00 | 00:00:00 | 00:00:00 | |
| OE5MMP-10 | 2026-09-05 00:18:27 | 48.28481 | 12.83909 | 344° | 13km/h | 27555m | 6.6m/s | -49.5°C | 3.3% | 17.8hPa | 2.4V | 00:00:00 | 01:48:56 | 08:30:00 | |
| BAUMI2-15 | 2026-09-05 00:18:24 | 48.28475 | 12.83912 | 349° | 15km/h | 27538m | 6.0m/s | -49.6°C | 3.4% | 17.8hPa | 2.5V | 00:00:00 | 01:48:53 | 00:00:00 | |
| OE5DXL-15 | 2026-09-05 00:18:23 | 48.28465 | 12.83913 | 354° | 15km/h | 27520m | 5.0m/s | -49.5°C | 3.3% | 17.9hPa | 2.5V | 00:00:00 | 00:00:00 | 00:00:00 | |
| OE5HKT-10 | 2026-09-05 00:18:21 | 48.28465 | 12.83913 | 354° | 15km/h | 27520m | 5.0m/s | -49.5°C | 3.3% | 17.9hPa | 2.5V | 00:00:00 | 01:48:50 | 00:00:00 | |
| DG1MFX-10 | 2026-09-05 00:18:20 | 48.28465 | 12.83913 | 355° | 16km/h | 27520m | 5.1m/s | -49.6°C | 0.9% | 17.9hPa | 2.5V | 00:00:00 | 00:00:00 | 00:00:00 | |
| BAUMI2-15 | 2026-09-05 00:18:19 | 48.28457 | 12.83917 | 327° | 16km/h | 27508m | 6.2m/s | -49.5°C | 3.4% | 17.9hPa | 2.5V | 00:00:00 | 01:48:48 | 00:00:00 | |
| OE5MMP-10 | 2026-09-05 00:18:17 | 48.28450 | 12.83928 | 309° | 11km/h | 27498m | 5.0m/s | -49.5°C | 3.3% | 17.9hPa | 2.5V | 00:00:00 | 01:48:46 | 00:00:00 | |
| BAUMI2-15 | 2026-09-05 00:18:14 | 48.28443 | 12.83939 | 323° | 9km/h | 27480m | 5.1m/s | -49.6°C | 3.3% | 18.0hPa | 2.5V | 00:00:00 | 01:48:43 | 00:00:00 | |
| BAUMI2-15 | 2026-09-05 00:18:09 | 48.28434 | 12.83951 | 320° | 11km/h | 27452m | 5.1m/s | -49.7°C | 3.4% | 18.0hPa | 2.5V | 00:00:00 | 01:48:38 | 00:00:00 | |
| OE5WHR-10 | 2026-09-05 00:18:08 | 48.28431 | 12.83954 | 325° | 15km/h | 27446m | 6.5m/s | -49.7°C | 3.4% | 18.1hPa | 2.5V | 00:00:00 | 00:00:00 | 00:00:00 | |
| OE5MMP-10 | 2026-09-05 00:18:07 | 48.28429 | 12.83956 | 329° | 15km/h | 27440m | 6.3m/s | -49.7°C | 3.4% | 18.1hPa | 2.5V | 00:00:00 | 01:48:36 | 00:00:00 | |
| BAUMI2-15 | 2026-09-05 00:18:04 | 48.28424 | 12.83965 | 284° | 18km/h | 27423m | 6.9m/s | -49.7°C | 3.4% | 18.2hPa | 2.5V | 00:00:00 | 01:48:33 | 00:00:00 | |
| OE5HKT-10 | 2026-09-05 00:18:00 | 48.28424 | 12.83995 | 265° | 15km/h | 27400m | 6.3m/s | -49.7°C | 3.4% | 18.2hPa | 2.4V | 00:00:00 | 00:00:00 | 00:00:00 | |
| BAUMI2-15 | 2026-09-05 00:17:58 | 48.28425 | 12.84005 | 258° | 13km/h | 27388m | 5.6m/s | -49.7°C | 3.4% | 18.2hPa | 2.6V | 00:00:00 | 01:48:27 | 00:00:00 | |
| OE5MMP-10 | 2026-09-05 00:17:57 | 48.28426 | 12.84010 | 263° | 13km/h | 27383m | 5.1m/s | -49.7°C | 3.4% | 18.2hPa | 2.6V | 00:00:00 | 01:48:26 | 00:00:00 | |
| BAUMI2-15 | 2026-09-05 00:17:53 | 48.28425 | 12.84032 | 273° | 15km/h | 27360m | 5.1m/s | -49.7°C | 3.4% | 18.3hPa | 2.5V | 00:00:00 | 01:48:22 | 00:00:00 | |
| BAUMI2-15 | 2026-09-05 00:17:48 | 48.28425 | 12.84057 | 283° | 11km/h | 27331m | 6.2m/s | -49.7°C | 3.4% | 18.4hPa | 2.5V | 00:00:00 | 01:48:17 | 08:30:00 | |
| OE5MMP-10 | 2026-09-05 00:17:47 | 48.28425 | 12.84061 | 281° | 16km/h | 27325m | 4.8m/s | -49.7°C | 3.4% | 18.4hPa | 2.5V | 00:00:00 | 01:48:16 | 00:00:00 | |
| BAUMI2-15 | 2026-09-05 00:17:42 | 48.28434 | 12.84079 | 220° | 13km/h | 27296m | 6.1m/s | -49.6°C | 3.4% | 18.5hPa | 2.5V | 00:00:00 | 01:48:11 | 00:00:00 | |
| OE5HKT-10 | 2026-09-05 00:17:39 | 48.28444 | 12.84097 | 237° | 16km/h | 27278m | 5.5m/s | -49.5°C | 3.5% | 18.6hPa | 2.5V | 00:00:00 | 00:00:00 | 00:00:00 | |
| OE5MMP-10 | 2026-09-05 00:17:37 | 48.28450 | 12.84110 | 228° | 16km/h | 27266m | 5.5m/s | -49.5°C | 3.4% | 18.6hPa | 2.5V | 00:00:00 | 01:48:06 | 00:00:00 | |
| OE5FHM-15 | 2026-09-05 00:17:36 | 48.28454 | 12.84115 | 226° | 16km/h | 27261m | 4.7m/s | -49.5°C | 3.4% | 18.6hPa | 2.5V | 00:00:00 | 01:48:05 | 00:00:00 | |
| OE5REO-15 | 2026-09-05 00:17:32 | 48.28460 | 12.84127 | 246° | 11km/h | 27244m | 5.4m/s | -49.5°C | 0.9% | 18.7hPa | 2.5V | 00:00:00 | 00:00:00 | 00:00:00 | |
| BAUMI2-15 | 2026-09-05 00:17:30 | 48.28467 | 12.84136 | 202° | 20km/h | 27227m | 6.6m/s | -49.3°C | 3.4% | 18.7hPa | 2.5V | 00:00:00 | 01:47:59 | 00:00:00 | |
| OE5MMP-10 | 2026-09-05 00:17:27 | 48.28482 | 12.84143 | 200° | 16km/h | 27209m | 6.6m/s | -49.3°C | 3.4% | 18.8hPa | 2.5V | 00:00:00 | 01:47:56 | 00:00:00 | |
| OE5WHR-10 | 2026-09-05 00:17:26 | 48.28486 | 12.84146 | 206° | 15km/h | 27202m | 5.4m/s | -49.3°C | 3.4% | 18.8hPa | 2.5V | 00:00:00 | 00:00:00 | 00:00:00 | |
| BAUMI2-15 | 2026-09-05 00:17:24 | 48.28494 | 12.84153 | 209° | 18km/h | 27192m | 5.0m/s | -49.3°C | 3.4% | 18.8hPa | 2.6V | 00:00:00 | 01:47:53 | 00:00:00 | |
| OE5DXL-15 | 2026-09-05 00:17:21 | 48.28511 | 12.84164 | 207° | 13km/h | 27170m | 5.8m/s | -49.2°C | 3.4% | 18.9hPa | 2.6V | 00:00:00 | 00:00:00 | 00:00:00 | |
| BAUMI2-15 | 2026-09-05 00:17:19 | 48.28514 | 12.84166 | 216° | 13km/h | 27163m | 6.5m/s | -49.2°C | 3.4% | 18.9hPa | 2.6V | 00:00:00 | 01:47:48 | 00:00:00 | |
| OE5HKT-10 | 2026-09-05 00:17:18 | 48.28517 | 12.84169 | 222° | 11km/h | 27158m | 5.2m/s | -49.2°C | 3.4% | 18.9hPa | 2.6V | 00:00:00 | 01:47:47 | 00:00:00 | |
| OE5MMP-10 | 2026-09-05 00:17:17 | 48.28519 | 12.84172 | 215° | 15km/h | 27152m | 4.6m/s | -49.2°C | 3.4% | 18.9hPa | 2.6V | 00:00:00 | 01:47:46 | 00:00:00 | |
| BAUMI2-15 | 2026-09-05 00:17:14 | 48.28530 | 12.84175 | 180° | 16km/h | 27135m | 5.0m/s | -49.1°C | 3.3% | 19.0hPa | 2.6V | 00:00:00 | 01:47:43 | 00:00:00 | |
| BAUMI2-15 | 2026-09-05 00:17:09 | 48.28549 | 12.84175 | 186° | 11km/h | 27107m | 5.2m/s | -49.1°C | 3.3% | 19.0hPa | 2.6V | 00:00:00 | 01:47:38 | 00:00:00 | |
| OE5MMP-10 | 2026-09-05 00:17:07 | 48.28555 | 12.84175 | 187° | 9km/h | 27096m | 5.7m/s | -49.1°C | 3.3% | 19.1hPa | 2.5V | 00:00:00 | 01:47:36 | 00:00:00 | |
| OE5FHM-15 | 2026-09-05 00:17:06 | 48.28558 | 12.84176 | 192° | 11km/h | 27090m | 4.9m/s | -49.1°C | 3.3% | 19.1hPa | 2.5V | 00:00:00 | 01:47:35 | 08:30:00 | |
| OE5WHR-10 | 2026-09-05 00:17:05 | 48.28561 | 12.84177 | 197° | 11km/h | 27085m | 5.7m/s | -49.1°C | 3.4% | 19.1hPa | 2.6V | 00:00:00 | 00:00:00 | 00:00:00 | |
| BAUMI2-15 | 2026-09-05 00:17:04 | 48.28563 | 12.84179 | 208° | 7km/h | 27079m | 6.5m/s | -49.2°C | 3.4% | 19.2hPa | 2.6V | 00:00:00 | 01:47:33 | 00:00:00 | |
| OE5REO-15 | 2026-09-05 00:17:01 | 48.28565 | 12.84180 | 176° | 4km/h | 27068m | 4.9m/s | -49.2°C | 0.9% | 19.2hPa | 2.6V | 00:00:00 | 00:00:00 | 00:00:00 | |
| BAUMI2-15 | 2026-09-05 00:16:59 | 48.28571 | 12.84174 | 133° | 9km/h | 27050m | 4.9m/s | -49.2°C | 3.4% | 19.3hPa | 2.6V | 00:00:00 | 01:47:28 | 00:00:00 | |
| DG1MFX-10 | 2026-09-05 00:16:58 | 48.28571 | 12.84174 | 133° | 13km/h | 27050m | 4.9m/s | -49.2°C | 0.9% | 19.3hPa | 2.6V | 00:00:00 | 00:00:00 | 00:00:00 | |
| OE5HKT-10 | 2026-09-05 00:16:57 | 48.28574 | 12.84167 | 113° | 11km/h | 27040m | 5.6m/s | -49.1°C | 3.3% | 19.3hPa | 2.6V | 00:00:00 | 00:00:00 | 00:00:00 | |
| BAUMI2-15 | 2026-09-05 00:16:54 | 48.28575 | 12.84165 | 258° | 15km/h | 27024m | 5.0m/s | -49.1°C | 3.3% | 19.3hPa | 2.5V | 00:00:00 | 01:47:23 | 08:30:00 | |
| BAUMI2-15 | 2026-09-05 00:16:50 | 48.28590 | 12.84179 | 179° | 15km/h | 26998m | 6.1m/s | -49.0°C | 3.3% | 19.4hPa | 2.5V | 00:00:00 | 01:47:18 | 00:00:00 | |
| OE5MMP-10 | 2026-09-05 00:16:47 | 48.28598 | 12.84175 | 144° | 11km/h | 26986m | 4.9m/s | -49.0°C | 3.3% | 19.4hPa | 2.5V | 00:00:00 | 01:47:16 | 00:00:00 | |
| OE5WHR-10 | 2026-09-05 00:16:44 | 48.28606 | 12.84163 | 132° | 9km/h | 26969m | 5.2m/s | -48.9°C | 3.2% | 19.5hPa | 2.5V | 00:00:00 | 01:47:13 | 00:00:00 | |
| OE5REO-15 | 2026-09-05 00:16:41 | 48.28609 | 12.84156 | 103° | 7km/h | 26957m | 6.3m/s | -48.9°C | 0.9% | 19.6hPa | 2.5V | 00:00:00 | 00:00:00 | 00:00:00 | |
| BAUMI2-15 | 2026-09-05 00:16:39 | 48.28610 | 12.84153 | 189° | 15km/h | 26942m | 6.1m/s | -48.9°C | 3.3% | 19.6hPa | 2.5V | 00:00:00 | 01:47:08 | 00:00:00 | |
| OE5MMP-10 | 2026-09-05 00:16:37 | 48.28616 | 12.84154 | 185° | 9km/h | 26931m | 4.8m/s | -48.9°C | 3.3% | 19.6hPa | 2.6V | 00:00:00 | 01:47:06 | 00:00:00 | |
| OE5FHM-15 | 2026-09-05 00:16:36 | 48.28620 | 12.84154 | 177° | 13km/h | 26926m | 5.0m/s | -48.9°C | 3.3% | 19.6hPa | 2.6V | 00:00:00 | 01:47:05 | 00:00:00 | |
| OE5MMP-10 | 2026-09-05 00:16:26 | 48.28631 | 12.84129 | 95° | 15km/h | 26870m | 4.4m/s | -49.0°C | 3.3% | 19.8hPa | 2.6V | 00:00:00 | 01:46:55 | 00:00:00 | |
| OE5REO-15 | 2026-09-05 00:16:25 | 48.28631 | 12.84129 | 96° | 7km/h | 26870m | 4.5m/s | -49.1°C | 0.9% | 19.8hPa | 2.5V | 00:00:00 | 00:00:00 | 00:00:00 | |
| OE5WHR-10 | 2026-09-05 00:16:23 | 48.28637 | 12.84122 | 164° | 16km/h | 26853m | 6.3m/s | -49.1°C | 3.4% | 19.8hPa | 2.5V | 00:00:00 | 00:00:00 | 08:30:00 | |
| OE5DXL-15 | 2026-09-05 00:16:19 | 48.28655 | 12.84112 | 146° | 16km/h | 26830m | 5.0m/s | -49.2°C | 3.4% | 19.9hPa | 2.6V | 00:00:00 | 00:00:00 | 00:00:00 | |
| DG1MFX-10 | 2026-09-05 00:16:18 | 48.28658 | 12.84109 | 144° | 13km/h | 26825m | 4.6m/s | -49.3°C | 0.9% | 20.0hPa | 2.6V | 00:00:00 | 00:00:00 | 00:00:00 | |
| DO3MHA-11 | 2026-09-05 00:16:17 | 48.28660 | 12.84106 | 151° | 11km/h | 26820m | 6.1m/s | -49.2°C | 3.4% | 19.9hPa | 2.6V | 00:00:00 | 01:46:46 | 00:00:00 | |
| OE5MMP-10 | 2026-09-05 00:16:16 | 48.28662 | 12.84105 | 165° | 15km/h | 26814m | 6.0m/s | -49.2°C | 3.4% | 19.9hPa | 2.6V | 00:00:00 | 01:46:45 | 00:00:00 | |
| OE5HKT-10 | 2026-09-05 00:16:15 | 48.28665 | 12.84104 | 175° | 16km/h | 26808m | 5.2m/s | -49.2°C | 3.4% | 20.0hPa | 2.6V | 00:00:00 | 01:46:44 | 00:00:00 | |
| OE5REO-15 | 2026-09-05 00:16:09 | 48.28678 | 12.84104 | 191° | 18km/h | 26780m | 6.7m/s | -49.1°C | 0.9% | 20.1hPa | 2.6V | 00:00:00 | 00:00:00 | 00:00:00 | |
| OE5FHM-15 | 2026-09-05 00:16:06 | 48.28703 | 12.84108 | 177° | 13km/h | 26757m | 5.3m/s | -49.0°C | 3.4% | 20.1hPa | 2.6V | 00:00:00 | 01:46:35 | 00:00:00 | |
| OE5WHR-10 | 2026-09-05 00:16:02 | 48.28724 | 12.84106 | 182° | 13km/h | 26736m | 5.0m/s | -49.0°C | 3.3% | 20.2hPa | 2.6V | 00:00:00 | 00:00:00 | 00:00:00 | |
| DO3MHA-11 | 2026-09-05 00:15:56 | 48.28743 | 12.84105 | 195° | 18km/h | 26703m | 6.4m/s | -49.0°C | 3.3% | 20.3hPa | 2.6V | 00:00:00 | 01:46:25 | 00:00:00 | |
| OE5MMP-10 | 2026-09-05 00:15:55 | 48.28747 | 12.84107 | 202° | 15km/h | 26697m | 5.8m/s | -49.0°C | 3.3% | 20.3hPa | 2.6V | 00:00:00 | 01:46:24 | 00:00:00 | |
| OE5HKT-10 | 2026-09-05 00:15:54 | 48.28752 | 12.84110 | 202° | 11km/h | 26691m | 5.3m/s | -49.1°C | 3.3% | 20.4hPa | 2.5V | 00:00:00 | 00:00:00 | 08:30:00 | |
| OE5DXL-15 | 2026-09-05 00:15:48 | 48.28778 | 12.84118 | 202° | 7km/h | 26658m | 5.8m/s | -49.1°C | 3.3% | 20.5hPa | 2.5V | 00:00:00 | 00:00:00 | 00:00:00 | |
| DO3MHA-11 | 2026-09-05 00:15:46 | 48.28781 | 12.84120 | 217° | 11km/h | 26647m | 5.5m/s | -49.0°C | 3.3% | 20.5hPa | 2.6V | 00:00:00 | 01:46:15 | 00:00:00 | |
| OE5MMP-10 | 2026-09-05 00:15:45 | 48.28781 | 12.84120 | 77° | 9km/h | 26641m | 6.5m/s | -49.1°C | 3.3% | 20.5hPa | 2.6V | 00:00:00 | 01:46:14 | 00:00:00 | |
| OE5WHR-10 | 2026-09-05 00:15:41 | 48.28783 | 12.84120 | 212° | 9km/h | 26619m | 6.1m/s | -49.1°C | 3.3% | 20.6hPa | 2.6V | 00:00:00 | 01:46:10 | 00:00:00 | |
| OE5REO-15 | 2026-09-05 00:15:38 | 48.28788 | 12.84124 | 202° | 15km/h | 26607m | 6.2m/s | -49.2°C | 0.9% | 20.7hPa | 2.6V | 00:00:00 | 00:00:00 | 00:00:00 | |
| OE5FHM-15 | 2026-09-05 00:15:36 | 48.28799 | 12.84126 | 186° | 7km/h | 26591m | 4.7m/s | -49.1°C | 3.3% | 20.7hPa | 2.6V | 00:00:00 | 01:46:05 | 00:00:00 | |
| OE5MMP-10 | 2026-09-05 00:15:35 | 48.28802 | 12.84127 | 194° | 7km/h | 26586m | 6.2m/s | -49.2°C | 3.3% | 20.7hPa | 2.6V | 00:00:00 | 01:46:04 | 00:00:00 | |
| DO3MHA-11 | 2026-09-05 00:15:34 | 48.28805 | 12.84129 | 205° | 7km/h | 26580m | 5.7m/s | -49.2°C | 3.3% | 20.7hPa | 2.6V | 00:00:00 | 01:46:03 | 00:00:00 | |
| OE5HKT-10 | 2026-09-05 00:15:33 | 48.28807 | 12.84130 | 212° | 7km/h | 26574m | 5.4m/s | -49.2°C | 3.3% | 20.7hPa | 2.6V | 00:00:00 | 00:00:00 | 00:00:00 | |
| PG1ADW-2 | 2026-09-05 00:15:32 | 48.28808 | 12.84131 | 203° | 11km/h | 26569m | 6.2m/s | -49.2°C | 3.3% | 20.7hPa | 2.6V | 00:00:00 | 01:46:01 | 00:00:00 | |
| OE5MMP-10 | 2026-09-05 00:15:25 | 48.28808 | 12.84140 | 285° | 9km/h | 26531m | 4.8m/s | -49.2°C | 3.3% | 20.9hPa | 2.6V | 00:00:00 | 01:45:54 | 08:30:00 | |
| OE5REO-15 | 2026-09-05 00:15:23 | 48.28807 | 12.84144 | 286° | 13km/h | 26526m | 5.8m/s | -49.2°C | 0.9% | 20.9hPa | 2.6V | 00:00:00 | 00:00:00 | 00:00:00 | |
| OE5WHR-10 | 2026-09-05 00:15:20 | 48.28806 | 12.84153 | 260° | 9km/h | 26504m | 5.5m/s | -49.2°C | 3.3% | 21.0hPa | 2.6V | 00:00:00 | 00:00:00 | 00:00:00 | |
| OE5DXL-15 | 2026-09-05 00:15:18 | 48.28807 | 12.84160 | 257° | 11km/h | 26492m | 5.3m/s | -49.2°C | 3.3% | 21.0hPa | 2.5V | 00:00:00 | 00:00:00 | 00:00:00 | |
| DB0ND-19 | 2026-09-05 00:15:15 | 48.28810 | 12.84174 | 247° | 5km/h | 26470m | 4.6m/s | -49.3°C | -1.0% | -1.0hPa | 2.5V | 00:00:00 | 00:00:00 | 00:00:00 | |
| OE5HKT-10 | 2026-09-05 00:15:12 | 48.28810 | 12.84180 | 275° | 9km/h | 26459m | 5.8m/s | -49.4°C | 3.3% | 21.1hPa | 2.5V | 00:00:00 | 01:45:41 | 00:00:00 | |
| OE5REO-15 | 2026-09-05 00:15:08 | 48.28809 | 12.84188 | 308° | 2km/h | 26443m | 6.5m/s | -49.4°C | 0.9% | 21.2hPa | 2.5V | 00:00:00 | 00:00:00 | 00:00:00 | |
| OE5FHM-15 | 2026-09-05 00:15:06 | 48.28811 | 12.84184 | 147° | 9km/h | 26426m | 6.3m/s | -49.4°C | 3.4% | 21.2hPa | 2.5V | 00:00:00 | 01:45:35 | 00:00:00 | |
| OE5MMP-10 | 2026-09-05 00:15:05 | 48.28814 | 12.84182 | 167° | 13km/h | 26420m | 5.8m/s | -49.4°C | 3.4% | 21.2hPa | 2.5V | 00:00:00 | 01:45:34 | 00:00:00 | |
| DO3MHA-11 | 2026-09-05 00:15:04 | 48.28817 | 12.84182 | 173° | 9km/h | 26414m | 5.0m/s | -49.4°C | 3.4% | 21.2hPa | 2.5V | 00:00:00 | 01:45:33 | 08:30:00 | |
| PG1ADW-2 | 2026-09-05 00:15:00 | 48.28832 | 12.84180 | 196° | 9km/h | 26393m | 6.0m/s | -49.5°C | 3.4% | 21.3hPa | 2.6V | 00:00:00 | 00:00:00 | 00:00:00 | |
| OE5WHR-10 | 2026-09-05 00:14:59 | 48.28834 | 12.84182 | 223° | 9km/h | 26386m | 6.3m/s | -49.5°C | 3.4% | 21.3hPa | 2.6V | 00:00:00 | 00:00:00 | 00:00:00 | |
| OE5MMP-10 | 2026-09-05 00:14:55 | 48.28838 | 12.84192 | 172° | 11km/h | 26365m | 5.9m/s | -49.4°C | 3.4% | 21.4hPa | 2.6V | 00:00:00 | 01:45:24 | 00:00:00 | |
| DG1MFX-10 | 2026-09-05 00:14:53 | 48.28839 | 12.84191 | 133° | 7km/h | 26359m | 5.0m/s | -49.4°C | 1.0% | 21.5hPa | 2.6V | 00:00:00 | 00:00:00 | 00:00:00 | |
| OE5HKT-10 | 2026-09-05 00:14:51 | 48.28845 | 12.84183 | 158° | 11km/h | 26343m | 5.8m/s | -49.4°C | 3.4% | 21.5hPa | 2.6V | 00:00:00 | 00:00:00 | 00:00:00 | |
| DO3MHA-11 | 2026-09-05 00:14:49 | 48.28851 | 12.84182 | 187° | 15km/h | 26333m | 5.1m/s | -49.4°C | 3.4% | 21.5hPa | 2.6V | 00:00:00 | 01:45:18 | 00:00:00 | |
| OE5MMP-10 | 2026-09-05 00:14:45 | 48.28864 | 12.84183 | 184° | 7km/h | 26311m | 4.9m/s | -49.4°C | 3.4% | 21.6hPa | 2.6V | 00:00:00 | 01:45:14 | 00:00:00 | |
| PG1ADW-2 | 2026-09-05 00:14:40 | 48.28866 | 12.84185 | 113° | 7km/h | 26282m | 5.4m/s | -49.3°C | 3.3% | 21.7hPa | 2.6V | 00:00:00 | 00:00:00 | 00:00:00 | |
| OE5WHR-10 | 2026-09-05 00:14:38 | 48.28869 | 12.84181 | 149° | 11km/h | 26272m | 5.8m/s | -49.2°C | 3.3% | 21.7hPa | 2.6V | 00:00:00 | 01:45:07 | 00:00:00 | |
| OE5FHM-15 | 2026-09-05 00:14:36 | 48.28875 | 12.84179 | 179° | 11km/h | 26259m | 5.5m/s | -49.2°C | 3.3% | 21.8hPa | 2.6V | 00:00:00 | 01:45:05 | 00:00:00 | |
| OE5MMP-10 | 2026-09-05 00:14:35 | 48.28880 | 12.84179 | 181° | 11km/h | 26254m | 5.3m/s | -49.2°C | 3.3% | 21.8hPa | 2.6V | 00:00:00 | 01:45:04 | 00:00:00 | |
| DO3MHA-11 | 2026-09-05 00:14:34 | 48.28885 | 12.84178 | 177° | 15km/h | 26248m | 5.9m/s | -49.2°C | 3.3% | 21.8hPa | 2.6V | 00:00:00 | 01:45:03 | 00:00:00 | |
| DG1MFX-10 | 2026-09-05 00:14:32 | 48.28890 | 12.84177 | 169° | 20km/h | 26242m | 5.8m/s | -49.3°C | 0.9% | 21.9hPa | 2.6V | 00:00:00 | 00:00:00 | 00:00:00 | |
| OE5HKT-10 | 2026-09-05 00:14:30 | 48.28900 | 12.84172 | 163° | 7km/h | 26227m | 6.3m/s | -49.2°C | 3.3% | 21.9hPa | 2.6V | 00:00:00 | 00:00:00 | 00:00:00 | |
| OE5MMP-10 | 2026-09-05 00:14:25 | 48.28899 | 12.84174 | 58° | 9km/h | 26198m | 5.4m/s | -49.3°C | 3.4% | 21.9hPa | 2.6V | 00:00:00 | 01:44:54 | 00:00:00 | |
| DK5PH-5 | 2026-09-05 00:14:21 | 48.28904 | 12.84171 | 181° | 38km/h | 26177m | 5.0m/s | -49.3°C | 3.3% | 22.1hPa | 2.6V | 00:00:00 | 01:44:50 | 00:00:00 | |
| BAUMI2-15 | 2026-09-05 00:14:20 | 48.28907 | 12.84171 | 171° | 13km/h | 26171m | 5.3m/s | -49.2°C | 3.4% | 22.1hPa | 2.6V | 00:00:00 | 01:44:49 | 00:00:00 | |
| OE5WHR-10 | 2026-09-05 00:14:17 | 48.28915 | 12.84163 | 127° | 13km/h | 26155m | 4.9m/s | -49.2°C | 3.3% | 22.1hPa | 2.5V | 00:00:00 | 00:00:00 | 00:00:00 | |
| OE5MMP-10 | 2026-09-05 00:14:15 | 48.28917 | 12.84157 | 106° | 13km/h | 26143m | 5.7m/s | -49.2°C | 3.4% | 22.2hPa | 2.5V | 00:00:00 | 01:44:44 | 00:00:00 | |
| DG1MFX-10 | 2026-09-05 00:14:12 | 48.28917 | 12.84153 | 89° | 7km/h | 26133m | 5.2m/s | -49.2°C | 0.9% | 22.2hPa | 2.5V | 00:00:00 | 00:00:00 | 00:00:00 | |
| BAUMI2-15 | 2026-09-05 00:14:10 | 48.28919 | 12.84141 | 119° | 16km/h | 26116m | 4.4m/s | -49.2°C | 3.4% | 22.3hPa | 2.5V | 00:00:00 | 01:44:39 | 00:00:00 | |
| OE5HKT-10 | 2026-09-05 00:14:09 | 48.28922 | 12.84136 | 131° | 16km/h | 26112m | 5.5m/s | -49.2°C | 3.4% | 22.3hPa | 2.5V | 00:00:00 | 01:44:38 | 00:00:00 | |
| DO3MHA-11 | 2026-09-05 00:14:07 | 48.28928 | 12.84128 | 149° | 18km/h | 26100m | 5.0m/s | -49.2°C | 3.4% | 22.3hPa | 2.5V | 00:00:00 | 01:44:36 | 00:00:00 | |
| OE5FHM-15 | 2026-09-05 00:14:06 | 48.28931 | 12.84125 | 144° | 18km/h | 26095m | 4.0m/s | -49.2°C | 3.4% | 22.3hPa | 2.6V | 00:00:00 | 01:44:35 | 00:00:00 | |
| BAUMI2-15 | 2026-09-05 00:14:05 | 48.28934 | 12.84121 | 133° | 18km/h | 26091m | 5.6m/s | -49.2°C | 3.4% | 22.3hPa | 2.6V | 00:00:00 | 01:44:34 | 08:30:00 | |
| OE5REO-15 | 2026-09-05 00:14:04 | 48.28934 | 12.84121 | 133° | 16km/h | 26091m | 5.7m/s | -49.2°C | 0.9% | 22.4hPa | 2.6V | 00:00:00 | 00:00:00 | 00:00:00 | |
| BAUMI2-15 | 2026-09-05 00:14:00 | 48.28936 | 12.84088 | 71° | 13km/h | 26063m | 5.4m/s | -49.1°C | 3.4% | 22.4hPa | 2.6V | 00:00:00 | 01:44:29 | 00:00:00 | |
| OE5WHR-10 | 2026-09-05 00:13:56 | 48.28938 | 12.84072 | 123° | 20km/h | 26042m | 5.4m/s | -49.0°C | 3.3% | 22.5hPa | 2.6V | 00:00:00 | 00:00:00 | 00:00:00 | |
| OE5MMP-10 | 2026-09-05 00:13:55 | 48.28941 | 12.84066 | 120° | 20km/h | 26037m | 5.3m/s | -49.0°C | 3.3% | 22.5hPa | 2.6V | 00:00:00 | 01:44:24 | 08:30:00 | |
| DO3MHA-11 | 2026-09-05 00:13:54 | 48.28943 | 12.84060 | 114° | 20km/h | 26031m | 5.5m/s | -49.0°C | 3.3% | 22.5hPa | 2.6V | 00:00:00 | 01:44:23 | 00:00:00 | |
| DG1MFX-10 | 2026-09-05 00:13:51 | 48.28945 | 12.84046 | 100° | 18km/h | 26020m | 5.3m/s | -49.1°C | 0.9% | 22.7hPa | 2.6V | 00:00:00 | 00:00:00 | 00:00:00 | |
| BAUMI2-15 | 2026-09-05 00:13:50 | 48.28947 | 12.84032 | 105° | 20km/h | 26009m | 6.3m/s | -49.0°C | 3.3% | 22.6hPa | 2.6V | 00:00:00 | 01:44:19 | 00:00:00 | |
| OE5HKT-10 | 2026-09-05 00:13:48 | 48.28951 | 12.84017 | 111° | 22km/h | 25998m | 4.5m/s | -49.1°C | 3.3% | 22.6hPa | 2.5V | 00:00:00 | 00:00:00 | 00:00:00 | |
| OE5MMP-10 | 2026-09-05 00:13:45 | 48.28954 | 12.83995 | 93° | 22km/h | 25981m | 5.0m/s | -49.1°C | 3.3% | 22.7hPa | 2.5V | 00:00:00 | 01:44:14 | 00:00:00 | |
| DO3MHA-11 | 2026-09-05 00:13:43 | 48.28955 | 12.83980 | 100° | 22km/h | 25970m | 6.6m/s | -49.1°C | 3.3% | 22.8hPa | 2.5V | 00:00:00 | 01:44:12 | 00:00:00 | |
| BAUMI2-15 | 2026-09-05 00:13:40 | 48.28960 | 12.83954 | 105° | 22km/h | 25954m | 5.7m/s | -49.1°C | 3.3% | 22.8hPa | 2.5V | 00:00:00 | 01:44:09 | 00:00:00 | |
| OE5FHM-15 | 2026-09-05 00:13:36 | 48.28964 | 12.83922 | 106° | 22km/h | 25932m | 6.0m/s | -49.1°C | 3.3% | 22.9hPa | 2.5V | 00:00:00 | 01:44:05 | 00:00:00 | |
| OE5MMP-10 | 2026-09-05 00:13:35 | 48.28966 | 12.83914 | 110° | 22km/h | 25926m | 5.3m/s | -49.2°C | 3.3% | 22.9hPa | 2.5V | 00:00:00 | 01:44:04 | 00:00:00 | |
| DO3MHA-11 | 2026-09-05 00:13:33 | 48.28969 | 12.83899 | 100° | 22km/h | 25915m | 6.2m/s | -49.3°C | 3.3% | 23.0hPa | 2.5V | 00:00:00 | 01:44:02 | 00:00:00 | |
| DG1MFX-10 | 2026-09-05 00:13:31 | 48.28969 | 12.83891 | 91° | 20km/h | 25910m | 5.1m/s | -49.4°C | 0.9% | 23.0hPa | 2.6V | 00:00:00 | 00:00:00 | 00:00:00 | |
| BAUMI2-15 | 2026-09-05 00:13:30 | 48.28968 | 12.83875 | 85° | 22km/h | 25899m | 6.0m/s | -49.3°C | 3.4% | 23.0hPa | 2.6V | 00:00:00 | 01:43:59 | 00:00:00 | |
| OE5HKT-10 | 2026-09-05 00:13:27 | 48.28965 | 12.83849 | 74° | 22km/h | 25884m | 6.1m/s | -49.3°C | 3.4% | 23.1hPa | 2.6V | 00:00:00 | 00:00:00 | 00:00:00 | |
| OE5MMP-10 | 2026-09-05 00:13:25 | 48.28962 | 12.83833 | 71° | 22km/h | 25873m | 4.4m/s | -49.3°C | 3.4% | 23.1hPa | 2.6V | 00:00:00 | 01:43:54 | 00:00:00 | |
| BAUMI2-15 | 2026-09-05 00:13:24 | 48.28960 | 12.83826 | 76° | 22km/h | 25868m | 6.1m/s | -49.3°C | 3.4% | 23.2hPa | 2.5V | 00:00:00 | 01:43:53 | 00:00:00 | |
| DO3MHA-11 | 2026-09-05 00:13:23 | 48.28959 | 12.83818 | 83° | 26km/h | 25862m | 5.4m/s | -49.3°C | 3.4% | 23.1hPa | 2.5V | 00:00:00 | 01:43:52 | 00:00:00 | |
| BAUMI2-15 | 2026-09-05 00:13:19 | 48.28955 | 12.83786 | 75° | 26km/h | 25841m | 4.7m/s | -49.3°C | 3.4% | 23.2hPa | 2.5V | 00:00:00 | 01:43:48 | 08:30:00 | |
| OE5REO-15 | 2026-09-05 00:13:17 | 48.28954 | 12.83777 | 79° | 24km/h | 25836m | 5.5m/s | -49.4°C | 0.9% | 23.3hPa | 2.5V | 00:00:00 | 00:00:00 | 00:00:00 | |
| OE5MMP-10 | 2026-09-05 00:13:15 | 48.28951 | 12.83747 | 82° | 22km/h | 25820m | 4.3m/s | -49.3°C | 3.4% | 23.3hPa | 2.5V | 00:00:00 | 01:43:44 | 00:00:00 | |
| OE5WHR-10 | 2026-09-05 00:13:14 | 48.28950 | 12.83737 | 77° | 22km/h | 25815m | 5.8m/s | -49.3°C | 3.3% | 23.3hPa | 2.5V | 00:00:00 | 00:00:00 | 08:30:00 | |
| DO3MHA-11 | 2026-09-05 00:13:13 | 48.28948 | 12.83728 | 72° | 24km/h | 25810m | 5.1m/s | -49.3°C | 3.4% | 23.3hPa | 2.5V | 00:00:00 | 01:43:42 | 00:00:00 | |
| DG1MFX-10 | 2026-09-05 00:13:10 | 48.28945 | 12.83713 | 81° | 20km/h | 25800m | 5.9m/s | -49.4°C | 0.9% | 23.4hPa | 2.5V | 00:00:00 | 00:00:00 | 00:00:00 | |
| BAUMI2-15 | 2026-09-05 00:13:09 | 48.28945 | 12.83697 | 94° | 18km/h | 25789m | 4.8m/s | -49.4°C | 3.4% | 23.4hPa | 2.5V | 00:00:00 | 01:43:38 | 00:00:00 | |
| OE5HKT-10 | 2026-09-05 00:13:06 | 48.28945 | 12.83677 | 85° | 22km/h | 25773m | 4.4m/s | -49.5°C | 3.4% | 23.5hPa | 2.5V | 00:00:00 | 01:43:35 | 00:00:00 | |
| OE5MMP-10 | 2026-09-05 00:13:05 | 48.28944 | 12.83669 | 85° | 24km/h | 25768m | 5.9m/s | -49.5°C | 3.4% | 23.5hPa | 2.5V | 00:00:00 | 01:43:34 | 00:00:00 | |
| BAUMI2-15 | 2026-09-05 00:13:04 | 48.28944 | 12.83661 | 87° | 26km/h | 25762m | 5.1m/s | -49.5°C | 3.4% | 23.5hPa | 2.5V | 00:00:00 | 01:43:33 | 00:00:00 | |
| OE5REO-15 | 2026-09-05 00:13:01 | 48.28942 | 12.83642 | 73° | 26km/h | 25753m | 5.3m/s | -49.5°C | 0.9% | 23.6hPa | 2.5V | 00:00:00 | 00:00:00 | 00:00:00 | |
| BAUMI2-15 | 2026-09-05 00:12:59 | 48.28932 | 12.83619 | 55° | 22km/h | 25737m | 4.4m/s | -49.4°C | 3.4% | 23.6hPa | 2.5V | 00:00:00 | 01:43:28 | 00:00:00 | |
| DO3MHA-11 | 2026-09-05 00:12:58 | 48.28929 | 12.83611 | 62° | 26km/h | 25732m | 5.6m/s | -49.4°C | 3.4% | 23.6hPa | 2.5V | 00:00:00 | 01:43:27 | 08:30:00 | |
| OE5MMP-10 | 2026-09-05 00:12:55 | 48.28923 | 12.83589 | 70° | 22km/h | 25718m | 5.7m/s | -49.3°C | 3.3% | 23.7hPa | 2.6V | 00:00:00 | 01:43:24 | 00:00:00 | |
| OE5WHR-10 | 2026-09-05 00:12:53 | 48.28920 | 12.83577 | 64° | 22km/h | 25707m | 4.4m/s | -49.3°C | 3.4% | 23.7hPa | 2.5V | 00:00:00 | 00:00:00 | 00:00:00 | |
| DG1MFX-10 | 2026-09-05 00:12:49 | 48.28915 | 12.83558 | 71° | 20km/h | 25692m | 4.3m/s | -49.3°C | 0.9% | 23.8hPa | 2.5V | 00:00:00 | 00:00:00 | 00:00:00 | |
| OE5REO-15 | 2026-09-05 00:12:46 | 48.28905 | 12.83537 | 39° | 27km/h | 25678m | 6.0m/s | -49.3°C | 0.9% | 23.9hPa | 2.5V | 00:00:00 | 00:00:00 | 00:00:00 | |
| PG1ADW-2 | 2026-09-05 00:12:45 | 48.28886 | 12.83519 | 34° | 20km/h | 25663m | 5.4m/s | -49.3°C | 3.3% | 23.9hPa | 2.5V | 00:00:00 | 00:00:00 | 00:00:00 | |
| BAUMI2-15 | 2026-09-05 00:12:44 | 48.28886 | 12.83519 | 34° | 24km/h | 25663m | 5.4m/s | -49.3°C | 3.3% | 23.9hPa | 2.6V | 00:00:00 | 01:43:13 | 00:00:00 | |
| DO3MHA-11 | 2026-09-05 00:12:42 | 48.28875 | 12.83507 | 41° | 20km/h | 25654m | 4.3m/s | -49.4°C | 3.3% | 23.9hPa | 2.6V | 00:00:00 | 01:43:11 | 00:00:00 | |
| BAUMI2-15 | 2026-09-05 00:12:39 | 48.28864 | 12.83492 | 56° | 18km/h | 25639m | 3.5m/s | -49.4°C | 3.3% | 23.9hPa | 2.6V | 00:00:00 | 01:43:08 | 00:00:00 | |
| OE5FHM-15 | 2026-09-05 00:12:36 | 48.28862 | 12.83472 | 89° | 18km/h | 25624m | 4.6m/s | -49.4°C | 3.3% | 24.0hPa | 2.6V | 00:00:00 | 01:43:05 | 08:30:00 | |
| OE5MMP-10 | 2026-09-05 00:12:35 | 48.28861 | 12.83463 | 85° | 20km/h | 25619m | 4.9m/s | -49.4°C | 3.3% | 24.1hPa | 2.6V | 00:00:00 | 01:43:04 | 00:00:00 | |
| OE5WHR-10 | 2026-09-05 00:12:32 | 48.28855 | 12.83440 | 56° | 20km/h | 25606m | 4.2m/s | -49.5°C | 3.3% | 24.1hPa | 2.6V | 00:00:00 | 01:43:01 | 00:00:00 | |
| DO3MHA-11 | 2026-09-05 00:12:30 | 48.28848 | 12.83427 | 47° | 16km/h | 25596m | 4.7m/s | -49.6°C | 3.3% | 24.2hPa | 2.6V | 00:00:00 | 01:42:59 | 00:00:00 | |
| DG1MFX-10 | 2026-09-05 00:12:28 | 48.28845 | 12.83423 | 36° | 15km/h | 25592m | 4.2m/s | -49.7°C | 0.9% | 24.2hPa | 2.6V | 00:00:00 | 00:00:00 | 00:00:00 | |
| OE5MMP-10 | 2026-09-05 00:12:25 | 48.28830 | 12.83416 | 23° | 24km/h | 25573m | 4.3m/s | -49.8°C | 3.3% | 24.2hPa | 2.6V | 00:00:00 | 01:42:54 | 08:30:00 | |
| OE5HKT-10 | 2026-09-05 00:12:24 | 48.28827 | 12.83413 | 45° | 20km/h | 25568m | 5.3m/s | -49.8°C | 3.4% | 24.2hPa | 2.6V | 00:00:00 | 00:00:00 | 00:00:00 | |
| DO3MHA-11 | 2026-09-05 00:12:20 | 48.28816 | 12.83385 | 55° | 16km/h | 25548m | 4.6m/s | -50.1°C | 3.4% | 24.3hPa | 2.6V | 00:00:00 | 01:42:49 | 00:00:00 | |
| PG1ADW-2 | 2026-09-05 00:12:19 | 48.28812 | 12.83375 | 51° | 24km/h | 25544m | 4.1m/s | -50.1°C | 3.4% | 24.4hPa | 2.6V | 00:00:00 | 01:42:48 | 00:00:00 | |
| OE5MMP-10 | 2026-09-05 00:12:15 | 48.28795 | 12.83348 | 34° | 15km/h | 25525m | 4.3m/s | -50.1°C | 3.4% | 24.4hPa | 2.6V | 00:00:00 | 01:42:44 | 00:00:00 | |
| OE5REO-15 | 2026-09-05 00:12:14 | 48.28795 | 12.83348 | 35° | 15km/h | 25525m | 4.4m/s | -50.2°C | 0.9% | 24.4hPa | 2.6V | 00:00:00 | 00:00:00 | 00:00:00 | |
| OE5WHR-10 | 2026-09-05 00:12:11 | 48.28783 | 12.83345 | 13° | 20km/h | 25506m | 4.8m/s | -50.2°C | 3.4% | 24.5hPa | 2.6V | 00:00:00 | 00:00:00 | 00:00:00 | |
| DO3MHA-11 | 2026-09-05 00:12:10 | 48.28782 | 12.83344 | 63° | 20km/h | 25501m | 5.2m/s | -50.2°C | 3.4% | 24.5hPa | 2.6V | 00:00:00 | 01:42:39 | 00:00:00 | |
| DG1MFX-10 | 2026-09-05 00:12:08 | 48.28781 | 12.83340 | 86° | 13km/h | 25497m | 4.4m/s | -50.2°C | 1.0% | 24.5hPa | 2.6V | 00:00:00 | 00:00:00 | 00:00:00 | |
| DL6DJ-15 | 2026-09-05 00:12:06 | 48.28776 | 12.83308 | 68° | 26km/h | 25477m | 4.0m/s | 0°C | -1.0% | 24.6hPa | 2.6V | 00:00:00 | 00:00:00 | 00:00:00 | |
| OE5MMP-10 | 2026-09-05 00:12:05 | 48.28776 | 12.83308 | 69° | 18km/h | 25477m | 4.0m/s | -50.2°C | 3.4% | 24.6hPa | 2.6V | 00:00:00 | 01:42:34 | 00:00:00 | |
| OE5HKT-10 | 2026-09-05 00:12:03 | 48.28771 | 12.83289 | 71° | 22km/h | 25468m | 5.0m/s | -50.3°C | 3.4% | 24.6hPa | 2.6V | 00:00:00 | 01:42:32 | 00:00:00 | |
| OE5REO-15 | 2026-09-05 00:11:59 | 48.28765 | 12.83273 | 28° | 11km/h | 25455m | 5.4m/s | -50.4°C | 0.9% | 24.7hPa | 2.6V | 00:00:00 | 00:00:00 | 00:00:00 | |
| DO3MHA-11 | 2026-09-05 00:11:58 | 48.28758 | 12.83271 | 3° | 24km/h | 25445m | 3.9m/s | -50.4°C | 3.5% | 24.7hPa | 2.6V | 00:00:00 | 01:42:27 | 00:00:00 | |
| OE5MMP-10 | 2026-09-05 00:11:55 | 48.28745 | 12.83262 | 55° | 24km/h | 25432m | 4.6m/s | -50.5°C | 3.4% | 24.7hPa | 2.6V | 00:00:00 | 01:42:24 | 00:00:00 | |
| OE5WHR-10 | 2026-09-05 00:11:50 | 48.28738 | 12.83219 | 68° | 20km/h | 25408m | 4.8m/s | -50.7°C | 3.5% | 24.9hPa | 2.6V | 00:00:00 | 00:00:00 | 00:00:00 | |
| DG1MFX-10 | 2026-09-05 00:11:47 | 48.28730 | 12.83203 | 46° | 26km/h | 25398m | 4.5m/s | -50.9°C | 1.0% | 25.0hPa | 2.6V | 00:00:00 | 00:00:00 | 00:00:00 | |
| DO3MHA-11 | 2026-09-05 00:11:46 | 48.28720 | 12.83192 | 29° | 18km/h | 25388m | 5.8m/s | -50.9°C | 3.6% | 24.9hPa | 2.6V | 00:00:00 | 01:42:15 | 00:00:00 | |
| OE5DXL-15 | 2026-09-05 00:11:45 | 48.28716 | 12.83189 | 20° | 18km/h | 25383m | 4.6m/s | -51.0°C | 3.6% | 24.9hPa | 2.5V | 00:00:00 | 00:00:00 | 00:00:00 | |
| OE5HKT-10 | 2026-09-05 00:11:42 | 48.28699 | 12.83183 | 12° | 18km/h | 25368m | 5.1m/s | -51.0°C | 3.6% | 25.0hPa | 2.5V | 00:00:00 | 00:00:00 | 00:00:00 | |
| OE8JPQ-2 | 2026-09-05 00:11:41 | 48.28694 | 12.83181 | 15° | 18km/h | 25363m | 4.2m/s | -50.9°C | 3.6% | 25.0hPa | 2.6V | 00:00:00 | 00:00:00 | 00:00:00 | |
| OE5FHM-15 | 2026-09-05 00:11:36 | 48.28675 | 12.83164 | 46° | 16km/h | 25337m | 5.7m/s | -51.1°C | 3.6% | 25.1hPa | 2.6V | 00:00:00 | 01:42:05 | 00:00:00 | |
| PG1ADW-2 | 2026-09-05 00:11:35 | 48.28672 | 12.83159 | 44° | 18km/h | 25332m | 4.3m/s | -51.1°C | 3.7% | 25.2hPa | 2.6V | 00:00:00 | 00:00:00 | 00:00:00 | |
| DL6DJ-15 | 2026-09-05 00:11:34 | 48.28662 | 12.83147 | 37° | 13km/h | 25317m | 4.9m/s | 0°C | -1.0% | 25.2hPa | 2.6V | 00:00:00 | 00:00:00 | 00:00:00 | |
| OE5WHR-10 | 2026-09-05 00:11:29 | 48.28653 | 12.83139 | 24° | 16km/h | 25302m | 6.0m/s | -51.0°C | 3.6% | 25.3hPa | 2.6V | 00:00:00 | 01:41:58 | 00:00:00 | |
| DG1MFX-10 | 2026-09-05 00:11:26 | 48.28643 | 12.83132 | 29° | 22km/h | 25291m | 4.9m/s | -51.0°C | 1.0% | 25.4hPa | 2.6V | 00:00:00 | 00:00:00 | 00:00:00 | |
| OE5MMP-10 | 2026-09-05 00:11:25 | 48.28634 | 12.83123 | 39° | 15km/h | 25281m | 5.0m/s | -50.9°C | 3.6% | 25.3hPa | 2.6V | 00:00:00 | 01:41:54 | 00:00:00 | |
| OE5HKT-10 | 2026-09-05 00:11:21 | 48.28621 | 12.83102 | 54° | 13km/h | 25261m | 4.4m/s | -50.9°C | 3.6% | 25.4hPa | 2.5V | 00:00:00 | 00:00:00 | 00:00:00 | |
| OE8JPQ-2 | 2026-09-05 00:11:20 | 48.28619 | 12.83097 | 58° | 16km/h | 25255m | 6.1m/s | -50.8°C | 3.5% | 25.5hPa | 2.5V | 00:00:00 | 00:00:00 | 00:00:00 | |
| OE5MMP-10 | 2026-09-05 00:11:15 | 48.28608 | 12.83093 | 359° | 15km/h | 25230m | 4.5m/s | -50.9°C | 3.6% | 25.5hPa | 2.5V | 00:00:00 | 01:41:44 | 00:00:00 | |
| OE5REO-15 | 2026-09-05 00:11:10 | 48.28592 | 12.83087 | 40° | 13km/h | 25209m | 4.8m/s | -51.0°C | 1.0% | 25.7hPa | 2.5V | 00:00:00 | 00:00:00 | 00:00:00 | |
| OE5WHR-10 | 2026-09-05 00:11:08 | 48.28584 | 12.83076 | 39° | 11km/h | 25194m | 5.3m/s | -50.9°C | 3.6% | 25.7hPa | 2.5V | 00:00:00 | 00:00:00 | 00:00:00 | |
| OE5FHM-15 | 2026-09-05 00:11:06 | 48.28578 | 12.83071 | 22° | 13km/h | 25185m | 4.4m/s | -50.8°C | 3.6% | 25.8hPa | 2.6V | 00:00:00 | 01:41:35 | 00:00:00 | |
| OE5MMP-10 | 2026-09-05 00:11:05 | 48.28575 | 12.83069 | 16° | 11km/h | 25180m | 5.4m/s | -50.8°C | 3.6% | 25.7hPa | 2.6V | 00:00:00 | 01:41:34 | 00:00:00 | |
| DL6DJ-15 | 2026-09-05 00:11:03 | 48.28571 | 12.83068 | 351° | 5km/h | 25169m | 4.8m/s | 0°C | -1.0% | -1.0hPa | 2.6V | 00:00:00 | 00:00:00 | 00:00:00 | |
| OE5HKT-10 | 2026-09-05 00:11:00 | 48.28565 | 12.83072 | 338° | 11km/h | 25153m | 5.6m/s | -50.8°C | 3.6% | 25.9hPa | 2.6V | 00:00:00 | 01:41:29 | 00:00:00 | |
| OE8JPQ-2 | 2026-09-05 00:10:59 | 48.28561 | 12.83074 | 338° | 13km/h | 25148m | 4.5m/s | -50.8°C | 3.6% | 25.9hPa | 2.6V | 00:00:00 | 01:41:28 | 00:00:00 | |
| OE5MMP-10 | 2026-09-05 00:10:55 | 48.28553 | 12.83083 | 284° | 11km/h | 25127m | 5.0m/s | -50.9°C | 3.6% | 26.0hPa | 2.6V | 00:00:00 | 01:41:24 | 08:30:00 | |
| OE5WHR-10 | 2026-09-05 00:10:47 | 48.28541 | 12.83111 | 323° | 13km/h | 25084m | 5.7m/s | -51.1°C | 3.6% | 26.1hPa | 2.4V | 00:00:00 | 00:00:00 | 00:00:00 | |
| OE5DXL-15 | 2026-09-05 00:10:45 | 48.28536 | 12.83114 | 347° | 13km/h | 25073m | 4.5m/s | -51.2°C | 3.6% | 26.2hPa | 2.4V | 00:00:00 | 00:00:00 | 00:00:00 | |
| DG1MFX-10 | 2026-09-05 00:10:44 | 48.28536 | 12.83114 | 348° | 11km/h | 25073m | 4.6m/s | -51.3°C | 1.0% | 26.2hPa | 2.4V | 00:00:00 | 00:00:00 | 00:00:00 | |
| OE5HKT-10 | 2026-09-05 00:10:39 | 48.28528 | 12.83140 | 288° | 13km/h | 25039m | 4.7m/s | -51.2°C | 3.6% | 26.3hPa | 2.4V | 00:00:00 | 00:00:00 | 00:00:00 | |
| OE5FHM-15 | 2026-09-05 00:10:36 | 48.28524 | 12.83166 | 276° | 11km/h | 25023m | 5.5m/s | -51.2°C | 3.7% | 26.4hPa | 2.5V | 00:00:00 | 01:41:05 | 00:00:00 | |
| OE5MMP-10 | 2026-09-05 00:10:35 | 48.28524 | 12.83174 | 273° | 9km/h | 25018m | 5.2m/s | -51.1°C | 3.7% | 26.4hPa | 2.5V | 00:00:00 | 01:41:04 | 00:00:00 | |
| BAUMI2-15 | 2026-09-05 00:10:34 | 48.28524 | 12.83180 | 277° | 7km/h | 25012m | 6.4m/s | -51.1°C | 3.7% | 26.4hPa | 2.5V | 00:00:00 | 01:41:03 | 08:30:00 | |
| DO3MHA-11 | 2026-09-05 00:10:33 | 48.28523 | 12.83184 | 286° | 9km/h | 25006m | 5.6m/s | -51.1°C | 3.7% | 26.5hPa | 2.5V | 00:00:00 | 01:41:02 | 00:00:00 | |
| OE8JPQ-2 | 2026-09-05 00:10:32 | 48.28523 | 12.83186 | 283° | 11km/h | 25001m | 4.7m/s | -51.1°C | 3.7% | 26.5hPa | 2.5V | 00:00:00 | 00:00:00 | 08:30:00 | |
| BAUMI2-15 | 2026-09-05 00:10:29 | 48.28526 | 12.83189 | 205° | 13km/h | 24984m | 5.0m/s | -51.1°C | 3.7% | 26.5hPa | 2.6V | 00:00:00 | 01:40:58 | 00:00:00 | |
| OE5WHR-10 | 2026-09-05 00:10:26 | 48.28531 | 12.83197 | 255° | 13km/h | 24967m | 5.0m/s | -51.1°C | 3.6% | 26.6hPa | 2.6V | 00:00:00 | 01:40:55 | 00:00:00 | |
| OE5MMP-10 | 2026-09-05 00:10:25 | 48.28532 | 12.83202 | 261° | 11km/h | 24963m | 5.1m/s | -51.1°C | 3.6% | 26.6hPa | 2.6V | 00:00:00 | 01:40:54 | 00:00:00 | |
| BAUMI2-15 | 2026-09-05 00:10:24 | 48.28533 | 12.83208 | 259° | 15km/h | 24956m | 6.3m/s | -51.1°C | 3.7% | 26.7hPa | 2.4V | 00:00:00 | 01:40:53 | 00:00:00 | |
| DO3MHA-11 | 2026-09-05 00:10:23 | 48.28534 | 12.83215 | 257° | 11km/h | 24951m | 5.2m/s | -51.1°C | 3.6% | 26.6hPa | 2.4V | 00:00:00 | 01:40:52 | 00:00:00 | |
| BAUMI2-15 | 2026-09-05 00:10:19 | 48.28535 | 12.83233 | 275° | 7km/h | 24930m | 4.8m/s | -51.0°C | 3.6% | 26.8hPa | 2.4V | 00:00:00 | 01:40:48 | 00:00:00 | |
| OE5HKT-10 | 2026-09-05 00:10:18 | 48.28536 | 12.83233 | 162° | 13km/h | 24924m | 5.5m/s | -51.0°C | 3.6% | 26.8hPa | 2.5V | 00:00:00 | 00:00:00 | 00:00:00 | |
| OE5MMP-10 | 2026-09-05 00:10:15 | 48.28543 | 12.83232 | 182° | 13km/h | 24907m | 5.0m/s | -50.9°C | 3.6% | 26.9hPa | 2.5V | 00:00:00 | 01:40:44 | 00:00:00 | |
| BAUMI2-15 | 2026-09-05 00:10:14 | 48.28546 | 12.83232 | 189° | 15km/h | 24902m | 5.6m/s | -50.9°C | 3.6% | 26.9hPa | 2.5V | 00:00:00 | 01:40:43 | 00:00:00 | |
| DO3MHA-11 | 2026-09-05 00:10:12 | 48.28552 | 12.83235 | 216° | 13km/h | 24891m | 4.9m/s | -50.9°C | 3.6% | 26.9hPa | 2.5V | 00:00:00 | 01:40:41 | 08:30:00 | |
| OE8JPQ-2 | 2026-09-05 00:10:11 | 48.28555 | 12.83238 | 223° | 16km/h | 24886m | 6.1m/s | -50.9°C | 3.6% | 27.0hPa | 2.6V | 00:00:00 | 00:00:00 | 00:00:00 | |
| BAUMI2-15 | 2026-09-05 00:10:09 | 48.28560 | 12.83247 | 226° | 11km/h | 24874m | 4.7m/s | -50.9°C | 3.6% | 27.0hPa | 2.6V | 00:00:00 | 01:40:38 | 00:00:00 | |
| OE5REO-15 | 2026-09-05 00:10:08 | 48.28560 | 12.83247 | 227° | 16km/h | 24874m | 4.8m/s | -50.9°C | 1.0% | 27.1hPa | 2.6V | 00:00:00 | 00:00:00 | 00:00:00 | |
| OE5WHR-10 | 2026-09-05 00:10:05 | 48.28568 | 12.83254 | 159° | 16km/h | 24853m | 5.6m/s | -50.9°C | 3.6% | 27.1hPa | 2.6V | 00:00:00 | 00:00:00 | 08:30:00 | |
| BAUMI2-15 | 2026-09-05 00:10:04 | 48.28571 | 12.83253 | 156° | 13km/h | 24847m | 5.7m/s | -50.9°C | 3.6% | 27.1hPa | 2.4V | 00:00:00 | 01:40:33 | 00:00:00 | |
| DG1MFX-10 | 2026-09-05 00:10:03 | 48.28571 | 12.83253 | 157° | 11km/h | 24847m | 5.8m/s | -51.0°C | 1.0% | 27.1hPa | 2.6V | 00:00:00 | 00:00:00 | 00:00:00 | |
| DO3MHA-11 | 2026-09-05 00:10:02 | 48.28577 | 12.83248 | 157° | 16km/h | 24836m | 5.7m/s | -51.0°C | 3.6% | 27.2hPa | 2.6V | 00:00:00 | 01:40:31 | 00:00:00 | |
| BAUMI2-15 | 2026-09-05 00:09:59 | 48.28586 | 12.83245 | 186° | 18km/h | 24821m | 4.6m/s | -51.0°C | 3.6% | 27.3hPa | 2.6V | 00:00:00 | 01:40:28 | 00:00:00 | |
| OE5HKT-10 | 2026-09-05 00:09:57 | 48.28594 | 12.83248 | 197° | 16km/h | 24809m | 5.8m/s | -51.1°C | 3.6% | 27.3hPa | 2.6V | 00:00:00 | 01:40:26 | 00:00:00 | |
| OE5MMP-10 | 2026-09-05 00:09:55 | 48.28604 | 12.83251 | 192° | 18km/h | 24798m | 5.9m/s | -51.1°C | 3.7% | 27.3hPa | 2.6V | 00:00:00 | 01:40:24 | 00:00:00 | |
| BAUMI2-15 | 2026-09-05 00:09:54 | 48.28608 | 12.83252 | 179° | 18km/h | 24792m | 4.8m/s | -51.2°C | 3.7% | 27.4hPa | 2.5V | 00:00:00 | 01:40:23 | 00:00:00 | |
| PG1ADW-2 | 2026-09-05 00:09:52 | 48.28617 | 12.83249 | 157° | 16km/h | 24783m | 5.5m/s | -51.2°C | 3.6% | 27.4hPa | 2.5V | 00:00:00 | 00:00:00 | 00:00:00 | |
| OE8JPQ-2 | 2026-09-05 00:09:51 | 48.28621 | 12.83245 | 153° | 16km/h | 24778m | 5.6m/s | -51.2°C | 3.7% | 27.4hPa | 2.6V | 00:00:00 | 01:40:20 | 00:00:00 | |
| OE5MMP-10 | 2026-09-05 00:09:45 | 48.28645 | 12.83227 | 164° | 16km/h | 24746m | 6.1m/s | -51.3°C | 3.7% | 27.6hPa | 2.6V | 00:00:00 | 01:40:14 | 00:00:00 | |
| OE5WHR-10 | 2026-09-05 00:09:44 | 48.28650 | 12.83225 | 166° | 13km/h | 24740m | 5.0m/s | -51.3°C | 3.7% | 27.6hPa | 2.6V | 00:00:00 | 00:00:00 | 00:00:00 | |
| DG1MFX-10 | 2026-09-05 00:09:42 | 48.28654 | 12.83223 | 165° | 16km/h | 24735m | 5.2m/s | -51.3°C | 1.0% | 27.7hPa | 2.6V | 00:00:00 | 00:00:00 | 00:00:00 | |
| DO3MHA-11 | 2026-09-05 00:09:41 | 48.28661 | 12.83219 | 144° | 15km/h | 24724m | 5.0m/s | -51.2°C | 3.6% | 27.6hPa | 2.6V | 00:00:00 | 01:40:10 | 00:00:00 | |
| BAUMI2-15 | 2026-09-05 00:09:39 | 48.28665 | 12.83212 | 128° | 16km/h | 24714m | 5.8m/s | -51.2°C | 3.6% | 27.7hPa | 2.6V | 00:00:00 | 01:40:08 | 00:00:00 | |
| OE5REO-15 | 2026-09-05 00:09:37 | 48.28667 | 12.83207 | 128° | 18km/h | 24708m | 5.7m/s | -51.3°C | 1.0% | 27.8hPa | 2.6V | 00:00:00 | 00:00:00 | 00:00:00 | |
| OE5HKT-10 | 2026-09-05 00:09:36 | 48.28673 | 12.83195 | 118° | 13km/h | 24697m | 5.8m/s | -51.2°C | 3.6% | 27.8hPa | 2.6V | 00:00:00 | 00:00:00 | 08:30:00 | |
| OE5MMP-10 | 2026-09-05 00:09:35 | 48.28674 | 12.83190 | 111° | 9km/h | 24691m | 5.9m/s | -51.2°C | 3.6% | 27.8hPa | 2.4V | 00:00:00 | 01:40:04 | 00:00:00 | |
| BAUMI2-15 | 2026-09-05 00:09:34 | 48.28675 | 12.83184 | 107° | 11km/h | 24686m | 4.4m/s | -51.2°C | 3.6% | 27.8hPa | 2.4V | 00:00:00 | 01:40:03 | 00:00:00 | |
| PG1ADW-2 | 2026-09-05 00:09:32 | 48.28678 | 12.83178 | 145° | 11km/h | 24675m | 6.1m/s | -51.2°C | 3.5% | 27.9hPa | 2.5V | 00:00:00 | 00:00:00 | 00:00:00 | |
| DO3MHA-11 | 2026-09-05 00:09:31 | 48.28680 | 12.83177 | 174° | 9km/h | 24670m | 5.3m/s | -51.2°C | 3.6% | 27.9hPa | 2.5V | 00:00:00 | 01:40:00 | 00:00:00 | |
| BAUMI2-15 | 2026-09-05 00:09:29 | 48.28684 | 12.83178 | 203° | 5km/h | 24659m | 5.8m/s | -51.2°C | 3.6% | 27.9hPa | 2.5V | 00:00:00 | 01:39:58 | 00:00:00 | |
| OE8JPQ-2 | 2026-09-05 00:09:27 | 48.28687 | 12.83179 | 162° | 11km/h | 24648m | 4.5m/s | -51.2°C | 3.5% | 28.0hPa | 2.5V | 00:00:00 | 00:00:00 | 00:00:00 | |
| OE5MMP-10 | 2026-09-05 00:09:25 | 48.28688 | 12.83176 | 112° | 15km/h | 24639m | 6.0m/s | -51.2°C | 3.5% | 28.0hPa | 2.6V | 00:00:00 | 01:39:54 | 08:30:00 | |
| BAUMI2-15 | 2026-09-05 00:09:24 | 48.28689 | 12.83172 | 114° | 18km/h | 24633m | 5.6m/s | -51.2°C | 3.5% | 28.1hPa | 2.5V | 00:00:00 | 01:39:53 | 00:00:00 | |
| OE5WHR-10 | 2026-09-05 00:09:23 | 48.28690 | 12.83167 | 108° | 15km/h | 24627m | 4.8m/s | -51.2°C | 3.5% | 28.1hPa | 2.5V | 00:00:00 | 01:39:52 | 00:00:00 | |
| DO3MHA-11 | 2026-09-05 00:09:21 | 48.28692 | 12.83153 | 91° | 15km/h | 24616m | 6.1m/s | -51.3°C | 3.5% | 28.1hPa | 2.5V | 00:00:00 | 01:39:50 | 00:00:00 | |
| BAUMI2-15 | 2026-09-05 00:09:19 | 48.28691 | 12.83138 | 82° | 13km/h | 24606m | 4.3m/s | -51.4°C | 3.6% | 28.2hPa | 2.5V | 00:00:00 | 01:39:48 | 00:00:00 | |
| OE5HKT-10 | 2026-09-05 00:09:15 | 48.28693 | 12.83119 | 109° | 15km/h | 24585m | 5.5m/s | -51.7°C | 3.6% | 28.3hPa | 2.5V | 00:00:00 | 00:00:00 | 00:00:00 | |
| BAUMI2-15 | 2026-09-05 00:09:14 | 48.28693 | 12.83116 | 92° | 11km/h | 24579m | 6.1m/s | -51.8°C | 3.7% | 28.3hPa | 2.5V | 00:00:00 | 01:39:43 | 00:00:00 | |
| PG1ADW-2 | 2026-09-05 00:09:12 | 48.28693 | 12.83108 | 82° | 16km/h | 24568m | 5.8m/s | -51.9°C | 3.7% | 28.4hPa | 2.5V | 00:00:00 | 01:39:41 | 00:00:00 | |
| BAUMI2-15 | 2026-09-05 00:09:09 | 48.28691 | 12.83096 | 65° | 18km/h | 24552m | 5.6m/s | -51.9°C | 3.8% | 28.4hPa | 2.5V | 00:00:00 | 01:39:38 | 00:00:00 | |
| OE8JPQ-2 | 2026-09-05 00:09:07 | 48.28686 | 12.83085 | 53° | 18km/h | 24540m | 5.1m/s | -52.0°C | 3.8% | 28.4hPa | 2.5V | 00:00:00 | 00:00:00 | 00:00:00 | |
| OE5FHM-15 | 2026-09-05 00:09:06 | 48.28683 | 12.83079 | 54° | 16km/h | 24535m | 4.9m/s | -52.0°C | 3.7% | 28.4hPa | 2.5V | 00:00:00 | 01:39:35 | 00:00:00 | |
| OE5MMP-10 | 2026-09-05 00:09:05 | 48.28680 | 12.83073 | 58° | 16km/h | 24530m | 6.0m/s | -52.0°C | 3.7% | 28.5hPa | 2.5V | 00:00:00 | 01:39:34 | 00:00:00 | |
| BAUMI2-15 | 2026-09-05 00:09:04 | 48.28678 | 12.83067 | 65° | 16km/h | 24524m | 5.2m/s | -52.0°C | 3.8% | 28.5hPa | 2.5V | 00:00:00 | 01:39:33 | 08:30:00 | |
| OE5WHR-10 | 2026-09-05 00:09:02 | 48.28675 | 12.83055 | 62° | 18km/h | 24514m | 5.8m/s | -52.0°C | 3.8% | 28.6hPa | 2.5V | 00:00:00 | 00:00:00 | 00:00:00 | |
| Es werden nur die letzten 3500 von 5257 Frames angezeigt. GPX/KML und Diagramme bleiben verfügbar. | |||||||||||||||